<?xml version="1.0" encoding="UTF-8"?>
<gpx version="1.1" creator="https://www.youtrack.es" xsi:schemaLocation="http://www.topografix.com/GPX/1/1 http://www.topografix.com/GPX/1/1/gpx.xsd http://www.garmin.com/xmlschemas/GpxExtensions/v3 http://www.garmin.com/xmlschemas/GpxExtensionsv3.xsd http://www.garmin.com/xmlschemas/TrackPointExtension/v1 http://www.garmin.com/xmlschemas/TrackPointExtensionv1.xsd" xmlns:gpxtpx="http://www.garmin.com/xmlschemas/TrackPointExtension/v1" xmlns:gpxx="http://www.garmin.com/xmlschemas/GpxExtensions/v3" xmlns:xsi="http://www.w3.org/2001/XMLSchema-instance">
  <metadata>
    <link href="https://www.youtrack.es">
      <text>YouTrack.es</text>
    </link>
    <time>2026-05-08T10:52:11Z</time>
  </metadata>
  <trk>
    <src>https://www.youtrack.es</src>
    <link href="https://www.youtrack.es/ruta/28941-ii-ciclada-santa-arribes-zamora">
      <text>YouTrack.es</text>
    </link>
    <trkseg>
      <trkpt lat="41.314641" lon="-6.399741">
        <ele>498.179</ele>
        <time>2015-03-29T08:29:05Z</time>
      </trkpt>
      <trkpt lat="41.314645" lon="-6.399733">
        <ele>498.105</ele>
        <time>2015-03-29T08:29:06Z</time>
      </trkpt>
      <trkpt lat="41.314659" lon="-6.399730">
        <ele>504.425</ele>
        <time>2015-03-29T08:29:09Z</time>
      </trkpt>
      <trkpt lat="41.314660" lon="-6.399734">
        <ele>509.607</ele>
        <time>2015-03-29T08:29:10Z</time>
      </trkpt>
      <trkpt lat="41.314660" lon="-6.399736">
        <ele>514.926</ele>
        <time>2015-03-29T08:29:11Z</time>
      </trkpt>
      <trkpt lat="41.314661" lon="-6.399742">
        <ele>520.261</ele>
        <time>2015-03-29T08:29:12Z</time>
      </trkpt>
      <trkpt lat="41.314663" lon="-6.399744">
        <ele>525.586</ele>
        <time>2015-03-29T08:29:13Z</time>
      </trkpt>
      <trkpt lat="41.314664" lon="-6.399743">
        <ele>530.320</ele>
        <time>2015-03-29T08:29:14Z</time>
      </trkpt>
      <trkpt lat="41.314666" lon="-6.399742">
        <ele>535.118</ele>
        <time>2015-03-29T08:29:15Z</time>
      </trkpt>
      <trkpt lat="41.314666" lon="-6.399741">
        <ele>539.442</ele>
        <time>2015-03-29T08:29:16Z</time>
      </trkpt>
      <trkpt lat="41.314665" lon="-6.399739">
        <ele>543.833</ele>
        <time>2015-03-29T08:29:17Z</time>
      </trkpt>
      <trkpt lat="41.314669" lon="-6.399735">
        <ele>548.199</ele>
        <time>2015-03-29T08:29:18Z</time>
      </trkpt>
      <trkpt lat="41.314673" lon="-6.399734">
        <ele>552.407</ele>
        <time>2015-03-29T08:29:19Z</time>
      </trkpt>
      <trkpt lat="41.314676" lon="-6.399734">
        <ele>556.327</ele>
        <time>2015-03-29T08:29:20Z</time>
      </trkpt>
      <trkpt lat="41.314680" lon="-6.399735">
        <ele>560.107</ele>
        <time>2015-03-29T08:29:21Z</time>
      </trkpt>
      <trkpt lat="41.314682" lon="-6.399738">
        <ele>564.018</ele>
        <time>2015-03-29T08:29:22Z</time>
      </trkpt>
      <trkpt lat="41.314683" lon="-6.399740">
        <ele>567.383</ele>
        <time>2015-03-29T08:29:23Z</time>
      </trkpt>
      <trkpt lat="41.314686" lon="-6.399742">
        <ele>570.798</ele>
        <time>2015-03-29T08:29:24Z</time>
      </trkpt>
      <trkpt lat="41.314688" lon="-6.399746">
        <ele>574.092</ele>
        <time>2015-03-29T08:29:25Z</time>
      </trkpt>
      <trkpt lat="41.314689" lon="-6.399748">
        <ele>577.490</ele>
        <time>2015-03-29T08:29:26Z</time>
      </trkpt>
      <trkpt lat="41.314690" lon="-6.399750">
        <ele>580.384</ele>
        <time>2015-03-29T08:29:27Z</time>
      </trkpt>
      <trkpt lat="41.314692" lon="-6.399752">
        <ele>586.145</ele>
        <time>2015-03-29T08:29:29Z</time>
      </trkpt>
      <trkpt lat="41.314694" lon="-6.399752">
        <ele>591.846</ele>
        <time>2015-03-29T08:29:31Z</time>
      </trkpt>
      <trkpt lat="41.314695" lon="-6.399757">
        <ele>597.188</ele>
        <time>2015-03-29T08:29:33Z</time>
      </trkpt>
      <trkpt lat="41.314694" lon="-6.399760">
        <ele>601.916</ele>
        <time>2015-03-29T08:29:35Z</time>
      </trkpt>
      <trkpt lat="41.314691" lon="-6.399764">
        <ele>606.307</ele>
        <time>2015-03-29T08:29:37Z</time>
      </trkpt>
      <trkpt lat="41.314690" lon="-6.399769">
        <ele>610.613</ele>
        <time>2015-03-29T08:29:39Z</time>
      </trkpt>
      <trkpt lat="41.314693" lon="-6.399774">
        <ele>614.428</ele>
        <time>2015-03-29T08:29:41Z</time>
      </trkpt>
      <trkpt lat="41.314694" lon="-6.399779">
        <ele>618.343</ele>
        <time>2015-03-29T08:29:43Z</time>
      </trkpt>
      <trkpt lat="41.314695" lon="-6.399787">
        <ele>621.687</ele>
        <time>2015-03-29T08:29:45Z</time>
      </trkpt>
      <trkpt lat="41.314695" lon="-6.399789">
        <ele>626.025</ele>
        <time>2015-03-29T08:29:48Z</time>
      </trkpt>
      <trkpt lat="41.314696" lon="-6.399787">
        <ele>630.349</ele>
        <time>2015-03-29T08:29:51Z</time>
      </trkpt>
      <trkpt lat="41.314691" lon="-6.399788">
        <ele>634.180</ele>
        <time>2015-03-29T08:29:54Z</time>
      </trkpt>
      <trkpt lat="41.314685" lon="-6.399784">
        <ele>637.527</ele>
        <time>2015-03-29T08:29:57Z</time>
      </trkpt>
      <trkpt lat="41.314683" lon="-6.399782">
        <ele>641.368</ele>
        <time>2015-03-29T08:30:01Z</time>
      </trkpt>
      <trkpt lat="41.314682" lon="-6.399776">
        <ele>645.214</ele>
        <time>2015-03-29T08:30:05Z</time>
      </trkpt>
      <trkpt lat="41.314676" lon="-6.399782">
        <ele>648.107</ele>
        <time>2015-03-29T08:30:09Z</time>
      </trkpt>
      <trkpt lat="41.314679" lon="-6.399785">
        <ele>651.441</ele>
        <time>2015-03-29T08:30:14Z</time>
      </trkpt>
      <trkpt lat="41.314676" lon="-6.399776">
        <ele>655.376</ele>
        <time>2015-03-29T08:30:20Z</time>
      </trkpt>
      <trkpt lat="41.314673" lon="-6.399773">
        <ele>658.231</ele>
        <time>2015-03-29T08:30:27Z</time>
      </trkpt>
      <trkpt lat="41.314673" lon="-6.399771">
        <ele>661.525</ele>
        <time>2015-03-29T08:30:36Z</time>
      </trkpt>
      <trkpt lat="41.314682" lon="-6.399789">
        <ele>664.423</ele>
        <time>2015-03-29T08:30:48Z</time>
      </trkpt>
      <trkpt lat="41.314687" lon="-6.399792">
        <ele>667.867</ele>
        <time>2015-03-29T08:31:06Z</time>
      </trkpt>
      <trkpt lat="41.314690" lon="-6.399789">
        <ele>667.858</ele>
        <time>2015-03-29T08:31:30Z</time>
      </trkpt>
      <trkpt lat="41.314684" lon="-6.399777">
        <ele>668.325</ele>
        <time>2015-03-29T08:31:56Z</time>
      </trkpt>
      <trkpt lat="41.314692" lon="-6.399774">
        <ele>668.326</ele>
        <time>2015-03-29T08:32:17Z</time>
      </trkpt>
      <trkpt lat="41.314697" lon="-6.399779">
        <ele>668.708</ele>
        <time>2015-03-29T08:32:39Z</time>
      </trkpt>
      <trkpt lat="41.314700" lon="-6.399777">
        <ele>668.707</ele>
        <time>2015-03-29T08:33:04Z</time>
      </trkpt>
      <trkpt lat="41.314697" lon="-6.399777">
        <ele>668.781</ele>
        <time>2015-03-29T08:33:28Z</time>
      </trkpt>
      <trkpt lat="41.314699" lon="-6.399779">
        <ele>668.736</ele>
        <time>2015-03-29T08:33:50Z</time>
      </trkpt>
      <trkpt lat="41.314702" lon="-6.399782">
        <ele>665.911</ele>
        <time>2015-03-29T08:34:04Z</time>
      </trkpt>
      <trkpt lat="41.314702" lon="-6.399782">
        <ele>670.215</ele>
        <time>2015-03-29T08:34:05Z</time>
      </trkpt>
      <trkpt lat="41.314702" lon="-6.399781">
        <ele>668.393</ele>
        <time>2015-03-29T08:34:09Z</time>
      </trkpt>
      <trkpt lat="41.314694" lon="-6.399780">
        <ele>668.377</ele>
        <time>2015-03-29T08:34:33Z</time>
      </trkpt>
      <trkpt lat="41.314690" lon="-6.399769">
        <ele>668.738</ele>
        <time>2015-03-29T08:34:54Z</time>
      </trkpt>
      <trkpt lat="41.314692" lon="-6.399769">
        <ele>668.365</ele>
        <time>2015-03-29T08:35:15Z</time>
      </trkpt>
      <trkpt lat="41.314686" lon="-6.399772">
        <ele>668.368</ele>
        <time>2015-03-29T08:35:39Z</time>
      </trkpt>
      <trkpt lat="41.314685" lon="-6.399772">
        <ele>668.714</ele>
        <time>2015-03-29T08:36:03Z</time>
      </trkpt>
      <trkpt lat="41.314684" lon="-6.399776">
        <ele>668.307</ele>
        <time>2015-03-29T08:36:27Z</time>
      </trkpt>
      <trkpt lat="41.314689" lon="-6.399780">
        <ele>668.325</ele>
        <time>2015-03-29T08:36:49Z</time>
      </trkpt>
      <trkpt lat="41.314687" lon="-6.399792">
        <ele>668.360</ele>
        <time>2015-03-29T08:37:19Z</time>
      </trkpt>
      <trkpt lat="41.314690" lon="-6.399781">
        <ele>668.365</ele>
        <time>2015-03-29T08:37:46Z</time>
      </trkpt>
      <trkpt lat="41.314696" lon="-6.399783">
        <ele>668.329</ele>
        <time>2015-03-29T08:38:15Z</time>
      </trkpt>
      <trkpt lat="41.314698" lon="-6.399795">
        <ele>668.387</ele>
        <time>2015-03-29T08:38:40Z</time>
      </trkpt>
      <trkpt lat="41.314695" lon="-6.399794">
        <ele>668.371</ele>
        <time>2015-03-29T08:39:07Z</time>
      </trkpt>
      <trkpt lat="41.314694" lon="-6.399783">
        <ele>668.312</ele>
        <time>2015-03-29T08:39:33Z</time>
      </trkpt>
      <trkpt lat="41.314692" lon="-6.399780">
        <ele>668.319</ele>
        <time>2015-03-29T08:40:02Z</time>
      </trkpt>
      <trkpt lat="41.314686" lon="-6.399771">
        <ele>668.309</ele>
        <time>2015-03-29T08:40:28Z</time>
      </trkpt>
      <trkpt lat="41.314683" lon="-6.399781">
        <ele>668.719</ele>
        <time>2015-03-29T08:40:53Z</time>
      </trkpt>
      <trkpt lat="41.314683" lon="-6.399786">
        <ele>668.707</ele>
        <time>2015-03-29T08:41:19Z</time>
      </trkpt>
      <trkpt lat="41.314693" lon="-6.399782">
        <ele>669.210</ele>
        <time>2015-03-29T08:41:47Z</time>
      </trkpt>
      <trkpt lat="41.314697" lon="-6.399798">
        <ele>669.245</ele>
        <time>2015-03-29T08:42:12Z</time>
      </trkpt>
      <trkpt lat="41.314703" lon="-6.399805">
        <ele>669.760</ele>
        <time>2015-03-29T08:42:37Z</time>
      </trkpt>
      <trkpt lat="41.314698" lon="-6.399795">
        <ele>669.734</ele>
        <time>2015-03-29T08:43:05Z</time>
      </trkpt>
      <trkpt lat="41.314695" lon="-6.399783">
        <ele>669.752</ele>
        <time>2015-03-29T08:43:30Z</time>
      </trkpt>
      <trkpt lat="41.314692" lon="-6.399774">
        <ele>669.766</ele>
        <time>2015-03-29T08:43:45Z</time>
      </trkpt>
      <trkpt lat="41.314689" lon="-6.399768">
        <ele>669.717</ele>
        <time>2015-03-29T08:44:02Z</time>
      </trkpt>
      <trkpt lat="41.314695" lon="-6.399761">
        <ele>669.782</ele>
        <time>2015-03-29T08:44:13Z</time>
      </trkpt>
      <trkpt lat="41.314709" lon="-6.399731">
        <ele>669.743</ele>
        <time>2015-03-29T08:44:22Z</time>
      </trkpt>
      <trkpt lat="41.314667" lon="-6.399588">
        <ele>670.717</ele>
        <time>2015-03-29T08:44:31Z</time>
      </trkpt>
      <trkpt lat="41.314632" lon="-6.399532">
        <ele>670.707</ele>
        <time>2015-03-29T08:44:34Z</time>
      </trkpt>
      <trkpt lat="41.314638" lon="-6.399463">
        <ele>670.767</ele>
        <time>2015-03-29T08:44:38Z</time>
      </trkpt>
      <trkpt lat="41.314665" lon="-6.399485">
        <ele>670.782</ele>
        <time>2015-03-29T08:44:50Z</time>
      </trkpt>
      <trkpt lat="41.314665" lon="-6.399482">
        <ele>670.767</ele>
        <time>2015-03-29T08:44:55Z</time>
      </trkpt>
      <trkpt lat="41.314659" lon="-6.399540">
        <ele>670.781</ele>
        <time>2015-03-29T08:44:59Z</time>
      </trkpt>
      <trkpt lat="41.314646" lon="-6.399592">
        <ele>670.259</ele>
        <time>2015-03-29T08:45:03Z</time>
      </trkpt>
      <trkpt lat="41.314731" lon="-6.399723">
        <ele>669.753</ele>
        <time>2015-03-29T08:45:09Z</time>
      </trkpt>
      <trkpt lat="41.314829" lon="-6.399826">
        <ele>669.274</ele>
        <time>2015-03-29T08:45:13Z</time>
      </trkpt>
      <trkpt lat="41.314868" lon="-6.399860">
        <ele>668.773</ele>
        <time>2015-03-29T08:45:14Z</time>
      </trkpt>
      <trkpt lat="41.314913" lon="-6.399876">
        <ele>668.385</ele>
        <time>2015-03-29T08:45:15Z</time>
      </trkpt>
      <trkpt lat="41.314958" lon="-6.399878">
        <ele>668.313</ele>
        <time>2015-03-29T08:45:16Z</time>
      </trkpt>
      <trkpt lat="41.315002" lon="-6.399875">
        <ele>668.307</ele>
        <time>2015-03-29T08:45:17Z</time>
      </trkpt>
      <trkpt lat="41.315045" lon="-6.399879">
        <ele>668.346</ele>
        <time>2015-03-29T08:45:18Z</time>
      </trkpt>
      <trkpt lat="41.315090" lon="-6.399886">
        <ele>668.321</ele>
        <time>2015-03-29T08:45:19Z</time>
      </trkpt>
      <trkpt lat="41.315135" lon="-6.399889">
        <ele>668.396</ele>
        <time>2015-03-29T08:45:20Z</time>
      </trkpt>
      <trkpt lat="41.315718" lon="-6.399910">
        <ele>667.370</ele>
        <time>2015-03-29T08:45:33Z</time>
      </trkpt>
      <trkpt lat="41.315846" lon="-6.399899">
        <ele>667.318</ele>
        <time>2015-03-29T08:45:36Z</time>
      </trkpt>
      <trkpt lat="41.316268" lon="-6.399920">
        <ele>668.372</ele>
        <time>2015-03-29T08:45:47Z</time>
      </trkpt>
      <trkpt lat="41.316450" lon="-6.399826">
        <ele>667.393</ele>
        <time>2015-03-29T08:45:53Z</time>
      </trkpt>
      <trkpt lat="41.316478" lon="-6.399786">
        <ele>666.888</ele>
        <time>2015-03-29T08:45:54Z</time>
      </trkpt>
      <trkpt lat="41.316503" lon="-6.399741">
        <ele>666.824</ele>
        <time>2015-03-29T08:45:55Z</time>
      </trkpt>
      <trkpt lat="41.316712" lon="-6.399365">
        <ele>663.526</ele>
        <time>2015-03-29T08:46:04Z</time>
      </trkpt>
      <trkpt lat="41.316850" lon="-6.399117">
        <ele>661.507</ele>
        <time>2015-03-29T08:46:11Z</time>
      </trkpt>
      <trkpt lat="41.316860" lon="-6.399086">
        <ele>661.537</ele>
        <time>2015-03-29T08:46:12Z</time>
      </trkpt>
      <trkpt lat="41.316870" lon="-6.399060">
        <ele>661.082</ele>
        <time>2015-03-29T08:46:13Z</time>
      </trkpt>
      <trkpt lat="41.316877" lon="-6.399041">
        <ele>661.027</ele>
        <time>2015-03-29T08:46:21Z</time>
      </trkpt>
      <trkpt lat="41.316889" lon="-6.399008">
        <ele>661.041</ele>
        <time>2015-03-29T08:46:32Z</time>
      </trkpt>
      <trkpt lat="41.316887" lon="-6.398986">
        <ele>661.049</ele>
        <time>2015-03-29T08:46:33Z</time>
      </trkpt>
      <trkpt lat="41.316780" lon="-6.398736">
        <ele>662.513</ele>
        <time>2015-03-29T08:46:42Z</time>
      </trkpt>
      <trkpt lat="41.316673" lon="-6.398495">
        <ele>664.474</ele>
        <time>2015-03-29T08:46:50Z</time>
      </trkpt>
      <trkpt lat="41.316668" lon="-6.398463">
        <ele>664.943</ele>
        <time>2015-03-29T08:46:51Z</time>
      </trkpt>
      <trkpt lat="41.316674" lon="-6.398285">
        <ele>665.964</ele>
        <time>2015-03-29T08:46:56Z</time>
      </trkpt>
      <trkpt lat="41.316692" lon="-6.398255">
        <ele>665.910</ele>
        <time>2015-03-29T08:46:57Z</time>
      </trkpt>
      <trkpt lat="41.316786" lon="-6.398139">
        <ele>666.307</ele>
        <time>2015-03-29T08:47:04Z</time>
      </trkpt>
      <trkpt lat="41.316778" lon="-6.398140">
        <ele>666.333</ele>
        <time>2015-03-29T08:47:15Z</time>
      </trkpt>
      <trkpt lat="41.316782" lon="-6.398125">
        <ele>666.378</ele>
        <time>2015-03-29T08:47:34Z</time>
      </trkpt>
      <trkpt lat="41.316782" lon="-6.398120">
        <ele>666.393</ele>
        <time>2015-03-29T08:47:44Z</time>
      </trkpt>
      <trkpt lat="41.316774" lon="-6.398122">
        <ele>666.327</ele>
        <time>2015-03-29T08:48:10Z</time>
      </trkpt>
      <trkpt lat="41.316776" lon="-6.398131">
        <ele>666.315</ele>
        <time>2015-03-29T08:48:34Z</time>
      </trkpt>
      <trkpt lat="41.316785" lon="-6.398136">
        <ele>666.319</ele>
        <time>2015-03-29T08:48:58Z</time>
      </trkpt>
      <trkpt lat="41.316786" lon="-6.398145">
        <ele>666.360</ele>
        <time>2015-03-29T08:49:26Z</time>
      </trkpt>
      <trkpt lat="41.316773" lon="-6.398126">
        <ele>666.831</ele>
        <time>2015-03-29T08:49:53Z</time>
      </trkpt>
      <trkpt lat="41.316764" lon="-6.398127">
        <ele>666.861</ele>
        <time>2015-03-29T08:50:18Z</time>
      </trkpt>
      <trkpt lat="41.316768" lon="-6.398143">
        <ele>666.807</ele>
        <time>2015-03-29T08:50:45Z</time>
      </trkpt>
      <trkpt lat="41.316769" lon="-6.398141">
        <ele>666.807</ele>
        <time>2015-03-29T08:51:05Z</time>
      </trkpt>
      <trkpt lat="41.316773" lon="-6.398112">
        <ele>666.842</ele>
        <time>2015-03-29T08:51:17Z</time>
      </trkpt>
      <trkpt lat="41.316772" lon="-6.398112">
        <ele>666.827</ele>
        <time>2015-03-29T08:51:19Z</time>
      </trkpt>
      <trkpt lat="41.316749" lon="-6.398117">
        <ele>666.822</ele>
        <time>2015-03-29T08:51:24Z</time>
      </trkpt>
      <trkpt lat="41.316737" lon="-6.398132">
        <ele>666.886</ele>
        <time>2015-03-29T08:51:25Z</time>
      </trkpt>
      <trkpt lat="41.316724" lon="-6.398152">
        <ele>666.864</ele>
        <time>2015-03-29T08:51:26Z</time>
      </trkpt>
      <trkpt lat="41.316712" lon="-6.398177">
        <ele>666.348</ele>
        <time>2015-03-29T08:51:27Z</time>
      </trkpt>
      <trkpt lat="41.316703" lon="-6.398208">
        <ele>666.329</ele>
        <time>2015-03-29T08:51:28Z</time>
      </trkpt>
      <trkpt lat="41.316694" lon="-6.398243">
        <ele>666.393</ele>
        <time>2015-03-29T08:51:29Z</time>
      </trkpt>
      <trkpt lat="41.316682" lon="-6.398280">
        <ele>665.965</ele>
        <time>2015-03-29T08:51:30Z</time>
      </trkpt>
      <trkpt lat="41.316733" lon="-6.398581">
        <ele>663.921</ele>
        <time>2015-03-29T08:51:38Z</time>
      </trkpt>
      <trkpt lat="41.316931" lon="-6.398967">
        <ele>661.007</ele>
        <time>2015-03-29T08:51:51Z</time>
      </trkpt>
      <trkpt lat="41.316974" lon="-6.399026">
        <ele>660.648</ele>
        <time>2015-03-29T08:51:57Z</time>
      </trkpt>
      <trkpt lat="41.316984" lon="-6.399037">
        <ele>660.193</ele>
        <time>2015-03-29T08:51:58Z</time>
      </trkpt>
      <trkpt lat="41.316994" lon="-6.399054">
        <ele>660.188</ele>
        <time>2015-03-29T08:51:59Z</time>
      </trkpt>
      <trkpt lat="41.316997" lon="-6.399074">
        <ele>660.132</ele>
        <time>2015-03-29T08:52:00Z</time>
      </trkpt>
      <trkpt lat="41.316995" lon="-6.399096">
        <ele>660.140</ele>
        <time>2015-03-29T08:52:01Z</time>
      </trkpt>
      <trkpt lat="41.316986" lon="-6.399121">
        <ele>660.144</ele>
        <time>2015-03-29T08:52:02Z</time>
      </trkpt>
      <trkpt lat="41.316975" lon="-6.399142">
        <ele>660.185</ele>
        <time>2015-03-29T08:52:03Z</time>
      </trkpt>
      <trkpt lat="41.316961" lon="-6.399155">
        <ele>660.188</ele>
        <time>2015-03-29T08:52:04Z</time>
      </trkpt>
      <trkpt lat="41.316945" lon="-6.399161">
        <ele>660.624</ele>
        <time>2015-03-29T08:52:05Z</time>
      </trkpt>
      <trkpt lat="41.316930" lon="-6.399164">
        <ele>660.626</ele>
        <time>2015-03-29T08:52:06Z</time>
      </trkpt>
      <trkpt lat="41.316876" lon="-6.399208">
        <ele>661.007</ele>
        <time>2015-03-29T08:52:10Z</time>
      </trkpt>
      <trkpt lat="41.316870" lon="-6.399234">
        <ele>661.057</ele>
        <time>2015-03-29T08:52:11Z</time>
      </trkpt>
      <trkpt lat="41.316862" lon="-6.399255">
        <ele>661.022</ele>
        <time>2015-03-29T08:52:12Z</time>
      </trkpt>
      <trkpt lat="41.316855" lon="-6.399272">
        <ele>661.587</ele>
        <time>2015-03-29T08:52:13Z</time>
      </trkpt>
      <trkpt lat="41.316846" lon="-6.399286">
        <ele>661.561</ele>
        <time>2015-03-29T08:52:14Z</time>
      </trkpt>
      <trkpt lat="41.316834" lon="-6.399295">
        <ele>661.559</ele>
        <time>2015-03-29T08:52:15Z</time>
      </trkpt>
      <trkpt lat="41.316788" lon="-6.399313">
        <ele>662.533</ele>
        <time>2015-03-29T08:52:19Z</time>
      </trkpt>
      <trkpt lat="41.316785" lon="-6.399329">
        <ele>662.574</ele>
        <time>2015-03-29T08:52:20Z</time>
      </trkpt>
      <trkpt lat="41.316779" lon="-6.399345">
        <ele>662.562</ele>
        <time>2015-03-29T08:52:21Z</time>
      </trkpt>
      <trkpt lat="41.316768" lon="-6.399360">
        <ele>662.583</ele>
        <time>2015-03-29T08:52:22Z</time>
      </trkpt>
      <trkpt lat="41.316757" lon="-6.399377">
        <ele>663.011</ele>
        <time>2015-03-29T08:52:23Z</time>
      </trkpt>
      <trkpt lat="41.316745" lon="-6.399396">
        <ele>663.007</ele>
        <time>2015-03-29T08:52:24Z</time>
      </trkpt>
      <trkpt lat="41.316737" lon="-6.399418">
        <ele>663.045</ele>
        <time>2015-03-29T08:52:25Z</time>
      </trkpt>
      <trkpt lat="41.316731" lon="-6.399440">
        <ele>663.510</ele>
        <time>2015-03-29T08:52:26Z</time>
      </trkpt>
      <trkpt lat="41.316721" lon="-6.399456">
        <ele>663.555</ele>
        <time>2015-03-29T08:52:27Z</time>
      </trkpt>
      <trkpt lat="41.316710" lon="-6.399470">
        <ele>663.559</ele>
        <time>2015-03-29T08:52:28Z</time>
      </trkpt>
      <trkpt lat="41.316697" lon="-6.399484">
        <ele>663.977</ele>
        <time>2015-03-29T08:52:29Z</time>
      </trkpt>
      <trkpt lat="41.316685" lon="-6.399504">
        <ele>663.991</ele>
        <time>2015-03-29T08:52:30Z</time>
      </trkpt>
      <trkpt lat="41.316674" lon="-6.399527">
        <ele>663.912</ele>
        <time>2015-03-29T08:52:31Z</time>
      </trkpt>
      <trkpt lat="41.316665" lon="-6.399548">
        <ele>663.966</ele>
        <time>2015-03-29T08:52:32Z</time>
      </trkpt>
      <trkpt lat="41.316655" lon="-6.399570">
        <ele>663.929</ele>
        <time>2015-03-29T08:52:33Z</time>
      </trkpt>
      <trkpt lat="41.316644" lon="-6.399593">
        <ele>664.421</ele>
        <time>2015-03-29T08:52:34Z</time>
      </trkpt>
      <trkpt lat="41.316554" lon="-6.399744">
        <ele>665.407</ele>
        <time>2015-03-29T08:52:41Z</time>
      </trkpt>
      <trkpt lat="41.316471" lon="-6.399875">
        <ele>666.825</ele>
        <time>2015-03-29T08:52:47Z</time>
      </trkpt>
      <trkpt lat="41.316248" lon="-6.399987">
        <ele>667.830</ele>
        <time>2015-03-29T08:52:57Z</time>
      </trkpt>
      <trkpt lat="41.315950" lon="-6.399966">
        <ele>667.375</ele>
        <time>2015-03-29T08:53:08Z</time>
      </trkpt>
      <trkpt lat="41.315771" lon="-6.399963">
        <ele>667.399</ele>
        <time>2015-03-29T08:53:18Z</time>
      </trkpt>
      <trkpt lat="41.315482" lon="-6.399954">
        <ele>667.327</ele>
        <time>2015-03-29T08:53:28Z</time>
      </trkpt>
      <trkpt lat="41.315087" lon="-6.399930">
        <ele>667.841</ele>
        <time>2015-03-29T08:53:39Z</time>
      </trkpt>
      <trkpt lat="41.314927" lon="-6.399924">
        <ele>667.862</ele>
        <time>2015-03-29T08:53:43Z</time>
      </trkpt>
      <trkpt lat="41.314887" lon="-6.399920">
        <ele>667.896</ele>
        <time>2015-03-29T08:53:44Z</time>
      </trkpt>
      <trkpt lat="41.314846" lon="-6.399918">
        <ele>667.831</ele>
        <time>2015-03-29T08:53:45Z</time>
      </trkpt>
      <trkpt lat="41.314804" lon="-6.399914">
        <ele>667.824</ele>
        <time>2015-03-29T08:53:46Z</time>
      </trkpt>
      <trkpt lat="41.314760" lon="-6.399911">
        <ele>667.307</ele>
        <time>2015-03-29T08:53:47Z</time>
      </trkpt>
      <trkpt lat="41.314189" lon="-6.399884">
        <ele>666.378</ele>
        <time>2015-03-29T08:53:59Z</time>
      </trkpt>
      <trkpt lat="41.314138" lon="-6.399886">
        <ele>666.353</ele>
        <time>2015-03-29T08:54:00Z</time>
      </trkpt>
      <trkpt lat="41.313550" lon="-6.400135">
        <ele>665.488</ele>
        <time>2015-03-29T08:54:12Z</time>
      </trkpt>
      <trkpt lat="41.312924" lon="-6.400676">
        <ele>666.352</ele>
        <time>2015-03-29T08:54:28Z</time>
      </trkpt>
      <trkpt lat="41.312587" lon="-6.401013">
        <ele>666.850</ele>
        <time>2015-03-29T08:54:37Z</time>
      </trkpt>
      <trkpt lat="41.312367" lon="-6.401458">
        <ele>667.384</ele>
        <time>2015-03-29T08:54:46Z</time>
      </trkpt>
      <trkpt lat="41.312169" lon="-6.402181">
        <ele>667.815</ele>
        <time>2015-03-29T08:54:59Z</time>
      </trkpt>
      <trkpt lat="41.312142" lon="-6.402291">
        <ele>667.874</ele>
        <time>2015-03-29T08:55:01Z</time>
      </trkpt>
      <trkpt lat="41.311955" lon="-6.403040">
        <ele>667.856</ele>
        <time>2015-03-29T08:55:14Z</time>
      </trkpt>
      <trkpt lat="41.311728" lon="-6.403852">
        <ele>667.821</ele>
        <time>2015-03-29T08:55:28Z</time>
      </trkpt>
      <trkpt lat="41.311519" lon="-6.404422">
        <ele>667.307</ele>
        <time>2015-03-29T08:55:38Z</time>
      </trkpt>
      <trkpt lat="41.311388" lon="-6.404685">
        <ele>667.356</ele>
        <time>2015-03-29T08:55:43Z</time>
      </trkpt>
      <trkpt lat="41.310878" lon="-6.405470">
        <ele>666.821</ele>
        <time>2015-03-29T08:55:59Z</time>
      </trkpt>
      <trkpt lat="41.310665" lon="-6.405725">
        <ele>666.886</ele>
        <time>2015-03-29T08:56:05Z</time>
      </trkpt>
      <trkpt lat="41.310628" lon="-6.405764">
        <ele>666.890</ele>
        <time>2015-03-29T08:56:06Z</time>
      </trkpt>
      <trkpt lat="41.310114" lon="-6.406348">
        <ele>665.928</ele>
        <time>2015-03-29T08:56:20Z</time>
      </trkpt>
      <trkpt lat="41.309584" lon="-6.406925">
        <ele>663.932</ele>
        <time>2015-03-29T08:56:33Z</time>
      </trkpt>
      <trkpt lat="41.309052" lon="-6.407525">
        <ele>661.043</ele>
        <time>2015-03-29T08:56:45Z</time>
      </trkpt>
      <trkpt lat="41.308642" lon="-6.408018">
        <ele>658.265</ele>
        <time>2015-03-29T08:56:53Z</time>
      </trkpt>
      <trkpt lat="41.308306" lon="-6.408477">
        <ele>654.868</ele>
        <time>2015-03-29T08:56:59Z</time>
      </trkpt>
      <trkpt lat="41.307978" lon="-6.408991">
        <ele>651.414</ele>
        <time>2015-03-29T08:57:05Z</time>
      </trkpt>
      <trkpt lat="41.307689" lon="-6.409438">
        <ele>648.607</ele>
        <time>2015-03-29T08:57:10Z</time>
      </trkpt>
      <trkpt lat="41.307390" lon="-6.409893">
        <ele>645.255</ele>
        <time>2015-03-29T08:57:15Z</time>
      </trkpt>
      <trkpt lat="41.307331" lon="-6.409987">
        <ele>645.290</ele>
        <time>2015-03-29T08:57:16Z</time>
      </trkpt>
      <trkpt lat="41.307018" lon="-6.410427">
        <ele>641.855</ele>
        <time>2015-03-29T08:57:21Z</time>
      </trkpt>
      <trkpt lat="41.306821" lon="-6.410667">
        <ele>640.499</ele>
        <time>2015-03-29T08:57:24Z</time>
      </trkpt>
      <trkpt lat="41.306549" lon="-6.410955">
        <ele>638.527</ele>
        <time>2015-03-29T08:57:28Z</time>
      </trkpt>
      <trkpt lat="41.305897" lon="-6.411458">
        <ele>638.581</ele>
        <time>2015-03-29T08:57:38Z</time>
      </trkpt>
      <trkpt lat="41.305286" lon="-6.411836">
        <ele>639.922</ele>
        <time>2015-03-29T08:57:49Z</time>
      </trkpt>
      <trkpt lat="41.304875" lon="-6.412077">
        <ele>642.321</ele>
        <time>2015-03-29T08:57:59Z</time>
      </trkpt>
      <trkpt lat="41.304400" lon="-6.412371">
        <ele>645.241</ele>
        <time>2015-03-29T08:58:13Z</time>
      </trkpt>
      <trkpt lat="41.304047" lon="-6.412597">
        <ele>647.605</ele>
        <time>2015-03-29T08:58:24Z</time>
      </trkpt>
      <trkpt lat="41.303616" lon="-6.412874">
        <ele>650.507</ele>
        <time>2015-03-29T08:58:38Z</time>
      </trkpt>
      <trkpt lat="41.303249" lon="-6.413200">
        <ele>651.971</ele>
        <time>2015-03-29T08:58:51Z</time>
      </trkpt>
      <trkpt lat="41.302899" lon="-6.413684">
        <ele>652.976</ele>
        <time>2015-03-29T08:59:05Z</time>
      </trkpt>
      <trkpt lat="41.302591" lon="-6.414308">
        <ele>652.931</ele>
        <time>2015-03-29T08:59:18Z</time>
      </trkpt>
      <trkpt lat="41.302485" lon="-6.414572">
        <ele>652.935</ele>
        <time>2015-03-29T08:59:23Z</time>
      </trkpt>
      <trkpt lat="41.302215" lon="-6.415209">
        <ele>652.983</ele>
        <time>2015-03-29T08:59:35Z</time>
      </trkpt>
      <trkpt lat="41.301903" lon="-6.415936">
        <ele>652.927</ele>
        <time>2015-03-29T08:59:49Z</time>
      </trkpt>
      <trkpt lat="41.301605" lon="-6.416637">
        <ele>653.448</ele>
        <time>2015-03-29T09:00:03Z</time>
      </trkpt>
      <trkpt lat="41.301582" lon="-6.416689">
        <ele>653.453</ele>
        <time>2015-03-29T09:00:04Z</time>
      </trkpt>
      <trkpt lat="41.301561" lon="-6.416741">
        <ele>653.404</ele>
        <time>2015-03-29T09:00:05Z</time>
      </trkpt>
      <trkpt lat="41.301313" lon="-6.417341">
        <ele>653.814</ele>
        <time>2015-03-29T09:00:17Z</time>
      </trkpt>
      <trkpt lat="41.301292" lon="-6.417390">
        <ele>653.807</ele>
        <time>2015-03-29T09:00:18Z</time>
      </trkpt>
      <trkpt lat="41.301006" lon="-6.418064">
        <ele>653.494</ele>
        <time>2015-03-29T09:00:31Z</time>
      </trkpt>
      <trkpt lat="41.300733" lon="-6.418787">
        <ele>652.439</ele>
        <time>2015-03-29T09:00:44Z</time>
      </trkpt>
      <trkpt lat="41.300698" lon="-6.418919">
        <ele>652.444</ele>
        <time>2015-03-29T09:00:46Z</time>
      </trkpt>
      <trkpt lat="41.300494" lon="-6.419943">
        <ele>650.588</ele>
        <time>2015-03-29T09:01:00Z</time>
      </trkpt>
      <trkpt lat="41.300405" lon="-6.420464">
        <ele>649.576</ele>
        <time>2015-03-29T09:01:07Z</time>
      </trkpt>
      <trkpt lat="41.300258" lon="-6.421277">
        <ele>649.080</ele>
        <time>2015-03-29T09:01:18Z</time>
      </trkpt>
      <trkpt lat="41.300179" lon="-6.421619">
        <ele>647.661</ele>
        <time>2015-03-29T09:01:23Z</time>
      </trkpt>
      <trkpt lat="41.299920" lon="-6.422452">
        <ele>649.068</ele>
        <time>2015-03-29T09:01:36Z</time>
      </trkpt>
      <trkpt lat="41.299874" lon="-6.422583">
        <ele>649.542</ele>
        <time>2015-03-29T09:01:38Z</time>
      </trkpt>
      <trkpt lat="41.299529" lon="-6.423467">
        <ele>647.126</ele>
        <time>2015-03-29T09:01:51Z</time>
      </trkpt>
      <trkpt lat="41.299279" lon="-6.424090">
        <ele>643.707</ele>
        <time>2015-03-29T09:01:59Z</time>
      </trkpt>
      <trkpt lat="41.299097" lon="-6.424572">
        <ele>640.915</ele>
        <time>2015-03-29T09:02:04Z</time>
      </trkpt>
      <trkpt lat="41.298951" lon="-6.425023">
        <ele>637.530</ele>
        <time>2015-03-29T09:02:08Z</time>
      </trkpt>
      <trkpt lat="41.298797" lon="-6.425619">
        <ele>633.755</ele>
        <time>2015-03-29T09:02:13Z</time>
      </trkpt>
      <trkpt lat="41.298722" lon="-6.426115">
        <ele>630.399</ele>
        <time>2015-03-29T09:02:17Z</time>
      </trkpt>
      <trkpt lat="41.298666" lon="-6.426645">
        <ele>626.937</ele>
        <time>2015-03-29T09:02:21Z</time>
      </trkpt>
      <trkpt lat="41.298619" lon="-6.427058">
        <ele>623.141</ele>
        <time>2015-03-29T09:02:24Z</time>
      </trkpt>
      <trkpt lat="41.298554" lon="-6.427627">
        <ele>619.722</ele>
        <time>2015-03-29T09:02:28Z</time>
      </trkpt>
      <trkpt lat="41.298480" lon="-6.428321">
        <ele>616.841</ele>
        <time>2015-03-29T09:02:33Z</time>
      </trkpt>
      <trkpt lat="41.298464" lon="-6.428453">
        <ele>616.381</ele>
        <time>2015-03-29T09:02:34Z</time>
      </trkpt>
      <trkpt lat="41.298361" lon="-6.429292">
        <ele>613.509</ele>
        <time>2015-03-29T09:02:41Z</time>
      </trkpt>
      <trkpt lat="41.298291" lon="-6.430319">
        <ele>611.507</ele>
        <time>2015-03-29T09:02:51Z</time>
      </trkpt>
      <trkpt lat="41.298345" lon="-6.431230">
        <ele>613.053</ele>
        <time>2015-03-29T09:03:02Z</time>
      </trkpt>
      <trkpt lat="41.298464" lon="-6.432044">
        <ele>614.978</ele>
        <time>2015-03-29T09:03:15Z</time>
      </trkpt>
      <trkpt lat="41.298548" lon="-6.432617">
        <ele>617.363</ele>
        <time>2015-03-29T09:03:26Z</time>
      </trkpt>
      <trkpt lat="41.298514" lon="-6.433246">
        <ele>617.327</ele>
        <time>2015-03-29T09:03:38Z</time>
      </trkpt>
      <trkpt lat="41.298465" lon="-6.433475">
        <ele>616.885</ele>
        <time>2015-03-29T09:03:42Z</time>
      </trkpt>
      <trkpt lat="41.298450" lon="-6.433534">
        <ele>616.359</ele>
        <time>2015-03-29T09:03:43Z</time>
      </trkpt>
      <trkpt lat="41.298434" lon="-6.433596">
        <ele>616.340</ele>
        <time>2015-03-29T09:03:44Z</time>
      </trkpt>
      <trkpt lat="41.298241" lon="-6.434197">
        <ele>613.069</ele>
        <time>2015-03-29T09:03:52Z</time>
      </trkpt>
      <trkpt lat="41.298074" lon="-6.434762">
        <ele>609.604</ele>
        <time>2015-03-29T09:03:58Z</time>
      </trkpt>
      <trkpt lat="41.297951" lon="-6.435363">
        <ele>606.324</ele>
        <time>2015-03-29T09:04:04Z</time>
      </trkpt>
      <trkpt lat="41.297931" lon="-6.435460">
        <ele>605.807</ele>
        <time>2015-03-29T09:04:05Z</time>
      </trkpt>
      <trkpt lat="41.297853" lon="-6.435732">
        <ele>604.375</ele>
        <time>2015-03-29T09:04:08Z</time>
      </trkpt>
      <trkpt lat="41.297754" lon="-6.435985">
        <ele>602.460</ele>
        <time>2015-03-29T09:04:11Z</time>
      </trkpt>
      <trkpt lat="41.297711" lon="-6.436063">
        <ele>601.935</ele>
        <time>2015-03-29T09:04:12Z</time>
      </trkpt>
      <trkpt lat="41.297664" lon="-6.436136">
        <ele>601.429</ele>
        <time>2015-03-29T09:04:13Z</time>
      </trkpt>
      <trkpt lat="41.297554" lon="-6.436267">
        <ele>600.067</ele>
        <time>2015-03-29T09:04:15Z</time>
      </trkpt>
      <trkpt lat="41.297488" lon="-6.436323">
        <ele>599.521</ele>
        <time>2015-03-29T09:04:16Z</time>
      </trkpt>
      <trkpt lat="41.297105" lon="-6.436578">
        <ele>595.732</ele>
        <time>2015-03-29T09:04:21Z</time>
      </trkpt>
      <trkpt lat="41.296949" lon="-6.436696">
        <ele>594.785</ele>
        <time>2015-03-29T09:04:23Z</time>
      </trkpt>
      <trkpt lat="41.296881" lon="-6.436775">
        <ele>594.289</ele>
        <time>2015-03-29T09:04:24Z</time>
      </trkpt>
      <trkpt lat="41.296820" lon="-6.436865">
        <ele>593.317</ele>
        <time>2015-03-29T09:04:25Z</time>
      </trkpt>
      <trkpt lat="41.296767" lon="-6.436964">
        <ele>592.807</ele>
        <time>2015-03-29T09:04:26Z</time>
      </trkpt>
      <trkpt lat="41.296723" lon="-6.437069">
        <ele>592.347</ele>
        <time>2015-03-29T09:04:27Z</time>
      </trkpt>
      <trkpt lat="41.296687" lon="-6.437177">
        <ele>591.812</ele>
        <time>2015-03-29T09:04:28Z</time>
      </trkpt>
      <trkpt lat="41.296310" lon="-6.438387">
        <ele>589.017</ele>
        <time>2015-03-29T09:04:40Z</time>
      </trkpt>
      <trkpt lat="41.296186" lon="-6.438713">
        <ele>589.041</ele>
        <time>2015-03-29T09:04:44Z</time>
      </trkpt>
      <trkpt lat="41.295880" lon="-6.439127">
        <ele>588.559</ele>
        <time>2015-03-29T09:04:51Z</time>
      </trkpt>
      <trkpt lat="41.295826" lon="-6.439170">
        <ele>588.523</ele>
        <time>2015-03-29T09:04:52Z</time>
      </trkpt>
      <trkpt lat="41.295346" lon="-6.439653">
        <ele>585.194</ele>
        <time>2015-03-29T09:05:01Z</time>
      </trkpt>
      <trkpt lat="41.295305" lon="-6.439728">
        <ele>585.116</ele>
        <time>2015-03-29T09:05:02Z</time>
      </trkpt>
      <trkpt lat="41.295268" lon="-6.439810">
        <ele>584.676</ele>
        <time>2015-03-29T09:05:03Z</time>
      </trkpt>
      <trkpt lat="41.295236" lon="-6.439901">
        <ele>584.113</ele>
        <time>2015-03-29T09:05:04Z</time>
      </trkpt>
      <trkpt lat="41.295210" lon="-6.439995">
        <ele>583.707</ele>
        <time>2015-03-29T09:05:05Z</time>
      </trkpt>
      <trkpt lat="41.295190" lon="-6.440090">
        <ele>583.250</ele>
        <time>2015-03-29T09:05:06Z</time>
      </trkpt>
      <trkpt lat="41.295174" lon="-6.440186">
        <ele>582.795</ele>
        <time>2015-03-29T09:05:07Z</time>
      </trkpt>
      <trkpt lat="41.295140" lon="-6.440594">
        <ele>580.370</ele>
        <time>2015-03-29T09:05:11Z</time>
      </trkpt>
      <trkpt lat="41.295136" lon="-6.441022">
        <ele>576.974</ele>
        <time>2015-03-29T09:05:15Z</time>
      </trkpt>
      <trkpt lat="41.295139" lon="-6.441358">
        <ele>575.562</ele>
        <time>2015-03-29T09:05:18Z</time>
      </trkpt>
      <trkpt lat="41.295137" lon="-6.441852">
        <ele>571.626</ele>
        <time>2015-03-29T09:05:22Z</time>
      </trkpt>
      <trkpt lat="41.295135" lon="-6.442231">
        <ele>569.737</ele>
        <time>2015-03-29T09:05:25Z</time>
      </trkpt>
      <trkpt lat="41.295142" lon="-6.442971">
        <ele>566.451</ele>
        <time>2015-03-29T09:05:31Z</time>
      </trkpt>
      <trkpt lat="41.295271" lon="-6.443950">
        <ele>564.001</ele>
        <time>2015-03-29T09:05:40Z</time>
      </trkpt>
      <trkpt lat="41.295390" lon="-6.444628">
        <ele>560.611</ele>
        <time>2015-03-29T09:05:47Z</time>
      </trkpt>
      <trkpt lat="41.295464" lon="-6.445164">
        <ele>557.707</ele>
        <time>2015-03-29T09:05:52Z</time>
      </trkpt>
      <trkpt lat="41.295466" lon="-6.445701">
        <ele>553.974</ele>
        <time>2015-03-29T09:05:57Z</time>
      </trkpt>
      <trkpt lat="41.295444" lon="-6.446239">
        <ele>550.539</ele>
        <time>2015-03-29T09:06:02Z</time>
      </trkpt>
      <trkpt lat="41.295419" lon="-6.446771">
        <ele>547.164</ele>
        <time>2015-03-29T09:06:07Z</time>
      </trkpt>
      <trkpt lat="41.295404" lon="-6.447176">
        <ele>543.858</ele>
        <time>2015-03-29T09:06:11Z</time>
      </trkpt>
      <trkpt lat="41.295384" lon="-6.447585">
        <ele>540.976</ele>
        <time>2015-03-29T09:06:15Z</time>
      </trkpt>
      <trkpt lat="41.295354" lon="-6.448118">
        <ele>538.570</ele>
        <time>2015-03-29T09:06:20Z</time>
      </trkpt>
      <trkpt lat="41.295269" lon="-6.448777">
        <ele>535.141</ele>
        <time>2015-03-29T09:06:26Z</time>
      </trkpt>
      <trkpt lat="41.295209" lon="-6.449100">
        <ele>533.799</ele>
        <time>2015-03-29T09:06:29Z</time>
      </trkpt>
      <trkpt lat="41.295141" lon="-6.449567">
        <ele>530.307</ele>
        <time>2015-03-29T09:06:33Z</time>
      </trkpt>
      <trkpt lat="41.295137" lon="-6.449822">
        <ele>528.927</ele>
        <time>2015-03-29T09:06:35Z</time>
      </trkpt>
      <trkpt lat="41.295189" lon="-6.450183">
        <ele>526.007</ele>
        <time>2015-03-29T09:06:38Z</time>
      </trkpt>
      <trkpt lat="41.295306" lon="-6.450597">
        <ele>523.188</ele>
        <time>2015-03-29T09:06:42Z</time>
      </trkpt>
      <trkpt lat="41.295372" lon="-6.450921">
        <ele>520.733</ele>
        <time>2015-03-29T09:06:45Z</time>
      </trkpt>
      <trkpt lat="41.295379" lon="-6.451030">
        <ele>519.788</ele>
        <time>2015-03-29T09:06:46Z</time>
      </trkpt>
      <trkpt lat="41.295379" lon="-6.451138">
        <ele>519.342</ele>
        <time>2015-03-29T09:06:47Z</time>
      </trkpt>
      <trkpt lat="41.295370" lon="-6.451242">
        <ele>517.840</ele>
        <time>2015-03-29T09:06:48Z</time>
      </trkpt>
      <trkpt lat="41.295355" lon="-6.451340">
        <ele>517.384</ele>
        <time>2015-03-29T09:06:49Z</time>
      </trkpt>
      <trkpt lat="41.295337" lon="-6.451434">
        <ele>516.475</ele>
        <time>2015-03-29T09:06:50Z</time>
      </trkpt>
      <trkpt lat="41.295317" lon="-6.451524">
        <ele>515.943</ele>
        <time>2015-03-29T09:06:51Z</time>
      </trkpt>
      <trkpt lat="41.295187" lon="-6.452034">
        <ele>512.564</ele>
        <time>2015-03-29T09:06:57Z</time>
      </trkpt>
      <trkpt lat="41.295174" lon="-6.452116">
        <ele>512.010</ele>
        <time>2015-03-29T09:06:58Z</time>
      </trkpt>
      <trkpt lat="41.295157" lon="-6.452288">
        <ele>510.607</ele>
        <time>2015-03-29T09:07:00Z</time>
      </trkpt>
      <trkpt lat="41.295164" lon="-6.452547">
        <ele>507.223</ele>
        <time>2015-03-29T09:07:03Z</time>
      </trkpt>
      <trkpt lat="41.295193" lon="-6.452723">
        <ele>505.338</ele>
        <time>2015-03-29T09:07:05Z</time>
      </trkpt>
      <trkpt lat="41.295335" lon="-6.453220">
        <ele>502.433</ele>
        <time>2015-03-29T09:07:11Z</time>
      </trkpt>
      <trkpt lat="41.295473" lon="-6.453653">
        <ele>498.697</ele>
        <time>2015-03-29T09:07:16Z</time>
      </trkpt>
      <trkpt lat="41.295556" lon="-6.454199">
        <ele>495.275</ele>
        <time>2015-03-29T09:07:22Z</time>
      </trkpt>
      <trkpt lat="41.295584" lon="-6.454594">
        <ele>491.939</ele>
        <time>2015-03-29T09:07:26Z</time>
      </trkpt>
      <trkpt lat="41.295535" lon="-6.455227">
        <ele>489.020</ele>
        <time>2015-03-29T09:07:32Z</time>
      </trkpt>
      <trkpt lat="41.295455" lon="-6.455757">
        <ele>485.649</ele>
        <time>2015-03-29T09:07:37Z</time>
      </trkpt>
      <trkpt lat="41.295393" lon="-6.456072">
        <ele>484.602</ele>
        <time>2015-03-29T09:07:40Z</time>
      </trkpt>
      <trkpt lat="41.295161" lon="-6.456689">
        <ele>484.622</ele>
        <time>2015-03-29T09:07:47Z</time>
      </trkpt>
      <trkpt lat="41.295032" lon="-6.456879">
        <ele>484.607</ele>
        <time>2015-03-29T09:07:50Z</time>
      </trkpt>
      <trkpt lat="41.294942" lon="-6.456989">
        <ele>485.163</ele>
        <time>2015-03-29T09:07:52Z</time>
      </trkpt>
      <trkpt lat="41.294905" lon="-6.457051">
        <ele>485.658</ele>
        <time>2015-03-29T09:07:53Z</time>
      </trkpt>
      <trkpt lat="41.294834" lon="-6.457167">
        <ele>486.183</ele>
        <time>2015-03-29T09:07:55Z</time>
      </trkpt>
      <trkpt lat="41.294655" lon="-6.457407">
        <ele>487.147</ele>
        <time>2015-03-29T09:08:00Z</time>
      </trkpt>
      <trkpt lat="41.294623" lon="-6.457436">
        <ele>487.585</ele>
        <time>2015-03-29T09:08:01Z</time>
      </trkpt>
      <trkpt lat="41.294589" lon="-6.457449">
        <ele>487.589</ele>
        <time>2015-03-29T09:08:02Z</time>
      </trkpt>
      <trkpt lat="41.294531" lon="-6.457417">
        <ele>488.520</ele>
        <time>2015-03-29T09:08:06Z</time>
      </trkpt>
      <trkpt lat="41.294513" lon="-6.457409">
        <ele>488.011</ele>
        <time>2015-03-29T09:08:14Z</time>
      </trkpt>
      <trkpt lat="41.294514" lon="-6.457394">
        <ele>488.521</ele>
        <time>2015-03-29T09:08:31Z</time>
      </trkpt>
      <trkpt lat="41.294512" lon="-6.457400">
        <ele>488.003</ele>
        <time>2015-03-29T09:08:57Z</time>
      </trkpt>
      <trkpt lat="41.294514" lon="-6.457393">
        <ele>487.507</ele>
        <time>2015-03-29T09:09:21Z</time>
      </trkpt>
      <trkpt lat="41.294514" lon="-6.457399">
        <ele>487.510</ele>
        <time>2015-03-29T09:09:47Z</time>
      </trkpt>
      <trkpt lat="41.294516" lon="-6.457401">
        <ele>487.555</ele>
        <time>2015-03-29T09:10:06Z</time>
      </trkpt>
      <trkpt lat="41.294516" lon="-6.457413">
        <ele>487.550</ele>
        <time>2015-03-29T09:10:13Z</time>
      </trkpt>
      <trkpt lat="41.294519" lon="-6.457441">
        <ele>487.594</ele>
        <time>2015-03-29T09:10:15Z</time>
      </trkpt>
      <trkpt lat="41.294533" lon="-6.457466">
        <ele>487.592</ele>
        <time>2015-03-29T09:10:17Z</time>
      </trkpt>
      <trkpt lat="41.294509" lon="-6.457700">
        <ele>488.076</ele>
        <time>2015-03-29T09:10:24Z</time>
      </trkpt>
      <trkpt lat="41.294443" lon="-6.458030">
        <ele>489.567</ele>
        <time>2015-03-29T09:10:33Z</time>
      </trkpt>
      <trkpt lat="41.294422" lon="-6.458347">
        <ele>491.417</ele>
        <time>2015-03-29T09:10:42Z</time>
      </trkpt>
      <trkpt lat="41.294412" lon="-6.458671">
        <ele>493.887</ele>
        <time>2015-03-29T09:10:52Z</time>
      </trkpt>
      <trkpt lat="41.294403" lon="-6.459020">
        <ele>496.215</ele>
        <time>2015-03-29T09:11:03Z</time>
      </trkpt>
      <trkpt lat="41.294411" lon="-6.459340">
        <ele>498.107</ele>
        <time>2015-03-29T09:11:14Z</time>
      </trkpt>
      <trkpt lat="41.294454" lon="-6.459728">
        <ele>500.070</ele>
        <time>2015-03-29T09:11:27Z</time>
      </trkpt>
      <trkpt lat="41.294520" lon="-6.460131">
        <ele>502.065</ele>
        <time>2015-03-29T09:11:40Z</time>
      </trkpt>
      <trkpt lat="41.294572" lon="-6.460431">
        <ele>503.910</ele>
        <time>2015-03-29T09:11:50Z</time>
      </trkpt>
      <trkpt lat="41.294629" lon="-6.460747">
        <ele>505.314</ele>
        <time>2015-03-29T09:12:00Z</time>
      </trkpt>
      <trkpt lat="41.294707" lon="-6.461168">
        <ele>506.352</ele>
        <time>2015-03-29T09:12:11Z</time>
      </trkpt>
      <trkpt lat="41.294813" lon="-6.461705">
        <ele>506.356</ele>
        <time>2015-03-29T09:12:22Z</time>
      </trkpt>
      <trkpt lat="41.294902" lon="-6.461958">
        <ele>505.877</ele>
        <time>2015-03-29T09:12:27Z</time>
      </trkpt>
      <trkpt lat="41.294924" lon="-6.462004">
        <ele>505.846</ele>
        <time>2015-03-29T09:12:28Z</time>
      </trkpt>
      <trkpt lat="41.294949" lon="-6.462048">
        <ele>505.888</ele>
        <time>2015-03-29T09:12:29Z</time>
      </trkpt>
      <trkpt lat="41.294978" lon="-6.462089">
        <ele>505.816</ele>
        <time>2015-03-29T09:12:30Z</time>
      </trkpt>
      <trkpt lat="41.295008" lon="-6.462131">
        <ele>505.807</ele>
        <time>2015-03-29T09:12:31Z</time>
      </trkpt>
      <trkpt lat="41.295323" lon="-6.462523">
        <ele>504.473</ele>
        <time>2015-03-29T09:12:41Z</time>
      </trkpt>
      <trkpt lat="41.295475" lon="-6.462693">
        <ele>503.458</ele>
        <time>2015-03-29T09:12:45Z</time>
      </trkpt>
      <trkpt lat="41.295748" lon="-6.463010">
        <ele>501.033</ele>
        <time>2015-03-29T09:12:51Z</time>
      </trkpt>
      <trkpt lat="41.296087" lon="-6.463430">
        <ele>498.157</ele>
        <time>2015-03-29T09:12:58Z</time>
      </trkpt>
      <trkpt lat="41.296447" lon="-6.464108">
        <ele>494.795</ele>
        <time>2015-03-29T09:13:08Z</time>
      </trkpt>
      <trkpt lat="41.296773" lon="-6.464700">
        <ele>491.449</ele>
        <time>2015-03-29T09:13:17Z</time>
      </trkpt>
      <trkpt lat="41.297057" lon="-6.465280">
        <ele>488.020</ele>
        <time>2015-03-29T09:13:25Z</time>
      </trkpt>
      <trkpt lat="41.297103" lon="-6.465442">
        <ele>487.115</ele>
        <time>2015-03-29T09:13:27Z</time>
      </trkpt>
      <trkpt lat="41.297114" lon="-6.465524">
        <ele>486.665</ele>
        <time>2015-03-29T09:13:28Z</time>
      </trkpt>
      <trkpt lat="41.297119" lon="-6.465608">
        <ele>486.111</ele>
        <time>2015-03-29T09:13:29Z</time>
      </trkpt>
      <trkpt lat="41.297115" lon="-6.465690">
        <ele>486.107</ele>
        <time>2015-03-29T09:13:30Z</time>
      </trkpt>
      <trkpt lat="41.297103" lon="-6.465770">
        <ele>485.640</ele>
        <time>2015-03-29T09:13:31Z</time>
      </trkpt>
      <trkpt lat="41.297083" lon="-6.465846">
        <ele>485.665</ele>
        <time>2015-03-29T09:13:32Z</time>
      </trkpt>
      <trkpt lat="41.297051" lon="-6.465916">
        <ele>485.120</ele>
        <time>2015-03-29T09:13:33Z</time>
      </trkpt>
      <trkpt lat="41.297012" lon="-6.465981">
        <ele>484.674</ele>
        <time>2015-03-29T09:13:34Z</time>
      </trkpt>
      <trkpt lat="41.296970" lon="-6.466040">
        <ele>484.212</ele>
        <time>2015-03-29T09:13:35Z</time>
      </trkpt>
      <trkpt lat="41.296873" lon="-6.466149">
        <ele>483.716</ele>
        <time>2015-03-29T09:13:37Z</time>
      </trkpt>
      <trkpt lat="41.296818" lon="-6.466192">
        <ele>483.267</ele>
        <time>2015-03-29T09:13:38Z</time>
      </trkpt>
      <trkpt lat="41.296760" lon="-6.466220">
        <ele>483.296</ele>
        <time>2015-03-29T09:13:39Z</time>
      </trkpt>
      <trkpt lat="41.296699" lon="-6.466234">
        <ele>482.731</ele>
        <time>2015-03-29T09:13:40Z</time>
      </trkpt>
      <trkpt lat="41.296636" lon="-6.466239">
        <ele>481.824</ele>
        <time>2015-03-29T09:13:41Z</time>
      </trkpt>
      <trkpt lat="41.296575" lon="-6.466237">
        <ele>481.807</ele>
        <time>2015-03-29T09:13:42Z</time>
      </trkpt>
      <trkpt lat="41.296514" lon="-6.466224">
        <ele>481.358</ele>
        <time>2015-03-29T09:13:43Z</time>
      </trkpt>
      <trkpt lat="41.295998" lon="-6.466070">
        <ele>478.473</ele>
        <time>2015-03-29T09:13:53Z</time>
      </trkpt>
      <trkpt lat="41.295892" lon="-6.466046">
        <ele>477.028</ele>
        <time>2015-03-29T09:13:55Z</time>
      </trkpt>
      <trkpt lat="41.295831" lon="-6.466043">
        <ele>476.522</ele>
        <time>2015-03-29T09:13:56Z</time>
      </trkpt>
      <trkpt lat="41.295766" lon="-6.466052">
        <ele>476.070</ele>
        <time>2015-03-29T09:13:57Z</time>
      </trkpt>
      <trkpt lat="41.295703" lon="-6.466073">
        <ele>475.074</ele>
        <time>2015-03-29T09:13:58Z</time>
      </trkpt>
      <trkpt lat="41.295641" lon="-6.466105">
        <ele>475.085</ele>
        <time>2015-03-29T09:13:59Z</time>
      </trkpt>
      <trkpt lat="41.295581" lon="-6.466150">
        <ele>474.662</ele>
        <time>2015-03-29T09:14:00Z</time>
      </trkpt>
      <trkpt lat="41.295524" lon="-6.466203">
        <ele>474.183</ele>
        <time>2015-03-29T09:14:01Z</time>
      </trkpt>
      <trkpt lat="41.295472" lon="-6.466264">
        <ele>473.611</ele>
        <time>2015-03-29T09:14:02Z</time>
      </trkpt>
      <trkpt lat="41.295421" lon="-6.466330">
        <ele>473.107</ele>
        <time>2015-03-29T09:14:03Z</time>
      </trkpt>
      <trkpt lat="41.295375" lon="-6.466401">
        <ele>472.695</ele>
        <time>2015-03-29T09:14:04Z</time>
      </trkpt>
      <trkpt lat="41.295331" lon="-6.466473">
        <ele>471.730</ele>
        <time>2015-03-29T09:14:05Z</time>
      </trkpt>
      <trkpt lat="41.295282" lon="-6.466538">
        <ele>471.715</ele>
        <time>2015-03-29T09:14:06Z</time>
      </trkpt>
      <trkpt lat="41.295181" lon="-6.466656">
        <ele>470.789</ele>
        <time>2015-03-29T09:14:08Z</time>
      </trkpt>
      <trkpt lat="41.295129" lon="-6.466699">
        <ele>470.237</ele>
        <time>2015-03-29T09:14:09Z</time>
      </trkpt>
      <trkpt lat="41.295074" lon="-6.466733">
        <ele>470.291</ele>
        <time>2015-03-29T09:14:10Z</time>
      </trkpt>
      <trkpt lat="41.295016" lon="-6.466755">
        <ele>469.742</ele>
        <time>2015-03-29T09:14:11Z</time>
      </trkpt>
      <trkpt lat="41.294955" lon="-6.466767">
        <ele>468.852</ele>
        <time>2015-03-29T09:14:12Z</time>
      </trkpt>
      <trkpt lat="41.294895" lon="-6.466772">
        <ele>468.853</ele>
        <time>2015-03-29T09:14:13Z</time>
      </trkpt>
      <trkpt lat="41.294391" lon="-6.466721">
        <ele>464.908</ele>
        <time>2015-03-29T09:14:21Z</time>
      </trkpt>
      <trkpt lat="41.294242" lon="-6.466737">
        <ele>464.007</ele>
        <time>2015-03-29T09:14:23Z</time>
      </trkpt>
      <trkpt lat="41.294168" lon="-6.466768">
        <ele>463.554</ele>
        <time>2015-03-29T09:14:24Z</time>
      </trkpt>
      <trkpt lat="41.294098" lon="-6.466819">
        <ele>463.049</ele>
        <time>2015-03-29T09:14:25Z</time>
      </trkpt>
      <trkpt lat="41.294037" lon="-6.466889">
        <ele>462.134</ele>
        <time>2015-03-29T09:14:26Z</time>
      </trkpt>
      <trkpt lat="41.293987" lon="-6.466972">
        <ele>461.678</ele>
        <time>2015-03-29T09:14:27Z</time>
      </trkpt>
      <trkpt lat="41.293943" lon="-6.467058">
        <ele>461.166</ele>
        <time>2015-03-29T09:14:28Z</time>
      </trkpt>
      <trkpt lat="41.293907" lon="-6.467146">
        <ele>461.190</ele>
        <time>2015-03-29T09:14:29Z</time>
      </trkpt>
      <trkpt lat="41.293878" lon="-6.467241">
        <ele>459.741</ele>
        <time>2015-03-29T09:14:30Z</time>
      </trkpt>
      <trkpt lat="41.293834" lon="-6.467444">
        <ele>458.281</ele>
        <time>2015-03-29T09:14:32Z</time>
      </trkpt>
      <trkpt lat="41.293821" lon="-6.467549">
        <ele>457.761</ele>
        <time>2015-03-29T09:14:33Z</time>
      </trkpt>
      <trkpt lat="41.293798" lon="-6.467984">
        <ele>454.417</ele>
        <time>2015-03-29T09:14:37Z</time>
      </trkpt>
      <trkpt lat="41.293779" lon="-6.468511">
        <ele>451.507</ele>
        <time>2015-03-29T09:14:42Z</time>
      </trkpt>
      <trkpt lat="41.293799" lon="-6.468726">
        <ele>450.587</ele>
        <time>2015-03-29T09:14:44Z</time>
      </trkpt>
      <trkpt lat="41.293819" lon="-6.468829">
        <ele>450.042</ele>
        <time>2015-03-29T09:14:45Z</time>
      </trkpt>
      <trkpt lat="41.293852" lon="-6.468933">
        <ele>449.157</ele>
        <time>2015-03-29T09:14:46Z</time>
      </trkpt>
      <trkpt lat="41.293896" lon="-6.469033">
        <ele>448.651</ele>
        <time>2015-03-29T09:14:47Z</time>
      </trkpt>
      <trkpt lat="41.293951" lon="-6.469121">
        <ele>448.119</ele>
        <time>2015-03-29T09:14:48Z</time>
      </trkpt>
      <trkpt lat="41.294020" lon="-6.469194">
        <ele>447.653</ele>
        <time>2015-03-29T09:14:49Z</time>
      </trkpt>
      <trkpt lat="41.294098" lon="-6.469249">
        <ele>446.774</ele>
        <time>2015-03-29T09:14:50Z</time>
      </trkpt>
      <trkpt lat="41.294181" lon="-6.469288">
        <ele>446.739</ele>
        <time>2015-03-29T09:14:51Z</time>
      </trkpt>
      <trkpt lat="41.294265" lon="-6.469306">
        <ele>446.201</ele>
        <time>2015-03-29T09:14:52Z</time>
      </trkpt>
      <trkpt lat="41.294350" lon="-6.469311">
        <ele>446.221</ele>
        <time>2015-03-29T09:14:53Z</time>
      </trkpt>
      <trkpt lat="41.294434" lon="-6.469310">
        <ele>445.707</ele>
        <time>2015-03-29T09:14:54Z</time>
      </trkpt>
      <trkpt lat="41.295102" lon="-6.469221">
        <ele>445.242</ele>
        <time>2015-03-29T09:15:03Z</time>
      </trkpt>
      <trkpt lat="41.295917" lon="-6.469215">
        <ele>442.857</ele>
        <time>2015-03-29T09:15:16Z</time>
      </trkpt>
      <trkpt lat="41.296354" lon="-6.469461">
        <ele>439.912</ele>
        <time>2015-03-29T09:15:23Z</time>
      </trkpt>
      <trkpt lat="41.296415" lon="-6.469517">
        <ele>439.596</ele>
        <time>2015-03-29T09:15:24Z</time>
      </trkpt>
      <trkpt lat="41.296588" lon="-6.469713">
        <ele>438.074</ele>
        <time>2015-03-29T09:15:27Z</time>
      </trkpt>
      <trkpt lat="41.296731" lon="-6.469939">
        <ele>436.638</ele>
        <time>2015-03-29T09:15:30Z</time>
      </trkpt>
      <trkpt lat="41.297008" lon="-6.470433">
        <ele>433.289</ele>
        <time>2015-03-29T09:15:37Z</time>
      </trkpt>
      <trkpt lat="41.297034" lon="-6.470488">
        <ele>433.229</ele>
        <time>2015-03-29T09:15:38Z</time>
      </trkpt>
      <trkpt lat="41.297063" lon="-6.470579">
        <ele>432.700</ele>
        <time>2015-03-29T09:15:40Z</time>
      </trkpt>
      <trkpt lat="41.297063" lon="-6.470616">
        <ele>432.720</ele>
        <time>2015-03-29T09:15:41Z</time>
      </trkpt>
      <trkpt lat="41.297057" lon="-6.470644">
        <ele>432.307</ele>
        <time>2015-03-29T09:15:42Z</time>
      </trkpt>
      <trkpt lat="41.297045" lon="-6.470687">
        <ele>432.311</ele>
        <time>2015-03-29T09:15:50Z</time>
      </trkpt>
      <trkpt lat="41.297032" lon="-6.470699">
        <ele>432.336</ele>
        <time>2015-03-29T09:16:03Z</time>
      </trkpt>
      <trkpt lat="41.297032" lon="-6.470712">
        <ele>432.331</ele>
        <time>2015-03-29T09:16:27Z</time>
      </trkpt>
      <trkpt lat="41.297007" lon="-6.470718">
        <ele>432.315</ele>
        <time>2015-03-29T09:16:43Z</time>
      </trkpt>
      <trkpt lat="41.297004" lon="-6.470712">
        <ele>432.373</ele>
        <time>2015-03-29T09:16:54Z</time>
      </trkpt>
      <trkpt lat="41.297005" lon="-6.470713">
        <ele>431.837</ele>
        <time>2015-03-29T09:17:07Z</time>
      </trkpt>
      <trkpt lat="41.297003" lon="-6.470725">
        <ele>432.358</ele>
        <time>2015-03-29T09:17:16Z</time>
      </trkpt>
      <trkpt lat="41.296945" lon="-6.470931">
        <ele>430.867</ele>
        <time>2015-03-29T09:17:25Z</time>
      </trkpt>
      <trkpt lat="41.296922" lon="-6.471042">
        <ele>429.981</ele>
        <time>2015-03-29T09:17:29Z</time>
      </trkpt>
      <trkpt lat="41.296908" lon="-6.471063">
        <ele>429.419</ele>
        <time>2015-03-29T09:17:30Z</time>
      </trkpt>
      <trkpt lat="41.296893" lon="-6.471092">
        <ele>429.407</ele>
        <time>2015-03-29T09:17:31Z</time>
      </trkpt>
      <trkpt lat="41.296840" lon="-6.471220">
        <ele>427.915</ele>
        <time>2015-03-29T09:17:34Z</time>
      </trkpt>
      <trkpt lat="41.296823" lon="-6.471269">
        <ele>427.930</ele>
        <time>2015-03-29T09:17:35Z</time>
      </trkpt>
      <trkpt lat="41.296752" lon="-6.471487">
        <ele>426.035</ele>
        <time>2015-03-29T09:17:39Z</time>
      </trkpt>
      <trkpt lat="41.296657" lon="-6.471766">
        <ele>424.189</ele>
        <time>2015-03-29T09:17:44Z</time>
      </trkpt>
      <trkpt lat="41.296642" lon="-6.471817">
        <ele>424.157</ele>
        <time>2015-03-29T09:17:45Z</time>
      </trkpt>
      <trkpt lat="41.296626" lon="-6.471865">
        <ele>423.661</ele>
        <time>2015-03-29T09:17:46Z</time>
      </trkpt>
      <trkpt lat="41.296614" lon="-6.471912">
        <ele>423.112</ele>
        <time>2015-03-29T09:17:47Z</time>
      </trkpt>
      <trkpt lat="41.296605" lon="-6.471955">
        <ele>423.181</ele>
        <time>2015-03-29T09:17:48Z</time>
      </trkpt>
      <trkpt lat="41.296597" lon="-6.471997">
        <ele>422.661</ele>
        <time>2015-03-29T09:17:49Z</time>
      </trkpt>
      <trkpt lat="41.296586" lon="-6.472038">
        <ele>422.217</ele>
        <time>2015-03-29T09:17:50Z</time>
      </trkpt>
      <trkpt lat="41.296434" lon="-6.472299">
        <ele>419.807</ele>
        <time>2015-03-29T09:17:59Z</time>
      </trkpt>
      <trkpt lat="41.296193" lon="-6.472416">
        <ele>416.927</ele>
        <time>2015-03-29T09:18:08Z</time>
      </trkpt>
      <trkpt lat="41.296180" lon="-6.472446">
        <ele>416.922</ele>
        <time>2015-03-29T09:18:09Z</time>
      </trkpt>
      <trkpt lat="41.296168" lon="-6.472478">
        <ele>416.997</ele>
        <time>2015-03-29T09:18:10Z</time>
      </trkpt>
      <trkpt lat="41.296021" lon="-6.472763">
        <ele>414.591</ele>
        <time>2015-03-29T09:18:18Z</time>
      </trkpt>
      <trkpt lat="41.295740" lon="-6.472919">
        <ele>413.089</ele>
        <time>2015-03-29T09:18:26Z</time>
      </trkpt>
      <trkpt lat="41.295718" lon="-6.472964">
        <ele>412.533</ele>
        <time>2015-03-29T09:18:27Z</time>
      </trkpt>
      <trkpt lat="41.295707" lon="-6.473016">
        <ele>412.534</ele>
        <time>2015-03-29T09:18:28Z</time>
      </trkpt>
      <trkpt lat="41.295706" lon="-6.473071">
        <ele>412.137</ele>
        <time>2015-03-29T09:18:29Z</time>
      </trkpt>
      <trkpt lat="41.295712" lon="-6.473128">
        <ele>411.149</ele>
        <time>2015-03-29T09:18:30Z</time>
      </trkpt>
      <trkpt lat="41.295713" lon="-6.473178">
        <ele>411.113</ele>
        <time>2015-03-29T09:18:31Z</time>
      </trkpt>
      <trkpt lat="41.295709" lon="-6.473222">
        <ele>410.607</ele>
        <time>2015-03-29T09:18:32Z</time>
      </trkpt>
      <trkpt lat="41.295698" lon="-6.473261">
        <ele>409.712</ele>
        <time>2015-03-29T09:18:33Z</time>
      </trkpt>
      <trkpt lat="41.295684" lon="-6.473301">
        <ele>409.747</ele>
        <time>2015-03-29T09:18:34Z</time>
      </trkpt>
      <trkpt lat="41.295665" lon="-6.473338">
        <ele>409.242</ele>
        <time>2015-03-29T09:18:35Z</time>
      </trkpt>
      <trkpt lat="41.295450" lon="-6.473583">
        <ele>405.866</ele>
        <time>2015-03-29T09:18:43Z</time>
      </trkpt>
      <trkpt lat="41.295307" lon="-6.473816">
        <ele>403.434</ele>
        <time>2015-03-29T09:18:49Z</time>
      </trkpt>
      <trkpt lat="41.295257" lon="-6.473907">
        <ele>403.458</ele>
        <time>2015-03-29T09:18:51Z</time>
      </trkpt>
      <trkpt lat="41.295180" lon="-6.474028">
        <ele>402.929</ele>
        <time>2015-03-29T09:18:54Z</time>
      </trkpt>
      <trkpt lat="41.295086" lon="-6.474125">
        <ele>402.514</ele>
        <time>2015-03-29T09:18:57Z</time>
      </trkpt>
      <trkpt lat="41.294921" lon="-6.474271">
        <ele>401.554</ele>
        <time>2015-03-29T09:19:02Z</time>
      </trkpt>
      <trkpt lat="41.294884" lon="-6.474312">
        <ele>401.009</ele>
        <time>2015-03-29T09:19:03Z</time>
      </trkpt>
      <trkpt lat="41.294619" lon="-6.474590">
        <ele>401.007</ele>
        <time>2015-03-29T09:19:10Z</time>
      </trkpt>
      <trkpt lat="41.294589" lon="-6.474632">
        <ele>400.520</ele>
        <time>2015-03-29T09:19:11Z</time>
      </trkpt>
      <trkpt lat="41.294267" lon="-6.475059">
        <ele>398.645</ele>
        <time>2015-03-29T09:19:21Z</time>
      </trkpt>
      <trkpt lat="41.294237" lon="-6.475095">
        <ele>399.170</ele>
        <time>2015-03-29T09:19:22Z</time>
      </trkpt>
      <trkpt lat="41.293801" lon="-6.475572">
        <ele>396.294</ele>
        <time>2015-03-29T09:19:35Z</time>
      </trkpt>
      <trkpt lat="41.293521" lon="-6.475877">
        <ele>393.312</ele>
        <time>2015-03-29T09:19:44Z</time>
      </trkpt>
      <trkpt lat="41.293399" lon="-6.476100">
        <ele>390.496</ele>
        <time>2015-03-29T09:19:49Z</time>
      </trkpt>
      <trkpt lat="41.293328" lon="-6.476192">
        <ele>389.067</ele>
        <time>2015-03-29T09:19:52Z</time>
      </trkpt>
      <trkpt lat="41.293301" lon="-6.476201">
        <ele>389.055</ele>
        <time>2015-03-29T09:19:53Z</time>
      </trkpt>
      <trkpt lat="41.293269" lon="-6.476206">
        <ele>388.507</ele>
        <time>2015-03-29T09:19:54Z</time>
      </trkpt>
      <trkpt lat="41.293167" lon="-6.476191">
        <ele>387.617</ele>
        <time>2015-03-29T09:19:57Z</time>
      </trkpt>
      <trkpt lat="41.293000" lon="-6.476103">
        <ele>386.107</ele>
        <time>2015-03-29T09:20:01Z</time>
      </trkpt>
      <trkpt lat="41.292953" lon="-6.476090">
        <ele>386.124</ele>
        <time>2015-03-29T09:20:02Z</time>
      </trkpt>
      <trkpt lat="41.292905" lon="-6.476082">
        <ele>386.179</ele>
        <time>2015-03-29T09:20:03Z</time>
      </trkpt>
      <trkpt lat="41.292390" lon="-6.476099">
        <ele>383.794</ele>
        <time>2015-03-29T09:20:13Z</time>
      </trkpt>
      <trkpt lat="41.292340" lon="-6.476093">
        <ele>383.748</ele>
        <time>2015-03-29T09:20:14Z</time>
      </trkpt>
      <trkpt lat="41.292298" lon="-6.476073">
        <ele>383.296</ele>
        <time>2015-03-29T09:20:15Z</time>
      </trkpt>
      <trkpt lat="41.292264" lon="-6.476043">
        <ele>383.270</ele>
        <time>2015-03-29T09:20:16Z</time>
      </trkpt>
      <trkpt lat="41.292236" lon="-6.476002">
        <ele>382.721</ele>
        <time>2015-03-29T09:20:17Z</time>
      </trkpt>
      <trkpt lat="41.292216" lon="-6.475949">
        <ele>382.716</ele>
        <time>2015-03-29T09:20:18Z</time>
      </trkpt>
      <trkpt lat="41.292204" lon="-6.475890">
        <ele>382.376</ele>
        <time>2015-03-29T09:20:19Z</time>
      </trkpt>
      <trkpt lat="41.292197" lon="-6.475823">
        <ele>382.313</ele>
        <time>2015-03-29T09:20:20Z</time>
      </trkpt>
      <trkpt lat="41.292191" lon="-6.475754">
        <ele>381.807</ele>
        <time>2015-03-29T09:20:21Z</time>
      </trkpt>
      <trkpt lat="41.292180" lon="-6.475611">
        <ele>380.870</ele>
        <time>2015-03-29T09:20:23Z</time>
      </trkpt>
      <trkpt lat="41.292170" lon="-6.475541">
        <ele>380.825</ele>
        <time>2015-03-29T09:20:24Z</time>
      </trkpt>
      <trkpt lat="41.292154" lon="-6.475475">
        <ele>380.360</ele>
        <time>2015-03-29T09:20:25Z</time>
      </trkpt>
      <trkpt lat="41.292133" lon="-6.475414">
        <ele>380.364</ele>
        <time>2015-03-29T09:20:26Z</time>
      </trkpt>
      <trkpt lat="41.292108" lon="-6.475355">
        <ele>379.912</ele>
        <time>2015-03-29T09:20:27Z</time>
      </trkpt>
      <trkpt lat="41.292078" lon="-6.475298">
        <ele>379.986</ele>
        <time>2015-03-29T09:20:28Z</time>
      </trkpt>
      <trkpt lat="41.292045" lon="-6.475245">
        <ele>379.477</ele>
        <time>2015-03-29T09:20:29Z</time>
      </trkpt>
      <trkpt lat="41.292008" lon="-6.475202">
        <ele>379.986</ele>
        <time>2015-03-29T09:20:30Z</time>
      </trkpt>
      <trkpt lat="41.291965" lon="-6.475180">
        <ele>379.460</ele>
        <time>2015-03-29T09:20:31Z</time>
      </trkpt>
      <trkpt lat="41.291922" lon="-6.475183">
        <ele>378.926</ele>
        <time>2015-03-29T09:20:32Z</time>
      </trkpt>
      <trkpt lat="41.291894" lon="-6.475209">
        <ele>378.907</ele>
        <time>2015-03-29T09:20:33Z</time>
      </trkpt>
      <trkpt lat="41.291884" lon="-6.475246">
        <ele>378.917</ele>
        <time>2015-03-29T09:20:34Z</time>
      </trkpt>
      <trkpt lat="41.291886" lon="-6.475287">
        <ele>378.922</ele>
        <time>2015-03-29T09:20:35Z</time>
      </trkpt>
      <trkpt lat="41.291893" lon="-6.475326">
        <ele>378.967</ele>
        <time>2015-03-29T09:20:36Z</time>
      </trkpt>
      <trkpt lat="41.291908" lon="-6.475369">
        <ele>378.411</ele>
        <time>2015-03-29T09:20:37Z</time>
      </trkpt>
      <trkpt lat="41.291924" lon="-6.475419">
        <ele>377.959</ele>
        <time>2015-03-29T09:20:38Z</time>
      </trkpt>
      <trkpt lat="41.291934" lon="-6.475480">
        <ele>377.953</ele>
        <time>2015-03-29T09:20:39Z</time>
      </trkpt>
      <trkpt lat="41.291933" lon="-6.475544">
        <ele>377.534</ele>
        <time>2015-03-29T09:20:40Z</time>
      </trkpt>
      <trkpt lat="41.291925" lon="-6.475607">
        <ele>377.045</ele>
        <time>2015-03-29T09:20:41Z</time>
      </trkpt>
      <trkpt lat="41.291909" lon="-6.475672">
        <ele>377.047</ele>
        <time>2015-03-29T09:20:42Z</time>
      </trkpt>
      <trkpt lat="41.291891" lon="-6.475737">
        <ele>377.011</ele>
        <time>2015-03-29T09:20:43Z</time>
      </trkpt>
      <trkpt lat="41.291811" lon="-6.475993">
        <ele>375.507</ele>
        <time>2015-03-29T09:20:47Z</time>
      </trkpt>
      <trkpt lat="41.291769" lon="-6.476194">
        <ele>375.173</ele>
        <time>2015-03-29T09:20:50Z</time>
      </trkpt>
      <trkpt lat="41.291755" lon="-6.476323">
        <ele>374.688</ele>
        <time>2015-03-29T09:20:52Z</time>
      </trkpt>
      <trkpt lat="41.291754" lon="-6.476385">
        <ele>374.633</ele>
        <time>2015-03-29T09:20:53Z</time>
      </trkpt>
      <trkpt lat="41.291758" lon="-6.476439">
        <ele>374.667</ele>
        <time>2015-03-29T09:20:54Z</time>
      </trkpt>
      <trkpt lat="41.291770" lon="-6.476540">
        <ele>375.185</ele>
        <time>2015-03-29T09:20:56Z</time>
      </trkpt>
      <trkpt lat="41.291783" lon="-6.476590">
        <ele>374.119</ele>
        <time>2015-03-29T09:20:57Z</time>
      </trkpt>
      <trkpt lat="41.291799" lon="-6.476645">
        <ele>373.640</ele>
        <time>2015-03-29T09:20:58Z</time>
      </trkpt>
      <trkpt lat="41.291893" lon="-6.476925">
        <ele>372.712</ele>
        <time>2015-03-29T09:21:03Z</time>
      </trkpt>
      <trkpt lat="41.291920" lon="-6.476978">
        <ele>372.232</ele>
        <time>2015-03-29T09:21:04Z</time>
      </trkpt>
      <trkpt lat="41.291954" lon="-6.477027">
        <ele>371.705</ele>
        <time>2015-03-29T09:21:05Z</time>
      </trkpt>
      <trkpt lat="41.291991" lon="-6.477071">
        <ele>371.707</ele>
        <time>2015-03-29T09:21:06Z</time>
      </trkpt>
      <trkpt lat="41.292037" lon="-6.477111">
        <ele>371.290</ele>
        <time>2015-03-29T09:21:07Z</time>
      </trkpt>
      <trkpt lat="41.292090" lon="-6.477143">
        <ele>370.715</ele>
        <time>2015-03-29T09:21:08Z</time>
      </trkpt>
      <trkpt lat="41.292145" lon="-6.477166">
        <ele>370.210</ele>
        <time>2015-03-29T09:21:09Z</time>
      </trkpt>
      <trkpt lat="41.292201" lon="-6.477185">
        <ele>369.834</ele>
        <time>2015-03-29T09:21:10Z</time>
      </trkpt>
      <trkpt lat="41.292606" lon="-6.477348">
        <ele>367.882</ele>
        <time>2015-03-29T09:21:18Z</time>
      </trkpt>
      <trkpt lat="41.292651" lon="-6.477385">
        <ele>367.476</ele>
        <time>2015-03-29T09:21:19Z</time>
      </trkpt>
      <trkpt lat="41.292691" lon="-6.477430">
        <ele>366.997</ele>
        <time>2015-03-29T09:21:20Z</time>
      </trkpt>
      <trkpt lat="41.292731" lon="-6.477485">
        <ele>366.473</ele>
        <time>2015-03-29T09:21:21Z</time>
      </trkpt>
      <trkpt lat="41.292767" lon="-6.477554">
        <ele>365.985</ele>
        <time>2015-03-29T09:21:22Z</time>
      </trkpt>
      <trkpt lat="41.292800" lon="-6.477632">
        <ele>365.413</ele>
        <time>2015-03-29T09:21:23Z</time>
      </trkpt>
      <trkpt lat="41.292826" lon="-6.477715">
        <ele>365.007</ele>
        <time>2015-03-29T09:21:24Z</time>
      </trkpt>
      <trkpt lat="41.292852" lon="-6.477801">
        <ele>364.086</ele>
        <time>2015-03-29T09:21:25Z</time>
      </trkpt>
      <trkpt lat="41.292893" lon="-6.477983">
        <ele>363.081</ele>
        <time>2015-03-29T09:21:27Z</time>
      </trkpt>
      <trkpt lat="41.292901" lon="-6.478079">
        <ele>362.156</ele>
        <time>2015-03-29T09:21:28Z</time>
      </trkpt>
      <trkpt lat="41.292899" lon="-6.478173">
        <ele>361.610</ele>
        <time>2015-03-29T09:21:29Z</time>
      </trkpt>
      <trkpt lat="41.292897" lon="-6.478252">
        <ele>361.128</ele>
        <time>2015-03-29T09:21:30Z</time>
      </trkpt>
      <trkpt lat="41.292908" lon="-6.478307">
        <ele>360.642</ele>
        <time>2015-03-29T09:21:31Z</time>
      </trkpt>
      <trkpt lat="41.292935" lon="-6.478340">
        <ele>360.693</ele>
        <time>2015-03-29T09:21:32Z</time>
      </trkpt>
      <trkpt lat="41.292971" lon="-6.478351">
        <ele>360.688</ele>
        <time>2015-03-29T09:21:33Z</time>
      </trkpt>
      <trkpt lat="41.293011" lon="-6.478342">
        <ele>360.224</ele>
        <time>2015-03-29T09:21:34Z</time>
      </trkpt>
      <trkpt lat="41.293044" lon="-6.478317">
        <ele>360.226</ele>
        <time>2015-03-29T09:21:35Z</time>
      </trkpt>
      <trkpt lat="41.293070" lon="-6.478284">
        <ele>359.207</ele>
        <time>2015-03-29T09:21:36Z</time>
      </trkpt>
      <trkpt lat="41.293087" lon="-6.478250">
        <ele>358.747</ele>
        <time>2015-03-29T09:21:37Z</time>
      </trkpt>
      <trkpt lat="41.293101" lon="-6.478221">
        <ele>358.232</ele>
        <time>2015-03-29T09:21:38Z</time>
      </trkpt>
      <trkpt lat="41.293110" lon="-6.478195">
        <ele>358.297</ele>
        <time>2015-03-29T09:21:39Z</time>
      </trkpt>
      <trkpt lat="41.293119" lon="-6.478166">
        <ele>357.881</ele>
        <time>2015-03-29T09:21:40Z</time>
      </trkpt>
      <trkpt lat="41.293128" lon="-6.478133">
        <ele>357.339</ele>
        <time>2015-03-29T09:21:41Z</time>
      </trkpt>
      <trkpt lat="41.293139" lon="-6.478100">
        <ele>357.343</ele>
        <time>2015-03-29T09:21:42Z</time>
      </trkpt>
      <trkpt lat="41.293150" lon="-6.478069">
        <ele>356.374</ele>
        <time>2015-03-29T09:21:43Z</time>
      </trkpt>
      <trkpt lat="41.293163" lon="-6.478032">
        <ele>356.341</ele>
        <time>2015-03-29T09:21:44Z</time>
      </trkpt>
      <trkpt lat="41.293232" lon="-6.477865">
        <ele>353.981</ele>
        <time>2015-03-29T09:21:48Z</time>
      </trkpt>
      <trkpt lat="41.293259" lon="-6.477823">
        <ele>353.409</ele>
        <time>2015-03-29T09:21:49Z</time>
      </trkpt>
      <trkpt lat="41.293289" lon="-6.477793">
        <ele>352.907</ele>
        <time>2015-03-29T09:21:50Z</time>
      </trkpt>
      <trkpt lat="41.293325" lon="-6.477773">
        <ele>352.583</ele>
        <time>2015-03-29T09:21:51Z</time>
      </trkpt>
      <trkpt lat="41.293367" lon="-6.477762">
        <ele>352.088</ele>
        <time>2015-03-29T09:21:52Z</time>
      </trkpt>
      <trkpt lat="41.293409" lon="-6.477762">
        <ele>351.563</ele>
        <time>2015-03-29T09:21:53Z</time>
      </trkpt>
      <trkpt lat="41.293450" lon="-6.477769">
        <ele>350.557</ele>
        <time>2015-03-29T09:21:54Z</time>
      </trkpt>
      <trkpt lat="41.293489" lon="-6.477787">
        <ele>350.115</ele>
        <time>2015-03-29T09:21:55Z</time>
      </trkpt>
      <trkpt lat="41.293523" lon="-6.477823">
        <ele>349.639</ele>
        <time>2015-03-29T09:21:56Z</time>
      </trkpt>
      <trkpt lat="41.293548" lon="-6.477868">
        <ele>349.660</ele>
        <time>2015-03-29T09:21:57Z</time>
      </trkpt>
      <trkpt lat="41.293563" lon="-6.477917">
        <ele>349.649</ele>
        <time>2015-03-29T09:21:58Z</time>
      </trkpt>
      <trkpt lat="41.293571" lon="-6.477972">
        <ele>349.102</ele>
        <time>2015-03-29T09:21:59Z</time>
      </trkpt>
      <trkpt lat="41.293576" lon="-6.478028">
        <ele>349.122</ele>
        <time>2015-03-29T09:22:00Z</time>
      </trkpt>
      <trkpt lat="41.293573" lon="-6.478087">
        <ele>348.607</ele>
        <time>2015-03-29T09:22:01Z</time>
      </trkpt>
      <trkpt lat="41.293561" lon="-6.478151">
        <ele>348.153</ele>
        <time>2015-03-29T09:22:02Z</time>
      </trkpt>
      <trkpt lat="41.293536" lon="-6.478219">
        <ele>347.248</ele>
        <time>2015-03-29T09:22:03Z</time>
      </trkpt>
      <trkpt lat="41.293498" lon="-6.478287">
        <ele>346.233</ele>
        <time>2015-03-29T09:22:04Z</time>
      </trkpt>
      <trkpt lat="41.293456" lon="-6.478350">
        <ele>345.797</ele>
        <time>2015-03-29T09:22:05Z</time>
      </trkpt>
      <trkpt lat="41.293389" lon="-6.478479">
        <ele>345.365</ele>
        <time>2015-03-29T09:22:07Z</time>
      </trkpt>
      <trkpt lat="41.293360" lon="-6.478543">
        <ele>344.829</ele>
        <time>2015-03-29T09:22:08Z</time>
      </trkpt>
      <trkpt lat="41.293340" lon="-6.478612">
        <ele>344.850</ele>
        <time>2015-03-29T09:22:09Z</time>
      </trkpt>
      <trkpt lat="41.293306" lon="-6.478813">
        <ele>343.827</ele>
        <time>2015-03-29T09:22:12Z</time>
      </trkpt>
      <trkpt lat="41.293273" lon="-6.479002">
        <ele>342.968</ele>
        <time>2015-03-29T09:22:17Z</time>
      </trkpt>
      <trkpt lat="41.293278" lon="-6.478986">
        <ele>342.914</ele>
        <time>2015-03-29T09:22:20Z</time>
      </trkpt>
      <trkpt lat="41.293287" lon="-6.478929">
        <ele>343.307</ele>
        <time>2015-03-29T09:22:28Z</time>
      </trkpt>
      <trkpt lat="41.293281" lon="-6.478943">
        <ele>343.371</ele>
        <time>2015-03-29T09:22:42Z</time>
      </trkpt>
      <trkpt lat="41.293275" lon="-6.478933">
        <ele>343.356</ele>
        <time>2015-03-29T09:23:03Z</time>
      </trkpt>
      <trkpt lat="41.293265" lon="-6.478924">
        <ele>343.391</ele>
        <time>2015-03-29T09:23:21Z</time>
      </trkpt>
      <trkpt lat="41.293259" lon="-6.478912">
        <ele>343.395</ele>
        <time>2015-03-29T09:23:45Z</time>
      </trkpt>
      <trkpt lat="41.293267" lon="-6.478914">
        <ele>343.353</ele>
        <time>2015-03-29T09:24:10Z</time>
      </trkpt>
      <trkpt lat="41.293275" lon="-6.478914">
        <ele>343.387</ele>
        <time>2015-03-29T09:24:35Z</time>
      </trkpt>
      <trkpt lat="41.293275" lon="-6.478915">
        <ele>343.398</ele>
        <time>2015-03-29T09:24:55Z</time>
      </trkpt>
      <trkpt lat="41.293284" lon="-6.478917">
        <ele>343.327</ele>
        <time>2015-03-29T09:25:04Z</time>
      </trkpt>
      <trkpt lat="41.293274" lon="-6.478928">
        <ele>343.368</ele>
        <time>2015-03-29T09:25:16Z</time>
      </trkpt>
      <trkpt lat="41.293280" lon="-6.478996">
        <ele>343.314</ele>
        <time>2015-03-29T09:25:25Z</time>
      </trkpt>
      <trkpt lat="41.293160" lon="-6.479192">
        <ele>342.907</ele>
        <time>2015-03-29T09:25:36Z</time>
      </trkpt>
      <trkpt lat="41.292989" lon="-6.479192">
        <ele>341.981</ele>
        <time>2015-03-29T09:25:43Z</time>
      </trkpt>
      <trkpt lat="41.292935" lon="-6.479194">
        <ele>340.976</ele>
        <time>2015-03-29T09:25:45Z</time>
      </trkpt>
      <trkpt lat="41.292642" lon="-6.479193">
        <ele>340.011</ele>
        <time>2015-03-29T09:25:53Z</time>
      </trkpt>
      <trkpt lat="41.292391" lon="-6.479182">
        <ele>339.545</ele>
        <time>2015-03-29T09:26:00Z</time>
      </trkpt>
      <trkpt lat="41.292174" lon="-6.479161">
        <ele>337.663</ele>
        <time>2015-03-29T09:26:06Z</time>
      </trkpt>
      <trkpt lat="41.291976" lon="-6.479174">
        <ele>337.197</ele>
        <time>2015-03-29T09:26:14Z</time>
      </trkpt>
      <trkpt lat="41.291745" lon="-6.479219">
        <ele>337.118</ele>
        <time>2015-03-29T09:26:23Z</time>
      </trkpt>
      <trkpt lat="41.291497" lon="-6.479256">
        <ele>338.082</ele>
        <time>2015-03-29T09:26:32Z</time>
      </trkpt>
      <trkpt lat="41.291248" lon="-6.479219">
        <ele>339.543</ele>
        <time>2015-03-29T09:26:41Z</time>
      </trkpt>
      <trkpt lat="41.291045" lon="-6.479203">
        <ele>340.417</ele>
        <time>2015-03-29T09:26:49Z</time>
      </trkpt>
      <trkpt lat="41.290820" lon="-6.479330">
        <ele>341.907</ele>
        <time>2015-03-29T09:26:59Z</time>
      </trkpt>
      <trkpt lat="41.290505" lon="-6.479414">
        <ele>337.697</ele>
        <time>2015-03-29T09:27:06Z</time>
      </trkpt>
      <trkpt lat="41.290203" lon="-6.479532">
        <ele>336.662</ele>
        <time>2015-03-29T09:27:12Z</time>
      </trkpt>
      <trkpt lat="41.290136" lon="-6.479560">
        <ele>336.617</ele>
        <time>2015-03-29T09:27:15Z</time>
      </trkpt>
      <trkpt lat="41.290032" lon="-6.479580">
        <ele>337.181</ele>
        <time>2015-03-29T09:27:19Z</time>
      </trkpt>
      <trkpt lat="41.289800" lon="-6.479573">
        <ele>338.569</ele>
        <time>2015-03-29T09:27:28Z</time>
      </trkpt>
      <trkpt lat="41.289585" lon="-6.479521">
        <ele>339.073</ele>
        <time>2015-03-29T09:27:35Z</time>
      </trkpt>
      <trkpt lat="41.289317" lon="-6.479482">
        <ele>338.524</ele>
        <time>2015-03-29T09:27:44Z</time>
      </trkpt>
      <trkpt lat="41.289092" lon="-6.479382">
        <ele>339.562</ele>
        <time>2015-03-29T09:27:52Z</time>
      </trkpt>
      <trkpt lat="41.288866" lon="-6.479327">
        <ele>338.083</ele>
        <time>2015-03-29T09:28:00Z</time>
      </trkpt>
      <trkpt lat="41.288817" lon="-6.479350">
        <ele>337.611</ele>
        <time>2015-03-29T09:28:02Z</time>
      </trkpt>
      <trkpt lat="41.288764" lon="-6.479511">
        <ele>336.607</ele>
        <time>2015-03-29T09:28:11Z</time>
      </trkpt>
      <trkpt lat="41.288765" lon="-6.479527">
        <ele>336.635</ele>
        <time>2015-03-29T09:28:12Z</time>
      </trkpt>
      <trkpt lat="41.288761" lon="-6.479637">
        <ele>336.160</ele>
        <time>2015-03-29T09:28:22Z</time>
      </trkpt>
      <trkpt lat="41.288744" lon="-6.479643">
        <ele>336.165</ele>
        <time>2015-03-29T09:28:40Z</time>
      </trkpt>
      <trkpt lat="41.288745" lon="-6.479649">
        <ele>336.139</ele>
        <time>2015-03-29T09:28:49Z</time>
      </trkpt>
      <trkpt lat="41.288751" lon="-6.479653">
        <ele>337.117</ele>
        <time>2015-03-29T09:28:57Z</time>
      </trkpt>
      <trkpt lat="41.288757" lon="-6.479662">
        <ele>336.121</ele>
        <time>2015-03-29T09:29:15Z</time>
      </trkpt>
      <trkpt lat="41.288744" lon="-6.479671">
        <ele>336.142</ele>
        <time>2015-03-29T09:29:30Z</time>
      </trkpt>
      <trkpt lat="41.288751" lon="-6.479657">
        <ele>336.195</ele>
        <time>2015-03-29T09:29:56Z</time>
      </trkpt>
      <trkpt lat="41.288757" lon="-6.479635">
        <ele>336.149</ele>
        <time>2015-03-29T09:30:11Z</time>
      </trkpt>
      <trkpt lat="41.288756" lon="-6.479626">
        <ele>336.123</ele>
        <time>2015-03-29T09:30:28Z</time>
      </trkpt>
      <trkpt lat="41.288759" lon="-6.479623">
        <ele>336.107</ele>
        <time>2015-03-29T09:30:56Z</time>
      </trkpt>
      <trkpt lat="41.288771" lon="-6.479625">
        <ele>336.168</ele>
        <time>2015-03-29T09:31:24Z</time>
      </trkpt>
      <trkpt lat="41.288778" lon="-6.479632">
        <ele>336.153</ele>
        <time>2015-03-29T09:31:41Z</time>
      </trkpt>
      <trkpt lat="41.288772" lon="-6.479645">
        <ele>336.118</ele>
        <time>2015-03-29T09:31:58Z</time>
      </trkpt>
      <trkpt lat="41.288762" lon="-6.479636">
        <ele>336.112</ele>
        <time>2015-03-29T09:32:08Z</time>
      </trkpt>
      <trkpt lat="41.288760" lon="-6.479636">
        <ele>336.170</ele>
        <time>2015-03-29T09:32:15Z</time>
      </trkpt>
      <trkpt lat="41.288768" lon="-6.479672">
        <ele>336.174</ele>
        <time>2015-03-29T09:32:18Z</time>
      </trkpt>
      <trkpt lat="41.288749" lon="-6.479820">
        <ele>335.645</ele>
        <time>2015-03-29T09:32:25Z</time>
      </trkpt>
      <trkpt lat="41.288749" lon="-6.479849">
        <ele>336.183</ele>
        <time>2015-03-29T09:32:27Z</time>
      </trkpt>
      <trkpt lat="41.288743" lon="-6.479908">
        <ele>336.625</ele>
        <time>2015-03-29T09:32:35Z</time>
      </trkpt>
      <trkpt lat="41.288742" lon="-6.479915">
        <ele>336.617</ele>
        <time>2015-03-29T09:32:50Z</time>
      </trkpt>
      <trkpt lat="41.288743" lon="-6.479951">
        <ele>337.107</ele>
        <time>2015-03-29T09:32:53Z</time>
      </trkpt>
      <trkpt lat="41.288741" lon="-6.480003">
        <ele>337.647</ele>
        <time>2015-03-29T09:33:02Z</time>
      </trkpt>
      <trkpt lat="41.288728" lon="-6.480001">
        <ele>337.182</ele>
        <time>2015-03-29T09:33:25Z</time>
      </trkpt>
      <trkpt lat="41.288729" lon="-6.480004">
        <ele>337.667</ele>
        <time>2015-03-29T09:33:42Z</time>
      </trkpt>
      <trkpt lat="41.288722" lon="-6.480012">
        <ele>337.151</ele>
        <time>2015-03-29T09:33:46Z</time>
      </trkpt>
      <trkpt lat="41.288730" lon="-6.480045">
        <ele>337.649</ele>
        <time>2015-03-29T09:33:49Z</time>
      </trkpt>
      <trkpt lat="41.288764" lon="-6.480077">
        <ele>337.693</ele>
        <time>2015-03-29T09:33:52Z</time>
      </trkpt>
      <trkpt lat="41.288875" lon="-6.480105">
        <ele>338.584</ele>
        <time>2015-03-29T09:33:59Z</time>
      </trkpt>
      <trkpt lat="41.289051" lon="-6.480288">
        <ele>341.469</ele>
        <time>2015-03-29T09:34:10Z</time>
      </trkpt>
      <trkpt lat="41.289091" lon="-6.480340">
        <ele>342.404</ele>
        <time>2015-03-29T09:34:13Z</time>
      </trkpt>
      <trkpt lat="41.289186" lon="-6.480482">
        <ele>344.824</ele>
        <time>2015-03-29T09:34:22Z</time>
      </trkpt>
      <trkpt lat="41.289092" lon="-6.480501">
        <ele>344.807</ele>
        <time>2015-03-29T09:34:29Z</time>
      </trkpt>
      <trkpt lat="41.288881" lon="-6.480426">
        <ele>345.775</ele>
        <time>2015-03-29T09:34:39Z</time>
      </trkpt>
      <trkpt lat="41.288805" lon="-6.480381">
        <ele>346.720</ele>
        <time>2015-03-29T09:34:44Z</time>
      </trkpt>
      <trkpt lat="41.288662" lon="-6.480366">
        <ele>348.115</ele>
        <time>2015-03-29T09:34:52Z</time>
      </trkpt>
      <trkpt lat="41.288580" lon="-6.480376">
        <ele>348.699</ele>
        <time>2015-03-29T09:34:57Z</time>
      </trkpt>
      <trkpt lat="41.288409" lon="-6.480339">
        <ele>350.517</ele>
        <time>2015-03-29T09:35:07Z</time>
      </trkpt>
      <trkpt lat="41.288257" lon="-6.480301">
        <ele>352.041</ele>
        <time>2015-03-29T09:35:16Z</time>
      </trkpt>
      <trkpt lat="41.288128" lon="-6.480229">
        <ele>354.432</ele>
        <time>2015-03-29T09:35:26Z</time>
      </trkpt>
      <trkpt lat="41.288006" lon="-6.480161">
        <ele>356.369</ele>
        <time>2015-03-29T09:35:35Z</time>
      </trkpt>
      <trkpt lat="41.287957" lon="-6.480146">
        <ele>357.304</ele>
        <time>2015-03-29T09:35:39Z</time>
      </trkpt>
      <trkpt lat="41.287884" lon="-6.480071">
        <ele>358.724</ele>
        <time>2015-03-29T09:35:47Z</time>
      </trkpt>
      <trkpt lat="41.287852" lon="-6.480053">
        <ele>359.707</ele>
        <time>2015-03-29T09:35:50Z</time>
      </trkpt>
      <trkpt lat="41.287822" lon="-6.480012">
        <ele>360.675</ele>
        <time>2015-03-29T09:35:54Z</time>
      </trkpt>
      <trkpt lat="41.287774" lon="-6.479966">
        <ele>361.140</ele>
        <time>2015-03-29T09:35:58Z</time>
      </trkpt>
      <trkpt lat="41.287742" lon="-6.479924">
        <ele>362.195</ele>
        <time>2015-03-29T09:36:02Z</time>
      </trkpt>
      <trkpt lat="41.287718" lon="-6.479906">
        <ele>362.199</ele>
        <time>2015-03-29T09:36:04Z</time>
      </trkpt>
      <trkpt lat="41.287560" lon="-6.479780">
        <ele>363.077</ele>
        <time>2015-03-29T09:36:14Z</time>
      </trkpt>
      <trkpt lat="41.287406" lon="-6.479656">
        <ele>364.081</ele>
        <time>2015-03-29T09:36:23Z</time>
      </trkpt>
      <trkpt lat="41.287371" lon="-6.479614">
        <ele>365.052</ele>
        <time>2015-03-29T09:36:26Z</time>
      </trkpt>
      <trkpt lat="41.287296" lon="-6.479540">
        <ele>365.932</ele>
        <time>2015-03-29T09:36:32Z</time>
      </trkpt>
      <trkpt lat="41.287183" lon="-6.479378">
        <ele>368.392</ele>
        <time>2015-03-29T09:36:43Z</time>
      </trkpt>
      <trkpt lat="41.287113" lon="-6.479206">
        <ele>371.211</ele>
        <time>2015-03-29T09:36:52Z</time>
      </trkpt>
      <trkpt lat="41.287038" lon="-6.479057">
        <ele>373.107</ele>
        <time>2015-03-29T09:37:01Z</time>
      </trkpt>
      <trkpt lat="41.286956" lon="-6.478932">
        <ele>376.082</ele>
        <time>2015-03-29T09:37:10Z</time>
      </trkpt>
      <trkpt lat="41.286881" lon="-6.478809">
        <ele>377.917</ele>
        <time>2015-03-29T09:37:19Z</time>
      </trkpt>
      <trkpt lat="41.286870" lon="-6.478793">
        <ele>377.952</ele>
        <time>2015-03-29T09:37:20Z</time>
      </trkpt>
      <trkpt lat="41.286817" lon="-6.478596">
        <ele>380.366</ele>
        <time>2015-03-29T09:37:30Z</time>
      </trkpt>
      <trkpt lat="41.286798" lon="-6.478323">
        <ele>382.384</ele>
        <time>2015-03-29T09:37:42Z</time>
      </trkpt>
      <trkpt lat="41.286710" lon="-6.478110">
        <ele>384.788</ele>
        <time>2015-03-29T09:37:52Z</time>
      </trkpt>
      <trkpt lat="41.286666" lon="-6.478059">
        <ele>385.659</ele>
        <time>2015-03-29T09:37:56Z</time>
      </trkpt>
      <trkpt lat="41.286631" lon="-6.477989">
        <ele>387.138</ele>
        <time>2015-03-29T09:38:00Z</time>
      </trkpt>
      <trkpt lat="41.286558" lon="-6.477791">
        <ele>389.070</ele>
        <time>2015-03-29T09:38:10Z</time>
      </trkpt>
      <trkpt lat="41.286535" lon="-6.477673">
        <ele>390.417</ele>
        <time>2015-03-29T09:38:16Z</time>
      </trkpt>
      <trkpt lat="41.286501" lon="-6.477330">
        <ele>392.407</ele>
        <time>2015-03-29T09:38:29Z</time>
      </trkpt>
      <trkpt lat="41.286387" lon="-6.477170">
        <ele>393.832</ele>
        <time>2015-03-29T09:38:37Z</time>
      </trkpt>
      <trkpt lat="41.286223" lon="-6.477031">
        <ele>395.777</ele>
        <time>2015-03-29T09:38:48Z</time>
      </trkpt>
      <trkpt lat="41.286085" lon="-6.476901">
        <ele>397.292</ele>
        <time>2015-03-29T09:38:57Z</time>
      </trkpt>
      <trkpt lat="41.285992" lon="-6.476683">
        <ele>399.696</ele>
        <time>2015-03-29T09:39:07Z</time>
      </trkpt>
      <trkpt lat="41.285973" lon="-6.476540">
        <ele>401.024</ele>
        <time>2015-03-29T09:39:14Z</time>
      </trkpt>
      <trkpt lat="41.286014" lon="-6.476365">
        <ele>402.978</ele>
        <time>2015-03-29T09:39:22Z</time>
      </trkpt>
      <trkpt lat="41.286014" lon="-6.476128">
        <ele>404.979</ele>
        <time>2015-03-29T09:39:32Z</time>
      </trkpt>
      <trkpt lat="41.285955" lon="-6.475891">
        <ele>406.885</ele>
        <time>2015-03-29T09:39:42Z</time>
      </trkpt>
      <trkpt lat="41.285950" lon="-6.475868">
        <ele>407.389</ele>
        <time>2015-03-29T09:39:43Z</time>
      </trkpt>
      <trkpt lat="41.285935" lon="-6.475640">
        <ele>409.217</ele>
        <time>2015-03-29T09:39:54Z</time>
      </trkpt>
      <trkpt lat="41.285930" lon="-6.475518">
        <ele>410.607</ele>
        <time>2015-03-29T09:40:00Z</time>
      </trkpt>
      <trkpt lat="41.285918" lon="-6.475342">
        <ele>412.597</ele>
        <time>2015-03-29T09:40:09Z</time>
      </trkpt>
      <trkpt lat="41.285885" lon="-6.475167">
        <ele>414.582</ele>
        <time>2015-03-29T09:40:18Z</time>
      </trkpt>
      <trkpt lat="41.285866" lon="-6.475117">
        <ele>415.067</ele>
        <time>2015-03-29T09:40:21Z</time>
      </trkpt>
      <trkpt lat="41.285831" lon="-6.474961">
        <ele>416.911</ele>
        <time>2015-03-29T09:40:30Z</time>
      </trkpt>
      <trkpt lat="41.285822" lon="-6.474924">
        <ele>417.499</ele>
        <time>2015-03-29T09:40:32Z</time>
      </trkpt>
      <trkpt lat="41.285813" lon="-6.474831">
        <ele>418.393</ele>
        <time>2015-03-29T09:40:37Z</time>
      </trkpt>
      <trkpt lat="41.285833" lon="-6.474674">
        <ele>419.824</ele>
        <time>2015-03-29T09:40:45Z</time>
      </trkpt>
      <trkpt lat="41.285858" lon="-6.474467">
        <ele>421.743</ele>
        <time>2015-03-29T09:40:54Z</time>
      </trkpt>
      <trkpt lat="41.285855" lon="-6.474190">
        <ele>423.164</ele>
        <time>2015-03-29T09:41:06Z</time>
      </trkpt>
      <trkpt lat="41.285838" lon="-6.474125">
        <ele>423.610</ele>
        <time>2015-03-29T09:41:09Z</time>
      </trkpt>
      <trkpt lat="41.285815" lon="-6.473907">
        <ele>425.507</ele>
        <time>2015-03-29T09:41:19Z</time>
      </trkpt>
      <trkpt lat="41.285814" lon="-6.473888">
        <ele>426.083</ele>
        <time>2015-03-29T09:41:20Z</time>
      </trkpt>
      <trkpt lat="41.285807" lon="-6.473724">
        <ele>428.498</ele>
        <time>2015-03-29T09:41:29Z</time>
      </trkpt>
      <trkpt lat="41.285810" lon="-6.473578">
        <ele>430.323</ele>
        <time>2015-03-29T09:41:37Z</time>
      </trkpt>
      <trkpt lat="41.285806" lon="-6.473447">
        <ele>431.397</ele>
        <time>2015-03-29T09:41:44Z</time>
      </trkpt>
      <trkpt lat="41.285819" lon="-6.473324">
        <ele>432.795</ele>
        <time>2015-03-29T09:41:51Z</time>
      </trkpt>
      <trkpt lat="41.285811" lon="-6.473223">
        <ele>434.219</ele>
        <time>2015-03-29T09:41:57Z</time>
      </trkpt>
      <trkpt lat="41.285792" lon="-6.473064">
        <ele>436.170</ele>
        <time>2015-03-29T09:42:06Z</time>
      </trkpt>
      <trkpt lat="41.285754" lon="-6.472936">
        <ele>437.555</ele>
        <time>2015-03-29T09:42:13Z</time>
      </trkpt>
      <trkpt lat="41.285657" lon="-6.472891">
        <ele>439.007</ele>
        <time>2015-03-29T09:42:19Z</time>
      </trkpt>
      <trkpt lat="41.285601" lon="-6.472866">
        <ele>439.517</ele>
        <time>2015-03-29T09:42:22Z</time>
      </trkpt>
      <trkpt lat="41.285518" lon="-6.472870">
        <ele>440.407</ele>
        <time>2015-03-29T09:42:27Z</time>
      </trkpt>
      <trkpt lat="41.285420" lon="-6.472898">
        <ele>441.964</ele>
        <time>2015-03-29T09:42:34Z</time>
      </trkpt>
      <trkpt lat="41.285270" lon="-6.472911">
        <ele>443.839</ele>
        <time>2015-03-29T09:42:44Z</time>
      </trkpt>
      <trkpt lat="41.285227" lon="-6.472901">
        <ele>444.394</ele>
        <time>2015-03-29T09:42:47Z</time>
      </trkpt>
      <trkpt lat="41.285117" lon="-6.472872">
        <ele>445.258</ele>
        <time>2015-03-29T09:42:55Z</time>
      </trkpt>
      <trkpt lat="41.285002" lon="-6.472779">
        <ele>447.216</ele>
        <time>2015-03-29T09:43:05Z</time>
      </trkpt>
      <trkpt lat="41.284975" lon="-6.472760">
        <ele>447.620</ele>
        <time>2015-03-29T09:43:07Z</time>
      </trkpt>
      <trkpt lat="41.284895" lon="-6.472895">
        <ele>449.641</ele>
        <time>2015-03-29T09:43:15Z</time>
      </trkpt>
      <trkpt lat="41.284926" lon="-6.472964">
        <ele>449.632</ele>
        <time>2015-03-29T09:43:18Z</time>
      </trkpt>
      <trkpt lat="41.285058" lon="-6.473073">
        <ele>450.592</ele>
        <time>2015-03-29T09:43:26Z</time>
      </trkpt>
      <trkpt lat="41.285253" lon="-6.473177">
        <ele>452.911</ele>
        <time>2015-03-29T09:43:37Z</time>
      </trkpt>
      <trkpt lat="41.285364" lon="-6.473268">
        <ele>453.907</ele>
        <time>2015-03-29T09:43:44Z</time>
      </trkpt>
      <trkpt lat="41.285402" lon="-6.473362">
        <ele>454.422</ele>
        <time>2015-03-29T09:43:48Z</time>
      </trkpt>
      <trkpt lat="41.285341" lon="-6.473651">
        <ele>455.867</ele>
        <time>2015-03-29T09:44:00Z</time>
      </trkpt>
      <trkpt lat="41.285269" lon="-6.473895">
        <ele>458.792</ele>
        <time>2015-03-29T09:44:11Z</time>
      </trkpt>
      <trkpt lat="41.285226" lon="-6.474054">
        <ele>460.686</ele>
        <time>2015-03-29T09:44:19Z</time>
      </trkpt>
      <trkpt lat="41.285197" lon="-6.474196">
        <ele>462.554</ele>
        <time>2015-03-29T09:44:27Z</time>
      </trkpt>
      <trkpt lat="41.285181" lon="-6.474267">
        <ele>463.538</ele>
        <time>2015-03-29T09:44:31Z</time>
      </trkpt>
      <trkpt lat="41.285167" lon="-6.474301">
        <ele>464.019</ele>
        <time>2015-03-29T09:44:33Z</time>
      </trkpt>
      <trkpt lat="41.285128" lon="-6.474459">
        <ele>464.949</ele>
        <time>2015-03-29T09:44:39Z</time>
      </trkpt>
      <trkpt lat="41.285085" lon="-6.474733">
        <ele>465.902</ele>
        <time>2015-03-29T09:44:49Z</time>
      </trkpt>
      <trkpt lat="41.285088" lon="-6.474943">
        <ele>467.822</ele>
        <time>2015-03-29T09:44:58Z</time>
      </trkpt>
      <trkpt lat="41.285075" lon="-6.475120">
        <ele>469.307</ele>
        <time>2015-03-29T09:45:05Z</time>
      </trkpt>
      <trkpt lat="41.285039" lon="-6.475404">
        <ele>471.273</ele>
        <time>2015-03-29T09:45:17Z</time>
      </trkpt>
      <trkpt lat="41.285027" lon="-6.475424">
        <ele>471.718</ele>
        <time>2015-03-29T09:45:18Z</time>
      </trkpt>
      <trkpt lat="41.285000" lon="-6.475514">
        <ele>472.193</ele>
        <time>2015-03-29T09:45:22Z</time>
      </trkpt>
      <trkpt lat="41.284942" lon="-6.475818">
        <ele>473.157</ele>
        <time>2015-03-29T09:45:33Z</time>
      </trkpt>
      <trkpt lat="41.284845" lon="-6.476158">
        <ele>473.665</ele>
        <time>2015-03-29T09:45:44Z</time>
      </trkpt>
      <trkpt lat="41.284749" lon="-6.476579">
        <ele>476.099</ele>
        <time>2015-03-29T09:45:57Z</time>
      </trkpt>
      <trkpt lat="41.284711" lon="-6.476782">
        <ele>477.920</ele>
        <time>2015-03-29T09:46:04Z</time>
      </trkpt>
      <trkpt lat="41.284573" lon="-6.476800">
        <ele>479.824</ele>
        <time>2015-03-29T09:46:12Z</time>
      </trkpt>
      <trkpt lat="41.284558" lon="-6.476573">
        <ele>480.304</ele>
        <time>2015-03-29T09:46:20Z</time>
      </trkpt>
      <trkpt lat="41.284577" lon="-6.476416">
        <ele>481.314</ele>
        <time>2015-03-29T09:46:25Z</time>
      </trkpt>
      <trkpt lat="41.284603" lon="-6.476065">
        <ele>482.707</ele>
        <time>2015-03-29T09:46:37Z</time>
      </trkpt>
      <trkpt lat="41.284587" lon="-6.475955">
        <ele>483.261</ele>
        <time>2015-03-29T09:46:41Z</time>
      </trkpt>
      <trkpt lat="41.284605" lon="-6.475656">
        <ele>485.696</ele>
        <time>2015-03-29T09:46:52Z</time>
      </trkpt>
      <trkpt lat="41.284586" lon="-6.475408">
        <ele>488.031</ele>
        <time>2015-03-29T09:47:03Z</time>
      </trkpt>
      <trkpt lat="41.284524" lon="-6.475227">
        <ele>490.945</ele>
        <time>2015-03-29T09:47:13Z</time>
      </trkpt>
      <trkpt lat="41.284490" lon="-6.475178">
        <ele>491.453</ele>
        <time>2015-03-29T09:47:16Z</time>
      </trkpt>
      <trkpt lat="41.284437" lon="-6.475120">
        <ele>492.877</ele>
        <time>2015-03-29T09:47:21Z</time>
      </trkpt>
      <trkpt lat="41.284398" lon="-6.475055">
        <ele>493.878</ele>
        <time>2015-03-29T09:47:25Z</time>
      </trkpt>
      <trkpt lat="41.284280" lon="-6.474917">
        <ele>496.279</ele>
        <time>2015-03-29T09:47:35Z</time>
      </trkpt>
      <trkpt lat="41.284184" lon="-6.474825">
        <ele>497.605</ele>
        <time>2015-03-29T09:47:42Z</time>
      </trkpt>
      <trkpt lat="41.284083" lon="-6.474747">
        <ele>499.525</ele>
        <time>2015-03-29T09:47:50Z</time>
      </trkpt>
      <trkpt lat="41.284024" lon="-6.474707">
        <ele>500.507</ele>
        <time>2015-03-29T09:47:55Z</time>
      </trkpt>
      <trkpt lat="41.283952" lon="-6.474697">
        <ele>502.086</ele>
        <time>2015-03-29T09:48:00Z</time>
      </trkpt>
      <trkpt lat="41.283899" lon="-6.474657">
        <ele>502.921</ele>
        <time>2015-03-29T09:48:04Z</time>
      </trkpt>
      <trkpt lat="41.283837" lon="-6.474581">
        <ele>503.946</ele>
        <time>2015-03-29T09:48:09Z</time>
      </trkpt>
      <trkpt lat="41.283680" lon="-6.474460">
        <ele>506.810</ele>
        <time>2015-03-29T09:48:21Z</time>
      </trkpt>
      <trkpt lat="41.283583" lon="-6.474370">
        <ele>509.298</ele>
        <time>2015-03-29T09:48:30Z</time>
      </trkpt>
      <trkpt lat="41.283533" lon="-6.474326">
        <ele>510.152</ele>
        <time>2015-03-29T09:48:34Z</time>
      </trkpt>
      <trkpt lat="41.283499" lon="-6.474282">
        <ele>510.633</ele>
        <time>2015-03-29T09:48:38Z</time>
      </trkpt>
      <trkpt lat="41.283406" lon="-6.474160">
        <ele>512.548</ele>
        <time>2015-03-29T09:48:46Z</time>
      </trkpt>
      <trkpt lat="41.283333" lon="-6.474085">
        <ele>514.061</ele>
        <time>2015-03-29T09:48:52Z</time>
      </trkpt>
      <trkpt lat="41.283286" lon="-6.474033">
        <ele>514.917</ele>
        <time>2015-03-29T09:48:56Z</time>
      </trkpt>
      <trkpt lat="41.283112" lon="-6.473887">
        <ele>516.407</ele>
        <time>2015-03-29T09:49:07Z</time>
      </trkpt>
      <trkpt lat="41.282954" lon="-6.473775">
        <ele>517.373</ele>
        <time>2015-03-29T09:49:16Z</time>
      </trkpt>
      <trkpt lat="41.282805" lon="-6.473692">
        <ele>518.368</ele>
        <time>2015-03-29T09:49:25Z</time>
      </trkpt>
      <trkpt lat="41.282579" lon="-6.473584">
        <ele>519.783</ele>
        <time>2015-03-29T09:49:37Z</time>
      </trkpt>
      <trkpt lat="41.282357" lon="-6.473473">
        <ele>521.717</ele>
        <time>2015-03-29T09:49:48Z</time>
      </trkpt>
      <trkpt lat="41.282169" lon="-6.473422">
        <ele>524.175</ele>
        <time>2015-03-29T09:49:59Z</time>
      </trkpt>
      <trkpt lat="41.281969" lon="-6.473393">
        <ele>526.949</ele>
        <time>2015-03-29T09:50:10Z</time>
      </trkpt>
      <trkpt lat="41.281951" lon="-6.473397">
        <ele>526.930</ele>
        <time>2015-03-29T09:50:11Z</time>
      </trkpt>
      <trkpt lat="41.281817" lon="-6.473358">
        <ele>528.955</ele>
        <time>2015-03-29T09:50:19Z</time>
      </trkpt>
      <trkpt lat="41.281762" lon="-6.473314">
        <ele>529.307</ele>
        <time>2015-03-29T09:50:23Z</time>
      </trkpt>
      <trkpt lat="41.281636" lon="-6.473210">
        <ele>530.817</ele>
        <time>2015-03-29T09:50:32Z</time>
      </trkpt>
      <trkpt lat="41.281556" lon="-6.473147">
        <ele>532.207</ele>
        <time>2015-03-29T09:50:38Z</time>
      </trkpt>
      <trkpt lat="41.281511" lon="-6.473096">
        <ele>533.264</ele>
        <time>2015-03-29T09:50:42Z</time>
      </trkpt>
      <trkpt lat="41.281378" lon="-6.472966">
        <ele>535.619</ele>
        <time>2015-03-29T09:50:53Z</time>
      </trkpt>
      <trkpt lat="41.281303" lon="-6.472880">
        <ele>536.164</ele>
        <time>2015-03-29T09:50:58Z</time>
      </trkpt>
      <trkpt lat="41.281247" lon="-6.472794">
        <ele>537.018</ele>
        <time>2015-03-29T09:51:03Z</time>
      </trkpt>
      <trkpt lat="41.281201" lon="-6.472701">
        <ele>537.096</ele>
        <time>2015-03-29T09:51:08Z</time>
      </trkpt>
      <trkpt lat="41.281150" lon="-6.472573">
        <ele>537.010</ele>
        <time>2015-03-29T09:51:14Z</time>
      </trkpt>
      <trkpt lat="41.280994" lon="-6.472250">
        <ele>538.011</ele>
        <time>2015-03-29T09:51:26Z</time>
      </trkpt>
      <trkpt lat="41.280906" lon="-6.471951">
        <ele>538.528</ele>
        <time>2015-03-29T09:51:36Z</time>
      </trkpt>
      <trkpt lat="41.280660" lon="-6.471755">
        <ele>533.789</ele>
        <time>2015-03-29T09:51:41Z</time>
      </trkpt>
      <trkpt lat="41.280576" lon="-6.471711">
        <ele>532.217</ele>
        <time>2015-03-29T09:51:42Z</time>
      </trkpt>
      <trkpt lat="41.280298" lon="-6.471570">
        <ele>526.507</ele>
        <time>2015-03-29T09:51:45Z</time>
      </trkpt>
      <trkpt lat="41.280200" lon="-6.471509">
        <ele>525.551</ele>
        <time>2015-03-29T09:51:46Z</time>
      </trkpt>
      <trkpt lat="41.279862" lon="-6.471105">
        <ele>519.796</ele>
        <time>2015-03-29T09:51:50Z</time>
      </trkpt>
      <trkpt lat="41.279794" lon="-6.470979">
        <ele>519.721</ele>
        <time>2015-03-29T09:51:51Z</time>
      </trkpt>
      <trkpt lat="41.279449" lon="-6.470580">
        <ele>514.935</ele>
        <time>2015-03-29T09:51:55Z</time>
      </trkpt>
      <trkpt lat="41.279226" lon="-6.470211">
        <ele>513.053</ele>
        <time>2015-03-29T09:51:58Z</time>
      </trkpt>
      <trkpt lat="41.279154" lon="-6.470095">
        <ele>513.097</ele>
        <time>2015-03-29T09:51:59Z</time>
      </trkpt>
      <trkpt lat="41.278820" lon="-6.469809">
        <ele>513.028</ele>
        <time>2015-03-29T09:52:03Z</time>
      </trkpt>
      <trkpt lat="41.278580" lon="-6.469748">
        <ele>514.464</ele>
        <time>2015-03-29T09:52:06Z</time>
      </trkpt>
      <trkpt lat="41.278388" lon="-6.469755">
        <ele>517.806</ele>
        <time>2015-03-29T09:52:10Z</time>
      </trkpt>
      <trkpt lat="41.278115" lon="-6.469825">
        <ele>520.716</ele>
        <time>2015-03-29T09:52:19Z</time>
      </trkpt>
      <trkpt lat="41.278022" lon="-6.469826">
        <ele>522.107</ele>
        <time>2015-03-29T09:52:24Z</time>
      </trkpt>
      <trkpt lat="41.277791" lon="-6.469805">
        <ele>525.045</ele>
        <time>2015-03-29T09:52:35Z</time>
      </trkpt>
      <trkpt lat="41.277544" lon="-6.469702">
        <ele>527.960</ele>
        <time>2015-03-29T09:52:47Z</time>
      </trkpt>
      <trkpt lat="41.277318" lon="-6.469766">
        <ele>529.855</ele>
        <time>2015-03-29T09:52:58Z</time>
      </trkpt>
      <trkpt lat="41.277093" lon="-6.469878">
        <ele>532.219</ele>
        <time>2015-03-29T09:53:09Z</time>
      </trkpt>
      <trkpt lat="41.276888" lon="-6.469935">
        <ele>533.737</ele>
        <time>2015-03-29T09:53:19Z</time>
      </trkpt>
      <trkpt lat="41.276804" lon="-6.469941">
        <ele>534.281</ele>
        <time>2015-03-29T09:53:23Z</time>
      </trkpt>
      <trkpt lat="41.276588" lon="-6.469879">
        <ele>536.132</ele>
        <time>2015-03-29T09:53:34Z</time>
      </trkpt>
      <trkpt lat="41.276476" lon="-6.469806">
        <ele>537.056</ele>
        <time>2015-03-29T09:53:40Z</time>
      </trkpt>
      <trkpt lat="41.276335" lon="-6.469733">
        <ele>539.059</ele>
        <time>2015-03-29T09:53:49Z</time>
      </trkpt>
      <trkpt lat="41.276219" lon="-6.469629">
        <ele>540.914</ele>
        <time>2015-03-29T09:53:58Z</time>
      </trkpt>
      <trkpt lat="41.276176" lon="-6.469500">
        <ele>542.807</ele>
        <time>2015-03-29T09:54:05Z</time>
      </trkpt>
      <trkpt lat="41.276173" lon="-6.469446">
        <ele>543.334</ele>
        <time>2015-03-29T09:54:08Z</time>
      </trkpt>
      <trkpt lat="41.276144" lon="-6.469291">
        <ele>545.259</ele>
        <time>2015-03-29T09:54:16Z</time>
      </trkpt>
      <trkpt lat="41.276126" lon="-6.469190">
        <ele>546.224</ele>
        <time>2015-03-29T09:54:21Z</time>
      </trkpt>
      <trkpt lat="41.276033" lon="-6.469064">
        <ele>547.638</ele>
        <time>2015-03-29T09:54:30Z</time>
      </trkpt>
      <trkpt lat="41.275949" lon="-6.468981">
        <ele>548.616</ele>
        <time>2015-03-29T09:54:36Z</time>
      </trkpt>
      <trkpt lat="41.275822" lon="-6.468854">
        <ele>550.030</ele>
        <time>2015-03-29T09:54:44Z</time>
      </trkpt>
      <trkpt lat="41.275775" lon="-6.468791">
        <ele>551.011</ele>
        <time>2015-03-29T09:54:48Z</time>
      </trkpt>
      <trkpt lat="41.275594" lon="-6.468591">
        <ele>552.497</ele>
        <time>2015-03-29T09:54:59Z</time>
      </trkpt>
      <trkpt lat="41.275462" lon="-6.468366">
        <ele>553.923</ele>
        <time>2015-03-29T09:55:09Z</time>
      </trkpt>
      <trkpt lat="41.275410" lon="-6.468266">
        <ele>554.325</ele>
        <time>2015-03-29T09:55:14Z</time>
      </trkpt>
      <trkpt lat="41.275299" lon="-6.468039">
        <ele>556.307</ele>
        <time>2015-03-29T09:55:24Z</time>
      </trkpt>
      <trkpt lat="41.275156" lon="-6.467813">
        <ele>557.758</ele>
        <time>2015-03-29T09:55:33Z</time>
      </trkpt>
      <trkpt lat="41.274963" lon="-6.467618">
        <ele>559.183</ele>
        <time>2015-03-29T09:55:44Z</time>
      </trkpt>
      <trkpt lat="41.274849" lon="-6.467508">
        <ele>560.698</ele>
        <time>2015-03-29T09:55:52Z</time>
      </trkpt>
      <trkpt lat="41.274818" lon="-6.467434">
        <ele>561.672</ele>
        <time>2015-03-29T09:55:56Z</time>
      </trkpt>
      <trkpt lat="41.274748" lon="-6.467258">
        <ele>563.540</ele>
        <time>2015-03-29T09:56:05Z</time>
      </trkpt>
      <trkpt lat="41.274718" lon="-6.467211">
        <ele>564.434</ele>
        <time>2015-03-29T09:56:08Z</time>
      </trkpt>
      <trkpt lat="41.274704" lon="-6.467184">
        <ele>564.915</ele>
        <time>2015-03-29T09:56:10Z</time>
      </trkpt>
      <trkpt lat="41.274645" lon="-6.467103">
        <ele>566.437</ele>
        <time>2015-03-29T09:56:16Z</time>
      </trkpt>
      <trkpt lat="41.274541" lon="-6.466992">
        <ele>568.849</ele>
        <time>2015-03-29T09:56:25Z</time>
      </trkpt>
      <trkpt lat="41.274488" lon="-6.466860">
        <ele>570.713</ele>
        <time>2015-03-29T09:56:34Z</time>
      </trkpt>
      <trkpt lat="41.274478" lon="-6.466778">
        <ele>571.607</ele>
        <time>2015-03-29T09:56:40Z</time>
      </trkpt>
      <trkpt lat="41.274467" lon="-6.466677">
        <ele>573.192</ele>
        <time>2015-03-29T09:56:48Z</time>
      </trkpt>
      <trkpt lat="41.274468" lon="-6.466609">
        <ele>574.077</ele>
        <time>2015-03-29T09:56:54Z</time>
      </trkpt>
      <trkpt lat="41.274411" lon="-6.466572">
        <ele>575.012</ele>
        <time>2015-03-29T09:57:01Z</time>
      </trkpt>
      <trkpt lat="41.274269" lon="-6.466626">
        <ele>576.526</ele>
        <time>2015-03-29T09:57:11Z</time>
      </trkpt>
      <trkpt lat="41.274209" lon="-6.466643">
        <ele>576.964</ele>
        <time>2015-03-29T09:57:15Z</time>
      </trkpt>
      <trkpt lat="41.274062" lon="-6.466703">
        <ele>578.418</ele>
        <time>2015-03-29T09:57:24Z</time>
      </trkpt>
      <trkpt lat="41.273979" lon="-6.466716">
        <ele>579.319</ele>
        <time>2015-03-29T09:57:29Z</time>
      </trkpt>
      <trkpt lat="41.273933" lon="-6.466720">
        <ele>579.894</ele>
        <time>2015-03-29T09:57:32Z</time>
      </trkpt>
      <trkpt lat="41.273845" lon="-6.466726">
        <ele>580.857</ele>
        <time>2015-03-29T09:57:37Z</time>
      </trkpt>
      <trkpt lat="41.273651" lon="-6.466722">
        <ele>582.722</ele>
        <time>2015-03-29T09:57:48Z</time>
      </trkpt>
      <trkpt lat="41.273622" lon="-6.466710">
        <ele>582.707</ele>
        <time>2015-03-29T09:57:50Z</time>
      </trkpt>
      <trkpt lat="41.273469" lon="-6.466695">
        <ele>584.128</ele>
        <time>2015-03-29T09:57:59Z</time>
      </trkpt>
      <trkpt lat="41.273259" lon="-6.466660">
        <ele>585.113</ele>
        <time>2015-03-29T09:58:09Z</time>
      </trkpt>
      <trkpt lat="41.273222" lon="-6.466652">
        <ele>585.178</ele>
        <time>2015-03-29T09:58:11Z</time>
      </trkpt>
      <trkpt lat="41.273035" lon="-6.466737">
        <ele>586.592</ele>
        <time>2015-03-29T09:58:22Z</time>
      </trkpt>
      <trkpt lat="41.272994" lon="-6.466743">
        <ele>587.050</ele>
        <time>2015-03-29T09:58:24Z</time>
      </trkpt>
      <trkpt lat="41.272887" lon="-6.466824">
        <ele>588.064</ele>
        <time>2015-03-29T09:58:31Z</time>
      </trkpt>
      <trkpt lat="41.272836" lon="-6.466823">
        <ele>588.595</ele>
        <time>2015-03-29T09:58:39Z</time>
      </trkpt>
      <trkpt lat="41.272757" lon="-6.466819">
        <ele>589.447</ele>
        <time>2015-03-29T09:58:44Z</time>
      </trkpt>
      <trkpt lat="41.272532" lon="-6.466860">
        <ele>590.929</ele>
        <time>2015-03-29T09:58:55Z</time>
      </trkpt>
      <trkpt lat="41.272367" lon="-6.466928">
        <ele>592.821</ele>
        <time>2015-03-29T09:59:04Z</time>
      </trkpt>
      <trkpt lat="41.272162" lon="-6.466994">
        <ele>594.207</ele>
        <time>2015-03-29T09:59:14Z</time>
      </trkpt>
      <trkpt lat="41.272011" lon="-6.467039">
        <ele>596.253</ele>
        <time>2015-03-29T09:59:22Z</time>
      </trkpt>
      <trkpt lat="41.271938" lon="-6.467084">
        <ele>597.198</ele>
        <time>2015-03-29T09:59:27Z</time>
      </trkpt>
      <trkpt lat="41.271818" lon="-6.467261">
        <ele>598.643</ele>
        <time>2015-03-29T09:59:37Z</time>
      </trkpt>
      <trkpt lat="41.271658" lon="-6.467388">
        <ele>600.027</ele>
        <time>2015-03-29T09:59:47Z</time>
      </trkpt>
      <trkpt lat="41.271557" lon="-6.467413">
        <ele>597.685</ele>
        <time>2015-03-29T09:59:52Z</time>
      </trkpt>
      <trkpt lat="41.271357" lon="-6.467496">
        <ele>602.499</ele>
        <time>2015-03-29T10:00:02Z</time>
      </trkpt>
      <trkpt lat="41.271192" lon="-6.467579">
        <ele>604.360</ele>
        <time>2015-03-29T10:00:11Z</time>
      </trkpt>
      <trkpt lat="41.271015" lon="-6.467659">
        <ele>604.872</ele>
        <time>2015-03-29T10:00:21Z</time>
      </trkpt>
      <trkpt lat="41.270974" lon="-6.467699">
        <ele>606.313</ele>
        <time>2015-03-29T10:00:23Z</time>
      </trkpt>
      <trkpt lat="41.270852" lon="-6.467825">
        <ele>605.814</ele>
        <time>2015-03-29T10:00:28Z</time>
      </trkpt>
      <trkpt lat="41.270513" lon="-6.467964">
        <ele>602.907</ele>
        <time>2015-03-29T10:00:37Z</time>
      </trkpt>
      <trkpt lat="41.270391" lon="-6.468121">
        <ele>601.926</ele>
        <time>2015-03-29T10:00:41Z</time>
      </trkpt>
      <trkpt lat="41.270410" lon="-6.468325">
        <ele>601.461</ele>
        <time>2015-03-29T10:00:50Z</time>
      </trkpt>
      <trkpt lat="41.270412" lon="-6.468332">
        <ele>604.846</ele>
        <time>2015-03-29T10:00:53Z</time>
      </trkpt>
      <trkpt lat="41.270412" lon="-6.468333">
        <ele>601.020</ele>
        <time>2015-03-29T10:00:54Z</time>
      </trkpt>
      <trkpt lat="41.270412" lon="-6.468337">
        <ele>601.448</ele>
        <time>2015-03-29T10:01:12Z</time>
      </trkpt>
      <trkpt lat="41.270405" lon="-6.468346">
        <ele>601.472</ele>
        <time>2015-03-29T10:01:28Z</time>
      </trkpt>
      <trkpt lat="41.270403" lon="-6.468352">
        <ele>601.463</ele>
        <time>2015-03-29T10:01:43Z</time>
      </trkpt>
      <trkpt lat="41.270405" lon="-6.468356">
        <ele>601.451</ele>
        <time>2015-03-29T10:02:02Z</time>
      </trkpt>
      <trkpt lat="41.270400" lon="-6.468347">
        <ele>601.401</ele>
        <time>2015-03-29T10:02:15Z</time>
      </trkpt>
      <trkpt lat="41.270401" lon="-6.468346">
        <ele>601.911</ele>
        <time>2015-03-29T10:02:37Z</time>
      </trkpt>
      <trkpt lat="41.270405" lon="-6.468349">
        <ele>601.907</ele>
        <time>2015-03-29T10:02:55Z</time>
      </trkpt>
      <trkpt lat="41.270405" lon="-6.468353">
        <ele>601.994</ele>
        <time>2015-03-29T10:03:14Z</time>
      </trkpt>
      <trkpt lat="41.270410" lon="-6.468359">
        <ele>601.919</ele>
        <time>2015-03-29T10:03:32Z</time>
      </trkpt>
      <trkpt lat="41.270413" lon="-6.468358">
        <ele>601.944</ele>
        <time>2015-03-29T10:03:49Z</time>
      </trkpt>
      <trkpt lat="41.270417" lon="-6.468353">
        <ele>601.938</ele>
        <time>2015-03-29T10:04:04Z</time>
      </trkpt>
      <trkpt lat="41.270420" lon="-6.468354">
        <ele>601.996</ele>
        <time>2015-03-29T10:04:24Z</time>
      </trkpt>
      <trkpt lat="41.270417" lon="-6.468354">
        <ele>601.970</ele>
        <time>2015-03-29T10:04:42Z</time>
      </trkpt>
      <trkpt lat="41.270415" lon="-6.468361">
        <ele>601.991</ele>
        <time>2015-03-29T10:05:02Z</time>
      </trkpt>
      <trkpt lat="41.270419" lon="-6.468363">
        <ele>601.946</ele>
        <time>2015-03-29T10:05:21Z</time>
      </trkpt>
      <trkpt lat="41.270422" lon="-6.468354">
        <ele>601.988</ele>
        <time>2015-03-29T10:05:43Z</time>
      </trkpt>
      <trkpt lat="41.270425" lon="-6.468352">
        <ele>601.916</ele>
        <time>2015-03-29T10:06:00Z</time>
      </trkpt>
      <trkpt lat="41.270424" lon="-6.468359">
        <ele>601.907</ele>
        <time>2015-03-29T10:06:18Z</time>
      </trkpt>
      <trkpt lat="41.270423" lon="-6.468362">
        <ele>601.983</ele>
        <time>2015-03-29T10:06:40Z</time>
      </trkpt>
      <trkpt lat="41.270422" lon="-6.468357">
        <ele>602.918</ele>
        <time>2015-03-29T10:07:01Z</time>
      </trkpt>
      <trkpt lat="41.270422" lon="-6.468351">
        <ele>601.993</ele>
        <time>2015-03-29T10:07:21Z</time>
      </trkpt>
      <trkpt lat="41.270425" lon="-6.468345">
        <ele>601.917</ele>
        <time>2015-03-29T10:07:46Z</time>
      </trkpt>
      <trkpt lat="41.270427" lon="-6.468339">
        <ele>601.975</ele>
        <time>2015-03-29T10:08:09Z</time>
      </trkpt>
      <trkpt lat="41.270420" lon="-6.468345">
        <ele>601.939</ele>
        <time>2015-03-29T10:08:28Z</time>
      </trkpt>
      <trkpt lat="41.270414" lon="-6.468353">
        <ele>601.980</ele>
        <time>2015-03-29T10:08:47Z</time>
      </trkpt>
      <trkpt lat="41.270414" lon="-6.468356">
        <ele>601.967</ele>
        <time>2015-03-29T10:09:07Z</time>
      </trkpt>
      <trkpt lat="41.270418" lon="-6.468361">
        <ele>601.981</ele>
        <time>2015-03-29T10:09:24Z</time>
      </trkpt>
      <trkpt lat="41.270422" lon="-6.468364">
        <ele>601.919</ele>
        <time>2015-03-29T10:09:47Z</time>
      </trkpt>
      <trkpt lat="41.270419" lon="-6.468368">
        <ele>602.407</ele>
        <time>2015-03-29T10:10:08Z</time>
      </trkpt>
      <trkpt lat="41.270414" lon="-6.468369">
        <ele>602.455</ele>
        <time>2015-03-29T10:10:32Z</time>
      </trkpt>
      <trkpt lat="41.270413" lon="-6.468360">
        <ele>602.430</ele>
        <time>2015-03-29T10:11:00Z</time>
      </trkpt>
      <trkpt lat="41.270414" lon="-6.468346">
        <ele>602.915</ele>
        <time>2015-03-29T10:11:28Z</time>
      </trkpt>
      <trkpt lat="41.270406" lon="-6.468340">
        <ele>602.999</ele>
        <time>2015-03-29T10:11:56Z</time>
      </trkpt>
      <trkpt lat="41.270403" lon="-6.468344">
        <ele>603.477</ele>
        <time>2015-03-29T10:12:13Z</time>
      </trkpt>
      <trkpt lat="41.270358" lon="-6.468286">
        <ele>602.971</ele>
        <time>2015-03-29T10:12:20Z</time>
      </trkpt>
      <trkpt lat="41.270349" lon="-6.468271">
        <ele>603.422</ele>
        <time>2015-03-29T10:12:21Z</time>
      </trkpt>
      <trkpt lat="41.270303" lon="-6.468167">
        <ele>603.461</ele>
        <time>2015-03-29T10:12:28Z</time>
      </trkpt>
      <trkpt lat="41.270219" lon="-6.468178">
        <ele>603.921</ele>
        <time>2015-03-29T10:12:35Z</time>
      </trkpt>
      <trkpt lat="41.270036" lon="-6.468255">
        <ele>604.313</ele>
        <time>2015-03-29T10:12:46Z</time>
      </trkpt>
      <trkpt lat="41.269942" lon="-6.468331">
        <ele>604.307</ele>
        <time>2015-03-29T10:12:52Z</time>
      </trkpt>
      <trkpt lat="41.269848" lon="-6.468336">
        <ele>604.855</ele>
        <time>2015-03-29T10:12:58Z</time>
      </trkpt>
      <trkpt lat="41.269683" lon="-6.468286">
        <ele>606.730</ele>
        <time>2015-03-29T10:13:09Z</time>
      </trkpt>
      <trkpt lat="41.269532" lon="-6.468169">
        <ele>607.785</ele>
        <time>2015-03-29T10:13:19Z</time>
      </trkpt>
      <trkpt lat="41.269372" lon="-6.468037">
        <ele>609.159</ele>
        <time>2015-03-29T10:13:29Z</time>
      </trkpt>
      <trkpt lat="41.269231" lon="-6.468042">
        <ele>609.177</ele>
        <time>2015-03-29T10:13:37Z</time>
      </trkpt>
      <trkpt lat="41.269060" lon="-6.468051">
        <ele>611.581</ele>
        <time>2015-03-29T10:13:46Z</time>
      </trkpt>
      <trkpt lat="41.268846" lon="-6.468135">
        <ele>613.512</ele>
        <time>2015-03-29T10:13:56Z</time>
      </trkpt>
      <trkpt lat="41.268612" lon="-6.468215">
        <ele>615.445</ele>
        <time>2015-03-29T10:14:07Z</time>
      </trkpt>
      <trkpt lat="41.268423" lon="-6.468263">
        <ele>616.347</ele>
        <time>2015-03-29T10:14:16Z</time>
      </trkpt>
      <trkpt lat="41.268223" lon="-6.468378">
        <ele>618.311</ele>
        <time>2015-03-29T10:14:27Z</time>
      </trkpt>
      <trkpt lat="41.267997" lon="-6.468569">
        <ele>615.407</ele>
        <time>2015-03-29T10:14:40Z</time>
      </trkpt>
      <trkpt lat="41.267987" lon="-6.468593">
        <ele>622.123</ele>
        <time>2015-03-29T10:14:41Z</time>
      </trkpt>
      <trkpt lat="41.267906" lon="-6.468732">
        <ele>619.288</ele>
        <time>2015-03-29T10:14:47Z</time>
      </trkpt>
      <trkpt lat="41.267888" lon="-6.469016">
        <ele>616.813</ele>
        <time>2015-03-29T10:14:53Z</time>
      </trkpt>
      <trkpt lat="41.267890" lon="-6.469260">
        <ele>614.427</ele>
        <time>2015-03-29T10:15:00Z</time>
      </trkpt>
      <trkpt lat="41.267874" lon="-6.469290">
        <ele>614.415</ele>
        <time>2015-03-29T10:15:01Z</time>
      </trkpt>
      <trkpt lat="41.267679" lon="-6.469338">
        <ele>615.929</ele>
        <time>2015-03-29T10:15:10Z</time>
      </trkpt>
      <trkpt lat="41.267475" lon="-6.469267">
        <ele>616.840</ele>
        <time>2015-03-29T10:15:19Z</time>
      </trkpt>
      <trkpt lat="41.267256" lon="-6.469122">
        <ele>618.372</ele>
        <time>2015-03-29T10:15:30Z</time>
      </trkpt>
      <trkpt lat="41.267217" lon="-6.469095">
        <ele>617.813</ele>
        <time>2015-03-29T10:15:33Z</time>
      </trkpt>
      <trkpt lat="41.267268" lon="-6.469117">
        <ele>618.314</ele>
        <time>2015-03-29T10:15:40Z</time>
      </trkpt>
      <trkpt lat="41.267408" lon="-6.469213">
        <ele>616.807</ele>
        <time>2015-03-29T10:15:44Z</time>
      </trkpt>
      <trkpt lat="41.267529" lon="-6.469286">
        <ele>616.356</ele>
        <time>2015-03-29T10:15:47Z</time>
      </trkpt>
      <trkpt lat="41.267744" lon="-6.469313">
        <ele>615.471</ele>
        <time>2015-03-29T10:15:51Z</time>
      </trkpt>
      <trkpt lat="41.267914" lon="-6.469275">
        <ele>614.496</ele>
        <time>2015-03-29T10:15:54Z</time>
      </trkpt>
      <trkpt lat="41.268163" lon="-6.469381">
        <ele>611.130</ele>
        <time>2015-03-29T10:15:59Z</time>
      </trkpt>
      <trkpt lat="41.268238" lon="-6.469484">
        <ele>609.638</ele>
        <time>2015-03-29T10:16:02Z</time>
      </trkpt>
      <trkpt lat="41.268161" lon="-6.469653">
        <ele>609.152</ele>
        <time>2015-03-29T10:16:09Z</time>
      </trkpt>
      <trkpt lat="41.268122" lon="-6.469689">
        <ele>609.143</ele>
        <time>2015-03-29T10:16:11Z</time>
      </trkpt>
      <trkpt lat="41.268027" lon="-6.469831">
        <ele>609.634</ele>
        <time>2015-03-29T10:16:18Z</time>
      </trkpt>
      <trkpt lat="41.268035" lon="-6.469942">
        <ele>610.155</ele>
        <time>2015-03-29T10:16:23Z</time>
      </trkpt>
      <trkpt lat="41.268077" lon="-6.470055">
        <ele>610.610</ele>
        <time>2015-03-29T10:16:28Z</time>
      </trkpt>
      <trkpt lat="41.268123" lon="-6.470173">
        <ele>611.107</ele>
        <time>2015-03-29T10:16:34Z</time>
      </trkpt>
      <trkpt lat="41.268172" lon="-6.470337">
        <ele>612.532</ele>
        <time>2015-03-29T10:16:41Z</time>
      </trkpt>
      <trkpt lat="41.268179" lon="-6.470386">
        <ele>612.527</ele>
        <time>2015-03-29T10:16:43Z</time>
      </trkpt>
      <trkpt lat="41.268184" lon="-6.470460">
        <ele>613.982</ele>
        <time>2015-03-29T10:16:52Z</time>
      </trkpt>
      <trkpt lat="41.268162" lon="-6.470537">
        <ele>614.416</ele>
        <time>2015-03-29T10:17:01Z</time>
      </trkpt>
      <trkpt lat="41.268120" lon="-6.470596">
        <ele>616.394</ele>
        <time>2015-03-29T10:17:06Z</time>
      </trkpt>
      <trkpt lat="41.268046" lon="-6.470739">
        <ele>616.878</ele>
        <time>2015-03-29T10:17:15Z</time>
      </trkpt>
      <trkpt lat="41.267963" lon="-6.470811">
        <ele>618.349</ele>
        <time>2015-03-29T10:17:21Z</time>
      </trkpt>
      <trkpt lat="41.267918" lon="-6.470934">
        <ele>618.819</ele>
        <time>2015-03-29T10:17:28Z</time>
      </trkpt>
      <trkpt lat="41.267884" lon="-6.470991">
        <ele>622.609</ele>
        <time>2015-03-29T10:17:31Z</time>
      </trkpt>
      <trkpt lat="41.267870" lon="-6.471011">
        <ele>619.219</ele>
        <time>2015-03-29T10:17:32Z</time>
      </trkpt>
      <trkpt lat="41.267828" lon="-6.471066">
        <ele>619.707</ele>
        <time>2015-03-29T10:17:40Z</time>
      </trkpt>
      <trkpt lat="41.267809" lon="-6.471086">
        <ele>619.760</ele>
        <time>2015-03-29T10:17:43Z</time>
      </trkpt>
      <trkpt lat="41.267751" lon="-6.471218">
        <ele>620.265</ele>
        <time>2015-03-29T10:17:49Z</time>
      </trkpt>
      <trkpt lat="41.267694" lon="-6.471355">
        <ele>620.780</ele>
        <time>2015-03-29T10:17:58Z</time>
      </trkpt>
      <trkpt lat="41.267695" lon="-6.471354">
        <ele>621.254</ele>
        <time>2015-03-29T10:18:02Z</time>
      </trkpt>
      <trkpt lat="41.267585" lon="-6.471458">
        <ele>621.652</ele>
        <time>2015-03-29T10:18:10Z</time>
      </trkpt>
      <trkpt lat="41.267378" lon="-6.471547">
        <ele>623.616</ele>
        <time>2015-03-29T10:18:22Z</time>
      </trkpt>
      <trkpt lat="41.267166" lon="-6.471682">
        <ele>626.067</ele>
        <time>2015-03-29T10:18:34Z</time>
      </trkpt>
      <trkpt lat="41.267125" lon="-6.471712">
        <ele>626.422</ele>
        <time>2015-03-29T10:18:37Z</time>
      </trkpt>
      <trkpt lat="41.267032" lon="-6.471899">
        <ele>628.462</ele>
        <time>2015-03-29T10:18:47Z</time>
      </trkpt>
      <trkpt lat="41.266999" lon="-6.471978">
        <ele>628.808</ele>
        <time>2015-03-29T10:18:52Z</time>
      </trkpt>
      <trkpt lat="41.266913" lon="-6.472218">
        <ele>628.807</ele>
        <time>2015-03-29T10:19:02Z</time>
      </trkpt>
      <trkpt lat="41.266910" lon="-6.472541">
        <ele>631.241</ele>
        <time>2015-03-29T10:19:12Z</time>
      </trkpt>
      <trkpt lat="41.266777" lon="-6.472843">
        <ele>633.256</ele>
        <time>2015-03-29T10:19:24Z</time>
      </trkpt>
      <trkpt lat="41.266647" lon="-6.473169">
        <ele>633.791</ele>
        <time>2015-03-29T10:19:35Z</time>
      </trkpt>
      <trkpt lat="41.266533" lon="-6.473434">
        <ele>634.115</ele>
        <time>2015-03-29T10:19:43Z</time>
      </trkpt>
      <trkpt lat="41.266335" lon="-6.473786">
        <ele>636.173</ele>
        <time>2015-03-29T10:19:55Z</time>
      </trkpt>
      <trkpt lat="41.266093" lon="-6.474072">
        <ele>637.587</ele>
        <time>2015-03-29T10:20:07Z</time>
      </trkpt>
      <trkpt lat="41.265950" lon="-6.474241">
        <ele>640.948</ele>
        <time>2015-03-29T10:20:14Z</time>
      </trkpt>
      <trkpt lat="41.265905" lon="-6.474304">
        <ele>637.547</ele>
        <time>2015-03-29T10:20:16Z</time>
      </trkpt>
      <trkpt lat="41.265648" lon="-6.474576">
        <ele>637.029</ele>
        <time>2015-03-29T10:20:25Z</time>
      </trkpt>
      <trkpt lat="41.265405" lon="-6.474712">
        <ele>634.121</ele>
        <time>2015-03-29T10:20:33Z</time>
      </trkpt>
      <trkpt lat="41.265197" lon="-6.474825">
        <ele>631.707</ele>
        <time>2015-03-29T10:20:40Z</time>
      </trkpt>
      <trkpt lat="41.265118" lon="-6.475097">
        <ele>629.843</ele>
        <time>2015-03-29T10:20:45Z</time>
      </trkpt>
      <trkpt lat="41.264960" lon="-6.476037">
        <ele>626.478</ele>
        <time>2015-03-29T10:20:57Z</time>
      </trkpt>
      <trkpt lat="41.264915" lon="-6.476306">
        <ele>625.523</ele>
        <time>2015-03-29T10:21:00Z</time>
      </trkpt>
      <trkpt lat="41.264788" lon="-6.477145">
        <ele>622.167</ele>
        <time>2015-03-29T10:21:09Z</time>
      </trkpt>
      <trkpt lat="41.264775" lon="-6.477239">
        <ele>621.665</ele>
        <time>2015-03-29T10:21:10Z</time>
      </trkpt>
      <trkpt lat="41.264653" lon="-6.477874">
        <ele>620.729</ele>
        <time>2015-03-29T10:21:17Z</time>
      </trkpt>
      <trkpt lat="41.264477" lon="-6.478482">
        <ele>618.810</ele>
        <time>2015-03-29T10:21:24Z</time>
      </trkpt>
      <trkpt lat="41.264354" lon="-6.478922">
        <ele>618.843</ele>
        <time>2015-03-29T10:21:30Z</time>
      </trkpt>
      <trkpt lat="41.264260" lon="-6.479245">
        <ele>618.364</ele>
        <time>2015-03-29T10:21:35Z</time>
      </trkpt>
      <trkpt lat="41.264223" lon="-6.479356">
        <ele>617.810</ele>
        <time>2015-03-29T10:21:37Z</time>
      </trkpt>
      <trkpt lat="41.264195" lon="-6.479474">
        <ele>617.307</ele>
        <time>2015-03-29T10:21:39Z</time>
      </trkpt>
      <trkpt lat="41.264158" lon="-6.479593">
        <ele>617.863</ele>
        <time>2015-03-29T10:21:41Z</time>
      </trkpt>
      <trkpt lat="41.264038" lon="-6.479988">
        <ele>617.328</ele>
        <time>2015-03-29T10:21:47Z</time>
      </trkpt>
      <trkpt lat="41.263776" lon="-6.480916">
        <ele>616.873</ele>
        <time>2015-03-29T10:22:00Z</time>
      </trkpt>
      <trkpt lat="41.263712" lon="-6.481197">
        <ele>616.377</ele>
        <time>2015-03-29T10:22:04Z</time>
      </trkpt>
      <trkpt lat="41.263543" lon="-6.482051">
        <ele>615.495</ele>
        <time>2015-03-29T10:22:16Z</time>
      </trkpt>
      <trkpt lat="41.263468" lon="-6.482421">
        <ele>614.439</ele>
        <time>2015-03-29T10:22:21Z</time>
      </trkpt>
      <trkpt lat="41.263308" lon="-6.483248">
        <ele>614.940</ele>
        <time>2015-03-29T10:22:33Z</time>
      </trkpt>
      <trkpt lat="41.263182" lon="-6.483893">
        <ele>615.448</ele>
        <time>2015-03-29T10:22:43Z</time>
      </trkpt>
      <trkpt lat="41.263182" lon="-6.484093">
        <ele>615.461</ele>
        <time>2015-03-29T10:22:46Z</time>
      </trkpt>
      <trkpt lat="41.263241" lon="-6.484343">
        <ele>615.417</ele>
        <time>2015-03-29T10:22:50Z</time>
      </trkpt>
      <trkpt lat="41.263390" lon="-6.484663">
        <ele>615.407</ele>
        <time>2015-03-29T10:22:56Z</time>
      </trkpt>
      <trkpt lat="41.263409" lon="-6.485160">
        <ele>615.953</ele>
        <time>2015-03-29T10:23:04Z</time>
      </trkpt>
      <trkpt lat="41.263134" lon="-6.485881">
        <ele>616.378</ele>
        <time>2015-03-29T10:23:17Z</time>
      </trkpt>
      <trkpt lat="41.262811" lon="-6.486722">
        <ele>616.323</ele>
        <time>2015-03-29T10:23:32Z</time>
      </trkpt>
      <trkpt lat="41.262669" lon="-6.487115">
        <ele>615.987</ele>
        <time>2015-03-29T10:23:39Z</time>
      </trkpt>
      <trkpt lat="41.262420" lon="-6.487759">
        <ele>616.895</ele>
        <time>2015-03-29T10:23:51Z</time>
      </trkpt>
      <trkpt lat="41.262109" lon="-6.488573">
        <ele>616.899</ele>
        <time>2015-03-29T10:24:06Z</time>
      </trkpt>
      <trkpt lat="41.261861" lon="-6.489248">
        <ele>616.820</ele>
        <time>2015-03-29T10:24:18Z</time>
      </trkpt>
      <trkpt lat="41.261787" lon="-6.489860">
        <ele>617.398</ele>
        <time>2015-03-29T10:24:28Z</time>
      </trkpt>
      <trkpt lat="41.261797" lon="-6.489984">
        <ele>617.815</ele>
        <time>2015-03-29T10:24:30Z</time>
      </trkpt>
      <trkpt lat="41.261857" lon="-6.490528">
        <ele>617.826</ele>
        <time>2015-03-29T10:24:39Z</time>
      </trkpt>
      <trkpt lat="41.261922" lon="-6.491275">
        <ele>614.907</ele>
        <time>2015-03-29T10:24:50Z</time>
      </trkpt>
      <trkpt lat="41.261918" lon="-6.491425">
        <ele>614.468</ele>
        <time>2015-03-29T10:24:52Z</time>
      </trkpt>
      <trkpt lat="41.261836" lon="-6.491806">
        <ele>613.093</ele>
        <time>2015-03-29T10:24:57Z</time>
      </trkpt>
      <trkpt lat="41.261520" lon="-6.492448">
        <ele>610.118</ele>
        <time>2015-03-29T10:25:06Z</time>
      </trkpt>
      <trkpt lat="41.261109" lon="-6.493289">
        <ele>606.732</ele>
        <time>2015-03-29T10:25:17Z</time>
      </trkpt>
      <trkpt lat="41.261005" lon="-6.493536">
        <ele>604.880</ele>
        <time>2015-03-29T10:25:20Z</time>
      </trkpt>
      <trkpt lat="41.261088" lon="-6.494026">
        <ele>602.464</ele>
        <time>2015-03-29T10:25:26Z</time>
      </trkpt>
      <trkpt lat="41.261194" lon="-6.494147">
        <ele>601.945</ele>
        <time>2015-03-29T10:25:28Z</time>
      </trkpt>
      <trkpt lat="41.261290" lon="-6.494271">
        <ele>601.037</ele>
        <time>2015-03-29T10:25:30Z</time>
      </trkpt>
      <trkpt lat="41.261380" lon="-6.494487">
        <ele>599.549</ele>
        <time>2015-03-29T10:25:33Z</time>
      </trkpt>
      <trkpt lat="41.261387" lon="-6.494732">
        <ele>598.613</ele>
        <time>2015-03-29T10:25:36Z</time>
      </trkpt>
      <trkpt lat="41.261329" lon="-6.495082">
        <ele>596.207</ele>
        <time>2015-03-29T10:25:40Z</time>
      </trkpt>
      <trkpt lat="41.261197" lon="-6.495774">
        <ele>592.312</ele>
        <time>2015-03-29T10:25:47Z</time>
      </trkpt>
      <trkpt lat="41.261107" lon="-6.496290">
        <ele>589.497</ele>
        <time>2015-03-29T10:25:52Z</time>
      </trkpt>
      <trkpt lat="41.260946" lon="-6.497115">
        <ele>586.152</ele>
        <time>2015-03-29T10:26:00Z</time>
      </trkpt>
      <trkpt lat="41.260916" lon="-6.497301">
        <ele>585.126</ele>
        <time>2015-03-29T10:26:02Z</time>
      </trkpt>
      <trkpt lat="41.260912" lon="-6.497551">
        <ele>583.714</ele>
        <time>2015-03-29T10:26:05Z</time>
      </trkpt>
      <trkpt lat="41.260950" lon="-6.497699">
        <ele>582.768</ele>
        <time>2015-03-29T10:26:07Z</time>
      </trkpt>
      <trkpt lat="41.261071" lon="-6.498053">
        <ele>581.379</ele>
        <time>2015-03-29T10:26:12Z</time>
      </trkpt>
      <trkpt lat="41.261079" lon="-6.498510">
        <ele>578.426</ele>
        <time>2015-03-29T10:26:20Z</time>
      </trkpt>
      <trkpt lat="41.261047" lon="-6.498780">
        <ele>576.947</ele>
        <time>2015-03-29T10:26:24Z</time>
      </trkpt>
      <trkpt lat="41.261009" lon="-6.499178">
        <ele>574.011</ele>
        <time>2015-03-29T10:26:30Z</time>
      </trkpt>
      <trkpt lat="41.260903" lon="-6.499706">
        <ele>571.607</ele>
        <time>2015-03-29T10:26:40Z</time>
      </trkpt>
      <trkpt lat="41.260715" lon="-6.500256">
        <ele>568.371</ele>
        <time>2015-03-29T10:26:48Z</time>
      </trkpt>
      <trkpt lat="41.260561" lon="-6.500716">
        <ele>565.416</ele>
        <time>2015-03-29T10:26:54Z</time>
      </trkpt>
      <trkpt lat="41.260439" lon="-6.501018">
        <ele>563.511</ele>
        <time>2015-03-29T10:26:58Z</time>
      </trkpt>
      <trkpt lat="41.260266" lon="-6.501276">
        <ele>562.045</ele>
        <time>2015-03-29T10:27:02Z</time>
      </trkpt>
      <trkpt lat="41.260058" lon="-6.501465">
        <ele>560.183</ele>
        <time>2015-03-29T10:27:06Z</time>
      </trkpt>
      <trkpt lat="41.259789" lon="-6.501669">
        <ele>557.247</ele>
        <time>2015-03-29T10:27:11Z</time>
      </trkpt>
      <trkpt lat="41.259477" lon="-6.501916">
        <ele>555.348</ele>
        <time>2015-03-29T10:27:17Z</time>
      </trkpt>
      <trkpt lat="41.259326" lon="-6.502195">
        <ele>553.484</ele>
        <time>2015-03-29T10:27:21Z</time>
      </trkpt>
      <trkpt lat="41.259179" lon="-6.502751">
        <ele>551.907</ele>
        <time>2015-03-29T10:27:28Z</time>
      </trkpt>
      <trkpt lat="41.258890" lon="-6.503276">
        <ele>550.017</ele>
        <time>2015-03-29T10:27:36Z</time>
      </trkpt>
      <trkpt lat="41.258446" lon="-6.503669">
        <ele>547.607</ele>
        <time>2015-03-29T10:27:45Z</time>
      </trkpt>
      <trkpt lat="41.258140" lon="-6.503861">
        <ele>545.727</ele>
        <time>2015-03-29T10:27:51Z</time>
      </trkpt>
      <trkpt lat="41.257803" lon="-6.503881">
        <ele>543.832</ele>
        <time>2015-03-29T10:27:57Z</time>
      </trkpt>
      <trkpt lat="41.257084" lon="-6.503535">
        <ele>541.447</ele>
        <time>2015-03-29T10:28:10Z</time>
      </trkpt>
      <trkpt lat="41.256810" lon="-6.503691">
        <ele>539.451</ele>
        <time>2015-03-29T10:28:15Z</time>
      </trkpt>
      <trkpt lat="41.256753" lon="-6.503846">
        <ele>539.449</ele>
        <time>2015-03-29T10:28:17Z</time>
      </trkpt>
      <trkpt lat="41.256491" lon="-6.504816">
        <ele>536.143</ele>
        <time>2015-03-29T10:28:28Z</time>
      </trkpt>
      <trkpt lat="41.256450" lon="-6.505434">
        <ele>533.744</ele>
        <time>2015-03-29T10:28:35Z</time>
      </trkpt>
      <trkpt lat="41.256224" lon="-6.505852">
        <ele>532.223</ele>
        <time>2015-03-29T10:28:42Z</time>
      </trkpt>
      <trkpt lat="41.256058" lon="-6.505895">
        <ele>531.883</ele>
        <time>2015-03-29T10:28:45Z</time>
      </trkpt>
      <trkpt lat="41.255836" lon="-6.505911">
        <ele>530.811</ele>
        <time>2015-03-29T10:28:49Z</time>
      </trkpt>
      <trkpt lat="41.255563" lon="-6.506181">
        <ele>529.307</ele>
        <time>2015-03-29T10:28:55Z</time>
      </trkpt>
      <trkpt lat="41.255436" lon="-6.506465">
        <ele>528.491</ele>
        <time>2015-03-29T10:28:59Z</time>
      </trkpt>
      <trkpt lat="41.255306" lon="-6.506645">
        <ele>527.446</ele>
        <time>2015-03-29T10:29:02Z</time>
      </trkpt>
      <trkpt lat="41.254874" lon="-6.506881">
        <ele>525.051</ele>
        <time>2015-03-29T10:29:09Z</time>
      </trkpt>
      <trkpt lat="41.254533" lon="-6.507251">
        <ele>524.555</ele>
        <time>2015-03-29T10:29:16Z</time>
      </trkpt>
      <trkpt lat="41.254154" lon="-6.508001">
        <ele>523.633</ele>
        <time>2015-03-29T10:29:29Z</time>
      </trkpt>
      <trkpt lat="41.253769" lon="-6.508575">
        <ele>522.127</ele>
        <time>2015-03-29T10:29:41Z</time>
      </trkpt>
      <trkpt lat="41.253647" lon="-6.508692">
        <ele>521.298</ele>
        <time>2015-03-29T10:29:44Z</time>
      </trkpt>
      <trkpt lat="41.253328" lon="-6.508947">
        <ele>517.331</ele>
        <time>2015-03-29T10:29:50Z</time>
      </trkpt>
      <trkpt lat="41.253276" lon="-6.508997">
        <ele>516.961</ele>
        <time>2015-03-29T10:29:51Z</time>
      </trkpt>
      <trkpt lat="41.253133" lon="-6.509397">
        <ele>514.907</ele>
        <time>2015-03-29T10:29:57Z</time>
      </trkpt>
      <trkpt lat="41.253163" lon="-6.509517">
        <ele>514.407</ele>
        <time>2015-03-29T10:30:02Z</time>
      </trkpt>
      <trkpt lat="41.253168" lon="-6.509548">
        <ele>514.422</ele>
        <time>2015-03-29T10:30:13Z</time>
      </trkpt>
      <trkpt lat="41.253158" lon="-6.509551">
        <ele>514.427</ele>
        <time>2015-03-29T10:30:28Z</time>
      </trkpt>
      <trkpt lat="41.253120" lon="-6.509560">
        <ele>515.942</ele>
        <time>2015-03-29T10:30:41Z</time>
      </trkpt>
      <trkpt lat="41.253118" lon="-6.509535">
        <ele>516.466</ele>
        <time>2015-03-29T10:30:50Z</time>
      </trkpt>
      <trkpt lat="41.253121" lon="-6.509520">
        <ele>516.454</ele>
        <time>2015-03-29T10:31:03Z</time>
      </trkpt>
      <trkpt lat="41.253085" lon="-6.509461">
        <ele>517.898</ele>
        <time>2015-03-29T10:31:14Z</time>
      </trkpt>
      <trkpt lat="41.253075" lon="-6.509456">
        <ele>518.329</ele>
        <time>2015-03-29T10:31:25Z</time>
      </trkpt>
      <trkpt lat="41.253064" lon="-6.509451">
        <ele>519.336</ele>
        <time>2015-03-29T10:31:37Z</time>
      </trkpt>
      <trkpt lat="41.253029" lon="-6.509446">
        <ele>520.717</ele>
        <time>2015-03-29T10:31:47Z</time>
      </trkpt>
      <trkpt lat="41.253015" lon="-6.509456">
        <ele>521.218</ele>
        <time>2015-03-29T10:31:57Z</time>
      </trkpt>
      <trkpt lat="41.252961" lon="-6.509473">
        <ele>522.107</ele>
        <time>2015-03-29T10:32:07Z</time>
      </trkpt>
      <trkpt lat="41.252952" lon="-6.509477">
        <ele>522.122</ele>
        <time>2015-03-29T10:32:08Z</time>
      </trkpt>
      <trkpt lat="41.252861" lon="-6.509614">
        <ele>523.187</ele>
        <time>2015-03-29T10:32:18Z</time>
      </trkpt>
      <trkpt lat="41.252853" lon="-6.509630">
        <ele>523.112</ele>
        <time>2015-03-29T10:32:19Z</time>
      </trkpt>
      <trkpt lat="41.252831" lon="-6.509819">
        <ele>521.796</ele>
        <time>2015-03-29T10:32:26Z</time>
      </trkpt>
      <trkpt lat="41.252836" lon="-6.509856">
        <ele>521.264</ele>
        <time>2015-03-29T10:32:27Z</time>
      </trkpt>
      <trkpt lat="41.252764" lon="-6.510025">
        <ele>522.688</ele>
        <time>2015-03-29T10:32:35Z</time>
      </trkpt>
      <trkpt lat="41.252738" lon="-6.510067">
        <ele>523.129</ele>
        <time>2015-03-29T10:32:38Z</time>
      </trkpt>
      <trkpt lat="41.252689" lon="-6.510107">
        <ele>523.677</ele>
        <time>2015-03-29T10:32:48Z</time>
      </trkpt>
      <trkpt lat="41.252670" lon="-6.510133">
        <ele>523.661</ele>
        <time>2015-03-29T10:33:00Z</time>
      </trkpt>
      <trkpt lat="41.252651" lon="-6.510149">
        <ele>524.127</ele>
        <time>2015-03-29T10:33:18Z</time>
      </trkpt>
      <trkpt lat="41.252643" lon="-6.510155">
        <ele>524.107</ele>
        <time>2015-03-29T10:33:19Z</time>
      </trkpt>
      <trkpt lat="41.252587" lon="-6.510200">
        <ele>525.036</ele>
        <time>2015-03-29T10:33:27Z</time>
      </trkpt>
      <trkpt lat="41.252564" lon="-6.510181">
        <ele>525.541</ele>
        <time>2015-03-29T10:33:38Z</time>
      </trkpt>
      <trkpt lat="41.252547" lon="-6.510173">
        <ele>526.096</ele>
        <time>2015-03-29T10:33:47Z</time>
      </trkpt>
      <trkpt lat="41.252543" lon="-6.510153">
        <ele>526.580</ele>
        <time>2015-03-29T10:33:49Z</time>
      </trkpt>
      <trkpt lat="41.252551" lon="-6.510060">
        <ele>527.998</ele>
        <time>2015-03-29T10:33:59Z</time>
      </trkpt>
      <trkpt lat="41.252539" lon="-6.510039">
        <ele>528.432</ele>
        <time>2015-03-29T10:34:08Z</time>
      </trkpt>
      <trkpt lat="41.252525" lon="-6.509993">
        <ele>529.363</ele>
        <time>2015-03-29T10:34:17Z</time>
      </trkpt>
      <trkpt lat="41.252486" lon="-6.509981">
        <ele>530.366</ele>
        <time>2015-03-29T10:34:25Z</time>
      </trkpt>
      <trkpt lat="41.252482" lon="-6.509982">
        <ele>530.829</ele>
        <time>2015-03-29T10:34:36Z</time>
      </trkpt>
      <trkpt lat="41.252463" lon="-6.509986">
        <ele>531.821</ele>
        <time>2015-03-29T10:34:48Z</time>
      </trkpt>
      <trkpt lat="41.252428" lon="-6.510012">
        <ele>532.207</ele>
        <time>2015-03-29T10:34:57Z</time>
      </trkpt>
      <trkpt lat="41.252370" lon="-6.510038">
        <ele>533.235</ele>
        <time>2015-03-29T10:35:07Z</time>
      </trkpt>
      <trkpt lat="41.252338" lon="-6.510042">
        <ele>533.780</ele>
        <time>2015-03-29T10:35:16Z</time>
      </trkpt>
      <trkpt lat="41.252298" lon="-6.510086">
        <ele>535.695</ele>
        <time>2015-03-29T10:35:27Z</time>
      </trkpt>
      <trkpt lat="41.252297" lon="-6.510085">
        <ele>535.619</ele>
        <time>2015-03-29T10:35:46Z</time>
      </trkpt>
      <trkpt lat="41.252294" lon="-6.510095">
        <ele>535.647</ele>
        <time>2015-03-29T10:36:01Z</time>
      </trkpt>
      <trkpt lat="41.252258" lon="-6.510136">
        <ele>536.671</ele>
        <time>2015-03-29T10:36:06Z</time>
      </trkpt>
      <trkpt lat="41.252214" lon="-6.510149">
        <ele>537.542</ele>
        <time>2015-03-29T10:36:15Z</time>
      </trkpt>
      <trkpt lat="41.252187" lon="-6.510175">
        <ele>538.034</ele>
        <time>2015-03-29T10:36:25Z</time>
      </trkpt>
      <trkpt lat="41.252180" lon="-6.510181">
        <ele>538.055</ele>
        <time>2015-03-29T10:36:26Z</time>
      </trkpt>
      <trkpt lat="41.252128" lon="-6.510231">
        <ele>539.010</ele>
        <time>2015-03-29T10:36:34Z</time>
      </trkpt>
      <trkpt lat="41.252052" lon="-6.510269">
        <ele>540.407</ele>
        <time>2015-03-29T10:36:43Z</time>
      </trkpt>
      <trkpt lat="41.252001" lon="-6.510294">
        <ele>540.942</ele>
        <time>2015-03-29T10:36:51Z</time>
      </trkpt>
      <trkpt lat="41.251929" lon="-6.510353">
        <ele>542.367</ele>
        <time>2015-03-29T10:37:00Z</time>
      </trkpt>
      <trkpt lat="41.251861" lon="-6.510394">
        <ele>543.332</ele>
        <time>2015-03-29T10:37:09Z</time>
      </trkpt>
      <trkpt lat="41.251801" lon="-6.510442">
        <ele>544.236</ele>
        <time>2015-03-29T10:37:18Z</time>
      </trkpt>
      <trkpt lat="41.251740" lon="-6.510413">
        <ele>545.794</ele>
        <time>2015-03-29T10:37:29Z</time>
      </trkpt>
      <trkpt lat="41.251717" lon="-6.510349">
        <ele>546.718</ele>
        <time>2015-03-29T10:37:38Z</time>
      </trkpt>
      <trkpt lat="41.251726" lon="-6.510306">
        <ele>547.199</ele>
        <time>2015-03-29T10:37:47Z</time>
      </trkpt>
      <trkpt lat="41.251682" lon="-6.510235">
        <ele>548.651</ele>
        <time>2015-03-29T10:37:57Z</time>
      </trkpt>
      <trkpt lat="41.251637" lon="-6.510244">
        <ele>550.001</ele>
        <time>2015-03-29T10:38:07Z</time>
      </trkpt>
      <trkpt lat="41.251603" lon="-6.510281">
        <ele>551.011</ele>
        <time>2015-03-29T10:38:15Z</time>
      </trkpt>
      <trkpt lat="41.251539" lon="-6.510351">
        <ele>551.507</ele>
        <time>2015-03-29T10:38:28Z</time>
      </trkpt>
      <trkpt lat="41.251498" lon="-6.510393">
        <ele>552.414</ele>
        <time>2015-03-29T10:38:40Z</time>
      </trkpt>
      <trkpt lat="41.251471" lon="-6.510398">
        <ele>552.979</ele>
        <time>2015-03-29T10:38:53Z</time>
      </trkpt>
      <trkpt lat="41.251468" lon="-6.510401">
        <ele>552.914</ele>
        <time>2015-03-29T10:38:54Z</time>
      </trkpt>
      <trkpt lat="41.251404" lon="-6.510455">
        <ele>552.948</ele>
        <time>2015-03-29T10:39:00Z</time>
      </trkpt>
      <trkpt lat="41.251345" lon="-6.510498">
        <ele>553.966</ele>
        <time>2015-03-29T10:39:05Z</time>
      </trkpt>
      <trkpt lat="41.251241" lon="-6.510601">
        <ele>554.310</ele>
        <time>2015-03-29T10:39:14Z</time>
      </trkpt>
      <trkpt lat="41.251192" lon="-6.510655">
        <ele>554.831</ele>
        <time>2015-03-29T10:39:22Z</time>
      </trkpt>
      <trkpt lat="41.251139" lon="-6.510714">
        <ele>555.865</ele>
        <time>2015-03-29T10:39:28Z</time>
      </trkpt>
      <trkpt lat="41.251011" lon="-6.510874">
        <ele>557.768</ele>
        <time>2015-03-29T10:39:40Z</time>
      </trkpt>
      <trkpt lat="41.250929" lon="-6.510941">
        <ele>558.714</ele>
        <time>2015-03-29T10:39:45Z</time>
      </trkpt>
      <trkpt lat="41.250810" lon="-6.511060">
        <ele>560.107</ele>
        <time>2015-03-29T10:39:54Z</time>
      </trkpt>
      <trkpt lat="41.250643" lon="-6.511215">
        <ele>561.135</ele>
        <time>2015-03-29T10:40:05Z</time>
      </trkpt>
      <trkpt lat="41.250506" lon="-6.511345">
        <ele>561.160</ele>
        <time>2015-03-29T10:40:15Z</time>
      </trkpt>
      <trkpt lat="41.250402" lon="-6.511409">
        <ele>562.095</ele>
        <time>2015-03-29T10:40:21Z</time>
      </trkpt>
      <trkpt lat="41.250271" lon="-6.511546">
        <ele>563.099</ele>
        <time>2015-03-29T10:40:31Z</time>
      </trkpt>
      <trkpt lat="41.250143" lon="-6.511666">
        <ele>563.097</ele>
        <time>2015-03-29T10:40:39Z</time>
      </trkpt>
      <trkpt lat="41.250090" lon="-6.511684">
        <ele>563.511</ele>
        <time>2015-03-29T10:40:43Z</time>
      </trkpt>
      <trkpt lat="41.250010" lon="-6.511713">
        <ele>563.542</ele>
        <time>2015-03-29T10:40:53Z</time>
      </trkpt>
      <trkpt lat="41.250002" lon="-6.511723">
        <ele>564.092</ele>
        <time>2015-03-29T10:41:03Z</time>
      </trkpt>
      <trkpt lat="41.249985" lon="-6.511726">
        <ele>565.473</ele>
        <time>2015-03-29T10:41:14Z</time>
      </trkpt>
      <trkpt lat="41.249962" lon="-6.511737">
        <ele>565.920</ele>
        <time>2015-03-29T10:41:20Z</time>
      </trkpt>
      <trkpt lat="41.249878" lon="-6.511811">
        <ele>565.407</ele>
        <time>2015-03-29T10:41:27Z</time>
      </trkpt>
      <trkpt lat="41.249814" lon="-6.511896">
        <ele>565.488</ele>
        <time>2015-03-29T10:41:32Z</time>
      </trkpt>
      <trkpt lat="41.249791" lon="-6.511920">
        <ele>565.963</ele>
        <time>2015-03-29T10:41:34Z</time>
      </trkpt>
      <trkpt lat="41.249683" lon="-6.512004">
        <ele>566.488</ele>
        <time>2015-03-29T10:41:43Z</time>
      </trkpt>
      <trkpt lat="41.249559" lon="-6.512108">
        <ele>567.362</ele>
        <time>2015-03-29T10:41:52Z</time>
      </trkpt>
      <trkpt lat="41.249542" lon="-6.512121">
        <ele>567.380</ele>
        <time>2015-03-29T10:41:53Z</time>
      </trkpt>
      <trkpt lat="41.249450" lon="-6.512177">
        <ele>567.874</ele>
        <time>2015-03-29T10:41:59Z</time>
      </trkpt>
      <trkpt lat="41.249370" lon="-6.512258">
        <ele>568.375</ele>
        <time>2015-03-29T10:42:07Z</time>
      </trkpt>
      <trkpt lat="41.249319" lon="-6.512309">
        <ele>568.325</ele>
        <time>2015-03-29T10:42:11Z</time>
      </trkpt>
      <trkpt lat="41.249168" lon="-6.512404">
        <ele>569.226</ele>
        <time>2015-03-29T10:42:21Z</time>
      </trkpt>
      <trkpt lat="41.249000" lon="-6.512480">
        <ele>570.708</ele>
        <time>2015-03-29T10:42:32Z</time>
      </trkpt>
      <trkpt lat="41.248930" lon="-6.512507">
        <ele>570.707</ele>
        <time>2015-03-29T10:42:38Z</time>
      </trkpt>
      <trkpt lat="41.248855" lon="-6.512556">
        <ele>571.611</ele>
        <time>2015-03-29T10:42:43Z</time>
      </trkpt>
      <trkpt lat="41.248741" lon="-6.512612">
        <ele>574.096</ele>
        <time>2015-03-29T10:42:52Z</time>
      </trkpt>
      <trkpt lat="41.248648" lon="-6.512699">
        <ele>575.071</ele>
        <time>2015-03-29T10:43:02Z</time>
      </trkpt>
      <trkpt lat="41.248648" lon="-6.512707">
        <ele>575.015</ele>
        <time>2015-03-29T10:43:18Z</time>
      </trkpt>
      <trkpt lat="41.248630" lon="-6.512706">
        <ele>575.093</ele>
        <time>2015-03-29T10:43:33Z</time>
      </trkpt>
      <trkpt lat="41.248627" lon="-6.512710">
        <ele>575.557</ele>
        <time>2015-03-29T10:43:42Z</time>
      </trkpt>
      <trkpt lat="41.248616" lon="-6.512719">
        <ele>575.598</ele>
        <time>2015-03-29T10:43:55Z</time>
      </trkpt>
      <trkpt lat="41.248599" lon="-6.512731">
        <ele>576.596</ele>
        <time>2015-03-29T10:44:08Z</time>
      </trkpt>
      <trkpt lat="41.248545" lon="-6.512762">
        <ele>577.431</ele>
        <time>2015-03-29T10:44:15Z</time>
      </trkpt>
      <trkpt lat="41.248522" lon="-6.512804">
        <ele>577.424</ele>
        <time>2015-03-29T10:44:18Z</time>
      </trkpt>
      <trkpt lat="41.248436" lon="-6.512888">
        <ele>579.307</ele>
        <time>2015-03-29T10:44:27Z</time>
      </trkpt>
      <trkpt lat="41.248385" lon="-6.512945">
        <ele>579.818</ele>
        <time>2015-03-29T10:44:42Z</time>
      </trkpt>
      <trkpt lat="41.248379" lon="-6.512953">
        <ele>579.823</ele>
        <time>2015-03-29T10:44:43Z</time>
      </trkpt>
      <trkpt lat="41.248308" lon="-6.512971">
        <ele>580.338</ele>
        <time>2015-03-29T10:44:50Z</time>
      </trkpt>
      <trkpt lat="41.248153" lon="-6.513014">
        <ele>582.292</ele>
        <time>2015-03-29T10:45:04Z</time>
      </trkpt>
      <trkpt lat="41.247986" lon="-6.513045">
        <ele>584.170</ele>
        <time>2015-03-29T10:45:15Z</time>
      </trkpt>
      <trkpt lat="41.247846" lon="-6.513135">
        <ele>585.694</ele>
        <time>2015-03-29T10:45:24Z</time>
      </trkpt>
      <trkpt lat="41.247748" lon="-6.513238">
        <ele>585.115</ele>
        <time>2015-03-29T10:45:29Z</time>
      </trkpt>
      <trkpt lat="41.247556" lon="-6.513390">
        <ele>584.112</ele>
        <time>2015-03-29T10:45:37Z</time>
      </trkpt>
      <trkpt lat="41.247396" lon="-6.513474">
        <ele>583.232</ele>
        <time>2015-03-29T10:45:46Z</time>
      </trkpt>
      <trkpt lat="41.247282" lon="-6.513519">
        <ele>584.605</ele>
        <time>2015-03-29T10:45:52Z</time>
      </trkpt>
      <trkpt lat="41.247055" lon="-6.513659">
        <ele>586.107</ele>
        <time>2015-03-29T10:46:05Z</time>
      </trkpt>
      <trkpt lat="41.246834" lon="-6.513708">
        <ele>587.050</ele>
        <time>2015-03-29T10:46:17Z</time>
      </trkpt>
      <trkpt lat="41.246687" lon="-6.513710">
        <ele>587.035</ele>
        <time>2015-03-29T10:46:25Z</time>
      </trkpt>
      <trkpt lat="41.246550" lon="-6.513774">
        <ele>587.590</ele>
        <time>2015-03-29T10:46:34Z</time>
      </trkpt>
      <trkpt lat="41.246384" lon="-6.513839">
        <ele>589.074</ele>
        <time>2015-03-29T10:46:44Z</time>
      </trkpt>
      <trkpt lat="41.246337" lon="-6.513842">
        <ele>589.462</ele>
        <time>2015-03-29T10:46:47Z</time>
      </trkpt>
      <trkpt lat="41.246180" lon="-6.513875">
        <ele>590.966</ele>
        <time>2015-03-29T10:46:57Z</time>
      </trkpt>
      <trkpt lat="41.246049" lon="-6.513928">
        <ele>591.857</ele>
        <time>2015-03-29T10:47:04Z</time>
      </trkpt>
      <trkpt lat="41.245993" lon="-6.513943">
        <ele>591.845</ele>
        <time>2015-03-29T10:47:12Z</time>
      </trkpt>
      <trkpt lat="41.245992" lon="-6.513942">
        <ele>591.847</ele>
        <time>2015-03-29T10:47:13Z</time>
      </trkpt>
      <trkpt lat="41.245815" lon="-6.513997">
        <ele>593.311</ele>
        <time>2015-03-29T10:47:24Z</time>
      </trkpt>
      <trkpt lat="41.245630" lon="-6.513995">
        <ele>596.207</ele>
        <time>2015-03-29T10:47:35Z</time>
      </trkpt>
      <trkpt lat="41.245555" lon="-6.513966">
        <ele>597.123</ele>
        <time>2015-03-29T10:47:41Z</time>
      </trkpt>
      <trkpt lat="41.245434" lon="-6.513972">
        <ele>599.578</ele>
        <time>2015-03-29T10:47:52Z</time>
      </trkpt>
      <trkpt lat="41.245406" lon="-6.513989">
        <ele>601.443</ele>
        <time>2015-03-29T10:48:01Z</time>
      </trkpt>
      <trkpt lat="41.245394" lon="-6.513998">
        <ele>600.567</ele>
        <time>2015-03-29T10:48:16Z</time>
      </trkpt>
      <trkpt lat="41.245363" lon="-6.513999">
        <ele>601.065</ele>
        <time>2015-03-29T10:48:24Z</time>
      </trkpt>
      <trkpt lat="41.245345" lon="-6.514001">
        <ele>601.089</ele>
        <time>2015-03-29T10:48:26Z</time>
      </trkpt>
      <trkpt lat="41.245158" lon="-6.514078">
        <ele>601.480</ele>
        <time>2015-03-29T10:48:37Z</time>
      </trkpt>
      <trkpt lat="41.245052" lon="-6.514188">
        <ele>600.079</ele>
        <time>2015-03-29T10:48:42Z</time>
      </trkpt>
      <trkpt lat="41.245011" lon="-6.514536">
        <ele>597.605</ele>
        <time>2015-03-29T10:48:50Z</time>
      </trkpt>
      <trkpt lat="41.245016" lon="-6.514563">
        <ele>598.125</ele>
        <time>2015-03-29T10:48:52Z</time>
      </trkpt>
      <trkpt lat="41.245053" lon="-6.514716">
        <ele>598.607</ele>
        <time>2015-03-29T10:49:00Z</time>
      </trkpt>
      <trkpt lat="41.245028" lon="-6.514788">
        <ele>599.056</ele>
        <time>2015-03-29T10:49:04Z</time>
      </trkpt>
      <trkpt lat="41.244988" lon="-6.514851">
        <ele>600.071</ele>
        <time>2015-03-29T10:49:10Z</time>
      </trkpt>
      <trkpt lat="41.244938" lon="-6.514898">
        <ele>601.076</ele>
        <time>2015-03-29T10:49:21Z</time>
      </trkpt>
      <trkpt lat="41.244915" lon="-6.514919">
        <ele>601.410</ele>
        <time>2015-03-29T10:49:27Z</time>
      </trkpt>
      <trkpt lat="41.244897" lon="-6.514940">
        <ele>602.428</ele>
        <time>2015-03-29T10:49:31Z</time>
      </trkpt>
      <trkpt lat="41.244875" lon="-6.514969">
        <ele>602.952</ele>
        <time>2015-03-29T10:49:38Z</time>
      </trkpt>
      <trkpt lat="41.244867" lon="-6.514993">
        <ele>603.463</ele>
        <time>2015-03-29T10:49:45Z</time>
      </trkpt>
      <trkpt lat="41.244840" lon="-6.515063">
        <ele>604.314</ele>
        <time>2015-03-29T10:49:53Z</time>
      </trkpt>
      <trkpt lat="41.244821" lon="-6.515094">
        <ele>605.354</ele>
        <time>2015-03-29T10:50:01Z</time>
      </trkpt>
      <trkpt lat="41.244814" lon="-6.515097">
        <ele>605.309</ele>
        <time>2015-03-29T10:50:19Z</time>
      </trkpt>
      <trkpt lat="41.244793" lon="-6.515119">
        <ele>605.307</ele>
        <time>2015-03-29T10:50:27Z</time>
      </trkpt>
      <trkpt lat="41.244754" lon="-6.515222">
        <ele>606.770</ele>
        <time>2015-03-29T10:50:37Z</time>
      </trkpt>
      <trkpt lat="41.244754" lon="-6.515223">
        <ele>606.745</ele>
        <time>2015-03-29T10:50:40Z</time>
      </trkpt>
      <trkpt lat="41.244719" lon="-6.515271">
        <ele>606.740</ele>
        <time>2015-03-29T10:50:44Z</time>
      </trkpt>
      <trkpt lat="41.244604" lon="-6.515424">
        <ele>607.214</ele>
        <time>2015-03-29T10:50:53Z</time>
      </trkpt>
      <trkpt lat="41.244475" lon="-6.515595">
        <ele>608.262</ele>
        <time>2015-03-29T10:51:02Z</time>
      </trkpt>
      <trkpt lat="41.244349" lon="-6.515759">
        <ele>608.736</ele>
        <time>2015-03-29T10:51:12Z</time>
      </trkpt>
      <trkpt lat="41.244244" lon="-6.515974">
        <ele>609.667</ele>
        <time>2015-03-29T10:51:21Z</time>
      </trkpt>
      <trkpt lat="41.244160" lon="-6.516126">
        <ele>609.643</ele>
        <time>2015-03-29T10:51:29Z</time>
      </trkpt>
      <trkpt lat="41.244133" lon="-6.516157">
        <ele>610.164</ele>
        <time>2015-03-29T10:51:37Z</time>
      </trkpt>
      <trkpt lat="41.244101" lon="-6.516200">
        <ele>610.610</ele>
        <time>2015-03-29T10:51:46Z</time>
      </trkpt>
      <trkpt lat="41.244078" lon="-6.516251">
        <ele>611.107</ele>
        <time>2015-03-29T10:51:56Z</time>
      </trkpt>
      <trkpt lat="41.244069" lon="-6.516274">
        <ele>611.153</ele>
        <time>2015-03-29T10:52:03Z</time>
      </trkpt>
      <trkpt lat="41.244036" lon="-6.516339">
        <ele>612.088</ele>
        <time>2015-03-29T10:52:13Z</time>
      </trkpt>
      <trkpt lat="41.244036" lon="-6.516334">
        <ele>612.013</ele>
        <time>2015-03-29T10:52:29Z</time>
      </trkpt>
      <trkpt lat="41.244014" lon="-6.516360">
        <ele>613.067</ele>
        <time>2015-03-29T10:52:42Z</time>
      </trkpt>
      <trkpt lat="41.243999" lon="-6.516379">
        <ele>613.065</ele>
        <time>2015-03-29T10:52:46Z</time>
      </trkpt>
      <trkpt lat="41.243997" lon="-6.516422">
        <ele>613.579</ele>
        <time>2015-03-29T10:52:49Z</time>
      </trkpt>
      <trkpt lat="41.243920" lon="-6.516518">
        <ele>615.930</ele>
        <time>2015-03-29T10:52:59Z</time>
      </trkpt>
      <trkpt lat="41.243870" lon="-6.516541">
        <ele>617.812</ele>
        <time>2015-03-29T10:53:09Z</time>
      </trkpt>
      <trkpt lat="41.243844" lon="-6.516589">
        <ele>618.332</ele>
        <time>2015-03-29T10:53:18Z</time>
      </trkpt>
      <trkpt lat="41.243842" lon="-6.516596">
        <ele>618.805</ele>
        <time>2015-03-29T10:53:20Z</time>
      </trkpt>
      <trkpt lat="41.243836" lon="-6.516602">
        <ele>618.807</ele>
        <time>2015-03-29T10:53:22Z</time>
      </trkpt>
      <trkpt lat="41.243803" lon="-6.516618">
        <ele>618.830</ele>
        <time>2015-03-29T10:53:26Z</time>
      </trkpt>
      <trkpt lat="41.243741" lon="-6.516683">
        <ele>620.785</ele>
        <time>2015-03-29T10:53:36Z</time>
      </trkpt>
      <trkpt lat="41.243730" lon="-6.516713">
        <ele>621.250</ele>
        <time>2015-03-29T10:53:42Z</time>
      </trkpt>
      <trkpt lat="41.243758" lon="-6.516737">
        <ele>622.624</ele>
        <time>2015-03-29T10:53:51Z</time>
      </trkpt>
      <trkpt lat="41.243740" lon="-6.516795">
        <ele>624.082</ele>
        <time>2015-03-29T10:53:59Z</time>
      </trkpt>
      <trkpt lat="41.243727" lon="-6.516810">
        <ele>624.536</ele>
        <time>2015-03-29T10:54:07Z</time>
      </trkpt>
      <trkpt lat="41.243688" lon="-6.516889">
        <ele>625.577</ele>
        <time>2015-03-29T10:54:16Z</time>
      </trkpt>
      <trkpt lat="41.243661" lon="-6.516938">
        <ele>626.456</ele>
        <time>2015-03-29T10:54:21Z</time>
      </trkpt>
      <trkpt lat="41.243645" lon="-6.516961">
        <ele>626.959</ele>
        <time>2015-03-29T10:54:23Z</time>
      </trkpt>
      <trkpt lat="41.243624" lon="-6.517048">
        <ele>628.414</ele>
        <time>2015-03-29T10:54:32Z</time>
      </trkpt>
      <trkpt lat="41.243605" lon="-6.517075">
        <ele>629.807</ele>
        <time>2015-03-29T10:54:40Z</time>
      </trkpt>
      <trkpt lat="41.243551" lon="-6.517113">
        <ele>631.284</ele>
        <time>2015-03-29T10:54:51Z</time>
      </trkpt>
      <trkpt lat="41.243514" lon="-6.517096">
        <ele>632.259</ele>
        <time>2015-03-29T10:55:00Z</time>
      </trkpt>
      <trkpt lat="41.243520" lon="-6.517151">
        <ele>633.294</ele>
        <time>2015-03-29T10:55:09Z</time>
      </trkpt>
      <trkpt lat="41.243510" lon="-6.517217">
        <ele>634.168</ele>
        <time>2015-03-29T10:55:18Z</time>
      </trkpt>
      <trkpt lat="41.243491" lon="-6.517261">
        <ele>635.176</ele>
        <time>2015-03-29T10:55:30Z</time>
      </trkpt>
      <trkpt lat="41.243447" lon="-6.517313">
        <ele>636.160</ele>
        <time>2015-03-29T10:55:39Z</time>
      </trkpt>
      <trkpt lat="41.243425" lon="-6.517327">
        <ele>636.591</ele>
        <time>2015-03-29T10:55:43Z</time>
      </trkpt>
      <trkpt lat="41.243407" lon="-6.517346">
        <ele>637.583</ele>
        <time>2015-03-29T10:55:52Z</time>
      </trkpt>
      <trkpt lat="41.243341" lon="-6.517414">
        <ele>638.925</ele>
        <time>2015-03-29T10:56:02Z</time>
      </trkpt>
      <trkpt lat="41.243299" lon="-6.517445">
        <ele>640.917</ele>
        <time>2015-03-29T10:56:12Z</time>
      </trkpt>
      <trkpt lat="41.243274" lon="-6.517522">
        <ele>641.307</ele>
        <time>2015-03-29T10:56:23Z</time>
      </trkpt>
      <trkpt lat="41.243218" lon="-6.517582">
        <ele>642.317</ele>
        <time>2015-03-29T10:56:34Z</time>
      </trkpt>
      <trkpt lat="41.243218" lon="-6.517589">
        <ele>643.382</ele>
        <time>2015-03-29T10:56:46Z</time>
      </trkpt>
      <trkpt lat="41.243218" lon="-6.517588">
        <ele>643.327</ele>
        <time>2015-03-29T10:56:49Z</time>
      </trkpt>
      <trkpt lat="41.243177" lon="-6.517646">
        <ele>644.221</ele>
        <time>2015-03-29T10:56:58Z</time>
      </trkpt>
      <trkpt lat="41.243140" lon="-6.517687">
        <ele>644.769</ele>
        <time>2015-03-29T10:57:02Z</time>
      </trkpt>
      <trkpt lat="41.243100" lon="-6.517754">
        <ele>645.783</ele>
        <time>2015-03-29T10:57:11Z</time>
      </trkpt>
      <trkpt lat="41.243053" lon="-6.517803">
        <ele>646.624</ele>
        <time>2015-03-29T10:57:21Z</time>
      </trkpt>
      <trkpt lat="41.243011" lon="-6.517850">
        <ele>648.631</ele>
        <time>2015-03-29T10:57:30Z</time>
      </trkpt>
      <trkpt lat="41.243010" lon="-6.517851">
        <ele>648.661</ele>
        <time>2015-03-29T10:57:32Z</time>
      </trkpt>
      <trkpt lat="41.242982" lon="-6.517884">
        <ele>649.007</ele>
        <time>2015-03-29T10:57:37Z</time>
      </trkpt>
      <trkpt lat="41.242902" lon="-6.517956">
        <ele>650.007</ele>
        <time>2015-03-29T10:57:49Z</time>
      </trkpt>
      <trkpt lat="41.242895" lon="-6.517967">
        <ele>650.562</ele>
        <time>2015-03-29T10:57:56Z</time>
      </trkpt>
      <trkpt lat="41.242877" lon="-6.517981">
        <ele>650.597</ele>
        <time>2015-03-29T10:57:58Z</time>
      </trkpt>
      <trkpt lat="41.242805" lon="-6.518078">
        <ele>651.452</ele>
        <time>2015-03-29T10:58:06Z</time>
      </trkpt>
      <trkpt lat="41.242802" lon="-6.518086">
        <ele>651.446</ele>
        <time>2015-03-29T10:58:07Z</time>
      </trkpt>
      <trkpt lat="41.242788" lon="-6.518106">
        <ele>651.444</ele>
        <time>2015-03-29T10:58:09Z</time>
      </trkpt>
      <trkpt lat="41.242722" lon="-6.518243">
        <ele>652.978</ele>
        <time>2015-03-29T10:58:18Z</time>
      </trkpt>
      <trkpt lat="41.242707" lon="-6.518281">
        <ele>652.419</ele>
        <time>2015-03-29T10:58:20Z</time>
      </trkpt>
      <trkpt lat="41.242646" lon="-6.518430">
        <ele>653.495</ele>
        <time>2015-03-29T10:58:28Z</time>
      </trkpt>
      <trkpt lat="41.242574" lon="-6.518577">
        <ele>653.849</ele>
        <time>2015-03-29T10:58:37Z</time>
      </trkpt>
      <trkpt lat="41.242529" lon="-6.518627">
        <ele>654.323</ele>
        <time>2015-03-29T10:58:41Z</time>
      </trkpt>
      <trkpt lat="41.242480" lon="-6.518672">
        <ele>655.307</ele>
        <time>2015-03-29T10:58:45Z</time>
      </trkpt>
      <trkpt lat="41.242388" lon="-6.518767">
        <ele>656.798</ele>
        <time>2015-03-29T10:58:54Z</time>
      </trkpt>
      <trkpt lat="41.242336" lon="-6.518823">
        <ele>657.713</ele>
        <time>2015-03-29T10:59:02Z</time>
      </trkpt>
      <trkpt lat="41.242317" lon="-6.518845">
        <ele>658.678</ele>
        <time>2015-03-29T10:59:10Z</time>
      </trkpt>
      <trkpt lat="41.242250" lon="-6.518912">
        <ele>660.182</ele>
        <time>2015-03-29T10:59:21Z</time>
      </trkpt>
      <trkpt lat="41.242184" lon="-6.518967">
        <ele>661.070</ele>
        <time>2015-03-29T10:59:33Z</time>
      </trkpt>
      <trkpt lat="41.242117" lon="-6.519021">
        <ele>662.024</ele>
        <time>2015-03-29T10:59:45Z</time>
      </trkpt>
      <trkpt lat="41.242064" lon="-6.519104">
        <ele>663.565</ele>
        <time>2015-03-29T10:59:55Z</time>
      </trkpt>
      <trkpt lat="41.241974" lon="-6.519202">
        <ele>663.957</ele>
        <time>2015-03-29T11:00:07Z</time>
      </trkpt>
      <trkpt lat="41.241959" lon="-6.519220">
        <ele>664.400</ele>
        <time>2015-03-29T11:00:16Z</time>
      </trkpt>
      <trkpt lat="41.241947" lon="-6.519257">
        <ele>664.920</ele>
        <time>2015-03-29T11:00:28Z</time>
      </trkpt>
      <trkpt lat="41.241854" lon="-6.519319">
        <ele>666.307</ele>
        <time>2015-03-29T11:00:38Z</time>
      </trkpt>
      <trkpt lat="41.241845" lon="-6.519325">
        <ele>666.324</ele>
        <time>2015-03-29T11:00:39Z</time>
      </trkpt>
      <trkpt lat="41.241763" lon="-6.519478">
        <ele>667.829</ele>
        <time>2015-03-29T11:00:50Z</time>
      </trkpt>
      <trkpt lat="41.241714" lon="-6.519555">
        <ele>668.324</ele>
        <time>2015-03-29T11:00:56Z</time>
      </trkpt>
      <trkpt lat="41.241673" lon="-6.519580">
        <ele>669.248</ele>
        <time>2015-03-29T11:01:00Z</time>
      </trkpt>
      <trkpt lat="41.241554" lon="-6.519729">
        <ele>670.286</ele>
        <time>2015-03-29T11:01:11Z</time>
      </trkpt>
      <trkpt lat="41.241381" lon="-6.519875">
        <ele>671.120</ele>
        <time>2015-03-29T11:01:24Z</time>
      </trkpt>
      <trkpt lat="41.241226" lon="-6.519988">
        <ele>672.161</ele>
        <time>2015-03-29T11:01:36Z</time>
      </trkpt>
      <trkpt lat="41.241204" lon="-6.520007">
        <ele>672.673</ele>
        <time>2015-03-29T11:01:38Z</time>
      </trkpt>
      <trkpt lat="41.241133" lon="-6.520073">
        <ele>673.185</ele>
        <time>2015-03-29T11:01:46Z</time>
      </trkpt>
      <trkpt lat="41.241038" lon="-6.520151">
        <ele>674.013</ele>
        <time>2015-03-29T11:01:56Z</time>
      </trkpt>
      <trkpt lat="41.240997" lon="-6.520216">
        <ele>674.507</ele>
        <time>2015-03-29T11:02:01Z</time>
      </trkpt>
      <trkpt lat="41.240906" lon="-6.520379">
        <ele>675.536</ele>
        <time>2015-03-29T11:02:12Z</time>
      </trkpt>
      <trkpt lat="41.240847" lon="-6.520419">
        <ele>675.911</ele>
        <time>2015-03-29T11:02:17Z</time>
      </trkpt>
      <trkpt lat="41.240788" lon="-6.520503">
        <ele>676.976</ele>
        <time>2015-03-29T11:02:23Z</time>
      </trkpt>
      <trkpt lat="41.240732" lon="-6.520635">
        <ele>677.930</ele>
        <time>2015-03-29T11:02:31Z</time>
      </trkpt>
      <trkpt lat="41.240713" lon="-6.520717">
        <ele>678.858</ele>
        <time>2015-03-29T11:02:36Z</time>
      </trkpt>
      <trkpt lat="41.240683" lon="-6.520848">
        <ele>680.322</ele>
        <time>2015-03-29T11:02:44Z</time>
      </trkpt>
      <trkpt lat="41.240641" lon="-6.520934">
        <ele>682.213</ele>
        <time>2015-03-29T11:02:51Z</time>
      </trkpt>
      <trkpt lat="41.240590" lon="-6.521063">
        <ele>683.627</ele>
        <time>2015-03-29T11:03:00Z</time>
      </trkpt>
      <trkpt lat="41.240529" lon="-6.521169">
        <ele>685.168</ele>
        <time>2015-03-29T11:03:09Z</time>
      </trkpt>
      <trkpt lat="41.240499" lon="-6.521226">
        <ele>686.014</ele>
        <time>2015-03-29T11:03:13Z</time>
      </trkpt>
      <trkpt lat="41.240477" lon="-6.521252">
        <ele>686.007</ele>
        <time>2015-03-29T11:03:15Z</time>
      </trkpt>
      <trkpt lat="41.240378" lon="-6.521357">
        <ele>687.541</ele>
        <time>2015-03-29T11:03:24Z</time>
      </trkpt>
      <trkpt lat="41.240332" lon="-6.521490">
        <ele>688.936</ele>
        <time>2015-03-29T11:03:33Z</time>
      </trkpt>
      <trkpt lat="41.240342" lon="-6.521511">
        <ele>689.411</ele>
        <time>2015-03-29T11:03:35Z</time>
      </trkpt>
      <trkpt lat="41.240361" lon="-6.521700">
        <ele>691.365</ele>
        <time>2015-03-29T11:03:46Z</time>
      </trkpt>
      <trkpt lat="41.240366" lon="-6.521815">
        <ele>692.863</ele>
        <time>2015-03-29T11:03:54Z</time>
      </trkpt>
      <trkpt lat="41.240368" lon="-6.521827">
        <ele>692.857</ele>
        <time>2015-03-29T11:03:55Z</time>
      </trkpt>
      <trkpt lat="41.240370" lon="-6.521983">
        <ele>694.768</ele>
        <time>2015-03-29T11:04:05Z</time>
      </trkpt>
      <trkpt lat="41.240399" lon="-6.522099">
        <ele>696.167</ele>
        <time>2015-03-29T11:04:13Z</time>
      </trkpt>
      <trkpt lat="41.240409" lon="-6.522124">
        <ele>696.181</ele>
        <time>2015-03-29T11:04:15Z</time>
      </trkpt>
      <trkpt lat="41.240416" lon="-6.522164">
        <ele>696.619</ele>
        <time>2015-03-29T11:04:18Z</time>
      </trkpt>
      <trkpt lat="41.240447" lon="-6.522291">
        <ele>698.507</ele>
        <time>2015-03-29T11:04:27Z</time>
      </trkpt>
      <trkpt lat="41.240458" lon="-6.522318">
        <ele>698.575</ele>
        <time>2015-03-29T11:04:29Z</time>
      </trkpt>
      <trkpt lat="41.240462" lon="-6.522349">
        <ele>699.580</ele>
        <time>2015-03-29T11:04:31Z</time>
      </trkpt>
      <trkpt lat="41.240509" lon="-6.522491">
        <ele>700.965</ele>
        <time>2015-03-29T11:04:40Z</time>
      </trkpt>
      <trkpt lat="41.240571" lon="-6.522670">
        <ele>701.449</ele>
        <time>2015-03-29T11:04:50Z</time>
      </trkpt>
      <trkpt lat="41.240606" lon="-6.522770">
        <ele>701.457</ele>
        <time>2015-03-29T11:04:55Z</time>
      </trkpt>
      <trkpt lat="41.240674" lon="-6.522931">
        <ele>702.491</ele>
        <time>2015-03-29T11:05:04Z</time>
      </trkpt>
      <trkpt lat="41.240676" lon="-6.522957">
        <ele>702.462</ele>
        <time>2015-03-29T11:05:05Z</time>
      </trkpt>
      <trkpt lat="41.240714" lon="-6.523226">
        <ele>702.946</ele>
        <time>2015-03-29T11:05:16Z</time>
      </trkpt>
      <trkpt lat="41.240727" lon="-6.523461">
        <ele>702.988</ele>
        <time>2015-03-29T11:05:25Z</time>
      </trkpt>
      <trkpt lat="41.240727" lon="-6.523621">
        <ele>702.416</ele>
        <time>2015-03-29T11:05:31Z</time>
      </trkpt>
      <trkpt lat="41.240635" lon="-6.523689">
        <ele>702.407</ele>
        <time>2015-03-29T11:05:36Z</time>
      </trkpt>
      <trkpt lat="41.240367" lon="-6.523665">
        <ele>701.453</ele>
        <time>2015-03-29T11:05:46Z</time>
      </trkpt>
      <trkpt lat="41.240118" lon="-6.523640">
        <ele>700.548</ele>
        <time>2015-03-29T11:05:54Z</time>
      </trkpt>
      <trkpt lat="41.239832" lon="-6.523627">
        <ele>700.023</ele>
        <time>2015-03-29T11:06:03Z</time>
      </trkpt>
      <trkpt lat="41.239642" lon="-6.523645">
        <ele>697.677</ele>
        <time>2015-03-29T11:06:10Z</time>
      </trkpt>
      <trkpt lat="41.239389" lon="-6.523715">
        <ele>695.755</ele>
        <time>2015-03-29T11:06:15Z</time>
      </trkpt>
      <trkpt lat="41.238963" lon="-6.523801">
        <ele>693.719</ele>
        <time>2015-03-29T11:06:25Z</time>
      </trkpt>
      <trkpt lat="41.238723" lon="-6.523867">
        <ele>693.380</ele>
        <time>2015-03-29T11:06:32Z</time>
      </trkpt>
      <trkpt lat="41.238277" lon="-6.523965">
        <ele>691.317</ele>
        <time>2015-03-29T11:06:43Z</time>
      </trkpt>
      <trkpt lat="41.237977" lon="-6.523923">
        <ele>689.987</ele>
        <time>2015-03-29T11:06:51Z</time>
      </trkpt>
      <trkpt lat="41.237803" lon="-6.523810">
        <ele>688.915</ele>
        <time>2015-03-29T11:06:56Z</time>
      </trkpt>
      <trkpt lat="41.237484" lon="-6.523529">
        <ele>686.007</ele>
        <time>2015-03-29T11:07:04Z</time>
      </trkpt>
      <trkpt lat="41.237406" lon="-6.523446">
        <ele>685.120</ele>
        <time>2015-03-29T11:07:06Z</time>
      </trkpt>
      <trkpt lat="41.237315" lon="-6.523357">
        <ele>684.625</ele>
        <time>2015-03-29T11:07:08Z</time>
      </trkpt>
      <trkpt lat="41.237151" lon="-6.523217">
        <ele>683.210</ele>
        <time>2015-03-29T11:07:11Z</time>
      </trkpt>
      <trkpt lat="41.236787" lon="-6.522899">
        <ele>682.274</ele>
        <time>2015-03-29T11:07:18Z</time>
      </trkpt>
      <trkpt lat="41.236605" lon="-6.522779">
        <ele>682.222</ele>
        <time>2015-03-29T11:07:25Z</time>
      </trkpt>
      <trkpt lat="41.236598" lon="-6.522778">
        <ele>682.226</ele>
        <time>2015-03-29T11:07:26Z</time>
      </trkpt>
      <trkpt lat="41.236481" lon="-6.522701">
        <ele>680.837</ele>
        <time>2015-03-29T11:07:35Z</time>
      </trkpt>
      <trkpt lat="41.236458" lon="-6.522690">
        <ele>681.795</ele>
        <time>2015-03-29T11:07:36Z</time>
      </trkpt>
      <trkpt lat="41.236148" lon="-6.522476">
        <ele>679.849</ele>
        <time>2015-03-29T11:07:47Z</time>
      </trkpt>
      <trkpt lat="41.235850" lon="-6.522323">
        <ele>678.423</ele>
        <time>2015-03-29T11:07:56Z</time>
      </trkpt>
      <trkpt lat="41.235540" lon="-6.522184">
        <ele>675.907</ele>
        <time>2015-03-29T11:08:06Z</time>
      </trkpt>
      <trkpt lat="41.235383" lon="-6.522102">
        <ele>674.568</ele>
        <time>2015-03-29T11:08:11Z</time>
      </trkpt>
      <trkpt lat="41.235163" lon="-6.521884">
        <ele>673.143</ele>
        <time>2015-03-29T11:08:17Z</time>
      </trkpt>
      <trkpt lat="41.235085" lon="-6.521792">
        <ele>672.618</ele>
        <time>2015-03-29T11:08:19Z</time>
      </trkpt>
      <trkpt lat="41.234930" lon="-6.521628">
        <ele>672.182</ele>
        <time>2015-03-29T11:08:23Z</time>
      </trkpt>
      <trkpt lat="41.234616" lon="-6.521305">
        <ele>672.690</ele>
        <time>2015-03-29T11:08:33Z</time>
      </trkpt>
      <trkpt lat="41.234429" lon="-6.521112">
        <ele>673.184</ele>
        <time>2015-03-29T11:08:42Z</time>
      </trkpt>
      <trkpt lat="41.234391" lon="-6.521104">
        <ele>673.585</ele>
        <time>2015-03-29T11:08:49Z</time>
      </trkpt>
      <trkpt lat="41.234389" lon="-6.521106">
        <ele>673.548</ele>
        <time>2015-03-29T11:08:53Z</time>
      </trkpt>
      <trkpt lat="41.234279" lon="-6.521197">
        <ele>673.161</ele>
        <time>2015-03-29T11:09:00Z</time>
      </trkpt>
      <trkpt lat="41.234011" lon="-6.521444">
        <ele>671.617</ele>
        <time>2015-03-29T11:09:11Z</time>
      </trkpt>
      <trkpt lat="41.233977" lon="-6.521470">
        <ele>671.607</ele>
        <time>2015-03-29T11:09:12Z</time>
      </trkpt>
      <trkpt lat="41.233624" lon="-6.521815">
        <ele>669.763</ele>
        <time>2015-03-29T11:09:23Z</time>
      </trkpt>
      <trkpt lat="41.233161" lon="-6.522257">
        <ele>669.748</ele>
        <time>2015-03-29T11:09:36Z</time>
      </trkpt>
      <trkpt lat="41.232750" lon="-6.522623">
        <ele>669.293</ele>
        <time>2015-03-29T11:09:47Z</time>
      </trkpt>
      <trkpt lat="41.232546" lon="-6.522779">
        <ele>668.377</ele>
        <time>2015-03-29T11:09:52Z</time>
      </trkpt>
      <trkpt lat="41.232176" lon="-6.523040">
        <ele>666.375</ele>
        <time>2015-03-29T11:10:01Z</time>
      </trkpt>
      <trkpt lat="41.232129" lon="-6.523067">
        <ele>666.369</ele>
        <time>2015-03-29T11:10:02Z</time>
      </trkpt>
      <trkpt lat="41.231927" lon="-6.523123">
        <ele>666.320</ele>
        <time>2015-03-29T11:10:07Z</time>
      </trkpt>
      <trkpt lat="41.231536" lon="-6.523402">
        <ele>665.944</ele>
        <time>2015-03-29T11:10:18Z</time>
      </trkpt>
      <trkpt lat="41.231410" lon="-6.523483">
        <ele>665.405</ele>
        <time>2015-03-29T11:10:21Z</time>
      </trkpt>
      <trkpt lat="41.231161" lon="-6.523650">
        <ele>664.915</ele>
        <time>2015-03-29T11:10:27Z</time>
      </trkpt>
      <trkpt lat="41.230801" lon="-6.523870">
        <ele>664.907</ele>
        <time>2015-03-29T11:10:37Z</time>
      </trkpt>
      <trkpt lat="41.230541" lon="-6.524022">
        <ele>664.473</ele>
        <time>2015-03-29T11:10:44Z</time>
      </trkpt>
      <trkpt lat="41.230422" lon="-6.524093">
        <ele>663.958</ele>
        <time>2015-03-29T11:10:47Z</time>
      </trkpt>
      <trkpt lat="41.230147" lon="-6.524246">
        <ele>664.433</ele>
        <time>2015-03-29T11:10:54Z</time>
      </trkpt>
      <trkpt lat="41.229699" lon="-6.524492">
        <ele>663.537</ele>
        <time>2015-03-29T11:11:04Z</time>
      </trkpt>
      <trkpt lat="41.229653" lon="-6.524516">
        <ele>663.545</ele>
        <time>2015-03-29T11:11:05Z</time>
      </trkpt>
      <trkpt lat="41.229092" lon="-6.524983">
        <ele>663.089</ele>
        <time>2015-03-29T11:11:18Z</time>
      </trkpt>
      <trkpt lat="41.228631" lon="-6.525796">
        <ele>662.030</ele>
        <time>2015-03-29T11:11:32Z</time>
      </trkpt>
      <trkpt lat="41.227998" lon="-6.526333">
        <ele>662.097</ele>
        <time>2015-03-29T11:11:46Z</time>
      </trkpt>
      <trkpt lat="41.227280" lon="-6.526688">
        <ele>663.923</ele>
        <time>2015-03-29T11:12:01Z</time>
      </trkpt>
      <trkpt lat="41.226753" lon="-6.526949">
        <ele>665.425</ele>
        <time>2015-03-29T11:12:13Z</time>
      </trkpt>
      <trkpt lat="41.226197" lon="-6.527206">
        <ele>663.507</ele>
        <time>2015-03-29T11:12:24Z</time>
      </trkpt>
      <trkpt lat="41.225623" lon="-6.527465">
        <ele>660.158</ele>
        <time>2015-03-29T11:12:33Z</time>
      </trkpt>
      <trkpt lat="41.225273" lon="-6.527621">
        <ele>657.723</ele>
        <time>2015-03-29T11:12:38Z</time>
      </trkpt>
      <trkpt lat="41.224583" lon="-6.527903">
        <ele>658.288</ele>
        <time>2015-03-29T11:12:49Z</time>
      </trkpt>
      <trkpt lat="41.224046" lon="-6.528115">
        <ele>660.192</ele>
        <time>2015-03-29T11:12:59Z</time>
      </trkpt>
      <trkpt lat="41.223558" lon="-6.528406">
        <ele>661.080</ele>
        <time>2015-03-29T11:13:09Z</time>
      </trkpt>
      <trkpt lat="41.223393" lon="-6.528560">
        <ele>662.044</ele>
        <time>2015-03-29T11:13:13Z</time>
      </trkpt>
      <trkpt lat="41.222995" lon="-6.529158">
        <ele>663.535</ele>
        <time>2015-03-29T11:13:26Z</time>
      </trkpt>
      <trkpt lat="41.222700" lon="-6.529725">
        <ele>665.478</ele>
        <time>2015-03-29T11:13:38Z</time>
      </trkpt>
      <trkpt lat="41.222407" lon="-6.530296">
        <ele>667.833</ele>
        <time>2015-03-29T11:13:51Z</time>
      </trkpt>
      <trkpt lat="41.222168" lon="-6.530640">
        <ele>669.226</ele>
        <time>2015-03-29T11:14:01Z</time>
      </trkpt>
      <trkpt lat="41.221896" lon="-6.530905">
        <ele>671.107</ele>
        <time>2015-03-29T11:14:11Z</time>
      </trkpt>
      <trkpt lat="41.221553" lon="-6.531106">
        <ele>672.636</ele>
        <time>2015-03-29T11:14:22Z</time>
      </trkpt>
      <trkpt lat="41.221239" lon="-6.531213">
        <ele>673.161</ele>
        <time>2015-03-29T11:14:31Z</time>
      </trkpt>
      <trkpt lat="41.220715" lon="-6.531384">
        <ele>674.066</ele>
        <time>2015-03-29T11:14:45Z</time>
      </trkpt>
      <trkpt lat="41.220254" lon="-6.531739">
        <ele>674.560</ele>
        <time>2015-03-29T11:14:58Z</time>
      </trkpt>
      <trkpt lat="41.219979" lon="-6.532166">
        <ele>675.528</ele>
        <time>2015-03-29T11:15:09Z</time>
      </trkpt>
      <trkpt lat="41.219766" lon="-6.532612">
        <ele>676.912</ele>
        <time>2015-03-29T11:15:20Z</time>
      </trkpt>
      <trkpt lat="41.219610" lon="-6.532978">
        <ele>678.873</ele>
        <time>2015-03-29T11:15:30Z</time>
      </trkpt>
      <trkpt lat="41.219460" lon="-6.533322">
        <ele>680.311</ele>
        <time>2015-03-29T11:15:40Z</time>
      </trkpt>
      <trkpt lat="41.219304" lon="-6.533666">
        <ele>681.721</ele>
        <time>2015-03-29T11:15:50Z</time>
      </trkpt>
      <trkpt lat="41.219100" lon="-6.534026">
        <ele>683.603</ele>
        <time>2015-03-29T11:16:02Z</time>
      </trkpt>
      <trkpt lat="41.218880" lon="-6.534398">
        <ele>686.007</ele>
        <time>2015-03-29T11:16:14Z</time>
      </trkpt>
      <trkpt lat="41.218634" lon="-6.534784">
        <ele>687.520</ele>
        <time>2015-03-29T11:16:26Z</time>
      </trkpt>
      <trkpt lat="41.218457" lon="-6.535097">
        <ele>689.425</ele>
        <time>2015-03-29T11:16:36Z</time>
      </trkpt>
      <trkpt lat="41.218313" lon="-6.535389">
        <ele>690.840</ele>
        <time>2015-03-29T11:16:45Z</time>
      </trkpt>
      <trkpt lat="41.218179" lon="-6.535725">
        <ele>692.894</ele>
        <time>2015-03-29T11:16:56Z</time>
      </trkpt>
      <trkpt lat="41.218097" lon="-6.536062">
        <ele>694.222</ele>
        <time>2015-03-29T11:17:06Z</time>
      </trkpt>
      <trkpt lat="41.218048" lon="-6.536465">
        <ele>695.746</ele>
        <time>2015-03-29T11:17:17Z</time>
      </trkpt>
      <trkpt lat="41.217997" lon="-6.536895">
        <ele>697.647</ele>
        <time>2015-03-29T11:17:29Z</time>
      </trkpt>
      <trkpt lat="41.217932" lon="-6.537316">
        <ele>699.092</ele>
        <time>2015-03-29T11:17:41Z</time>
      </trkpt>
      <trkpt lat="41.217902" lon="-6.537662">
        <ele>701.473</ele>
        <time>2015-03-29T11:17:51Z</time>
      </trkpt>
      <trkpt lat="41.217859" lon="-6.538090">
        <ele>702.920</ele>
        <time>2015-03-29T11:18:04Z</time>
      </trkpt>
      <trkpt lat="41.217813" lon="-6.538463">
        <ele>704.307</ele>
        <time>2015-03-29T11:18:15Z</time>
      </trkpt>
      <trkpt lat="41.217752" lon="-6.538790">
        <ele>706.248</ele>
        <time>2015-03-29T11:18:26Z</time>
      </trkpt>
      <trkpt lat="41.217714" lon="-6.539092">
        <ele>707.763</ele>
        <time>2015-03-29T11:18:36Z</time>
      </trkpt>
      <trkpt lat="41.217714" lon="-6.539122">
        <ele>707.788</ele>
        <time>2015-03-29T11:18:37Z</time>
      </trkpt>
      <trkpt lat="41.217633" lon="-6.539477">
        <ele>710.132</ele>
        <time>2015-03-29T11:18:49Z</time>
      </trkpt>
      <trkpt lat="41.217494" lon="-6.539824">
        <ele>712.080</ele>
        <time>2015-03-29T11:19:01Z</time>
      </trkpt>
      <trkpt lat="41.217276" lon="-6.540084">
        <ele>713.964</ele>
        <time>2015-03-29T11:19:12Z</time>
      </trkpt>
      <trkpt lat="41.217023" lon="-6.540345">
        <ele>715.825</ele>
        <time>2015-03-29T11:19:24Z</time>
      </trkpt>
      <trkpt lat="41.216772" lon="-6.540605">
        <ele>718.218</ele>
        <time>2015-03-29T11:19:36Z</time>
      </trkpt>
      <trkpt lat="41.216620" lon="-6.540832">
        <ele>719.798</ele>
        <time>2015-03-29T11:19:46Z</time>
      </trkpt>
      <trkpt lat="41.216520" lon="-6.541108">
        <ele>721.617</ele>
        <time>2015-03-29T11:19:56Z</time>
      </trkpt>
      <trkpt lat="41.216462" lon="-6.541434">
        <ele>723.507</ele>
        <time>2015-03-29T11:20:07Z</time>
      </trkpt>
      <trkpt lat="41.216441" lon="-6.541737">
        <ele>725.050</ele>
        <time>2015-03-29T11:20:17Z</time>
      </trkpt>
      <trkpt lat="41.216425" lon="-6.541950">
        <ele>725.925</ele>
        <time>2015-03-29T11:20:24Z</time>
      </trkpt>
      <trkpt lat="41.216387" lon="-6.542259">
        <ele>726.480</ele>
        <time>2015-03-29T11:20:34Z</time>
      </trkpt>
      <trkpt lat="41.216291" lon="-6.542623">
        <ele>727.454</ele>
        <time>2015-03-29T11:20:44Z</time>
      </trkpt>
      <trkpt lat="41.216053" lon="-6.543159">
        <ele>725.532</ele>
        <time>2015-03-29T11:20:56Z</time>
      </trkpt>
      <trkpt lat="41.215703" lon="-6.543866">
        <ele>722.196</ele>
        <time>2015-03-29T11:21:07Z</time>
      </trkpt>
      <trkpt lat="41.215597" lon="-6.544075">
        <ele>720.797</ele>
        <time>2015-03-29T11:21:10Z</time>
      </trkpt>
      <trkpt lat="41.215209" lon="-6.544863">
        <ele>718.223</ele>
        <time>2015-03-29T11:21:21Z</time>
      </trkpt>
      <trkpt lat="41.214921" lon="-6.545450">
        <ele>716.883</ele>
        <time>2015-03-29T11:21:29Z</time>
      </trkpt>
      <trkpt lat="41.214648" lon="-6.546403">
        <ele>714.411</ele>
        <time>2015-03-29T11:21:41Z</time>
      </trkpt>
      <trkpt lat="41.214635" lon="-6.546484">
        <ele>714.407</ele>
        <time>2015-03-29T11:21:42Z</time>
      </trkpt>
      <trkpt lat="41.214609" lon="-6.547070">
        <ele>713.481</ele>
        <time>2015-03-29T11:21:49Z</time>
      </trkpt>
      <trkpt lat="41.214680" lon="-6.548034">
        <ele>711.566</ele>
        <time>2015-03-29T11:22:01Z</time>
      </trkpt>
      <trkpt lat="41.214664" lon="-6.548867">
        <ele>708.611</ele>
        <time>2015-03-29T11:22:12Z</time>
      </trkpt>
      <trkpt lat="41.214600" lon="-6.549155">
        <ele>708.635</ele>
        <time>2015-03-29T11:22:16Z</time>
      </trkpt>
      <trkpt lat="41.214520" lon="-6.549370">
        <ele>707.743</ele>
        <time>2015-03-29T11:22:19Z</time>
      </trkpt>
      <trkpt lat="41.214234" lon="-6.549889">
        <ele>706.287</ele>
        <time>2015-03-29T11:22:27Z</time>
      </trkpt>
      <trkpt lat="41.213579" lon="-6.550535">
        <ele>702.948</ele>
        <time>2015-03-29T11:22:40Z</time>
      </trkpt>
      <trkpt lat="41.213154" lon="-6.550939">
        <ele>700.069</ele>
        <time>2015-03-29T11:22:48Z</time>
      </trkpt>
      <trkpt lat="41.212807" lon="-6.551267">
        <ele>697.604</ele>
        <time>2015-03-29T11:22:54Z</time>
      </trkpt>
      <trkpt lat="41.212564" lon="-6.551509">
        <ele>695.224</ele>
        <time>2015-03-29T11:22:58Z</time>
      </trkpt>
      <trkpt lat="41.212285" lon="-6.552186">
        <ele>690.807</ele>
        <time>2015-03-29T11:23:05Z</time>
      </trkpt>
      <trkpt lat="41.212306" lon="-6.552667">
        <ele>687.035</ele>
        <time>2015-03-29T11:23:09Z</time>
      </trkpt>
      <trkpt lat="41.212343" lon="-6.552783">
        <ele>686.070</ele>
        <time>2015-03-29T11:23:10Z</time>
      </trkpt>
      <trkpt lat="41.212639" lon="-6.553466">
        <ele>682.725</ele>
        <time>2015-03-29T11:23:16Z</time>
      </trkpt>
      <trkpt lat="41.212843" lon="-6.553964">
        <ele>678.819</ele>
        <time>2015-03-29T11:23:20Z</time>
      </trkpt>
      <trkpt lat="41.213007" lon="-6.554636">
        <ele>675.097</ele>
        <time>2015-03-29T11:23:25Z</time>
      </trkpt>
      <trkpt lat="41.213052" lon="-6.555044">
        <ele>671.651</ele>
        <time>2015-03-29T11:23:28Z</time>
      </trkpt>
      <trkpt lat="41.213095" lon="-6.555609">
        <ele>667.822</ele>
        <time>2015-03-29T11:23:32Z</time>
      </trkpt>
      <trkpt lat="41.213141" lon="-6.556144">
        <ele>664.484</ele>
        <time>2015-03-29T11:23:36Z</time>
      </trkpt>
      <trkpt lat="41.213168" lon="-6.556671">
        <ele>661.507</ele>
        <time>2015-03-29T11:23:40Z</time>
      </trkpt>
      <trkpt lat="41.212946" lon="-6.557319">
        <ele>657.717</ele>
        <time>2015-03-29T11:23:46Z</time>
      </trkpt>
      <trkpt lat="41.212481" lon="-6.557759">
        <ele>653.407</ele>
        <time>2015-03-29T11:23:52Z</time>
      </trkpt>
      <trkpt lat="41.212406" lon="-6.557833">
        <ele>652.957</ele>
        <time>2015-03-29T11:23:53Z</time>
      </trkpt>
      <trkpt lat="41.212244" lon="-6.558337">
        <ele>649.012</ele>
        <time>2015-03-29T11:23:58Z</time>
      </trkpt>
      <trkpt lat="41.212276" lon="-6.558801">
        <ele>649.557</ele>
        <time>2015-03-29T11:24:02Z</time>
      </trkpt>
      <trkpt lat="41.212278" lon="-6.559028">
        <ele>647.631</ele>
        <time>2015-03-29T11:24:04Z</time>
      </trkpt>
      <trkpt lat="41.212177" lon="-6.559453">
        <ele>645.279</ele>
        <time>2015-03-29T11:24:08Z</time>
      </trkpt>
      <trkpt lat="41.212051" lon="-6.559762">
        <ele>643.343</ele>
        <time>2015-03-29T11:24:11Z</time>
      </trkpt>
      <trkpt lat="41.211687" lon="-6.560348">
        <ele>638.984</ele>
        <time>2015-03-29T11:24:17Z</time>
      </trkpt>
      <trkpt lat="41.211512" lon="-6.560660">
        <ele>636.522</ele>
        <time>2015-03-29T11:24:20Z</time>
      </trkpt>
      <trkpt lat="41.211198" lon="-6.560841">
        <ele>634.662</ele>
        <time>2015-03-29T11:24:24Z</time>
      </trkpt>
      <trkpt lat="41.210853" lon="-6.560918">
        <ele>633.208</ele>
        <time>2015-03-29T11:24:28Z</time>
      </trkpt>
      <trkpt lat="41.210710" lon="-6.561076">
        <ele>632.207</ele>
        <time>2015-03-29T11:24:30Z</time>
      </trkpt>
      <trkpt lat="41.210573" lon="-6.561245">
        <ele>631.291</ele>
        <time>2015-03-29T11:24:32Z</time>
      </trkpt>
      <trkpt lat="41.210445" lon="-6.561875">
        <ele>626.986</ele>
        <time>2015-03-29T11:24:37Z</time>
      </trkpt>
      <trkpt lat="41.210437" lon="-6.561996">
        <ele>626.951</ele>
        <time>2015-03-29T11:24:38Z</time>
      </trkpt>
      <trkpt lat="41.210411" lon="-6.562186">
        <ele>625.525</ele>
        <time>2015-03-29T11:24:40Z</time>
      </trkpt>
      <trkpt lat="41.210380" lon="-6.562330">
        <ele>625.043</ele>
        <time>2015-03-29T11:24:42Z</time>
      </trkpt>
      <trkpt lat="41.210277" lon="-6.562580">
        <ele>623.697</ele>
        <time>2015-03-29T11:24:47Z</time>
      </trkpt>
      <trkpt lat="41.210090" lon="-6.562976">
        <ele>621.298</ele>
        <time>2015-03-29T11:24:54Z</time>
      </trkpt>
      <trkpt lat="41.209874" lon="-6.563348">
        <ele>618.886</ele>
        <time>2015-03-29T11:24:59Z</time>
      </trkpt>
      <trkpt lat="41.209634" lon="-6.563755">
        <ele>615.960</ele>
        <time>2015-03-29T11:25:04Z</time>
      </trkpt>
      <trkpt lat="41.209577" lon="-6.563833">
        <ele>614.926</ele>
        <time>2015-03-29T11:25:05Z</time>
      </trkpt>
      <trkpt lat="41.209394" lon="-6.564058">
        <ele>613.507</ele>
        <time>2015-03-29T11:25:08Z</time>
      </trkpt>
      <trkpt lat="41.209103" lon="-6.564514">
        <ele>609.147</ele>
        <time>2015-03-29T11:25:13Z</time>
      </trkpt>
      <trkpt lat="41.208649" lon="-6.564761">
        <ele>605.812</ele>
        <time>2015-03-29T11:25:18Z</time>
      </trkpt>
      <trkpt lat="41.208552" lon="-6.564763">
        <ele>605.387</ele>
        <time>2015-03-29T11:25:19Z</time>
      </trkpt>
      <trkpt lat="41.208456" lon="-6.564751">
        <ele>604.881</ele>
        <time>2015-03-29T11:25:20Z</time>
      </trkpt>
      <trkpt lat="41.208262" lon="-6.564719">
        <ele>603.919</ele>
        <time>2015-03-29T11:25:22Z</time>
      </trkpt>
      <trkpt lat="41.208065" lon="-6.564732">
        <ele>602.953</ele>
        <time>2015-03-29T11:25:24Z</time>
      </trkpt>
      <trkpt lat="41.207880" lon="-6.564816">
        <ele>601.094</ele>
        <time>2015-03-29T11:25:26Z</time>
      </trkpt>
      <trkpt lat="41.207498" lon="-6.564875">
        <ele>598.623</ele>
        <time>2015-03-29T11:25:30Z</time>
      </trkpt>
      <trkpt lat="41.207202" lon="-6.564840">
        <ele>597.683</ele>
        <time>2015-03-29T11:25:36Z</time>
      </trkpt>
      <trkpt lat="41.207191" lon="-6.564838">
        <ele>597.611</ele>
        <time>2015-03-29T11:25:50Z</time>
      </trkpt>
      <trkpt lat="41.207193" lon="-6.564842">
        <ele>597.607</ele>
        <time>2015-03-29T11:26:12Z</time>
      </trkpt>
      <trkpt lat="41.207190" lon="-6.564840">
        <ele>597.661</ele>
        <time>2015-03-29T11:26:19Z</time>
      </trkpt>
      <trkpt lat="41.207113" lon="-6.564797">
        <ele>597.166</ele>
        <time>2015-03-29T11:26:25Z</time>
      </trkpt>
      <trkpt lat="41.206795" lon="-6.564677">
        <ele>596.631</ele>
        <time>2015-03-29T11:26:37Z</time>
      </trkpt>
      <trkpt lat="41.206394" lon="-6.564561">
        <ele>595.255</ele>
        <time>2015-03-29T11:26:46Z</time>
      </trkpt>
      <trkpt lat="41.206063" lon="-6.564521">
        <ele>593.823</ele>
        <time>2015-03-29T11:26:52Z</time>
      </trkpt>
      <trkpt lat="41.205944" lon="-6.564535">
        <ele>592.837</ele>
        <time>2015-03-29T11:26:54Z</time>
      </trkpt>
      <trkpt lat="41.205584" lon="-6.564643">
        <ele>589.488</ele>
        <time>2015-03-29T11:26:59Z</time>
      </trkpt>
      <trkpt lat="41.205273" lon="-6.564743">
        <ele>587.088</ele>
        <time>2015-03-29T11:27:03Z</time>
      </trkpt>
      <trkpt lat="41.204915" lon="-6.564845">
        <ele>585.624</ele>
        <time>2015-03-29T11:27:08Z</time>
      </trkpt>
      <trkpt lat="41.204772" lon="-6.564907">
        <ele>584.626</ele>
        <time>2015-03-29T11:27:10Z</time>
      </trkpt>
      <trkpt lat="41.204607" lon="-6.565103">
        <ele>583.707</ele>
        <time>2015-03-29T11:27:13Z</time>
      </trkpt>
      <trkpt lat="41.204390" lon="-6.565481">
        <ele>583.757</ele>
        <time>2015-03-29T11:27:19Z</time>
      </trkpt>
      <trkpt lat="41.204235" lon="-6.565655">
        <ele>584.122</ele>
        <time>2015-03-29T11:27:23Z</time>
      </trkpt>
      <trkpt lat="41.203892" lon="-6.565779">
        <ele>584.157</ele>
        <time>2015-03-29T11:27:30Z</time>
      </trkpt>
      <trkpt lat="41.203682" lon="-6.565877">
        <ele>583.291</ele>
        <time>2015-03-29T11:27:34Z</time>
      </trkpt>
      <trkpt lat="41.203588" lon="-6.565957">
        <ele>583.269</ele>
        <time>2015-03-29T11:27:36Z</time>
      </trkpt>
      <trkpt lat="41.203327" lon="-6.566180">
        <ele>583.753</ele>
        <time>2015-03-29T11:27:42Z</time>
      </trkpt>
      <trkpt lat="41.203171" lon="-6.566297">
        <ele>584.134</ele>
        <time>2015-03-29T11:27:46Z</time>
      </trkpt>
      <trkpt lat="41.202866" lon="-6.566555">
        <ele>582.221</ele>
        <time>2015-03-29T11:27:53Z</time>
      </trkpt>
      <trkpt lat="41.202528" lon="-6.566571">
        <ele>578.941</ele>
        <time>2015-03-29T11:27:59Z</time>
      </trkpt>
      <trkpt lat="41.202273" lon="-6.566351">
        <ele>575.505</ele>
        <time>2015-03-29T11:28:03Z</time>
      </trkpt>
      <trkpt lat="41.202213" lon="-6.566283">
        <ele>574.507</ele>
        <time>2015-03-29T11:28:04Z</time>
      </trkpt>
      <trkpt lat="41.201983" lon="-6.565859">
        <ele>572.121</ele>
        <time>2015-03-29T11:28:09Z</time>
      </trkpt>
      <trkpt lat="41.201699" lon="-6.565355">
        <ele>568.856</ele>
        <time>2015-03-29T11:28:15Z</time>
      </trkpt>
      <trkpt lat="41.201484" lon="-6.564990">
        <ele>565.941</ele>
        <time>2015-03-29T11:28:19Z</time>
      </trkpt>
      <trkpt lat="41.201390" lon="-6.564818">
        <ele>564.435</ele>
        <time>2015-03-29T11:28:21Z</time>
      </trkpt>
      <trkpt lat="41.201327" lon="-6.564348">
        <ele>563.533</ele>
        <time>2015-03-29T11:28:27Z</time>
      </trkpt>
      <trkpt lat="41.201201" lon="-6.564328">
        <ele>560.687</ele>
        <time>2015-03-29T11:28:31Z</time>
      </trkpt>
      <trkpt lat="41.201211" lon="-6.564673">
        <ele>558.288</ele>
        <time>2015-03-29T11:28:36Z</time>
      </trkpt>
      <trkpt lat="41.201243" lon="-6.564894">
        <ele>556.787</ele>
        <time>2015-03-29T11:28:39Z</time>
      </trkpt>
      <trkpt lat="41.201331" lon="-6.565522">
        <ele>552.942</ele>
        <time>2015-03-29T11:28:46Z</time>
      </trkpt>
      <trkpt lat="41.201400" lon="-6.566103">
        <ele>549.126</ele>
        <time>2015-03-29T11:28:52Z</time>
      </trkpt>
      <trkpt lat="41.201432" lon="-6.566299">
        <ele>548.107</ele>
        <time>2015-03-29T11:28:54Z</time>
      </trkpt>
      <trkpt lat="41.201490" lon="-6.566930">
        <ele>544.747</ele>
        <time>2015-03-29T11:29:01Z</time>
      </trkpt>
      <trkpt lat="41.201464" lon="-6.567008">
        <ele>544.262</ele>
        <time>2015-03-29T11:29:02Z</time>
      </trkpt>
      <trkpt lat="41.201313" lon="-6.567339">
        <ele>543.387</ele>
        <time>2015-03-29T11:29:07Z</time>
      </trkpt>
      <trkpt lat="41.201207" lon="-6.567685">
        <ele>545.781</ele>
        <time>2015-03-29T11:29:15Z</time>
      </trkpt>
      <trkpt lat="41.201209" lon="-6.567746">
        <ele>546.299</ele>
        <time>2015-03-29T11:29:23Z</time>
      </trkpt>
      <trkpt lat="41.201197" lon="-6.567787">
        <ele>546.253</ele>
        <time>2015-03-29T11:29:33Z</time>
      </trkpt>
      <trkpt lat="41.201216" lon="-6.567797">
        <ele>546.244</ele>
        <time>2015-03-29T11:29:40Z</time>
      </trkpt>
      <trkpt lat="41.201225" lon="-6.567797">
        <ele>546.265</ele>
        <time>2015-03-29T11:30:07Z</time>
      </trkpt>
      <trkpt lat="41.201228" lon="-6.567792">
        <ele>546.268</ele>
        <time>2015-03-29T11:30:22Z</time>
      </trkpt>
      <trkpt lat="41.201227" lon="-6.567797">
        <ele>546.214</ele>
        <time>2015-03-29T11:30:47Z</time>
      </trkpt>
      <trkpt lat="41.201229" lon="-6.567792">
        <ele>546.207</ele>
        <time>2015-03-29T11:31:21Z</time>
      </trkpt>
      <trkpt lat="41.201232" lon="-6.567801">
        <ele>546.225</ele>
        <time>2015-03-29T11:31:50Z</time>
      </trkpt>
      <trkpt lat="41.201235" lon="-6.567818">
        <ele>546.760</ele>
        <time>2015-03-29T11:32:21Z</time>
      </trkpt>
      <trkpt lat="41.201235" lon="-6.567816">
        <ele>546.755</ele>
        <time>2015-03-29T11:32:53Z</time>
      </trkpt>
      <trkpt lat="41.201237" lon="-6.567821">
        <ele>546.759</ele>
        <time>2015-03-29T11:33:22Z</time>
      </trkpt>
      <trkpt lat="41.201225" lon="-6.567812">
        <ele>546.787</ele>
        <time>2015-03-29T11:33:44Z</time>
      </trkpt>
      <trkpt lat="41.201216" lon="-6.567796">
        <ele>546.751</ele>
        <time>2015-03-29T11:34:01Z</time>
      </trkpt>
      <trkpt lat="41.201214" lon="-6.567799">
        <ele>546.742</ele>
        <time>2015-03-29T11:34:07Z</time>
      </trkpt>
      <trkpt lat="41.201176" lon="-6.567774">
        <ele>546.746</ele>
        <time>2015-03-29T11:34:12Z</time>
      </trkpt>
      <trkpt lat="41.201094" lon="-6.567707">
        <ele>547.188</ele>
        <time>2015-03-29T11:34:20Z</time>
      </trkpt>
      <trkpt lat="41.200983" lon="-6.567655">
        <ele>547.616</ele>
        <time>2015-03-29T11:34:27Z</time>
      </trkpt>
      <trkpt lat="41.200850" lon="-6.567509">
        <ele>548.607</ele>
        <time>2015-03-29T11:34:37Z</time>
      </trkpt>
      <trkpt lat="41.200721" lon="-6.567335">
        <ele>550.043</ele>
        <time>2015-03-29T11:34:47Z</time>
      </trkpt>
      <trkpt lat="41.200678" lon="-6.567258">
        <ele>550.578</ele>
        <time>2015-03-29T11:34:51Z</time>
      </trkpt>
      <trkpt lat="41.200624" lon="-6.567072">
        <ele>551.553</ele>
        <time>2015-03-29T11:34:58Z</time>
      </trkpt>
      <trkpt lat="41.200610" lon="-6.567016">
        <ele>551.517</ele>
        <time>2015-03-29T11:35:00Z</time>
      </trkpt>
      <trkpt lat="41.200569" lon="-6.566602">
        <ele>552.445</ele>
        <time>2015-03-29T11:35:13Z</time>
      </trkpt>
      <trkpt lat="41.200498" lon="-6.566333">
        <ele>553.929</ele>
        <time>2015-03-29T11:35:23Z</time>
      </trkpt>
      <trkpt lat="41.200396" lon="-6.566161">
        <ele>554.830</ele>
        <time>2015-03-29T11:35:31Z</time>
      </trkpt>
      <trkpt lat="41.200358" lon="-6.566114">
        <ele>555.369</ele>
        <time>2015-03-29T11:35:34Z</time>
      </trkpt>
      <trkpt lat="41.200239" lon="-6.565893">
        <ele>556.704</ele>
        <time>2015-03-29T11:35:45Z</time>
      </trkpt>
      <trkpt lat="41.200136" lon="-6.565621">
        <ele>558.724</ele>
        <time>2015-03-29T11:35:57Z</time>
      </trkpt>
      <trkpt lat="41.199980" lon="-6.565447">
        <ele>560.607</ele>
        <time>2015-03-29T11:36:07Z</time>
      </trkpt>
      <trkpt lat="41.199768" lon="-6.565430">
        <ele>562.045</ele>
        <time>2015-03-29T11:36:17Z</time>
      </trkpt>
      <trkpt lat="41.199519" lon="-6.565641">
        <ele>564.050</ele>
        <time>2015-03-29T11:36:30Z</time>
      </trkpt>
      <trkpt lat="41.199330" lon="-6.565827">
        <ele>565.965</ele>
        <time>2015-03-29T11:36:41Z</time>
      </trkpt>
      <trkpt lat="41.199163" lon="-6.565964">
        <ele>567.369</ele>
        <time>2015-03-29T11:36:50Z</time>
      </trkpt>
      <trkpt lat="41.198899" lon="-6.565958">
        <ele>569.217</ele>
        <time>2015-03-29T11:37:02Z</time>
      </trkpt>
      <trkpt lat="41.198612" lon="-6.565804">
        <ele>570.791</ele>
        <time>2015-03-29T11:37:15Z</time>
      </trkpt>
      <trkpt lat="41.198336" lon="-6.565823">
        <ele>572.632</ele>
        <time>2015-03-29T11:37:27Z</time>
      </trkpt>
      <trkpt lat="41.198119" lon="-6.566005">
        <ele>574.088</ele>
        <time>2015-03-29T11:37:38Z</time>
      </trkpt>
      <trkpt lat="41.197997" lon="-6.566306">
        <ele>575.524</ele>
        <time>2015-03-29T11:37:48Z</time>
      </trkpt>
      <trkpt lat="41.198006" lon="-6.566699">
        <ele>576.926</ele>
        <time>2015-03-29T11:38:00Z</time>
      </trkpt>
      <trkpt lat="41.198089" lon="-6.566995">
        <ele>578.407</ele>
        <time>2015-03-29T11:38:10Z</time>
      </trkpt>
      <trkpt lat="41.198200" lon="-6.567349">
        <ele>580.867</ele>
        <time>2015-03-29T11:38:23Z</time>
      </trkpt>
      <trkpt lat="41.198259" lon="-6.567531">
        <ele>581.782</ele>
        <time>2015-03-29T11:38:30Z</time>
      </trkpt>
      <trkpt lat="41.198305" lon="-6.567615">
        <ele>582.247</ele>
        <time>2015-03-29T11:38:34Z</time>
      </trkpt>
      <trkpt lat="41.198413" lon="-6.567854">
        <ele>584.141</ele>
        <time>2015-03-29T11:38:45Z</time>
      </trkpt>
      <trkpt lat="41.198504" lon="-6.568113">
        <ele>586.159</ele>
        <time>2015-03-29T11:38:55Z</time>
      </trkpt>
      <trkpt lat="41.198636" lon="-6.568417">
        <ele>588.063</ele>
        <time>2015-03-29T11:39:07Z</time>
      </trkpt>
      <trkpt lat="41.198746" lon="-6.568664">
        <ele>589.984</ele>
        <time>2015-03-29T11:39:17Z</time>
      </trkpt>
      <trkpt lat="41.198888" lon="-6.568938">
        <ele>591.433</ele>
        <time>2015-03-29T11:39:28Z</time>
      </trkpt>
      <trkpt lat="41.198953" lon="-6.569278">
        <ele>592.823</ele>
        <time>2015-03-29T11:39:40Z</time>
      </trkpt>
      <trkpt lat="41.198852" lon="-6.569544">
        <ele>594.715</ele>
        <time>2015-03-29T11:39:50Z</time>
      </trkpt>
      <trkpt lat="41.198629" lon="-6.569663">
        <ele>596.207</ele>
        <time>2015-03-29T11:40:00Z</time>
      </trkpt>
      <trkpt lat="41.198273" lon="-6.569679">
        <ele>598.172</ele>
        <time>2015-03-29T11:40:14Z</time>
      </trkpt>
      <trkpt lat="41.197990" lon="-6.569767">
        <ele>599.067</ele>
        <time>2015-03-29T11:40:25Z</time>
      </trkpt>
      <trkpt lat="41.197702" lon="-6.569983">
        <ele>600.512</ele>
        <time>2015-03-29T11:40:37Z</time>
      </trkpt>
      <trkpt lat="41.197485" lon="-6.570183">
        <ele>601.926</ele>
        <time>2015-03-29T11:40:47Z</time>
      </trkpt>
      <trkpt lat="41.197275" lon="-6.570421">
        <ele>603.914</ele>
        <time>2015-03-29T11:40:58Z</time>
      </trkpt>
      <trkpt lat="41.197099" lon="-6.570690">
        <ele>605.348</ele>
        <time>2015-03-29T11:41:08Z</time>
      </trkpt>
      <trkpt lat="41.196927" lon="-6.571015">
        <ele>606.729</ele>
        <time>2015-03-29T11:41:20Z</time>
      </trkpt>
      <trkpt lat="41.196808" lon="-6.571330">
        <ele>609.149</ele>
        <time>2015-03-29T11:41:31Z</time>
      </trkpt>
      <trkpt lat="41.196727" lon="-6.571591">
        <ele>610.602</ele>
        <time>2015-03-29T11:41:40Z</time>
      </trkpt>
      <trkpt lat="41.196689" lon="-6.571848">
        <ele>612.522</ele>
        <time>2015-03-29T11:41:49Z</time>
      </trkpt>
      <trkpt lat="41.196666" lon="-6.572122">
        <ele>613.507</ele>
        <time>2015-03-29T11:41:59Z</time>
      </trkpt>
      <trkpt lat="41.196650" lon="-6.572186">
        <ele>613.923</ele>
        <time>2015-03-29T11:42:02Z</time>
      </trkpt>
      <trkpt lat="41.196735" lon="-6.572383">
        <ele>615.448</ele>
        <time>2015-03-29T11:42:12Z</time>
      </trkpt>
      <trkpt lat="41.196810" lon="-6.572501">
        <ele>615.943</ele>
        <time>2015-03-29T11:42:17Z</time>
      </trkpt>
      <trkpt lat="41.197011" lon="-6.572781">
        <ele>617.327</ele>
        <time>2015-03-29T11:42:29Z</time>
      </trkpt>
      <trkpt lat="41.197224" lon="-6.573063">
        <ele>618.895</ele>
        <time>2015-03-29T11:42:41Z</time>
      </trkpt>
      <trkpt lat="41.197434" lon="-6.573291">
        <ele>620.799</ele>
        <time>2015-03-29T11:42:52Z</time>
      </trkpt>
      <trkpt lat="41.197722" lon="-6.573393">
        <ele>622.650</ele>
        <time>2015-03-29T11:43:04Z</time>
      </trkpt>
      <trkpt lat="41.197811" lon="-6.573385">
        <ele>623.683</ele>
        <time>2015-03-29T11:43:08Z</time>
      </trkpt>
      <trkpt lat="41.197983" lon="-6.573347">
        <ele>625.025</ele>
        <time>2015-03-29T11:43:18Z</time>
      </trkpt>
      <trkpt lat="41.198029" lon="-6.573446">
        <ele>625.017</ele>
        <time>2015-03-29T11:43:25Z</time>
      </trkpt>
      <trkpt lat="41.198069" lon="-6.573583">
        <ele>626.407</ele>
        <time>2015-03-29T11:43:33Z</time>
      </trkpt>
      <trkpt lat="41.198088" lon="-6.573624">
        <ele>626.417</ele>
        <time>2015-03-29T11:43:36Z</time>
      </trkpt>
      <trkpt lat="41.198108" lon="-6.573678">
        <ele>627.482</ele>
        <time>2015-03-29T11:43:40Z</time>
      </trkpt>
      <trkpt lat="41.198131" lon="-6.573745">
        <ele>627.987</ele>
        <time>2015-03-29T11:43:44Z</time>
      </trkpt>
      <trkpt lat="41.198136" lon="-6.573804">
        <ele>627.981</ele>
        <time>2015-03-29T11:43:47Z</time>
      </trkpt>
      <trkpt lat="41.198168" lon="-6.573919">
        <ele>628.859</ele>
        <time>2015-03-29T11:43:53Z</time>
      </trkpt>
      <trkpt lat="41.198195" lon="-6.573991">
        <ele>629.363</ele>
        <time>2015-03-29T11:43:57Z</time>
      </trkpt>
      <trkpt lat="41.198217" lon="-6.574078">
        <ele>630.324</ele>
        <time>2015-03-29T11:44:03Z</time>
      </trkpt>
      <trkpt lat="41.198225" lon="-6.574111">
        <ele>630.321</ele>
        <time>2015-03-29T11:44:05Z</time>
      </trkpt>
      <trkpt lat="41.198235" lon="-6.574192">
        <ele>630.841</ele>
        <time>2015-03-29T11:44:10Z</time>
      </trkpt>
      <trkpt lat="41.198247" lon="-6.574317">
        <ele>631.205</ele>
        <time>2015-03-29T11:44:17Z</time>
      </trkpt>
      <trkpt lat="41.198255" lon="-6.574423">
        <ele>632.207</ele>
        <time>2015-03-29T11:44:22Z</time>
      </trkpt>
      <trkpt lat="41.198258" lon="-6.574478">
        <ele>633.291</ele>
        <time>2015-03-29T11:44:29Z</time>
      </trkpt>
      <trkpt lat="41.198269" lon="-6.574562">
        <ele>634.646</ele>
        <time>2015-03-29T11:44:36Z</time>
      </trkpt>
      <trkpt lat="41.198266" lon="-6.574658">
        <ele>635.131</ele>
        <time>2015-03-29T11:44:45Z</time>
      </trkpt>
      <trkpt lat="41.198275" lon="-6.574737">
        <ele>636.515</ele>
        <time>2015-03-29T11:44:55Z</time>
      </trkpt>
      <trkpt lat="41.198280" lon="-6.574747">
        <ele>636.543</ele>
        <time>2015-03-29T11:45:01Z</time>
      </trkpt>
      <trkpt lat="41.198289" lon="-6.574775">
        <ele>637.087</ele>
        <time>2015-03-29T11:45:04Z</time>
      </trkpt>
      <trkpt lat="41.198301" lon="-6.574854">
        <ele>637.528</ele>
        <time>2015-03-29T11:45:09Z</time>
      </trkpt>
      <trkpt lat="41.198320" lon="-6.574876">
        <ele>638.053</ele>
        <time>2015-03-29T11:45:18Z</time>
      </trkpt>
      <trkpt lat="41.198327" lon="-6.574901">
        <ele>638.504</ele>
        <time>2015-03-29T11:45:30Z</time>
      </trkpt>
      <trkpt lat="41.198344" lon="-6.574940">
        <ele>638.914</ele>
        <time>2015-03-29T11:45:34Z</time>
      </trkpt>
      <trkpt lat="41.198388" lon="-6.575091">
        <ele>640.407</ele>
        <time>2015-03-29T11:45:46Z</time>
      </trkpt>
      <trkpt lat="41.198400" lon="-6.575160">
        <ele>640.944</ele>
        <time>2015-03-29T11:45:56Z</time>
      </trkpt>
      <trkpt lat="41.198405" lon="-6.575173">
        <ele>641.349</ele>
        <time>2015-03-29T11:46:05Z</time>
      </trkpt>
      <trkpt lat="41.198427" lon="-6.575274">
        <ele>642.324</ele>
        <time>2015-03-29T11:46:15Z</time>
      </trkpt>
      <trkpt lat="41.198435" lon="-6.575314">
        <ele>642.848</ele>
        <time>2015-03-29T11:46:21Z</time>
      </trkpt>
      <trkpt lat="41.198452" lon="-6.575404">
        <ele>644.276</ele>
        <time>2015-03-29T11:46:30Z</time>
      </trkpt>
      <trkpt lat="41.198475" lon="-6.575505">
        <ele>645.740</ele>
        <time>2015-03-29T11:46:42Z</time>
      </trkpt>
      <trkpt lat="41.198513" lon="-6.575563">
        <ele>646.631</ele>
        <time>2015-03-29T11:46:53Z</time>
      </trkpt>
      <trkpt lat="41.198532" lon="-6.575587">
        <ele>647.635</ele>
        <time>2015-03-29T11:47:02Z</time>
      </trkpt>
      <trkpt lat="41.198545" lon="-6.575635">
        <ele>648.186</ele>
        <time>2015-03-29T11:47:09Z</time>
      </trkpt>
      <trkpt lat="41.198546" lon="-6.575676">
        <ele>649.014</ele>
        <time>2015-03-29T11:47:16Z</time>
      </trkpt>
      <trkpt lat="41.198552" lon="-6.575685">
        <ele>649.507</ele>
        <time>2015-03-29T11:47:30Z</time>
      </trkpt>
      <trkpt lat="41.198554" lon="-6.575712">
        <ele>650.042</ele>
        <time>2015-03-29T11:47:46Z</time>
      </trkpt>
      <trkpt lat="41.198564" lon="-6.575751">
        <ele>651.497</ele>
        <time>2015-03-29T11:47:54Z</time>
      </trkpt>
      <trkpt lat="41.198581" lon="-6.575829">
        <ele>652.462</ele>
        <time>2015-03-29T11:48:02Z</time>
      </trkpt>
      <trkpt lat="41.198597" lon="-6.575903">
        <ele>653.856</ele>
        <time>2015-03-29T11:48:11Z</time>
      </trkpt>
      <trkpt lat="41.198618" lon="-6.575935">
        <ele>654.334</ele>
        <time>2015-03-29T11:48:21Z</time>
      </trkpt>
      <trkpt lat="41.198615" lon="-6.576034">
        <ele>655.858</ele>
        <time>2015-03-29T11:48:32Z</time>
      </trkpt>
      <trkpt lat="41.198624" lon="-6.576129">
        <ele>657.259</ele>
        <time>2015-03-29T11:48:42Z</time>
      </trkpt>
      <trkpt lat="41.198636" lon="-6.576216">
        <ele>658.213</ele>
        <time>2015-03-29T11:48:52Z</time>
      </trkpt>
      <trkpt lat="41.198622" lon="-6.576341">
        <ele>659.643</ele>
        <time>2015-03-29T11:49:03Z</time>
      </trkpt>
      <trkpt lat="41.198614" lon="-6.576423">
        <ele>661.007</ele>
        <time>2015-03-29T11:49:12Z</time>
      </trkpt>
      <trkpt lat="41.198631" lon="-6.576537">
        <ele>661.507</ele>
        <time>2015-03-29T11:49:24Z</time>
      </trkpt>
      <trkpt lat="41.198585" lon="-6.576628">
        <ele>663.050</ele>
        <time>2015-03-29T11:49:36Z</time>
      </trkpt>
      <trkpt lat="41.198579" lon="-6.576654">
        <ele>663.085</ele>
        <time>2015-03-29T11:49:44Z</time>
      </trkpt>
      <trkpt lat="41.198580" lon="-6.576656">
        <ele>663.020</ele>
        <time>2015-03-29T11:49:57Z</time>
      </trkpt>
      <trkpt lat="41.198572" lon="-6.576674">
        <ele>663.094</ele>
        <time>2015-03-29T11:50:10Z</time>
      </trkpt>
      <trkpt lat="41.198579" lon="-6.576696">
        <ele>663.032</ele>
        <time>2015-03-29T11:50:12Z</time>
      </trkpt>
      <trkpt lat="41.198586" lon="-6.576724">
        <ele>663.096</ele>
        <time>2015-03-29T11:50:14Z</time>
      </trkpt>
      <trkpt lat="41.198623" lon="-6.576812">
        <ele>663.557</ele>
        <time>2015-03-29T11:50:20Z</time>
      </trkpt>
      <trkpt lat="41.198686" lon="-6.577037">
        <ele>665.489</ele>
        <time>2015-03-29T11:50:34Z</time>
      </trkpt>
      <trkpt lat="41.198716" lon="-6.577117">
        <ele>665.406</ele>
        <time>2015-03-29T11:50:39Z</time>
      </trkpt>
      <trkpt lat="41.198820" lon="-6.577465">
        <ele>664.426</ele>
        <time>2015-03-29T11:50:52Z</time>
      </trkpt>
      <trkpt lat="41.198862" lon="-6.577933">
        <ele>663.507</ele>
        <time>2015-03-29T11:51:03Z</time>
      </trkpt>
      <trkpt lat="41.198920" lon="-6.578371">
        <ele>663.077</ele>
        <time>2015-03-29T11:51:13Z</time>
      </trkpt>
      <trkpt lat="41.199031" lon="-6.578897">
        <ele>663.082</ele>
        <time>2015-03-29T11:51:25Z</time>
      </trkpt>
      <trkpt lat="41.199138" lon="-6.579494">
        <ele>663.517</ele>
        <time>2015-03-29T11:51:38Z</time>
      </trkpt>
      <trkpt lat="41.199293" lon="-6.579983">
        <ele>663.981</ele>
        <time>2015-03-29T11:51:50Z</time>
      </trkpt>
      <trkpt lat="41.199465" lon="-6.580161">
        <ele>665.949</ele>
        <time>2015-03-29T11:51:59Z</time>
      </trkpt>
      <trkpt lat="41.199607" lon="-6.580438">
        <ele>666.383</ele>
        <time>2015-03-29T11:52:09Z</time>
      </trkpt>
      <trkpt lat="41.199741" lon="-6.580852">
        <ele>668.374</ele>
        <time>2015-03-29T11:52:22Z</time>
      </trkpt>
      <trkpt lat="41.199875" lon="-6.581246">
        <ele>670.216</ele>
        <time>2015-03-29T11:52:34Z</time>
      </trkpt>
      <trkpt lat="41.199993" lon="-6.581593">
        <ele>671.176</ele>
        <time>2015-03-29T11:52:45Z</time>
      </trkpt>
      <trkpt lat="41.200136" lon="-6.582013">
        <ele>673.113</ele>
        <time>2015-03-29T11:52:59Z</time>
      </trkpt>
      <trkpt lat="41.200229" lon="-6.582343">
        <ele>674.507</ele>
        <time>2015-03-29T11:53:10Z</time>
      </trkpt>
      <trkpt lat="41.200202" lon="-6.582462">
        <ele>675.020</ele>
        <time>2015-03-29T11:53:16Z</time>
      </trkpt>
      <trkpt lat="41.200177" lon="-6.582512">
        <ele>675.515</ele>
        <time>2015-03-29T11:53:19Z</time>
      </trkpt>
      <trkpt lat="41.200146" lon="-6.582591">
        <ele>675.570</ele>
        <time>2015-03-29T11:53:27Z</time>
      </trkpt>
      <trkpt lat="41.200135" lon="-6.582594">
        <ele>675.524</ele>
        <time>2015-03-29T11:53:36Z</time>
      </trkpt>
      <trkpt lat="41.200142" lon="-6.582572">
        <ele>675.592</ele>
        <time>2015-03-29T11:53:45Z</time>
      </trkpt>
      <trkpt lat="41.200142" lon="-6.582567">
        <ele>675.536</ele>
        <time>2015-03-29T11:53:53Z</time>
      </trkpt>
      <trkpt lat="41.200114" lon="-6.582684">
        <ele>675.597</ele>
        <time>2015-03-29T11:54:04Z</time>
      </trkpt>
      <trkpt lat="41.200098" lon="-6.582689">
        <ele>675.519</ele>
        <time>2015-03-29T11:54:24Z</time>
      </trkpt>
      <trkpt lat="41.200102" lon="-6.582694">
        <ele>675.509</ele>
        <time>2015-03-29T11:54:43Z</time>
      </trkpt>
      <trkpt lat="41.200101" lon="-6.582694">
        <ele>675.019</ele>
        <time>2015-03-29T11:55:02Z</time>
      </trkpt>
      <trkpt lat="41.200094" lon="-6.582681">
        <ele>675.007</ele>
        <time>2015-03-29T11:55:25Z</time>
      </trkpt>
      <trkpt lat="41.200091" lon="-6.582671">
        <ele>675.050</ele>
        <time>2015-03-29T11:55:42Z</time>
      </trkpt>
      <trkpt lat="41.200095" lon="-6.582650">
        <ele>675.025</ele>
        <time>2015-03-29T11:56:04Z</time>
      </trkpt>
      <trkpt lat="41.200091" lon="-6.582648">
        <ele>675.040</ele>
        <time>2015-03-29T11:56:30Z</time>
      </trkpt>
      <trkpt lat="41.200088" lon="-6.582652">
        <ele>675.524</ele>
        <time>2015-03-29T11:56:52Z</time>
      </trkpt>
      <trkpt lat="41.200087" lon="-6.582641">
        <ele>675.532</ele>
        <time>2015-03-29T11:57:14Z</time>
      </trkpt>
      <trkpt lat="41.200085" lon="-6.582642">
        <ele>675.046</ele>
        <time>2015-03-29T11:57:28Z</time>
      </trkpt>
      <trkpt lat="41.200089" lon="-6.582638">
        <ele>675.017</ele>
        <time>2015-03-29T11:57:38Z</time>
      </trkpt>
      <trkpt lat="41.200209" lon="-6.582566">
        <ele>674.535</ele>
        <time>2015-03-29T11:57:46Z</time>
      </trkpt>
      <trkpt lat="41.200281" lon="-6.582551">
        <ele>674.586</ele>
        <time>2015-03-29T11:57:49Z</time>
      </trkpt>
      <trkpt lat="41.200523" lon="-6.582892">
        <ele>674.514</ele>
        <time>2015-03-29T11:58:00Z</time>
      </trkpt>
      <trkpt lat="41.200768" lon="-6.583409">
        <ele>674.507</ele>
        <time>2015-03-29T11:58:13Z</time>
      </trkpt>
      <trkpt lat="41.200988" lon="-6.583866">
        <ele>675.012</ele>
        <time>2015-03-29T11:58:25Z</time>
      </trkpt>
      <trkpt lat="41.201176" lon="-6.584259">
        <ele>676.927</ele>
        <time>2015-03-29T11:58:37Z</time>
      </trkpt>
      <trkpt lat="41.201362" lon="-6.584587">
        <ele>677.932</ele>
        <time>2015-03-29T11:58:48Z</time>
      </trkpt>
      <trkpt lat="41.201502" lon="-6.584788">
        <ele>679.836</ele>
        <time>2015-03-29T11:58:56Z</time>
      </trkpt>
      <trkpt lat="41.201671" lon="-6.584993">
        <ele>681.724</ele>
        <time>2015-03-29T11:59:05Z</time>
      </trkpt>
      <trkpt lat="41.201817" lon="-6.585182">
        <ele>683.678</ele>
        <time>2015-03-29T11:59:13Z</time>
      </trkpt>
      <trkpt lat="41.201995" lon="-6.585392">
        <ele>685.199</ele>
        <time>2015-03-29T11:59:25Z</time>
      </trkpt>
      <trkpt lat="41.202007" lon="-6.585414">
        <ele>685.185</ele>
        <time>2015-03-29T11:59:26Z</time>
      </trkpt>
      <trkpt lat="41.202141" lon="-6.585627">
        <ele>685.689</ele>
        <time>2015-03-29T11:59:34Z</time>
      </trkpt>
      <trkpt lat="41.202327" lon="-6.585996">
        <ele>686.517</ele>
        <time>2015-03-29T11:59:47Z</time>
      </trkpt>
      <trkpt lat="41.202457" lon="-6.586275">
        <ele>687.007</ele>
        <time>2015-03-29T11:59:57Z</time>
      </trkpt>
      <trkpt lat="41.202577" lon="-6.586575">
        <ele>686.587</ele>
        <time>2015-03-29T12:00:06Z</time>
      </trkpt>
      <trkpt lat="41.202751" lon="-6.586973">
        <ele>686.092</ele>
        <time>2015-03-29T12:00:16Z</time>
      </trkpt>
      <trkpt lat="41.202967" lon="-6.587422">
        <ele>685.157</ele>
        <time>2015-03-29T12:00:27Z</time>
      </trkpt>
      <trkpt lat="41.203148" lon="-6.587832">
        <ele>685.611</ele>
        <time>2015-03-29T12:00:38Z</time>
      </trkpt>
      <trkpt lat="41.203319" lon="-6.588212">
        <ele>686.069</ele>
        <time>2015-03-29T12:00:49Z</time>
      </trkpt>
      <trkpt lat="41.203425" lon="-6.588507">
        <ele>687.013</ele>
        <time>2015-03-29T12:00:57Z</time>
      </trkpt>
      <trkpt lat="41.203546" lon="-6.588816">
        <ele>688.074</ele>
        <time>2015-03-29T12:01:06Z</time>
      </trkpt>
      <trkpt lat="41.203663" lon="-6.588876">
        <ele>688.446</ele>
        <time>2015-03-29T12:01:11Z</time>
      </trkpt>
      <trkpt lat="41.203846" lon="-6.588794">
        <ele>687.088</ele>
        <time>2015-03-29T12:01:20Z</time>
      </trkpt>
      <trkpt lat="41.203845" lon="-6.588811">
        <ele>687.016</ele>
        <time>2015-03-29T12:01:29Z</time>
      </trkpt>
      <trkpt lat="41.203844" lon="-6.588812">
        <ele>685.107</ele>
        <time>2015-03-29T12:01:35Z</time>
      </trkpt>
      <trkpt lat="41.203820" lon="-6.588745">
        <ele>687.063</ele>
        <time>2015-03-29T12:17:05Z</time>
      </trkpt>
      <trkpt lat="41.203804" lon="-6.588755">
        <ele>687.048</ele>
        <time>2015-03-29T12:17:06Z</time>
      </trkpt>
      <trkpt lat="41.203792" lon="-6.588791">
        <ele>686.553</ele>
        <time>2015-03-29T12:17:08Z</time>
      </trkpt>
      <trkpt lat="41.203753" lon="-6.588877">
        <ele>687.537</ele>
        <time>2015-03-29T12:17:14Z</time>
      </trkpt>
      <trkpt lat="41.203734" lon="-6.588966">
        <ele>688.085</ele>
        <time>2015-03-29T12:17:18Z</time>
      </trkpt>
      <trkpt lat="41.203712" lon="-6.589180">
        <ele>682.799</ele>
        <time>2015-03-29T12:17:27Z</time>
      </trkpt>
      <trkpt lat="41.203703" lon="-6.589220">
        <ele>689.430</ele>
        <time>2015-03-29T12:17:29Z</time>
      </trkpt>
      <trkpt lat="41.203797" lon="-6.589356">
        <ele>688.034</ele>
        <time>2015-03-29T12:17:36Z</time>
      </trkpt>
      <trkpt lat="41.203986" lon="-6.589439">
        <ele>688.055</ele>
        <time>2015-03-29T12:17:43Z</time>
      </trkpt>
      <trkpt lat="41.204373" lon="-6.589859">
        <ele>685.610</ele>
        <time>2015-03-29T12:17:54Z</time>
      </trkpt>
      <trkpt lat="41.204514" lon="-6.590045">
        <ele>684.107</ele>
        <time>2015-03-29T12:17:58Z</time>
      </trkpt>
      <trkpt lat="41.204830" lon="-6.590844">
        <ele>680.882</ele>
        <time>2015-03-29T12:18:10Z</time>
      </trkpt>
      <trkpt lat="41.205061" lon="-6.591517">
        <ele>679.837</ele>
        <time>2015-03-29T12:18:20Z</time>
      </trkpt>
      <trkpt lat="41.205104" lon="-6.591617">
        <ele>680.362</ele>
        <time>2015-03-29T12:18:22Z</time>
      </trkpt>
      <trkpt lat="41.205285" lon="-6.591797">
        <ele>681.716</ele>
        <time>2015-03-29T12:18:28Z</time>
      </trkpt>
      <trkpt lat="41.205564" lon="-6.591832">
        <ele>683.634</ele>
        <time>2015-03-29T12:18:36Z</time>
      </trkpt>
      <trkpt lat="41.205890" lon="-6.591820">
        <ele>685.688</ele>
        <time>2015-03-29T12:18:46Z</time>
      </trkpt>
      <trkpt lat="41.205920" lon="-6.591819">
        <ele>685.629</ele>
        <time>2015-03-29T12:18:47Z</time>
      </trkpt>
      <trkpt lat="41.205965" lon="-6.591822">
        <ele>686.087</ele>
        <time>2015-03-29T12:18:49Z</time>
      </trkpt>
      <trkpt lat="41.206183" lon="-6.591816">
        <ele>687.542</ele>
        <time>2015-03-29T12:18:58Z</time>
      </trkpt>
      <trkpt lat="41.206624" lon="-6.591826">
        <ele>688.026</ele>
        <time>2015-03-29T12:19:11Z</time>
      </trkpt>
      <trkpt lat="41.207066" lon="-6.591903">
        <ele>689.907</ele>
        <time>2015-03-29T12:19:23Z</time>
      </trkpt>
      <trkpt lat="41.207290" lon="-6.591982">
        <ele>690.457</ele>
        <time>2015-03-29T12:19:30Z</time>
      </trkpt>
      <trkpt lat="41.207457" lon="-6.591994">
        <ele>690.492</ele>
        <time>2015-03-29T12:19:36Z</time>
      </trkpt>
      <trkpt lat="41.207933" lon="-6.592328">
        <ele>691.377</ele>
        <time>2015-03-29T12:19:51Z</time>
      </trkpt>
      <trkpt lat="41.208340" lon="-6.592629">
        <ele>692.381</ele>
        <time>2015-03-29T12:20:03Z</time>
      </trkpt>
      <trkpt lat="41.208736" lon="-6.592949">
        <ele>694.289</ele>
        <time>2015-03-29T12:20:16Z</time>
      </trkpt>
      <trkpt lat="41.209105" lon="-6.593234">
        <ele>696.693</ele>
        <time>2015-03-29T12:20:29Z</time>
      </trkpt>
      <trkpt lat="41.209343" lon="-6.593431">
        <ele>698.164</ele>
        <time>2015-03-29T12:20:38Z</time>
      </trkpt>
      <trkpt lat="41.209569" lon="-6.593661">
        <ele>699.051</ele>
        <time>2015-03-29T12:20:47Z</time>
      </trkpt>
      <trkpt lat="41.209819" lon="-6.594046">
        <ele>699.001</ele>
        <time>2015-03-29T12:20:58Z</time>
      </trkpt>
      <trkpt lat="41.210103" lon="-6.594650">
        <ele>698.111</ele>
        <time>2015-03-29T12:21:11Z</time>
      </trkpt>
      <trkpt lat="41.210389" lon="-6.595252">
        <ele>698.107</ele>
        <time>2015-03-29T12:21:23Z</time>
      </trkpt>
      <trkpt lat="41.210714" lon="-6.595907">
        <ele>698.184</ele>
        <time>2015-03-29T12:21:36Z</time>
      </trkpt>
      <trkpt lat="41.210811" lon="-6.596104">
        <ele>698.169</ele>
        <time>2015-03-29T12:21:40Z</time>
      </trkpt>
      <trkpt lat="41.210989" lon="-6.596470">
        <ele>699.014</ele>
        <time>2015-03-29T12:21:48Z</time>
      </trkpt>
      <trkpt lat="41.211291" lon="-6.597088">
        <ele>699.558</ele>
        <time>2015-03-29T12:22:01Z</time>
      </trkpt>
      <trkpt lat="41.211573" lon="-6.597679">
        <ele>700.016</ele>
        <time>2015-03-29T12:22:13Z</time>
      </trkpt>
      <trkpt lat="41.211882" lon="-6.598317">
        <ele>700.930</ele>
        <time>2015-03-29T12:22:27Z</time>
      </trkpt>
      <trkpt lat="41.211925" lon="-6.598408">
        <ele>701.431</ele>
        <time>2015-03-29T12:22:29Z</time>
      </trkpt>
      <trkpt lat="41.212238" lon="-6.599027">
        <ele>700.944</ele>
        <time>2015-03-29T12:22:42Z</time>
      </trkpt>
      <trkpt lat="41.212493" lon="-6.599545">
        <ele>701.405</ele>
        <time>2015-03-29T12:22:53Z</time>
      </trkpt>
      <trkpt lat="41.212747" lon="-6.600085">
        <ele>703.815</ele>
        <time>2015-03-29T12:23:05Z</time>
      </trkpt>
      <trkpt lat="41.212987" lon="-6.600591">
        <ele>706.207</ele>
        <time>2015-03-29T12:23:17Z</time>
      </trkpt>
      <trkpt lat="41.213198" lon="-6.601026">
        <ele>707.263</ele>
        <time>2015-03-29T12:23:28Z</time>
      </trkpt>
      <trkpt lat="41.213451" lon="-6.601541">
        <ele>707.228</ele>
        <time>2015-03-29T12:23:39Z</time>
      </trkpt>
      <trkpt lat="41.213718" lon="-6.602085">
        <ele>705.813</ele>
        <time>2015-03-29T12:23:49Z</time>
      </trkpt>
      <trkpt lat="41.213940" lon="-6.602549">
        <ele>707.247</ele>
        <time>2015-03-29T12:24:00Z</time>
      </trkpt>
      <trkpt lat="41.214205" lon="-6.603115">
        <ele>707.745</ele>
        <time>2015-03-29T12:24:13Z</time>
      </trkpt>
      <trkpt lat="41.214276" lon="-6.603244">
        <ele>707.289</ele>
        <time>2015-03-29T12:24:16Z</time>
      </trkpt>
      <trkpt lat="41.214511" lon="-6.603723">
        <ele>706.740</ele>
        <time>2015-03-29T12:24:27Z</time>
      </trkpt>
      <trkpt lat="41.214770" lon="-6.604210">
        <ele>704.351</ele>
        <time>2015-03-29T12:24:37Z</time>
      </trkpt>
      <trkpt lat="41.214802" lon="-6.604271">
        <ele>704.301</ele>
        <time>2015-03-29T12:24:38Z</time>
      </trkpt>
      <trkpt lat="41.215110" lon="-6.604825">
        <ele>703.311</ele>
        <time>2015-03-29T12:24:47Z</time>
      </trkpt>
      <trkpt lat="41.215325" lon="-6.605280">
        <ele>706.207</ele>
        <time>2015-03-29T12:24:57Z</time>
      </trkpt>
      <trkpt lat="41.215433" lon="-6.605584">
        <ele>707.774</ele>
        <time>2015-03-29T12:25:05Z</time>
      </trkpt>
      <trkpt lat="41.215683" lon="-6.606039">
        <ele>710.149</ele>
        <time>2015-03-29T12:25:17Z</time>
      </trkpt>
      <trkpt lat="41.215891" lon="-6.606434">
        <ele>712.564</ele>
        <time>2015-03-29T12:25:28Z</time>
      </trkpt>
      <trkpt lat="41.216089" lon="-6.606797">
        <ele>714.498</ele>
        <time>2015-03-29T12:25:39Z</time>
      </trkpt>
      <trkpt lat="41.216196" lon="-6.607047">
        <ele>714.996</ele>
        <time>2015-03-29T12:25:46Z</time>
      </trkpt>
      <trkpt lat="41.216311" lon="-6.607387">
        <ele>714.420</ele>
        <time>2015-03-29T12:25:53Z</time>
      </trkpt>
      <trkpt lat="41.216492" lon="-6.607869">
        <ele>713.071</ele>
        <time>2015-03-29T12:26:02Z</time>
      </trkpt>
      <trkpt lat="41.216752" lon="-6.608603">
        <ele>710.684</ele>
        <time>2015-03-29T12:26:14Z</time>
      </trkpt>
      <trkpt lat="41.216982" lon="-6.609243">
        <ele>709.607</ele>
        <time>2015-03-29T12:26:24Z</time>
      </trkpt>
      <trkpt lat="41.217201" lon="-6.609885">
        <ele>705.817</ele>
        <time>2015-03-29T12:26:34Z</time>
      </trkpt>
      <trkpt lat="41.217279" lon="-6.610123">
        <ele>707.707</ele>
        <time>2015-03-29T12:26:38Z</time>
      </trkpt>
      <trkpt lat="41.217369" lon="-6.610401">
        <ele>707.297</ele>
        <time>2015-03-29T12:26:43Z</time>
      </trkpt>
      <trkpt lat="41.217430" lon="-6.610634">
        <ele>706.782</ele>
        <time>2015-03-29T12:26:47Z</time>
      </trkpt>
      <trkpt lat="41.217559" lon="-6.611228">
        <ele>705.827</ele>
        <time>2015-03-29T12:26:57Z</time>
      </trkpt>
      <trkpt lat="41.217579" lon="-6.611350">
        <ele>705.891</ele>
        <time>2015-03-29T12:26:59Z</time>
      </trkpt>
      <trkpt lat="41.217618" lon="-6.611534">
        <ele>705.819</ele>
        <time>2015-03-29T12:27:02Z</time>
      </trkpt>
      <trkpt lat="41.217664" lon="-6.611780">
        <ele>705.813</ele>
        <time>2015-03-29T12:27:06Z</time>
      </trkpt>
      <trkpt lat="41.217712" lon="-6.612087">
        <ele>706.264</ele>
        <time>2015-03-29T12:27:11Z</time>
      </trkpt>
      <trkpt lat="41.217739" lon="-6.612214">
        <ele>706.292</ele>
        <time>2015-03-29T12:27:13Z</time>
      </trkpt>
      <trkpt lat="41.217769" lon="-6.612452">
        <ele>705.873</ele>
        <time>2015-03-29T12:27:17Z</time>
      </trkpt>
      <trkpt lat="41.217806" lon="-6.612706">
        <ele>705.820</ele>
        <time>2015-03-29T12:27:21Z</time>
      </trkpt>
      <trkpt lat="41.217824" lon="-6.613117">
        <ele>704.807</ele>
        <time>2015-03-29T12:27:27Z</time>
      </trkpt>
      <trkpt lat="41.217793" lon="-6.613865">
        <ele>703.338</ele>
        <time>2015-03-29T12:27:39Z</time>
      </trkpt>
      <trkpt lat="41.217751" lon="-6.614192">
        <ele>703.363</ele>
        <time>2015-03-29T12:27:45Z</time>
      </trkpt>
      <trkpt lat="41.217713" lon="-6.614527">
        <ele>701.958</ele>
        <time>2015-03-29T12:27:51Z</time>
      </trkpt>
      <trkpt lat="41.217689" lon="-6.614689">
        <ele>701.972</ele>
        <time>2015-03-29T12:27:54Z</time>
      </trkpt>
      <trkpt lat="41.217624" lon="-6.614660">
        <ele>701.940</ele>
        <time>2015-03-29T12:27:59Z</time>
      </trkpt>
      <trkpt lat="41.217623" lon="-6.614613">
        <ele>701.914</ele>
        <time>2015-03-29T12:28:00Z</time>
      </trkpt>
      <trkpt lat="41.217621" lon="-6.614468">
        <ele>702.985</ele>
        <time>2015-03-29T12:28:04Z</time>
      </trkpt>
      <trkpt lat="41.217515" lon="-6.614324">
        <ele>703.888</ele>
        <time>2015-03-29T12:28:11Z</time>
      </trkpt>
      <trkpt lat="41.217279" lon="-6.614201">
        <ele>704.824</ele>
        <time>2015-03-29T12:28:20Z</time>
      </trkpt>
      <trkpt lat="41.217157" lon="-6.614151">
        <ele>708.226</ele>
        <time>2015-03-29T12:28:26Z</time>
      </trkpt>
      <trkpt lat="41.216955" lon="-6.614077">
        <ele>710.107</ele>
        <time>2015-03-29T12:28:35Z</time>
      </trkpt>
      <trkpt lat="41.216691" lon="-6.614007">
        <ele>712.537</ele>
        <time>2015-03-29T12:28:47Z</time>
      </trkpt>
      <trkpt lat="41.216506" lon="-6.613989">
        <ele>714.442</ele>
        <time>2015-03-29T12:28:57Z</time>
      </trkpt>
      <trkpt lat="41.216490" lon="-6.613990">
        <ele>714.987</ele>
        <time>2015-03-29T12:28:58Z</time>
      </trkpt>
      <trkpt lat="41.216282" lon="-6.614118">
        <ele>716.351</ele>
        <time>2015-03-29T12:29:10Z</time>
      </trkpt>
      <trkpt lat="41.216060" lon="-6.614274">
        <ele>718.799</ele>
        <time>2015-03-29T12:29:24Z</time>
      </trkpt>
      <trkpt lat="41.215988" lon="-6.614303">
        <ele>719.763</ele>
        <time>2015-03-29T12:29:28Z</time>
      </trkpt>
      <trkpt lat="41.215826" lon="-6.614410">
        <ele>721.144</ele>
        <time>2015-03-29T12:29:37Z</time>
      </trkpt>
      <trkpt lat="41.215606" lon="-6.614624">
        <ele>722.678</ele>
        <time>2015-03-29T12:29:50Z</time>
      </trkpt>
      <trkpt lat="41.215459" lon="-6.614902">
        <ele>724.033</ele>
        <time>2015-03-29T12:30:01Z</time>
      </trkpt>
      <trkpt lat="41.215287" lon="-6.615232">
        <ele>725.926</ele>
        <time>2015-03-29T12:30:14Z</time>
      </trkpt>
      <trkpt lat="41.215142" lon="-6.615492">
        <ele>727.907</ele>
        <time>2015-03-29T12:30:24Z</time>
      </trkpt>
      <trkpt lat="41.215008" lon="-6.615752">
        <ele>729.846</ele>
        <time>2015-03-29T12:30:35Z</time>
      </trkpt>
      <trkpt lat="41.214841" lon="-6.616051">
        <ele>731.711</ele>
        <time>2015-03-29T12:30:47Z</time>
      </trkpt>
      <trkpt lat="41.214655" lon="-6.616281">
        <ele>732.766</ele>
        <time>2015-03-29T12:30:58Z</time>
      </trkpt>
      <trkpt lat="41.214410" lon="-6.616500">
        <ele>734.140</ele>
        <time>2015-03-29T12:31:10Z</time>
      </trkpt>
      <trkpt lat="41.214188" lon="-6.616715">
        <ele>736.578</ele>
        <time>2015-03-29T12:31:22Z</time>
      </trkpt>
      <trkpt lat="41.213977" lon="-6.616917">
        <ele>738.092</ele>
        <time>2015-03-29T12:31:34Z</time>
      </trkpt>
      <trkpt lat="41.213738" lon="-6.617093">
        <ele>739.433</ele>
        <time>2015-03-29T12:31:46Z</time>
      </trkpt>
      <trkpt lat="41.213527" lon="-6.617246">
        <ele>738.411</ele>
        <time>2015-03-29T12:31:53Z</time>
      </trkpt>
      <trkpt lat="41.213146" lon="-6.617498">
        <ele>738.421</ele>
        <time>2015-03-29T12:32:04Z</time>
      </trkpt>
      <trkpt lat="41.212981" lon="-6.617975">
        <ele>739.403</ele>
        <time>2015-03-29T12:32:15Z</time>
      </trkpt>
      <trkpt lat="41.212844" lon="-6.618417">
        <ele>740.807</ele>
        <time>2015-03-29T12:32:26Z</time>
      </trkpt>
      <trkpt lat="41.212730" lon="-6.618612">
        <ele>740.470</ele>
        <time>2015-03-29T12:32:31Z</time>
      </trkpt>
      <trkpt lat="41.212306" lon="-6.619200">
        <ele>739.435</ele>
        <time>2015-03-29T12:32:44Z</time>
      </trkpt>
      <trkpt lat="41.211913" lon="-6.619746">
        <ele>738.480</ele>
        <time>2015-03-29T12:32:55Z</time>
      </trkpt>
      <trkpt lat="41.211878" lon="-6.619787">
        <ele>738.944</ele>
        <time>2015-03-29T12:32:56Z</time>
      </trkpt>
      <trkpt lat="41.211735" lon="-6.619921">
        <ele>738.992</ele>
        <time>2015-03-29T12:33:00Z</time>
      </trkpt>
      <trkpt lat="41.211237" lon="-6.620227">
        <ele>738.026</ele>
        <time>2015-03-29T12:33:12Z</time>
      </trkpt>
      <trkpt lat="41.211099" lon="-6.620293">
        <ele>738.067</ele>
        <time>2015-03-29T12:33:15Z</time>
      </trkpt>
      <trkpt lat="41.210708" lon="-6.620506">
        <ele>736.011</ele>
        <time>2015-03-29T12:33:23Z</time>
      </trkpt>
      <trkpt lat="41.210521" lon="-6.620790">
        <ele>735.121</ele>
        <time>2015-03-29T12:33:29Z</time>
      </trkpt>
      <trkpt lat="41.210519" lon="-6.621093">
        <ele>735.103</ele>
        <time>2015-03-29T12:33:34Z</time>
      </trkpt>
      <trkpt lat="41.210477" lon="-6.621344">
        <ele>735.607</ele>
        <time>2015-03-29T12:33:38Z</time>
      </trkpt>
      <trkpt lat="41.210471" lon="-6.621459">
        <ele>736.070</ele>
        <time>2015-03-29T12:33:40Z</time>
      </trkpt>
      <trkpt lat="41.210433" lon="-6.621739">
        <ele>736.065</ele>
        <time>2015-03-29T12:33:45Z</time>
      </trkpt>
      <trkpt lat="41.210326" lon="-6.622471">
        <ele>735.690</ele>
        <time>2015-03-29T12:33:58Z</time>
      </trkpt>
      <trkpt lat="41.210206" lon="-6.623348">
        <ele>732.754</ele>
        <time>2015-03-29T12:34:11Z</time>
      </trkpt>
      <trkpt lat="41.210081" lon="-6.624284">
        <ele>729.862</ele>
        <time>2015-03-29T12:34:24Z</time>
      </trkpt>
      <trkpt lat="41.210005" lon="-6.624556">
        <ele>729.366</ele>
        <time>2015-03-29T12:34:28Z</time>
      </trkpt>
      <trkpt lat="41.209661" lon="-6.625388">
        <ele>725.957</ele>
        <time>2015-03-29T12:34:39Z</time>
      </trkpt>
      <trkpt lat="41.209563" lon="-6.625626">
        <ele>724.574</ele>
        <time>2015-03-29T12:34:42Z</time>
      </trkpt>
      <trkpt lat="41.209206" lon="-6.626575">
        <ele>723.156</ele>
        <time>2015-03-29T12:34:55Z</time>
      </trkpt>
      <trkpt lat="41.209087" lon="-6.627093">
        <ele>722.621</ele>
        <time>2015-03-29T12:35:02Z</time>
      </trkpt>
      <trkpt lat="41.208904" lon="-6.628228">
        <ele>720.707</ele>
        <time>2015-03-29T12:35:17Z</time>
      </trkpt>
      <trkpt lat="41.208798" lon="-6.628796">
        <ele>720.726</ele>
        <time>2015-03-29T12:35:25Z</time>
      </trkpt>
      <trkpt lat="41.208716" lon="-6.629140">
        <ele>718.241</ele>
        <time>2015-03-29T12:35:30Z</time>
      </trkpt>
      <trkpt lat="41.208583" lon="-6.629498">
        <ele>720.766</ele>
        <time>2015-03-29T12:35:36Z</time>
      </trkpt>
      <trkpt lat="41.208287" lon="-6.630130">
        <ele>720.250</ele>
        <time>2015-03-29T12:35:47Z</time>
      </trkpt>
      <trkpt lat="41.208073" lon="-6.630730">
        <ele>720.268</ele>
        <time>2015-03-29T12:35:57Z</time>
      </trkpt>
      <trkpt lat="41.207929" lon="-6.631447">
        <ele>720.272</ele>
        <time>2015-03-29T12:36:08Z</time>
      </trkpt>
      <trkpt lat="41.207910" lon="-6.631575">
        <ele>720.293</ele>
        <time>2015-03-29T12:36:10Z</time>
      </trkpt>
      <trkpt lat="41.207865" lon="-6.631832">
        <ele>720.798</ele>
        <time>2015-03-29T12:36:14Z</time>
      </trkpt>
      <trkpt lat="41.207802" lon="-6.632201">
        <ele>720.715</ele>
        <time>2015-03-29T12:36:20Z</time>
      </trkpt>
      <trkpt lat="41.207651" lon="-6.633049">
        <ele>720.726</ele>
        <time>2015-03-29T12:36:34Z</time>
      </trkpt>
      <trkpt lat="41.207567" lon="-6.633518">
        <ele>720.707</ele>
        <time>2015-03-29T12:36:42Z</time>
      </trkpt>
      <trkpt lat="41.207415" lon="-6.634337">
        <ele>720.298</ele>
        <time>2015-03-29T12:36:55Z</time>
      </trkpt>
      <trkpt lat="41.207275" lon="-6.635114">
        <ele>719.723</ele>
        <time>2015-03-29T12:37:07Z</time>
      </trkpt>
      <trkpt lat="41.207177" lon="-6.636097">
        <ele>719.768</ele>
        <time>2015-03-29T12:37:22Z</time>
      </trkpt>
      <trkpt lat="41.207109" lon="-6.636974">
        <ele>718.782</ele>
        <time>2015-03-29T12:37:35Z</time>
      </trkpt>
      <trkpt lat="41.207051" lon="-6.637678">
        <ele>718.710</ele>
        <time>2015-03-29T12:37:46Z</time>
      </trkpt>
      <trkpt lat="41.207002" lon="-6.638318">
        <ele>718.264</ele>
        <time>2015-03-29T12:37:56Z</time>
      </trkpt>
      <trkpt lat="41.206931" lon="-6.639129">
        <ele>718.235</ele>
        <time>2015-03-29T12:38:09Z</time>
      </trkpt>
      <trkpt lat="41.206781" lon="-6.639614">
        <ele>719.292</ele>
        <time>2015-03-29T12:38:18Z</time>
      </trkpt>
      <trkpt lat="41.206722" lon="-6.639776">
        <ele>719.273</ele>
        <time>2015-03-29T12:38:21Z</time>
      </trkpt>
      <trkpt lat="41.206639" lon="-6.640051">
        <ele>719.220</ele>
        <time>2015-03-29T12:38:26Z</time>
      </trkpt>
      <trkpt lat="41.206439" lon="-6.640672">
        <ele>719.207</ele>
        <time>2015-03-29T12:38:37Z</time>
      </trkpt>
      <trkpt lat="41.206215" lon="-6.641418">
        <ele>720.258</ele>
        <time>2015-03-29T12:38:50Z</time>
      </trkpt>
      <trkpt lat="41.206129" lon="-6.641700">
        <ele>720.753</ele>
        <time>2015-03-29T12:38:55Z</time>
      </trkpt>
      <trkpt lat="41.206046" lon="-6.641912">
        <ele>721.618</ele>
        <time>2015-03-29T12:38:59Z</time>
      </trkpt>
      <trkpt lat="41.205670" lon="-6.642483">
        <ele>720.212</ele>
        <time>2015-03-29T12:39:11Z</time>
      </trkpt>
      <trkpt lat="41.205440" lon="-6.642713">
        <ele>720.740</ele>
        <time>2015-03-29T12:39:17Z</time>
      </trkpt>
      <trkpt lat="41.204899" lon="-6.643197">
        <ele>717.884</ele>
        <time>2015-03-29T12:39:29Z</time>
      </trkpt>
      <trkpt lat="41.204507" lon="-6.643392">
        <ele>714.415</ele>
        <time>2015-03-29T12:39:35Z</time>
      </trkpt>
      <trkpt lat="41.203882" lon="-6.643549">
        <ele>711.098</ele>
        <time>2015-03-29T12:39:43Z</time>
      </trkpt>
      <trkpt lat="41.203147" lon="-6.644020">
        <ele>710.115</ele>
        <time>2015-03-29T12:39:54Z</time>
      </trkpt>
      <trkpt lat="41.202451" lon="-6.644276">
        <ele>708.226</ele>
        <time>2015-03-29T12:40:04Z</time>
      </trkpt>
      <trkpt lat="41.201897" lon="-6.644782">
        <ele>705.807</ele>
        <time>2015-03-29T12:40:13Z</time>
      </trkpt>
      <trkpt lat="41.201350" lon="-6.645369">
        <ele>704.848</ele>
        <time>2015-03-29T12:40:23Z</time>
      </trkpt>
      <trkpt lat="41.201174" lon="-6.645497">
        <ele>705.313</ele>
        <time>2015-03-29T12:40:26Z</time>
      </trkpt>
      <trkpt lat="41.201049" lon="-6.645555">
        <ele>705.378</ele>
        <time>2015-03-29T12:40:28Z</time>
      </trkpt>
      <trkpt lat="41.200589" lon="-6.645645">
        <ele>704.312</ele>
        <time>2015-03-29T12:40:35Z</time>
      </trkpt>
      <trkpt lat="41.200463" lon="-6.645669">
        <ele>704.330</ele>
        <time>2015-03-29T12:40:37Z</time>
      </trkpt>
      <trkpt lat="41.199782" lon="-6.645967">
        <ele>701.494</ele>
        <time>2015-03-29T12:40:48Z</time>
      </trkpt>
      <trkpt lat="41.199391" lon="-6.646280">
        <ele>698.575</ele>
        <time>2015-03-29T12:40:54Z</time>
      </trkpt>
      <trkpt lat="41.199324" lon="-6.646339">
        <ele>698.184</ele>
        <time>2015-03-29T12:40:55Z</time>
      </trkpt>
      <trkpt lat="41.198842" lon="-6.646747">
        <ele>694.207</ele>
        <time>2015-03-29T12:41:02Z</time>
      </trkpt>
      <trkpt lat="41.198768" lon="-6.646797">
        <ele>694.217</ele>
        <time>2015-03-29T12:41:03Z</time>
      </trkpt>
      <trkpt lat="41.198301" lon="-6.647084">
        <ele>690.807</ele>
        <time>2015-03-29T12:41:09Z</time>
      </trkpt>
      <trkpt lat="41.197781" lon="-6.647352">
        <ele>687.077</ele>
        <time>2015-03-29T12:41:15Z</time>
      </trkpt>
      <trkpt lat="41.197335" lon="-6.647564">
        <ele>684.612</ele>
        <time>2015-03-29T12:41:20Z</time>
      </trkpt>
      <trkpt lat="41.196874" lon="-6.647774">
        <ele>681.227</ele>
        <time>2015-03-29T12:41:25Z</time>
      </trkpt>
      <trkpt lat="41.196422" lon="-6.647990">
        <ele>677.981</ele>
        <time>2015-03-29T12:41:30Z</time>
      </trkpt>
      <trkpt lat="41.196047" lon="-6.648156">
        <ele>674.519</ele>
        <time>2015-03-29T12:41:34Z</time>
      </trkpt>
      <trkpt lat="41.195655" lon="-6.648335">
        <ele>671.143</ele>
        <time>2015-03-29T12:41:38Z</time>
      </trkpt>
      <trkpt lat="41.195354" lon="-6.648481">
        <ele>667.824</ele>
        <time>2015-03-29T12:41:41Z</time>
      </trkpt>
      <trkpt lat="41.194681" lon="-6.648781">
        <ele>664.927</ele>
        <time>2015-03-29T12:41:48Z</time>
      </trkpt>
      <trkpt lat="41.194143" lon="-6.649122">
        <ele>663.068</ele>
        <time>2015-03-29T12:41:55Z</time>
      </trkpt>
      <trkpt lat="41.193758" lon="-6.649467">
        <ele>662.514</ele>
        <time>2015-03-29T12:42:01Z</time>
      </trkpt>
      <trkpt lat="41.193396" lon="-6.649579">
        <ele>662.507</ele>
        <time>2015-03-29T12:42:06Z</time>
      </trkpt>
      <trkpt lat="41.192615" lon="-6.649609">
        <ele>660.681</ele>
        <time>2015-03-29T12:42:17Z</time>
      </trkpt>
      <trkpt lat="41.192305" lon="-6.649792">
        <ele>659.186</ele>
        <time>2015-03-29T12:42:22Z</time>
      </trkpt>
      <trkpt lat="41.192084" lon="-6.650066">
        <ele>656.251</ele>
        <time>2015-03-29T12:42:26Z</time>
      </trkpt>
      <trkpt lat="41.191764" lon="-6.650456">
        <ele>651.955</ele>
        <time>2015-03-29T12:42:31Z</time>
      </trkpt>
      <trkpt lat="41.191487" lon="-6.650804">
        <ele>648.133</ele>
        <time>2015-03-29T12:42:35Z</time>
      </trkpt>
      <trkpt lat="41.191424" lon="-6.650876">
        <ele>646.167</ele>
        <time>2015-03-29T12:42:36Z</time>
      </trkpt>
      <trkpt lat="41.191165" lon="-6.651122">
        <ele>644.788</ele>
        <time>2015-03-29T12:42:40Z</time>
      </trkpt>
      <trkpt lat="41.190860" lon="-6.651442">
        <ele>641.353</ele>
        <time>2015-03-29T12:42:45Z</time>
      </trkpt>
      <trkpt lat="41.190572" lon="-6.651819">
        <ele>637.504</ele>
        <time>2015-03-29T12:42:50Z</time>
      </trkpt>
      <trkpt lat="41.190423" lon="-6.652218">
        <ele>633.714</ele>
        <time>2015-03-29T12:42:54Z</time>
      </trkpt>
      <trkpt lat="41.190346" lon="-6.652662">
        <ele>629.807</ele>
        <time>2015-03-29T12:42:58Z</time>
      </trkpt>
      <trkpt lat="41.190315" lon="-6.653005">
        <ele>626.984</ele>
        <time>2015-03-29T12:43:01Z</time>
      </trkpt>
      <trkpt lat="41.190306" lon="-6.653112">
        <ele>626.059</ele>
        <time>2015-03-29T12:43:02Z</time>
      </trkpt>
      <trkpt lat="41.190101" lon="-6.653431">
        <ele>619.724</ele>
        <time>2015-03-29T12:43:07Z</time>
      </trkpt>
      <trkpt lat="41.189954" lon="-6.653407">
        <ele>617.348</ele>
        <time>2015-03-29T12:43:09Z</time>
      </trkpt>
      <trkpt lat="41.189710" lon="-6.653322">
        <ele>613.516</ele>
        <time>2015-03-29T12:43:12Z</time>
      </trkpt>
      <trkpt lat="41.189355" lon="-6.653301">
        <ele>608.250</ele>
        <time>2015-03-29T12:43:16Z</time>
      </trkpt>
      <trkpt lat="41.188911" lon="-6.653443">
        <ele>601.481</ele>
        <time>2015-03-29T12:43:21Z</time>
      </trkpt>
      <trkpt lat="41.188833" lon="-6.653487">
        <ele>600.014</ele>
        <time>2015-03-29T12:43:22Z</time>
      </trkpt>
      <trkpt lat="41.188609" lon="-6.653837">
        <ele>595.254</ele>
        <time>2015-03-29T12:43:26Z</time>
      </trkpt>
      <trkpt lat="41.188535" lon="-6.654060">
        <ele>591.409</ele>
        <time>2015-03-29T12:43:28Z</time>
      </trkpt>
      <trkpt lat="41.188237" lon="-6.654438">
        <ele>587.507</ele>
        <time>2015-03-29T12:43:33Z</time>
      </trkpt>
      <trkpt lat="41.188020" lon="-6.654622">
        <ele>584.160</ele>
        <time>2015-03-29T12:43:36Z</time>
      </trkpt>
      <trkpt lat="41.187959" lon="-6.654704">
        <ele>583.295</ele>
        <time>2015-03-29T12:43:37Z</time>
      </trkpt>
      <trkpt lat="41.187788" lon="-6.654954">
        <ele>580.360</ele>
        <time>2015-03-29T12:43:40Z</time>
      </trkpt>
      <trkpt lat="41.187458" lon="-6.655208">
        <ele>576.074</ele>
        <time>2015-03-29T12:43:45Z</time>
      </trkpt>
      <trkpt lat="41.187180" lon="-6.655149">
        <ele>572.682</ele>
        <time>2015-03-29T12:43:48Z</time>
      </trkpt>
      <trkpt lat="41.186869" lon="-6.655113">
        <ele>567.386</ele>
        <time>2015-03-29T12:43:51Z</time>
      </trkpt>
      <trkpt lat="41.186770" lon="-6.655101">
        <ele>564.087</ele>
        <time>2015-03-29T12:43:52Z</time>
      </trkpt>
      <trkpt lat="41.186575" lon="-6.655067">
        <ele>561.654</ele>
        <time>2015-03-29T12:43:54Z</time>
      </trkpt>
      <trkpt lat="41.186225" lon="-6.654863">
        <ele>556.756</ele>
        <time>2015-03-29T12:43:58Z</time>
      </trkpt>
      <trkpt lat="41.185938" lon="-6.654587">
        <ele>551.011</ele>
        <time>2015-03-29T12:44:02Z</time>
      </trkpt>
      <trkpt lat="41.185874" lon="-6.654523">
        <ele>550.007</ele>
        <time>2015-03-29T12:44:03Z</time>
      </trkpt>
      <trkpt lat="41.185743" lon="-6.654418">
        <ele>547.134</ele>
        <time>2015-03-29T12:44:05Z</time>
      </trkpt>
      <trkpt lat="41.185507" lon="-6.654329">
        <ele>544.279</ele>
        <time>2015-03-29T12:44:10Z</time>
      </trkpt>
      <trkpt lat="41.185471" lon="-6.654327">
        <ele>543.824</ele>
        <time>2015-03-29T12:44:12Z</time>
      </trkpt>
      <trkpt lat="41.185433" lon="-6.654312">
        <ele>543.838</ele>
        <time>2015-03-29T12:44:15Z</time>
      </trkpt>
      <trkpt lat="41.185405" lon="-6.653961">
        <ele>544.216</ele>
        <time>2015-03-29T12:44:26Z</time>
      </trkpt>
      <trkpt lat="41.185271" lon="-6.653557">
        <ele>545.260</ele>
        <time>2015-03-29T12:44:37Z</time>
      </trkpt>
      <trkpt lat="41.185185" lon="-6.653102">
        <ele>546.781</ele>
        <time>2015-03-29T12:44:48Z</time>
      </trkpt>
      <trkpt lat="41.185315" lon="-6.652546">
        <ele>547.684</ele>
        <time>2015-03-29T12:45:00Z</time>
      </trkpt>
      <trkpt lat="41.185468" lon="-6.651964">
        <ele>549.107</ele>
        <time>2015-03-29T12:45:13Z</time>
      </trkpt>
      <trkpt lat="41.185438" lon="-6.651504">
        <ele>551.017</ele>
        <time>2015-03-29T12:45:23Z</time>
      </trkpt>
      <trkpt lat="41.185368" lon="-6.650990">
        <ele>552.907</ele>
        <time>2015-03-29T12:45:35Z</time>
      </trkpt>
      <trkpt lat="41.185291" lon="-6.650450">
        <ele>554.847</ele>
        <time>2015-03-29T12:45:48Z</time>
      </trkpt>
      <trkpt lat="41.185284" lon="-6.649962">
        <ele>557.732</ele>
        <time>2015-03-29T12:46:01Z</time>
      </trkpt>
      <trkpt lat="41.185421" lon="-6.649590">
        <ele>558.737</ele>
        <time>2015-03-29T12:46:12Z</time>
      </trkpt>
      <trkpt lat="41.185512" lon="-6.649198">
        <ele>560.651</ele>
        <time>2015-03-29T12:46:24Z</time>
      </trkpt>
      <trkpt lat="41.185443" lon="-6.648842">
        <ele>561.649</ele>
        <time>2015-03-29T12:46:34Z</time>
      </trkpt>
      <trkpt lat="41.185297" lon="-6.648370">
        <ele>561.113</ele>
        <time>2015-03-29T12:46:46Z</time>
      </trkpt>
      <trkpt lat="41.185184" lon="-6.647939">
        <ele>561.184</ele>
        <time>2015-03-29T12:46:56Z</time>
      </trkpt>
      <trkpt lat="41.185179" lon="-6.647791">
        <ele>561.186</ele>
        <time>2015-03-29T12:46:59Z</time>
      </trkpt>
      <trkpt lat="41.185220" lon="-6.647575">
        <ele>561.660</ele>
        <time>2015-03-29T12:47:03Z</time>
      </trkpt>
      <trkpt lat="41.185330" lon="-6.647354">
        <ele>561.126</ele>
        <time>2015-03-29T12:47:07Z</time>
      </trkpt>
      <trkpt lat="41.185425" lon="-6.647099">
        <ele>559.607</ele>
        <time>2015-03-29T12:47:11Z</time>
      </trkpt>
      <trkpt lat="41.185475" lon="-6.646846">
        <ele>559.137</ele>
        <time>2015-03-29T12:47:15Z</time>
      </trkpt>
      <trkpt lat="41.185478" lon="-6.646714">
        <ele>559.642</ele>
        <time>2015-03-29T12:47:17Z</time>
      </trkpt>
      <trkpt lat="41.185464" lon="-6.646323">
        <ele>559.197</ele>
        <time>2015-03-29T12:47:23Z</time>
      </trkpt>
      <trkpt lat="41.185450" lon="-6.646192">
        <ele>559.161</ele>
        <time>2015-03-29T12:47:25Z</time>
      </trkpt>
      <trkpt lat="41.185357" lon="-6.645813">
        <ele>558.719</ele>
        <time>2015-03-29T12:47:31Z</time>
      </trkpt>
      <trkpt lat="41.185271" lon="-6.645596">
        <ele>558.773</ele>
        <time>2015-03-29T12:47:35Z</time>
      </trkpt>
      <trkpt lat="41.185219" lon="-6.645495">
        <ele>558.714</ele>
        <time>2015-03-29T12:47:37Z</time>
      </trkpt>
      <trkpt lat="41.185027" lon="-6.644921">
        <ele>559.645</ele>
        <time>2015-03-29T12:47:48Z</time>
      </trkpt>
      <trkpt lat="41.185078" lon="-6.644534">
        <ele>561.647</ele>
        <time>2015-03-29T12:47:58Z</time>
      </trkpt>
      <trkpt lat="41.185167" lon="-6.644207">
        <ele>563.511</ele>
        <time>2015-03-29T12:48:07Z</time>
      </trkpt>
      <trkpt lat="41.185198" lon="-6.643877">
        <ele>564.907</ele>
        <time>2015-03-29T12:48:16Z</time>
      </trkpt>
      <trkpt lat="41.185129" lon="-6.643517">
        <ele>567.313</ele>
        <time>2015-03-29T12:48:27Z</time>
      </trkpt>
      <trkpt lat="41.184959" lon="-6.643235">
        <ele>568.838</ele>
        <time>2015-03-29T12:48:38Z</time>
      </trkpt>
      <trkpt lat="41.184770" lon="-6.643023">
        <ele>570.213</ele>
        <time>2015-03-29T12:48:48Z</time>
      </trkpt>
      <trkpt lat="41.184623" lon="-6.642889">
        <ele>571.697</ele>
        <time>2015-03-29T12:48:56Z</time>
      </trkpt>
      <trkpt lat="41.184439" lon="-6.642764">
        <ele>573.195</ele>
        <time>2015-03-29T12:49:06Z</time>
      </trkpt>
      <trkpt lat="41.184226" lon="-6.642728">
        <ele>574.599</ele>
        <time>2015-03-29T12:49:16Z</time>
      </trkpt>
      <trkpt lat="41.183966" lon="-6.642682">
        <ele>576.080</ele>
        <time>2015-03-29T12:49:28Z</time>
      </trkpt>
      <trkpt lat="41.183771" lon="-6.642654">
        <ele>577.498</ele>
        <time>2015-03-29T12:49:37Z</time>
      </trkpt>
      <trkpt lat="41.183530" lon="-6.642614">
        <ele>579.315</ele>
        <time>2015-03-29T12:49:48Z</time>
      </trkpt>
      <trkpt lat="41.183318" lon="-6.642579">
        <ele>580.326</ele>
        <time>2015-03-29T12:49:58Z</time>
      </trkpt>
      <trkpt lat="41.183145" lon="-6.642553">
        <ele>581.307</ele>
        <time>2015-03-29T12:50:06Z</time>
      </trkpt>
      <trkpt lat="41.182873" lon="-6.642515">
        <ele>583.248</ele>
        <time>2015-03-29T12:50:19Z</time>
      </trkpt>
      <trkpt lat="41.182642" lon="-6.642469">
        <ele>584.663</ele>
        <time>2015-03-29T12:50:30Z</time>
      </trkpt>
      <trkpt lat="41.182581" lon="-6.642463">
        <ele>585.118</ele>
        <time>2015-03-29T12:50:33Z</time>
      </trkpt>
      <trkpt lat="41.182333" lon="-6.642422">
        <ele>586.562</ele>
        <time>2015-03-29T12:50:45Z</time>
      </trkpt>
      <trkpt lat="41.182313" lon="-6.642412">
        <ele>587.060</ele>
        <time>2015-03-29T12:50:46Z</time>
      </trkpt>
      <trkpt lat="41.182208" lon="-6.642420">
        <ele>587.554</ele>
        <time>2015-03-29T12:50:51Z</time>
      </trkpt>
      <trkpt lat="41.181992" lon="-6.642369">
        <ele>589.035</ele>
        <time>2015-03-29T12:51:01Z</time>
      </trkpt>
      <trkpt lat="41.181697" lon="-6.642333">
        <ele>590.952</ele>
        <time>2015-03-29T12:51:15Z</time>
      </trkpt>
      <trkpt lat="41.181484" lon="-6.642259">
        <ele>592.353</ele>
        <time>2015-03-29T12:51:25Z</time>
      </trkpt>
      <trkpt lat="41.181285" lon="-6.642217">
        <ele>593.308</ele>
        <time>2015-03-29T12:51:34Z</time>
      </trkpt>
      <trkpt lat="41.181041" lon="-6.642189">
        <ele>594.707</ele>
        <time>2015-03-29T12:51:45Z</time>
      </trkpt>
      <trkpt lat="41.180853" lon="-6.642275">
        <ele>596.214</ele>
        <time>2015-03-29T12:51:54Z</time>
      </trkpt>
      <trkpt lat="41.180718" lon="-6.642435">
        <ele>596.689</ele>
        <time>2015-03-29T12:52:02Z</time>
      </trkpt>
      <trkpt lat="41.180598" lon="-6.642678">
        <ele>598.164</ele>
        <time>2015-03-29T12:52:12Z</time>
      </trkpt>
      <trkpt lat="41.180541" lon="-6.642762">
        <ele>598.688</ele>
        <time>2015-03-29T12:52:16Z</time>
      </trkpt>
      <trkpt lat="41.180401" lon="-6.642983">
        <ele>600.016</ele>
        <time>2015-03-29T12:52:26Z</time>
      </trkpt>
      <trkpt lat="41.180316" lon="-6.643070">
        <ele>601.070</ele>
        <time>2015-03-29T12:52:31Z</time>
      </trkpt>
      <trkpt lat="41.180052" lon="-6.643144">
        <ele>602.411</ele>
        <time>2015-03-29T12:52:43Z</time>
      </trkpt>
      <trkpt lat="41.179796" lon="-6.643140">
        <ele>602.946</ele>
        <time>2015-03-29T12:52:54Z</time>
      </trkpt>
      <trkpt lat="41.179524" lon="-6.643129">
        <ele>604.388</ele>
        <time>2015-03-29T12:53:05Z</time>
      </trkpt>
      <trkpt lat="41.179234" lon="-6.643120">
        <ele>605.316</ele>
        <time>2015-03-29T12:53:16Z</time>
      </trkpt>
      <trkpt lat="41.178948" lon="-6.643107">
        <ele>606.307</ele>
        <time>2015-03-29T12:53:27Z</time>
      </trkpt>
      <trkpt lat="41.178705" lon="-6.643096">
        <ele>607.723</ele>
        <time>2015-03-29T12:53:37Z</time>
      </trkpt>
      <trkpt lat="41.178399" lon="-6.643040">
        <ele>608.258</ele>
        <time>2015-03-29T12:53:49Z</time>
      </trkpt>
      <trkpt lat="41.178092" lon="-6.642973">
        <ele>609.613</ele>
        <time>2015-03-29T12:54:01Z</time>
      </trkpt>
      <trkpt lat="41.177854" lon="-6.642930">
        <ele>610.657</ele>
        <time>2015-03-29T12:54:11Z</time>
      </trkpt>
      <trkpt lat="41.177601" lon="-6.642885">
        <ele>611.115</ele>
        <time>2015-03-29T12:54:21Z</time>
      </trkpt>
      <trkpt lat="41.177284" lon="-6.642907">
        <ele>612.569</ele>
        <time>2015-03-29T12:54:34Z</time>
      </trkpt>
      <trkpt lat="41.176972" lon="-6.642967">
        <ele>613.980</ele>
        <time>2015-03-29T12:54:46Z</time>
      </trkpt>
      <trkpt lat="41.176690" lon="-6.643049">
        <ele>614.996</ele>
        <time>2015-03-29T12:54:58Z</time>
      </trkpt>
      <trkpt lat="41.176522" lon="-6.643145">
        <ele>616.331</ele>
        <time>2015-03-29T12:55:06Z</time>
      </trkpt>
      <trkpt lat="41.176297" lon="-6.643285">
        <ele>618.324</ele>
        <time>2015-03-29T12:55:17Z</time>
      </trkpt>
      <trkpt lat="41.176152" lon="-6.643379">
        <ele>619.207</ele>
        <time>2015-03-29T12:55:26Z</time>
      </trkpt>
      <trkpt lat="41.175955" lon="-6.643422">
        <ele>620.738</ele>
        <time>2015-03-29T12:55:36Z</time>
      </trkpt>
      <trkpt lat="41.175730" lon="-6.643330">
        <ele>622.163</ele>
        <time>2015-03-29T12:55:48Z</time>
      </trkpt>
      <trkpt lat="41.175610" lon="-6.643121">
        <ele>623.678</ele>
        <time>2015-03-29T12:55:58Z</time>
      </trkpt>
      <trkpt lat="41.175581" lon="-6.642883">
        <ele>625.032</ele>
        <time>2015-03-29T12:56:07Z</time>
      </trkpt>
      <trkpt lat="41.175595" lon="-6.642637">
        <ele>626.410</ele>
        <time>2015-03-29T12:56:16Z</time>
      </trkpt>
      <trkpt lat="41.175633" lon="-6.642366">
        <ele>627.994</ele>
        <time>2015-03-29T12:56:26Z</time>
      </trkpt>
      <trkpt lat="41.175643" lon="-6.642274">
        <ele>628.495</ele>
        <time>2015-03-29T12:56:30Z</time>
      </trkpt>
      <trkpt lat="41.175690" lon="-6.642142">
        <ele>628.835</ele>
        <time>2015-03-29T12:56:35Z</time>
      </trkpt>
      <trkpt lat="41.175809" lon="-6.641886">
        <ele>631.286</ele>
        <time>2015-03-29T12:56:46Z</time>
      </trkpt>
      <trkpt lat="41.175936" lon="-6.641662">
        <ele>632.214</ele>
        <time>2015-03-29T12:56:56Z</time>
      </trkpt>
      <trkpt lat="41.176025" lon="-6.641346">
        <ele>634.107</ele>
        <time>2015-03-29T12:57:08Z</time>
      </trkpt>
      <trkpt lat="41.176034" lon="-6.641105">
        <ele>635.612</ele>
        <time>2015-03-29T12:57:17Z</time>
      </trkpt>
      <trkpt lat="41.175999" lon="-6.640844">
        <ele>637.597</ele>
        <time>2015-03-29T12:57:27Z</time>
      </trkpt>
      <trkpt lat="41.175960" lon="-6.640579">
        <ele>638.972</ele>
        <time>2015-03-29T12:57:37Z</time>
      </trkpt>
      <trkpt lat="41.175889" lon="-6.640309">
        <ele>640.446</ele>
        <time>2015-03-29T12:57:47Z</time>
      </trkpt>
      <trkpt lat="41.175830" lon="-6.640013">
        <ele>642.374</ele>
        <time>2015-03-29T12:57:58Z</time>
      </trkpt>
      <trkpt lat="41.175745" lon="-6.639743">
        <ele>643.728</ele>
        <time>2015-03-29T12:58:09Z</time>
      </trkpt>
      <trkpt lat="41.175624" lon="-6.639561">
        <ele>645.299</ele>
        <time>2015-03-29T12:58:18Z</time>
      </trkpt>
      <trkpt lat="41.175447" lon="-6.639428">
        <ele>646.137</ele>
        <time>2015-03-29T12:58:28Z</time>
      </trkpt>
      <trkpt lat="41.175277" lon="-6.639327">
        <ele>648.149</ele>
        <time>2015-03-29T12:58:37Z</time>
      </trkpt>
      <trkpt lat="41.175106" lon="-6.639222">
        <ele>648.613</ele>
        <time>2015-03-29T12:58:46Z</time>
      </trkpt>
      <trkpt lat="41.174936" lon="-6.639161">
        <ele>649.507</ele>
        <time>2015-03-29T12:58:56Z</time>
      </trkpt>
      <trkpt lat="41.174764" lon="-6.639128">
        <ele>651.022</ele>
        <time>2015-03-29T12:59:05Z</time>
      </trkpt>
      <trkpt lat="41.174541" lon="-6.639129">
        <ele>651.997</ele>
        <time>2015-03-29T12:59:15Z</time>
      </trkpt>
      <trkpt lat="41.174291" lon="-6.639141">
        <ele>653.892</ele>
        <time>2015-03-29T12:59:27Z</time>
      </trkpt>
      <trkpt lat="41.174057" lon="-6.639185">
        <ele>655.376</ele>
        <time>2015-03-29T12:59:38Z</time>
      </trkpt>
      <trkpt lat="41.173879" lon="-6.639266">
        <ele>656.794</ele>
        <time>2015-03-29T12:59:47Z</time>
      </trkpt>
      <trkpt lat="41.173714" lon="-6.639437">
        <ele>658.298</ele>
        <time>2015-03-29T12:59:57Z</time>
      </trkpt>
      <trkpt lat="41.173537" lon="-6.639649">
        <ele>659.649</ele>
        <time>2015-03-29T13:00:08Z</time>
      </trkpt>
      <trkpt lat="41.173322" lon="-6.639910">
        <ele>660.691</ele>
        <time>2015-03-29T13:00:21Z</time>
      </trkpt>
      <trkpt lat="41.173122" lon="-6.640132">
        <ele>661.581</ele>
        <time>2015-03-29T13:00:32Z</time>
      </trkpt>
      <trkpt lat="41.172908" lon="-6.640388">
        <ele>662.519</ele>
        <time>2015-03-29T13:00:44Z</time>
      </trkpt>
      <trkpt lat="41.172735" lon="-6.640575">
        <ele>663.507</ele>
        <time>2015-03-29T13:00:53Z</time>
      </trkpt>
      <trkpt lat="41.172521" lon="-6.640809">
        <ele>664.468</ele>
        <time>2015-03-29T13:01:04Z</time>
      </trkpt>
      <trkpt lat="41.172277" lon="-6.641013">
        <ele>664.973</ele>
        <time>2015-03-29T13:01:14Z</time>
      </trkpt>
      <trkpt lat="41.171888" lon="-6.641298">
        <ele>664.478</ele>
        <time>2015-03-29T13:01:27Z</time>
      </trkpt>
      <trkpt lat="41.171503" lon="-6.641593">
        <ele>665.472</ele>
        <time>2015-03-29T13:01:40Z</time>
      </trkpt>
      <trkpt lat="41.171160" lon="-6.641835">
        <ele>666.340</ele>
        <time>2015-03-29T13:01:52Z</time>
      </trkpt>
      <trkpt lat="41.170854" lon="-6.641856">
        <ele>666.874</ele>
        <time>2015-03-29T13:02:02Z</time>
      </trkpt>
      <trkpt lat="41.170686" lon="-6.641766">
        <ele>667.385</ele>
        <time>2015-03-29T13:02:09Z</time>
      </trkpt>
      <trkpt lat="41.170644" lon="-6.641842">
        <ele>666.839</ele>
        <time>2015-03-29T13:02:13Z</time>
      </trkpt>
      <trkpt lat="41.170589" lon="-6.642256">
        <ele>668.701</ele>
        <time>2015-03-29T13:02:25Z</time>
      </trkpt>
      <trkpt lat="41.170553" lon="-6.642585">
        <ele>670.721</ele>
        <time>2015-03-29T13:02:36Z</time>
      </trkpt>
      <trkpt lat="41.170628" lon="-6.643048">
        <ele>673.107</ele>
        <time>2015-03-29T13:02:50Z</time>
      </trkpt>
      <trkpt lat="41.170679" lon="-6.643355">
        <ele>674.512</ele>
        <time>2015-03-29T13:03:00Z</time>
      </trkpt>
      <trkpt lat="41.170759" lon="-6.643760">
        <ele>673.547</ele>
        <time>2015-03-29T13:03:11Z</time>
      </trkpt>
      <trkpt lat="41.170752" lon="-6.644192">
        <ele>672.672</ele>
        <time>2015-03-29T13:03:20Z</time>
      </trkpt>
      <trkpt lat="41.170671" lon="-6.644623">
        <ele>672.676</ele>
        <time>2015-03-29T13:03:30Z</time>
      </trkpt>
      <trkpt lat="41.170560" lon="-6.645251">
        <ele>672.654</ele>
        <time>2015-03-29T13:03:43Z</time>
      </trkpt>
      <trkpt lat="41.170476" lon="-6.645653">
        <ele>674.048</ele>
        <time>2015-03-29T13:03:53Z</time>
      </trkpt>
      <trkpt lat="41.170426" lon="-6.646021">
        <ele>675.569</ele>
        <time>2015-03-29T13:04:03Z</time>
      </trkpt>
      <trkpt lat="41.170327" lon="-6.646388">
        <ele>675.936</ele>
        <time>2015-03-29T13:04:14Z</time>
      </trkpt>
      <trkpt lat="41.170121" lon="-6.646517">
        <ele>677.417</ele>
        <time>2015-03-29T13:04:23Z</time>
      </trkpt>
      <trkpt lat="41.169890" lon="-6.646599">
        <ele>678.818</ele>
        <time>2015-03-29T13:04:33Z</time>
      </trkpt>
      <trkpt lat="41.169563" lon="-6.646716">
        <ele>681.207</ele>
        <time>2015-03-29T13:04:47Z</time>
      </trkpt>
      <trkpt lat="41.169339" lon="-6.646791">
        <ele>682.762</ele>
        <time>2015-03-29T13:04:58Z</time>
      </trkpt>
      <trkpt lat="41.169143" lon="-6.646863">
        <ele>684.657</ele>
        <time>2015-03-29T13:05:07Z</time>
      </trkpt>
      <trkpt lat="41.168949" lon="-6.646928">
        <ele>686.562</ele>
        <time>2015-03-29T13:05:17Z</time>
      </trkpt>
      <trkpt lat="41.168694" lon="-6.647000">
        <ele>688.976</ele>
        <time>2015-03-29T13:05:31Z</time>
      </trkpt>
      <trkpt lat="41.168515" lon="-6.647080">
        <ele>690.874</ele>
        <time>2015-03-29T13:05:42Z</time>
      </trkpt>
      <trkpt lat="41.168245" lon="-6.647181">
        <ele>692.368</ele>
        <time>2015-03-29T13:05:56Z</time>
      </trkpt>
      <trkpt lat="41.167951" lon="-6.647297">
        <ele>693.319</ele>
        <time>2015-03-29T13:06:09Z</time>
      </trkpt>
      <trkpt lat="41.167551" lon="-6.647436">
        <ele>694.298</ele>
        <time>2015-03-29T13:06:25Z</time>
      </trkpt>
      <trkpt lat="41.167215" lon="-6.647541">
        <ele>695.215</ele>
        <time>2015-03-29T13:06:37Z</time>
      </trkpt>
      <trkpt lat="41.166825" lon="-6.647669">
        <ele>695.226</ele>
        <time>2015-03-29T13:06:50Z</time>
      </trkpt>
      <trkpt lat="41.166406" lon="-6.647748">
        <ele>694.207</ele>
        <time>2015-03-29T13:07:01Z</time>
      </trkpt>
      <trkpt lat="41.165993" lon="-6.647721">
        <ele>694.218</ele>
        <time>2015-03-29T13:07:13Z</time>
      </trkpt>
      <trkpt lat="41.165663" lon="-6.647686">
        <ele>693.713</ele>
        <time>2015-03-29T13:07:24Z</time>
      </trkpt>
      <trkpt lat="41.165297" lon="-6.647652">
        <ele>693.748</ele>
        <time>2015-03-29T13:07:35Z</time>
      </trkpt>
      <trkpt lat="41.164893" lon="-6.647596">
        <ele>692.852</ele>
        <time>2015-03-29T13:07:46Z</time>
      </trkpt>
      <trkpt lat="41.164707" lon="-6.647580">
        <ele>692.870</ele>
        <time>2015-03-29T13:07:51Z</time>
      </trkpt>
      <trkpt lat="41.164451" lon="-6.647565">
        <ele>690.864</ele>
        <time>2015-03-29T13:07:59Z</time>
      </trkpt>
      <trkpt lat="41.164434" lon="-6.647735">
        <ele>690.825</ele>
        <time>2015-03-29T13:08:06Z</time>
      </trkpt>
      <trkpt lat="41.164434" lon="-6.647827">
        <ele>691.311</ele>
        <time>2015-03-29T13:08:09Z</time>
      </trkpt>
      <trkpt lat="41.164471" lon="-6.648228">
        <ele>692.321</ele>
        <time>2015-03-29T13:08:21Z</time>
      </trkpt>
      <trkpt lat="41.164536" lon="-6.648601">
        <ele>693.703</ele>
        <time>2015-03-29T13:08:32Z</time>
      </trkpt>
      <trkpt lat="41.164590" lon="-6.648913">
        <ele>695.207</ele>
        <time>2015-03-29T13:08:41Z</time>
      </trkpt>
      <trkpt lat="41.164655" lon="-6.649302">
        <ele>696.620</ele>
        <time>2015-03-29T13:08:52Z</time>
      </trkpt>
      <trkpt lat="41.164705" lon="-6.649798">
        <ele>698.585</ele>
        <time>2015-03-29T13:09:06Z</time>
      </trkpt>
      <trkpt lat="41.164722" lon="-6.650255">
        <ele>700.010</ele>
        <time>2015-03-29T13:09:19Z</time>
      </trkpt>
      <trkpt lat="41.164696" lon="-6.650743">
        <ele>700.914</ele>
        <time>2015-03-29T13:09:32Z</time>
      </trkpt>
      <trkpt lat="41.164657" lon="-6.651235">
        <ele>700.932</ele>
        <time>2015-03-29T13:09:43Z</time>
      </trkpt>
      <trkpt lat="41.164636" lon="-6.651584">
        <ele>700.556</ele>
        <time>2015-03-29T13:09:50Z</time>
      </trkpt>
      <trkpt lat="41.164632" lon="-6.651634">
        <ele>700.527</ele>
        <time>2015-03-29T13:09:51Z</time>
      </trkpt>
      <trkpt lat="41.164601" lon="-6.652212">
        <ele>699.567</ele>
        <time>2015-03-29T13:10:02Z</time>
      </trkpt>
      <trkpt lat="41.164563" lon="-6.652814">
        <ele>697.681</ele>
        <time>2015-03-29T13:10:12Z</time>
      </trkpt>
      <trkpt lat="41.164510" lon="-6.653616">
        <ele>694.719</ele>
        <time>2015-03-29T13:10:23Z</time>
      </trkpt>
      <trkpt lat="41.164498" lon="-6.653779">
        <ele>693.707</ele>
        <time>2015-03-29T13:10:25Z</time>
      </trkpt>
      <trkpt lat="41.164484" lon="-6.654778">
        <ele>690.895</ele>
        <time>2015-03-29T13:10:37Z</time>
      </trkpt>
      <trkpt lat="41.164510" lon="-6.655673">
        <ele>688.960</ele>
        <time>2015-03-29T13:10:47Z</time>
      </trkpt>
      <trkpt lat="41.164535" lon="-6.656632">
        <ele>688.915</ele>
        <time>2015-03-29T13:10:59Z</time>
      </trkpt>
      <trkpt lat="41.164557" lon="-6.657663">
        <ele>688.949</ele>
        <time>2015-03-29T13:11:14Z</time>
      </trkpt>
      <trkpt lat="41.164560" lon="-6.658450">
        <ele>689.967</ele>
        <time>2015-03-29T13:11:26Z</time>
      </trkpt>
      <trkpt lat="41.164559" lon="-6.658511">
        <ele>689.941</ele>
        <time>2015-03-29T13:11:27Z</time>
      </trkpt>
      <trkpt lat="41.164554" lon="-6.658739">
        <ele>690.452</ele>
        <time>2015-03-29T13:11:31Z</time>
      </trkpt>
      <trkpt lat="41.164540" lon="-6.658851">
        <ele>690.459</ele>
        <time>2015-03-29T13:11:33Z</time>
      </trkpt>
      <trkpt lat="41.164500" lon="-6.659183">
        <ele>691.803</ele>
        <time>2015-03-29T13:11:39Z</time>
      </trkpt>
      <trkpt lat="41.164392" lon="-6.659699">
        <ele>694.223</ele>
        <time>2015-03-29T13:11:50Z</time>
      </trkpt>
      <trkpt lat="41.164256" lon="-6.660243">
        <ele>695.207</ele>
        <time>2015-03-29T13:12:02Z</time>
      </trkpt>
      <trkpt lat="41.164100" lon="-6.660762">
        <ele>695.244</ele>
        <time>2015-03-29T13:12:14Z</time>
      </trkpt>
      <trkpt lat="41.163946" lon="-6.661391">
        <ele>695.799</ele>
        <time>2015-03-29T13:12:26Z</time>
      </trkpt>
      <trkpt lat="41.163836" lon="-6.662155">
        <ele>695.274</ele>
        <time>2015-03-29T13:12:39Z</time>
      </trkpt>
      <trkpt lat="41.163824" lon="-6.662387">
        <ele>694.288</ele>
        <time>2015-03-29T13:12:43Z</time>
      </trkpt>
      <trkpt lat="41.163773" lon="-6.663123">
        <ele>694.746</ele>
        <time>2015-03-29T13:12:56Z</time>
      </trkpt>
      <trkpt lat="41.163758" lon="-6.663422">
        <ele>694.720</ele>
        <time>2015-03-29T13:13:01Z</time>
      </trkpt>
      <trkpt lat="41.163716" lon="-6.664294">
        <ele>693.791</ele>
        <time>2015-03-29T13:13:15Z</time>
      </trkpt>
      <trkpt lat="41.163717" lon="-6.664361">
        <ele>693.799</ele>
        <time>2015-03-29T13:13:16Z</time>
      </trkpt>
      <trkpt lat="41.163865" lon="-6.665195">
        <ele>693.307</ele>
        <time>2015-03-29T13:13:29Z</time>
      </trkpt>
      <trkpt lat="41.163997" lon="-6.665669">
        <ele>693.327</ele>
        <time>2015-03-29T13:13:37Z</time>
      </trkpt>
      <trkpt lat="41.164091" lon="-6.666456">
        <ele>692.807</ele>
        <time>2015-03-29T13:13:50Z</time>
      </trkpt>
      <trkpt lat="41.164101" lon="-6.666734">
        <ele>693.768</ele>
        <time>2015-03-29T13:13:55Z</time>
      </trkpt>
      <trkpt lat="41.164106" lon="-6.667409">
        <ele>694.763</ele>
        <time>2015-03-29T13:14:07Z</time>
      </trkpt>
      <trkpt lat="41.164109" lon="-6.668081">
        <ele>696.198</ele>
        <time>2015-03-29T13:14:20Z</time>
      </trkpt>
      <trkpt lat="41.164104" lon="-6.668484">
        <ele>697.662</ele>
        <time>2015-03-29T13:14:29Z</time>
      </trkpt>
      <trkpt lat="41.164105" lon="-6.668856">
        <ele>699.070</ele>
        <time>2015-03-29T13:14:38Z</time>
      </trkpt>
      <trkpt lat="41.164070" lon="-6.669166">
        <ele>699.594</ele>
        <time>2015-03-29T13:14:47Z</time>
      </trkpt>
      <trkpt lat="41.164014" lon="-6.669449">
        <ele>700.025</ele>
        <time>2015-03-29T13:14:56Z</time>
      </trkpt>
      <trkpt lat="41.163968" lon="-6.669711">
        <ele>700.556</ele>
        <time>2015-03-29T13:15:05Z</time>
      </trkpt>
      <trkpt lat="41.163889" lon="-6.670058">
        <ele>701.959</ele>
        <time>2015-03-29T13:15:15Z</time>
      </trkpt>
      <trkpt lat="41.163841" lon="-6.670387">
        <ele>703.314</ele>
        <time>2015-03-29T13:15:24Z</time>
      </trkpt>
      <trkpt lat="41.163816" lon="-6.670834">
        <ele>704.307</ele>
        <time>2015-03-29T13:15:36Z</time>
      </trkpt>
      <trkpt lat="41.163823" lon="-6.670875">
        <ele>703.884</ele>
        <time>2015-03-29T13:15:37Z</time>
      </trkpt>
      <trkpt lat="41.163802" lon="-6.671334">
        <ele>706.779</ele>
        <time>2015-03-29T13:15:49Z</time>
      </trkpt>
      <trkpt lat="41.163779" lon="-6.671671">
        <ele>707.254</ele>
        <time>2015-03-29T13:15:58Z</time>
      </trkpt>
      <trkpt lat="41.163758" lon="-6.671934">
        <ele>705.388</ele>
        <time>2015-03-29T13:16:06Z</time>
      </trkpt>
      <trkpt lat="41.163753" lon="-6.671954">
        <ele>708.626</ele>
        <time>2015-03-29T13:16:07Z</time>
      </trkpt>
      <trkpt lat="41.163727" lon="-6.672176">
        <ele>706.740</ele>
        <time>2015-03-29T13:16:16Z</time>
      </trkpt>
      <trkpt lat="41.163682" lon="-6.672563">
        <ele>706.741</ele>
        <time>2015-03-29T13:16:28Z</time>
      </trkpt>
      <trkpt lat="41.163667" lon="-6.672659">
        <ele>706.731</ele>
        <time>2015-03-29T13:16:32Z</time>
      </trkpt>
      <trkpt lat="41.163602" lon="-6.673153">
        <ele>706.761</ele>
        <time>2015-03-29T13:16:43Z</time>
      </trkpt>
      <trkpt lat="41.163513" lon="-6.673702">
        <ele>706.707</ele>
        <time>2015-03-29T13:16:54Z</time>
      </trkpt>
      <trkpt lat="41.163384" lon="-6.674288">
        <ele>707.207</ele>
        <time>2015-03-29T13:17:06Z</time>
      </trkpt>
      <trkpt lat="41.163280" lon="-6.674770">
        <ele>705.872</ele>
        <time>2015-03-29T13:17:16Z</time>
      </trkpt>
      <trkpt lat="41.163267" lon="-6.674817">
        <ele>709.137</ele>
        <time>2015-03-29T13:17:17Z</time>
      </trkpt>
      <trkpt lat="41.163178" lon="-6.675168">
        <ele>708.292</ele>
        <time>2015-03-29T13:17:24Z</time>
      </trkpt>
      <trkpt lat="41.163122" lon="-6.675372">
        <ele>707.726</ele>
        <time>2015-03-29T13:17:28Z</time>
      </trkpt>
      <trkpt lat="41.162993" lon="-6.675903">
        <ele>707.784</ele>
        <time>2015-03-29T13:17:40Z</time>
      </trkpt>
      <trkpt lat="41.162850" lon="-6.676588">
        <ele>707.768</ele>
        <time>2015-03-29T13:17:54Z</time>
      </trkpt>
      <trkpt lat="41.162820" lon="-6.677113">
        <ele>706.739</ele>
        <time>2015-03-29T13:18:03Z</time>
      </trkpt>
      <trkpt lat="41.162843" lon="-6.677303">
        <ele>705.342</ele>
        <time>2015-03-29T13:18:06Z</time>
      </trkpt>
      <trkpt lat="41.162952" lon="-6.677814">
        <ele>703.822</ele>
        <time>2015-03-29T13:18:14Z</time>
      </trkpt>
      <trkpt lat="41.163103" lon="-6.678311">
        <ele>704.314</ele>
        <time>2015-03-29T13:18:25Z</time>
      </trkpt>
      <trkpt lat="41.163326" lon="-6.678793">
        <ele>705.807</ele>
        <time>2015-03-29T13:18:37Z</time>
      </trkpt>
      <trkpt lat="41.163511" lon="-6.679215">
        <ele>706.233</ele>
        <time>2015-03-29T13:18:47Z</time>
      </trkpt>
      <trkpt lat="41.163542" lon="-6.679308">
        <ele>706.228</ele>
        <time>2015-03-29T13:18:49Z</time>
      </trkpt>
      <trkpt lat="41.163675" lon="-6.679807">
        <ele>705.873</ele>
        <time>2015-03-29T13:18:59Z</time>
      </trkpt>
      <trkpt lat="41.163677" lon="-6.680115">
        <ele>704.367</ele>
        <time>2015-03-29T13:19:04Z</time>
      </trkpt>
      <trkpt lat="41.163676" lon="-6.680371">
        <ele>702.955</ele>
        <time>2015-03-29T13:19:08Z</time>
      </trkpt>
      <trkpt lat="41.163658" lon="-6.680960">
        <ele>700.029</ele>
        <time>2015-03-29T13:19:16Z</time>
      </trkpt>
      <trkpt lat="41.163651" lon="-6.681208">
        <ele>698.520</ele>
        <time>2015-03-29T13:19:19Z</time>
      </trkpt>
      <trkpt lat="41.163641" lon="-6.681860">
        <ele>694.235</ele>
        <time>2015-03-29T13:19:26Z</time>
      </trkpt>
      <trkpt lat="41.163627" lon="-6.682064">
        <ele>692.886</ele>
        <time>2015-03-29T13:19:28Z</time>
      </trkpt>
      <trkpt lat="41.163565" lon="-6.682481">
        <ele>690.814</ele>
        <time>2015-03-29T13:19:32Z</time>
      </trkpt>
      <trkpt lat="41.163451" lon="-6.682890">
        <ele>688.407</ele>
        <time>2015-03-29T13:19:36Z</time>
      </trkpt>
      <trkpt lat="41.163327" lon="-6.683283">
        <ele>686.552</ele>
        <time>2015-03-29T13:19:40Z</time>
      </trkpt>
      <trkpt lat="41.163037" lon="-6.684226">
        <ele>683.287</ele>
        <time>2015-03-29T13:19:50Z</time>
      </trkpt>
      <trkpt lat="41.162951" lon="-6.684504">
        <ele>681.212</ele>
        <time>2015-03-29T13:19:53Z</time>
      </trkpt>
      <trkpt lat="41.162838" lon="-6.684962">
        <ele>678.816</ele>
        <time>2015-03-29T13:19:58Z</time>
      </trkpt>
      <trkpt lat="41.162724" lon="-6.685505">
        <ele>675.584</ele>
        <time>2015-03-29T13:20:05Z</time>
      </trkpt>
      <trkpt lat="41.162627" lon="-6.685835">
        <ele>672.658</ele>
        <time>2015-03-29T13:20:09Z</time>
      </trkpt>
      <trkpt lat="41.162509" lon="-6.686292">
        <ele>668.789</ele>
        <time>2015-03-29T13:20:14Z</time>
      </trkpt>
      <trkpt lat="41.162446" lon="-6.686731">
        <ele>667.325</ele>
        <time>2015-03-29T13:20:19Z</time>
      </trkpt>
      <trkpt lat="41.162419" lon="-6.686936">
        <ele>667.326</ele>
        <time>2015-03-29T13:20:22Z</time>
      </trkpt>
      <trkpt lat="41.162367" lon="-6.687506">
        <ele>665.408</ele>
        <time>2015-03-29T13:20:32Z</time>
      </trkpt>
      <trkpt lat="41.162364" lon="-6.687585">
        <ele>664.907</ele>
        <time>2015-03-29T13:20:34Z</time>
      </trkpt>
      <trkpt lat="41.162470" lon="-6.687699">
        <ele>663.981</ele>
        <time>2015-03-29T13:20:40Z</time>
      </trkpt>
      <trkpt lat="41.162606" lon="-6.687906">
        <ele>663.546</ele>
        <time>2015-03-29T13:20:47Z</time>
      </trkpt>
      <trkpt lat="41.162629" lon="-6.687987">
        <ele>663.061</ele>
        <time>2015-03-29T13:20:54Z</time>
      </trkpt>
      <trkpt lat="41.162642" lon="-6.687986">
        <ele>663.075</ele>
        <time>2015-03-29T13:21:05Z</time>
      </trkpt>
      <trkpt lat="41.162662" lon="-6.687979">
        <ele>662.553</ele>
        <time>2015-03-29T13:21:25Z</time>
      </trkpt>
      <trkpt lat="41.162663" lon="-6.687978">
        <ele>663.087</ele>
        <time>2015-03-29T13:21:38Z</time>
      </trkpt>
      <trkpt lat="41.162654" lon="-6.687971">
        <ele>663.088</ele>
        <time>2015-03-29T13:22:07Z</time>
      </trkpt>
      <trkpt lat="41.162657" lon="-6.687959">
        <ele>663.561</ele>
        <time>2015-03-29T13:22:35Z</time>
      </trkpt>
      <trkpt lat="41.162653" lon="-6.687958">
        <ele>663.021</ele>
        <time>2015-03-29T13:23:02Z</time>
      </trkpt>
      <trkpt lat="41.162652" lon="-6.687950">
        <ele>663.513</ele>
        <time>2015-03-29T13:23:27Z</time>
      </trkpt>
      <trkpt lat="41.162649" lon="-6.687970">
        <ele>663.507</ele>
        <time>2015-03-29T13:24:02Z</time>
      </trkpt>
      <trkpt lat="41.162646" lon="-6.688022">
        <ele>663.525</ele>
        <time>2015-03-29T13:24:33Z</time>
      </trkpt>
      <trkpt lat="41.162652" lon="-6.688012">
        <ele>663.560</ele>
        <time>2015-03-29T13:25:00Z</time>
      </trkpt>
      <trkpt lat="41.162645" lon="-6.688000">
        <ele>663.565</ele>
        <time>2015-03-29T13:25:29Z</time>
      </trkpt>
      <trkpt lat="41.162653" lon="-6.687963">
        <ele>663.559</ele>
        <time>2015-03-29T13:26:00Z</time>
      </trkpt>
      <trkpt lat="41.162652" lon="-6.687963">
        <ele>663.557</ele>
        <time>2015-03-29T13:26:31Z</time>
      </trkpt>
      <trkpt lat="41.162639" lon="-6.687979">
        <ele>663.961</ele>
        <time>2015-03-29T13:27:03Z</time>
      </trkpt>
      <trkpt lat="41.162633" lon="-6.687985">
        <ele>663.922</ele>
        <time>2015-03-29T13:27:35Z</time>
      </trkpt>
      <trkpt lat="41.162655" lon="-6.688012">
        <ele>663.955</ele>
        <time>2015-03-29T13:28:02Z</time>
      </trkpt>
      <trkpt lat="41.162680" lon="-6.688034">
        <ele>663.907</ele>
        <time>2015-03-29T13:28:36Z</time>
      </trkpt>
      <trkpt lat="41.162683" lon="-6.688015">
        <ele>663.917</ele>
        <time>2015-03-29T13:29:07Z</time>
      </trkpt>
      <trkpt lat="41.162676" lon="-6.687995">
        <ele>663.907</ele>
        <time>2015-03-29T13:29:35Z</time>
      </trkpt>
      <trkpt lat="41.162660" lon="-6.687964">
        <ele>663.964</ele>
        <time>2015-03-29T13:30:01Z</time>
      </trkpt>
      <trkpt lat="41.162644" lon="-6.687964">
        <ele>663.919</ele>
        <time>2015-03-29T13:30:30Z</time>
      </trkpt>
      <trkpt lat="41.162653" lon="-6.687985">
        <ele>663.964</ele>
        <time>2015-03-29T13:31:01Z</time>
      </trkpt>
      <trkpt lat="41.162706" lon="-6.687978">
        <ele>663.558</ele>
        <time>2015-03-29T13:31:33Z</time>
      </trkpt>
      <trkpt lat="41.162704" lon="-6.688005">
        <ele>663.936</ele>
        <time>2015-03-29T13:31:59Z</time>
      </trkpt>
      <trkpt lat="41.162686" lon="-6.688013">
        <ele>664.450</ele>
        <time>2015-03-29T13:32:27Z</time>
      </trkpt>
      <trkpt lat="41.162688" lon="-6.688011">
        <ele>664.421</ele>
        <time>2015-03-29T13:32:53Z</time>
      </trkpt>
      <trkpt lat="41.162700" lon="-6.688004">
        <ele>664.475</ele>
        <time>2015-03-29T13:33:23Z</time>
      </trkpt>
      <trkpt lat="41.162728" lon="-6.688018">
        <ele>664.928</ele>
        <time>2015-03-29T13:33:53Z</time>
      </trkpt>
      <trkpt lat="41.162739" lon="-6.688034">
        <ele>664.420</ele>
        <time>2015-03-29T13:34:22Z</time>
      </trkpt>
      <trkpt lat="41.162719" lon="-6.688039">
        <ele>664.407</ele>
        <time>2015-03-29T13:34:56Z</time>
      </trkpt>
      <trkpt lat="41.162713" lon="-6.688044">
        <ele>664.996</ele>
        <time>2015-03-29T13:35:30Z</time>
      </trkpt>
      <trkpt lat="41.162685" lon="-6.688037">
        <ele>664.941</ele>
        <time>2015-03-29T13:36:02Z</time>
      </trkpt>
      <trkpt lat="41.162656" lon="-6.688007">
        <ele>664.946</ele>
        <time>2015-03-29T13:36:33Z</time>
      </trkpt>
      <trkpt lat="41.162649" lon="-6.688021">
        <ele>665.440</ele>
        <time>2015-03-29T13:37:02Z</time>
      </trkpt>
      <trkpt lat="41.162677" lon="-6.688022">
        <ele>664.958</ele>
        <time>2015-03-29T13:37:32Z</time>
      </trkpt>
      <trkpt lat="41.162696" lon="-6.688013">
        <ele>664.992</ele>
        <time>2015-03-29T13:38:01Z</time>
      </trkpt>
      <trkpt lat="41.162695" lon="-6.688013">
        <ele>664.953</ele>
        <time>2015-03-29T13:38:28Z</time>
      </trkpt>
      <trkpt lat="41.162677" lon="-6.688011">
        <ele>665.469</ele>
        <time>2015-03-29T13:38:59Z</time>
      </trkpt>
      <trkpt lat="41.162679" lon="-6.688018">
        <ele>664.404</ele>
        <time>2015-03-29T13:39:28Z</time>
      </trkpt>
      <trkpt lat="41.162669" lon="-6.688007">
        <ele>664.924</ele>
        <time>2015-03-29T13:39:55Z</time>
      </trkpt>
      <trkpt lat="41.162665" lon="-6.688015">
        <ele>664.407</ele>
        <time>2015-03-29T13:40:25Z</time>
      </trkpt>
      <trkpt lat="41.162658" lon="-6.688021">
        <ele>664.425</ele>
        <time>2015-03-29T13:40:53Z</time>
      </trkpt>
      <trkpt lat="41.162640" lon="-6.688019">
        <ele>664.480</ele>
        <time>2015-03-29T13:41:23Z</time>
      </trkpt>
      <trkpt lat="41.162638" lon="-6.688020">
        <ele>664.485</ele>
        <time>2015-03-29T13:41:54Z</time>
      </trkpt>
      <trkpt lat="41.162654" lon="-6.688020">
        <ele>664.419</ele>
        <time>2015-03-29T13:42:24Z</time>
      </trkpt>
      <trkpt lat="41.162660" lon="-6.688012">
        <ele>664.957</ele>
        <time>2015-03-29T13:42:48Z</time>
      </trkpt>
      <trkpt lat="41.162646" lon="-6.688003">
        <ele>664.921</ele>
        <time>2015-03-29T13:43:14Z</time>
      </trkpt>
      <trkpt lat="41.162633" lon="-6.687995">
        <ele>664.932</ele>
        <time>2015-03-29T13:43:47Z</time>
      </trkpt>
      <trkpt lat="41.162640" lon="-6.687997">
        <ele>663.935</ele>
        <time>2015-03-29T13:43:56Z</time>
      </trkpt>
      <trkpt lat="41.162774" lon="-6.687936">
        <ele>668.386</ele>
        <time>2015-03-29T13:54:00Z</time>
      </trkpt>
      <trkpt lat="41.162784" lon="-6.687952">
        <ele>668.314</ele>
        <time>2015-03-29T13:54:01Z</time>
      </trkpt>
      <trkpt lat="41.162819" lon="-6.687956">
        <ele>671.107</ele>
        <time>2015-03-29T13:54:21Z</time>
      </trkpt>
      <trkpt lat="41.162806" lon="-6.687985">
        <ele>673.152</ele>
        <time>2015-03-29T13:54:44Z</time>
      </trkpt>
      <trkpt lat="41.162771" lon="-6.687986">
        <ele>674.567</ele>
        <time>2015-03-29T13:55:10Z</time>
      </trkpt>
      <trkpt lat="41.162767" lon="-6.687967">
        <ele>674.572</ele>
        <time>2015-03-29T13:55:30Z</time>
      </trkpt>
      <trkpt lat="41.162686" lon="-6.687967">
        <ele>674.076</ele>
        <time>2015-03-29T13:55:52Z</time>
      </trkpt>
      <trkpt lat="41.162646" lon="-6.687980">
        <ele>674.094</ele>
        <time>2015-03-29T13:56:15Z</time>
      </trkpt>
      <trkpt lat="41.162651" lon="-6.687988">
        <ele>673.598</ele>
        <time>2015-03-29T13:56:36Z</time>
      </trkpt>
      <trkpt lat="41.162651" lon="-6.687988">
        <ele>673.129</ele>
        <time>2015-03-29T13:56:37Z</time>
      </trkpt>
      <trkpt lat="41.162668" lon="-6.687991">
        <ele>672.669</ele>
        <time>2015-03-29T14:11:39Z</time>
      </trkpt>
      <trkpt lat="41.162654" lon="-6.687991">
        <ele>673.104</ele>
        <time>2015-03-29T14:11:40Z</time>
      </trkpt>
      <trkpt lat="41.162652" lon="-6.688001">
        <ele>672.624</ele>
        <time>2015-03-29T14:11:43Z</time>
      </trkpt>
      <trkpt lat="41.162633" lon="-6.687886">
        <ele>671.607</ele>
        <time>2015-03-29T14:11:49Z</time>
      </trkpt>
      <trkpt lat="41.162624" lon="-6.687760">
        <ele>671.195</ele>
        <time>2015-03-29T14:11:54Z</time>
      </trkpt>
      <trkpt lat="41.162570" lon="-6.687759">
        <ele>670.240</ele>
        <time>2015-03-29T14:12:02Z</time>
      </trkpt>
      <trkpt lat="41.162556" lon="-6.687790">
        <ele>666.825</ele>
        <time>2015-03-29T14:12:24Z</time>
      </trkpt>
      <trkpt lat="41.162562" lon="-6.687772">
        <ele>664.449</ele>
        <time>2015-03-29T14:12:40Z</time>
      </trkpt>
      <trkpt lat="41.162575" lon="-6.687777">
        <ele>664.457</ele>
        <time>2015-03-29T14:12:43Z</time>
      </trkpt>
      <trkpt lat="41.162632" lon="-6.687939">
        <ele>663.061</ele>
        <time>2015-03-29T14:12:51Z</time>
      </trkpt>
      <trkpt lat="41.162629" lon="-6.687976">
        <ele>662.512</ele>
        <time>2015-03-29T14:12:53Z</time>
      </trkpt>
      <trkpt lat="41.162633" lon="-6.688029">
        <ele>662.518</ele>
        <time>2015-03-29T14:13:06Z</time>
      </trkpt>
      <trkpt lat="41.162621" lon="-6.688027">
        <ele>662.598</ele>
        <time>2015-03-29T14:13:29Z</time>
      </trkpt>
      <trkpt lat="41.162620" lon="-6.688030">
        <ele>662.017</ele>
        <time>2015-03-29T14:13:30Z</time>
      </trkpt>
      <trkpt lat="41.162545" lon="-6.688209">
        <ele>661.007</ele>
        <time>2015-03-29T14:13:38Z</time>
      </trkpt>
      <trkpt lat="41.162528" lon="-6.688439">
        <ele>660.110</ele>
        <time>2015-03-29T14:13:46Z</time>
      </trkpt>
      <trkpt lat="41.162538" lon="-6.688782">
        <ele>658.685</ele>
        <time>2015-03-29T14:13:54Z</time>
      </trkpt>
      <trkpt lat="41.162560" lon="-6.688944">
        <ele>657.290</ele>
        <time>2015-03-29T14:13:57Z</time>
      </trkpt>
      <trkpt lat="41.162630" lon="-6.689179">
        <ele>655.864</ele>
        <time>2015-03-29T14:14:01Z</time>
      </trkpt>
      <trkpt lat="41.162808" lon="-6.689711">
        <ele>653.882</ele>
        <time>2015-03-29T14:14:10Z</time>
      </trkpt>
      <trkpt lat="41.162983" lon="-6.690074">
        <ele>652.476</ele>
        <time>2015-03-29T14:14:20Z</time>
      </trkpt>
      <trkpt lat="41.163030" lon="-6.690384">
        <ele>651.497</ele>
        <time>2015-03-29T14:14:29Z</time>
      </trkpt>
      <trkpt lat="41.163024" lon="-6.690404">
        <ele>651.919</ele>
        <time>2015-03-29T14:14:30Z</time>
      </trkpt>
      <trkpt lat="41.163103" lon="-6.690641">
        <ele>650.009</ele>
        <time>2015-03-29T14:14:41Z</time>
      </trkpt>
      <trkpt lat="41.163279" lon="-6.690906">
        <ele>649.519</ele>
        <time>2015-03-29T14:14:50Z</time>
      </trkpt>
      <trkpt lat="41.163278" lon="-6.690907">
        <ele>649.507</ele>
        <time>2015-03-29T14:14:51Z</time>
      </trkpt>
      <trkpt lat="41.163287" lon="-6.690980">
        <ele>649.040</ele>
        <time>2015-03-29T14:15:00Z</time>
      </trkpt>
      <trkpt lat="41.163293" lon="-6.690976">
        <ele>649.095</ele>
        <time>2015-03-29T14:15:24Z</time>
      </trkpt>
      <trkpt lat="41.163275" lon="-6.690897">
        <ele>649.540</ele>
        <time>2015-03-29T14:15:30Z</time>
      </trkpt>
      <trkpt lat="41.163235" lon="-6.690892">
        <ele>649.524</ele>
        <time>2015-03-29T14:15:38Z</time>
      </trkpt>
      <trkpt lat="41.163230" lon="-6.690897">
        <ele>649.032</ele>
        <time>2015-03-29T14:15:54Z</time>
      </trkpt>
      <trkpt lat="41.163230" lon="-6.690889">
        <ele>649.546</ele>
        <time>2015-03-29T14:15:58Z</time>
      </trkpt>
      <trkpt lat="41.163331" lon="-6.690985">
        <ele>648.687</ele>
        <time>2015-03-29T14:16:06Z</time>
      </trkpt>
      <trkpt lat="41.163423" lon="-6.691111">
        <ele>649.517</ele>
        <time>2015-03-29T14:16:11Z</time>
      </trkpt>
      <trkpt lat="41.163682" lon="-6.691459">
        <ele>650.587</ele>
        <time>2015-03-29T14:16:22Z</time>
      </trkpt>
      <trkpt lat="41.163713" lon="-6.691485">
        <ele>651.015</ele>
        <time>2015-03-29T14:16:23Z</time>
      </trkpt>
      <trkpt lat="41.164009" lon="-6.691554">
        <ele>651.907</ele>
        <time>2015-03-29T14:16:32Z</time>
      </trkpt>
      <trkpt lat="41.164319" lon="-6.691553">
        <ele>653.460</ele>
        <time>2015-03-29T14:16:42Z</time>
      </trkpt>
      <trkpt lat="41.164652" lon="-6.691507">
        <ele>654.825</ele>
        <time>2015-03-29T14:16:53Z</time>
      </trkpt>
      <trkpt lat="41.164889" lon="-6.691450">
        <ele>656.240</ele>
        <time>2015-03-29T14:17:01Z</time>
      </trkpt>
      <trkpt lat="41.165136" lon="-6.691364">
        <ele>657.774</ele>
        <time>2015-03-29T14:17:10Z</time>
      </trkpt>
      <trkpt lat="41.165353" lon="-6.691216">
        <ele>658.662</ele>
        <time>2015-03-29T14:17:20Z</time>
      </trkpt>
      <trkpt lat="41.165360" lon="-6.691209">
        <ele>658.666</ele>
        <time>2015-03-29T14:17:21Z</time>
      </trkpt>
      <trkpt lat="41.165532" lon="-6.691186">
        <ele>657.797</ele>
        <time>2015-03-29T14:17:27Z</time>
      </trkpt>
      <trkpt lat="41.165742" lon="-6.691211">
        <ele>656.214</ele>
        <time>2015-03-29T14:17:32Z</time>
      </trkpt>
      <trkpt lat="41.166022" lon="-6.691217">
        <ele>655.354</ele>
        <time>2015-03-29T14:17:41Z</time>
      </trkpt>
      <trkpt lat="41.166048" lon="-6.691216">
        <ele>654.309</ele>
        <time>2015-03-29T14:17:53Z</time>
      </trkpt>
      <trkpt lat="41.166173" lon="-6.691249">
        <ele>653.407</ele>
        <time>2015-03-29T14:18:01Z</time>
      </trkpt>
      <trkpt lat="41.166561" lon="-6.691331">
        <ele>651.980</ele>
        <time>2015-03-29T14:18:11Z</time>
      </trkpt>
      <trkpt lat="41.166767" lon="-6.691436">
        <ele>651.015</ele>
        <time>2015-03-29T14:18:16Z</time>
      </trkpt>
      <trkpt lat="41.166900" lon="-6.691512">
        <ele>650.090</ele>
        <time>2015-03-29T14:18:19Z</time>
      </trkpt>
      <trkpt lat="41.167128" lon="-6.691611">
        <ele>649.034</ele>
        <time>2015-03-29T14:18:24Z</time>
      </trkpt>
      <trkpt lat="41.167480" lon="-6.691926">
        <ele>648.192</ele>
        <time>2015-03-29T14:18:33Z</time>
      </trkpt>
      <trkpt lat="41.167607" lon="-6.692077">
        <ele>648.156</ele>
        <time>2015-03-29T14:18:37Z</time>
      </trkpt>
      <trkpt lat="41.168062" lon="-6.692309">
        <ele>647.667</ele>
        <time>2015-03-29T14:18:48Z</time>
      </trkpt>
      <trkpt lat="41.168229" lon="-6.692376">
        <ele>647.697</ele>
        <time>2015-03-29T14:18:52Z</time>
      </trkpt>
      <trkpt lat="41.168789" lon="-6.692562">
        <ele>645.723</ele>
        <time>2015-03-29T14:19:04Z</time>
      </trkpt>
      <trkpt lat="41.168883" lon="-6.692618">
        <ele>645.725</ele>
        <time>2015-03-29T14:19:06Z</time>
      </trkpt>
      <trkpt lat="41.169007" lon="-6.692714">
        <ele>646.107</ele>
        <time>2015-03-29T14:19:09Z</time>
      </trkpt>
      <trkpt lat="41.169309" lon="-6.693013">
        <ele>648.618</ele>
        <time>2015-03-29T14:19:19Z</time>
      </trkpt>
      <trkpt lat="41.169564" lon="-6.693262">
        <ele>650.583</ele>
        <time>2015-03-29T14:19:29Z</time>
      </trkpt>
      <trkpt lat="41.169857" lon="-6.693657">
        <ele>650.578</ele>
        <time>2015-03-29T14:19:41Z</time>
      </trkpt>
      <trkpt lat="41.170071" lon="-6.693942">
        <ele>651.982</ele>
        <time>2015-03-29T14:19:51Z</time>
      </trkpt>
      <trkpt lat="41.170319" lon="-6.694068">
        <ele>652.990</ele>
        <time>2015-03-29T14:20:00Z</time>
      </trkpt>
      <trkpt lat="41.170593" lon="-6.694403">
        <ele>650.534</ele>
        <time>2015-03-29T14:20:10Z</time>
      </trkpt>
      <trkpt lat="41.170649" lon="-6.694477">
        <ele>649.515</ele>
        <time>2015-03-29T14:20:12Z</time>
      </trkpt>
      <trkpt lat="41.170830" lon="-6.694807">
        <ele>647.675</ele>
        <time>2015-03-29T14:20:22Z</time>
      </trkpt>
      <trkpt lat="41.170971" lon="-6.695015">
        <ele>646.128</ele>
        <time>2015-03-29T14:20:30Z</time>
      </trkpt>
      <trkpt lat="41.170996" lon="-6.695064">
        <ele>645.720</ele>
        <time>2015-03-29T14:20:31Z</time>
      </trkpt>
      <trkpt lat="41.171097" lon="-6.695219">
        <ele>645.207</ele>
        <time>2015-03-29T14:20:34Z</time>
      </trkpt>
      <trkpt lat="41.171205" lon="-6.695383">
        <ele>643.366</ele>
        <time>2015-03-29T14:20:37Z</time>
      </trkpt>
      <trkpt lat="41.171241" lon="-6.695434">
        <ele>643.391</ele>
        <time>2015-03-29T14:20:38Z</time>
      </trkpt>
      <trkpt lat="41.171456" lon="-6.695837">
        <ele>639.966</ele>
        <time>2015-03-29T14:20:47Z</time>
      </trkpt>
      <trkpt lat="41.171489" lon="-6.695998">
        <ele>638.520</ele>
        <time>2015-03-29T14:20:50Z</time>
      </trkpt>
      <trkpt lat="41.171438" lon="-6.696444">
        <ele>634.658</ele>
        <time>2015-03-29T14:20:56Z</time>
      </trkpt>
      <trkpt lat="41.171382" lon="-6.696721">
        <ele>631.782</ele>
        <time>2015-03-29T14:21:00Z</time>
      </trkpt>
      <trkpt lat="41.171436" lon="-6.697146">
        <ele>629.873</ele>
        <time>2015-03-29T14:21:07Z</time>
      </trkpt>
      <trkpt lat="41.171629" lon="-6.697161">
        <ele>628.879</ele>
        <time>2015-03-29T14:21:11Z</time>
      </trkpt>
      <trkpt lat="41.171982" lon="-6.697038">
        <ele>625.505</ele>
        <time>2015-03-29T14:21:17Z</time>
      </trkpt>
      <trkpt lat="41.172171" lon="-6.697046">
        <ele>624.525</ele>
        <time>2015-03-29T14:21:20Z</time>
      </trkpt>
      <trkpt lat="41.172334" lon="-6.697136">
        <ele>623.107</ele>
        <time>2015-03-29T14:21:23Z</time>
      </trkpt>
      <trkpt lat="41.172378" lon="-6.697187">
        <ele>622.616</ele>
        <time>2015-03-29T14:21:24Z</time>
      </trkpt>
      <trkpt lat="41.172620" lon="-6.697601">
        <ele>620.291</ele>
        <time>2015-03-29T14:21:30Z</time>
      </trkpt>
      <trkpt lat="41.172824" lon="-6.697987">
        <ele>618.366</ele>
        <time>2015-03-29T14:21:35Z</time>
      </trkpt>
      <trkpt lat="41.173066" lon="-6.698252">
        <ele>622.190</ele>
        <time>2015-03-29T14:21:41Z</time>
      </trkpt>
      <trkpt lat="41.173381" lon="-6.698550">
        <ele>620.758</ele>
        <time>2015-03-29T14:21:51Z</time>
      </trkpt>
      <trkpt lat="41.173447" lon="-6.698619">
        <ele>621.272</ele>
        <time>2015-03-29T14:22:01Z</time>
      </trkpt>
      <trkpt lat="41.173459" lon="-6.698633">
        <ele>621.213</ele>
        <time>2015-03-29T14:22:03Z</time>
      </trkpt>
      <trkpt lat="41.173599" lon="-6.698783">
        <ele>620.728</ele>
        <time>2015-03-29T14:22:15Z</time>
      </trkpt>
      <trkpt lat="41.173658" lon="-6.698868">
        <ele>620.289</ele>
        <time>2015-03-29T14:22:23Z</time>
      </trkpt>
      <trkpt lat="41.173660" lon="-6.698877">
        <ele>620.217</ele>
        <time>2015-03-29T14:22:43Z</time>
      </trkpt>
      <trkpt lat="41.173669" lon="-6.698897">
        <ele>620.207</ele>
        <time>2015-03-29T14:22:58Z</time>
      </trkpt>
      <trkpt lat="41.173688" lon="-6.698893">
        <ele>620.241</ele>
        <time>2015-03-29T14:23:08Z</time>
      </trkpt>
      <trkpt lat="41.173696" lon="-6.698905">
        <ele>620.236</ele>
        <time>2015-03-29T14:23:12Z</time>
      </trkpt>
      <trkpt lat="41.173738" lon="-6.698991">
        <ele>619.771</ele>
        <time>2015-03-29T14:23:19Z</time>
      </trkpt>
      <trkpt lat="41.173747" lon="-6.699010">
        <ele>620.255</ele>
        <time>2015-03-29T14:23:26Z</time>
      </trkpt>
      <trkpt lat="41.173807" lon="-6.699102">
        <ele>619.783</ele>
        <time>2015-03-29T14:23:31Z</time>
      </trkpt>
      <trkpt lat="41.174028" lon="-6.699301">
        <ele>618.837</ele>
        <time>2015-03-29T14:23:44Z</time>
      </trkpt>
      <trkpt lat="41.174212" lon="-6.699405">
        <ele>616.868</ele>
        <time>2015-03-29T14:23:55Z</time>
      </trkpt>
      <trkpt lat="41.174221" lon="-6.699416">
        <ele>616.829</ele>
        <time>2015-03-29T14:23:57Z</time>
      </trkpt>
      <trkpt lat="41.174312" lon="-6.699465">
        <ele>615.400</ele>
        <time>2015-03-29T14:24:02Z</time>
      </trkpt>
      <trkpt lat="41.174615" lon="-6.699708">
        <ele>612.520</ele>
        <time>2015-03-29T14:24:12Z</time>
      </trkpt>
      <trkpt lat="41.174637" lon="-6.699730">
        <ele>612.507</ele>
        <time>2015-03-29T14:24:13Z</time>
      </trkpt>
      <trkpt lat="41.174739" lon="-6.699838">
        <ele>611.531</ele>
        <time>2015-03-29T14:24:21Z</time>
      </trkpt>
      <trkpt lat="41.174744" lon="-6.699861">
        <ele>611.546</ele>
        <time>2015-03-29T14:24:31Z</time>
      </trkpt>
      <trkpt lat="41.174756" lon="-6.699862">
        <ele>612.071</ele>
        <time>2015-03-29T14:24:47Z</time>
      </trkpt>
      <trkpt lat="41.174703" lon="-6.699876">
        <ele>611.585</ele>
        <time>2015-03-29T14:24:52Z</time>
      </trkpt>
      <trkpt lat="41.174599" lon="-6.699981">
        <ele>612.093</ele>
        <time>2015-03-29T14:24:56Z</time>
      </trkpt>
      <trkpt lat="41.174551" lon="-6.700057">
        <ele>613.047</ele>
        <time>2015-03-29T14:25:04Z</time>
      </trkpt>
      <trkpt lat="41.174539" lon="-6.700070">
        <ele>613.098</ele>
        <time>2015-03-29T14:25:15Z</time>
      </trkpt>
      <trkpt lat="41.174541" lon="-6.700072">
        <ele>613.025</ele>
        <time>2015-03-29T14:25:27Z</time>
      </trkpt>
      <trkpt lat="41.174534" lon="-6.700068">
        <ele>613.526</ele>
        <time>2015-03-29T14:25:48Z</time>
      </trkpt>
      <trkpt lat="41.174533" lon="-6.700061">
        <ele>613.908</ele>
        <time>2015-03-29T14:26:14Z</time>
      </trkpt>
      <trkpt lat="41.174535" lon="-6.700070">
        <ele>613.907</ele>
        <time>2015-03-29T14:26:33Z</time>
      </trkpt>
      <trkpt lat="41.174530" lon="-6.700074">
        <ele>613.561</ele>
        <time>2015-03-29T14:26:58Z</time>
      </trkpt>
      <trkpt lat="41.174526" lon="-6.700073">
        <ele>614.486</ele>
        <time>2015-03-29T14:27:27Z</time>
      </trkpt>
      <trkpt lat="41.174536" lon="-6.700075">
        <ele>613.541</ele>
        <time>2015-03-29T14:27:49Z</time>
      </trkpt>
      <trkpt lat="41.174539" lon="-6.700075">
        <ele>613.025</ele>
        <time>2015-03-29T14:28:13Z</time>
      </trkpt>
      <trkpt lat="41.174533" lon="-6.700063">
        <ele>614.423</ele>
        <time>2015-03-29T14:28:42Z</time>
      </trkpt>
      <trkpt lat="41.174536" lon="-6.700063">
        <ele>613.937</ele>
        <time>2015-03-29T14:29:14Z</time>
      </trkpt>
      <trkpt lat="41.174537" lon="-6.700066">
        <ele>612.068</ele>
        <time>2015-03-29T14:29:38Z</time>
      </trkpt>
      <trkpt lat="41.174537" lon="-6.700076">
        <ele>611.556</ele>
        <time>2015-03-29T14:30:09Z</time>
      </trkpt>
      <trkpt lat="41.174537" lon="-6.700077">
        <ele>610.659</ele>
        <time>2015-03-29T14:30:41Z</time>
      </trkpt>
      <trkpt lat="41.174531" lon="-6.700075">
        <ele>611.514</ele>
        <time>2015-03-29T14:31:10Z</time>
      </trkpt>
      <trkpt lat="41.174535" lon="-6.700067">
        <ele>611.107</ele>
        <time>2015-03-29T14:31:40Z</time>
      </trkpt>
      <trkpt lat="41.174532" lon="-6.700076">
        <ele>611.184</ele>
        <time>2015-03-29T14:32:07Z</time>
      </trkpt>
      <trkpt lat="41.174537" lon="-6.700082">
        <ele>610.669</ele>
        <time>2015-03-29T14:32:40Z</time>
      </trkpt>
      <trkpt lat="41.174539" lon="-6.700074">
        <ele>611.534</ele>
        <time>2015-03-29T14:33:08Z</time>
      </trkpt>
      <trkpt lat="41.174543" lon="-6.700072">
        <ele>611.178</ele>
        <time>2015-03-29T14:33:39Z</time>
      </trkpt>
      <trkpt lat="41.174551" lon="-6.700066">
        <ele>610.626</ele>
        <time>2015-03-29T14:34:09Z</time>
      </trkpt>
      <trkpt lat="41.174549" lon="-6.700068">
        <ele>612.540</ele>
        <time>2015-03-29T14:34:30Z</time>
      </trkpt>
      <trkpt lat="41.174545" lon="-6.700073">
        <ele>611.561</ele>
        <time>2015-03-29T14:35:00Z</time>
      </trkpt>
      <trkpt lat="41.174536" lon="-6.700078">
        <ele>611.531</ele>
        <time>2015-03-29T14:35:32Z</time>
      </trkpt>
      <trkpt lat="41.174549" lon="-6.700070">
        <ele>612.561</ele>
        <time>2015-03-29T14:36:02Z</time>
      </trkpt>
      <trkpt lat="41.174547" lon="-6.700065">
        <ele>613.007</ele>
        <time>2015-03-29T14:36:30Z</time>
      </trkpt>
      <trkpt lat="41.174551" lon="-6.700065">
        <ele>612.507</ele>
        <time>2015-03-29T14:36:59Z</time>
      </trkpt>
      <trkpt lat="41.174555" lon="-6.700069">
        <ele>613.072</ele>
        <time>2015-03-29T14:37:28Z</time>
      </trkpt>
      <trkpt lat="41.174557" lon="-6.700067">
        <ele>613.057</ele>
        <time>2015-03-29T14:38:00Z</time>
      </trkpt>
      <trkpt lat="41.174561" lon="-6.700068">
        <ele>612.092</ele>
        <time>2015-03-29T14:38:30Z</time>
      </trkpt>
      <trkpt lat="41.174551" lon="-6.700063">
        <ele>612.526</ele>
        <time>2015-03-29T14:38:45Z</time>
      </trkpt>
      <trkpt lat="41.174560" lon="-6.700039">
        <ele>612.554</ele>
        <time>2015-03-29T14:38:53Z</time>
      </trkpt>
      <trkpt lat="41.174555" lon="-6.700035">
        <ele>612.598</ele>
        <time>2015-03-29T14:39:10Z</time>
      </trkpt>
      <trkpt lat="41.174594" lon="-6.699957">
        <ele>612.589</ele>
        <time>2015-03-29T14:39:21Z</time>
      </trkpt>
      <trkpt lat="41.174586" lon="-6.699727">
        <ele>612.051</ele>
        <time>2015-03-29T14:39:26Z</time>
      </trkpt>
      <trkpt lat="41.174490" lon="-6.699585">
        <ele>613.001</ele>
        <time>2015-03-29T14:39:33Z</time>
      </trkpt>
      <trkpt lat="41.174414" lon="-6.699537">
        <ele>613.511</ele>
        <time>2015-03-29T14:39:37Z</time>
      </trkpt>
      <trkpt lat="41.174223" lon="-6.699391">
        <ele>615.407</ele>
        <time>2015-03-29T14:39:48Z</time>
      </trkpt>
      <trkpt lat="41.174051" lon="-6.699275">
        <ele>617.864</ele>
        <time>2015-03-29T14:39:57Z</time>
      </trkpt>
      <trkpt lat="41.173806" lon="-6.699092">
        <ele>619.299</ele>
        <time>2015-03-29T14:40:09Z</time>
      </trkpt>
      <trkpt lat="41.173620" lon="-6.698804">
        <ele>620.284</ele>
        <time>2015-03-29T14:40:20Z</time>
      </trkpt>
      <trkpt lat="41.173424" lon="-6.698576">
        <ele>620.228</ele>
        <time>2015-03-29T14:40:30Z</time>
      </trkpt>
      <trkpt lat="41.173096" lon="-6.698270">
        <ele>619.796</ele>
        <time>2015-03-29T14:40:42Z</time>
      </trkpt>
      <trkpt lat="41.172848" lon="-6.698014">
        <ele>618.320</ele>
        <time>2015-03-29T14:40:50Z</time>
      </trkpt>
      <trkpt lat="41.172618" lon="-6.697612">
        <ele>618.871</ele>
        <time>2015-03-29T14:41:00Z</time>
      </trkpt>
      <trkpt lat="41.172491" lon="-6.697387">
        <ele>621.686</ele>
        <time>2015-03-29T14:41:08Z</time>
      </trkpt>
      <trkpt lat="41.172360" lon="-6.697154">
        <ele>622.660</ele>
        <time>2015-03-29T14:41:16Z</time>
      </trkpt>
      <trkpt lat="41.172114" lon="-6.697041">
        <ele>624.026</ele>
        <time>2015-03-29T14:41:25Z</time>
      </trkpt>
      <trkpt lat="41.171806" lon="-6.697096">
        <ele>626.407</ele>
        <time>2015-03-29T14:41:37Z</time>
      </trkpt>
      <trkpt lat="41.171583" lon="-6.697180">
        <ele>628.857</ele>
        <time>2015-03-29T14:41:47Z</time>
      </trkpt>
      <trkpt lat="41.171398" lon="-6.697102">
        <ele>629.852</ele>
        <time>2015-03-29T14:41:56Z</time>
      </trkpt>
      <trkpt lat="41.171349" lon="-6.696844">
        <ele>630.327</ele>
        <time>2015-03-29T14:42:05Z</time>
      </trkpt>
      <trkpt lat="41.171419" lon="-6.696563">
        <ele>632.791</ele>
        <time>2015-03-29T14:42:16Z</time>
      </trkpt>
      <trkpt lat="41.171431" lon="-6.696494">
        <ele>633.249</ele>
        <time>2015-03-29T14:42:19Z</time>
      </trkpt>
      <trkpt lat="41.171493" lon="-6.696199">
        <ele>635.663</ele>
        <time>2015-03-29T14:42:31Z</time>
      </trkpt>
      <trkpt lat="41.171470" lon="-6.695901">
        <ele>638.524</ele>
        <time>2015-03-29T14:42:44Z</time>
      </trkpt>
      <trkpt lat="41.171376" lon="-6.695633">
        <ele>640.979</ele>
        <time>2015-03-29T14:42:57Z</time>
      </trkpt>
      <trkpt lat="41.171201" lon="-6.695397">
        <ele>642.805</ele>
        <time>2015-03-29T14:43:10Z</time>
      </trkpt>
      <trkpt lat="41.171028" lon="-6.695132">
        <ele>644.225</ele>
        <time>2015-03-29T14:43:24Z</time>
      </trkpt>
      <trkpt lat="41.170928" lon="-6.694953">
        <ele>646.107</ele>
        <time>2015-03-29T14:43:33Z</time>
      </trkpt>
      <trkpt lat="41.170889" lon="-6.694900">
        <ele>646.666</ele>
        <time>2015-03-29T14:43:36Z</time>
      </trkpt>
      <trkpt lat="41.170773" lon="-6.694708">
        <ele>647.661</ele>
        <time>2015-03-29T14:43:46Z</time>
      </trkpt>
      <trkpt lat="41.170628" lon="-6.694465">
        <ele>649.036</ele>
        <time>2015-03-29T14:43:58Z</time>
      </trkpt>
      <trkpt lat="41.170475" lon="-6.694236">
        <ele>651.080</ele>
        <time>2015-03-29T14:44:09Z</time>
      </trkpt>
      <trkpt lat="41.170412" lon="-6.694150">
        <ele>651.478</ele>
        <time>2015-03-29T14:44:13Z</time>
      </trkpt>
      <trkpt lat="41.170305" lon="-6.694060">
        <ele>652.472</ele>
        <time>2015-03-29T14:44:19Z</time>
      </trkpt>
      <trkpt lat="41.170080" lon="-6.693949">
        <ele>651.433</ele>
        <time>2015-03-29T14:44:27Z</time>
      </trkpt>
      <trkpt lat="41.169741" lon="-6.693460">
        <ele>648.674</ele>
        <time>2015-03-29T14:44:37Z</time>
      </trkpt>
      <trkpt lat="41.169405" lon="-6.693086">
        <ele>649.056</ele>
        <time>2015-03-29T14:44:47Z</time>
      </trkpt>
      <trkpt lat="41.169071" lon="-6.692760">
        <ele>646.121</ele>
        <time>2015-03-29T14:44:55Z</time>
      </trkpt>
      <trkpt lat="41.168911" lon="-6.692622">
        <ele>645.707</ele>
        <time>2015-03-29T14:44:58Z</time>
      </trkpt>
      <trkpt lat="41.168733" lon="-6.692523">
        <ele>645.716</ele>
        <time>2015-03-29T14:45:01Z</time>
      </trkpt>
      <trkpt lat="41.168430" lon="-6.692434">
        <ele>646.171</ele>
        <time>2015-03-29T14:45:07Z</time>
      </trkpt>
      <trkpt lat="41.168067" lon="-6.692311">
        <ele>647.156</ele>
        <time>2015-03-29T14:45:15Z</time>
      </trkpt>
      <trkpt lat="41.167765" lon="-6.692164">
        <ele>651.020</ele>
        <time>2015-03-29T14:45:22Z</time>
      </trkpt>
      <trkpt lat="41.167721" lon="-6.692140">
        <ele>647.658</ele>
        <time>2015-03-29T14:45:23Z</time>
      </trkpt>
      <trkpt lat="41.167599" lon="-6.692069">
        <ele>647.672</ele>
        <time>2015-03-29T14:45:26Z</time>
      </trkpt>
      <trkpt lat="41.167353" lon="-6.691766">
        <ele>648.123</ele>
        <time>2015-03-29T14:45:34Z</time>
      </trkpt>
      <trkpt lat="41.166843" lon="-6.691473">
        <ele>649.558</ele>
        <time>2015-03-29T14:45:48Z</time>
      </trkpt>
      <trkpt lat="41.166589" lon="-6.691338">
        <ele>650.552</ele>
        <time>2015-03-29T14:45:58Z</time>
      </trkpt>
      <trkpt lat="41.166346" lon="-6.691270">
        <ele>651.417</ele>
        <time>2015-03-29T14:46:06Z</time>
      </trkpt>
      <trkpt lat="41.165978" lon="-6.691192">
        <ele>654.307</ele>
        <time>2015-03-29T14:46:18Z</time>
      </trkpt>
      <trkpt lat="41.165687" lon="-6.691218">
        <ele>655.814</ele>
        <time>2015-03-29T14:46:28Z</time>
      </trkpt>
      <trkpt lat="41.165457" lon="-6.691195">
        <ele>656.759</ele>
        <time>2015-03-29T14:46:36Z</time>
      </trkpt>
      <trkpt lat="41.165164" lon="-6.691335">
        <ele>656.734</ele>
        <time>2015-03-29T14:46:45Z</time>
      </trkpt>
      <trkpt lat="41.164856" lon="-6.691465">
        <ele>654.318</ele>
        <time>2015-03-29T14:46:51Z</time>
      </trkpt>
      <trkpt lat="41.164214" lon="-6.691535">
        <ele>651.416</ele>
        <time>2015-03-29T14:47:01Z</time>
      </trkpt>
      <trkpt lat="41.164003" lon="-6.691539">
        <ele>650.540</ele>
        <time>2015-03-29T14:47:04Z</time>
      </trkpt>
      <trkpt lat="41.163854" lon="-6.691531">
        <ele>650.561</ele>
        <time>2015-03-29T14:47:06Z</time>
      </trkpt>
      <trkpt lat="41.163599" lon="-6.691356">
        <ele>649.072</ele>
        <time>2015-03-29T14:47:10Z</time>
      </trkpt>
      <trkpt lat="41.163499" lon="-6.691207">
        <ele>648.613</ele>
        <time>2015-03-29T14:47:12Z</time>
      </trkpt>
      <trkpt lat="41.163177" lon="-6.690707">
        <ele>648.114</ele>
        <time>2015-03-29T14:47:19Z</time>
      </trkpt>
      <trkpt lat="41.163099" lon="-6.690487">
        <ele>650.007</ele>
        <time>2015-03-29T14:47:23Z</time>
      </trkpt>
      <trkpt lat="41.163060" lon="-6.690425">
        <ele>650.516</ele>
        <time>2015-03-29T14:47:25Z</time>
      </trkpt>
      <trkpt lat="41.162974" lon="-6.690404">
        <ele>648.161</ele>
        <time>2015-03-29T14:47:29Z</time>
      </trkpt>
      <trkpt lat="41.162944" lon="-6.690429">
        <ele>651.076</ele>
        <time>2015-03-29T14:47:32Z</time>
      </trkpt>
      <trkpt lat="41.162937" lon="-6.690498">
        <ele>651.050</ele>
        <time>2015-03-29T14:47:41Z</time>
      </trkpt>
      <trkpt lat="41.162927" lon="-6.690724">
        <ele>650.038</ele>
        <time>2015-03-29T14:47:49Z</time>
      </trkpt>
      <trkpt lat="41.162813" lon="-6.691065">
        <ele>649.042</ele>
        <time>2015-03-29T14:47:57Z</time>
      </trkpt>
      <trkpt lat="41.162753" lon="-6.691190">
        <ele>650.093</ele>
        <time>2015-03-29T14:48:02Z</time>
      </trkpt>
      <trkpt lat="41.162719" lon="-6.691219">
        <ele>650.064</ele>
        <time>2015-03-29T14:48:08Z</time>
      </trkpt>
      <trkpt lat="41.162614" lon="-6.691404">
        <ele>650.506</ele>
        <time>2015-03-29T14:48:15Z</time>
      </trkpt>
      <trkpt lat="41.162500" lon="-6.691339">
        <ele>651.416</ele>
        <time>2015-03-29T14:48:20Z</time>
      </trkpt>
      <trkpt lat="41.162353" lon="-6.691269">
        <ele>654.807</ele>
        <time>2015-03-29T14:48:27Z</time>
      </trkpt>
      <trkpt lat="41.162336" lon="-6.691253">
        <ele>653.415</ele>
        <time>2015-03-29T14:48:28Z</time>
      </trkpt>
      <trkpt lat="41.162265" lon="-6.691297">
        <ele>654.330</ele>
        <time>2015-03-29T14:48:38Z</time>
      </trkpt>
      <trkpt lat="41.162257" lon="-6.691301">
        <ele>654.325</ele>
        <time>2015-03-29T14:48:43Z</time>
      </trkpt>
      <trkpt lat="41.162258" lon="-6.691161">
        <ele>655.879</ele>
        <time>2015-03-29T14:48:52Z</time>
      </trkpt>
      <trkpt lat="41.162257" lon="-6.691151">
        <ele>655.377</ele>
        <time>2015-03-29T14:48:53Z</time>
      </trkpt>
      <trkpt lat="41.162159" lon="-6.691077">
        <ele>657.791</ele>
        <time>2015-03-29T14:49:02Z</time>
      </trkpt>
      <trkpt lat="41.161973" lon="-6.690935">
        <ele>659.692</ele>
        <time>2015-03-29T14:49:11Z</time>
      </trkpt>
      <trkpt lat="41.161878" lon="-6.690778">
        <ele>661.521</ele>
        <time>2015-03-29T14:49:18Z</time>
      </trkpt>
      <trkpt lat="41.161846" lon="-6.690754">
        <ele>662.041</ele>
        <time>2015-03-29T14:49:21Z</time>
      </trkpt>
      <trkpt lat="41.161689" lon="-6.690799">
        <ele>663.905</ele>
        <time>2015-03-29T14:49:32Z</time>
      </trkpt>
      <trkpt lat="41.161672" lon="-6.690802">
        <ele>663.907</ele>
        <time>2015-03-29T14:49:33Z</time>
      </trkpt>
      <trkpt lat="41.161606" lon="-6.690842">
        <ele>664.481</ele>
        <time>2015-03-29T14:49:38Z</time>
      </trkpt>
      <trkpt lat="41.161471" lon="-6.690936">
        <ele>665.916</ele>
        <time>2015-03-29T14:49:46Z</time>
      </trkpt>
      <trkpt lat="41.161392" lon="-6.691012">
        <ele>667.331</ele>
        <time>2015-03-29T14:49:52Z</time>
      </trkpt>
      <trkpt lat="41.161366" lon="-6.691043">
        <ele>667.865</ele>
        <time>2015-03-29T14:49:54Z</time>
      </trkpt>
      <trkpt lat="41.161120" lon="-6.691184">
        <ele>669.253</ele>
        <time>2015-03-29T14:50:07Z</time>
      </trkpt>
      <trkpt lat="41.160932" lon="-6.691307">
        <ele>669.287</ele>
        <time>2015-03-29T14:50:15Z</time>
      </trkpt>
      <trkpt lat="41.160591" lon="-6.691677">
        <ele>666.358</ele>
        <time>2015-03-29T14:50:26Z</time>
      </trkpt>
      <trkpt lat="41.160558" lon="-6.691722">
        <ele>666.373</ele>
        <time>2015-03-29T14:50:27Z</time>
      </trkpt>
      <trkpt lat="41.160300" lon="-6.691962">
        <ele>667.385</ele>
        <time>2015-03-29T14:50:36Z</time>
      </trkpt>
      <trkpt lat="41.160266" lon="-6.691959">
        <ele>667.813</ele>
        <time>2015-03-29T14:50:45Z</time>
      </trkpt>
      <trkpt lat="41.160262" lon="-6.691964">
        <ele>667.807</ele>
        <time>2015-03-29T14:51:04Z</time>
      </trkpt>
      <trkpt lat="41.160267" lon="-6.691967">
        <ele>667.866</ele>
        <time>2015-03-29T14:51:18Z</time>
      </trkpt>
      <trkpt lat="41.160267" lon="-6.691968">
        <ele>667.351</ele>
        <time>2015-03-29T14:51:19Z</time>
      </trkpt>
      <trkpt lat="41.160239" lon="-6.692019">
        <ele>667.336</ele>
        <time>2015-03-29T14:51:23Z</time>
      </trkpt>
      <trkpt lat="41.160224" lon="-6.692035">
        <ele>667.850</ele>
        <time>2015-03-29T14:51:33Z</time>
      </trkpt>
      <trkpt lat="41.160222" lon="-6.692036">
        <ele>667.828</ele>
        <time>2015-03-29T14:51:40Z</time>
      </trkpt>
      <trkpt lat="41.160060" lon="-6.692151">
        <ele>669.262</ele>
        <time>2015-03-29T14:51:49Z</time>
      </trkpt>
      <trkpt lat="41.159810" lon="-6.692262">
        <ele>671.163</ele>
        <time>2015-03-29T14:51:59Z</time>
      </trkpt>
      <trkpt lat="41.159614" lon="-6.692405">
        <ele>672.658</ele>
        <time>2015-03-29T14:52:08Z</time>
      </trkpt>
      <trkpt lat="41.159432" lon="-6.692576">
        <ele>675.052</ele>
        <time>2015-03-29T14:52:18Z</time>
      </trkpt>
      <trkpt lat="41.159353" lon="-6.692709">
        <ele>676.417</ele>
        <time>2015-03-29T14:52:25Z</time>
      </trkpt>
      <trkpt lat="41.159244" lon="-6.692851">
        <ele>677.907</ele>
        <time>2015-03-29T14:52:33Z</time>
      </trkpt>
      <trkpt lat="41.159168" lon="-6.692929">
        <ele>678.814</ele>
        <time>2015-03-29T14:52:39Z</time>
      </trkpt>
      <trkpt lat="41.159147" lon="-6.692998">
        <ele>679.849</ele>
        <time>2015-03-29T14:52:47Z</time>
      </trkpt>
      <trkpt lat="41.159103" lon="-6.693207">
        <ele>680.374</ele>
        <time>2015-03-29T14:52:54Z</time>
      </trkpt>
      <trkpt lat="41.159012" lon="-6.693446">
        <ele>681.758</ele>
        <time>2015-03-29T14:53:04Z</time>
      </trkpt>
      <trkpt lat="41.158922" lon="-6.693606">
        <ele>683.656</ele>
        <time>2015-03-29T14:53:12Z</time>
      </trkpt>
      <trkpt lat="41.158736" lon="-6.693846">
        <ele>685.170</ele>
        <time>2015-03-29T14:53:24Z</time>
      </trkpt>
      <trkpt lat="41.158488" lon="-6.694022">
        <ele>685.171</ele>
        <time>2015-03-29T14:53:35Z</time>
      </trkpt>
      <trkpt lat="41.158175" lon="-6.694191">
        <ele>684.132</ele>
        <time>2015-03-29T14:53:44Z</time>
      </trkpt>
      <trkpt lat="41.157640" lon="-6.694555">
        <ele>680.392</ele>
        <time>2015-03-29T14:53:55Z</time>
      </trkpt>
      <trkpt lat="41.157271" lon="-6.694871">
        <ele>677.911</ele>
        <time>2015-03-29T14:54:02Z</time>
      </trkpt>
      <trkpt lat="41.156732" lon="-6.695444">
        <ele>675.907</ele>
        <time>2015-03-29T14:54:13Z</time>
      </trkpt>
      <trkpt lat="41.156341" lon="-6.695822">
        <ele>675.982</ele>
        <time>2015-03-29T14:54:23Z</time>
      </trkpt>
      <trkpt lat="41.156175" lon="-6.696042">
        <ele>673.567</ele>
        <time>2015-03-29T14:54:27Z</time>
      </trkpt>
      <trkpt lat="41.155642" lon="-6.696500">
        <ele>670.252</ele>
        <time>2015-03-29T14:54:37Z</time>
      </trkpt>
      <trkpt lat="41.155510" lon="-6.696594">
        <ele>668.786</ele>
        <time>2015-03-29T14:54:39Z</time>
      </trkpt>
      <trkpt lat="41.155132" lon="-6.697120">
        <ele>667.384</ele>
        <time>2015-03-29T14:54:47Z</time>
      </trkpt>
      <trkpt lat="41.154781" lon="-6.697552">
        <ele>665.938</ele>
        <time>2015-03-29T14:54:55Z</time>
      </trkpt>
      <trkpt lat="41.154166" lon="-6.698003">
        <ele>665.469</ele>
        <time>2015-03-29T14:55:06Z</time>
      </trkpt>
      <trkpt lat="41.153605" lon="-6.698329">
        <ele>664.971</ele>
        <time>2015-03-29T14:55:16Z</time>
      </trkpt>
      <trkpt lat="41.152987" lon="-6.698618">
        <ele>663.041</ele>
        <time>2015-03-29T14:55:27Z</time>
      </trkpt>
      <trkpt lat="41.152549" lon="-6.698821">
        <ele>663.915</ele>
        <time>2015-03-29T14:55:35Z</time>
      </trkpt>
      <trkpt lat="41.152158" lon="-6.699141">
        <ele>664.407</ele>
        <time>2015-03-29T14:55:44Z</time>
      </trkpt>
      <trkpt lat="41.152041" lon="-6.699227">
        <ele>665.456</ele>
        <time>2015-03-29T14:55:47Z</time>
      </trkpt>
      <trkpt lat="41.151697" lon="-6.699556">
        <ele>668.371</ele>
        <time>2015-03-29T14:55:58Z</time>
      </trkpt>
      <trkpt lat="41.151414" lon="-6.699883">
        <ele>669.216</ele>
        <time>2015-03-29T14:56:08Z</time>
      </trkpt>
      <trkpt lat="41.151354" lon="-6.699978">
        <ele>668.710</ele>
        <time>2015-03-29T14:56:10Z</time>
      </trkpt>
      <trkpt lat="41.151259" lon="-6.700106">
        <ele>668.758</ele>
        <time>2015-03-29T14:56:13Z</time>
      </trkpt>
      <trkpt lat="41.151103" lon="-6.700300">
        <ele>669.292</ele>
        <time>2015-03-29T14:56:18Z</time>
      </trkpt>
      <trkpt lat="41.150709" lon="-6.700502">
        <ele>670.283</ele>
        <time>2015-03-29T14:56:29Z</time>
      </trkpt>
      <trkpt lat="41.150423" lon="-6.700521">
        <ele>672.157</ele>
        <time>2015-03-29T14:56:39Z</time>
      </trkpt>
      <trkpt lat="41.150287" lon="-6.700782">
        <ele>673.100</ele>
        <time>2015-03-29T14:56:48Z</time>
      </trkpt>
      <trkpt lat="41.150198" lon="-6.701087">
        <ele>673.520</ele>
        <time>2015-03-29T14:56:56Z</time>
      </trkpt>
      <trkpt lat="41.150070" lon="-6.701487">
        <ele>674.007</ele>
        <time>2015-03-29T14:57:05Z</time>
      </trkpt>
      <trkpt lat="41.149815" lon="-6.702019">
        <ele>674.034</ele>
        <time>2015-03-29T14:57:17Z</time>
      </trkpt>
      <trkpt lat="41.149522" lon="-6.702434">
        <ele>675.099</ele>
        <time>2015-03-29T14:57:29Z</time>
      </trkpt>
      <trkpt lat="41.149332" lon="-6.702723">
        <ele>676.964</ele>
        <time>2015-03-29T14:57:38Z</time>
      </trkpt>
      <trkpt lat="41.149146" lon="-6.702949">
        <ele>678.438</ele>
        <time>2015-03-29T14:57:46Z</time>
      </trkpt>
      <trkpt lat="41.149115" lon="-6.702979">
        <ele>678.416</ele>
        <time>2015-03-29T14:57:47Z</time>
      </trkpt>
      <trkpt lat="41.148994" lon="-6.703130">
        <ele>677.420</ele>
        <time>2015-03-29T14:57:51Z</time>
      </trkpt>
      <trkpt lat="41.148577" lon="-6.703587">
        <ele>675.941</ele>
        <time>2015-03-29T14:58:03Z</time>
      </trkpt>
      <trkpt lat="41.148392" lon="-6.703795">
        <ele>675.998</ele>
        <time>2015-03-29T14:58:08Z</time>
      </trkpt>
      <trkpt lat="41.147924" lon="-6.704245">
        <ele>675.015</ele>
        <time>2015-03-29T14:58:19Z</time>
      </trkpt>
      <trkpt lat="41.147789" lon="-6.704386">
        <ele>674.526</ele>
        <time>2015-03-29T14:58:22Z</time>
      </trkpt>
      <trkpt lat="41.147415" lon="-6.705001">
        <ele>673.107</ele>
        <time>2015-03-29T14:58:32Z</time>
      </trkpt>
      <trkpt lat="41.147304" lon="-6.705161">
        <ele>672.698</ele>
        <time>2015-03-29T14:58:35Z</time>
      </trkpt>
      <trkpt lat="41.147229" lon="-6.705277">
        <ele>672.643</ele>
        <time>2015-03-29T14:58:37Z</time>
      </trkpt>
      <trkpt lat="41.146774" lon="-6.705933">
        <ele>671.668</ele>
        <time>2015-03-29T14:58:49Z</time>
      </trkpt>
      <trkpt lat="41.146468" lon="-6.706291">
        <ele>670.792</ele>
        <time>2015-03-29T14:58:56Z</time>
      </trkpt>
      <trkpt lat="41.146287" lon="-6.706454">
        <ele>670.790</ele>
        <time>2015-03-29T14:59:00Z</time>
      </trkpt>
      <trkpt lat="41.146098" lon="-6.706573">
        <ele>670.744</ele>
        <time>2015-03-29T14:59:04Z</time>
      </trkpt>
      <trkpt lat="41.145680" lon="-6.707157">
        <ele>668.745</ele>
        <time>2015-03-29T14:59:15Z</time>
      </trkpt>
      <trkpt lat="41.145609" lon="-6.707275">
        <ele>669.749</ele>
        <time>2015-03-29T14:59:17Z</time>
      </trkpt>
      <trkpt lat="41.145241" lon="-6.707707">
        <ele>668.702</ele>
        <time>2015-03-29T14:59:25Z</time>
      </trkpt>
      <trkpt lat="41.144839" lon="-6.708224">
        <ele>668.322</ele>
        <time>2015-03-29T14:59:34Z</time>
      </trkpt>
      <trkpt lat="41.144697" lon="-6.708324">
        <ele>668.307</ele>
        <time>2015-03-29T14:59:37Z</time>
      </trkpt>
      <trkpt lat="41.144207" lon="-6.708411">
        <ele>669.733</ele>
        <time>2015-03-29T14:59:47Z</time>
      </trkpt>
      <trkpt lat="41.144160" lon="-6.708427">
        <ele>669.758</ele>
        <time>2015-03-29T14:59:48Z</time>
      </trkpt>
      <trkpt lat="41.143710" lon="-6.708674">
        <ele>667.833</ele>
        <time>2015-03-29T14:59:57Z</time>
      </trkpt>
      <trkpt lat="41.143552" lon="-6.708788">
        <ele>667.867</ele>
        <time>2015-03-29T15:00:00Z</time>
      </trkpt>
      <trkpt lat="41.143392" lon="-6.708835">
        <ele>667.335</ele>
        <time>2015-03-29T15:00:03Z</time>
      </trkpt>
      <trkpt lat="41.143218" lon="-6.708917">
        <ele>665.939</ele>
        <time>2015-03-29T15:00:06Z</time>
      </trkpt>
      <trkpt lat="41.143102" lon="-6.708976">
        <ele>664.930</ele>
        <time>2015-03-29T15:00:08Z</time>
      </trkpt>
      <trkpt lat="41.142931" lon="-6.709049">
        <ele>664.929</ele>
        <time>2015-03-29T15:00:11Z</time>
      </trkpt>
      <trkpt lat="41.142423" lon="-6.709196">
        <ele>661.500</ele>
        <time>2015-03-29T15:00:20Z</time>
      </trkpt>
      <trkpt lat="41.142187" lon="-6.709288">
        <ele>658.620</ele>
        <time>2015-03-29T15:00:24Z</time>
      </trkpt>
      <trkpt lat="41.141904" lon="-6.709325">
        <ele>655.307</ele>
        <time>2015-03-29T15:00:28Z</time>
      </trkpt>
      <trkpt lat="41.141754" lon="-6.709340">
        <ele>654.811</ele>
        <time>2015-03-29T15:00:30Z</time>
      </trkpt>
      <trkpt lat="41.141484" lon="-6.709397">
        <ele>653.836</ele>
        <time>2015-03-29T15:00:34Z</time>
      </trkpt>
      <trkpt lat="41.141251" lon="-6.709282">
        <ele>651.431</ele>
        <time>2015-03-29T15:00:38Z</time>
      </trkpt>
      <trkpt lat="41.141093" lon="-6.709103">
        <ele>651.015</ele>
        <time>2015-03-29T15:00:41Z</time>
      </trkpt>
      <trkpt lat="41.140834" lon="-6.709062">
        <ele>650.043</ele>
        <time>2015-03-29T15:00:45Z</time>
      </trkpt>
      <trkpt lat="41.140103" lon="-6.709476">
        <ele>648.147</ele>
        <time>2015-03-29T15:00:56Z</time>
      </trkpt>
      <trkpt lat="41.139495" lon="-6.709800">
        <ele>648.638</ele>
        <time>2015-03-29T15:01:06Z</time>
      </trkpt>
      <trkpt lat="41.139168" lon="-6.709944">
        <ele>649.594</ele>
        <time>2015-03-29T15:01:12Z</time>
      </trkpt>
      <trkpt lat="41.139043" lon="-6.709958">
        <ele>650.057</ele>
        <time>2015-03-29T15:01:15Z</time>
      </trkpt>
      <trkpt lat="41.138861" lon="-6.710117">
        <ele>651.022</ele>
        <time>2015-03-29T15:01:20Z</time>
      </trkpt>
      <trkpt lat="41.138621" lon="-6.710245">
        <ele>650.507</ele>
        <time>2015-03-29T15:01:25Z</time>
      </trkpt>
      <trkpt lat="41.138390" lon="-6.710265">
        <ele>650.578</ele>
        <time>2015-03-29T15:01:30Z</time>
      </trkpt>
      <trkpt lat="41.137929" lon="-6.710052">
        <ele>650.093</ele>
        <time>2015-03-29T15:01:40Z</time>
      </trkpt>
      <trkpt lat="41.137630" lon="-6.709846">
        <ele>651.038</ele>
        <time>2015-03-29T15:01:47Z</time>
      </trkpt>
      <trkpt lat="41.137253" lon="-6.709772">
        <ele>651.962</ele>
        <time>2015-03-29T15:01:57Z</time>
      </trkpt>
      <trkpt lat="41.136865" lon="-6.709797">
        <ele>652.970</ele>
        <time>2015-03-29T15:02:08Z</time>
      </trkpt>
      <trkpt lat="41.136519" lon="-6.709907">
        <ele>655.354</ele>
        <time>2015-03-29T15:02:19Z</time>
      </trkpt>
      <trkpt lat="41.136285" lon="-6.709881">
        <ele>656.295</ele>
        <time>2015-03-29T15:02:27Z</time>
      </trkpt>
      <trkpt lat="41.135957" lon="-6.709614">
        <ele>654.345</ele>
        <time>2015-03-29T15:02:35Z</time>
      </trkpt>
      <trkpt lat="41.135907" lon="-6.709581">
        <ele>653.847</ele>
        <time>2015-03-29T15:02:36Z</time>
      </trkpt>
      <trkpt lat="41.135369" lon="-6.709462">
        <ele>653.411</ele>
        <time>2015-03-29T15:02:47Z</time>
      </trkpt>
      <trkpt lat="41.135275" lon="-6.709451">
        <ele>655.307</ele>
        <time>2015-03-29T15:02:49Z</time>
      </trkpt>
      <trkpt lat="41.135229" lon="-6.709455">
        <ele>653.423</ele>
        <time>2015-03-29T15:02:50Z</time>
      </trkpt>
      <trkpt lat="41.134864" lon="-6.709545">
        <ele>653.888</ele>
        <time>2015-03-29T15:03:00Z</time>
      </trkpt>
      <trkpt lat="41.134550" lon="-6.709603">
        <ele>651.093</ele>
        <time>2015-03-29T15:03:08Z</time>
      </trkpt>
      <trkpt lat="41.134167" lon="-6.709683">
        <ele>647.137</ele>
        <time>2015-03-29T15:03:15Z</time>
      </trkpt>
      <trkpt lat="41.133668" lon="-6.709811">
        <ele>644.225</ele>
        <time>2015-03-29T15:03:23Z</time>
      </trkpt>
      <trkpt lat="41.133056" lon="-6.710008">
        <ele>641.349</ele>
        <time>2015-03-29T15:03:33Z</time>
      </trkpt>
      <trkpt lat="41.132720" lon="-6.710106">
        <ele>638.530</ele>
        <time>2015-03-29T15:03:38Z</time>
      </trkpt>
      <trkpt lat="41.132588" lon="-6.710146">
        <ele>637.085</ele>
        <time>2015-03-29T15:03:40Z</time>
      </trkpt>
      <trkpt lat="41.132254" lon="-6.710261">
        <ele>635.189</ele>
        <time>2015-03-29T15:03:46Z</time>
      </trkpt>
      <trkpt lat="41.132092" lon="-6.710337">
        <ele>632.717</ele>
        <time>2015-03-29T15:03:49Z</time>
      </trkpt>
      <trkpt lat="41.131808" lon="-6.710573">
        <ele>628.807</ele>
        <time>2015-03-29T15:03:54Z</time>
      </trkpt>
      <trkpt lat="41.131514" lon="-6.710674">
        <ele>625.597</ele>
        <time>2015-03-29T15:03:58Z</time>
      </trkpt>
      <trkpt lat="41.130965" lon="-6.710702">
        <ele>621.622</ele>
        <time>2015-03-29T15:04:04Z</time>
      </trkpt>
      <trkpt lat="41.130573" lon="-6.710801">
        <ele>618.837</ele>
        <time>2015-03-29T15:04:08Z</time>
      </trkpt>
      <trkpt lat="41.130476" lon="-6.710820">
        <ele>618.311</ele>
        <time>2015-03-29T15:04:09Z</time>
      </trkpt>
      <trkpt lat="41.129773" lon="-6.710946">
        <ele>616.839</ele>
        <time>2015-03-29T15:04:17Z</time>
      </trkpt>
      <trkpt lat="41.129322" lon="-6.711232">
        <ele>617.313</ele>
        <time>2015-03-29T15:04:24Z</time>
      </trkpt>
      <trkpt lat="41.129212" lon="-6.711305">
        <ele>617.874</ele>
        <time>2015-03-29T15:04:26Z</time>
      </trkpt>
      <trkpt lat="41.128831" lon="-6.711461">
        <ele>616.857</ele>
        <time>2015-03-29T15:04:33Z</time>
      </trkpt>
      <trkpt lat="41.128685" lon="-6.711500">
        <ele>618.800</ele>
        <time>2015-03-29T15:04:36Z</time>
      </trkpt>
      <trkpt lat="41.128369" lon="-6.711584">
        <ele>616.820</ele>
        <time>2015-03-29T15:04:43Z</time>
      </trkpt>
      <trkpt lat="41.128004" lon="-6.711835">
        <ele>616.807</ele>
        <time>2015-03-29T15:04:51Z</time>
      </trkpt>
      <trkpt lat="41.127440" lon="-6.712189">
        <ele>616.334</ele>
        <time>2015-03-29T15:05:03Z</time>
      </trkpt>
      <trkpt lat="41.127280" lon="-6.712221">
        <ele>616.319</ele>
        <time>2015-03-29T15:05:06Z</time>
      </trkpt>
      <trkpt lat="41.126917" lon="-6.712385">
        <ele>612.564</ele>
        <time>2015-03-29T15:05:12Z</time>
      </trkpt>
      <trkpt lat="41.126853" lon="-6.712420">
        <ele>612.048</ele>
        <time>2015-03-29T15:05:13Z</time>
      </trkpt>
      <trkpt lat="41.126725" lon="-6.712487">
        <ele>611.516</ele>
        <time>2015-03-29T15:05:15Z</time>
      </trkpt>
      <trkpt lat="41.126396" lon="-6.712688">
        <ele>609.610</ele>
        <time>2015-03-29T15:05:20Z</time>
      </trkpt>
      <trkpt lat="41.126050" lon="-6.712862">
        <ele>608.791</ele>
        <time>2015-03-29T15:05:25Z</time>
      </trkpt>
      <trkpt lat="41.125789" lon="-6.712878">
        <ele>608.277</ele>
        <time>2015-03-29T15:05:29Z</time>
      </trkpt>
      <trkpt lat="41.125226" lon="-6.712808">
        <ele>603.961</ele>
        <time>2015-03-29T15:05:37Z</time>
      </trkpt>
      <trkpt lat="41.124816" lon="-6.712930">
        <ele>601.427</ele>
        <time>2015-03-29T15:05:43Z</time>
      </trkpt>
      <trkpt lat="41.124609" lon="-6.712970">
        <ele>601.007</ele>
        <time>2015-03-29T15:05:46Z</time>
      </trkpt>
      <trkpt lat="41.124353" lon="-6.713085">
        <ele>598.146</ele>
        <time>2015-03-29T15:05:50Z</time>
      </trkpt>
      <trkpt lat="41.124193" lon="-6.713188">
        <ele>597.131</ele>
        <time>2015-03-29T15:05:53Z</time>
      </trkpt>
      <trkpt lat="41.123944" lon="-6.713171">
        <ele>594.766</ele>
        <time>2015-03-29T15:05:57Z</time>
      </trkpt>
      <trkpt lat="41.123812" lon="-6.713079">
        <ele>594.260</ele>
        <time>2015-03-29T15:05:59Z</time>
      </trkpt>
      <trkpt lat="41.123472" lon="-6.712972">
        <ele>593.358</ele>
        <time>2015-03-29T15:06:04Z</time>
      </trkpt>
      <trkpt lat="41.123251" lon="-6.712855">
        <ele>593.342</ele>
        <time>2015-03-29T15:06:08Z</time>
      </trkpt>
      <trkpt lat="41.123068" lon="-6.712709">
        <ele>592.823</ele>
        <time>2015-03-29T15:06:12Z</time>
      </trkpt>
      <trkpt lat="41.122838" lon="-6.712682">
        <ele>592.344</ele>
        <time>2015-03-29T15:06:17Z</time>
      </trkpt>
      <trkpt lat="41.122620" lon="-6.713003">
        <ele>593.305</ele>
        <time>2015-03-29T15:06:26Z</time>
      </trkpt>
      <trkpt lat="41.122415" lon="-6.713387">
        <ele>593.815</ele>
        <time>2015-03-29T15:06:37Z</time>
      </trkpt>
      <trkpt lat="41.122238" lon="-6.713644">
        <ele>597.107</ele>
        <time>2015-03-29T15:06:46Z</time>
      </trkpt>
      <trkpt lat="41.122217" lon="-6.713670">
        <ele>597.183</ele>
        <time>2015-03-29T15:06:47Z</time>
      </trkpt>
      <trkpt lat="41.122068" lon="-6.713862">
        <ele>599.538</ele>
        <time>2015-03-29T15:06:56Z</time>
      </trkpt>
      <trkpt lat="41.121928" lon="-6.714031">
        <ele>601.013</ele>
        <time>2015-03-29T15:07:05Z</time>
      </trkpt>
      <trkpt lat="41.121797" lon="-6.714211">
        <ele>601.987</ele>
        <time>2015-03-29T15:07:13Z</time>
      </trkpt>
      <trkpt lat="41.121589" lon="-6.714436">
        <ele>602.435</ele>
        <time>2015-03-29T15:07:22Z</time>
      </trkpt>
      <trkpt lat="41.121320" lon="-6.714688">
        <ele>601.919</ele>
        <time>2015-03-29T15:07:32Z</time>
      </trkpt>
      <trkpt lat="41.120967" lon="-6.715013">
        <ele>601.490</ele>
        <time>2015-03-29T15:07:44Z</time>
      </trkpt>
      <trkpt lat="41.120735" lon="-6.715286">
        <ele>601.468</ele>
        <time>2015-03-29T15:07:52Z</time>
      </trkpt>
      <trkpt lat="41.120597" lon="-6.715482">
        <ele>601.442</ele>
        <time>2015-03-29T15:07:57Z</time>
      </trkpt>
      <trkpt lat="41.120357" lon="-6.716019">
        <ele>601.026</ele>
        <time>2015-03-29T15:08:09Z</time>
      </trkpt>
      <trkpt lat="41.120099" lon="-6.716539">
        <ele>602.407</ele>
        <time>2015-03-29T15:08:22Z</time>
      </trkpt>
      <trkpt lat="41.119864" lon="-6.716732">
        <ele>603.985</ele>
        <time>2015-03-29T15:08:31Z</time>
      </trkpt>
      <trkpt lat="41.119608" lon="-6.716944">
        <ele>606.380</ele>
        <time>2015-03-29T15:08:42Z</time>
      </trkpt>
      <trkpt lat="41.119411" lon="-6.717082">
        <ele>608.285</ele>
        <time>2015-03-29T15:08:51Z</time>
      </trkpt>
      <trkpt lat="41.119222" lon="-6.717288">
        <ele>609.149</ele>
        <time>2015-03-29T15:09:00Z</time>
      </trkpt>
      <trkpt lat="41.119018" lon="-6.717589">
        <ele>609.617</ele>
        <time>2015-03-29T15:09:11Z</time>
      </trkpt>
      <trkpt lat="41.118682" lon="-6.717786">
        <ele>610.111</ele>
        <time>2015-03-29T15:09:23Z</time>
      </trkpt>
      <trkpt lat="41.118338" lon="-6.717836">
        <ele>611.592</ele>
        <time>2015-03-29T15:09:35Z</time>
      </trkpt>
      <trkpt lat="41.118075" lon="-6.717836">
        <ele>613.549</ele>
        <time>2015-03-29T15:09:45Z</time>
      </trkpt>
      <trkpt lat="41.117990" lon="-6.717834">
        <ele>609.102</ele>
        <time>2015-03-29T15:09:48Z</time>
      </trkpt>
      <trkpt lat="41.117961" lon="-6.717835">
        <ele>615.922</ele>
        <time>2015-03-29T15:09:49Z</time>
      </trkpt>
      <trkpt lat="41.117686" lon="-6.717809">
        <ele>615.407</ele>
        <time>2015-03-29T15:09:59Z</time>
      </trkpt>
      <trkpt lat="41.117524" lon="-6.717792">
        <ele>618.323</ele>
        <time>2015-03-29T15:10:04Z</time>
      </trkpt>
      <trkpt lat="41.117144" lon="-6.717817">
        <ele>616.388</ele>
        <time>2015-03-29T15:10:15Z</time>
      </trkpt>
      <trkpt lat="41.116734" lon="-6.717922">
        <ele>615.963</ele>
        <time>2015-03-29T15:10:26Z</time>
      </trkpt>
      <trkpt lat="41.116440" lon="-6.718015">
        <ele>615.447</ele>
        <time>2015-03-29T15:10:34Z</time>
      </trkpt>
      <trkpt lat="41.115812" lon="-6.718198">
        <ele>613.095</ele>
        <time>2015-03-29T15:10:47Z</time>
      </trkpt>
      <trkpt lat="41.115231" lon="-6.718334">
        <ele>610.639</ele>
        <time>2015-03-29T15:10:57Z</time>
      </trkpt>
      <trkpt lat="41.114494" lon="-6.718467">
        <ele>608.220</ele>
        <time>2015-03-29T15:11:10Z</time>
      </trkpt>
      <trkpt lat="41.114025" lon="-6.718605">
        <ele>607.286</ele>
        <time>2015-03-29T15:11:18Z</time>
      </trkpt>
      <trkpt lat="41.113915" lon="-6.718659">
        <ele>607.260</ele>
        <time>2015-03-29T15:11:20Z</time>
      </trkpt>
      <trkpt lat="41.113278" lon="-6.718989">
        <ele>605.826</ele>
        <time>2015-03-29T15:11:32Z</time>
      </trkpt>
      <trkpt lat="41.112826" lon="-6.719253">
        <ele>604.807</ele>
        <time>2015-03-29T15:11:41Z</time>
      </trkpt>
      <trkpt lat="41.112684" lon="-6.719340">
        <ele>604.397</ele>
        <time>2015-03-29T15:11:44Z</time>
      </trkpt>
      <trkpt lat="41.112605" lon="-6.719411">
        <ele>604.872</ele>
        <time>2015-03-29T15:11:46Z</time>
      </trkpt>
      <trkpt lat="41.112131" lon="-6.719826">
        <ele>604.317</ele>
        <time>2015-03-29T15:11:59Z</time>
      </trkpt>
      <trkpt lat="41.112024" lon="-6.719916">
        <ele>604.871</ele>
        <time>2015-03-29T15:12:02Z</time>
      </trkpt>
      <trkpt lat="41.111706" lon="-6.720261">
        <ele>604.859</ele>
        <time>2015-03-29T15:12:12Z</time>
      </trkpt>
      <trkpt lat="41.111346" lon="-6.720721">
        <ele>603.453</ele>
        <time>2015-03-29T15:12:23Z</time>
      </trkpt>
      <trkpt lat="41.110880" lon="-6.721229">
        <ele>600.594</ele>
        <time>2015-03-29T15:12:34Z</time>
      </trkpt>
      <trkpt lat="41.110611" lon="-6.721451">
        <ele>598.152</ele>
        <time>2015-03-29T15:12:39Z</time>
      </trkpt>
      <trkpt lat="41.110149" lon="-6.721748">
        <ele>593.853</ele>
        <time>2015-03-29T15:12:46Z</time>
      </trkpt>
      <trkpt lat="41.110072" lon="-6.721791">
        <ele>593.308</ele>
        <time>2015-03-29T15:12:47Z</time>
      </trkpt>
      <trkpt lat="41.109767" lon="-6.721936">
        <ele>589.907</ele>
        <time>2015-03-29T15:12:51Z</time>
      </trkpt>
      <trkpt lat="41.109551" lon="-6.722037">
        <ele>588.584</ele>
        <time>2015-03-29T15:12:54Z</time>
      </trkpt>
      <trkpt lat="41.109237" lon="-6.722128">
        <ele>585.199</ele>
        <time>2015-03-29T15:12:58Z</time>
      </trkpt>
      <trkpt lat="41.108990" lon="-6.722156">
        <ele>583.754</ele>
        <time>2015-03-29T15:13:01Z</time>
      </trkpt>
      <trkpt lat="41.108832" lon="-6.722168">
        <ele>582.228</ele>
        <time>2015-03-29T15:13:03Z</time>
      </trkpt>
      <trkpt lat="41.108677" lon="-6.722193">
        <ele>581.796</ele>
        <time>2015-03-29T15:13:05Z</time>
      </trkpt>
      <trkpt lat="41.108460" lon="-6.722243">
        <ele>580.890</ele>
        <time>2015-03-29T15:13:08Z</time>
      </trkpt>
      <trkpt lat="41.108259" lon="-6.722365">
        <ele>579.351</ele>
        <time>2015-03-29T15:13:12Z</time>
      </trkpt>
      <trkpt lat="41.108170" lon="-6.722447">
        <ele>578.466</ele>
        <time>2015-03-29T15:13:18Z</time>
      </trkpt>
      <trkpt lat="41.108152" lon="-6.722460">
        <ele>578.429</ele>
        <time>2015-03-29T15:13:38Z</time>
      </trkpt>
      <trkpt lat="41.108031" lon="-6.722651">
        <ele>576.921</ele>
        <time>2015-03-29T15:13:47Z</time>
      </trkpt>
      <trkpt lat="41.107952" lon="-6.722944">
        <ele>576.507</ele>
        <time>2015-03-29T15:13:56Z</time>
      </trkpt>
      <trkpt lat="41.107788" lon="-6.723191">
        <ele>576.595</ele>
        <time>2015-03-29T15:14:05Z</time>
      </trkpt>
      <trkpt lat="41.107626" lon="-6.723502">
        <ele>577.450</ele>
        <time>2015-03-29T15:14:15Z</time>
      </trkpt>
      <trkpt lat="41.107608" lon="-6.723512">
        <ele>577.985</ele>
        <time>2015-03-29T15:14:22Z</time>
      </trkpt>
      <trkpt lat="41.107604" lon="-6.723510">
        <ele>577.449</ele>
        <time>2015-03-29T15:14:42Z</time>
      </trkpt>
      <trkpt lat="41.107603" lon="-6.723515">
        <ele>577.467</ele>
        <time>2015-03-29T15:14:52Z</time>
      </trkpt>
      <trkpt lat="41.107604" lon="-6.723524">
        <ele>577.471</ele>
        <time>2015-03-29T15:15:04Z</time>
      </trkpt>
      <trkpt lat="41.107604" lon="-6.723525">
        <ele>577.472</ele>
        <time>2015-03-29T15:15:21Z</time>
      </trkpt>
      <trkpt lat="41.107607" lon="-6.723529">
        <ele>577.465</ele>
        <time>2015-03-29T15:15:32Z</time>
      </trkpt>
      <trkpt lat="41.107608" lon="-6.723533">
        <ele>576.968</ele>
        <time>2015-03-29T15:15:42Z</time>
      </trkpt>
      <trkpt lat="41.107604" lon="-6.723615">
        <ele>578.414</ele>
        <time>2015-03-29T15:15:47Z</time>
      </trkpt>
      <trkpt lat="41.107561" lon="-6.723656">
        <ele>577.407</ele>
        <time>2015-03-29T15:15:52Z</time>
      </trkpt>
      <trkpt lat="41.107477" lon="-6.723673">
        <ele>577.925</ele>
        <time>2015-03-29T15:15:58Z</time>
      </trkpt>
      <trkpt lat="41.107390" lon="-6.723645">
        <ele>578.450</ele>
        <time>2015-03-29T15:16:03Z</time>
      </trkpt>
      <trkpt lat="41.107166" lon="-6.723559">
        <ele>579.375</ele>
        <time>2015-03-29T15:16:14Z</time>
      </trkpt>
      <trkpt lat="41.107019" lon="-6.723464">
        <ele>580.399</ele>
        <time>2015-03-29T15:16:21Z</time>
      </trkpt>
      <trkpt lat="41.106930" lon="-6.723431">
        <ele>580.817</ele>
        <time>2015-03-29T15:16:25Z</time>
      </trkpt>
      <trkpt lat="41.106726" lon="-6.723311">
        <ele>582.211</ele>
        <time>2015-03-29T15:16:35Z</time>
      </trkpt>
      <trkpt lat="41.106547" lon="-6.723245">
        <ele>583.242</ele>
        <time>2015-03-29T15:16:44Z</time>
      </trkpt>
      <trkpt lat="41.106296" lon="-6.723252">
        <ele>584.647</ele>
        <time>2015-03-29T15:16:55Z</time>
      </trkpt>
      <trkpt lat="41.106070" lon="-6.723290">
        <ele>585.629</ele>
        <time>2015-03-29T15:17:05Z</time>
      </trkpt>
      <trkpt lat="41.105881" lon="-6.723321">
        <ele>586.121</ele>
        <time>2015-03-29T15:17:14Z</time>
      </trkpt>
      <trkpt lat="41.105863" lon="-6.723325">
        <ele>586.507</ele>
        <time>2015-03-29T15:17:15Z</time>
      </trkpt>
      <trkpt lat="41.105842" lon="-6.723341">
        <ele>586.583</ele>
        <time>2015-03-29T15:17:26Z</time>
      </trkpt>
      <trkpt lat="41.105848" lon="-6.723336">
        <ele>587.578</ele>
        <time>2015-03-29T15:17:45Z</time>
      </trkpt>
      <trkpt lat="41.105861" lon="-6.723337">
        <ele>587.033</ele>
        <time>2015-03-29T15:18:02Z</time>
      </trkpt>
      <trkpt lat="41.105866" lon="-6.723346">
        <ele>587.017</ele>
        <time>2015-03-29T15:18:20Z</time>
      </trkpt>
      <trkpt lat="41.105854" lon="-6.723341">
        <ele>587.035</ele>
        <time>2015-03-29T15:18:31Z</time>
      </trkpt>
      <trkpt lat="41.105843" lon="-6.723346">
        <ele>587.069</ele>
        <time>2015-03-29T15:18:47Z</time>
      </trkpt>
      <trkpt lat="41.105837" lon="-6.723338">
        <ele>587.030</ele>
        <time>2015-03-29T15:19:08Z</time>
      </trkpt>
      <trkpt lat="41.105755" lon="-6.723290">
        <ele>587.525</ele>
        <time>2015-03-29T15:19:15Z</time>
      </trkpt>
      <trkpt lat="41.105738" lon="-6.723271">
        <ele>587.526</ele>
        <time>2015-03-29T15:19:17Z</time>
      </trkpt>
      <trkpt lat="41.105699" lon="-6.723203">
        <ele>588.008</ele>
        <time>2015-03-29T15:19:23Z</time>
      </trkpt>
      <trkpt lat="41.105644" lon="-6.723096">
        <ele>588.007</ele>
        <time>2015-03-29T15:19:33Z</time>
      </trkpt>
      <trkpt lat="41.105595" lon="-6.722947">
        <ele>588.061</ele>
        <time>2015-03-29T15:19:43Z</time>
      </trkpt>
      <trkpt lat="41.105554" lon="-6.722778">
        <ele>588.566</ele>
        <time>2015-03-29T15:19:53Z</time>
      </trkpt>
      <trkpt lat="41.105509" lon="-6.722665">
        <ele>588.071</ele>
        <time>2015-03-29T15:19:59Z</time>
      </trkpt>
      <trkpt lat="41.105477" lon="-6.722525">
        <ele>588.085</ele>
        <time>2015-03-29T15:20:06Z</time>
      </trkpt>
      <trkpt lat="41.105427" lon="-6.722202">
        <ele>588.583</ele>
        <time>2015-03-29T15:20:18Z</time>
      </trkpt>
      <trkpt lat="41.105391" lon="-6.721958">
        <ele>588.537</ele>
        <time>2015-03-29T15:20:27Z</time>
      </trkpt>
      <trkpt lat="41.105342" lon="-6.721653">
        <ele>589.078</ele>
        <time>2015-03-29T15:20:38Z</time>
      </trkpt>
      <trkpt lat="41.105284" lon="-6.721294">
        <ele>589.942</ele>
        <time>2015-03-29T15:20:50Z</time>
      </trkpt>
      <trkpt lat="41.105182" lon="-6.720988">
        <ele>590.422</ele>
        <time>2015-03-29T15:21:00Z</time>
      </trkpt>
      <trkpt lat="41.105072" lon="-6.720701">
        <ele>590.914</ele>
        <time>2015-03-29T15:21:10Z</time>
      </trkpt>
      <trkpt lat="41.104855" lon="-6.720458">
        <ele>592.307</ele>
        <time>2015-03-29T15:21:22Z</time>
      </trkpt>
      <trkpt lat="41.104645" lon="-6.720267">
        <ele>593.833</ele>
        <time>2015-03-29T15:21:33Z</time>
      </trkpt>
      <trkpt lat="41.104393" lon="-6.720026">
        <ele>595.218</ele>
        <time>2015-03-29T15:21:45Z</time>
      </trkpt>
      <trkpt lat="41.104146" lon="-6.719783">
        <ele>593.363</ele>
        <time>2015-03-29T15:21:53Z</time>
      </trkpt>
      <trkpt lat="41.103793" lon="-6.719454">
        <ele>591.477</ele>
        <time>2015-03-29T15:22:02Z</time>
      </trkpt>
      <trkpt lat="41.103680" lon="-6.719350">
        <ele>590.475</ele>
        <time>2015-03-29T15:22:05Z</time>
      </trkpt>
      <trkpt lat="41.103611" lon="-6.719270">
        <ele>589.479</ele>
        <time>2015-03-29T15:22:07Z</time>
      </trkpt>
      <trkpt lat="41.103031" lon="-6.718661">
        <ele>589.020</ele>
        <time>2015-03-29T15:22:22Z</time>
      </trkpt>
      <trkpt lat="41.102684" lon="-6.718195">
        <ele>589.023</ele>
        <time>2015-03-29T15:22:33Z</time>
      </trkpt>
      <trkpt lat="41.102535" lon="-6.717980">
        <ele>589.483</ele>
        <time>2015-03-29T15:22:40Z</time>
      </trkpt>
      <trkpt lat="41.102438" lon="-6.718015">
        <ele>589.011</ele>
        <time>2015-03-29T15:22:46Z</time>
      </trkpt>
      <trkpt lat="41.102165" lon="-6.718323">
        <ele>587.007</ele>
        <time>2015-03-29T15:22:57Z</time>
      </trkpt>
      <trkpt lat="41.102143" lon="-6.718335">
        <ele>587.061</ele>
        <time>2015-03-29T15:22:58Z</time>
      </trkpt>
      <trkpt lat="41.102023" lon="-6.718270">
        <ele>586.566</ele>
        <time>2015-03-29T15:23:03Z</time>
      </trkpt>
      <trkpt lat="41.101705" lon="-6.718012">
        <ele>586.171</ele>
        <time>2015-03-29T15:23:15Z</time>
      </trkpt>
      <trkpt lat="41.101479" lon="-6.717818">
        <ele>585.615</ele>
        <time>2015-03-29T15:23:23Z</time>
      </trkpt>
      <trkpt lat="41.101326" lon="-6.717703">
        <ele>584.133</ele>
        <time>2015-03-29T15:23:27Z</time>
      </trkpt>
      <trkpt lat="41.101247" lon="-6.717639">
        <ele>584.127</ele>
        <time>2015-03-29T15:23:29Z</time>
      </trkpt>
      <trkpt lat="41.100962" lon="-6.717374">
        <ele>582.748</ele>
        <time>2015-03-29T15:23:36Z</time>
      </trkpt>
      <trkpt lat="41.100829" lon="-6.717272">
        <ele>582.299</ele>
        <time>2015-03-29T15:23:39Z</time>
      </trkpt>
      <trkpt lat="41.100669" lon="-6.717129">
        <ele>582.707</ele>
        <time>2015-03-29T15:23:43Z</time>
      </trkpt>
      <trkpt lat="41.100470" lon="-6.716999">
        <ele>580.827</ele>
        <time>2015-03-29T15:23:48Z</time>
      </trkpt>
      <trkpt lat="41.100322" lon="-6.716900">
        <ele>579.807</ele>
        <time>2015-03-29T15:23:51Z</time>
      </trkpt>
      <trkpt lat="41.099922" lon="-6.716535">
        <ele>574.068</ele>
        <time>2015-03-29T15:24:00Z</time>
      </trkpt>
      <trkpt lat="41.099890" lon="-6.716496">
        <ele>581.723</ele>
        <time>2015-03-29T15:24:01Z</time>
      </trkpt>
      <trkpt lat="41.099854" lon="-6.716444">
        <ele>579.838</ele>
        <time>2015-03-29T15:24:06Z</time>
      </trkpt>
      <trkpt lat="41.099849" lon="-6.716446">
        <ele>579.332</ele>
        <time>2015-03-29T15:24:11Z</time>
      </trkpt>
      <trkpt lat="41.099994" lon="-6.716619">
        <ele>578.940</ele>
        <time>2015-03-29T15:24:21Z</time>
      </trkpt>
      <trkpt lat="41.100235" lon="-6.716856">
        <ele>579.384</ele>
        <time>2015-03-29T15:24:30Z</time>
      </trkpt>
      <trkpt lat="41.100467" lon="-6.717014">
        <ele>580.875</ele>
        <time>2015-03-29T15:24:40Z</time>
      </trkpt>
      <trkpt lat="41.100646" lon="-6.717112">
        <ele>581.313</ele>
        <time>2015-03-29T15:24:49Z</time>
      </trkpt>
      <trkpt lat="41.100846" lon="-6.717291">
        <ele>582.243</ele>
        <time>2015-03-29T15:24:59Z</time>
      </trkpt>
      <trkpt lat="41.101059" lon="-6.717459">
        <ele>582.707</ele>
        <time>2015-03-29T15:25:08Z</time>
      </trkpt>
      <trkpt lat="41.101191" lon="-6.717590">
        <ele>583.707</ele>
        <time>2015-03-29T15:25:15Z</time>
      </trkpt>
      <trkpt lat="41.101379" lon="-6.717729">
        <ele>584.150</ele>
        <time>2015-03-29T15:25:24Z</time>
      </trkpt>
      <trkpt lat="41.101596" lon="-6.717889">
        <ele>586.115</ele>
        <time>2015-03-29T15:25:34Z</time>
      </trkpt>
      <trkpt lat="41.101840" lon="-6.718107">
        <ele>586.180</ele>
        <time>2015-03-29T15:25:45Z</time>
      </trkpt>
      <trkpt lat="41.102062" lon="-6.718275">
        <ele>587.044</ele>
        <time>2015-03-29T15:25:54Z</time>
      </trkpt>
      <trkpt lat="41.102135" lon="-6.718551">
        <ele>591.442</ele>
        <time>2015-03-29T15:26:04Z</time>
      </trkpt>
      <trkpt lat="41.102131" lon="-6.718587">
        <ele>587.526</ele>
        <time>2015-03-29T15:26:05Z</time>
      </trkpt>
      <trkpt lat="41.102040" lon="-6.718792">
        <ele>587.067</ele>
        <time>2015-03-29T15:26:13Z</time>
      </trkpt>
      <trkpt lat="41.101784" lon="-6.718840">
        <ele>585.692</ele>
        <time>2015-03-29T15:26:22Z</time>
      </trkpt>
      <trkpt lat="41.101441" lon="-6.718802">
        <ele>583.773</ele>
        <time>2015-03-29T15:26:29Z</time>
      </trkpt>
      <trkpt lat="41.101237" lon="-6.718743">
        <ele>582.720</ele>
        <time>2015-03-29T15:26:33Z</time>
      </trkpt>
      <trkpt lat="41.100774" lon="-6.718438">
        <ele>581.707</ele>
        <time>2015-03-29T15:26:43Z</time>
      </trkpt>
      <trkpt lat="41.100533" lon="-6.718213">
        <ele>581.778</ele>
        <time>2015-03-29T15:26:49Z</time>
      </trkpt>
      <trkpt lat="41.100402" lon="-6.718159">
        <ele>581.333</ele>
        <time>2015-03-29T15:26:52Z</time>
      </trkpt>
      <trkpt lat="41.100168" lon="-6.718102">
        <ele>580.888</ele>
        <time>2015-03-29T15:26:58Z</time>
      </trkpt>
      <trkpt lat="41.100082" lon="-6.718096">
        <ele>580.322</ele>
        <time>2015-03-29T15:27:00Z</time>
      </trkpt>
      <trkpt lat="41.099912" lon="-6.718136">
        <ele>578.950</ele>
        <time>2015-03-29T15:27:04Z</time>
      </trkpt>
      <trkpt lat="41.099454" lon="-6.718280">
        <ele>576.544</ele>
        <time>2015-03-29T15:27:14Z</time>
      </trkpt>
      <trkpt lat="41.099222" lon="-6.718348">
        <ele>575.095</ele>
        <time>2015-03-29T15:27:19Z</time>
      </trkpt>
      <trkpt lat="41.098974" lon="-6.718441">
        <ele>574.011</ele>
        <time>2015-03-29T15:27:25Z</time>
      </trkpt>
      <trkpt lat="41.098695" lon="-6.718516">
        <ele>572.621</ele>
        <time>2015-03-29T15:27:32Z</time>
      </trkpt>
      <trkpt lat="41.098544" lon="-6.718587">
        <ele>572.103</ele>
        <time>2015-03-29T15:27:36Z</time>
      </trkpt>
      <trkpt lat="41.098383" lon="-6.718628">
        <ele>571.207</ele>
        <time>2015-03-29T15:27:40Z</time>
      </trkpt>
      <trkpt lat="41.098110" lon="-6.718710">
        <ele>568.830</ele>
        <time>2015-03-29T15:27:46Z</time>
      </trkpt>
      <trkpt lat="41.098006" lon="-6.718724">
        <ele>568.895</ele>
        <time>2015-03-29T15:27:48Z</time>
      </trkpt>
      <trkpt lat="41.097546" lon="-6.718678">
        <ele>567.320</ele>
        <time>2015-03-29T15:27:58Z</time>
      </trkpt>
      <trkpt lat="41.097502" lon="-6.718673">
        <ele>567.354</ele>
        <time>2015-03-29T15:27:59Z</time>
      </trkpt>
      <trkpt lat="41.097087" lon="-6.718490">
        <ele>565.912</ele>
        <time>2015-03-29T15:28:10Z</time>
      </trkpt>
      <trkpt lat="41.096755" lon="-6.718523">
        <ele>565.946</ele>
        <time>2015-03-29T15:28:19Z</time>
      </trkpt>
      <trkpt lat="41.096531" lon="-6.718651">
        <ele>566.497</ele>
        <time>2015-03-29T15:28:26Z</time>
      </trkpt>
      <trkpt lat="41.096381" lon="-6.718724">
        <ele>566.461</ele>
        <time>2015-03-29T15:28:30Z</time>
      </trkpt>
      <trkpt lat="41.096021" lon="-6.718750">
        <ele>564.921</ele>
        <time>2015-03-29T15:28:40Z</time>
      </trkpt>
      <trkpt lat="41.095999" lon="-6.718749">
        <ele>566.413</ele>
        <time>2015-03-29T15:28:41Z</time>
      </trkpt>
      <trkpt lat="41.095948" lon="-6.718677">
        <ele>565.407</ele>
        <time>2015-03-29T15:28:45Z</time>
      </trkpt>
      <trkpt lat="41.095892" lon="-6.718447">
        <ele>564.025</ele>
        <time>2015-03-29T15:28:51Z</time>
      </trkpt>
      <trkpt lat="41.095891" lon="-6.718199">
        <ele>563.080</ele>
        <time>2015-03-29T15:28:56Z</time>
      </trkpt>
      <trkpt lat="41.095705" lon="-6.718048">
        <ele>563.095</ele>
        <time>2015-03-29T15:29:03Z</time>
      </trkpt>
      <trkpt lat="41.095504" lon="-6.717908">
        <ele>564.029</ele>
        <time>2015-03-29T15:29:12Z</time>
      </trkpt>
      <trkpt lat="41.095336" lon="-6.717787">
        <ele>564.947</ele>
        <time>2015-03-29T15:29:20Z</time>
      </trkpt>
      <trkpt lat="41.095296" lon="-6.717760">
        <ele>565.491</ele>
        <time>2015-03-29T15:29:23Z</time>
      </trkpt>
      <trkpt lat="41.095230" lon="-6.717705">
        <ele>565.932</ele>
        <time>2015-03-29T15:29:32Z</time>
      </trkpt>
      <trkpt lat="41.095227" lon="-6.717698">
        <ele>565.985</ele>
        <time>2015-03-29T15:29:45Z</time>
      </trkpt>
      <trkpt lat="41.095204" lon="-6.717673">
        <ele>565.989</ele>
        <time>2015-03-29T15:29:56Z</time>
      </trkpt>
      <trkpt lat="41.095194" lon="-6.717669">
        <ele>565.917</ele>
        <time>2015-03-29T15:29:57Z</time>
      </trkpt>
      <trkpt lat="41.095110" lon="-6.717611">
        <ele>566.407</ele>
        <time>2015-03-29T15:30:04Z</time>
      </trkpt>
      <trkpt lat="41.094980" lon="-6.717471">
        <ele>567.337</ele>
        <time>2015-03-29T15:30:13Z</time>
      </trkpt>
      <trkpt lat="41.094839" lon="-6.717405">
        <ele>567.832</ele>
        <time>2015-03-29T15:30:21Z</time>
      </trkpt>
      <trkpt lat="41.094669" lon="-6.717382">
        <ele>568.837</ele>
        <time>2015-03-29T15:30:29Z</time>
      </trkpt>
      <trkpt lat="41.094407" lon="-6.717376">
        <ele>569.741</ele>
        <time>2015-03-29T15:30:40Z</time>
      </trkpt>
      <trkpt lat="41.094149" lon="-6.717326">
        <ele>569.259</ele>
        <time>2015-03-29T15:30:50Z</time>
      </trkpt>
      <trkpt lat="41.093845" lon="-6.717265">
        <ele>568.833</ele>
        <time>2015-03-29T15:31:01Z</time>
      </trkpt>
      <trkpt lat="41.093781" lon="-6.717250">
        <ele>568.824</ele>
        <time>2015-03-29T15:31:03Z</time>
      </trkpt>
      <trkpt lat="41.093601" lon="-6.717223">
        <ele>569.276</ele>
        <time>2015-03-29T15:31:09Z</time>
      </trkpt>
      <trkpt lat="41.093300" lon="-6.717072">
        <ele>568.890</ele>
        <time>2015-03-29T15:31:19Z</time>
      </trkpt>
      <trkpt lat="41.093080" lon="-6.717145">
        <ele>569.719</ele>
        <time>2015-03-29T15:31:29Z</time>
      </trkpt>
      <trkpt lat="41.093024" lon="-6.717164">
        <ele>570.707</ele>
        <time>2015-03-29T15:31:33Z</time>
      </trkpt>
      <trkpt lat="41.092985" lon="-6.717114">
        <ele>572.176</ele>
        <time>2015-03-29T15:31:37Z</time>
      </trkpt>
      <trkpt lat="41.092978" lon="-6.717087">
        <ele>572.641</ele>
        <time>2015-03-29T15:31:39Z</time>
      </trkpt>
      <trkpt lat="41.092922" lon="-6.717073">
        <ele>573.616</ele>
        <time>2015-03-29T15:31:47Z</time>
      </trkpt>
      <trkpt lat="41.092882" lon="-6.717131">
        <ele>574.050</ele>
        <time>2015-03-29T15:31:52Z</time>
      </trkpt>
      <trkpt lat="41.092832" lon="-6.717156">
        <ele>575.018</ele>
        <time>2015-03-29T15:31:56Z</time>
      </trkpt>
      <trkpt lat="41.092748" lon="-6.717200">
        <ele>576.082</ele>
        <time>2015-03-29T15:32:02Z</time>
      </trkpt>
      <trkpt lat="41.092699" lon="-6.717227">
        <ele>576.523</ele>
        <time>2015-03-29T15:32:06Z</time>
      </trkpt>
      <trkpt lat="41.092625" lon="-6.717262">
        <ele>577.493</ele>
        <time>2015-03-29T15:32:12Z</time>
      </trkpt>
      <trkpt lat="41.092488" lon="-6.717359">
        <ele>576.965</ele>
        <time>2015-03-29T15:32:21Z</time>
      </trkpt>
      <trkpt lat="41.092460" lon="-6.717483">
        <ele>576.921</ele>
        <time>2015-03-29T15:32:27Z</time>
      </trkpt>
      <trkpt lat="41.092400" lon="-6.717617">
        <ele>575.507</ele>
        <time>2015-03-29T15:32:36Z</time>
      </trkpt>
      <trkpt lat="41.092236" lon="-6.717782">
        <ele>572.698</ele>
        <time>2015-03-29T15:32:44Z</time>
      </trkpt>
      <trkpt lat="41.092198" lon="-6.717800">
        <ele>572.133</ele>
        <time>2015-03-29T15:32:45Z</time>
      </trkpt>
      <trkpt lat="41.092133" lon="-6.717850">
        <ele>571.648</ele>
        <time>2015-03-29T15:32:47Z</time>
      </trkpt>
      <trkpt lat="41.092059" lon="-6.717942">
        <ele>570.762</ele>
        <time>2015-03-29T15:32:53Z</time>
      </trkpt>
      <trkpt lat="41.091976" lon="-6.718141">
        <ele>569.720</ele>
        <time>2015-03-29T15:33:01Z</time>
      </trkpt>
      <trkpt lat="41.091930" lon="-6.718301">
        <ele>568.854</ele>
        <time>2015-03-29T15:33:08Z</time>
      </trkpt>
      <trkpt lat="41.091842" lon="-6.718483">
        <ele>567.315</ele>
        <time>2015-03-29T15:33:15Z</time>
      </trkpt>
      <trkpt lat="41.091748" lon="-6.718687">
        <ele>564.057</ele>
        <time>2015-03-29T15:33:25Z</time>
      </trkpt>
      <trkpt lat="41.091652" lon="-6.718894">
        <ele>562.000</ele>
        <time>2015-03-29T15:33:35Z</time>
      </trkpt>
      <trkpt lat="41.091565" lon="-6.719094">
        <ele>560.620</ele>
        <time>2015-03-29T15:33:43Z</time>
      </trkpt>
      <trkpt lat="41.091493" lon="-6.719198">
        <ele>560.107</ele>
        <time>2015-03-29T15:33:48Z</time>
      </trkpt>
      <trkpt lat="41.091417" lon="-6.719376">
        <ele>559.124</ele>
        <time>2015-03-29T15:33:55Z</time>
      </trkpt>
      <trkpt lat="41.091260" lon="-6.719597">
        <ele>558.269</ele>
        <time>2015-03-29T15:34:05Z</time>
      </trkpt>
      <trkpt lat="41.091236" lon="-6.719608">
        <ele>557.714</ele>
        <time>2015-03-29T15:34:06Z</time>
      </trkpt>
      <trkpt lat="41.091077" lon="-6.719790">
        <ele>557.758</ele>
        <time>2015-03-29T15:34:16Z</time>
      </trkpt>
      <trkpt lat="41.091003" lon="-6.719857">
        <ele>556.756</ele>
        <time>2015-03-29T15:34:21Z</time>
      </trkpt>
      <trkpt lat="41.090932" lon="-6.719958">
        <ele>556.750</ele>
        <time>2015-03-29T15:34:28Z</time>
      </trkpt>
      <trkpt lat="41.090787" lon="-6.720095">
        <ele>557.281</ele>
        <time>2015-03-29T15:34:38Z</time>
      </trkpt>
      <trkpt lat="41.090722" lon="-6.720146">
        <ele>554.853</ele>
        <time>2015-03-29T15:34:43Z</time>
      </trkpt>
      <trkpt lat="41.090544" lon="-6.720271">
        <ele>553.404</ele>
        <time>2015-03-29T15:34:54Z</time>
      </trkpt>
      <trkpt lat="41.090529" lon="-6.720279">
        <ele>553.414</ele>
        <time>2015-03-29T15:35:13Z</time>
      </trkpt>
      <trkpt lat="41.090513" lon="-6.720286">
        <ele>552.907</ele>
        <time>2015-03-29T15:35:14Z</time>
      </trkpt>
      <trkpt lat="41.090490" lon="-6.720306">
        <ele>552.964</ele>
        <time>2015-03-29T15:35:16Z</time>
      </trkpt>
      <trkpt lat="41.090447" lon="-6.720345">
        <ele>552.479</ele>
        <time>2015-03-29T15:35:25Z</time>
      </trkpt>
      <trkpt lat="41.090439" lon="-6.720360">
        <ele>551.584</ele>
        <time>2015-03-29T15:35:37Z</time>
      </trkpt>
      <trkpt lat="41.090446" lon="-6.720366">
        <ele>552.428</ele>
        <time>2015-03-29T15:36:03Z</time>
      </trkpt>
      <trkpt lat="41.090442" lon="-6.720355">
        <ele>551.546</ele>
        <time>2015-03-29T15:36:15Z</time>
      </trkpt>
      <trkpt lat="41.090449" lon="-6.720354">
        <ele>551.580</ele>
        <time>2015-03-29T15:36:36Z</time>
      </trkpt>
      <trkpt lat="41.090449" lon="-6.720351">
        <ele>551.581</ele>
        <time>2015-03-29T15:36:59Z</time>
      </trkpt>
      <trkpt lat="41.090439" lon="-6.720342">
        <ele>551.023</ele>
        <time>2015-03-29T15:37:19Z</time>
      </trkpt>
      <trkpt lat="41.090435" lon="-6.720343">
        <ele>551.083</ele>
        <time>2015-03-29T15:37:39Z</time>
      </trkpt>
      <trkpt lat="41.090441" lon="-6.720347">
        <ele>551.011</ele>
        <time>2015-03-29T15:37:58Z</time>
      </trkpt>
      <trkpt lat="41.090446" lon="-6.720348">
        <ele>551.007</ele>
        <time>2015-03-29T15:38:22Z</time>
      </trkpt>
      <trkpt lat="41.090441" lon="-6.720351">
        <ele>550.021</ele>
        <time>2015-03-29T15:38:38Z</time>
      </trkpt>
      <trkpt lat="41.090439" lon="-6.720348">
        <ele>551.056</ele>
        <time>2015-03-29T15:39:02Z</time>
      </trkpt>
      <trkpt lat="41.090439" lon="-6.720343">
        <ele>551.041</ele>
        <time>2015-03-29T15:39:22Z</time>
      </trkpt>
      <trkpt lat="41.090434" lon="-6.720336">
        <ele>551.055</ele>
        <time>2015-03-29T15:39:43Z</time>
      </trkpt>
      <trkpt lat="41.090437" lon="-6.720335">
        <ele>550.543</ele>
        <time>2015-03-29T15:39:45Z</time>
      </trkpt>
      <trkpt lat="41.090393" lon="-6.720346">
        <ele>551.067</ele>
        <time>2015-03-29T15:39:49Z</time>
      </trkpt>
      <trkpt lat="41.090358" lon="-6.720359">
        <ele>550.078</ele>
        <time>2015-03-29T15:39:51Z</time>
      </trkpt>
      <trkpt lat="41.090221" lon="-6.720460">
        <ele>549.168</ele>
        <time>2015-03-29T15:39:59Z</time>
      </trkpt>
      <trkpt lat="41.090014" lon="-6.720554">
        <ele>547.642</ele>
        <time>2015-03-29T15:40:10Z</time>
      </trkpt>
      <trkpt lat="41.089887" lon="-6.720621">
        <ele>546.726</ele>
        <time>2015-03-29T15:40:17Z</time>
      </trkpt>
      <trkpt lat="41.089876" lon="-6.720683">
        <ele>547.107</ele>
        <time>2015-03-29T15:40:21Z</time>
      </trkpt>
      <trkpt lat="41.089836" lon="-6.720835">
        <ele>547.625</ele>
        <time>2015-03-29T15:40:32Z</time>
      </trkpt>
      <trkpt lat="41.089864" lon="-6.720965">
        <ele>547.660</ele>
        <time>2015-03-29T15:40:40Z</time>
      </trkpt>
      <trkpt lat="41.089854" lon="-6.721125">
        <ele>547.675</ele>
        <time>2015-03-29T15:40:48Z</time>
      </trkpt>
      <trkpt lat="41.089796" lon="-6.721387">
        <ele>547.619</ele>
        <time>2015-03-29T15:41:00Z</time>
      </trkpt>
      <trkpt lat="41.089812" lon="-6.721440">
        <ele>547.137</ele>
        <time>2015-03-29T15:41:08Z</time>
      </trkpt>
      <trkpt lat="41.089807" lon="-6.721431">
        <ele>547.121</ele>
        <time>2015-03-29T15:41:19Z</time>
      </trkpt>
      <trkpt lat="41.089835" lon="-6.721482">
        <ele>547.182</ele>
        <time>2015-03-29T15:41:23Z</time>
      </trkpt>
      <trkpt lat="41.089875" lon="-6.721544">
        <ele>547.614</ele>
        <time>2015-03-29T15:41:28Z</time>
      </trkpt>
      <trkpt lat="41.089918" lon="-6.721550">
        <ele>548.154</ele>
        <time>2015-03-29T15:41:31Z</time>
      </trkpt>
      <trkpt lat="41.089971" lon="-6.721486">
        <ele>548.609</ele>
        <time>2015-03-29T15:41:37Z</time>
      </trkpt>
      <trkpt lat="41.090013" lon="-6.721470">
        <ele>549.107</ele>
        <time>2015-03-29T15:41:46Z</time>
      </trkpt>
      <trkpt lat="41.090036" lon="-6.721452">
        <ele>549.110</ele>
        <time>2015-03-29T15:41:50Z</time>
      </trkpt>
      <trkpt lat="41.090123" lon="-6.721414">
        <ele>549.565</ele>
        <time>2015-03-29T15:41:58Z</time>
      </trkpt>
      <trkpt lat="41.090145" lon="-6.721421">
        <ele>550.010</ele>
        <time>2015-03-29T15:42:08Z</time>
      </trkpt>
      <trkpt lat="41.090132" lon="-6.721448">
        <ele>550.044</ele>
        <time>2015-03-29T15:42:14Z</time>
      </trkpt>
      <trkpt lat="41.090111" lon="-6.721476">
        <ele>550.542</ele>
        <time>2015-03-29T15:42:17Z</time>
      </trkpt>
      <trkpt lat="41.090035" lon="-6.721578">
        <ele>551.546</ele>
        <time>2015-03-29T15:42:26Z</time>
      </trkpt>
      <trkpt lat="41.089979" lon="-6.721713">
        <ele>552.927</ele>
        <time>2015-03-29T15:42:36Z</time>
      </trkpt>
      <trkpt lat="41.089933" lon="-6.721829">
        <ele>554.318</ele>
        <time>2015-03-29T15:42:47Z</time>
      </trkpt>
      <trkpt lat="41.089917" lon="-6.721859">
        <ele>554.898</ele>
        <time>2015-03-29T15:42:50Z</time>
      </trkpt>
      <trkpt lat="41.089878" lon="-6.721972">
        <ele>555.817</ele>
        <time>2015-03-29T15:43:00Z</time>
      </trkpt>
      <trkpt lat="41.089842" lon="-6.722066">
        <ele>556.707</ele>
        <time>2015-03-29T15:43:09Z</time>
      </trkpt>
      <trkpt lat="41.089830" lon="-6.722108">
        <ele>557.280</ele>
        <time>2015-03-29T15:43:12Z</time>
      </trkpt>
      <trkpt lat="41.089767" lon="-6.722219">
        <ele>557.785</ele>
        <time>2015-03-29T15:43:23Z</time>
      </trkpt>
      <trkpt lat="41.089687" lon="-6.722325">
        <ele>559.610</ele>
        <time>2015-03-29T15:43:34Z</time>
      </trkpt>
      <trkpt lat="41.089628" lon="-6.722430">
        <ele>560.634</ele>
        <time>2015-03-29T15:43:44Z</time>
      </trkpt>
      <trkpt lat="41.089570" lon="-6.722557">
        <ele>562.512</ele>
        <time>2015-03-29T15:43:54Z</time>
      </trkpt>
      <trkpt lat="41.089527" lon="-6.722641">
        <ele>563.046</ele>
        <time>2015-03-29T15:44:01Z</time>
      </trkpt>
      <trkpt lat="41.089495" lon="-6.722721">
        <ele>564.097</ele>
        <time>2015-03-29T15:44:07Z</time>
      </trkpt>
      <trkpt lat="41.089488" lon="-6.722749">
        <ele>564.451</ele>
        <time>2015-03-29T15:44:09Z</time>
      </trkpt>
      <trkpt lat="41.089463" lon="-6.722797">
        <ele>564.401</ele>
        <time>2015-03-29T15:44:13Z</time>
      </trkpt>
      <trkpt lat="41.089392" lon="-6.722920">
        <ele>565.911</ele>
        <time>2015-03-29T15:44:23Z</time>
      </trkpt>
      <trkpt lat="41.089349" lon="-6.723030">
        <ele>567.307</ele>
        <time>2015-03-29T15:44:33Z</time>
      </trkpt>
      <trkpt lat="41.089337" lon="-6.723079">
        <ele>567.864</ele>
        <time>2015-03-29T15:44:36Z</time>
      </trkpt>
      <trkpt lat="41.089312" lon="-6.723099">
        <ele>568.399</ele>
        <time>2015-03-29T15:44:38Z</time>
      </trkpt>
      <trkpt lat="41.089279" lon="-6.723166">
        <ele>568.884</ele>
        <time>2015-03-29T15:44:44Z</time>
      </trkpt>
      <trkpt lat="41.089234" lon="-6.723293">
        <ele>569.258</ele>
        <time>2015-03-29T15:44:53Z</time>
      </trkpt>
      <trkpt lat="41.089213" lon="-6.723362">
        <ele>570.286</ele>
        <time>2015-03-29T15:44:59Z</time>
      </trkpt>
      <trkpt lat="41.089198" lon="-6.723430">
        <ele>570.270</ele>
        <time>2015-03-29T15:45:04Z</time>
      </trkpt>
      <trkpt lat="41.089175" lon="-6.723482">
        <ele>570.771</ele>
        <time>2015-03-29T15:45:08Z</time>
      </trkpt>
      <trkpt lat="41.089160" lon="-6.723520">
        <ele>570.769</ele>
        <time>2015-03-29T15:45:11Z</time>
      </trkpt>
      <trkpt lat="41.089148" lon="-6.723541">
        <ele>571.204</ele>
        <time>2015-03-29T15:45:13Z</time>
      </trkpt>
      <trkpt lat="41.089120" lon="-6.723615">
        <ele>571.624</ele>
        <time>2015-03-29T15:45:20Z</time>
      </trkpt>
      <trkpt lat="41.089077" lon="-6.723730">
        <ele>572.607</ele>
        <time>2015-03-29T15:45:29Z</time>
      </trkpt>
      <trkpt lat="41.089050" lon="-6.723769">
        <ele>573.185</ele>
        <time>2015-03-29T15:45:32Z</time>
      </trkpt>
      <trkpt lat="41.088991" lon="-6.723860">
        <ele>573.160</ele>
        <time>2015-03-29T15:45:40Z</time>
      </trkpt>
      <trkpt lat="41.088954" lon="-6.723925">
        <ele>573.625</ele>
        <time>2015-03-29T15:45:46Z</time>
      </trkpt>
      <trkpt lat="41.088904" lon="-6.724031">
        <ele>573.639</ele>
        <time>2015-03-29T15:45:55Z</time>
      </trkpt>
      <trkpt lat="41.088844" lon="-6.724150">
        <ele>574.577</ele>
        <time>2015-03-29T15:46:05Z</time>
      </trkpt>
      <trkpt lat="41.088764" lon="-6.724264">
        <ele>575.031</ele>
        <time>2015-03-29T15:46:15Z</time>
      </trkpt>
      <trkpt lat="41.088748" lon="-6.724280">
        <ele>575.582</ele>
        <time>2015-03-29T15:46:17Z</time>
      </trkpt>
      <trkpt lat="41.088727" lon="-6.724336">
        <ele>576.573</ele>
        <time>2015-03-29T15:46:27Z</time>
      </trkpt>
      <trkpt lat="41.088730" lon="-6.724338">
        <ele>576.585</ele>
        <time>2015-03-29T15:46:50Z</time>
      </trkpt>
      <trkpt lat="41.088727" lon="-6.724344">
        <ele>576.013</ele>
        <time>2015-03-29T15:47:08Z</time>
      </trkpt>
      <trkpt lat="41.088604" lon="-6.724433">
        <ele>576.507</ele>
        <time>2015-03-29T15:47:19Z</time>
      </trkpt>
      <trkpt lat="41.088529" lon="-6.724573">
        <ele>576.936</ele>
        <time>2015-03-29T15:47:29Z</time>
      </trkpt>
      <trkpt lat="41.088512" lon="-6.724626">
        <ele>577.441</ele>
        <time>2015-03-29T15:47:32Z</time>
      </trkpt>
      <trkpt lat="41.088493" lon="-6.724695">
        <ele>577.956</ele>
        <time>2015-03-29T15:47:36Z</time>
      </trkpt>
      <trkpt lat="41.088423" lon="-6.724838">
        <ele>578.950</ele>
        <time>2015-03-29T15:47:45Z</time>
      </trkpt>
      <trkpt lat="41.088351" lon="-6.725048">
        <ele>579.858</ele>
        <time>2015-03-29T15:47:55Z</time>
      </trkpt>
      <trkpt lat="41.088285" lon="-6.725266">
        <ele>581.362</ele>
        <time>2015-03-29T15:48:06Z</time>
      </trkpt>
      <trkpt lat="41.088234" lon="-6.725461">
        <ele>582.283</ele>
        <time>2015-03-29T15:48:16Z</time>
      </trkpt>
      <trkpt lat="41.088235" lon="-6.725481">
        <ele>582.252</ele>
        <time>2015-03-29T15:48:17Z</time>
      </trkpt>
      <trkpt lat="41.088232" lon="-6.725630">
        <ele>583.753</ele>
        <time>2015-03-29T15:48:26Z</time>
      </trkpt>
      <trkpt lat="41.088230" lon="-6.725789">
        <ele>585.108</ele>
        <time>2015-03-29T15:48:38Z</time>
      </trkpt>
      <trkpt lat="41.088236" lon="-6.725852">
        <ele>585.607</ele>
        <time>2015-03-29T15:48:42Z</time>
      </trkpt>
      <trkpt lat="41.088217" lon="-6.725902">
        <ele>586.174</ele>
        <time>2015-03-29T15:48:46Z</time>
      </trkpt>
      <trkpt lat="41.088158" lon="-6.726028">
        <ele>587.059</ele>
        <time>2015-03-29T15:48:55Z</time>
      </trkpt>
      <trkpt lat="41.088075" lon="-6.726181">
        <ele>588.024</ele>
        <time>2015-03-29T15:49:05Z</time>
      </trkpt>
      <trkpt lat="41.088066" lon="-6.726197">
        <ele>588.078</ele>
        <time>2015-03-29T15:49:06Z</time>
      </trkpt>
      <trkpt lat="41.088013" lon="-6.726360">
        <ele>589.036</ele>
        <time>2015-03-29T15:49:15Z</time>
      </trkpt>
      <trkpt lat="41.088000" lon="-6.726386">
        <ele>588.530</ele>
        <time>2015-03-29T15:49:17Z</time>
      </trkpt>
      <trkpt lat="41.087895" lon="-6.726587">
        <ele>589.951</ele>
        <time>2015-03-29T15:49:27Z</time>
      </trkpt>
      <trkpt lat="41.087740" lon="-6.726817">
        <ele>591.414</ele>
        <time>2015-03-29T15:49:38Z</time>
      </trkpt>
      <trkpt lat="41.087585" lon="-6.727004">
        <ele>591.854</ele>
        <time>2015-03-29T15:49:48Z</time>
      </trkpt>
      <trkpt lat="41.087431" lon="-6.727168">
        <ele>592.309</ele>
        <time>2015-03-29T15:49:57Z</time>
      </trkpt>
      <trkpt lat="41.087235" lon="-6.727389">
        <ele>594.207</ele>
        <time>2015-03-29T15:50:08Z</time>
      </trkpt>
      <trkpt lat="41.087056" lon="-6.727563">
        <ele>595.280</ele>
        <time>2015-03-29T15:50:18Z</time>
      </trkpt>
      <trkpt lat="41.086907" lon="-6.727705">
        <ele>596.275</ele>
        <time>2015-03-29T15:50:26Z</time>
      </trkpt>
      <trkpt lat="41.086767" lon="-6.727849">
        <ele>597.120</ele>
        <time>2015-03-29T15:50:34Z</time>
      </trkpt>
      <trkpt lat="41.086589" lon="-6.728093">
        <ele>598.164</ele>
        <time>2015-03-29T15:50:46Z</time>
      </trkpt>
      <trkpt lat="41.086434" lon="-6.728331">
        <ele>599.052</ele>
        <time>2015-03-29T15:50:56Z</time>
      </trkpt>
      <trkpt lat="41.086273" lon="-6.728557">
        <ele>599.526</ele>
        <time>2015-03-29T15:51:05Z</time>
      </trkpt>
      <trkpt lat="41.086066" lon="-6.728826">
        <ele>600.047</ele>
        <time>2015-03-29T15:51:16Z</time>
      </trkpt>
      <trkpt lat="41.085926" lon="-6.729012">
        <ele>600.573</ele>
        <time>2015-03-29T15:51:24Z</time>
      </trkpt>
      <trkpt lat="41.085757" lon="-6.729207">
        <ele>601.985</ele>
        <time>2015-03-29T15:51:33Z</time>
      </trkpt>
      <trkpt lat="41.085526" lon="-6.729452">
        <ele>602.413</ele>
        <time>2015-03-29T15:51:44Z</time>
      </trkpt>
      <trkpt lat="41.085348" lon="-6.729646">
        <ele>603.407</ele>
        <time>2015-03-29T15:51:53Z</time>
      </trkpt>
      <trkpt lat="41.085086" lon="-6.729816">
        <ele>602.436</ele>
        <time>2015-03-29T15:52:02Z</time>
      </trkpt>
      <trkpt lat="41.084734" lon="-6.730027">
        <ele>602.471</ele>
        <time>2015-03-29T15:52:13Z</time>
      </trkpt>
      <trkpt lat="41.084453" lon="-6.730225">
        <ele>601.446</ele>
        <time>2015-03-29T15:52:23Z</time>
      </trkpt>
      <trkpt lat="41.084158" lon="-6.730426">
        <ele>600.060</ele>
        <time>2015-03-29T15:52:33Z</time>
      </trkpt>
      <trkpt lat="41.084085" lon="-6.730477">
        <ele>599.528</ele>
        <time>2015-03-29T15:52:35Z</time>
      </trkpt>
      <trkpt lat="41.083945" lon="-6.730570">
        <ele>598.172</ele>
        <time>2015-03-29T15:52:39Z</time>
      </trkpt>
      <trkpt lat="41.083754" lon="-6.730696">
        <ele>597.133</ele>
        <time>2015-03-29T15:52:45Z</time>
      </trkpt>
      <trkpt lat="41.083688" lon="-6.730761">
        <ele>596.696</ele>
        <time>2015-03-29T15:52:47Z</time>
      </trkpt>
      <trkpt lat="41.083595" lon="-6.730892">
        <ele>595.731</ele>
        <time>2015-03-29T15:52:50Z</time>
      </trkpt>
      <trkpt lat="41.083329" lon="-6.731237">
        <ele>593.824</ele>
        <time>2015-03-29T15:52:58Z</time>
      </trkpt>
      <trkpt lat="41.083013" lon="-6.731402">
        <ele>589.907</ele>
        <time>2015-03-29T15:53:07Z</time>
      </trkpt>
      <trkpt lat="41.082769" lon="-6.731461">
        <ele>588.578</ele>
        <time>2015-03-29T15:53:12Z</time>
      </trkpt>
      <trkpt lat="41.082723" lon="-6.731502">
        <ele>588.513</ele>
        <time>2015-03-29T15:53:13Z</time>
      </trkpt>
      <trkpt lat="41.082636" lon="-6.731598">
        <ele>588.038</ele>
        <time>2015-03-29T15:53:15Z</time>
      </trkpt>
      <trkpt lat="41.082479" lon="-6.731793">
        <ele>586.522</ele>
        <time>2015-03-29T15:53:19Z</time>
      </trkpt>
      <trkpt lat="41.082294" lon="-6.731905">
        <ele>586.190</ele>
        <time>2015-03-29T15:53:23Z</time>
      </trkpt>
      <trkpt lat="41.081877" lon="-6.732013">
        <ele>582.764</ele>
        <time>2015-03-29T15:53:32Z</time>
      </trkpt>
      <trkpt lat="41.081714" lon="-6.732057">
        <ele>582.235</ele>
        <time>2015-03-29T15:53:35Z</time>
      </trkpt>
      <trkpt lat="41.081508" lon="-6.732128">
        <ele>581.355</ele>
        <time>2015-03-29T15:53:39Z</time>
      </trkpt>
      <trkpt lat="41.081323" lon="-6.732192">
        <ele>579.807</ele>
        <time>2015-03-29T15:53:43Z</time>
      </trkpt>
      <trkpt lat="41.081039" lon="-6.732261">
        <ele>576.917</ele>
        <time>2015-03-29T15:53:52Z</time>
      </trkpt>
      <trkpt lat="41.080835" lon="-6.732332">
        <ele>574.007</ele>
        <time>2015-03-29T15:54:00Z</time>
      </trkpt>
      <trkpt lat="41.080620" lon="-6.732391">
        <ele>571.674</ele>
        <time>2015-03-29T15:54:08Z</time>
      </trkpt>
      <trkpt lat="41.080282" lon="-6.732496">
        <ele>568.889</ele>
        <time>2015-03-29T15:54:17Z</time>
      </trkpt>
      <trkpt lat="41.080209" lon="-6.732517">
        <ele>567.344</ele>
        <time>2015-03-29T15:54:19Z</time>
      </trkpt>
      <trkpt lat="41.079883" lon="-6.732765">
        <ele>561.168</ele>
        <time>2015-03-29T15:54:30Z</time>
      </trkpt>
      <trkpt lat="41.079853" lon="-6.732789">
        <ele>566.416</ele>
        <time>2015-03-29T15:54:31Z</time>
      </trkpt>
      <trkpt lat="41.079665" lon="-6.733049">
        <ele>563.580</ele>
        <time>2015-03-29T15:54:38Z</time>
      </trkpt>
      <trkpt lat="41.079612" lon="-6.733133">
        <ele>563.021</ele>
        <time>2015-03-29T15:54:40Z</time>
      </trkpt>
      <trkpt lat="41.079424" lon="-6.733496">
        <ele>560.155</ele>
        <time>2015-03-29T15:54:49Z</time>
      </trkpt>
      <trkpt lat="41.079237" lon="-6.733751">
        <ele>556.707</ele>
        <time>2015-03-29T15:54:59Z</time>
      </trkpt>
      <trkpt lat="41.079099" lon="-6.733926">
        <ele>553.417</ele>
        <time>2015-03-29T15:55:08Z</time>
      </trkpt>
      <trkpt lat="41.078875" lon="-6.734157">
        <ele>550.507</ele>
        <time>2015-03-29T15:55:18Z</time>
      </trkpt>
      <trkpt lat="41.078764" lon="-6.734357">
        <ele>549.534</ele>
        <time>2015-03-29T15:55:26Z</time>
      </trkpt>
      <trkpt lat="41.078727" lon="-6.734452">
        <ele>548.199</ele>
        <time>2015-03-29T15:55:30Z</time>
      </trkpt>
      <trkpt lat="41.078672" lon="-6.734507">
        <ele>547.114</ele>
        <time>2015-03-29T15:55:34Z</time>
      </trkpt>
      <trkpt lat="41.078626" lon="-6.734543">
        <ele>546.778</ele>
        <time>2015-03-29T15:55:37Z</time>
      </trkpt>
      <trkpt lat="41.078530" lon="-6.734487">
        <ele>546.276</ele>
        <time>2015-03-29T15:55:42Z</time>
      </trkpt>
      <trkpt lat="41.078475" lon="-6.734467">
        <ele>546.220</ele>
        <time>2015-03-29T15:55:45Z</time>
      </trkpt>
      <trkpt lat="41.078413" lon="-6.734451">
        <ele>546.211</ele>
        <time>2015-03-29T15:55:49Z</time>
      </trkpt>
      <trkpt lat="41.078201" lon="-6.734472">
        <ele>546.745</ele>
        <time>2015-03-29T15:56:00Z</time>
      </trkpt>
      <trkpt lat="41.078021" lon="-6.734524">
        <ele>548.147</ele>
        <time>2015-03-29T15:56:11Z</time>
      </trkpt>
      <trkpt lat="41.077842" lon="-6.734561">
        <ele>548.611</ele>
        <time>2015-03-29T15:56:20Z</time>
      </trkpt>
      <trkpt lat="41.077610" lon="-6.734617">
        <ele>548.107</ele>
        <time>2015-03-29T15:56:29Z</time>
      </trkpt>
      <trkpt lat="41.077299" lon="-6.734657">
        <ele>547.183</ele>
        <time>2015-03-29T15:56:41Z</time>
      </trkpt>
      <trkpt lat="41.077148" lon="-6.734698">
        <ele>546.268</ele>
        <time>2015-03-29T15:56:47Z</time>
      </trkpt>
      <trkpt lat="41.077004" lon="-6.734821">
        <ele>543.863</ele>
        <time>2015-03-29T15:56:56Z</time>
      </trkpt>
      <trkpt lat="41.076865" lon="-6.734978">
        <ele>541.427</ele>
        <time>2015-03-29T15:57:04Z</time>
      </trkpt>
      <trkpt lat="41.076708" lon="-6.735166">
        <ele>539.035</ele>
        <time>2015-03-29T15:57:12Z</time>
      </trkpt>
      <trkpt lat="41.076628" lon="-6.735379">
        <ele>536.689</ele>
        <time>2015-03-29T15:57:21Z</time>
      </trkpt>
      <trkpt lat="41.076597" lon="-6.735427">
        <ele>536.160</ele>
        <time>2015-03-29T15:57:23Z</time>
      </trkpt>
      <trkpt lat="41.076587" lon="-6.735463">
        <ele>538.068</ele>
        <time>2015-03-29T15:57:32Z</time>
      </trkpt>
      <trkpt lat="41.076584" lon="-6.735464">
        <ele>536.142</ele>
        <time>2015-03-29T15:57:48Z</time>
      </trkpt>
      <trkpt lat="41.076539" lon="-6.735570">
        <ele>535.626</ele>
        <time>2015-03-29T15:57:56Z</time>
      </trkpt>
      <trkpt lat="41.076440" lon="-6.735817">
        <ele>533.707</ele>
        <time>2015-03-29T15:58:05Z</time>
      </trkpt>
      <trkpt lat="41.076422" lon="-6.735955">
        <ele>532.215</ele>
        <time>2015-03-29T15:58:10Z</time>
      </trkpt>
      <trkpt lat="41.076396" lon="-6.736175">
        <ele>530.880</ele>
        <time>2015-03-29T15:58:18Z</time>
      </trkpt>
      <trkpt lat="41.076401" lon="-6.736229">
        <ele>529.865</ele>
        <time>2015-03-29T15:58:20Z</time>
      </trkpt>
      <trkpt lat="41.076361" lon="-6.736389">
        <ele>527.959</ele>
        <time>2015-03-29T15:58:25Z</time>
      </trkpt>
      <trkpt lat="41.076346" lon="-6.736416">
        <ele>527.467</ele>
        <time>2015-03-29T15:58:26Z</time>
      </trkpt>
      <trkpt lat="41.076190" lon="-6.736590">
        <ele>526.071</ele>
        <time>2015-03-29T15:58:36Z</time>
      </trkpt>
      <trkpt lat="41.076176" lon="-6.736603">
        <ele>526.022</ele>
        <time>2015-03-29T15:58:37Z</time>
      </trkpt>
      <trkpt lat="41.076125" lon="-6.736701">
        <ele>525.018</ele>
        <time>2015-03-29T15:58:43Z</time>
      </trkpt>
      <trkpt lat="41.075975" lon="-6.736934">
        <ele>522.198</ele>
        <time>2015-03-29T15:58:53Z</time>
      </trkpt>
      <trkpt lat="41.075913" lon="-6.737162">
        <ele>522.117</ele>
        <time>2015-03-29T15:58:59Z</time>
      </trkpt>
      <trkpt lat="41.075977" lon="-6.737270">
        <ele>521.707</ele>
        <time>2015-03-29T15:59:04Z</time>
      </trkpt>
      <trkpt lat="41.076073" lon="-6.737287">
        <ele>523.120</ele>
        <time>2015-03-29T15:59:12Z</time>
      </trkpt>
      <trkpt lat="41.076142" lon="-6.737290">
        <ele>524.565</ele>
        <time>2015-03-29T15:59:20Z</time>
      </trkpt>
      <trkpt lat="41.076200" lon="-6.737312">
        <ele>525.580</ele>
        <time>2015-03-29T15:59:29Z</time>
      </trkpt>
      <trkpt lat="41.076253" lon="-6.737329">
        <ele>526.554</ele>
        <time>2015-03-29T15:59:37Z</time>
      </trkpt>
      <trkpt lat="41.076214" lon="-6.737377">
        <ele>526.982</ele>
        <time>2015-03-29T15:59:45Z</time>
      </trkpt>
      <trkpt lat="41.076207" lon="-6.737420">
        <ele>528.486</ele>
        <time>2015-03-29T15:59:54Z</time>
      </trkpt>
      <trkpt lat="41.076264" lon="-6.737458">
        <ele>529.827</ele>
        <time>2015-03-29T16:00:05Z</time>
      </trkpt>
      <trkpt lat="41.076281" lon="-6.737465">
        <ele>530.378</ele>
        <time>2015-03-29T16:00:13Z</time>
      </trkpt>
      <trkpt lat="41.076325" lon="-6.737497">
        <ele>531.833</ele>
        <time>2015-03-29T16:00:22Z</time>
      </trkpt>
      <trkpt lat="41.076325" lon="-6.737544">
        <ele>532.726</ele>
        <time>2015-03-29T16:00:30Z</time>
      </trkpt>
      <trkpt lat="41.076346" lon="-6.737578">
        <ele>533.207</ele>
        <time>2015-03-29T16:00:39Z</time>
      </trkpt>
      <trkpt lat="41.076354" lon="-6.737586">
        <ele>533.226</ele>
        <time>2015-03-29T16:00:42Z</time>
      </trkpt>
      <trkpt lat="41.076392" lon="-6.737673">
        <ele>534.631</ele>
        <time>2015-03-29T16:00:52Z</time>
      </trkpt>
      <trkpt lat="41.076381" lon="-6.737747">
        <ele>535.696</ele>
        <time>2015-03-29T16:01:02Z</time>
      </trkpt>
      <trkpt lat="41.076333" lon="-6.737813">
        <ele>536.690</ele>
        <time>2015-03-29T16:01:14Z</time>
      </trkpt>
      <trkpt lat="41.076293" lon="-6.737848">
        <ele>537.588</ele>
        <time>2015-03-29T16:01:22Z</time>
      </trkpt>
      <trkpt lat="41.076246" lon="-6.737894">
        <ele>538.532</ele>
        <time>2015-03-29T16:01:31Z</time>
      </trkpt>
      <trkpt lat="41.076215" lon="-6.737951">
        <ele>539.493</ele>
        <time>2015-03-29T16:01:39Z</time>
      </trkpt>
      <trkpt lat="41.076191" lon="-6.737990">
        <ele>540.459</ele>
        <time>2015-03-29T16:01:48Z</time>
      </trkpt>
      <trkpt lat="41.076159" lon="-6.738049">
        <ele>541.403</ele>
        <time>2015-03-29T16:01:57Z</time>
      </trkpt>
      <trkpt lat="41.076143" lon="-6.738105">
        <ele>541.823</ele>
        <time>2015-03-29T16:02:05Z</time>
      </trkpt>
      <trkpt lat="41.076129" lon="-6.738146">
        <ele>542.807</ele>
        <time>2015-03-29T16:02:14Z</time>
      </trkpt>
      <trkpt lat="41.076111" lon="-6.738181">
        <ele>543.314</ele>
        <time>2015-03-29T16:02:23Z</time>
      </trkpt>
      <trkpt lat="41.076093" lon="-6.738254">
        <ele>544.269</ele>
        <time>2015-03-29T16:02:32Z</time>
      </trkpt>
      <trkpt lat="41.076082" lon="-6.738361">
        <ele>545.284</ele>
        <time>2015-03-29T16:02:43Z</time>
      </trkpt>
      <trkpt lat="41.076083" lon="-6.738378">
        <ele>545.758</ele>
        <time>2015-03-29T16:02:54Z</time>
      </trkpt>
      <trkpt lat="41.076079" lon="-6.738379">
        <ele>545.736</ele>
        <time>2015-03-29T16:03:07Z</time>
      </trkpt>
      <trkpt lat="41.076081" lon="-6.738381">
        <ele>545.740</ele>
        <time>2015-03-29T16:03:24Z</time>
      </trkpt>
      <trkpt lat="41.076078" lon="-6.738392">
        <ele>546.211</ele>
        <time>2015-03-29T16:03:34Z</time>
      </trkpt>
      <trkpt lat="41.076074" lon="-6.738407">
        <ele>546.794</ele>
        <time>2015-03-29T16:03:45Z</time>
      </trkpt>
      <trkpt lat="41.076078" lon="-6.738428">
        <ele>546.757</ele>
        <time>2015-03-29T16:03:54Z</time>
      </trkpt>
      <trkpt lat="41.076059" lon="-6.738584">
        <ele>548.622</ele>
        <time>2015-03-29T16:04:06Z</time>
      </trkpt>
      <trkpt lat="41.076077" lon="-6.738710">
        <ele>549.507</ele>
        <time>2015-03-29T16:04:16Z</time>
      </trkpt>
      <trkpt lat="41.076130" lon="-6.738819">
        <ele>551.538</ele>
        <time>2015-03-29T16:04:26Z</time>
      </trkpt>
      <trkpt lat="41.076171" lon="-6.738884">
        <ele>552.413</ele>
        <time>2015-03-29T16:04:37Z</time>
      </trkpt>
      <trkpt lat="41.076177" lon="-6.738908">
        <ele>552.438</ele>
        <time>2015-03-29T16:04:40Z</time>
      </trkpt>
      <trkpt lat="41.076227" lon="-6.738987">
        <ele>553.412</ele>
        <time>2015-03-29T16:04:48Z</time>
      </trkpt>
      <trkpt lat="41.076277" lon="-6.739027">
        <ele>554.340</ele>
        <time>2015-03-29T16:04:53Z</time>
      </trkpt>
      <trkpt lat="41.076373" lon="-6.739106">
        <ele>555.374</ele>
        <time>2015-03-29T16:05:02Z</time>
      </trkpt>
      <trkpt lat="41.076450" lon="-6.739243">
        <ele>556.395</ele>
        <time>2015-03-29T16:05:12Z</time>
      </trkpt>
      <trkpt lat="41.076462" lon="-6.739288">
        <ele>556.356</ele>
        <time>2015-03-29T16:05:15Z</time>
      </trkpt>
      <trkpt lat="41.076496" lon="-6.739392">
        <ele>557.259</ele>
        <time>2015-03-29T16:05:22Z</time>
      </trkpt>
      <trkpt lat="41.076511" lon="-6.739480">
        <ele>557.714</ele>
        <time>2015-03-29T16:05:27Z</time>
      </trkpt>
      <trkpt lat="41.076527" lon="-6.739631">
        <ele>558.707</ele>
        <time>2015-03-29T16:05:35Z</time>
      </trkpt>
      <trkpt lat="41.076527" lon="-6.739752">
        <ele>559.624</ele>
        <time>2015-03-29T16:05:41Z</time>
      </trkpt>
      <trkpt lat="41.076487" lon="-6.739911">
        <ele>560.139</ele>
        <time>2015-03-29T16:05:50Z</time>
      </trkpt>
      <trkpt lat="41.076471" lon="-6.740046">
        <ele>561.644</ele>
        <time>2015-03-29T16:05:59Z</time>
      </trkpt>
      <trkpt lat="41.076451" lon="-6.740274">
        <ele>562.548</ele>
        <time>2015-03-29T16:06:11Z</time>
      </trkpt>
      <trkpt lat="41.076452" lon="-6.740315">
        <ele>563.086</ele>
        <time>2015-03-29T16:06:13Z</time>
      </trkpt>
      <trkpt lat="41.076461" lon="-6.740551">
        <ele>564.020</ele>
        <time>2015-03-29T16:06:25Z</time>
      </trkpt>
      <trkpt lat="41.076479" lon="-6.740754">
        <ele>565.441</ele>
        <time>2015-03-29T16:06:35Z</time>
      </trkpt>
      <trkpt lat="41.076485" lon="-6.740957">
        <ele>565.971</ele>
        <time>2015-03-29T16:06:46Z</time>
      </trkpt>
      <trkpt lat="41.076462" lon="-6.741151">
        <ele>566.441</ele>
        <time>2015-03-29T16:06:56Z</time>
      </trkpt>
      <trkpt lat="41.076444" lon="-6.741163">
        <ele>566.415</ele>
        <time>2015-03-29T16:06:58Z</time>
      </trkpt>
      <trkpt lat="41.076399" lon="-6.741134">
        <ele>566.407</ele>
        <time>2015-03-29T16:07:03Z</time>
      </trkpt>
      <trkpt lat="41.076320" lon="-6.741042">
        <ele>566.836</ele>
        <time>2015-03-29T16:07:12Z</time>
      </trkpt>
      <trkpt lat="41.076308" lon="-6.741026">
        <ele>566.831</ele>
        <time>2015-03-29T16:07:13Z</time>
      </trkpt>
      <trkpt lat="41.076123" lon="-6.740782">
        <ele>567.396</ele>
        <time>2015-03-29T16:07:25Z</time>
      </trkpt>
      <trkpt lat="41.075997" lon="-6.740588">
        <ele>567.860</ele>
        <time>2015-03-29T16:07:33Z</time>
      </trkpt>
      <trkpt lat="41.075876" lon="-6.740381">
        <ele>569.748</ele>
        <time>2015-03-29T16:07:43Z</time>
      </trkpt>
      <trkpt lat="41.075814" lon="-6.740307">
        <ele>570.292</ele>
        <time>2015-03-29T16:07:47Z</time>
      </trkpt>
      <trkpt lat="41.075601" lon="-6.740089">
        <ele>571.653</ele>
        <time>2015-03-29T16:08:00Z</time>
      </trkpt>
      <trkpt lat="41.075569" lon="-6.740066">
        <ele>571.611</ele>
        <time>2015-03-29T16:08:02Z</time>
      </trkpt>
      <trkpt lat="41.075334" lon="-6.740058">
        <ele>572.121</ele>
        <time>2015-03-29T16:08:12Z</time>
      </trkpt>
      <trkpt lat="41.075306" lon="-6.740058">
        <ele>572.603</ele>
        <time>2015-03-29T16:08:13Z</time>
      </trkpt>
      <trkpt lat="41.074960" lon="-6.740036">
        <ele>572.607</ele>
        <time>2015-03-29T16:08:25Z</time>
      </trkpt>
      <trkpt lat="41.074669" lon="-6.740037">
        <ele>575.590</ele>
        <time>2015-03-29T16:08:37Z</time>
      </trkpt>
      <trkpt lat="41.074471" lon="-6.740043">
        <ele>576.985</ele>
        <time>2015-03-29T16:08:47Z</time>
      </trkpt>
      <trkpt lat="41.074276" lon="-6.739974">
        <ele>575.030</ele>
        <time>2015-03-29T16:08:56Z</time>
      </trkpt>
      <trkpt lat="41.074204" lon="-6.739929">
        <ele>573.634</ele>
        <time>2015-03-29T16:08:59Z</time>
      </trkpt>
      <trkpt lat="41.073946" lon="-6.739796">
        <ele>572.612</ele>
        <time>2015-03-29T16:09:08Z</time>
      </trkpt>
      <trkpt lat="41.073759" lon="-6.739662">
        <ele>572.666</ele>
        <time>2015-03-29T16:09:16Z</time>
      </trkpt>
      <trkpt lat="41.073485" lon="-6.739420">
        <ele>573.617</ele>
        <time>2015-03-29T16:09:28Z</time>
      </trkpt>
      <trkpt lat="41.073286" lon="-6.739230">
        <ele>573.618</ele>
        <time>2015-03-29T16:09:36Z</time>
      </trkpt>
      <trkpt lat="41.073046" lon="-6.738881">
        <ele>574.598</ele>
        <time>2015-03-29T16:09:47Z</time>
      </trkpt>
      <trkpt lat="41.072862" lon="-6.738546">
        <ele>575.517</ele>
        <time>2015-03-29T16:09:57Z</time>
      </trkpt>
      <trkpt lat="41.072678" lon="-6.738267">
        <ele>576.907</ele>
        <time>2015-03-29T16:10:07Z</time>
      </trkpt>
      <trkpt lat="41.072592" lon="-6.738243">
        <ele>577.410</ele>
        <time>2015-03-29T16:10:11Z</time>
      </trkpt>
      <trkpt lat="41.072528" lon="-6.738304">
        <ele>576.965</ele>
        <time>2015-03-29T16:10:15Z</time>
      </trkpt>
      <trkpt lat="41.072533" lon="-6.738409">
        <ele>576.030</ele>
        <time>2015-03-29T16:10:19Z</time>
      </trkpt>
      <trkpt lat="41.072548" lon="-6.738577">
        <ele>575.064</ele>
        <time>2015-03-29T16:10:23Z</time>
      </trkpt>
      <trkpt lat="41.072602" lon="-6.739260">
        <ele>569.792</ele>
        <time>2015-03-29T16:10:33Z</time>
      </trkpt>
      <trkpt lat="41.072608" lon="-6.739334">
        <ele>574.066</ele>
        <time>2015-03-29T16:10:34Z</time>
      </trkpt>
      <trkpt lat="41.072614" lon="-6.739406">
        <ele>570.747</ele>
        <time>2015-03-29T16:10:35Z</time>
      </trkpt>
      <trkpt lat="41.072628" lon="-6.739538">
        <ele>572.121</ele>
        <time>2015-03-29T16:10:37Z</time>
      </trkpt>
      <trkpt lat="41.072656" lon="-6.739841">
        <ele>572.141</ele>
        <time>2015-03-29T16:10:42Z</time>
      </trkpt>
      <trkpt lat="41.072683" lon="-6.740281">
        <ele>572.105</ele>
        <time>2015-03-29T16:10:51Z</time>
      </trkpt>
      <trkpt lat="41.072686" lon="-6.740331">
        <ele>572.107</ele>
        <time>2015-03-29T16:10:52Z</time>
      </trkpt>
      <trkpt lat="41.072671" lon="-6.740924">
        <ele>571.291</ele>
        <time>2015-03-29T16:11:02Z</time>
      </trkpt>
      <trkpt lat="41.072654" lon="-6.741047">
        <ele>570.736</ele>
        <time>2015-03-29T16:11:04Z</time>
      </trkpt>
      <trkpt lat="41.072459" lon="-6.741189">
        <ele>570.741</ele>
        <time>2015-03-29T16:11:10Z</time>
      </trkpt>
      <trkpt lat="41.072413" lon="-6.741164">
        <ele>570.795</ele>
        <time>2015-03-29T16:11:11Z</time>
      </trkpt>
      <trkpt lat="41.071980" lon="-6.740866">
        <ele>566.833</ele>
        <time>2015-03-29T16:11:20Z</time>
      </trkpt>
      <trkpt lat="41.071725" lon="-6.740685">
        <ele>563.597</ele>
        <time>2015-03-29T16:11:25Z</time>
      </trkpt>
      <trkpt lat="41.071472" lon="-6.740515">
        <ele>560.138</ele>
        <time>2015-03-29T16:11:30Z</time>
      </trkpt>
      <trkpt lat="41.071198" lon="-6.740328">
        <ele>556.777</ele>
        <time>2015-03-29T16:11:35Z</time>
      </trkpt>
      <trkpt lat="41.071141" lon="-6.740289">
        <ele>556.761</ele>
        <time>2015-03-29T16:11:36Z</time>
      </trkpt>
      <trkpt lat="41.070947" lon="-6.740176">
        <ele>556.727</ele>
        <time>2015-03-29T16:11:40Z</time>
      </trkpt>
      <trkpt lat="41.070795" lon="-6.740090">
        <ele>558.207</ele>
        <time>2015-03-29T16:11:44Z</time>
      </trkpt>
      <trkpt lat="41.070702" lon="-6.740025">
        <ele>559.616</ele>
        <time>2015-03-29T16:11:47Z</time>
      </trkpt>
      <trkpt lat="41.070423" lon="-6.739860">
        <ele>561.641</ele>
        <time>2015-03-29T16:11:56Z</time>
      </trkpt>
      <trkpt lat="41.070092" lon="-6.739676">
        <ele>562.056</ele>
        <time>2015-03-29T16:12:06Z</time>
      </trkpt>
      <trkpt lat="41.069796" lon="-6.739494">
        <ele>562.570</ele>
        <time>2015-03-29T16:12:15Z</time>
      </trkpt>
      <trkpt lat="41.069650" lon="-6.739411">
        <ele>562.018</ele>
        <time>2015-03-29T16:12:19Z</time>
      </trkpt>
      <trkpt lat="41.069537" lon="-6.739346">
        <ele>562.092</ele>
        <time>2015-03-29T16:12:22Z</time>
      </trkpt>
      <trkpt lat="41.069373" lon="-6.739258">
        <ele>561.683</ele>
        <time>2015-03-29T16:12:26Z</time>
      </trkpt>
      <trkpt lat="41.069033" lon="-6.739078">
        <ele>563.554</ele>
        <time>2015-03-29T16:12:37Z</time>
      </trkpt>
      <trkpt lat="41.068760" lon="-6.738932">
        <ele>565.956</ele>
        <time>2015-03-29T16:12:48Z</time>
      </trkpt>
      <trkpt lat="41.068509" lon="-6.738791">
        <ele>567.311</ele>
        <time>2015-03-29T16:12:59Z</time>
      </trkpt>
      <trkpt lat="41.068268" lon="-6.738659">
        <ele>566.407</ele>
        <time>2015-03-29T16:13:08Z</time>
      </trkpt>
      <trkpt lat="41.068097" lon="-6.738561">
        <ele>564.924</ele>
        <time>2015-03-29T16:13:12Z</time>
      </trkpt>
      <trkpt lat="41.067472" lon="-6.738230">
        <ele>561.159</ele>
        <time>2015-03-29T16:13:22Z</time>
      </trkpt>
      <trkpt lat="41.067215" lon="-6.738177">
        <ele>563.014</ele>
        <time>2015-03-29T16:13:28Z</time>
      </trkpt>
      <trkpt lat="41.067187" lon="-6.738172">
        <ele>563.578</ele>
        <time>2015-03-29T16:13:29Z</time>
      </trkpt>
      <trkpt lat="41.066957" lon="-6.738103">
        <ele>565.956</ele>
        <time>2015-03-29T16:13:39Z</time>
      </trkpt>
      <trkpt lat="41.066705" lon="-6.738045">
        <ele>567.380</ele>
        <time>2015-03-29T16:13:51Z</time>
      </trkpt>
      <trkpt lat="41.066475" lon="-6.737995">
        <ele>569.731</ele>
        <time>2015-03-29T16:14:02Z</time>
      </trkpt>
      <trkpt lat="41.066246" lon="-6.737930">
        <ele>571.696</ele>
        <time>2015-03-29T16:14:14Z</time>
      </trkpt>
      <trkpt lat="41.066088" lon="-6.737893">
        <ele>573.631</ele>
        <time>2015-03-29T16:14:24Z</time>
      </trkpt>
      <trkpt lat="41.065885" lon="-6.737851">
        <ele>575.524</ele>
        <time>2015-03-29T16:14:37Z</time>
      </trkpt>
      <trkpt lat="41.065738" lon="-6.737819">
        <ele>577.407</ele>
        <time>2015-03-29T16:14:47Z</time>
      </trkpt>
      <trkpt lat="41.065600" lon="-6.737795">
        <ele>578.918</ele>
        <time>2015-03-29T16:14:57Z</time>
      </trkpt>
      <trkpt lat="41.065523" lon="-6.737785">
        <ele>579.813</ele>
        <time>2015-03-29T16:15:03Z</time>
      </trkpt>
      <trkpt lat="41.065364" lon="-6.737763">
        <ele>582.268</ele>
        <time>2015-03-29T16:15:14Z</time>
      </trkpt>
      <trkpt lat="41.065243" lon="-6.737737">
        <ele>583.752</ele>
        <time>2015-03-29T16:15:23Z</time>
      </trkpt>
      <trkpt lat="41.065182" lon="-6.737740">
        <ele>584.130</ele>
        <time>2015-03-29T16:15:27Z</time>
      </trkpt>
      <trkpt lat="41.065044" lon="-6.737714">
        <ele>585.614</ele>
        <time>2015-03-29T16:15:36Z</time>
      </trkpt>
      <trkpt lat="41.064910" lon="-6.737656">
        <ele>589.935</ele>
        <time>2015-03-29T16:15:44Z</time>
      </trkpt>
      <trkpt lat="41.064897" lon="-6.737646">
        <ele>588.524</ele>
        <time>2015-03-29T16:15:45Z</time>
      </trkpt>
      <trkpt lat="41.064882" lon="-6.737640">
        <ele>585.104</ele>
        <time>2015-03-29T16:15:46Z</time>
      </trkpt>
      <trkpt lat="41.064867" lon="-6.737642">
        <ele>586.514</ele>
        <time>2015-03-29T16:15:47Z</time>
      </trkpt>
      <trkpt lat="41.064838" lon="-6.737653">
        <ele>588.007</ele>
        <time>2015-03-29T16:15:49Z</time>
      </trkpt>
      <trkpt lat="41.064775" lon="-6.737663">
        <ele>587.541</ele>
        <time>2015-03-29T16:15:54Z</time>
      </trkpt>
      <trkpt lat="41.064604" lon="-6.737654">
        <ele>588.556</ele>
        <time>2015-03-29T16:16:05Z</time>
      </trkpt>
      <trkpt lat="41.064355" lon="-6.737621">
        <ele>588.561</ele>
        <time>2015-03-29T16:16:15Z</time>
      </trkpt>
      <trkpt lat="41.064080" lon="-6.737592">
        <ele>588.035</ele>
        <time>2015-03-29T16:16:24Z</time>
      </trkpt>
      <trkpt lat="41.063646" lon="-6.737511">
        <ele>586.573</ele>
        <time>2015-03-29T16:16:33Z</time>
      </trkpt>
      <trkpt lat="41.063454" lon="-6.737485">
        <ele>586.517</ele>
        <time>2015-03-29T16:16:37Z</time>
      </trkpt>
      <trkpt lat="41.063177" lon="-6.737488">
        <ele>586.548</ele>
        <time>2015-03-29T16:16:43Z</time>
      </trkpt>
      <trkpt lat="41.062960" lon="-6.737466">
        <ele>586.571</ele>
        <time>2015-03-29T16:16:48Z</time>
      </trkpt>
      <trkpt lat="41.062774" lon="-6.737472">
        <ele>586.541</ele>
        <time>2015-03-29T16:16:52Z</time>
      </trkpt>
      <trkpt lat="41.062600" lon="-6.737479">
        <ele>586.515</ele>
        <time>2015-03-29T16:16:56Z</time>
      </trkpt>
      <trkpt lat="41.062273" lon="-6.737498">
        <ele>585.107</ele>
        <time>2015-03-29T16:17:04Z</time>
      </trkpt>
      <trkpt lat="41.061887" lon="-6.737520">
        <ele>582.776</ele>
        <time>2015-03-29T16:17:13Z</time>
      </trkpt>
      <trkpt lat="41.061579" lon="-6.737404">
        <ele>579.841</ele>
        <time>2015-03-29T16:17:20Z</time>
      </trkpt>
      <trkpt lat="41.061491" lon="-6.737349">
        <ele>578.986</ele>
        <time>2015-03-29T16:17:22Z</time>
      </trkpt>
      <trkpt lat="41.061147" lon="-6.737141">
        <ele>575.040</ele>
        <time>2015-03-29T16:17:29Z</time>
      </trkpt>
      <trkpt lat="41.060785" lon="-6.736918">
        <ele>572.138</ele>
        <time>2015-03-29T16:17:35Z</time>
      </trkpt>
      <trkpt lat="41.060720" lon="-6.736880">
        <ele>572.172</ele>
        <time>2015-03-29T16:17:36Z</time>
      </trkpt>
      <trkpt lat="41.060445" lon="-6.736726">
        <ele>572.633</ele>
        <time>2015-03-29T16:17:41Z</time>
      </trkpt>
      <trkpt lat="41.060361" lon="-6.736679">
        <ele>575.016</ele>
        <time>2015-03-29T16:17:43Z</time>
      </trkpt>
      <trkpt lat="41.060323" lon="-6.736661">
        <ele>574.576</ele>
        <time>2015-03-29T16:17:44Z</time>
      </trkpt>
      <trkpt lat="41.060291" lon="-6.736645">
        <ele>574.013</ele>
        <time>2015-03-29T16:17:45Z</time>
      </trkpt>
      <trkpt lat="41.059992" lon="-6.736544">
        <ele>576.507</ele>
        <time>2015-03-29T16:17:57Z</time>
      </trkpt>
      <trkpt lat="41.059749" lon="-6.736576">
        <ele>577.920</ele>
        <time>2015-03-29T16:18:07Z</time>
      </trkpt>
      <trkpt lat="41.059484" lon="-6.736614">
        <ele>579.865</ele>
        <time>2015-03-29T16:18:19Z</time>
      </trkpt>
      <trkpt lat="41.059352" lon="-6.736641">
        <ele>580.320</ele>
        <time>2015-03-29T16:18:25Z</time>
      </trkpt>
      <trkpt lat="41.059132" lon="-6.736773">
        <ele>582.254</ele>
        <time>2015-03-29T16:18:37Z</time>
      </trkpt>
      <trkpt lat="41.058966" lon="-6.736914">
        <ele>584.122</ele>
        <time>2015-03-29T16:18:48Z</time>
      </trkpt>
      <trkpt lat="41.058891" lon="-6.736976">
        <ele>584.686</ele>
        <time>2015-03-29T16:18:53Z</time>
      </trkpt>
      <trkpt lat="41.058701" lon="-6.737032">
        <ele>586.587</ele>
        <time>2015-03-29T16:19:04Z</time>
      </trkpt>
      <trkpt lat="41.058511" lon="-6.737090">
        <ele>588.548</ele>
        <time>2015-03-29T16:19:15Z</time>
      </trkpt>
      <trkpt lat="41.058318" lon="-6.737139">
        <ele>590.961</ele>
        <time>2015-03-29T16:19:26Z</time>
      </trkpt>
      <trkpt lat="41.058146" lon="-6.737177">
        <ele>592.817</ele>
        <time>2015-03-29T16:19:36Z</time>
      </trkpt>
      <trkpt lat="41.057986" lon="-6.737221">
        <ele>594.707</ele>
        <time>2015-03-29T16:19:46Z</time>
      </trkpt>
      <trkpt lat="41.057831" lon="-6.737245">
        <ele>596.243</ele>
        <time>2015-03-29T16:19:56Z</time>
      </trkpt>
      <trkpt lat="41.057646" lon="-6.737279">
        <ele>598.638</ele>
        <time>2015-03-29T16:20:08Z</time>
      </trkpt>
      <trkpt lat="41.057612" lon="-6.737287">
        <ele>599.063</ele>
        <time>2015-03-29T16:20:11Z</time>
      </trkpt>
      <trkpt lat="41.057557" lon="-6.737297">
        <ele>600.077</ele>
        <time>2015-03-29T16:20:15Z</time>
      </trkpt>
      <trkpt lat="41.057506" lon="-6.737308">
        <ele>600.545</ele>
        <time>2015-03-29T16:20:19Z</time>
      </trkpt>
      <trkpt lat="41.057365" lon="-6.737332">
        <ele>602.449</ele>
        <time>2015-03-29T16:20:30Z</time>
      </trkpt>
      <trkpt lat="41.057320" lon="-6.737363">
        <ele>602.950</ele>
        <time>2015-03-29T16:20:34Z</time>
      </trkpt>
      <trkpt lat="41.057172" lon="-6.737497">
        <ele>604.834</ele>
        <time>2015-03-29T16:20:45Z</time>
      </trkpt>
      <trkpt lat="41.057115" lon="-6.737522">
        <ele>601.955</ele>
        <time>2015-03-29T16:20:49Z</time>
      </trkpt>
      <trkpt lat="41.057071" lon="-6.737532">
        <ele>603.910</ele>
        <time>2015-03-29T16:20:52Z</time>
      </trkpt>
      <trkpt lat="41.057064" lon="-6.737537">
        <ele>606.707</ele>
        <time>2015-03-29T16:20:53Z</time>
      </trkpt>
      <trkpt lat="41.057042" lon="-6.737539">
        <ele>605.832</ele>
        <time>2015-03-29T16:20:58Z</time>
      </trkpt>
      <trkpt lat="41.057043" lon="-6.737545">
        <ele>605.857</ele>
        <time>2015-03-29T16:21:13Z</time>
      </trkpt>
      <trkpt lat="41.057021" lon="-6.737554">
        <ele>605.812</ele>
        <time>2015-03-29T16:21:22Z</time>
      </trkpt>
      <trkpt lat="41.056870" lon="-6.737791">
        <ele>606.326</ele>
        <time>2015-03-29T16:21:33Z</time>
      </trkpt>
      <trkpt lat="41.056690" lon="-6.738185">
        <ele>606.364</ele>
        <time>2015-03-29T16:21:44Z</time>
      </trkpt>
      <trkpt lat="41.056497" lon="-6.738625">
        <ele>606.748</ele>
        <time>2015-03-29T16:21:55Z</time>
      </trkpt>
      <trkpt lat="41.056279" lon="-6.739126">
        <ele>606.779</ele>
        <time>2015-03-29T16:22:07Z</time>
      </trkpt>
      <trkpt lat="41.056192" lon="-6.739342">
        <ele>606.728</ele>
        <time>2015-03-29T16:22:12Z</time>
      </trkpt>
      <trkpt lat="41.055907" lon="-6.740025">
        <ele>607.289</ele>
        <time>2015-03-29T16:22:26Z</time>
      </trkpt>
      <trkpt lat="41.055669" lon="-6.740578">
        <ele>608.717</ele>
        <time>2015-03-29T16:22:37Z</time>
      </trkpt>
      <trkpt lat="41.055401" lon="-6.741210">
        <ele>608.207</ele>
        <time>2015-03-29T16:22:49Z</time>
      </trkpt>
      <trkpt lat="41.055070" lon="-6.742008">
        <ele>603.941</ele>
        <time>2015-03-29T16:23:04Z</time>
      </trkpt>
      <trkpt lat="41.055049" lon="-6.742054">
        <ele>611.196</ele>
        <time>2015-03-29T16:23:05Z</time>
      </trkpt>
      <trkpt lat="41.054667" lon="-6.742682">
        <ele>610.121</ele>
        <time>2015-03-29T16:23:20Z</time>
      </trkpt>
      <trkpt lat="41.054349" lon="-6.743011">
        <ele>610.675</ele>
        <time>2015-03-29T16:23:30Z</time>
      </trkpt>
      <trkpt lat="41.053900" lon="-6.743390">
        <ele>613.023</ele>
        <time>2015-03-29T16:23:43Z</time>
      </trkpt>
      <trkpt lat="41.053567" lon="-6.743682">
        <ele>612.547</ele>
        <time>2015-03-29T16:23:53Z</time>
      </trkpt>
      <trkpt lat="41.053531" lon="-6.743710">
        <ele>613.568</ele>
        <time>2015-03-29T16:23:54Z</time>
      </trkpt>
      <trkpt lat="41.053092" lon="-6.744087">
        <ele>614.934</ele>
        <time>2015-03-29T16:24:07Z</time>
      </trkpt>
      <trkpt lat="41.052625" lon="-6.744490">
        <ele>615.455</ele>
        <time>2015-03-29T16:24:21Z</time>
      </trkpt>
      <trkpt lat="41.052222" lon="-6.744830">
        <ele>616.310</ele>
        <time>2015-03-29T16:24:33Z</time>
      </trkpt>
      <trkpt lat="41.051795" lon="-6.745211">
        <ele>617.307</ele>
        <time>2015-03-29T16:24:46Z</time>
      </trkpt>
      <trkpt lat="41.051661" lon="-6.745326">
        <ele>618.342</ele>
        <time>2015-03-29T16:24:50Z</time>
      </trkpt>
      <trkpt lat="41.051555" lon="-6.745414">
        <ele>618.857</ele>
        <time>2015-03-29T16:24:53Z</time>
      </trkpt>
      <trkpt lat="41.051091" lon="-6.745828">
        <ele>620.292</ele>
        <time>2015-03-29T16:25:07Z</time>
      </trkpt>
      <trkpt lat="41.050732" lon="-6.746138">
        <ele>621.296</ele>
        <time>2015-03-29T16:25:18Z</time>
      </trkpt>
      <trkpt lat="41.050287" lon="-6.746519">
        <ele>622.674</ele>
        <time>2015-03-29T16:25:33Z</time>
      </trkpt>
      <trkpt lat="41.050126" lon="-6.746657">
        <ele>621.638</ele>
        <time>2015-03-29T16:25:43Z</time>
      </trkpt>
      <trkpt lat="41.050077" lon="-6.746691">
        <ele>625.079</ele>
        <time>2015-03-29T16:25:47Z</time>
      </trkpt>
      <trkpt lat="41.050065" lon="-6.746796">
        <ele>624.086</ele>
        <time>2015-03-29T16:25:52Z</time>
      </trkpt>
      <trkpt lat="41.050129" lon="-6.746999">
        <ele>624.560</ele>
        <time>2015-03-29T16:26:01Z</time>
      </trkpt>
      <trkpt lat="41.049997" lon="-6.747119">
        <ele>626.926</ele>
        <time>2015-03-29T16:26:10Z</time>
      </trkpt>
      <trkpt lat="41.049969" lon="-6.747137">
        <ele>627.907</ele>
        <time>2015-03-29T16:26:21Z</time>
      </trkpt>
      <trkpt lat="41.049973" lon="-6.747146">
        <ele>627.967</ele>
        <time>2015-03-29T16:26:36Z</time>
      </trkpt>
      <trkpt lat="41.049974" lon="-6.747143">
        <ele>627.932</ele>
        <time>2015-03-29T16:26:44Z</time>
      </trkpt>
      <trkpt lat="41.049971" lon="-6.747201">
        <ele>627.927</ele>
        <time>2015-03-29T16:26:48Z</time>
      </trkpt>
      <trkpt lat="41.049936" lon="-6.747263">
        <ele>628.841</ele>
        <time>2015-03-29T16:26:52Z</time>
      </trkpt>
      <trkpt lat="41.049933" lon="-6.747304">
        <ele>629.339</ele>
        <time>2015-03-29T16:26:54Z</time>
      </trkpt>
      <trkpt lat="41.049913" lon="-6.747437">
        <ele>631.263</ele>
        <time>2015-03-29T16:27:01Z</time>
      </trkpt>
      <trkpt lat="41.049916" lon="-6.747509">
        <ele>631.254</ele>
        <time>2015-03-29T16:27:05Z</time>
      </trkpt>
      <trkpt lat="41.049875" lon="-6.747630">
        <ele>632.714</ele>
        <time>2015-03-29T16:27:12Z</time>
      </trkpt>
      <trkpt lat="41.049689" lon="-6.747801">
        <ele>635.154</ele>
        <time>2015-03-29T16:27:23Z</time>
      </trkpt>
      <trkpt lat="41.049503" lon="-6.747962">
        <ele>637.009</ele>
        <time>2015-03-29T16:27:34Z</time>
      </trkpt>
      <trkpt lat="41.049340" lon="-6.748100">
        <ele>638.507</ele>
        <time>2015-03-29T16:27:44Z</time>
      </trkpt>
      <trkpt lat="41.049223" lon="-6.748177">
        <ele>639.980</ele>
        <time>2015-03-29T16:27:51Z</time>
      </trkpt>
      <trkpt lat="41.049177" lon="-6.748220">
        <ele>641.335</ele>
        <time>2015-03-29T16:27:54Z</time>
      </trkpt>
      <trkpt lat="41.049037" lon="-6.748320">
        <ele>641.820</ele>
        <time>2015-03-29T16:28:03Z</time>
      </trkpt>
      <trkpt lat="41.049013" lon="-6.748353">
        <ele>641.824</ele>
        <time>2015-03-29T16:28:05Z</time>
      </trkpt>
      <trkpt lat="41.048877" lon="-6.748458">
        <ele>643.772</ele>
        <time>2015-03-29T16:28:14Z</time>
      </trkpt>
      <trkpt lat="41.048863" lon="-6.748467">
        <ele>643.766</ele>
        <time>2015-03-29T16:28:15Z</time>
      </trkpt>
      <trkpt lat="41.048839" lon="-6.748491">
        <ele>644.287</ele>
        <time>2015-03-29T16:28:17Z</time>
      </trkpt>
      <trkpt lat="41.048781" lon="-6.748533">
        <ele>644.735</ele>
        <time>2015-03-29T16:28:21Z</time>
      </trkpt>
      <trkpt lat="41.048716" lon="-6.748553">
        <ele>645.286</ele>
        <time>2015-03-29T16:28:25Z</time>
      </trkpt>
      <trkpt lat="41.048595" lon="-6.748703">
        <ele>646.114</ele>
        <time>2015-03-29T16:28:34Z</time>
      </trkpt>
      <trkpt lat="41.048582" lon="-6.748713">
        <ele>646.107</ele>
        <time>2015-03-29T16:28:35Z</time>
      </trkpt>
      <trkpt lat="41.048417" lon="-6.748867">
        <ele>647.172</ele>
        <time>2015-03-29T16:28:46Z</time>
      </trkpt>
      <trkpt lat="41.048386" lon="-6.748889">
        <ele>647.647</ele>
        <time>2015-03-29T16:28:48Z</time>
      </trkpt>
      <trkpt lat="41.048324" lon="-6.748975">
        <ele>648.122</ele>
        <time>2015-03-29T16:28:53Z</time>
      </trkpt>
      <trkpt lat="41.048173" lon="-6.749157">
        <ele>650.076</ele>
        <time>2015-03-29T16:29:04Z</time>
      </trkpt>
      <trkpt lat="41.048042" lon="-6.749305">
        <ele>650.554</ele>
        <time>2015-03-29T16:29:13Z</time>
      </trkpt>
      <trkpt lat="41.047965" lon="-6.749441">
        <ele>651.078</ele>
        <time>2015-03-29T16:29:19Z</time>
      </trkpt>
      <trkpt lat="41.047908" lon="-6.749562">
        <ele>651.939</ele>
        <time>2015-03-29T16:29:25Z</time>
      </trkpt>
      <trkpt lat="41.047843" lon="-6.749913">
        <ele>653.491</ele>
        <time>2015-03-29T16:29:38Z</time>
      </trkpt>
      <trkpt lat="41.047759" lon="-6.750213">
        <ele>654.881</ele>
        <time>2015-03-29T16:29:49Z</time>
      </trkpt>
      <trkpt lat="41.047692" lon="-6.750472">
        <ele>656.219</ele>
        <time>2015-03-29T16:29:59Z</time>
      </trkpt>
      <trkpt lat="41.047657" lon="-6.750721">
        <ele>657.707</ele>
        <time>2015-03-29T16:30:09Z</time>
      </trkpt>
      <trkpt lat="41.047641" lon="-6.750822">
        <ele>658.258</ele>
        <time>2015-03-29T16:30:13Z</time>
      </trkpt>
      <trkpt lat="41.047634" lon="-6.750926">
        <ele>658.223</ele>
        <time>2015-03-29T16:30:17Z</time>
      </trkpt>
      <trkpt lat="41.047637" lon="-6.751178">
        <ele>659.658</ele>
        <time>2015-03-29T16:30:26Z</time>
      </trkpt>
      <trkpt lat="41.047635" lon="-6.751526">
        <ele>661.032</ele>
        <time>2015-03-29T16:30:38Z</time>
      </trkpt>
      <trkpt lat="41.047592" lon="-6.751801">
        <ele>663.010</ele>
        <time>2015-03-29T16:30:48Z</time>
      </trkpt>
      <trkpt lat="41.047550" lon="-6.752027">
        <ele>663.984</ele>
        <time>2015-03-29T16:30:57Z</time>
      </trkpt>
      <trkpt lat="41.047509" lon="-6.752308">
        <ele>665.995</ele>
        <time>2015-03-29T16:31:09Z</time>
      </trkpt>
      <trkpt lat="41.047582" lon="-6.752436">
        <ele>666.323</ele>
        <time>2015-03-29T16:31:16Z</time>
      </trkpt>
      <trkpt lat="41.047611" lon="-6.752539">
        <ele>666.883</ele>
        <time>2015-03-29T16:31:21Z</time>
      </trkpt>
      <trkpt lat="41.047571" lon="-6.752663">
        <ele>666.811</ele>
        <time>2015-03-29T16:31:27Z</time>
      </trkpt>
      <trkpt lat="41.047587" lon="-6.752764">
        <ele>666.807</ele>
        <time>2015-03-29T16:31:37Z</time>
      </trkpt>
      <trkpt lat="41.047590" lon="-6.752787">
        <ele>666.851</ele>
        <time>2015-03-29T16:31:57Z</time>
      </trkpt>
      <trkpt lat="41.047588" lon="-6.752796">
        <ele>666.866</ele>
        <time>2015-03-29T16:31:58Z</time>
      </trkpt>
      <trkpt lat="41.047569" lon="-6.752849">
        <ele>666.881</ele>
        <time>2015-03-29T16:32:06Z</time>
      </trkpt>
      <trkpt lat="41.047564" lon="-6.752864">
        <ele>667.895</ele>
        <time>2015-03-29T16:32:09Z</time>
      </trkpt>
      <trkpt lat="41.047554" lon="-6.752851">
        <ele>668.373</ele>
        <time>2015-03-29T16:32:11Z</time>
      </trkpt>
      <trkpt lat="41.047504" lon="-6.752825">
        <ele>667.367</ele>
        <time>2015-03-29T16:32:15Z</time>
      </trkpt>
      <trkpt lat="41.047499" lon="-6.752802">
        <ele>666.828</ele>
        <time>2015-03-29T16:32:17Z</time>
      </trkpt>
      <trkpt lat="41.047542" lon="-6.752741">
        <ele>666.885</ele>
        <time>2015-03-29T16:32:26Z</time>
      </trkpt>
      <trkpt lat="41.047558" lon="-6.752757">
        <ele>666.889</ele>
        <time>2015-03-29T16:32:37Z</time>
      </trkpt>
      <trkpt lat="41.047560" lon="-6.752750">
        <ele>667.317</ele>
        <time>2015-03-29T16:32:57Z</time>
      </trkpt>
      <trkpt lat="41.047563" lon="-6.752753">
        <ele>666.307</ele>
        <time>2015-03-29T16:33:16Z</time>
      </trkpt>
      <trkpt lat="41.047559" lon="-6.752761">
        <ele>666.317</ele>
        <time>2015-03-29T16:33:34Z</time>
      </trkpt>
      <trkpt lat="41.047565" lon="-6.752765">
        <ele>667.332</ele>
        <time>2015-03-29T16:33:55Z</time>
      </trkpt>
      <trkpt lat="41.047587" lon="-6.752763">
        <ele>666.317</ele>
        <time>2015-03-29T16:34:18Z</time>
      </trkpt>
      <trkpt lat="41.047590" lon="-6.752757">
        <ele>666.391</ele>
        <time>2015-03-29T16:34:39Z</time>
      </trkpt>
      <trkpt lat="41.047587" lon="-6.752755">
        <ele>665.499</ele>
        <time>2015-03-29T16:34:52Z</time>
      </trkpt>
      <trkpt lat="41.047585" lon="-6.752752">
        <ele>665.483</ele>
        <time>2015-03-29T16:35:03Z</time>
      </trkpt>
      <trkpt lat="41.047593" lon="-6.752743">
        <ele>665.444</ele>
        <time>2015-03-29T16:35:24Z</time>
      </trkpt>
      <trkpt lat="41.047595" lon="-6.752743">
        <ele>665.923</ele>
        <time>2015-03-29T16:35:44Z</time>
      </trkpt>
      <trkpt lat="41.047602" lon="-6.752746">
        <ele>665.483</ele>
        <time>2015-03-29T16:36:03Z</time>
      </trkpt>
      <trkpt lat="41.047587" lon="-6.752736">
        <ele>665.411</ele>
        <time>2015-03-29T16:36:25Z</time>
      </trkpt>
      <trkpt lat="41.047587" lon="-6.752737">
        <ele>665.407</ele>
        <time>2015-03-29T16:36:43Z</time>
      </trkpt>
      <trkpt lat="41.047585" lon="-6.752741">
        <ele>664.941</ele>
        <time>2015-03-29T16:36:51Z</time>
      </trkpt>
      <trkpt lat="41.047582" lon="-6.752739">
        <ele>665.416</ele>
        <time>2015-03-29T16:37:01Z</time>
      </trkpt>
      <trkpt lat="41.047583" lon="-6.752739">
        <ele>664.951</ele>
        <time>2015-03-29T16:37:29Z</time>
      </trkpt>
      <trkpt lat="41.047578" lon="-6.752738">
        <ele>665.415</ele>
        <time>2015-03-29T16:37:46Z</time>
      </trkpt>
      <trkpt lat="41.047572" lon="-6.752739">
        <ele>665.473</ele>
        <time>2015-03-29T16:38:07Z</time>
      </trkpt>
      <trkpt lat="41.047572" lon="-6.752736">
        <ele>664.927</ele>
        <time>2015-03-29T16:38:29Z</time>
      </trkpt>
      <trkpt lat="41.047568" lon="-6.752734">
        <ele>665.458</ele>
        <time>2015-03-29T16:38:41Z</time>
      </trkpt>
      <trkpt lat="41.047562" lon="-6.752746">
        <ele>664.924</ele>
        <time>2015-03-29T16:39:03Z</time>
      </trkpt>
      <trkpt lat="41.047561" lon="-6.752754">
        <ele>664.904</ele>
        <time>2015-03-29T16:39:04Z</time>
      </trkpt>
      <trkpt lat="41.047561" lon="-6.752829">
        <ele>664.914</ele>
        <time>2015-03-29T16:39:09Z</time>
      </trkpt>
      <trkpt lat="41.047504" lon="-6.752986">
        <ele>665.907</ele>
        <time>2015-03-29T16:39:20Z</time>
      </trkpt>
      <trkpt lat="41.047482" lon="-6.753039">
        <ele>664.941</ele>
        <time>2015-03-29T16:39:24Z</time>
      </trkpt>
      <trkpt lat="41.047455" lon="-6.753116">
        <ele>664.956</ele>
        <time>2015-03-29T16:39:29Z</time>
      </trkpt>
      <trkpt lat="41.047460" lon="-6.753201">
        <ele>664.971</ele>
        <time>2015-03-29T16:39:33Z</time>
      </trkpt>
      <trkpt lat="41.047634" lon="-6.753338">
        <ele>661.515</ele>
        <time>2015-03-29T16:39:42Z</time>
      </trkpt>
      <trkpt lat="41.047731" lon="-6.753445">
        <ele>659.643</ele>
        <time>2015-03-29T16:39:49Z</time>
      </trkpt>
      <trkpt lat="41.047836" lon="-6.753448">
        <ele>657.747</ele>
        <time>2015-03-29T16:39:58Z</time>
      </trkpt>
      <trkpt lat="41.047882" lon="-6.753429">
        <ele>657.298</ele>
        <time>2015-03-29T16:40:07Z</time>
      </trkpt>
      <trkpt lat="41.047879" lon="-6.753427">
        <ele>657.789</ele>
        <time>2015-03-29T16:40:16Z</time>
      </trkpt>
      <trkpt lat="41.047881" lon="-6.753427">
        <ele>657.206</ele>
        <time>2015-03-29T16:40:29Z</time>
      </trkpt>
      <trkpt lat="41.047880" lon="-6.753428">
        <ele>656.226</ele>
        <time>2015-03-29T16:40:46Z</time>
      </trkpt>
      <trkpt lat="41.047863" lon="-6.753387">
        <ele>652.907</ele>
        <time>2015-03-29T17:18:24Z</time>
      </trkpt>
      <trkpt lat="41.047869" lon="-6.753378">
        <ele>652.467</ele>
        <time>2015-03-29T17:18:25Z</time>
      </trkpt>
      <trkpt lat="41.047848" lon="-6.753483">
        <ele>654.362</ele>
        <time>2015-03-29T17:18:40Z</time>
      </trkpt>
      <trkpt lat="41.047847" lon="-6.753488">
        <ele>656.727</ele>
        <time>2015-03-29T17:18:46Z</time>
      </trkpt>
      <trkpt lat="41.047854" lon="-6.753511">
        <ele>657.211</ele>
        <time>2015-03-29T17:18:50Z</time>
      </trkpt>
      <trkpt lat="41.047864" lon="-6.753824">
        <ele>656.229</ele>
        <time>2015-03-29T17:19:00Z</time>
      </trkpt>
      <trkpt lat="41.047817" lon="-6.754134">
        <ele>654.373</ele>
        <time>2015-03-29T17:19:08Z</time>
      </trkpt>
      <trkpt lat="41.047814" lon="-6.754175">
        <ele>654.374</ele>
        <time>2015-03-29T17:19:09Z</time>
      </trkpt>
      <trkpt lat="41.047821" lon="-6.754253">
        <ele>653.428</ele>
        <time>2015-03-29T17:19:11Z</time>
      </trkpt>
      <trkpt lat="41.047835" lon="-6.754555">
        <ele>650.589</ele>
        <time>2015-03-29T17:19:18Z</time>
      </trkpt>
      <trkpt lat="41.047835" lon="-6.754734">
        <ele>646.117</ele>
        <time>2015-03-29T17:19:23Z</time>
      </trkpt>
      <trkpt lat="41.047829" lon="-6.754757">
        <ele>650.507</ele>
        <time>2015-03-29T17:19:24Z</time>
      </trkpt>
      <trkpt lat="41.047787" lon="-6.754887">
        <ele>647.661</ele>
        <time>2015-03-29T17:19:33Z</time>
      </trkpt>
      <trkpt lat="41.047754" lon="-6.754890">
        <ele>647.696</ele>
        <time>2015-03-29T17:19:55Z</time>
      </trkpt>
      <trkpt lat="41.047781" lon="-6.754897">
        <ele>647.631</ele>
        <time>2015-03-29T17:20:17Z</time>
      </trkpt>
      <trkpt lat="41.047782" lon="-6.754915">
        <ele>647.665</ele>
        <time>2015-03-29T17:20:33Z</time>
      </trkpt>
      <trkpt lat="41.047719" lon="-6.755024">
        <ele>646.163</ele>
        <time>2015-03-29T17:20:39Z</time>
      </trkpt>
      <trkpt lat="41.047535" lon="-6.755296">
        <ele>642.847</ele>
        <time>2015-03-29T17:20:48Z</time>
      </trkpt>
      <trkpt lat="41.047415" lon="-6.755467">
        <ele>639.438</ele>
        <time>2015-03-29T17:20:53Z</time>
      </trkpt>
      <trkpt lat="41.047279" lon="-6.755707">
        <ele>636.111</ele>
        <time>2015-03-29T17:21:00Z</time>
      </trkpt>
      <trkpt lat="41.047111" lon="-6.755988">
        <ele>632.721</ele>
        <time>2015-03-29T17:21:05Z</time>
      </trkpt>
      <trkpt lat="41.046958" lon="-6.756265">
        <ele>629.303</ele>
        <time>2015-03-29T17:21:10Z</time>
      </trkpt>
      <trkpt lat="41.046900" lon="-6.756357">
        <ele>628.407</ele>
        <time>2015-03-29T17:21:12Z</time>
      </trkpt>
      <trkpt lat="41.046806" lon="-6.756515">
        <ele>626.050</ele>
        <time>2015-03-29T17:21:16Z</time>
      </trkpt>
      <trkpt lat="41.046591" lon="-6.756654">
        <ele>624.525</ele>
        <time>2015-03-29T17:21:25Z</time>
      </trkpt>
      <trkpt lat="41.046575" lon="-6.756655">
        <ele>624.520</ele>
        <time>2015-03-29T17:21:26Z</time>
      </trkpt>
      <trkpt lat="41.046488" lon="-6.756671">
        <ele>625.014</ele>
        <time>2015-03-29T17:21:32Z</time>
      </trkpt>
      <trkpt lat="41.046373" lon="-6.756734">
        <ele>625.042</ele>
        <time>2015-03-29T17:21:39Z</time>
      </trkpt>
      <trkpt lat="41.046339" lon="-6.756767">
        <ele>625.046</ele>
        <time>2015-03-29T17:21:41Z</time>
      </trkpt>
      <trkpt lat="41.046116" lon="-6.757094">
        <ele>623.187</ele>
        <time>2015-03-29T17:21:52Z</time>
      </trkpt>
      <trkpt lat="41.046003" lon="-6.757382">
        <ele>619.777</ele>
        <time>2015-03-29T17:22:00Z</time>
      </trkpt>
      <trkpt lat="41.045860" lon="-6.757632">
        <ele>616.361</ele>
        <time>2015-03-29T17:22:07Z</time>
      </trkpt>
      <trkpt lat="41.045611" lon="-6.757902">
        <ele>613.527</ele>
        <time>2015-03-29T17:22:16Z</time>
      </trkpt>
      <trkpt lat="41.045422" lon="-6.758192">
        <ele>612.007</ele>
        <time>2015-03-29T17:22:23Z</time>
      </trkpt>
      <trkpt lat="41.045161" lon="-6.758508">
        <ele>611.116</ele>
        <time>2015-03-29T17:22:32Z</time>
      </trkpt>
      <trkpt lat="41.045139" lon="-6.758534">
        <ele>611.551</ele>
        <time>2015-03-29T17:22:33Z</time>
      </trkpt>
      <trkpt lat="41.045051" lon="-6.758731">
        <ele>610.176</ele>
        <time>2015-03-29T17:22:37Z</time>
      </trkpt>
      <trkpt lat="41.044952" lon="-6.758943">
        <ele>610.180</ele>
        <time>2015-03-29T17:22:41Z</time>
      </trkpt>
      <trkpt lat="41.044905" lon="-6.759051">
        <ele>609.638</ele>
        <time>2015-03-29T17:22:43Z</time>
      </trkpt>
      <trkpt lat="41.044826" lon="-6.759296">
        <ele>608.712</ele>
        <time>2015-03-29T17:22:47Z</time>
      </trkpt>
      <trkpt lat="41.044808" lon="-6.759480">
        <ele>607.743</ele>
        <time>2015-03-29T17:22:50Z</time>
      </trkpt>
      <trkpt lat="41.044766" lon="-6.759833">
        <ele>606.716</ele>
        <time>2015-03-29T17:22:58Z</time>
      </trkpt>
      <trkpt lat="41.044722" lon="-6.760129">
        <ele>607.776</ele>
        <time>2015-03-29T17:23:06Z</time>
      </trkpt>
      <trkpt lat="41.044688" lon="-6.760508">
        <ele>609.113</ele>
        <time>2015-03-29T17:23:19Z</time>
      </trkpt>
      <trkpt lat="41.044635" lon="-6.760863">
        <ele>610.607</ele>
        <time>2015-03-29T17:23:31Z</time>
      </trkpt>
      <trkpt lat="41.044514" lon="-6.761249">
        <ele>612.530</ele>
        <time>2015-03-29T17:23:45Z</time>
      </trkpt>
      <trkpt lat="41.044353" lon="-6.761522">
        <ele>614.425</ele>
        <time>2015-03-29T17:23:57Z</time>
      </trkpt>
      <trkpt lat="41.044253" lon="-6.761790">
        <ele>615.430</ele>
        <time>2015-03-29T17:24:07Z</time>
      </trkpt>
      <trkpt lat="41.044216" lon="-6.761900">
        <ele>615.994</ele>
        <time>2015-03-29T17:24:11Z</time>
      </trkpt>
      <trkpt lat="41.044171" lon="-6.762017">
        <ele>615.982</ele>
        <time>2015-03-29T17:24:16Z</time>
      </trkpt>
      <trkpt lat="41.044133" lon="-6.762091">
        <ele>619.266</ele>
        <time>2015-03-29T17:24:24Z</time>
      </trkpt>
      <trkpt lat="41.044135" lon="-6.762087">
        <ele>616.367</ele>
        <time>2015-03-29T17:24:28Z</time>
      </trkpt>
      <trkpt lat="41.044138" lon="-6.762088">
        <ele>616.323</ele>
        <time>2015-03-29T17:24:45Z</time>
      </trkpt>
      <trkpt lat="41.044125" lon="-6.762115">
        <ele>616.383</ele>
        <time>2015-03-29T17:25:02Z</time>
      </trkpt>
      <trkpt lat="41.044116" lon="-6.762099">
        <ele>616.311</ele>
        <time>2015-03-29T17:25:05Z</time>
      </trkpt>
      <trkpt lat="41.044240" lon="-6.761847">
        <ele>615.407</ele>
        <time>2015-03-29T17:25:14Z</time>
      </trkpt>
      <trkpt lat="41.044400" lon="-6.761492">
        <ele>614.451</ele>
        <time>2015-03-29T17:25:24Z</time>
      </trkpt>
      <trkpt lat="41.044407" lon="-6.761490">
        <ele>614.446</ele>
        <time>2015-03-29T17:25:33Z</time>
      </trkpt>
      <trkpt lat="41.044408" lon="-6.761488">
        <ele>614.491</ele>
        <time>2015-03-29T17:25:38Z</time>
      </trkpt>
      <trkpt lat="41.044442" lon="-6.761380">
        <ele>613.925</ele>
        <time>2015-03-29T17:25:42Z</time>
      </trkpt>
      <trkpt lat="41.044527" lon="-6.761239">
        <ele>612.023</ele>
        <time>2015-03-29T17:25:45Z</time>
      </trkpt>
      <trkpt lat="41.044623" lon="-6.760913">
        <ele>610.677</ele>
        <time>2015-03-29T17:25:50Z</time>
      </trkpt>
      <trkpt lat="41.044732" lon="-6.760140">
        <ele>608.228</ele>
        <time>2015-03-29T17:26:01Z</time>
      </trkpt>
      <trkpt lat="41.044759" lon="-6.759953">
        <ele>606.748</ele>
        <time>2015-03-29T17:26:05Z</time>
      </trkpt>
      <trkpt lat="41.044815" lon="-6.760006">
        <ele>605.861</ele>
        <time>2015-03-29T17:26:10Z</time>
      </trkpt>
      <trkpt lat="41.044911" lon="-6.760322">
        <ele>603.417</ele>
        <time>2015-03-29T17:26:19Z</time>
      </trkpt>
      <trkpt lat="41.044982" lon="-6.760464">
        <ele>601.907</ele>
        <time>2015-03-29T17:26:22Z</time>
      </trkpt>
      <trkpt lat="41.045033" lon="-6.760555">
        <ele>601.073</ele>
        <time>2015-03-29T17:26:24Z</time>
      </trkpt>
      <trkpt lat="41.045153" lon="-6.760801">
        <ele>599.088</ele>
        <time>2015-03-29T17:26:33Z</time>
      </trkpt>
      <trkpt lat="41.045196" lon="-6.760954">
        <ele>597.123</ele>
        <time>2015-03-29T17:26:39Z</time>
      </trkpt>
      <trkpt lat="41.045267" lon="-6.761198">
        <ele>594.717</ele>
        <time>2015-03-29T17:26:49Z</time>
      </trkpt>
      <trkpt lat="41.045290" lon="-6.761253">
        <ele>594.245</ele>
        <time>2015-03-29T17:26:51Z</time>
      </trkpt>
      <trkpt lat="41.045450" lon="-6.761449">
        <ele>592.839</ele>
        <time>2015-03-29T17:26:58Z</time>
      </trkpt>
      <trkpt lat="41.045592" lon="-6.761670">
        <ele>590.980</ele>
        <time>2015-03-29T17:27:03Z</time>
      </trkpt>
      <trkpt lat="41.045653" lon="-6.761737">
        <ele>590.497</ele>
        <time>2015-03-29T17:27:10Z</time>
      </trkpt>
      <trkpt lat="41.045659" lon="-6.761735">
        <ele>590.423</ele>
        <time>2015-03-29T17:27:29Z</time>
      </trkpt>
      <trkpt lat="41.045662" lon="-6.761740">
        <ele>590.425</ele>
        <time>2015-03-29T17:27:45Z</time>
      </trkpt>
      <trkpt lat="41.045675" lon="-6.761755">
        <ele>590.407</ele>
        <time>2015-03-29T17:27:55Z</time>
      </trkpt>
      <trkpt lat="41.045650" lon="-6.761890">
        <ele>590.468</ele>
        <time>2015-03-29T17:28:02Z</time>
      </trkpt>
      <trkpt lat="41.045689" lon="-6.762170">
        <ele>591.473</ele>
        <time>2015-03-29T17:28:10Z</time>
      </trkpt>
      <trkpt lat="41.045797" lon="-6.762535">
        <ele>593.388</ele>
        <time>2015-03-29T17:28:20Z</time>
      </trkpt>
      <trkpt lat="41.045896" lon="-6.763018">
        <ele>591.832</ele>
        <time>2015-03-29T17:28:31Z</time>
      </trkpt>
      <trkpt lat="41.045935" lon="-6.763237">
        <ele>590.490</ele>
        <time>2015-03-29T17:28:35Z</time>
      </trkpt>
      <trkpt lat="41.045961" lon="-6.763414">
        <ele>589.914</ele>
        <time>2015-03-29T17:28:38Z</time>
      </trkpt>
      <trkpt lat="41.046015" lon="-6.764075">
        <ele>586.165</ele>
        <time>2015-03-29T17:28:47Z</time>
      </trkpt>
      <trkpt lat="41.045936" lon="-6.764841">
        <ele>583.212</ele>
        <time>2015-03-29T17:28:57Z</time>
      </trkpt>
      <trkpt lat="41.045925" lon="-6.764912">
        <ele>583.232</ele>
        <time>2015-03-29T17:28:58Z</time>
      </trkpt>
      <trkpt lat="41.045915" lon="-6.765125">
        <ele>581.705</ele>
        <time>2015-03-29T17:29:01Z</time>
      </trkpt>
      <trkpt lat="41.046073" lon="-6.765750">
        <ele>578.407</ele>
        <time>2015-03-29T17:29:11Z</time>
      </trkpt>
      <trkpt lat="41.046200" lon="-6.766101">
        <ele>576.970</ele>
        <time>2015-03-29T17:29:17Z</time>
      </trkpt>
      <trkpt lat="41.046222" lon="-6.766448">
        <ele>573.685</ele>
        <time>2015-03-29T17:29:24Z</time>
      </trkpt>
      <trkpt lat="41.046213" lon="-6.766487">
        <ele>579.830</ele>
        <time>2015-03-29T17:29:25Z</time>
      </trkpt>
      <trkpt lat="41.046207" lon="-6.766527">
        <ele>575.064</ele>
        <time>2015-03-29T17:29:26Z</time>
      </trkpt>
      <trkpt lat="41.046169" lon="-6.766739">
        <ele>573.142</ele>
        <time>2015-03-29T17:29:30Z</time>
      </trkpt>
      <trkpt lat="41.046169" lon="-6.767004">
        <ele>571.246</ele>
        <time>2015-03-29T17:29:34Z</time>
      </trkpt>
      <trkpt lat="41.046195" lon="-6.767270">
        <ele>569.227</ele>
        <time>2015-03-29T17:29:38Z</time>
      </trkpt>
      <trkpt lat="41.046245" lon="-6.767456">
        <ele>567.866</ele>
        <time>2015-03-29T17:29:41Z</time>
      </trkpt>
      <trkpt lat="41.046341" lon="-6.767793">
        <ele>564.929</ele>
        <time>2015-03-29T17:29:47Z</time>
      </trkpt>
      <trkpt lat="41.046367" lon="-6.768142">
        <ele>562.521</ele>
        <time>2015-03-29T17:29:52Z</time>
      </trkpt>
      <trkpt lat="41.046461" lon="-6.768464">
        <ele>562.007</ele>
        <time>2015-03-29T17:29:57Z</time>
      </trkpt>
      <trkpt lat="41.046604" lon="-6.768596">
        <ele>559.685</ele>
        <time>2015-03-29T17:30:00Z</time>
      </trkpt>
      <trkpt lat="41.046955" lon="-6.768800">
        <ele>559.160</ele>
        <time>2015-03-29T17:30:06Z</time>
      </trkpt>
      <trkpt lat="41.047014" lon="-6.768835">
        <ele>559.125</ele>
        <time>2015-03-29T17:30:07Z</time>
      </trkpt>
      <trkpt lat="41.047263" lon="-6.768999">
        <ele>559.139</ele>
        <time>2015-03-29T17:30:12Z</time>
      </trkpt>
      <trkpt lat="41.047629" lon="-6.769097">
        <ele>561.167</ele>
        <time>2015-03-29T17:30:22Z</time>
      </trkpt>
      <trkpt lat="41.047908" lon="-6.769234">
        <ele>560.651</ele>
        <time>2015-03-29T17:30:31Z</time>
      </trkpt>
      <trkpt lat="41.048223" lon="-6.769512">
        <ele>558.242</ele>
        <time>2015-03-29T17:30:41Z</time>
      </trkpt>
      <trkpt lat="41.048419" lon="-6.769789">
        <ele>555.827</ele>
        <time>2015-03-29T17:30:48Z</time>
      </trkpt>
      <trkpt lat="41.048501" lon="-6.770237">
        <ele>556.368</ele>
        <time>2015-03-29T17:30:56Z</time>
      </trkpt>
      <trkpt lat="41.048472" lon="-6.770655">
        <ele>557.214</ele>
        <time>2015-03-29T17:31:06Z</time>
      </trkpt>
      <trkpt lat="41.048422" lon="-6.770963">
        <ele>555.307</ele>
        <time>2015-03-29T17:31:14Z</time>
      </trkpt>
      <trkpt lat="41.048345" lon="-6.771261">
        <ele>552.981</ele>
        <time>2015-03-29T17:31:25Z</time>
      </trkpt>
      <trkpt lat="41.048295" lon="-6.771450">
        <ele>550.536</ele>
        <time>2015-03-29T17:31:33Z</time>
      </trkpt>
      <trkpt lat="41.048269" lon="-6.771540">
        <ele>549.551</ele>
        <time>2015-03-29T17:31:38Z</time>
      </trkpt>
      <trkpt lat="41.048269" lon="-6.771611">
        <ele>548.625</ele>
        <time>2015-03-29T17:31:46Z</time>
      </trkpt>
      <trkpt lat="41.048246" lon="-6.771684">
        <ele>547.143</ele>
        <time>2015-03-29T17:31:56Z</time>
      </trkpt>
      <trkpt lat="41.048242" lon="-6.771708">
        <ele>546.777</ele>
        <time>2015-03-29T17:32:05Z</time>
      </trkpt>
      <trkpt lat="41.048242" lon="-6.771708">
        <ele>546.748</ele>
        <time>2015-03-29T17:32:06Z</time>
      </trkpt>
      <trkpt lat="41.048235" lon="-6.771746">
        <ele>546.287</ele>
        <time>2015-03-29T17:32:17Z</time>
      </trkpt>
      <trkpt lat="41.048220" lon="-6.771778">
        <ele>545.742</ele>
        <time>2015-03-29T17:32:20Z</time>
      </trkpt>
      <trkpt lat="41.048135" lon="-6.772075">
        <ele>541.826</ele>
        <time>2015-03-29T17:32:27Z</time>
      </trkpt>
      <trkpt lat="41.048059" lon="-6.772309">
        <ele>539.007</ele>
        <time>2015-03-29T17:32:32Z</time>
      </trkpt>
      <trkpt lat="41.048010" lon="-6.772682">
        <ele>534.287</ele>
        <time>2015-03-29T17:32:38Z</time>
      </trkpt>
      <trkpt lat="41.048020" lon="-6.772776">
        <ele>533.242</ele>
        <time>2015-03-29T17:32:39Z</time>
      </trkpt>
      <trkpt lat="41.048104" lon="-6.773383">
        <ele>527.997</ele>
        <time>2015-03-29T17:32:46Z</time>
      </trkpt>
      <trkpt lat="41.048123" lon="-6.773526">
        <ele>526.971</ele>
        <time>2015-03-29T17:32:48Z</time>
      </trkpt>
      <trkpt lat="41.048155" lon="-6.773800">
        <ele>525.579</ele>
        <time>2015-03-29T17:32:52Z</time>
      </trkpt>
      <trkpt lat="41.048178" lon="-6.774082">
        <ele>523.193</ele>
        <time>2015-03-29T17:32:56Z</time>
      </trkpt>
      <trkpt lat="41.048050" lon="-6.774388">
        <ele>519.314</ele>
        <time>2015-03-29T17:33:02Z</time>
      </trkpt>
      <trkpt lat="41.047927" lon="-6.774456">
        <ele>515.973</ele>
        <time>2015-03-29T17:33:05Z</time>
      </trkpt>
      <trkpt lat="41.047882" lon="-6.774476">
        <ele>514.985</ele>
        <time>2015-03-29T17:33:06Z</time>
      </trkpt>
      <trkpt lat="41.047681" lon="-6.774534">
        <ele>512.013</ele>
        <time>2015-03-29T17:33:10Z</time>
      </trkpt>
      <trkpt lat="41.047526" lon="-6.774756">
        <ele>509.607</ele>
        <time>2015-03-29T17:33:15Z</time>
      </trkpt>
      <trkpt lat="41.047607" lon="-6.774943">
        <ele>508.296</ele>
        <time>2015-03-29T17:33:18Z</time>
      </trkpt>
      <trkpt lat="41.047679" lon="-6.775137">
        <ele>506.861</ele>
        <time>2015-03-29T17:33:21Z</time>
      </trkpt>
      <trkpt lat="41.047762" lon="-6.775376">
        <ele>503.466</ele>
        <time>2015-03-29T17:33:25Z</time>
      </trkpt>
      <trkpt lat="41.047815" lon="-6.775544">
        <ele>500.050</ele>
        <time>2015-03-29T17:33:28Z</time>
      </trkpt>
      <trkpt lat="41.047882" lon="-6.775743">
        <ele>496.788</ele>
        <time>2015-03-29T17:33:32Z</time>
      </trkpt>
      <trkpt lat="41.047915" lon="-6.775966">
        <ele>493.342</ele>
        <time>2015-03-29T17:33:36Z</time>
      </trkpt>
      <trkpt lat="41.047856" lon="-6.776265">
        <ele>489.563</ele>
        <time>2015-03-29T17:33:41Z</time>
      </trkpt>
      <trkpt lat="41.047838" lon="-6.776325">
        <ele>489.514</ele>
        <time>2015-03-29T17:33:42Z</time>
      </trkpt>
      <trkpt lat="41.047807" lon="-6.776667">
        <ele>487.154</ele>
        <time>2015-03-29T17:33:48Z</time>
      </trkpt>
      <trkpt lat="41.047836" lon="-6.776833">
        <ele>485.109</ele>
        <time>2015-03-29T17:33:51Z</time>
      </trkpt>
      <trkpt lat="41.047872" lon="-6.777059">
        <ele>480.807</ele>
        <time>2015-03-29T17:33:55Z</time>
      </trkpt>
      <trkpt lat="41.048070" lon="-6.777168">
        <ele>477.410</ele>
        <time>2015-03-29T17:34:00Z</time>
      </trkpt>
      <trkpt lat="41.048250" lon="-6.776963">
        <ele>478.445</ele>
        <time>2015-03-29T17:34:07Z</time>
      </trkpt>
      <trkpt lat="41.048289" lon="-6.776896">
        <ele>478.440</ele>
        <time>2015-03-29T17:34:10Z</time>
      </trkpt>
      <trkpt lat="41.048510" lon="-6.776693">
        <ele>481.344</ele>
        <time>2015-03-29T17:34:21Z</time>
      </trkpt>
      <trkpt lat="41.048657" lon="-6.776581">
        <ele>482.722</ele>
        <time>2015-03-29T17:34:28Z</time>
      </trkpt>
      <trkpt lat="41.048850" lon="-6.776466">
        <ele>483.716</ele>
        <time>2015-03-29T17:34:37Z</time>
      </trkpt>
      <trkpt lat="41.049116" lon="-6.776389">
        <ele>480.847</ele>
        <time>2015-03-29T17:34:46Z</time>
      </trkpt>
      <trkpt lat="41.049153" lon="-6.776411">
        <ele>480.357</ele>
        <time>2015-03-29T17:34:47Z</time>
      </trkpt>
      <trkpt lat="41.049269" lon="-6.776502">
        <ele>478.900</ele>
        <time>2015-03-29T17:34:50Z</time>
      </trkpt>
      <trkpt lat="41.049372" lon="-6.776559">
        <ele>477.920</ele>
        <time>2015-03-29T17:34:52Z</time>
      </trkpt>
      <trkpt lat="41.049486" lon="-6.776607">
        <ele>477.007</ele>
        <time>2015-03-29T17:34:54Z</time>
      </trkpt>
      <trkpt lat="41.049783" lon="-6.776672">
        <ele>477.464</ele>
        <time>2015-03-29T17:35:00Z</time>
      </trkpt>
      <trkpt lat="41.050245" lon="-6.776609">
        <ele>478.469</ele>
        <time>2015-03-29T17:35:11Z</time>
      </trkpt>
      <trkpt lat="41.050582" lon="-6.776513">
        <ele>480.334</ele>
        <time>2015-03-29T17:35:21Z</time>
      </trkpt>
      <trkpt lat="41.050804" lon="-6.776554">
        <ele>483.278</ele>
        <time>2015-03-29T17:35:32Z</time>
      </trkpt>
      <trkpt lat="41.050874" lon="-6.776562">
        <ele>484.296</ele>
        <time>2015-03-29T17:35:36Z</time>
      </trkpt>
      <trkpt lat="41.050990" lon="-6.776577">
        <ele>485.190</ele>
        <time>2015-03-29T17:35:43Z</time>
      </trkpt>
      <trkpt lat="41.051194" lon="-6.776556">
        <ele>487.571</ele>
        <time>2015-03-29T17:35:54Z</time>
      </trkpt>
      <trkpt lat="41.051307" lon="-6.776515">
        <ele>482.223</ele>
        <time>2015-03-29T17:36:00Z</time>
      </trkpt>
      <trkpt lat="41.051326" lon="-6.776508">
        <ele>491.483</ele>
        <time>2015-03-29T17:36:01Z</time>
      </trkpt>
      <trkpt lat="41.051570" lon="-6.776353">
        <ele>489.011</ele>
        <time>2015-03-29T17:36:12Z</time>
      </trkpt>
      <trkpt lat="41.051832" lon="-6.776110">
        <ele>488.507</ele>
        <time>2015-03-29T17:36:22Z</time>
      </trkpt>
      <trkpt lat="41.051888" lon="-6.776079">
        <ele>488.561</ele>
        <time>2015-03-29T17:36:24Z</time>
      </trkpt>
      <trkpt lat="41.051999" lon="-6.776166">
        <ele>489.066</ele>
        <time>2015-03-29T17:36:29Z</time>
      </trkpt>
      <trkpt lat="41.052149" lon="-6.776524">
        <ele>489.591</ele>
        <time>2015-03-29T17:36:41Z</time>
      </trkpt>
      <trkpt lat="41.052287" lon="-6.776959">
        <ele>486.635</ele>
        <time>2015-03-29T17:36:51Z</time>
      </trkpt>
      <trkpt lat="41.052383" lon="-6.777410">
        <ele>483.273</ele>
        <time>2015-03-29T17:37:01Z</time>
      </trkpt>
      <trkpt lat="41.052425" lon="-6.777863">
        <ele>480.327</ele>
        <time>2015-03-29T17:37:10Z</time>
      </trkpt>
      <trkpt lat="41.052512" lon="-6.778364">
        <ele>477.988</ele>
        <time>2015-03-29T17:37:20Z</time>
      </trkpt>
      <trkpt lat="41.052645" lon="-6.778814">
        <ele>476.018</ele>
        <time>2015-03-29T17:37:30Z</time>
      </trkpt>
      <trkpt lat="41.052775" lon="-6.779207">
        <ele>472.698</ele>
        <time>2015-03-29T17:37:39Z</time>
      </trkpt>
      <trkpt lat="41.052905" lon="-6.779500">
        <ele>469.717</ele>
        <time>2015-03-29T17:37:47Z</time>
      </trkpt>
      <trkpt lat="41.052948" lon="-6.779617">
        <ele>468.307</ele>
        <time>2015-03-29T17:37:50Z</time>
      </trkpt>
      <trkpt lat="41.052978" lon="-6.779874">
        <ele>467.360</ele>
        <time>2015-03-29T17:37:54Z</time>
      </trkpt>
      <trkpt lat="41.052978" lon="-6.780103">
        <ele>465.945</ele>
        <time>2015-03-29T17:37:57Z</time>
      </trkpt>
      <trkpt lat="41.052960" lon="-6.780249">
        <ele>465.990</ele>
        <time>2015-03-29T17:37:59Z</time>
      </trkpt>
      <trkpt lat="41.052774" lon="-6.780736">
        <ele>465.964</ele>
        <time>2015-03-29T17:38:08Z</time>
      </trkpt>
      <trkpt lat="41.052719" lon="-6.780936">
        <ele>464.552</ele>
        <time>2015-03-29T17:38:11Z</time>
      </trkpt>
      <trkpt lat="41.052748" lon="-6.781567">
        <ele>461.626</ele>
        <time>2015-03-29T17:38:18Z</time>
      </trkpt>
      <trkpt lat="41.052757" lon="-6.781661">
        <ele>461.687</ele>
        <time>2015-03-29T17:38:19Z</time>
      </trkpt>
      <trkpt lat="41.052623" lon="-6.782485">
        <ele>459.753</ele>
        <time>2015-03-29T17:38:29Z</time>
      </trkpt>
      <trkpt lat="41.052491" lon="-6.782884">
        <ele>456.304</ele>
        <time>2015-03-29T17:38:35Z</time>
      </trkpt>
      <trkpt lat="41.052438" lon="-6.782976">
        <ele>455.814</ele>
        <time>2015-03-29T17:38:41Z</time>
      </trkpt>
      <trkpt lat="41.052444" lon="-6.782975">
        <ele>455.807</ele>
        <time>2015-03-29T17:38:54Z</time>
      </trkpt>
      <trkpt lat="41.052430" lon="-6.783003">
        <ele>455.854</ele>
        <time>2015-03-29T17:39:02Z</time>
      </trkpt>
      <trkpt lat="41.052435" lon="-6.782996">
        <ele>455.879</ele>
        <time>2015-03-29T17:39:21Z</time>
      </trkpt>
      <trkpt lat="41.052414" lon="-6.783039">
        <ele>455.884</ele>
        <time>2015-03-29T17:39:24Z</time>
      </trkpt>
      <trkpt lat="41.052314" lon="-6.783155">
        <ele>456.838</ele>
        <time>2015-03-29T17:39:33Z</time>
      </trkpt>
      <trkpt lat="41.052211" lon="-6.783402">
        <ele>457.236</ele>
        <time>2015-03-29T17:39:43Z</time>
      </trkpt>
      <trkpt lat="41.052198" lon="-6.783451">
        <ele>457.750</ele>
        <time>2015-03-29T17:39:45Z</time>
      </trkpt>
      <trkpt lat="41.052156" lon="-6.783661">
        <ele>458.761</ele>
        <time>2015-03-29T17:39:54Z</time>
      </trkpt>
      <trkpt lat="41.052140" lon="-6.783719">
        <ele>459.263</ele>
        <time>2015-03-29T17:39:57Z</time>
      </trkpt>
      <trkpt lat="41.052140" lon="-6.783752">
        <ele>459.244</ele>
        <time>2015-03-29T17:39:59Z</time>
      </trkpt>
      <trkpt lat="41.052127" lon="-6.783822">
        <ele>460.118</ele>
        <time>2015-03-29T17:40:03Z</time>
      </trkpt>
      <trkpt lat="41.052087" lon="-6.783989">
        <ele>462.507</ele>
        <time>2015-03-29T17:40:11Z</time>
      </trkpt>
      <trkpt lat="41.052080" lon="-6.784030">
        <ele>463.095</ele>
        <time>2015-03-29T17:40:13Z</time>
      </trkpt>
      <trkpt lat="41.052082" lon="-6.784095">
        <ele>464.070</ele>
        <time>2015-03-29T17:40:23Z</time>
      </trkpt>
      <trkpt lat="41.052076" lon="-6.784105">
        <ele>464.045</ele>
        <time>2015-03-29T17:40:33Z</time>
      </trkpt>
      <trkpt lat="41.052085" lon="-6.784103">
        <ele>464.089</ele>
        <time>2015-03-29T17:40:57Z</time>
      </trkpt>
      <trkpt lat="41.052096" lon="-6.784100">
        <ele>463.537</ele>
        <time>2015-03-29T17:41:26Z</time>
      </trkpt>
      <trkpt lat="41.052092" lon="-6.784099">
        <ele>463.581</ele>
        <time>2015-03-29T17:41:55Z</time>
      </trkpt>
      <trkpt lat="41.052090" lon="-6.784097">
        <ele>463.592</ele>
        <time>2015-03-29T17:42:21Z</time>
      </trkpt>
      <trkpt lat="41.052085" lon="-6.784093">
        <ele>463.516</ele>
        <time>2015-03-29T17:42:46Z</time>
      </trkpt>
      <trkpt lat="41.052083" lon="-6.784092">
        <ele>463.076</ele>
        <time>2015-03-29T17:43:05Z</time>
      </trkpt>
      <trkpt lat="41.052074" lon="-6.784095">
        <ele>463.013</ele>
        <time>2015-03-29T17:43:32Z</time>
      </trkpt>
      <trkpt lat="41.052079" lon="-6.784102">
        <ele>463.007</ele>
        <time>2015-03-29T17:43:59Z</time>
      </trkpt>
      <trkpt lat="41.052079" lon="-6.784108">
        <ele>463.040</ele>
        <time>2015-03-29T17:44:19Z</time>
      </trkpt>
      <trkpt lat="41.052082" lon="-6.784103">
        <ele>463.065</ele>
        <time>2015-03-29T17:44:44Z</time>
      </trkpt>
      <trkpt lat="41.052080" lon="-6.784109">
        <ele>462.550</ele>
        <time>2015-03-29T17:45:12Z</time>
      </trkpt>
      <trkpt lat="41.052082" lon="-6.784112">
        <ele>462.534</ele>
        <time>2015-03-29T17:45:45Z</time>
      </trkpt>
      <trkpt lat="41.052100" lon="-6.784105">
        <ele>462.582</ele>
        <time>2015-03-29T17:46:19Z</time>
      </trkpt>
      <trkpt lat="41.052104" lon="-6.784112">
        <ele>462.596</ele>
        <time>2015-03-29T17:46:46Z</time>
      </trkpt>
      <trkpt lat="41.052103" lon="-6.784116">
        <ele>462.547</ele>
        <time>2015-03-29T17:47:09Z</time>
      </trkpt>
      <trkpt lat="41.052085" lon="-6.784127">
        <ele>462.589</ele>
        <time>2015-03-29T17:47:35Z</time>
      </trkpt>
      <trkpt lat="41.052084" lon="-6.784123">
        <ele>462.106</ele>
        <time>2015-03-29T17:47:57Z</time>
      </trkpt>
      <trkpt lat="41.052077" lon="-6.784110">
        <ele>462.126</ele>
        <time>2015-03-29T17:48:25Z</time>
      </trkpt>
      <trkpt lat="41.052086" lon="-6.784091">
        <ele>461.607</ele>
        <time>2015-03-29T17:48:53Z</time>
      </trkpt>
      <trkpt lat="41.052090" lon="-6.784088">
        <ele>461.647</ele>
        <time>2015-03-29T17:49:22Z</time>
      </trkpt>
      <trkpt lat="41.052085" lon="-6.784095">
        <ele>461.642</ele>
        <time>2015-03-29T17:49:35Z</time>
      </trkpt>
      <trkpt lat="41.052060" lon="-6.784127">
        <ele>461.637</ele>
        <time>2015-03-29T17:49:38Z</time>
      </trkpt>
      <trkpt lat="41.051974" lon="-6.784398">
        <ele>462.111</ele>
        <time>2015-03-29T17:49:49Z</time>
      </trkpt>
      <trkpt lat="41.051918" lon="-6.784742">
        <ele>462.549</ele>
        <time>2015-03-29T17:50:01Z</time>
      </trkpt>
      <trkpt lat="41.051904" lon="-6.785052">
        <ele>463.563</ele>
        <time>2015-03-29T17:50:11Z</time>
      </trkpt>
      <trkpt lat="41.051826" lon="-6.785473">
        <ele>464.034</ele>
        <time>2015-03-29T17:50:23Z</time>
      </trkpt>
      <trkpt lat="41.051709" lon="-6.785881">
        <ele>464.957</ele>
        <time>2015-03-29T17:50:36Z</time>
      </trkpt>
      <trkpt lat="41.051604" lon="-6.786140">
        <ele>465.900</ele>
        <time>2015-03-29T17:50:45Z</time>
      </trkpt>
      <trkpt lat="41.051455" lon="-6.786483">
        <ele>464.520</ele>
        <time>2015-03-29T17:50:56Z</time>
      </trkpt>
      <trkpt lat="41.051262" lon="-6.786668">
        <ele>461.607</ele>
        <time>2015-03-29T17:51:05Z</time>
      </trkpt>
      <trkpt lat="41.051122" lon="-6.786754">
        <ele>458.754</ele>
        <time>2015-03-29T17:51:11Z</time>
      </trkpt>
      <trkpt lat="41.051015" lon="-6.786891">
        <ele>455.349</ele>
        <time>2015-03-29T17:51:17Z</time>
      </trkpt>
      <trkpt lat="41.050910" lon="-6.787028">
        <ele>451.574</ele>
        <time>2015-03-29T17:51:22Z</time>
      </trkpt>
      <trkpt lat="41.050800" lon="-6.787183">
        <ele>447.658</ele>
        <time>2015-03-29T17:51:28Z</time>
      </trkpt>
      <trkpt lat="41.050667" lon="-6.787313">
        <ele>444.336</ele>
        <time>2015-03-29T17:51:33Z</time>
      </trkpt>
      <trkpt lat="41.050500" lon="-6.787400">
        <ele>440.410</ele>
        <time>2015-03-29T17:51:38Z</time>
      </trkpt>
      <trkpt lat="41.050375" lon="-6.787424">
        <ele>437.561</ele>
        <time>2015-03-29T17:51:42Z</time>
      </trkpt>
      <trkpt lat="41.050198" lon="-6.787458">
        <ele>434.215</ele>
        <time>2015-03-29T17:51:47Z</time>
      </trkpt>
      <trkpt lat="41.050077" lon="-6.787509">
        <ele>432.365</ele>
        <time>2015-03-29T17:51:50Z</time>
      </trkpt>
      <trkpt lat="41.049719" lon="-6.787586">
        <ele>428.911</ele>
        <time>2015-03-29T17:51:57Z</time>
      </trkpt>
      <trkpt lat="41.049538" lon="-6.787603">
        <ele>428.407</ele>
        <time>2015-03-29T17:52:00Z</time>
      </trkpt>
      <trkpt lat="41.049335" lon="-6.787679">
        <ele>428.420</ele>
        <time>2015-03-29T17:52:04Z</time>
      </trkpt>
      <trkpt lat="41.049215" lon="-6.787764">
        <ele>427.935</ele>
        <time>2015-03-29T17:52:07Z</time>
      </trkpt>
      <trkpt lat="41.048879" lon="-6.787932">
        <ele>424.110</ele>
        <time>2015-03-29T17:52:16Z</time>
      </trkpt>
      <trkpt lat="41.048734" lon="-6.788035">
        <ele>421.274</ele>
        <time>2015-03-29T17:52:20Z</time>
      </trkpt>
      <trkpt lat="41.048622" lon="-6.788191">
        <ele>418.382</ele>
        <time>2015-03-29T17:52:24Z</time>
      </trkpt>
      <trkpt lat="41.048579" lon="-6.788264">
        <ele>416.976</ele>
        <time>2015-03-29T17:52:26Z</time>
      </trkpt>
      <trkpt lat="41.048448" lon="-6.788389">
        <ele>414.547</ele>
        <time>2015-03-29T17:52:30Z</time>
      </trkpt>
      <trkpt lat="41.048226" lon="-6.788556">
        <ele>412.587</ele>
        <time>2015-03-29T17:52:38Z</time>
      </trkpt>
      <trkpt lat="41.048148" lon="-6.788569">
        <ele>412.142</ele>
        <time>2015-03-29T17:52:40Z</time>
      </trkpt>
      <trkpt lat="41.048011" lon="-6.788642">
        <ele>411.126</ele>
        <time>2015-03-29T17:52:43Z</time>
      </trkpt>
      <trkpt lat="41.047796" lon="-6.788862">
        <ele>408.707</ele>
        <time>2015-03-29T17:52:48Z</time>
      </trkpt>
      <trkpt lat="41.047748" lon="-6.788905">
        <ele>408.217</ele>
        <time>2015-03-29T17:52:49Z</time>
      </trkpt>
      <trkpt lat="41.047580" lon="-6.789151">
        <ele>407.382</ele>
        <time>2015-03-29T17:52:53Z</time>
      </trkpt>
      <trkpt lat="41.047453" lon="-6.789429">
        <ele>407.727</ele>
        <time>2015-03-29T17:52:58Z</time>
      </trkpt>
      <trkpt lat="41.047340" lon="-6.789670">
        <ele>409.271</ele>
        <time>2015-03-29T17:53:06Z</time>
      </trkpt>
      <trkpt lat="41.047261" lon="-6.789978">
        <ele>410.699</ele>
        <time>2015-03-29T17:53:15Z</time>
      </trkpt>
      <trkpt lat="41.047192" lon="-6.790331">
        <ele>410.653</ele>
        <time>2015-03-29T17:53:25Z</time>
      </trkpt>
      <trkpt lat="41.047152" lon="-6.790648">
        <ele>409.764</ele>
        <time>2015-03-29T17:53:33Z</time>
      </trkpt>
      <trkpt lat="41.047106" lon="-6.790784">
        <ele>411.665</ele>
        <time>2015-03-29T17:53:40Z</time>
      </trkpt>
      <trkpt lat="41.047094" lon="-6.790891">
        <ele>412.568</ele>
        <time>2015-03-29T17:53:46Z</time>
      </trkpt>
      <trkpt lat="41.047053" lon="-6.791047">
        <ele>415.014</ele>
        <time>2015-03-29T17:53:55Z</time>
      </trkpt>
      <trkpt lat="41.047005" lon="-6.791163">
        <ele>416.907</ele>
        <time>2015-03-29T17:54:04Z</time>
      </trkpt>
      <trkpt lat="41.046968" lon="-6.791270">
        <ele>418.845</ele>
        <time>2015-03-29T17:54:13Z</time>
      </trkpt>
      <trkpt lat="41.046943" lon="-6.791344">
        <ele>420.230</ele>
        <time>2015-03-29T17:54:19Z</time>
      </trkpt>
      <trkpt lat="41.046933" lon="-6.791369">
        <ele>420.745</ele>
        <time>2015-03-29T17:54:21Z</time>
      </trkpt>
      <trkpt lat="41.046895" lon="-6.791494">
        <ele>422.289</ele>
        <time>2015-03-29T17:54:29Z</time>
      </trkpt>
      <trkpt lat="41.046888" lon="-6.791522">
        <ele>422.647</ele>
        <time>2015-03-29T17:54:31Z</time>
      </trkpt>
      <trkpt lat="41.046887" lon="-6.791585">
        <ele>423.631</ele>
        <time>2015-03-29T17:54:36Z</time>
      </trkpt>
      <trkpt lat="41.046888" lon="-6.791615">
        <ele>424.182</ele>
        <time>2015-03-29T17:54:38Z</time>
      </trkpt>
      <trkpt lat="41.046850" lon="-6.791736">
        <ele>425.082</ele>
        <time>2015-03-29T17:54:47Z</time>
      </trkpt>
      <trkpt lat="41.046845" lon="-6.791749">
        <ele>425.543</ele>
        <time>2015-03-29T17:54:48Z</time>
      </trkpt>
      <trkpt lat="41.046715" lon="-6.791824">
        <ele>426.017</ele>
        <time>2015-03-29T17:54:59Z</time>
      </trkpt>
      <trkpt lat="41.046594" lon="-6.791876">
        <ele>427.007</ele>
        <time>2015-03-29T17:55:09Z</time>
      </trkpt>
      <trkpt lat="41.046543" lon="-6.791907">
        <ele>427.077</ele>
        <time>2015-03-29T17:55:13Z</time>
      </trkpt>
      <trkpt lat="41.046518" lon="-6.791919">
        <ele>427.472</ele>
        <time>2015-03-29T17:55:15Z</time>
      </trkpt>
      <trkpt lat="41.046344" lon="-6.792097">
        <ele>424.687</ele>
        <time>2015-03-29T17:55:24Z</time>
      </trkpt>
      <trkpt lat="41.045936" lon="-6.792591">
        <ele>421.291</ele>
        <time>2015-03-29T17:55:33Z</time>
      </trkpt>
      <trkpt lat="41.045892" lon="-6.792636">
        <ele>420.769</ele>
        <time>2015-03-29T17:55:34Z</time>
      </trkpt>
      <trkpt lat="41.045553" lon="-6.792922">
        <ele>421.263</ele>
        <time>2015-03-29T17:55:43Z</time>
      </trkpt>
      <trkpt lat="41.045403" lon="-6.793026">
        <ele>423.174</ele>
        <time>2015-03-29T17:55:51Z</time>
      </trkpt>
      <trkpt lat="41.045232" lon="-6.793155">
        <ele>425.059</ele>
        <time>2015-03-29T17:56:00Z</time>
      </trkpt>
      <trkpt lat="41.045005" lon="-6.793241">
        <ele>426.503</ele>
        <time>2015-03-29T17:56:10Z</time>
      </trkpt>
      <trkpt lat="41.044869" lon="-6.793338">
        <ele>427.423</ele>
        <time>2015-03-29T17:56:18Z</time>
      </trkpt>
      <trkpt lat="41.044782" lon="-6.793472">
        <ele>428.407</ele>
        <time>2015-03-29T17:56:25Z</time>
      </trkpt>
      <trkpt lat="41.044737" lon="-6.793554">
        <ele>428.934</ele>
        <time>2015-03-29T17:56:30Z</time>
      </trkpt>
      <trkpt lat="41.044630" lon="-6.793676">
        <ele>431.379</ele>
        <time>2015-03-29T17:56:39Z</time>
      </trkpt>
      <trkpt lat="41.044532" lon="-6.793777">
        <ele>433.254</ele>
        <time>2015-03-29T17:56:47Z</time>
      </trkpt>
      <trkpt lat="41.044463" lon="-6.793909">
        <ele>434.288</ele>
        <time>2015-03-29T17:56:56Z</time>
      </trkpt>
      <trkpt lat="41.044436" lon="-6.793947">
        <ele>434.766</ele>
        <time>2015-03-29T17:57:00Z</time>
      </trkpt>
      <trkpt lat="41.044261" lon="-6.794003">
        <ele>433.780</ele>
        <time>2015-03-29T17:57:10Z</time>
      </trkpt>
      <trkpt lat="41.044113" lon="-6.794023">
        <ele>433.791</ele>
        <time>2015-03-29T17:57:19Z</time>
      </trkpt>
      <trkpt lat="41.044108" lon="-6.794025">
        <ele>433.233</ele>
        <time>2015-03-29T17:57:32Z</time>
      </trkpt>
      <trkpt lat="41.044100" lon="-6.794011">
        <ele>433.223</ele>
        <time>2015-03-29T17:57:44Z</time>
      </trkpt>
      <trkpt lat="41.044092" lon="-6.794023">
        <ele>433.715</ele>
        <time>2015-03-29T17:57:52Z</time>
      </trkpt>
      <trkpt lat="41.044086" lon="-6.794031">
        <ele>432.307</ele>
        <time>2015-03-29T17:58:05Z</time>
      </trkpt>
      <trkpt lat="41.044082" lon="-6.794041">
        <ele>433.712</ele>
        <time>2015-03-29T17:58:11Z</time>
      </trkpt>
      <trkpt lat="41.044029" lon="-6.794097">
        <ele>433.247</ele>
        <time>2015-03-29T17:58:21Z</time>
      </trkpt>
      <trkpt lat="41.044051" lon="-6.794110">
        <ele>432.732</ele>
        <time>2015-03-29T17:58:32Z</time>
      </trkpt>
      <trkpt lat="41.044052" lon="-6.794101">
        <ele>432.326</ele>
        <time>2015-03-29T17:58:42Z</time>
      </trkpt>
      <trkpt lat="41.044074" lon="-6.794111">
        <ele>432.374</ele>
        <time>2015-03-29T17:58:44Z</time>
      </trkpt>
      <trkpt lat="41.044151" lon="-6.794166">
        <ele>431.378</ele>
        <time>2015-03-29T17:58:49Z</time>
      </trkpt>
      <trkpt lat="41.044222" lon="-6.794257">
        <ele>429.949</ele>
        <time>2015-03-29T17:58:54Z</time>
      </trkpt>
      <trkpt lat="41.044304" lon="-6.794491">
        <ele>427.985</ele>
        <time>2015-03-29T17:59:02Z</time>
      </trkpt>
      <trkpt lat="41.044309" lon="-6.794559">
        <ele>428.489</ele>
        <time>2015-03-29T17:59:10Z</time>
      </trkpt>
      <trkpt lat="41.044304" lon="-6.794553">
        <ele>428.917</ele>
        <time>2015-03-29T17:59:24Z</time>
      </trkpt>
      <trkpt lat="41.044309" lon="-6.794551">
        <ele>428.907</ele>
        <time>2015-03-29T17:59:45Z</time>
      </trkpt>
      <trkpt lat="41.044309" lon="-6.794549">
        <ele>428.927</ele>
        <time>2015-03-29T18:00:06Z</time>
      </trkpt>
      <trkpt lat="41.044310" lon="-6.794537">
        <ele>428.922</ele>
        <time>2015-03-29T18:00:21Z</time>
      </trkpt>
      <trkpt lat="41.044311" lon="-6.794541">
        <ele>428.927</ele>
        <time>2015-03-29T18:00:46Z</time>
      </trkpt>
      <trkpt lat="41.044314" lon="-6.794543">
        <ele>428.971</ele>
        <time>2015-03-29T18:01:11Z</time>
      </trkpt>
      <trkpt lat="41.044303" lon="-6.794543">
        <ele>428.989</ele>
        <time>2015-03-29T18:01:29Z</time>
      </trkpt>
      <trkpt lat="41.044298" lon="-6.794638">
        <ele>427.913</ele>
        <time>2015-03-29T18:01:37Z</time>
      </trkpt>
      <trkpt lat="41.044279" lon="-6.794730">
        <ele>427.024</ele>
        <time>2015-03-29T18:01:39Z</time>
      </trkpt>
      <trkpt lat="41.044391" lon="-6.795107">
        <ele>423.673</ele>
        <time>2015-03-29T18:01:45Z</time>
      </trkpt>
      <trkpt lat="41.044474" lon="-6.795411">
        <ele>422.285</ele>
        <time>2015-03-29T18:01:50Z</time>
      </trkpt>
      <trkpt lat="41.044448" lon="-6.795525">
        <ele>420.713</ele>
        <time>2015-03-29T18:01:52Z</time>
      </trkpt>
      <trkpt lat="41.044425" lon="-6.795574">
        <ele>420.707</ele>
        <time>2015-03-29T18:01:53Z</time>
      </trkpt>
      <trkpt lat="41.044087" lon="-6.795824">
        <ele>416.916</ele>
        <time>2015-03-29T18:02:00Z</time>
      </trkpt>
      <trkpt lat="41.044040" lon="-6.796101">
        <ele>414.521</ele>
        <time>2015-03-29T18:02:04Z</time>
      </trkpt>
      <trkpt lat="41.044161" lon="-6.796232">
        <ele>413.016</ele>
        <time>2015-03-29T18:02:07Z</time>
      </trkpt>
      <trkpt lat="41.044186" lon="-6.796268">
        <ele>412.570</ele>
        <time>2015-03-29T18:02:08Z</time>
      </trkpt>
      <trkpt lat="41.044244" lon="-6.796561">
        <ele>410.698</ele>
        <time>2015-03-29T18:02:17Z</time>
      </trkpt>
      <trkpt lat="41.044240" lon="-6.796593">
        <ele>410.672</ele>
        <time>2015-03-29T18:02:21Z</time>
      </trkpt>
      <trkpt lat="41.044227" lon="-6.796649">
        <ele>409.723</ele>
        <time>2015-03-29T18:02:25Z</time>
      </trkpt>
      <trkpt lat="41.044268" lon="-6.796873">
        <ele>407.323</ele>
        <time>2015-03-29T18:02:32Z</time>
      </trkpt>
      <trkpt lat="41.044421" lon="-6.796821">
        <ele>405.883</ele>
        <time>2015-03-29T18:02:36Z</time>
      </trkpt>
      <trkpt lat="41.044477" lon="-6.796721">
        <ele>404.911</ele>
        <time>2015-03-29T18:02:38Z</time>
      </trkpt>
      <trkpt lat="41.044525" lon="-6.796628">
        <ele>404.407</ele>
        <time>2015-03-29T18:02:40Z</time>
      </trkpt>
      <trkpt lat="41.044774" lon="-6.796524">
        <ele>401.581</ele>
        <time>2015-03-29T18:02:46Z</time>
      </trkpt>
      <trkpt lat="41.045014" lon="-6.796766">
        <ele>398.636</ele>
        <time>2015-03-29T18:02:52Z</time>
      </trkpt>
      <trkpt lat="41.045121" lon="-6.797132">
        <ele>396.211</ele>
        <time>2015-03-29T18:02:57Z</time>
      </trkpt>
      <trkpt lat="41.045110" lon="-6.797356">
        <ele>394.845</ele>
        <time>2015-03-29T18:03:00Z</time>
      </trkpt>
      <trkpt lat="41.045084" lon="-6.797468">
        <ele>393.863</ele>
        <time>2015-03-29T18:03:02Z</time>
      </trkpt>
      <trkpt lat="41.044996" lon="-6.797593">
        <ele>392.837</ele>
        <time>2015-03-29T18:03:06Z</time>
      </trkpt>
      <trkpt lat="41.044775" lon="-6.797648">
        <ele>390.068</ele>
        <time>2015-03-29T18:03:16Z</time>
      </trkpt>
      <trkpt lat="41.044738" lon="-6.797647">
        <ele>390.022</ele>
        <time>2015-03-29T18:03:17Z</time>
      </trkpt>
      <trkpt lat="41.044416" lon="-6.797559">
        <ele>386.662</ele>
        <time>2015-03-29T18:03:23Z</time>
      </trkpt>
      <trkpt lat="41.044280" lon="-6.797566">
        <ele>385.608</ele>
        <time>2015-03-29T18:03:25Z</time>
      </trkpt>
      <trkpt lat="41.044009" lon="-6.797780">
        <ele>385.607</ele>
        <time>2015-03-29T18:03:30Z</time>
      </trkpt>
      <trkpt lat="41.043893" lon="-6.797804">
        <ele>385.651</ele>
        <time>2015-03-29T18:03:32Z</time>
      </trkpt>
      <trkpt lat="41.043736" lon="-6.797814">
        <ele>385.656</ele>
        <time>2015-03-29T18:03:35Z</time>
      </trkpt>
      <trkpt lat="41.043644" lon="-6.797811">
        <ele>386.121</ele>
        <time>2015-03-29T18:03:37Z</time>
      </trkpt>
      <trkpt lat="41.043481" lon="-6.797820">
        <ele>386.145</ele>
        <time>2015-03-29T18:03:41Z</time>
      </trkpt>
      <trkpt lat="41.043117" lon="-6.797822">
        <ele>386.133</ele>
        <time>2015-03-29T18:03:51Z</time>
      </trkpt>
      <trkpt lat="41.042744" lon="-6.797842">
        <ele>386.117</ele>
        <time>2015-03-29T18:04:01Z</time>
      </trkpt>
      <trkpt lat="41.042518" lon="-6.797931">
        <ele>385.698</ele>
        <time>2015-03-29T18:04:09Z</time>
      </trkpt>
      <trkpt lat="41.042507" lon="-6.797942">
        <ele>386.129</ele>
        <time>2015-03-29T18:04:16Z</time>
      </trkpt>
      <trkpt lat="41.042504" lon="-6.797933">
        <ele>386.600</ele>
        <time>2015-03-29T18:04:34Z</time>
      </trkpt>
      <trkpt lat="41.042500" lon="-6.797932">
        <ele>386.120</ele>
        <time>2015-03-29T18:04:44Z</time>
      </trkpt>
      <trkpt lat="41.042494" lon="-6.797946">
        <ele>386.107</ele>
        <time>2015-03-29T18:05:17Z</time>
      </trkpt>
      <trkpt lat="41.042519" lon="-6.797948">
        <ele>386.181</ele>
        <time>2015-03-29T18:05:49Z</time>
      </trkpt>
      <trkpt lat="41.042517" lon="-6.797935">
        <ele>387.146</ele>
        <time>2015-03-29T18:06:23Z</time>
      </trkpt>
      <trkpt lat="41.042514" lon="-6.797934">
        <ele>386.161</ele>
        <time>2015-03-29T18:06:55Z</time>
      </trkpt>
      <trkpt lat="41.042516" lon="-6.797935">
        <ele>386.125</ele>
        <time>2015-03-29T18:07:25Z</time>
      </trkpt>
      <trkpt lat="41.042518" lon="-6.797935">
        <ele>386.173</ele>
        <time>2015-03-29T18:07:57Z</time>
      </trkpt>
      <trkpt lat="41.042516" lon="-6.797937">
        <ele>386.677</ele>
        <time>2015-03-29T18:08:31Z</time>
      </trkpt>
      <trkpt lat="41.042515" lon="-6.797952">
        <ele>386.188</ele>
        <time>2015-03-29T18:09:06Z</time>
      </trkpt>
      <trkpt lat="41.042525" lon="-6.797949">
        <ele>386.134</ele>
        <time>2015-03-29T18:09:33Z</time>
      </trkpt>
      <trkpt lat="41.042510" lon="-6.797938">
        <ele>386.155</ele>
        <time>2015-03-29T18:10:02Z</time>
      </trkpt>
      <trkpt lat="41.042507" lon="-6.797933">
        <ele>385.610</ele>
        <time>2015-03-29T18:10:30Z</time>
      </trkpt>
      <trkpt lat="41.042503" lon="-6.797941">
        <ele>386.107</ele>
        <time>2015-03-29T18:11:02Z</time>
      </trkpt>
      <trkpt lat="41.042501" lon="-6.797947">
        <ele>386.142</ele>
        <time>2015-03-29T18:11:33Z</time>
      </trkpt>
      <trkpt lat="41.042522" lon="-6.797902">
        <ele>386.157</ele>
        <time>2015-03-29T18:11:41Z</time>
      </trkpt>
      <trkpt lat="41.042587" lon="-6.797869">
        <ele>386.132</ele>
        <time>2015-03-29T18:11:53Z</time>
      </trkpt>
      <trkpt lat="41.042633" lon="-6.797856">
        <ele>386.126</ele>
        <time>2015-03-29T18:12:12Z</time>
      </trkpt>
      <trkpt lat="41.042689" lon="-6.797849">
        <ele>386.164</ele>
        <time>2015-03-29T18:12:21Z</time>
      </trkpt>
      <trkpt lat="41.042677" lon="-6.797815">
        <ele>386.198</ele>
        <time>2015-03-29T18:12:31Z</time>
      </trkpt>
      <trkpt lat="41.042635" lon="-6.797819">
        <ele>386.189</ele>
        <time>2015-03-29T18:12:40Z</time>
      </trkpt>
      <trkpt lat="41.042542" lon="-6.797803">
        <ele>386.178</ele>
        <time>2015-03-29T18:12:51Z</time>
      </trkpt>
      <trkpt lat="41.042394" lon="-6.797761">
        <ele>386.133</ele>
        <time>2015-03-29T18:13:01Z</time>
      </trkpt>
      <trkpt lat="41.042164" lon="-6.797694">
        <ele>385.626</ele>
        <time>2015-03-29T18:13:10Z</time>
      </trkpt>
      <trkpt lat="41.041895" lon="-6.797619">
        <ele>385.607</ele>
        <time>2015-03-29T18:13:19Z</time>
      </trkpt>
      <trkpt lat="41.041570" lon="-6.797658">
        <ele>385.666</ele>
        <time>2015-03-29T18:13:29Z</time>
      </trkpt>
      <trkpt lat="41.041278" lon="-6.797678">
        <ele>383.781</ele>
        <time>2015-03-29T18:13:37Z</time>
      </trkpt>
      <trkpt lat="41.041066" lon="-6.797504">
        <ele>381.876</ele>
        <time>2015-03-29T18:13:43Z</time>
      </trkpt>
      <trkpt lat="41.040950" lon="-6.797423">
        <ele>380.880</ele>
        <time>2015-03-29T18:13:46Z</time>
      </trkpt>
      <trkpt lat="41.040768" lon="-6.797378">
        <ele>379.438</ele>
        <time>2015-03-29T18:13:50Z</time>
      </trkpt>
      <trkpt lat="41.040628" lon="-6.797398">
        <ele>378.972</ele>
        <time>2015-03-29T18:13:53Z</time>
      </trkpt>
      <trkpt lat="41.040340" lon="-6.797423">
        <ele>377.073</ele>
        <time>2015-03-29T18:13:59Z</time>
      </trkpt>
      <trkpt lat="41.040054" lon="-6.797414">
        <ele>375.165</ele>
        <time>2015-03-29T18:14:05Z</time>
      </trkpt>
      <trkpt lat="41.039938" lon="-6.797386">
        <ele>374.668</ele>
        <time>2015-03-29T18:14:08Z</time>
      </trkpt>
      <trkpt lat="41.039781" lon="-6.797097">
        <ele>372.214</ele>
        <time>2015-03-29T18:14:15Z</time>
      </trkpt>
      <trkpt lat="41.039688" lon="-6.796914">
        <ele>371.207</ele>
        <time>2015-03-29T18:14:19Z</time>
      </trkpt>
      <trkpt lat="41.039336" lon="-6.796768">
        <ele>368.835</ele>
        <time>2015-03-29T18:14:27Z</time>
      </trkpt>
      <trkpt lat="41.039018" lon="-6.796743">
        <ele>365.480</ele>
        <time>2015-03-29T18:14:33Z</time>
      </trkpt>
      <trkpt lat="41.038450" lon="-6.796743">
        <ele>362.675</ele>
        <time>2015-03-29T18:14:43Z</time>
      </trkpt>
      <trkpt lat="41.038232" lon="-6.796758">
        <ele>361.129</ele>
        <time>2015-03-29T18:14:47Z</time>
      </trkpt>
      <trkpt lat="41.038057" lon="-6.796774">
        <ele>359.747</ele>
        <time>2015-03-29T18:14:50Z</time>
      </trkpt>
      <trkpt lat="41.037942" lon="-6.796800">
        <ele>359.271</ele>
        <time>2015-03-29T18:14:52Z</time>
      </trkpt>
      <trkpt lat="41.037763" lon="-6.796834">
        <ele>357.882</ele>
        <time>2015-03-29T18:14:55Z</time>
      </trkpt>
      <trkpt lat="41.037590" lon="-6.796910">
        <ele>355.871</ele>
        <time>2015-03-29T18:14:58Z</time>
      </trkpt>
      <trkpt lat="41.037101" lon="-6.797201">
        <ele>352.541</ele>
        <time>2015-03-29T18:15:07Z</time>
      </trkpt>
      <trkpt lat="41.036892" lon="-6.797340">
        <ele>351.515</ele>
        <time>2015-03-29T18:15:11Z</time>
      </trkpt>
      <trkpt lat="41.036515" lon="-6.797618">
        <ele>348.607</ele>
        <time>2015-03-29T18:15:19Z</time>
      </trkpt>
      <trkpt lat="41.036381" lon="-6.797712">
        <ele>348.186</ele>
        <time>2015-03-29T18:15:22Z</time>
      </trkpt>
      <trkpt lat="41.036254" lon="-6.797775">
        <ele>347.751</ele>
        <time>2015-03-29T18:15:25Z</time>
      </trkpt>
      <trkpt lat="41.035980" lon="-6.797793">
        <ele>346.756</ele>
        <time>2015-03-29T18:15:31Z</time>
      </trkpt>
      <trkpt lat="41.035769" lon="-6.797762">
        <ele>345.780</ele>
        <time>2015-03-29T18:15:36Z</time>
      </trkpt>
      <trkpt lat="41.035588" lon="-6.797869">
        <ele>344.888</ele>
        <time>2015-03-29T18:15:42Z</time>
      </trkpt>
      <trkpt lat="41.035616" lon="-6.798150">
        <ele>343.392</ele>
        <time>2015-03-29T18:15:48Z</time>
      </trkpt>
      <trkpt lat="41.035769" lon="-6.798139">
        <ele>341.923</ele>
        <time>2015-03-29T18:15:51Z</time>
      </trkpt>
      <trkpt lat="41.036330" lon="-6.797893">
        <ele>340.054</ele>
        <time>2015-03-29T18:16:02Z</time>
      </trkpt>
      <trkpt lat="41.036526" lon="-6.797815">
        <ele>339.056</ele>
        <time>2015-03-29T18:16:06Z</time>
      </trkpt>
      <trkpt lat="41.036834" lon="-6.797695">
        <ele>336.111</ele>
        <time>2015-03-29T18:16:12Z</time>
      </trkpt>
      <trkpt lat="41.037060" lon="-6.797618">
        <ele>335.207</ele>
        <time>2015-03-29T18:16:16Z</time>
      </trkpt>
      <trkpt lat="41.037336" lon="-6.797524">
        <ele>333.254</ele>
        <time>2015-03-29T18:16:21Z</time>
      </trkpt>
      <trkpt lat="41.037441" lon="-6.797491">
        <ele>332.869</ele>
        <time>2015-03-29T18:16:23Z</time>
      </trkpt>
      <trkpt lat="41.037644" lon="-6.797424">
        <ele>330.854</ele>
        <time>2015-03-29T18:16:27Z</time>
      </trkpt>
      <trkpt lat="41.037831" lon="-6.797379">
        <ele>329.988</ele>
        <time>2015-03-29T18:16:31Z</time>
      </trkpt>
      <trkpt lat="41.038028" lon="-6.797385">
        <ele>328.416</ele>
        <time>2015-03-29T18:16:35Z</time>
      </trkpt>
      <trkpt lat="41.038248" lon="-6.797422">
        <ele>327.010</ele>
        <time>2015-03-29T18:16:40Z</time>
      </trkpt>
      <trkpt lat="41.038445" lon="-6.797576">
        <ele>325.121</ele>
        <time>2015-03-29T18:16:45Z</time>
      </trkpt>
      <trkpt lat="41.038451" lon="-6.797901">
        <ele>323.662</ele>
        <time>2015-03-29T18:16:50Z</time>
      </trkpt>
      <trkpt lat="41.038393" lon="-6.798154">
        <ele>322.283</ele>
        <time>2015-03-29T18:16:54Z</time>
      </trkpt>
      <trkpt lat="41.038480" lon="-6.798486">
        <ele>320.311</ele>
        <time>2015-03-29T18:16:59Z</time>
      </trkpt>
      <trkpt lat="41.038592" lon="-6.798651">
        <ele>317.907</ele>
        <time>2015-03-29T18:17:02Z</time>
      </trkpt>
      <trkpt lat="41.038645" lon="-6.798672">
        <ele>317.485</ele>
        <time>2015-03-29T18:17:03Z</time>
      </trkpt>
      <trkpt lat="41.038704" lon="-6.798687">
        <ele>317.480</ele>
        <time>2015-03-29T18:17:04Z</time>
      </trkpt>
      <trkpt lat="41.038767" lon="-6.798686">
        <ele>316.425</ele>
        <time>2015-03-29T18:17:05Z</time>
      </trkpt>
      <trkpt lat="41.039134" lon="-6.798622">
        <ele>313.569</ele>
        <time>2015-03-29T18:17:11Z</time>
      </trkpt>
      <trkpt lat="41.039293" lon="-6.798596">
        <ele>312.627</ele>
        <time>2015-03-29T18:17:13Z</time>
      </trkpt>
      <trkpt lat="41.039740" lon="-6.798534">
        <ele>310.621</ele>
        <time>2015-03-29T18:17:20Z</time>
      </trkpt>
      <trkpt lat="41.040074" lon="-6.798685">
        <ele>308.252</ele>
        <time>2015-03-29T18:17:26Z</time>
      </trkpt>
      <trkpt lat="41.040242" lon="-6.798709">
        <ele>306.828</ele>
        <time>2015-03-29T18:17:29Z</time>
      </trkpt>
      <trkpt lat="41.040800" lon="-6.798783">
        <ele>303.489</ele>
        <time>2015-03-29T18:17:37Z</time>
      </trkpt>
      <trkpt lat="41.040890" lon="-6.798799">
        <ele>303.417</ele>
        <time>2015-03-29T18:17:39Z</time>
      </trkpt>
      <trkpt lat="41.041070" lon="-6.798864">
        <ele>302.007</ele>
        <time>2015-03-29T18:17:42Z</time>
      </trkpt>
      <trkpt lat="41.041120" lon="-6.798895">
        <ele>302.051</ele>
        <time>2015-03-29T18:17:43Z</time>
      </trkpt>
      <trkpt lat="41.041274" lon="-6.798962">
        <ele>300.646</ele>
        <time>2015-03-29T18:17:46Z</time>
      </trkpt>
      <trkpt lat="41.041329" lon="-6.798987">
        <ele>300.641</ele>
        <time>2015-03-29T18:17:47Z</time>
      </trkpt>
      <trkpt lat="41.041381" lon="-6.799021">
        <ele>300.155</ele>
        <time>2015-03-29T18:17:48Z</time>
      </trkpt>
      <trkpt lat="41.041578" lon="-6.799120">
        <ele>298.263</ele>
        <time>2015-03-29T18:17:52Z</time>
      </trkpt>
      <trkpt lat="41.041687" lon="-6.799145">
        <ele>297.777</ele>
        <time>2015-03-29T18:17:54Z</time>
      </trkpt>
      <trkpt lat="41.041977" lon="-6.799235">
        <ele>296.258</ele>
        <time>2015-03-29T18:17:59Z</time>
      </trkpt>
      <trkpt lat="41.042043" lon="-6.799256">
        <ele>295.339</ele>
        <time>2015-03-29T18:18:00Z</time>
      </trkpt>
      <trkpt lat="41.042553" lon="-6.799565">
        <ele>291.901</ele>
        <time>2015-03-29T18:18:09Z</time>
      </trkpt>
      <trkpt lat="41.042766" lon="-6.799689">
        <ele>290.021</ele>
        <time>2015-03-29T18:18:13Z</time>
      </trkpt>
      <trkpt lat="41.042864" lon="-6.799760">
        <ele>290.007</ele>
        <time>2015-03-29T18:18:15Z</time>
      </trkpt>
      <trkpt lat="41.042904" lon="-6.799811">
        <ele>289.552</ele>
        <time>2015-03-29T18:18:16Z</time>
      </trkpt>
      <trkpt lat="41.042935" lon="-6.799864">
        <ele>289.077</ele>
        <time>2015-03-29T18:18:17Z</time>
      </trkpt>
      <trkpt lat="41.042961" lon="-6.799941">
        <ele>289.042</ele>
        <time>2015-03-29T18:18:18Z</time>
      </trkpt>
      <trkpt lat="41.043139" lon="-6.800191">
        <ele>286.626</ele>
        <time>2015-03-29T18:18:23Z</time>
      </trkpt>
      <trkpt lat="41.043222" lon="-6.800239">
        <ele>286.144</ele>
        <time>2015-03-29T18:18:25Z</time>
      </trkpt>
      <trkpt lat="41.043501" lon="-6.800363">
        <ele>284.268</ele>
        <time>2015-03-29T18:18:29Z</time>
      </trkpt>
      <trkpt lat="41.043791" lon="-6.800522">
        <ele>281.879</ele>
        <time>2015-03-29T18:18:34Z</time>
      </trkpt>
      <trkpt lat="41.044082" lon="-6.800872">
        <ele>279.472</ele>
        <time>2015-03-29T18:18:40Z</time>
      </trkpt>
      <trkpt lat="41.044217" lon="-6.801107">
        <ele>278.013</ele>
        <time>2015-03-29T18:18:44Z</time>
      </trkpt>
      <trkpt lat="41.044246" lon="-6.801162">
        <ele>278.014</ele>
        <time>2015-03-29T18:18:45Z</time>
      </trkpt>
      <trkpt lat="41.044445" lon="-6.801393">
        <ele>276.507</ele>
        <time>2015-03-29T18:18:51Z</time>
      </trkpt>
      <trkpt lat="41.044522" lon="-6.801446">
        <ele>276.536</ele>
        <time>2015-03-29T18:18:53Z</time>
      </trkpt>
      <trkpt lat="41.044830" lon="-6.801630">
        <ele>273.691</ele>
        <time>2015-03-29T18:18:59Z</time>
      </trkpt>
      <trkpt lat="41.044921" lon="-6.801686">
        <ele>272.746</ele>
        <time>2015-03-29T18:19:01Z</time>
      </trkpt>
      <trkpt lat="41.044972" lon="-6.801712">
        <ele>272.210</ele>
        <time>2015-03-29T18:19:02Z</time>
      </trkpt>
      <trkpt lat="41.045022" lon="-6.801728">
        <ele>271.718</ele>
        <time>2015-03-29T18:19:03Z</time>
      </trkpt>
      <trkpt lat="41.045080" lon="-6.801745">
        <ele>271.272</ele>
        <time>2015-03-29T18:19:04Z</time>
      </trkpt>
      <trkpt lat="41.045138" lon="-6.801760">
        <ele>270.883</ele>
        <time>2015-03-29T18:19:05Z</time>
      </trkpt>
      <trkpt lat="41.045247" lon="-6.801767">
        <ele>270.365</ele>
        <time>2015-03-29T18:19:07Z</time>
      </trkpt>
      <trkpt lat="41.045619" lon="-6.801789">
        <ele>267.468</ele>
        <time>2015-03-29T18:19:13Z</time>
      </trkpt>
      <trkpt lat="41.045736" lon="-6.801801">
        <ele>266.414</ele>
        <time>2015-03-29T18:19:15Z</time>
      </trkpt>
      <trkpt lat="41.045842" lon="-6.801828">
        <ele>265.907</ele>
        <time>2015-03-29T18:19:17Z</time>
      </trkpt>
      <trkpt lat="41.045953" lon="-6.801856">
        <ele>265.555</ele>
        <time>2015-03-29T18:19:20Z</time>
      </trkpt>
      <trkpt lat="41.046196" lon="-6.801606">
        <ele>263.570</ele>
        <time>2015-03-29T18:19:27Z</time>
      </trkpt>
      <trkpt lat="41.046387" lon="-6.801494">
        <ele>263.145</ele>
        <time>2015-03-29T18:19:34Z</time>
      </trkpt>
      <trkpt lat="41.046399" lon="-6.801477">
        <ele>263.169</ele>
        <time>2015-03-29T18:19:41Z</time>
      </trkpt>
      <trkpt lat="41.046387" lon="-6.801492">
        <ele>263.587</ele>
        <time>2015-03-29T18:19:57Z</time>
      </trkpt>
      <trkpt lat="41.046381" lon="-6.801512">
        <ele>263.511</ele>
        <time>2015-03-29T18:19:59Z</time>
      </trkpt>
      <trkpt lat="41.046417" lon="-6.801594">
        <ele>263.592</ele>
        <time>2015-03-29T18:20:08Z</time>
      </trkpt>
      <trkpt lat="41.046414" lon="-6.801604">
        <ele>263.539</ele>
        <time>2015-03-29T18:20:27Z</time>
      </trkpt>
      <trkpt lat="41.046414" lon="-6.801610">
        <ele>263.501</ele>
        <time>2015-03-29T18:20:38Z</time>
      </trkpt>
      <trkpt lat="41.046419" lon="-6.801606">
        <ele>263.521</ele>
        <time>2015-03-29T18:20:55Z</time>
      </trkpt>
      <trkpt lat="41.046419" lon="-6.801600">
        <ele>263.107</ele>
        <time>2015-03-29T18:21:14Z</time>
      </trkpt>
      <trkpt lat="41.046425" lon="-6.801596">
        <ele>263.162</ele>
        <time>2015-03-29T18:21:33Z</time>
      </trkpt>
      <trkpt lat="41.046425" lon="-6.801598">
        <ele>263.187</ele>
        <time>2015-03-29T18:21:52Z</time>
      </trkpt>
      <trkpt lat="41.046419" lon="-6.801591">
        <ele>263.192</ele>
        <time>2015-03-29T18:22:02Z</time>
      </trkpt>
      <trkpt lat="41.046410" lon="-6.801590">
        <ele>263.166</ele>
        <time>2015-03-29T18:22:14Z</time>
      </trkpt>
      <trkpt lat="41.046409" lon="-6.801581">
        <ele>263.164</ele>
        <time>2015-03-29T18:22:28Z</time>
      </trkpt>
      <trkpt lat="41.046399" lon="-6.801587">
        <ele>263.128</ele>
        <time>2015-03-29T18:22:50Z</time>
      </trkpt>
      <trkpt lat="41.046398" lon="-6.801582">
        <ele>263.179</ele>
        <time>2015-03-29T18:22:59Z</time>
      </trkpt>
      <trkpt lat="41.046376" lon="-6.801576">
        <ele>263.122</ele>
        <time>2015-03-29T18:23:01Z</time>
      </trkpt>
      <trkpt lat="41.046188" lon="-6.801643">
        <ele>263.162</ele>
        <time>2015-03-29T18:23:10Z</time>
      </trkpt>
      <trkpt lat="41.046142" lon="-6.801673">
        <ele>263.508</ele>
        <time>2015-03-29T18:23:12Z</time>
      </trkpt>
      <trkpt lat="41.045992" lon="-6.801878">
        <ele>263.107</ele>
        <time>2015-03-29T18:23:20Z</time>
      </trkpt>
      <trkpt lat="41.045954" lon="-6.802047">
        <ele>261.691</ele>
        <time>2015-03-29T18:23:23Z</time>
      </trkpt>
      <trkpt lat="41.045914" lon="-6.802495">
        <ele>257.866</ele>
        <time>2015-03-29T18:23:28Z</time>
      </trkpt>
      <trkpt lat="41.045760" lon="-6.802876">
        <ele>253.991</ele>
        <time>2015-03-29T18:23:33Z</time>
      </trkpt>
      <trkpt lat="41.045478" lon="-6.802908">
        <ele>251.035</ele>
        <time>2015-03-29T18:23:37Z</time>
      </trkpt>
      <trkpt lat="41.045281" lon="-6.802656">
        <ele>247.743</ele>
        <time>2015-03-29T18:23:40Z</time>
      </trkpt>
      <trkpt lat="41.045201" lon="-6.802340">
        <ele>244.377</ele>
        <time>2015-03-29T18:23:43Z</time>
      </trkpt>
      <trkpt lat="41.045031" lon="-6.802215">
        <ele>241.488</ele>
        <time>2015-03-29T18:23:46Z</time>
      </trkpt>
      <trkpt lat="41.044848" lon="-6.802585">
        <ele>236.198</ele>
        <time>2015-03-29T18:23:50Z</time>
      </trkpt>
      <trkpt lat="41.044769" lon="-6.802979">
        <ele>233.315</ele>
        <time>2015-03-29T18:23:53Z</time>
      </trkpt>
      <trkpt lat="41.044558" lon="-6.803305">
        <ele>228.926</ele>
        <time>2015-03-29T18:23:56Z</time>
      </trkpt>
      <trkpt lat="41.044271" lon="-6.803606">
        <ele>224.107</ele>
        <time>2015-03-29T18:23:59Z</time>
      </trkpt>
      <trkpt lat="41.044073" lon="-6.803805">
        <ele>220.858</ele>
        <time>2015-03-29T18:24:01Z</time>
      </trkpt>
      <trkpt lat="41.043878" lon="-6.803999">
        <ele>217.973</ele>
        <time>2015-03-29T18:24:03Z</time>
      </trkpt>
      <trkpt lat="41.043723" lon="-6.804187">
        <ele>215.068</ele>
        <time>2015-03-29T18:24:05Z</time>
      </trkpt>
      <trkpt lat="41.043671" lon="-6.804565">
        <ele>211.692</ele>
        <time>2015-03-29T18:24:09Z</time>
      </trkpt>
      <trkpt lat="41.043997" lon="-6.805394">
        <ele>206.810</ele>
        <time>2015-03-29T18:24:17Z</time>
      </trkpt>
      <trkpt lat="41.044051" lon="-6.805482">
        <ele>206.394</ele>
        <time>2015-03-29T18:24:18Z</time>
      </trkpt>
      <trkpt lat="41.044375" lon="-6.805720">
        <ele>204.415</ele>
        <time>2015-03-29T18:24:23Z</time>
      </trkpt>
      <trkpt lat="41.044426" lon="-6.805762">
        <ele>204.497</ele>
        <time>2015-03-29T18:24:24Z</time>
      </trkpt>
      <trkpt lat="41.044442" lon="-6.805806">
        <ele>203.923</ele>
        <time>2015-03-29T18:24:25Z</time>
      </trkpt>
      <trkpt lat="41.044310" lon="-6.805900">
        <ele>203.525</ele>
        <time>2015-03-29T18:24:30Z</time>
      </trkpt>
      <trkpt lat="41.044271" lon="-6.805876">
        <ele>203.007</ele>
        <time>2015-03-29T18:24:31Z</time>
      </trkpt>
      <trkpt lat="41.044144" lon="-6.805792">
        <ele>202.078</ele>
        <time>2015-03-29T18:24:39Z</time>
      </trkpt>
      <trkpt lat="41.043835" lon="-6.805599">
        <ele>199.693</ele>
        <time>2015-03-29T18:24:49Z</time>
      </trkpt>
      <trkpt lat="41.043619" lon="-6.805348">
        <ele>198.278</ele>
        <time>2015-03-29T18:24:57Z</time>
      </trkpt>
      <trkpt lat="41.043388" lon="-6.804780">
        <ele>194.812</ele>
        <time>2015-03-29T18:25:06Z</time>
      </trkpt>
      <trkpt lat="41.043256" lon="-6.804363">
        <ele>192.920</ele>
        <time>2015-03-29T18:25:11Z</time>
      </trkpt>
      <trkpt lat="41.043297" lon="-6.803826">
        <ele>191.464</ele>
        <time>2015-03-29T18:25:17Z</time>
      </trkpt>
      <trkpt lat="41.043403" lon="-6.803496">
        <ele>190.595</ele>
        <time>2015-03-29T18:25:23Z</time>
      </trkpt>
      <trkpt lat="41.043311" lon="-6.803459">
        <ele>190.067</ele>
        <time>2015-03-29T18:25:30Z</time>
      </trkpt>
      <trkpt lat="41.043163" lon="-6.803647">
        <ele>189.581</ele>
        <time>2015-03-29T18:25:38Z</time>
      </trkpt>
      <trkpt lat="41.043051" lon="-6.803862">
        <ele>187.619</ele>
        <time>2015-03-29T18:25:43Z</time>
      </trkpt>
      <trkpt lat="41.043002" lon="-6.803971">
        <ele>186.607</ele>
        <time>2015-03-29T18:25:45Z</time>
      </trkpt>
      <trkpt lat="41.042946" lon="-6.804139">
        <ele>184.775</ele>
        <time>2015-03-29T18:25:48Z</time>
      </trkpt>
      <trkpt lat="41.042930" lon="-6.804250">
        <ele>183.870</ele>
        <time>2015-03-29T18:25:50Z</time>
      </trkpt>
      <trkpt lat="41.042934" lon="-6.804348">
        <ele>183.355</ele>
        <time>2015-03-29T18:25:52Z</time>
      </trkpt>
      <trkpt lat="41.042966" lon="-6.804695">
        <ele>181.869</ele>
        <time>2015-03-29T18:26:01Z</time>
      </trkpt>
      <trkpt lat="41.043011" lon="-6.805098">
        <ele>180.967</ele>
        <time>2015-03-29T18:26:10Z</time>
      </trkpt>
      <trkpt lat="41.042913" lon="-6.805180">
        <ele>179.911</ele>
        <time>2015-03-29T18:26:16Z</time>
      </trkpt>
      <trkpt lat="41.042796" lon="-6.805125">
        <ele>179.482</ele>
        <time>2015-03-29T18:26:22Z</time>
      </trkpt>
      <trkpt lat="41.042783" lon="-6.805105">
        <ele>178.955</ele>
        <time>2015-03-29T18:26:24Z</time>
      </trkpt>
      <trkpt lat="41.042731" lon="-6.804986">
        <ele>178.907</ele>
        <time>2015-03-29T18:26:29Z</time>
      </trkpt>
      <trkpt lat="41.042636" lon="-6.804750">
        <ele>178.017</ele>
        <time>2015-03-29T18:26:38Z</time>
      </trkpt>
      <trkpt lat="41.042537" lon="-6.804480">
        <ele>175.607</ele>
        <time>2015-03-29T18:26:45Z</time>
      </trkpt>
      <trkpt lat="41.042359" lon="-6.804349">
        <ele>173.714</ele>
        <time>2015-03-29T18:26:51Z</time>
      </trkpt>
      <trkpt lat="41.042324" lon="-6.804337">
        <ele>173.249</ele>
        <time>2015-03-29T18:26:52Z</time>
      </trkpt>
      <trkpt lat="41.042247" lon="-6.804519">
        <ele>171.714</ele>
        <time>2015-03-29T18:26:57Z</time>
      </trkpt>
      <trkpt lat="41.042319" lon="-6.804786">
        <ele>173.258</ele>
        <time>2015-03-29T18:27:04Z</time>
      </trkpt>
      <trkpt lat="41.042390" lon="-6.804956">
        <ele>173.276</ele>
        <time>2015-03-29T18:27:12Z</time>
      </trkpt>
      <trkpt lat="41.042486" lon="-6.805214">
        <ele>173.780</ele>
        <time>2015-03-29T18:27:21Z</time>
      </trkpt>
      <trkpt lat="41.042528" lon="-6.805313">
        <ele>173.791</ele>
        <time>2015-03-29T18:27:26Z</time>
      </trkpt>
      <trkpt lat="41.042537" lon="-6.805348">
        <ele>173.792</ele>
        <time>2015-03-29T18:27:28Z</time>
      </trkpt>
      <trkpt lat="41.042577" lon="-6.805480">
        <ele>174.173</ele>
        <time>2015-03-29T18:27:35Z</time>
      </trkpt>
      <trkpt lat="41.042594" lon="-6.805537">
        <ele>174.120</ele>
        <time>2015-03-29T18:27:38Z</time>
      </trkpt>
      <trkpt lat="41.042596" lon="-6.805605">
        <ele>174.107</ele>
        <time>2015-03-29T18:27:48Z</time>
      </trkpt>
      <trkpt lat="41.042595" lon="-6.805613">
        <ele>174.128</ele>
        <time>2015-03-29T18:28:07Z</time>
      </trkpt>
      <trkpt lat="41.042599" lon="-6.805605">
        <ele>174.193</ele>
        <time>2015-03-29T18:28:34Z</time>
      </trkpt>
      <trkpt lat="41.042594" lon="-6.805583">
        <ele>174.138</ele>
        <time>2015-03-29T18:28:57Z</time>
      </trkpt>
      <trkpt lat="41.042575" lon="-6.805598">
        <ele>173.732</ele>
        <time>2015-03-29T18:29:23Z</time>
      </trkpt>
      <trkpt lat="41.042557" lon="-6.805600">
        <ele>173.780</ele>
        <time>2015-03-29T18:29:47Z</time>
      </trkpt>
      <trkpt lat="41.042557" lon="-6.805596">
        <ele>173.734</ele>
        <time>2015-03-29T18:30:13Z</time>
      </trkpt>
      <trkpt lat="41.042560" lon="-6.805595">
        <ele>173.795</ele>
        <time>2015-03-29T18:30:41Z</time>
      </trkpt>
      <trkpt lat="41.042558" lon="-6.805598">
        <ele>173.734</ele>
        <time>2015-03-29T18:31:07Z</time>
      </trkpt>
      <trkpt lat="41.042550" lon="-6.805591">
        <ele>173.755</ele>
        <time>2015-03-29T18:31:30Z</time>
      </trkpt>
      <trkpt lat="41.042554" lon="-6.805578">
        <ele>173.210</ele>
        <time>2015-03-29T18:31:55Z</time>
      </trkpt>
      <trkpt lat="41.042562" lon="-6.805568">
        <ele>173.207</ele>
        <time>2015-03-29T18:32:20Z</time>
      </trkpt>
      <trkpt lat="41.042568" lon="-6.805557">
        <ele>173.242</ele>
        <time>2015-03-29T18:32:45Z</time>
      </trkpt>
      <trkpt lat="41.042577" lon="-6.805556">
        <ele>173.217</ele>
        <time>2015-03-29T18:33:05Z</time>
      </trkpt>
      <trkpt lat="41.042576" lon="-6.805558">
        <ele>172.792</ele>
        <time>2015-03-29T18:33:36Z</time>
      </trkpt>
      <trkpt lat="41.042577" lon="-6.805562">
        <ele>172.776</ele>
        <time>2015-03-29T18:33:59Z</time>
      </trkpt>
      <trkpt lat="41.042568" lon="-6.805559">
        <ele>172.724</ele>
        <time>2015-03-29T18:34:23Z</time>
      </trkpt>
      <trkpt lat="41.042559" lon="-6.805535">
        <ele>172.748</ele>
        <time>2015-03-29T18:34:48Z</time>
      </trkpt>
      <trkpt lat="41.042562" lon="-6.805532">
        <ele>172.739</ele>
        <time>2015-03-29T18:35:15Z</time>
      </trkpt>
      <trkpt lat="41.042574" lon="-6.805535">
        <ele>172.781</ele>
        <time>2015-03-29T18:35:39Z</time>
      </trkpt>
      <trkpt lat="41.042578" lon="-6.805559">
        <ele>172.761</ele>
        <time>2015-03-29T18:36:03Z</time>
      </trkpt>
      <trkpt lat="41.042580" lon="-6.805563">
        <ele>172.717</ele>
        <time>2015-03-29T18:36:28Z</time>
      </trkpt>
      <trkpt lat="41.042590" lon="-6.805568">
        <ele>172.707</ele>
        <time>2015-03-29T18:36:52Z</time>
      </trkpt>
      <trkpt lat="41.042598" lon="-6.805564">
        <ele>172.727</ele>
        <time>2015-03-29T18:37:14Z</time>
      </trkpt>
      <trkpt lat="41.042603" lon="-6.805567">
        <ele>172.782</ele>
        <time>2015-03-29T18:37:38Z</time>
      </trkpt>
      <trkpt lat="41.042600" lon="-6.805553">
        <ele>172.797</ele>
        <time>2015-03-29T18:37:59Z</time>
      </trkpt>
      <trkpt lat="41.042600" lon="-6.805548">
        <ele>172.721</ele>
        <time>2015-03-29T18:38:27Z</time>
      </trkpt>
      <trkpt lat="41.042598" lon="-6.805550">
        <ele>172.759</ele>
        <time>2015-03-29T18:38:50Z</time>
      </trkpt>
      <trkpt lat="41.042590" lon="-6.805550">
        <ele>172.773</ele>
        <time>2015-03-29T18:39:12Z</time>
      </trkpt>
      <trkpt lat="41.042592" lon="-6.805546">
        <ele>172.714</ele>
        <time>2015-03-29T18:39:35Z</time>
      </trkpt>
      <trkpt lat="41.042596" lon="-6.805540">
        <ele>172.747</ele>
        <time>2015-03-29T18:39:58Z</time>
      </trkpt>
      <trkpt lat="41.042598" lon="-6.805539">
        <ele>172.729</ele>
        <time>2015-03-29T18:40:26Z</time>
      </trkpt>
      <trkpt lat="41.042604" lon="-6.805534">
        <ele>172.721</ele>
        <time>2015-03-29T18:40:47Z</time>
      </trkpt>
      <trkpt lat="41.042584" lon="-6.805536">
        <ele>172.707</ele>
        <time>2015-03-29T18:41:07Z</time>
      </trkpt>
      <trkpt lat="41.042587" lon="-6.805504">
        <ele>172.783</ele>
        <time>2015-03-29T18:41:16Z</time>
      </trkpt>
      <trkpt lat="41.042584" lon="-6.805472">
        <ele>172.768</ele>
        <time>2015-03-29T18:41:21Z</time>
      </trkpt>
      <trkpt lat="41.042494" lon="-6.805191">
        <ele>172.243</ele>
        <time>2015-03-29T18:41:31Z</time>
      </trkpt>
      <trkpt lat="41.042435" lon="-6.804977">
        <ele>172.717</ele>
        <time>2015-03-29T18:41:37Z</time>
      </trkpt>
      <trkpt lat="41.042419" lon="-6.804917">
        <ele>171.725</ele>
        <time>2015-03-29T18:41:41Z</time>
      </trkpt>
      <trkpt lat="41.042307" lon="-6.804608">
        <ele>171.759</ele>
        <time>2015-03-29T18:41:51Z</time>
      </trkpt>
      <trkpt lat="41.042274" lon="-6.804349">
        <ele>170.310</ele>
        <time>2015-03-29T18:41:58Z</time>
      </trkpt>
      <trkpt lat="41.042378" lon="-6.804330">
        <ele>173.217</ele>
        <time>2015-03-29T18:42:05Z</time>
      </trkpt>
      <trkpt lat="41.042501" lon="-6.804388">
        <ele>173.787</ele>
        <time>2015-03-29T18:42:15Z</time>
      </trkpt>
      <trkpt lat="41.042506" lon="-6.804402">
        <ele>173.715</ele>
        <time>2015-03-29T18:42:16Z</time>
      </trkpt>
      <trkpt lat="41.042547" lon="-6.804503">
        <ele>177.007</ele>
        <time>2015-03-29T18:42:22Z</time>
      </trkpt>
      <trkpt lat="41.042563" lon="-6.804532">
        <ele>175.170</ele>
        <time>2015-03-29T18:42:24Z</time>
      </trkpt>
      <trkpt lat="41.042583" lon="-6.804591">
        <ele>175.135</ele>
        <time>2015-03-29T18:42:28Z</time>
      </trkpt>
      <trkpt lat="41.042608" lon="-6.804674">
        <ele>175.160</ele>
        <time>2015-03-29T18:42:33Z</time>
      </trkpt>
      <trkpt lat="41.042652" lon="-6.804797">
        <ele>176.544</ele>
        <time>2015-03-29T18:42:43Z</time>
      </trkpt>
      <trkpt lat="41.042712" lon="-6.804954">
        <ele>177.082</ele>
        <time>2015-03-29T18:42:53Z</time>
      </trkpt>
      <trkpt lat="41.042766" lon="-6.805089">
        <ele>177.056</ele>
        <time>2015-03-29T18:43:00Z</time>
      </trkpt>
      <trkpt lat="41.042718" lon="-6.805199">
        <ele>175.687</ele>
        <time>2015-03-29T18:43:08Z</time>
      </trkpt>
      <trkpt lat="41.042725" lon="-6.805207">
        <ele>175.677</ele>
        <time>2015-03-29T18:43:22Z</time>
      </trkpt>
      <trkpt lat="41.042689" lon="-6.805227">
        <ele>177.561</ele>
        <time>2015-03-29T18:43:36Z</time>
      </trkpt>
      <trkpt lat="41.042666" lon="-6.805235">
        <ele>174.627</ele>
        <time>2015-03-29T18:43:39Z</time>
      </trkpt>
      <trkpt lat="41.042643" lon="-6.805306">
        <ele>176.107</ele>
        <time>2015-03-29T18:43:51Z</time>
      </trkpt>
      <trkpt lat="41.042699" lon="-6.805297">
        <ele>176.586</ele>
        <time>2015-03-29T18:44:03Z</time>
      </trkpt>
      <trkpt lat="41.042697" lon="-6.805300">
        <ele>178.011</ele>
        <time>2015-03-29T18:44:16Z</time>
      </trkpt>
      <trkpt lat="41.042700" lon="-6.805303">
        <ele>174.616</ele>
        <time>2015-03-29T18:44:39Z</time>
      </trkpt>
      <trkpt lat="41.042701" lon="-6.805304">
        <ele>177.560</ele>
        <time>2015-03-29T18:44:48Z</time>
      </trkpt>
      <trkpt lat="41.042744" lon="-6.805296">
        <ele>176.568</ele>
        <time>2015-03-29T18:45:04Z</time>
      </trkpt>
      <trkpt lat="41.043036" lon="-6.805310">
        <ele>91.969</ele>
        <time>2015-03-30T08:19:46Z</time>
      </trkpt>
      <trkpt lat="41.043045" lon="-6.805304">
        <ele>91.904</ele>
        <time>2015-03-30T08:19:48Z</time>
      </trkpt>
      <trkpt lat="41.043056" lon="-6.805226">
        <ele>91.524</ele>
        <time>2015-03-30T08:20:03Z</time>
      </trkpt>
      <trkpt lat="41.042930" lon="-6.805195">
        <ele>94.807</ele>
        <time>2015-03-30T08:20:25Z</time>
      </trkpt>
      <trkpt lat="41.042929" lon="-6.805196">
        <ele>98.235</ele>
        <time>2015-03-30T08:20:26Z</time>
      </trkpt>
      <trkpt lat="41.042928" lon="-6.805195">
        <ele>103.090</ele>
        <time>2015-03-30T08:20:28Z</time>
      </trkpt>
      <trkpt lat="41.042928" lon="-6.805200">
        <ele>108.375</ele>
        <time>2015-03-30T08:20:30Z</time>
      </trkpt>
      <trkpt lat="41.042932" lon="-6.805204">
        <ele>113.139</ele>
        <time>2015-03-30T08:20:32Z</time>
      </trkpt>
      <trkpt lat="41.042940" lon="-6.805187">
        <ele>117.989</ele>
        <time>2015-03-30T08:20:34Z</time>
      </trkpt>
      <trkpt lat="41.042938" lon="-6.805182">
        <ele>121.712</ele>
        <time>2015-03-30T08:20:36Z</time>
      </trkpt>
      <trkpt lat="41.042934" lon="-6.805182">
        <ele>125.177</ele>
        <time>2015-03-30T08:20:38Z</time>
      </trkpt>
      <trkpt lat="41.042931" lon="-6.805183">
        <ele>128.592</ele>
        <time>2015-03-30T08:20:40Z</time>
      </trkpt>
      <trkpt lat="41.042940" lon="-6.805183">
        <ele>132.373</ele>
        <time>2015-03-30T08:20:43Z</time>
      </trkpt>
      <trkpt lat="41.042941" lon="-6.805184">
        <ele>135.720</ele>
        <time>2015-03-30T08:20:44Z</time>
      </trkpt>
      <trkpt lat="41.042941" lon="-6.805190">
        <ele>143.407</ele>
        <time>2015-03-30T08:20:49Z</time>
      </trkpt>
      <trkpt lat="41.042940" lon="-6.805188">
        <ele>141.938</ele>
        <time>2015-03-30T08:20:50Z</time>
      </trkpt>
      <trkpt lat="41.042940" lon="-6.805187">
        <ele>146.783</ele>
        <time>2015-03-30T08:20:52Z</time>
      </trkpt>
      <trkpt lat="41.042942" lon="-6.805186">
        <ele>145.878</ele>
        <time>2015-03-30T08:20:53Z</time>
      </trkpt>
      <trkpt lat="41.042940" lon="-6.805174">
        <ele>149.122</ele>
        <time>2015-03-30T08:20:56Z</time>
      </trkpt>
      <trkpt lat="41.042948" lon="-6.805166">
        <ele>153.072</ele>
        <time>2015-03-30T08:21:00Z</time>
      </trkpt>
      <trkpt lat="41.042956" lon="-6.805172">
        <ele>153.545</ele>
        <time>2015-03-30T08:21:02Z</time>
      </trkpt>
      <trkpt lat="41.042958" lon="-6.805185">
        <ele>155.920</ele>
        <time>2015-03-30T08:21:04Z</time>
      </trkpt>
      <trkpt lat="41.042943" lon="-6.805211">
        <ele>159.299</ele>
        <time>2015-03-30T08:21:09Z</time>
      </trkpt>
      <trkpt lat="41.042914" lon="-6.805249">
        <ele>162.607</ele>
        <time>2015-03-30T08:21:18Z</time>
      </trkpt>
      <trkpt lat="41.042939" lon="-6.805241">
        <ele>166.027</ele>
        <time>2015-03-30T08:21:28Z</time>
      </trkpt>
      <trkpt lat="41.042943" lon="-6.805255">
        <ele>168.407</ele>
        <time>2015-03-30T08:21:54Z</time>
      </trkpt>
      <trkpt lat="41.042942" lon="-6.805232">
        <ele>172.718</ele>
        <time>2015-03-30T08:22:21Z</time>
      </trkpt>
      <trkpt lat="41.042938" lon="-6.805229">
        <ele>168.463</ele>
        <time>2015-03-30T08:22:25Z</time>
      </trkpt>
      <trkpt lat="41.042937" lon="-6.805230">
        <ele>172.758</ele>
        <time>2015-03-30T08:22:26Z</time>
      </trkpt>
      <trkpt lat="41.042937" lon="-6.805229">
        <ele>168.482</ele>
        <time>2015-03-30T08:22:27Z</time>
      </trkpt>
      <trkpt lat="41.042936" lon="-6.805229">
        <ele>172.292</ele>
        <time>2015-03-30T08:22:28Z</time>
      </trkpt>
      <trkpt lat="41.042933" lon="-6.805228">
        <ele>168.985</ele>
        <time>2015-03-30T08:22:44Z</time>
      </trkpt>
      <trkpt lat="41.042931" lon="-6.805223">
        <ele>169.820</ele>
        <time>2015-03-30T08:23:14Z</time>
      </trkpt>
      <trkpt lat="41.042937" lon="-6.805221">
        <ele>170.349</ele>
        <time>2015-03-30T08:23:25Z</time>
      </trkpt>
      <trkpt lat="41.042948" lon="-6.805218">
        <ele>170.302</ele>
        <time>2015-03-30T08:23:27Z</time>
      </trkpt>
      <trkpt lat="41.042991" lon="-6.805178">
        <ele>170.822</ele>
        <time>2015-03-30T08:23:34Z</time>
      </trkpt>
      <trkpt lat="41.042995" lon="-6.805154">
        <ele>170.807</ele>
        <time>2015-03-30T08:23:36Z</time>
      </trkpt>
      <trkpt lat="41.042990" lon="-6.805083">
        <ele>171.783</ele>
        <time>2015-03-30T08:23:40Z</time>
      </trkpt>
      <trkpt lat="41.042948" lon="-6.804689">
        <ele>171.778</ele>
        <time>2015-03-30T08:23:52Z</time>
      </trkpt>
      <trkpt lat="41.042916" lon="-6.804325">
        <ele>173.283</ele>
        <time>2015-03-30T08:24:03Z</time>
      </trkpt>
      <trkpt lat="41.042964" lon="-6.803992">
        <ele>175.627</ele>
        <time>2015-03-30T08:24:16Z</time>
      </trkpt>
      <trkpt lat="41.043073" lon="-6.803754">
        <ele>178.087</ele>
        <time>2015-03-30T08:24:27Z</time>
      </trkpt>
      <trkpt lat="41.043194" lon="-6.803580">
        <ele>179.490</ele>
        <time>2015-03-30T08:24:37Z</time>
      </trkpt>
      <trkpt lat="41.043322" lon="-6.803483">
        <ele>180.465</ele>
        <time>2015-03-30T08:24:47Z</time>
      </trkpt>
      <trkpt lat="41.043409" lon="-6.803351">
        <ele>179.922</ele>
        <time>2015-03-30T08:24:53Z</time>
      </trkpt>
      <trkpt lat="41.043515" lon="-6.803023">
        <ele>178.062</ele>
        <time>2015-03-30T08:25:00Z</time>
      </trkpt>
      <trkpt lat="41.043516" lon="-6.802957">
        <ele>178.008</ele>
        <time>2015-03-30T08:25:01Z</time>
      </trkpt>
      <trkpt lat="41.043506" lon="-6.802890">
        <ele>177.507</ele>
        <time>2015-03-30T08:25:02Z</time>
      </trkpt>
      <trkpt lat="41.043485" lon="-6.802825">
        <ele>177.591</ele>
        <time>2015-03-30T08:25:03Z</time>
      </trkpt>
      <trkpt lat="41.043449" lon="-6.802771">
        <ele>177.036</ele>
        <time>2015-03-30T08:25:04Z</time>
      </trkpt>
      <trkpt lat="41.043405" lon="-6.802729">
        <ele>176.551</ele>
        <time>2015-03-30T08:25:05Z</time>
      </trkpt>
      <trkpt lat="41.043351" lon="-6.802699">
        <ele>176.555</ele>
        <time>2015-03-30T08:25:06Z</time>
      </trkpt>
      <trkpt lat="41.043294" lon="-6.802678">
        <ele>176.125</ele>
        <time>2015-03-30T08:25:07Z</time>
      </trkpt>
      <trkpt lat="41.043236" lon="-6.802665">
        <ele>175.668</ele>
        <time>2015-03-30T08:25:08Z</time>
      </trkpt>
      <trkpt lat="41.043179" lon="-6.802656">
        <ele>175.653</ele>
        <time>2015-03-30T08:25:09Z</time>
      </trkpt>
      <trkpt lat="41.043122" lon="-6.802650">
        <ele>175.699</ele>
        <time>2015-03-30T08:25:10Z</time>
      </trkpt>
      <trkpt lat="41.042633" lon="-6.802621">
        <ele>174.607</ele>
        <time>2015-03-30T08:25:19Z</time>
      </trkpt>
      <trkpt lat="41.042535" lon="-6.802622">
        <ele>174.627</ele>
        <time>2015-03-30T08:25:21Z</time>
      </trkpt>
      <trkpt lat="41.042486" lon="-6.802613">
        <ele>174.607</ele>
        <time>2015-03-30T08:25:22Z</time>
      </trkpt>
      <trkpt lat="41.042439" lon="-6.802601">
        <ele>174.658</ele>
        <time>2015-03-30T08:25:23Z</time>
      </trkpt>
      <trkpt lat="41.042392" lon="-6.802584">
        <ele>174.693</ele>
        <time>2015-03-30T08:25:24Z</time>
      </trkpt>
      <trkpt lat="41.042347" lon="-6.802561">
        <ele>174.688</ele>
        <time>2015-03-30T08:25:25Z</time>
      </trkpt>
      <trkpt lat="41.042302" lon="-6.802536">
        <ele>174.672</ele>
        <time>2015-03-30T08:25:26Z</time>
      </trkpt>
      <trkpt lat="41.042253" lon="-6.802519">
        <ele>174.162</ele>
        <time>2015-03-30T08:25:27Z</time>
      </trkpt>
      <trkpt lat="41.042207" lon="-6.802502">
        <ele>174.175</ele>
        <time>2015-03-30T08:25:28Z</time>
      </trkpt>
      <trkpt lat="41.042162" lon="-6.802482">
        <ele>174.120</ele>
        <time>2015-03-30T08:25:29Z</time>
      </trkpt>
      <trkpt lat="41.041993" lon="-6.802406">
        <ele>174.164</ele>
        <time>2015-03-30T08:25:33Z</time>
      </trkpt>
      <trkpt lat="41.041952" lon="-6.802396">
        <ele>173.706</ele>
        <time>2015-03-30T08:25:34Z</time>
      </trkpt>
      <trkpt lat="41.041737" lon="-6.802372">
        <ele>173.716</ele>
        <time>2015-03-30T08:25:39Z</time>
      </trkpt>
      <trkpt lat="41.041551" lon="-6.802374">
        <ele>173.207</ele>
        <time>2015-03-30T08:25:43Z</time>
      </trkpt>
      <trkpt lat="41.041331" lon="-6.802409">
        <ele>173.215</ele>
        <time>2015-03-30T08:25:48Z</time>
      </trkpt>
      <trkpt lat="41.040811" lon="-6.802466">
        <ele>171.770</ele>
        <time>2015-03-30T08:25:59Z</time>
      </trkpt>
      <trkpt lat="41.040761" lon="-6.802476">
        <ele>171.325</ele>
        <time>2015-03-30T08:26:00Z</time>
      </trkpt>
      <trkpt lat="41.040504" lon="-6.802508">
        <ele>167.489</ele>
        <time>2015-03-30T08:26:05Z</time>
      </trkpt>
      <trkpt lat="41.040457" lon="-6.802518">
        <ele>172.289</ele>
        <time>2015-03-30T08:26:06Z</time>
      </trkpt>
      <trkpt lat="41.040384" lon="-6.802559">
        <ele>169.322</ele>
        <time>2015-03-30T08:26:08Z</time>
      </trkpt>
      <trkpt lat="41.040369" lon="-6.802596">
        <ele>169.397</ele>
        <time>2015-03-30T08:26:09Z</time>
      </trkpt>
      <trkpt lat="41.040364" lon="-6.802630">
        <ele>168.956</ele>
        <time>2015-03-30T08:26:10Z</time>
      </trkpt>
      <trkpt lat="41.040362" lon="-6.802662">
        <ele>168.959</ele>
        <time>2015-03-30T08:26:11Z</time>
      </trkpt>
      <trkpt lat="41.040359" lon="-6.802690">
        <ele>168.414</ele>
        <time>2015-03-30T08:26:12Z</time>
      </trkpt>
      <trkpt lat="41.040363" lon="-6.802711">
        <ele>168.407</ele>
        <time>2015-03-30T08:26:13Z</time>
      </trkpt>
      <trkpt lat="41.040350" lon="-6.802730">
        <ele>167.994</ele>
        <time>2015-03-30T08:26:23Z</time>
      </trkpt>
      <trkpt lat="41.040344" lon="-6.802744">
        <ele>167.919</ele>
        <time>2015-03-30T08:26:24Z</time>
      </trkpt>
      <trkpt lat="41.040331" lon="-6.802759">
        <ele>167.994</ele>
        <time>2015-03-30T08:26:25Z</time>
      </trkpt>
      <trkpt lat="41.040312" lon="-6.802757">
        <ele>167.938</ele>
        <time>2015-03-30T08:26:26Z</time>
      </trkpt>
      <trkpt lat="41.040295" lon="-6.802742">
        <ele>167.968</ele>
        <time>2015-03-30T08:26:27Z</time>
      </trkpt>
      <trkpt lat="41.040286" lon="-6.802717">
        <ele>168.421</ele>
        <time>2015-03-30T08:26:28Z</time>
      </trkpt>
      <trkpt lat="41.040285" lon="-6.802683">
        <ele>168.456</ele>
        <time>2015-03-30T08:26:29Z</time>
      </trkpt>
      <trkpt lat="41.040292" lon="-6.802652">
        <ele>168.424</ele>
        <time>2015-03-30T08:26:30Z</time>
      </trkpt>
      <trkpt lat="41.040307" lon="-6.802626">
        <ele>168.404</ele>
        <time>2015-03-30T08:26:31Z</time>
      </trkpt>
      <trkpt lat="41.040325" lon="-6.802599">
        <ele>168.914</ele>
        <time>2015-03-30T08:26:32Z</time>
      </trkpt>
      <trkpt lat="41.040345" lon="-6.802569">
        <ele>168.907</ele>
        <time>2015-03-30T08:26:33Z</time>
      </trkpt>
      <trkpt lat="41.040364" lon="-6.802538">
        <ele>168.951</ele>
        <time>2015-03-30T08:26:34Z</time>
      </trkpt>
      <trkpt lat="41.040382" lon="-6.802515">
        <ele>169.356</ele>
        <time>2015-03-30T08:26:35Z</time>
      </trkpt>
      <trkpt lat="41.040589" lon="-6.802464">
        <ele>170.391</ele>
        <time>2015-03-30T08:26:42Z</time>
      </trkpt>
      <trkpt lat="41.040901" lon="-6.802438">
        <ele>172.215</ele>
        <time>2015-03-30T08:26:51Z</time>
      </trkpt>
      <trkpt lat="41.041140" lon="-6.802413">
        <ele>173.275</ele>
        <time>2015-03-30T08:27:00Z</time>
      </trkpt>
      <trkpt lat="41.041343" lon="-6.802375">
        <ele>173.758</ele>
        <time>2015-03-30T08:27:09Z</time>
      </trkpt>
      <trkpt lat="41.041530" lon="-6.802346">
        <ele>173.743</ele>
        <time>2015-03-30T08:27:18Z</time>
      </trkpt>
      <trkpt lat="41.041729" lon="-6.802325">
        <ele>173.743</ele>
        <time>2015-03-30T08:27:26Z</time>
      </trkpt>
      <trkpt lat="41.042016" lon="-6.802373">
        <ele>174.164</ele>
        <time>2015-03-30T08:27:35Z</time>
      </trkpt>
      <trkpt lat="41.042122" lon="-6.802424">
        <ele>173.710</ele>
        <time>2015-03-30T08:27:38Z</time>
      </trkpt>
      <trkpt lat="41.042164" lon="-6.802437">
        <ele>173.707</ele>
        <time>2015-03-30T08:27:39Z</time>
      </trkpt>
      <trkpt lat="41.042204" lon="-6.802449">
        <ele>173.763</ele>
        <time>2015-03-30T08:27:40Z</time>
      </trkpt>
      <trkpt lat="41.042333" lon="-6.802501">
        <ele>174.198</ele>
        <time>2015-03-30T08:27:43Z</time>
      </trkpt>
      <trkpt lat="41.042373" lon="-6.802516">
        <ele>174.153</ele>
        <time>2015-03-30T08:27:44Z</time>
      </trkpt>
      <trkpt lat="41.042490" lon="-6.802562">
        <ele>174.177</ele>
        <time>2015-03-30T08:27:47Z</time>
      </trkpt>
      <trkpt lat="41.042844" lon="-6.802585">
        <ele>175.147</ele>
        <time>2015-03-30T08:27:55Z</time>
      </trkpt>
      <trkpt lat="41.043139" lon="-6.802598">
        <ele>175.630</ele>
        <time>2015-03-30T08:28:02Z</time>
      </trkpt>
      <trkpt lat="41.043264" lon="-6.802614">
        <ele>176.165</ele>
        <time>2015-03-30T08:28:05Z</time>
      </trkpt>
      <trkpt lat="41.043342" lon="-6.802640">
        <ele>176.153</ele>
        <time>2015-03-30T08:28:07Z</time>
      </trkpt>
      <trkpt lat="41.043379" lon="-6.802659">
        <ele>176.504</ele>
        <time>2015-03-30T08:28:08Z</time>
      </trkpt>
      <trkpt lat="41.043414" lon="-6.802683">
        <ele>176.514</ele>
        <time>2015-03-30T08:28:09Z</time>
      </trkpt>
      <trkpt lat="41.043449" lon="-6.802711">
        <ele>176.507</ele>
        <time>2015-03-30T08:28:10Z</time>
      </trkpt>
      <trkpt lat="41.043476" lon="-6.802742">
        <ele>177.094</ele>
        <time>2015-03-30T08:28:11Z</time>
      </trkpt>
      <trkpt lat="41.043500" lon="-6.802777">
        <ele>177.069</ele>
        <time>2015-03-30T08:28:12Z</time>
      </trkpt>
      <trkpt lat="41.043542" lon="-6.803079">
        <ele>178.574</ele>
        <time>2015-03-30T08:28:19Z</time>
      </trkpt>
      <trkpt lat="41.043408" lon="-6.803461">
        <ele>179.958</ele>
        <time>2015-03-30T08:28:29Z</time>
      </trkpt>
      <trkpt lat="41.043294" lon="-6.803795">
        <ele>181.878</ele>
        <time>2015-03-30T08:28:39Z</time>
      </trkpt>
      <trkpt lat="41.043217" lon="-6.804141">
        <ele>183.371</ele>
        <time>2015-03-30T08:28:49Z</time>
      </trkpt>
      <trkpt lat="41.043268" lon="-6.804425">
        <ele>186.216</ele>
        <time>2015-03-30T08:28:57Z</time>
      </trkpt>
      <trkpt lat="41.043280" lon="-6.804456">
        <ele>185.253</ele>
        <time>2015-03-30T08:28:58Z</time>
      </trkpt>
      <trkpt lat="41.043389" lon="-6.804778">
        <ele>185.704</ele>
        <time>2015-03-30T08:29:08Z</time>
      </trkpt>
      <trkpt lat="41.043533" lon="-6.805138">
        <ele>187.614</ele>
        <time>2015-03-30T08:29:20Z</time>
      </trkpt>
      <trkpt lat="41.043703" lon="-6.805421">
        <ele>189.507</ele>
        <time>2015-03-30T08:29:31Z</time>
      </trkpt>
      <trkpt lat="41.043963" lon="-6.805644">
        <ele>191.094</ele>
        <time>2015-03-30T08:29:43Z</time>
      </trkpt>
      <trkpt lat="41.044186" lon="-6.805773">
        <ele>192.979</ele>
        <time>2015-03-30T08:29:53Z</time>
      </trkpt>
      <trkpt lat="41.044429" lon="-6.805903">
        <ele>194.894</ele>
        <time>2015-03-30T08:30:04Z</time>
      </trkpt>
      <trkpt lat="41.044597" lon="-6.805984">
        <ele>195.818</ele>
        <time>2015-03-30T08:30:12Z</time>
      </trkpt>
      <trkpt lat="41.044622" lon="-6.805988">
        <ele>195.888</ele>
        <time>2015-03-30T08:30:13Z</time>
      </trkpt>
      <trkpt lat="41.044643" lon="-6.805996">
        <ele>196.361</ele>
        <time>2015-03-30T08:30:14Z</time>
      </trkpt>
      <trkpt lat="41.044665" lon="-6.805998">
        <ele>196.396</ele>
        <time>2015-03-30T08:30:15Z</time>
      </trkpt>
      <trkpt lat="41.044685" lon="-6.805995">
        <ele>196.365</ele>
        <time>2015-03-30T08:30:16Z</time>
      </trkpt>
      <trkpt lat="41.044764" lon="-6.805987">
        <ele>196.768</ele>
        <time>2015-03-30T08:30:20Z</time>
      </trkpt>
      <trkpt lat="41.044780" lon="-6.805993">
        <ele>196.714</ele>
        <time>2015-03-30T08:30:21Z</time>
      </trkpt>
      <trkpt lat="41.044795" lon="-6.805996">
        <ele>197.207</ele>
        <time>2015-03-30T08:30:22Z</time>
      </trkpt>
      <trkpt lat="41.044811" lon="-6.805990">
        <ele>196.755</ele>
        <time>2015-03-30T08:30:23Z</time>
      </trkpt>
      <trkpt lat="41.044827" lon="-6.805986">
        <ele>197.230</ele>
        <time>2015-03-30T08:30:24Z</time>
      </trkpt>
      <trkpt lat="41.044845" lon="-6.805981">
        <ele>197.255</ele>
        <time>2015-03-30T08:30:25Z</time>
      </trkpt>
      <trkpt lat="41.044953" lon="-6.805939">
        <ele>196.769</ele>
        <time>2015-03-30T08:30:31Z</time>
      </trkpt>
      <trkpt lat="41.044969" lon="-6.805922">
        <ele>196.789</ele>
        <time>2015-03-30T08:30:32Z</time>
      </trkpt>
      <trkpt lat="41.044988" lon="-6.805908">
        <ele>197.252</ele>
        <time>2015-03-30T08:30:33Z</time>
      </trkpt>
      <trkpt lat="41.045006" lon="-6.805898">
        <ele>196.757</ele>
        <time>2015-03-30T08:30:34Z</time>
      </trkpt>
      <trkpt lat="41.045027" lon="-6.805886">
        <ele>196.757</ele>
        <time>2015-03-30T08:30:35Z</time>
      </trkpt>
      <trkpt lat="41.045297" lon="-6.805756">
        <ele>196.700</ele>
        <time>2015-03-30T08:30:44Z</time>
      </trkpt>
      <trkpt lat="41.045526" lon="-6.805513">
        <ele>196.720</ele>
        <time>2015-03-30T08:30:53Z</time>
      </trkpt>
      <trkpt lat="41.045856" lon="-6.805168">
        <ele>196.707</ele>
        <time>2015-03-30T08:31:05Z</time>
      </trkpt>
      <trkpt lat="41.046145" lon="-6.804741">
        <ele>196.764</ele>
        <time>2015-03-30T08:31:17Z</time>
      </trkpt>
      <trkpt lat="41.046275" lon="-6.804498">
        <ele>196.789</ele>
        <time>2015-03-30T08:31:23Z</time>
      </trkpt>
      <trkpt lat="41.046319" lon="-6.804407">
        <ele>196.714</ele>
        <time>2015-03-30T08:31:25Z</time>
      </trkpt>
      <trkpt lat="41.046337" lon="-6.804357">
        <ele>196.778</ele>
        <time>2015-03-30T08:31:26Z</time>
      </trkpt>
      <trkpt lat="41.046357" lon="-6.804308">
        <ele>196.728</ele>
        <time>2015-03-30T08:31:27Z</time>
      </trkpt>
      <trkpt lat="41.046393" lon="-6.804209">
        <ele>196.721</ele>
        <time>2015-03-30T08:31:29Z</time>
      </trkpt>
      <trkpt lat="41.046410" lon="-6.804158">
        <ele>196.786</ele>
        <time>2015-03-30T08:31:30Z</time>
      </trkpt>
      <trkpt lat="41.046423" lon="-6.804107">
        <ele>196.748</ele>
        <time>2015-03-30T08:31:31Z</time>
      </trkpt>
      <trkpt lat="41.046437" lon="-6.804056">
        <ele>196.761</ele>
        <time>2015-03-30T08:31:32Z</time>
      </trkpt>
      <trkpt lat="41.046451" lon="-6.804006">
        <ele>196.717</ele>
        <time>2015-03-30T08:31:33Z</time>
      </trkpt>
      <trkpt lat="41.046463" lon="-6.803957">
        <ele>196.707</ele>
        <time>2015-03-30T08:31:34Z</time>
      </trkpt>
      <trkpt lat="41.046478" lon="-6.803913">
        <ele>196.713</ele>
        <time>2015-03-30T08:31:35Z</time>
      </trkpt>
      <trkpt lat="41.046499" lon="-6.803879">
        <ele>196.778</ele>
        <time>2015-03-30T08:31:36Z</time>
      </trkpt>
      <trkpt lat="41.046519" lon="-6.803850">
        <ele>196.793</ele>
        <time>2015-03-30T08:31:37Z</time>
      </trkpt>
      <trkpt lat="41.046537" lon="-6.803826">
        <ele>196.717</ele>
        <time>2015-03-30T08:31:38Z</time>
      </trkpt>
      <trkpt lat="41.046558" lon="-6.803812">
        <ele>196.727</ele>
        <time>2015-03-30T08:31:39Z</time>
      </trkpt>
      <trkpt lat="41.046578" lon="-6.803813">
        <ele>196.770</ele>
        <time>2015-03-30T08:31:40Z</time>
      </trkpt>
      <trkpt lat="41.046593" lon="-6.803823">
        <ele>196.795</ele>
        <time>2015-03-30T08:31:41Z</time>
      </trkpt>
      <trkpt lat="41.046607" lon="-6.803834">
        <ele>197.279</ele>
        <time>2015-03-30T08:31:42Z</time>
      </trkpt>
      <trkpt lat="41.046622" lon="-6.803842">
        <ele>197.205</ele>
        <time>2015-03-30T08:31:43Z</time>
      </trkpt>
      <trkpt lat="41.046820" lon="-6.803878">
        <ele>196.725</ele>
        <time>2015-03-30T08:31:50Z</time>
      </trkpt>
      <trkpt lat="41.047009" lon="-6.803926">
        <ele>196.707</ele>
        <time>2015-03-30T08:31:59Z</time>
      </trkpt>
      <trkpt lat="41.047124" lon="-6.803941">
        <ele>196.746</ele>
        <time>2015-03-30T08:32:09Z</time>
      </trkpt>
      <trkpt lat="41.047132" lon="-6.803944">
        <ele>196.751</ele>
        <time>2015-03-30T08:32:21Z</time>
      </trkpt>
      <trkpt lat="41.047124" lon="-6.803926">
        <ele>196.766</ele>
        <time>2015-03-30T08:32:47Z</time>
      </trkpt>
      <trkpt lat="41.047136" lon="-6.803932">
        <ele>196.750</ele>
        <time>2015-03-30T08:33:11Z</time>
      </trkpt>
      <trkpt lat="41.047121" lon="-6.803964">
        <ele>197.260</ele>
        <time>2015-03-30T08:33:38Z</time>
      </trkpt>
      <trkpt lat="41.047133" lon="-6.803951">
        <ele>197.273</ele>
        <time>2015-03-30T08:34:05Z</time>
      </trkpt>
      <trkpt lat="41.047123" lon="-6.803955">
        <ele>197.738</ele>
        <time>2015-03-30T08:34:36Z</time>
      </trkpt>
      <trkpt lat="41.047116" lon="-6.803962">
        <ele>197.766</ele>
        <time>2015-03-30T08:35:04Z</time>
      </trkpt>
      <trkpt lat="41.047120" lon="-6.803974">
        <ele>197.729</ele>
        <time>2015-03-30T08:35:31Z</time>
      </trkpt>
      <trkpt lat="41.047121" lon="-6.803969">
        <ele>197.721</ele>
        <time>2015-03-30T08:35:47Z</time>
      </trkpt>
      <trkpt lat="41.047134" lon="-6.803976">
        <ele>197.707</ele>
        <time>2015-03-30T08:35:48Z</time>
      </trkpt>
      <trkpt lat="41.047163" lon="-6.803999">
        <ele>197.755</ele>
        <time>2015-03-30T08:35:50Z</time>
      </trkpt>
      <trkpt lat="41.047182" lon="-6.804004">
        <ele>197.730</ele>
        <time>2015-03-30T08:35:51Z</time>
      </trkpt>
      <trkpt lat="41.047204" lon="-6.804010">
        <ele>197.235</ele>
        <time>2015-03-30T08:35:52Z</time>
      </trkpt>
      <trkpt lat="41.047451" lon="-6.804168">
        <ele>197.789</ele>
        <time>2015-03-30T08:36:02Z</time>
      </trkpt>
      <trkpt lat="41.047723" lon="-6.804451">
        <ele>197.749</ele>
        <time>2015-03-30T08:36:13Z</time>
      </trkpt>
      <trkpt lat="41.047943" lon="-6.804787">
        <ele>197.282</ele>
        <time>2015-03-30T08:36:23Z</time>
      </trkpt>
      <trkpt lat="41.048121" lon="-6.805245">
        <ele>197.787</ele>
        <time>2015-03-30T08:36:35Z</time>
      </trkpt>
      <trkpt lat="41.048286" lon="-6.805696">
        <ele>198.728</ele>
        <time>2015-03-30T08:36:47Z</time>
      </trkpt>
      <trkpt lat="41.048433" lon="-6.805937">
        <ele>199.689</ele>
        <time>2015-03-30T08:36:55Z</time>
      </trkpt>
      <trkpt lat="41.048702" lon="-6.806252">
        <ele>201.117</ele>
        <time>2015-03-30T08:37:08Z</time>
      </trkpt>
      <trkpt lat="41.048709" lon="-6.806264">
        <ele>201.107</ele>
        <time>2015-03-30T08:37:20Z</time>
      </trkpt>
      <trkpt lat="41.048791" lon="-6.806351">
        <ele>201.191</ele>
        <time>2015-03-30T08:37:30Z</time>
      </trkpt>
      <trkpt lat="41.049027" lon="-6.806475">
        <ele>202.556</ele>
        <time>2015-03-30T08:37:39Z</time>
      </trkpt>
      <trkpt lat="41.049309" lon="-6.806657">
        <ele>204.911</ele>
        <time>2015-03-30T08:37:50Z</time>
      </trkpt>
      <trkpt lat="41.049522" lon="-6.806833">
        <ele>206.865</ele>
        <time>2015-03-30T08:38:00Z</time>
      </trkpt>
      <trkpt lat="41.049698" lon="-6.807165">
        <ele>208.715</ele>
        <time>2015-03-30T08:38:12Z</time>
      </trkpt>
      <trkpt lat="41.049636" lon="-6.807417">
        <ele>210.788</ele>
        <time>2015-03-30T08:38:20Z</time>
      </trkpt>
      <trkpt lat="41.049464" lon="-6.807612">
        <ele>212.163</ele>
        <time>2015-03-30T08:38:29Z</time>
      </trkpt>
      <trkpt lat="41.049284" lon="-6.807788">
        <ele>214.512</ele>
        <time>2015-03-30T08:38:39Z</time>
      </trkpt>
      <trkpt lat="41.049240" lon="-6.808044">
        <ele>217.932</ele>
        <time>2015-03-30T08:38:49Z</time>
      </trkpt>
      <trkpt lat="41.049248" lon="-6.808060">
        <ele>217.905</ele>
        <time>2015-03-30T08:38:50Z</time>
      </trkpt>
      <trkpt lat="41.049257" lon="-6.808073">
        <ele>218.407</ele>
        <time>2015-03-30T08:38:51Z</time>
      </trkpt>
      <trkpt lat="41.049264" lon="-6.808089">
        <ele>218.450</ele>
        <time>2015-03-30T08:38:52Z</time>
      </trkpt>
      <trkpt lat="41.049268" lon="-6.808112">
        <ele>218.845</ele>
        <time>2015-03-30T08:38:53Z</time>
      </trkpt>
      <trkpt lat="41.049274" lon="-6.808135">
        <ele>219.390</ele>
        <time>2015-03-30T08:38:54Z</time>
      </trkpt>
      <trkpt lat="41.049288" lon="-6.808153">
        <ele>219.364</ele>
        <time>2015-03-30T08:38:55Z</time>
      </trkpt>
      <trkpt lat="41.049304" lon="-6.808170">
        <ele>219.854</ele>
        <time>2015-03-30T08:38:56Z</time>
      </trkpt>
      <trkpt lat="41.049316" lon="-6.808189">
        <ele>220.337</ele>
        <time>2015-03-30T08:38:57Z</time>
      </trkpt>
      <trkpt lat="41.049326" lon="-6.808211">
        <ele>220.372</ele>
        <time>2015-03-30T08:38:58Z</time>
      </trkpt>
      <trkpt lat="41.049339" lon="-6.808228">
        <ele>220.858</ele>
        <time>2015-03-30T08:38:59Z</time>
      </trkpt>
      <trkpt lat="41.049352" lon="-6.808240">
        <ele>220.852</ele>
        <time>2015-03-30T08:39:00Z</time>
      </trkpt>
      <trkpt lat="41.049382" lon="-6.808254">
        <ele>221.217</ele>
        <time>2015-03-30T08:39:02Z</time>
      </trkpt>
      <trkpt lat="41.049401" lon="-6.808248">
        <ele>221.707</ele>
        <time>2015-03-30T08:39:03Z</time>
      </trkpt>
      <trkpt lat="41.049418" lon="-6.808244">
        <ele>221.754</ele>
        <time>2015-03-30T08:39:04Z</time>
      </trkpt>
      <trkpt lat="41.049433" lon="-6.808245">
        <ele>222.299</ele>
        <time>2015-03-30T08:39:05Z</time>
      </trkpt>
      <trkpt lat="41.049450" lon="-6.808241">
        <ele>222.244</ele>
        <time>2015-03-30T08:39:06Z</time>
      </trkpt>
      <trkpt lat="41.049464" lon="-6.808241">
        <ele>222.278</ele>
        <time>2015-03-30T08:39:07Z</time>
      </trkpt>
      <trkpt lat="41.049479" lon="-6.808242">
        <ele>222.768</ele>
        <time>2015-03-30T08:39:08Z</time>
      </trkpt>
      <trkpt lat="41.049495" lon="-6.808231">
        <ele>222.781</ele>
        <time>2015-03-30T08:39:09Z</time>
      </trkpt>
      <trkpt lat="41.049510" lon="-6.808218">
        <ele>223.236</ele>
        <time>2015-03-30T08:39:10Z</time>
      </trkpt>
      <trkpt lat="41.049528" lon="-6.808212">
        <ele>223.255</ele>
        <time>2015-03-30T08:39:11Z</time>
      </trkpt>
      <trkpt lat="41.049547" lon="-6.808206">
        <ele>223.607</ele>
        <time>2015-03-30T08:39:12Z</time>
      </trkpt>
      <trkpt lat="41.049678" lon="-6.808098">
        <ele>225.617</ele>
        <time>2015-03-30T08:39:21Z</time>
      </trkpt>
      <trkpt lat="41.049814" lon="-6.807961">
        <ele>227.507</ele>
        <time>2015-03-30T08:39:30Z</time>
      </trkpt>
      <trkpt lat="41.049993" lon="-6.807846">
        <ele>229.954</ele>
        <time>2015-03-30T08:39:40Z</time>
      </trkpt>
      <trkpt lat="41.050011" lon="-6.807839">
        <ele>229.959</ele>
        <time>2015-03-30T08:39:41Z</time>
      </trkpt>
      <trkpt lat="41.050029" lon="-6.807831">
        <ele>229.914</ele>
        <time>2015-03-30T08:39:42Z</time>
      </trkpt>
      <trkpt lat="41.050285" lon="-6.807749">
        <ele>232.398</ele>
        <time>2015-03-30T08:39:56Z</time>
      </trkpt>
      <trkpt lat="41.050469" lon="-6.807706">
        <ele>234.718</ele>
        <time>2015-03-30T08:40:07Z</time>
      </trkpt>
      <trkpt lat="41.050647" lon="-6.807657">
        <ele>237.191</ele>
        <time>2015-03-30T08:40:17Z</time>
      </trkpt>
      <trkpt lat="41.050814" lon="-6.807633">
        <ele>239.086</ele>
        <time>2015-03-30T08:40:27Z</time>
      </trkpt>
      <trkpt lat="41.050977" lon="-6.807607">
        <ele>241.049</ele>
        <time>2015-03-30T08:40:37Z</time>
      </trkpt>
      <trkpt lat="41.051095" lon="-6.807586">
        <ele>242.402</ele>
        <time>2015-03-30T08:40:44Z</time>
      </trkpt>
      <trkpt lat="41.051112" lon="-6.807591">
        <ele>242.422</ele>
        <time>2015-03-30T08:40:45Z</time>
      </trkpt>
      <trkpt lat="41.051128" lon="-6.807595">
        <ele>242.907</ele>
        <time>2015-03-30T08:40:46Z</time>
      </trkpt>
      <trkpt lat="41.051146" lon="-6.807597">
        <ele>242.913</ele>
        <time>2015-03-30T08:40:47Z</time>
      </trkpt>
      <trkpt lat="41.051166" lon="-6.807599">
        <ele>243.458</ele>
        <time>2015-03-30T08:40:48Z</time>
      </trkpt>
      <trkpt lat="41.051184" lon="-6.807596">
        <ele>243.433</ele>
        <time>2015-03-30T08:40:49Z</time>
      </trkpt>
      <trkpt lat="41.051198" lon="-6.807593">
        <ele>243.887</ele>
        <time>2015-03-30T08:40:50Z</time>
      </trkpt>
      <trkpt lat="41.051212" lon="-6.807594">
        <ele>243.857</ele>
        <time>2015-03-30T08:40:51Z</time>
      </trkpt>
      <trkpt lat="41.051224" lon="-6.807598">
        <ele>243.870</ele>
        <time>2015-03-30T08:40:52Z</time>
      </trkpt>
      <trkpt lat="41.051239" lon="-6.807600">
        <ele>244.365</ele>
        <time>2015-03-30T08:40:53Z</time>
      </trkpt>
      <trkpt lat="41.051257" lon="-6.807600">
        <ele>244.886</ele>
        <time>2015-03-30T08:40:54Z</time>
      </trkpt>
      <trkpt lat="41.051276" lon="-6.807595">
        <ele>244.860</ele>
        <time>2015-03-30T08:40:55Z</time>
      </trkpt>
      <trkpt lat="41.051408" lon="-6.807592">
        <ele>247.226</ele>
        <time>2015-03-30T08:41:04Z</time>
      </trkpt>
      <trkpt lat="41.051539" lon="-6.807629">
        <ele>249.107</ele>
        <time>2015-03-30T08:41:13Z</time>
      </trkpt>
      <trkpt lat="41.051554" lon="-6.807640">
        <ele>249.167</ele>
        <time>2015-03-30T08:41:14Z</time>
      </trkpt>
      <trkpt lat="41.051570" lon="-6.807646">
        <ele>249.652</ele>
        <time>2015-03-30T08:41:15Z</time>
      </trkpt>
      <trkpt lat="41.051599" lon="-6.807653">
        <ele>250.117</ele>
        <time>2015-03-30T08:41:17Z</time>
      </trkpt>
      <trkpt lat="41.051664" lon="-6.807679">
        <ele>251.021</ele>
        <time>2015-03-30T08:41:22Z</time>
      </trkpt>
      <trkpt lat="41.051675" lon="-6.807690">
        <ele>251.081</ele>
        <time>2015-03-30T08:41:23Z</time>
      </trkpt>
      <trkpt lat="41.051689" lon="-6.807699">
        <ele>251.594</ele>
        <time>2015-03-30T08:41:24Z</time>
      </trkpt>
      <trkpt lat="41.051702" lon="-6.807706">
        <ele>252.089</ele>
        <time>2015-03-30T08:41:25Z</time>
      </trkpt>
      <trkpt lat="41.051714" lon="-6.807712">
        <ele>252.031</ele>
        <time>2015-03-30T08:41:26Z</time>
      </trkpt>
      <trkpt lat="41.051728" lon="-6.807718">
        <ele>252.061</ele>
        <time>2015-03-30T08:41:27Z</time>
      </trkpt>
      <trkpt lat="41.051742" lon="-6.807726">
        <ele>252.507</ele>
        <time>2015-03-30T08:41:28Z</time>
      </trkpt>
      <trkpt lat="41.051765" lon="-6.807739">
        <ele>252.507</ele>
        <time>2015-03-30T08:41:30Z</time>
      </trkpt>
      <trkpt lat="41.051778" lon="-6.807750">
        <ele>253.042</ele>
        <time>2015-03-30T08:41:31Z</time>
      </trkpt>
      <trkpt lat="41.051792" lon="-6.807759">
        <ele>253.027</ele>
        <time>2015-03-30T08:41:32Z</time>
      </trkpt>
      <trkpt lat="41.051806" lon="-6.807764">
        <ele>253.422</ele>
        <time>2015-03-30T08:41:33Z</time>
      </trkpt>
      <trkpt lat="41.051820" lon="-6.807764">
        <ele>253.416</ele>
        <time>2015-03-30T08:41:34Z</time>
      </trkpt>
      <trkpt lat="41.051834" lon="-6.807765">
        <ele>253.436</ele>
        <time>2015-03-30T08:41:35Z</time>
      </trkpt>
      <trkpt lat="41.051848" lon="-6.807772">
        <ele>253.919</ele>
        <time>2015-03-30T08:41:36Z</time>
      </trkpt>
      <trkpt lat="41.051862" lon="-6.807783">
        <ele>253.914</ele>
        <time>2015-03-30T08:41:37Z</time>
      </trkpt>
      <trkpt lat="41.051876" lon="-6.807790">
        <ele>253.939</ele>
        <time>2015-03-30T08:41:38Z</time>
      </trkpt>
      <trkpt lat="41.051892" lon="-6.807796">
        <ele>254.401</ele>
        <time>2015-03-30T08:41:39Z</time>
      </trkpt>
      <trkpt lat="41.051904" lon="-6.807802">
        <ele>254.421</ele>
        <time>2015-03-30T08:41:40Z</time>
      </trkpt>
      <trkpt lat="41.051919" lon="-6.807809">
        <ele>254.907</ele>
        <time>2015-03-30T08:41:41Z</time>
      </trkpt>
      <trkpt lat="41.051936" lon="-6.807810">
        <ele>255.412</ele>
        <time>2015-03-30T08:41:42Z</time>
      </trkpt>
      <trkpt lat="41.051948" lon="-6.807813">
        <ele>255.427</ele>
        <time>2015-03-30T08:41:43Z</time>
      </trkpt>
      <trkpt lat="41.051961" lon="-6.807819">
        <ele>255.482</ele>
        <time>2015-03-30T08:41:44Z</time>
      </trkpt>
      <trkpt lat="41.051977" lon="-6.807828">
        <ele>255.936</ele>
        <time>2015-03-30T08:41:45Z</time>
      </trkpt>
      <trkpt lat="41.051992" lon="-6.807838">
        <ele>256.396</ele>
        <time>2015-03-30T08:41:46Z</time>
      </trkpt>
      <trkpt lat="41.052006" lon="-6.807849">
        <ele>256.319</ele>
        <time>2015-03-30T08:41:47Z</time>
      </trkpt>
      <trkpt lat="41.052024" lon="-6.807856">
        <ele>256.824</ele>
        <time>2015-03-30T08:41:48Z</time>
      </trkpt>
      <trkpt lat="41.052042" lon="-6.807863">
        <ele>256.832</ele>
        <time>2015-03-30T08:41:49Z</time>
      </trkpt>
      <trkpt lat="41.052060" lon="-6.807871">
        <ele>256.892</ele>
        <time>2015-03-30T08:41:50Z</time>
      </trkpt>
      <trkpt lat="41.052078" lon="-6.807878">
        <ele>257.311</ele>
        <time>2015-03-30T08:41:51Z</time>
      </trkpt>
      <trkpt lat="41.052096" lon="-6.807885">
        <ele>257.807</ele>
        <time>2015-03-30T08:41:52Z</time>
      </trkpt>
      <trkpt lat="41.052109" lon="-6.807894">
        <ele>257.872</ele>
        <time>2015-03-30T08:41:53Z</time>
      </trkpt>
      <trkpt lat="41.052122" lon="-6.807906">
        <ele>258.397</ele>
        <time>2015-03-30T08:41:54Z</time>
      </trkpt>
      <trkpt lat="41.052144" lon="-6.807922">
        <ele>258.362</ele>
        <time>2015-03-30T08:41:56Z</time>
      </trkpt>
      <trkpt lat="41.052183" lon="-6.807940">
        <ele>259.256</ele>
        <time>2015-03-30T08:41:59Z</time>
      </trkpt>
      <trkpt lat="41.052196" lon="-6.807948">
        <ele>259.226</ele>
        <time>2015-03-30T08:42:00Z</time>
      </trkpt>
      <trkpt lat="41.052209" lon="-6.807956">
        <ele>259.249</ele>
        <time>2015-03-30T08:42:01Z</time>
      </trkpt>
      <trkpt lat="41.052221" lon="-6.807960">
        <ele>259.734</ele>
        <time>2015-03-30T08:42:02Z</time>
      </trkpt>
      <trkpt lat="41.052234" lon="-6.807963">
        <ele>259.717</ele>
        <time>2015-03-30T08:42:03Z</time>
      </trkpt>
      <trkpt lat="41.052246" lon="-6.807975">
        <ele>260.287</ele>
        <time>2015-03-30T08:42:04Z</time>
      </trkpt>
      <trkpt lat="41.052259" lon="-6.807981">
        <ele>260.215</ele>
        <time>2015-03-30T08:42:05Z</time>
      </trkpt>
      <trkpt lat="41.052274" lon="-6.807986">
        <ele>260.207</ele>
        <time>2015-03-30T08:42:06Z</time>
      </trkpt>
      <trkpt lat="41.052288" lon="-6.807986">
        <ele>260.710</ele>
        <time>2015-03-30T08:42:07Z</time>
      </trkpt>
      <trkpt lat="41.052301" lon="-6.807989">
        <ele>260.715</ele>
        <time>2015-03-30T08:42:08Z</time>
      </trkpt>
      <trkpt lat="41.052316" lon="-6.808003">
        <ele>261.120</ele>
        <time>2015-03-30T08:42:09Z</time>
      </trkpt>
      <trkpt lat="41.052330" lon="-6.808017">
        <ele>261.164</ele>
        <time>2015-03-30T08:42:10Z</time>
      </trkpt>
      <trkpt lat="41.052349" lon="-6.808027">
        <ele>261.624</ele>
        <time>2015-03-30T08:42:11Z</time>
      </trkpt>
      <trkpt lat="41.052409" lon="-6.808042">
        <ele>262.627</ele>
        <time>2015-03-30T08:42:15Z</time>
      </trkpt>
      <trkpt lat="41.052564" lon="-6.808136">
        <ele>264.522</ele>
        <time>2015-03-30T08:42:26Z</time>
      </trkpt>
      <trkpt lat="41.052604" lon="-6.808147">
        <ele>265.095</ele>
        <time>2015-03-30T08:42:29Z</time>
      </trkpt>
      <trkpt lat="41.052614" lon="-6.808161">
        <ele>265.549</ele>
        <time>2015-03-30T08:42:30Z</time>
      </trkpt>
      <trkpt lat="41.052626" lon="-6.808176">
        <ele>265.523</ele>
        <time>2015-03-30T08:42:31Z</time>
      </trkpt>
      <trkpt lat="41.052679" lon="-6.808234">
        <ele>266.407</ele>
        <time>2015-03-30T08:42:35Z</time>
      </trkpt>
      <trkpt lat="41.052689" lon="-6.808253">
        <ele>266.428</ele>
        <time>2015-03-30T08:42:36Z</time>
      </trkpt>
      <trkpt lat="41.052700" lon="-6.808268">
        <ele>266.473</ele>
        <time>2015-03-30T08:42:37Z</time>
      </trkpt>
      <trkpt lat="41.052763" lon="-6.808450">
        <ele>268.478</ele>
        <time>2015-03-30T08:42:46Z</time>
      </trkpt>
      <trkpt lat="41.052749" lon="-6.808672">
        <ele>269.812</ele>
        <time>2015-03-30T08:42:56Z</time>
      </trkpt>
      <trkpt lat="41.052593" lon="-6.808878">
        <ele>271.262</ele>
        <time>2015-03-30T08:43:07Z</time>
      </trkpt>
      <trkpt lat="41.052380" lon="-6.809000">
        <ele>272.765</ele>
        <time>2015-03-30T08:43:18Z</time>
      </trkpt>
      <trkpt lat="41.052323" lon="-6.809033">
        <ele>272.750</ele>
        <time>2015-03-30T08:43:21Z</time>
      </trkpt>
      <trkpt lat="41.052299" lon="-6.809037">
        <ele>273.226</ele>
        <time>2015-03-30T08:43:22Z</time>
      </trkpt>
      <trkpt lat="41.052278" lon="-6.809045">
        <ele>273.247</ele>
        <time>2015-03-30T08:43:23Z</time>
      </trkpt>
      <trkpt lat="41.052257" lon="-6.809051">
        <ele>273.611</ele>
        <time>2015-03-30T08:43:24Z</time>
      </trkpt>
      <trkpt lat="41.052236" lon="-6.809056">
        <ele>273.607</ele>
        <time>2015-03-30T08:43:25Z</time>
      </trkpt>
      <trkpt lat="41.052215" lon="-6.809063">
        <ele>273.641</ele>
        <time>2015-03-30T08:43:26Z</time>
      </trkpt>
      <trkpt lat="41.052196" lon="-6.809074">
        <ele>273.646</ele>
        <time>2015-03-30T08:43:27Z</time>
      </trkpt>
      <trkpt lat="41.051972" lon="-6.809166">
        <ele>275.111</ele>
        <time>2015-03-30T08:43:38Z</time>
      </trkpt>
      <trkpt lat="41.051758" lon="-6.809151">
        <ele>276.015</ele>
        <time>2015-03-30T08:43:48Z</time>
      </trkpt>
      <trkpt lat="41.051552" lon="-6.809061">
        <ele>277.575</ele>
        <time>2015-03-30T08:43:58Z</time>
      </trkpt>
      <trkpt lat="41.051342" lon="-6.808933">
        <ele>278.038</ele>
        <time>2015-03-30T08:44:08Z</time>
      </trkpt>
      <trkpt lat="41.051260" lon="-6.808886">
        <ele>278.463</ele>
        <time>2015-03-30T08:44:12Z</time>
      </trkpt>
      <trkpt lat="41.050982" lon="-6.808914">
        <ele>279.919</ele>
        <time>2015-03-30T08:44:24Z</time>
      </trkpt>
      <trkpt lat="41.050859" lon="-6.809036">
        <ele>281.309</ele>
        <time>2015-03-30T08:44:32Z</time>
      </trkpt>
      <trkpt lat="41.050775" lon="-6.809226">
        <ele>282.819</ele>
        <time>2015-03-30T08:44:41Z</time>
      </trkpt>
      <trkpt lat="41.050765" lon="-6.809240">
        <ele>283.307</ele>
        <time>2015-03-30T08:44:42Z</time>
      </trkpt>
      <trkpt lat="41.050757" lon="-6.809256">
        <ele>283.310</ele>
        <time>2015-03-30T08:44:43Z</time>
      </trkpt>
      <trkpt lat="41.050752" lon="-6.809278">
        <ele>283.355</ele>
        <time>2015-03-30T08:44:44Z</time>
      </trkpt>
      <trkpt lat="41.050750" lon="-6.809301">
        <ele>283.780</ele>
        <time>2015-03-30T08:44:45Z</time>
      </trkpt>
      <trkpt lat="41.050746" lon="-6.809322">
        <ele>283.784</ele>
        <time>2015-03-30T08:44:46Z</time>
      </trkpt>
      <trkpt lat="41.050740" lon="-6.809344">
        <ele>283.714</ele>
        <time>2015-03-30T08:44:47Z</time>
      </trkpt>
      <trkpt lat="41.050736" lon="-6.809363">
        <ele>284.267</ele>
        <time>2015-03-30T08:44:48Z</time>
      </trkpt>
      <trkpt lat="41.050731" lon="-6.809386">
        <ele>284.272</ele>
        <time>2015-03-30T08:44:49Z</time>
      </trkpt>
      <trkpt lat="41.050661" lon="-6.809589">
        <ele>286.186</ele>
        <time>2015-03-30T08:44:59Z</time>
      </trkpt>
      <trkpt lat="41.050642" lon="-6.809644">
        <ele>287.160</ele>
        <time>2015-03-30T08:45:02Z</time>
      </trkpt>
      <trkpt lat="41.050642" lon="-6.809664">
        <ele>287.126</ele>
        <time>2015-03-30T08:45:03Z</time>
      </trkpt>
      <trkpt lat="41.050639" lon="-6.809683">
        <ele>287.607</ele>
        <time>2015-03-30T08:45:04Z</time>
      </trkpt>
      <trkpt lat="41.050632" lon="-6.809703">
        <ele>287.697</ele>
        <time>2015-03-30T08:45:05Z</time>
      </trkpt>
      <trkpt lat="41.050622" lon="-6.809723">
        <ele>287.662</ele>
        <time>2015-03-30T08:45:06Z</time>
      </trkpt>
      <trkpt lat="41.050591" lon="-6.809959">
        <ele>290.087</ele>
        <time>2015-03-30T08:45:17Z</time>
      </trkpt>
      <trkpt lat="41.050595" lon="-6.809975">
        <ele>290.051</ele>
        <time>2015-03-30T08:45:18Z</time>
      </trkpt>
      <trkpt lat="41.050602" lon="-6.809998">
        <ele>290.041</ele>
        <time>2015-03-30T08:45:19Z</time>
      </trkpt>
      <trkpt lat="41.050603" lon="-6.810021">
        <ele>290.554</ele>
        <time>2015-03-30T08:45:20Z</time>
      </trkpt>
      <trkpt lat="41.050602" lon="-6.810043">
        <ele>290.529</ele>
        <time>2015-03-30T08:45:21Z</time>
      </trkpt>
      <trkpt lat="41.050601" lon="-6.810069">
        <ele>290.963</ele>
        <time>2015-03-30T08:45:22Z</time>
      </trkpt>
      <trkpt lat="41.050603" lon="-6.810092">
        <ele>290.944</ele>
        <time>2015-03-30T08:45:23Z</time>
      </trkpt>
      <trkpt lat="41.050606" lon="-6.810117">
        <ele>291.418</ele>
        <time>2015-03-30T08:45:24Z</time>
      </trkpt>
      <trkpt lat="41.050608" lon="-6.810142">
        <ele>291.407</ele>
        <time>2015-03-30T08:45:25Z</time>
      </trkpt>
      <trkpt lat="41.050606" lon="-6.810208">
        <ele>292.425</ele>
        <time>2015-03-30T08:45:28Z</time>
      </trkpt>
      <trkpt lat="41.050603" lon="-6.810229">
        <ele>292.450</ele>
        <time>2015-03-30T08:45:29Z</time>
      </trkpt>
      <trkpt lat="41.050610" lon="-6.810249">
        <ele>292.965</ele>
        <time>2015-03-30T08:45:30Z</time>
      </trkpt>
      <trkpt lat="41.050621" lon="-6.810260">
        <ele>292.919</ele>
        <time>2015-03-30T08:45:31Z</time>
      </trkpt>
      <trkpt lat="41.050633" lon="-6.810271">
        <ele>292.949</ele>
        <time>2015-03-30T08:45:32Z</time>
      </trkpt>
      <trkpt lat="41.050644" lon="-6.810285">
        <ele>293.342</ele>
        <time>2015-03-30T08:45:33Z</time>
      </trkpt>
      <trkpt lat="41.050645" lon="-6.810303">
        <ele>293.317</ele>
        <time>2015-03-30T08:45:34Z</time>
      </trkpt>
      <trkpt lat="41.050645" lon="-6.810327">
        <ele>293.368</ele>
        <time>2015-03-30T08:45:35Z</time>
      </trkpt>
      <trkpt lat="41.050646" lon="-6.810352">
        <ele>293.842</ele>
        <time>2015-03-30T08:45:36Z</time>
      </trkpt>
      <trkpt lat="41.050662" lon="-6.810532">
        <ele>295.726</ele>
        <time>2015-03-30T08:45:45Z</time>
      </trkpt>
      <trkpt lat="41.050666" lon="-6.810557">
        <ele>296.707</ele>
        <time>2015-03-30T08:45:46Z</time>
      </trkpt>
      <trkpt lat="41.050673" lon="-6.810577">
        <ele>296.255</ele>
        <time>2015-03-30T08:45:47Z</time>
      </trkpt>
      <trkpt lat="41.050681" lon="-6.810595">
        <ele>296.280</ele>
        <time>2015-03-30T08:45:48Z</time>
      </trkpt>
      <trkpt lat="41.050689" lon="-6.810615">
        <ele>296.715</ele>
        <time>2015-03-30T08:45:49Z</time>
      </trkpt>
      <trkpt lat="41.050691" lon="-6.810641">
        <ele>296.769</ele>
        <time>2015-03-30T08:45:50Z</time>
      </trkpt>
      <trkpt lat="41.050690" lon="-6.810665">
        <ele>297.299</ele>
        <time>2015-03-30T08:45:51Z</time>
      </trkpt>
      <trkpt lat="41.050687" lon="-6.810686">
        <ele>297.282</ele>
        <time>2015-03-30T08:45:52Z</time>
      </trkpt>
      <trkpt lat="41.050682" lon="-6.810710">
        <ele>297.777</ele>
        <time>2015-03-30T08:45:53Z</time>
      </trkpt>
      <trkpt lat="41.050680" lon="-6.810734">
        <ele>297.797</ele>
        <time>2015-03-30T08:45:54Z</time>
      </trkpt>
      <trkpt lat="41.050697" lon="-6.810857">
        <ele>299.123</ele>
        <time>2015-03-30T08:46:00Z</time>
      </trkpt>
      <trkpt lat="41.050697" lon="-6.810876">
        <ele>299.125</ele>
        <time>2015-03-30T08:46:01Z</time>
      </trkpt>
      <trkpt lat="41.050695" lon="-6.810892">
        <ele>299.607</ele>
        <time>2015-03-30T08:46:02Z</time>
      </trkpt>
      <trkpt lat="41.050688" lon="-6.810906">
        <ele>299.698</ele>
        <time>2015-03-30T08:46:03Z</time>
      </trkpt>
      <trkpt lat="41.050680" lon="-6.810921">
        <ele>299.663</ele>
        <time>2015-03-30T08:46:04Z</time>
      </trkpt>
      <trkpt lat="41.050673" lon="-6.810939">
        <ele>299.658</ele>
        <time>2015-03-30T08:46:05Z</time>
      </trkpt>
      <trkpt lat="41.050670" lon="-6.810960">
        <ele>300.112</ele>
        <time>2015-03-30T08:46:06Z</time>
      </trkpt>
      <trkpt lat="41.050668" lon="-6.810979">
        <ele>300.632</ele>
        <time>2015-03-30T08:46:07Z</time>
      </trkpt>
      <trkpt lat="41.050635" lon="-6.811070">
        <ele>301.035</ele>
        <time>2015-03-30T08:46:12Z</time>
      </trkpt>
      <trkpt lat="41.050621" lon="-6.811079">
        <ele>301.580</ele>
        <time>2015-03-30T08:46:13Z</time>
      </trkpt>
      <trkpt lat="41.050535" lon="-6.811163">
        <ele>303.063</ele>
        <time>2015-03-30T08:46:20Z</time>
      </trkpt>
      <trkpt lat="41.050522" lon="-6.811174">
        <ele>303.044</ele>
        <time>2015-03-30T08:46:21Z</time>
      </trkpt>
      <trkpt lat="41.050494" lon="-6.811190">
        <ele>303.418</ele>
        <time>2015-03-30T08:46:23Z</time>
      </trkpt>
      <trkpt lat="41.050477" lon="-6.811189">
        <ele>303.407</ele>
        <time>2015-03-30T08:46:24Z</time>
      </trkpt>
      <trkpt lat="41.050461" lon="-6.811190">
        <ele>303.435</ele>
        <time>2015-03-30T08:46:25Z</time>
      </trkpt>
      <trkpt lat="41.050443" lon="-6.811194">
        <ele>303.910</ele>
        <time>2015-03-30T08:46:26Z</time>
      </trkpt>
      <trkpt lat="41.050426" lon="-6.811195">
        <ele>303.995</ele>
        <time>2015-03-30T08:46:27Z</time>
      </trkpt>
      <trkpt lat="41.050330" lon="-6.811247">
        <ele>304.939</ele>
        <time>2015-03-30T08:46:33Z</time>
      </trkpt>
      <trkpt lat="41.050316" lon="-6.811250">
        <ele>305.479</ele>
        <time>2015-03-30T08:46:34Z</time>
      </trkpt>
      <trkpt lat="41.050302" lon="-6.811251">
        <ele>305.432</ele>
        <time>2015-03-30T08:46:35Z</time>
      </trkpt>
      <trkpt lat="41.050250" lon="-6.811255">
        <ele>305.847</ele>
        <time>2015-03-30T08:46:38Z</time>
      </trkpt>
      <trkpt lat="41.050235" lon="-6.811263">
        <ele>306.367</ele>
        <time>2015-03-30T08:46:39Z</time>
      </trkpt>
      <trkpt lat="41.050217" lon="-6.811270">
        <ele>306.381</ele>
        <time>2015-03-30T08:46:40Z</time>
      </trkpt>
      <trkpt lat="41.050199" lon="-6.811273">
        <ele>306.319</ele>
        <time>2015-03-30T08:46:41Z</time>
      </trkpt>
      <trkpt lat="41.050180" lon="-6.811275">
        <ele>306.807</ele>
        <time>2015-03-30T08:46:42Z</time>
      </trkpt>
      <trkpt lat="41.050160" lon="-6.811276">
        <ele>306.825</ele>
        <time>2015-03-30T08:46:43Z</time>
      </trkpt>
      <trkpt lat="41.050144" lon="-6.811282">
        <ele>306.890</ele>
        <time>2015-03-30T08:46:44Z</time>
      </trkpt>
      <trkpt lat="41.050028" lon="-6.811348">
        <ele>308.265</ele>
        <time>2015-03-30T08:46:52Z</time>
      </trkpt>
      <trkpt lat="41.050017" lon="-6.811368">
        <ele>308.729</ele>
        <time>2015-03-30T08:46:53Z</time>
      </trkpt>
      <trkpt lat="41.050006" lon="-6.811385">
        <ele>308.799</ele>
        <time>2015-03-30T08:46:54Z</time>
      </trkpt>
      <trkpt lat="41.049991" lon="-6.811398">
        <ele>308.742</ele>
        <time>2015-03-30T08:46:55Z</time>
      </trkpt>
      <trkpt lat="41.049975" lon="-6.811412">
        <ele>309.247</ele>
        <time>2015-03-30T08:46:56Z</time>
      </trkpt>
      <trkpt lat="41.049832" lon="-6.811529">
        <ele>310.652</ele>
        <time>2015-03-30T08:47:04Z</time>
      </trkpt>
      <trkpt lat="41.049782" lon="-6.811624">
        <ele>312.153</ele>
        <time>2015-03-30T08:47:10Z</time>
      </trkpt>
      <trkpt lat="41.049772" lon="-6.811637">
        <ele>312.108</ele>
        <time>2015-03-30T08:47:11Z</time>
      </trkpt>
      <trkpt lat="41.049731" lon="-6.811698">
        <ele>313.107</ele>
        <time>2015-03-30T08:47:15Z</time>
      </trkpt>
      <trkpt lat="41.049723" lon="-6.811715">
        <ele>313.124</ele>
        <time>2015-03-30T08:47:16Z</time>
      </trkpt>
      <trkpt lat="41.049716" lon="-6.811734">
        <ele>313.519</ele>
        <time>2015-03-30T08:47:17Z</time>
      </trkpt>
      <trkpt lat="41.049690" lon="-6.811841">
        <ele>314.544</ele>
        <time>2015-03-30T08:47:22Z</time>
      </trkpt>
      <trkpt lat="41.049692" lon="-6.811865">
        <ele>314.588</ele>
        <time>2015-03-30T08:47:23Z</time>
      </trkpt>
      <trkpt lat="41.049688" lon="-6.811889">
        <ele>314.528</ele>
        <time>2015-03-30T08:47:24Z</time>
      </trkpt>
      <trkpt lat="41.049677" lon="-6.811907">
        <ele>315.021</ele>
        <time>2015-03-30T08:47:25Z</time>
      </trkpt>
      <trkpt lat="41.049667" lon="-6.811923">
        <ele>315.096</ele>
        <time>2015-03-30T08:47:26Z</time>
      </trkpt>
      <trkpt lat="41.049658" lon="-6.811941">
        <ele>315.044</ele>
        <time>2015-03-30T08:47:27Z</time>
      </trkpt>
      <trkpt lat="41.049650" lon="-6.811960">
        <ele>315.005</ele>
        <time>2015-03-30T08:47:28Z</time>
      </trkpt>
      <trkpt lat="41.049644" lon="-6.811982">
        <ele>315.515</ele>
        <time>2015-03-30T08:47:29Z</time>
      </trkpt>
      <trkpt lat="41.049628" lon="-6.812020">
        <ele>315.507</ele>
        <time>2015-03-30T08:47:31Z</time>
      </trkpt>
      <trkpt lat="41.049616" lon="-6.812035">
        <ele>315.973</ele>
        <time>2015-03-30T08:47:32Z</time>
      </trkpt>
      <trkpt lat="41.049597" lon="-6.812073">
        <ele>316.488</ele>
        <time>2015-03-30T08:47:34Z</time>
      </trkpt>
      <trkpt lat="41.049587" lon="-6.812144">
        <ele>316.963</ele>
        <time>2015-03-30T08:47:37Z</time>
      </trkpt>
      <trkpt lat="41.049576" lon="-6.812163">
        <ele>315.017</ele>
        <time>2015-03-30T08:47:38Z</time>
      </trkpt>
      <trkpt lat="41.049561" lon="-6.812177">
        <ele>318.887</ele>
        <time>2015-03-30T08:47:39Z</time>
      </trkpt>
      <trkpt lat="41.049451" lon="-6.812252">
        <ele>315.090</ele>
        <time>2015-03-30T08:47:47Z</time>
      </trkpt>
      <trkpt lat="41.049437" lon="-6.812260">
        <ele>320.375</ele>
        <time>2015-03-30T08:47:48Z</time>
      </trkpt>
      <trkpt lat="41.049362" lon="-6.812291">
        <ele>319.831</ele>
        <time>2015-03-30T08:47:53Z</time>
      </trkpt>
      <trkpt lat="41.049205" lon="-6.812280">
        <ele>321.761</ele>
        <time>2015-03-30T08:48:02Z</time>
      </trkpt>
      <trkpt lat="41.049193" lon="-6.812293">
        <ele>321.707</ele>
        <time>2015-03-30T08:48:03Z</time>
      </trkpt>
      <trkpt lat="41.049179" lon="-6.812302">
        <ele>321.707</ele>
        <time>2015-03-30T08:48:04Z</time>
      </trkpt>
      <trkpt lat="41.049158" lon="-6.812301">
        <ele>322.242</ele>
        <time>2015-03-30T08:48:05Z</time>
      </trkpt>
      <trkpt lat="41.049138" lon="-6.812300">
        <ele>322.227</ele>
        <time>2015-03-30T08:48:06Z</time>
      </trkpt>
      <trkpt lat="41.049122" lon="-6.812299">
        <ele>322.772</ele>
        <time>2015-03-30T08:48:07Z</time>
      </trkpt>
      <trkpt lat="41.049107" lon="-6.812299">
        <ele>322.716</ele>
        <time>2015-03-30T08:48:08Z</time>
      </trkpt>
      <trkpt lat="41.049093" lon="-6.812302">
        <ele>322.746</ele>
        <time>2015-03-30T08:48:09Z</time>
      </trkpt>
      <trkpt lat="41.049078" lon="-6.812302">
        <ele>323.129</ele>
        <time>2015-03-30T08:48:10Z</time>
      </trkpt>
      <trkpt lat="41.049052" lon="-6.812301">
        <ele>323.684</ele>
        <time>2015-03-30T08:48:12Z</time>
      </trkpt>
      <trkpt lat="41.049039" lon="-6.812295">
        <ele>323.631</ele>
        <time>2015-03-30T08:48:13Z</time>
      </trkpt>
      <trkpt lat="41.048972" lon="-6.812259">
        <ele>324.661</ele>
        <time>2015-03-30T08:48:17Z</time>
      </trkpt>
      <trkpt lat="41.048955" lon="-6.812263">
        <ele>324.607</ele>
        <time>2015-03-30T08:48:18Z</time>
      </trkpt>
      <trkpt lat="41.048941" lon="-6.812263">
        <ele>325.107</ele>
        <time>2015-03-30T08:48:19Z</time>
      </trkpt>
      <trkpt lat="41.048926" lon="-6.812256">
        <ele>325.152</ele>
        <time>2015-03-30T08:48:20Z</time>
      </trkpt>
      <trkpt lat="41.048912" lon="-6.812251">
        <ele>325.197</ele>
        <time>2015-03-30T08:48:21Z</time>
      </trkpt>
      <trkpt lat="41.048827" lon="-6.812267">
        <ele>326.562</ele>
        <time>2015-03-30T08:48:27Z</time>
      </trkpt>
      <trkpt lat="41.048818" lon="-6.812285">
        <ele>326.576</ele>
        <time>2015-03-30T08:48:28Z</time>
      </trkpt>
      <trkpt lat="41.048812" lon="-6.812301">
        <ele>326.516</ele>
        <time>2015-03-30T08:48:29Z</time>
      </trkpt>
      <trkpt lat="41.048802" lon="-6.812374">
        <ele>327.569</ele>
        <time>2015-03-30T08:48:33Z</time>
      </trkpt>
      <trkpt lat="41.048806" lon="-6.812392">
        <ele>328.084</ele>
        <time>2015-03-30T08:48:34Z</time>
      </trkpt>
      <trkpt lat="41.048814" lon="-6.812412">
        <ele>328.057</ele>
        <time>2015-03-30T08:48:35Z</time>
      </trkpt>
      <trkpt lat="41.048825" lon="-6.812428">
        <ele>328.000</ele>
        <time>2015-03-30T08:48:36Z</time>
      </trkpt>
      <trkpt lat="41.048835" lon="-6.812439">
        <ele>328.420</ele>
        <time>2015-03-30T08:48:37Z</time>
      </trkpt>
      <trkpt lat="41.048850" lon="-6.812449">
        <ele>328.407</ele>
        <time>2015-03-30T08:48:38Z</time>
      </trkpt>
      <trkpt lat="41.048866" lon="-6.812452">
        <ele>328.464</ele>
        <time>2015-03-30T08:48:39Z</time>
      </trkpt>
      <trkpt lat="41.048880" lon="-6.812453">
        <ele>328.929</ele>
        <time>2015-03-30T08:48:40Z</time>
      </trkpt>
      <trkpt lat="41.048898" lon="-6.812456">
        <ele>328.434</ele>
        <time>2015-03-30T08:48:41Z</time>
      </trkpt>
      <trkpt lat="41.048915" lon="-6.812461">
        <ele>328.918</ele>
        <time>2015-03-30T08:48:42Z</time>
      </trkpt>
      <trkpt lat="41.048933" lon="-6.812464">
        <ele>328.948</ele>
        <time>2015-03-30T08:48:43Z</time>
      </trkpt>
      <trkpt lat="41.048952" lon="-6.812462">
        <ele>328.951</ele>
        <time>2015-03-30T08:48:44Z</time>
      </trkpt>
      <trkpt lat="41.048970" lon="-6.812460">
        <ele>329.416</ele>
        <time>2015-03-30T08:48:45Z</time>
      </trkpt>
      <trkpt lat="41.048988" lon="-6.812466">
        <ele>329.477</ele>
        <time>2015-03-30T08:48:46Z</time>
      </trkpt>
      <trkpt lat="41.049006" lon="-6.812474">
        <ele>329.461</ele>
        <time>2015-03-30T08:48:47Z</time>
      </trkpt>
      <trkpt lat="41.049102" lon="-6.812477">
        <ele>330.427</ele>
        <time>2015-03-30T08:48:53Z</time>
      </trkpt>
      <trkpt lat="41.049120" lon="-6.812475">
        <ele>329.907</ele>
        <time>2015-03-30T08:48:54Z</time>
      </trkpt>
      <trkpt lat="41.049137" lon="-6.812480">
        <ele>330.486</ele>
        <time>2015-03-30T08:48:55Z</time>
      </trkpt>
      <trkpt lat="41.049156" lon="-6.812484">
        <ele>330.441</ele>
        <time>2015-03-30T08:48:56Z</time>
      </trkpt>
      <trkpt lat="41.049173" lon="-6.812483">
        <ele>330.416</ele>
        <time>2015-03-30T08:48:57Z</time>
      </trkpt>
      <trkpt lat="41.049191" lon="-6.812483">
        <ele>330.850</ele>
        <time>2015-03-30T08:48:58Z</time>
      </trkpt>
      <trkpt lat="41.049206" lon="-6.812484">
        <ele>330.850</ele>
        <time>2015-03-30T08:48:59Z</time>
      </trkpt>
      <trkpt lat="41.049220" lon="-6.812487">
        <ele>330.893</ele>
        <time>2015-03-30T08:49:00Z</time>
      </trkpt>
      <trkpt lat="41.049235" lon="-6.812487">
        <ele>330.828</ele>
        <time>2015-03-30T08:49:01Z</time>
      </trkpt>
      <trkpt lat="41.049320" lon="-6.812509">
        <ele>331.846</ele>
        <time>2015-03-30T08:49:11Z</time>
      </trkpt>
      <trkpt lat="41.049305" lon="-6.812538">
        <ele>331.888</ele>
        <time>2015-03-30T08:49:17Z</time>
      </trkpt>
      <trkpt lat="41.049295" lon="-6.812596">
        <ele>331.816</ele>
        <time>2015-03-30T08:49:26Z</time>
      </trkpt>
      <trkpt lat="41.049294" lon="-6.812592">
        <ele>331.807</ele>
        <time>2015-03-30T08:49:39Z</time>
      </trkpt>
      <trkpt lat="41.049291" lon="-6.812582">
        <ele>331.843</ele>
        <time>2015-03-30T08:49:56Z</time>
      </trkpt>
      <trkpt lat="41.049293" lon="-6.812590">
        <ele>331.898</ele>
        <time>2015-03-30T08:50:14Z</time>
      </trkpt>
      <trkpt lat="41.049292" lon="-6.812593">
        <ele>331.863</ele>
        <time>2015-03-30T08:50:22Z</time>
      </trkpt>
      <trkpt lat="41.049290" lon="-6.812504">
        <ele>331.357</ele>
        <time>2015-03-30T08:50:29Z</time>
      </trkpt>
      <trkpt lat="41.049319" lon="-6.812511">
        <ele>331.327</ele>
        <time>2015-03-30T08:50:31Z</time>
      </trkpt>
      <trkpt lat="41.049452" lon="-6.812514">
        <ele>332.340</ele>
        <time>2015-03-30T08:50:40Z</time>
      </trkpt>
      <trkpt lat="41.049595" lon="-6.812518">
        <ele>333.215</ele>
        <time>2015-03-30T08:50:50Z</time>
      </trkpt>
      <trkpt lat="41.049707" lon="-6.812478">
        <ele>334.212</ele>
        <time>2015-03-30T08:50:58Z</time>
      </trkpt>
      <trkpt lat="41.049857" lon="-6.812410">
        <ele>334.732</ele>
        <time>2015-03-30T08:51:07Z</time>
      </trkpt>
      <trkpt lat="41.049875" lon="-6.812399">
        <ele>335.205</ele>
        <time>2015-03-30T08:51:08Z</time>
      </trkpt>
      <trkpt lat="41.050106" lon="-6.812267">
        <ele>336.607</ele>
        <time>2015-03-30T08:51:20Z</time>
      </trkpt>
      <trkpt lat="41.050376" lon="-6.812149">
        <ele>339.090</ele>
        <time>2015-03-30T08:51:33Z</time>
      </trkpt>
      <trkpt lat="41.050631" lon="-6.812100">
        <ele>340.425</ele>
        <time>2015-03-30T08:51:44Z</time>
      </trkpt>
      <trkpt lat="41.050978" lon="-6.812058">
        <ele>342.980</ele>
        <time>2015-03-30T08:51:59Z</time>
      </trkpt>
      <trkpt lat="41.051095" lon="-6.812010">
        <ele>343.334</ele>
        <time>2015-03-30T08:52:04Z</time>
      </trkpt>
      <trkpt lat="41.051179" lon="-6.811965">
        <ele>343.884</ele>
        <time>2015-03-30T08:52:08Z</time>
      </trkpt>
      <trkpt lat="41.051431" lon="-6.811826">
        <ele>345.717</ele>
        <time>2015-03-30T08:52:20Z</time>
      </trkpt>
      <trkpt lat="41.051668" lon="-6.811705">
        <ele>347.732</ele>
        <time>2015-03-30T08:52:31Z</time>
      </trkpt>
      <trkpt lat="41.051931" lon="-6.811614">
        <ele>349.619</ele>
        <time>2015-03-30T08:52:43Z</time>
      </trkpt>
      <trkpt lat="41.052187" lon="-6.811562">
        <ele>351.009</ele>
        <time>2015-03-30T08:52:55Z</time>
      </trkpt>
      <trkpt lat="41.052462" lon="-6.811564">
        <ele>352.919</ele>
        <time>2015-03-30T08:53:07Z</time>
      </trkpt>
      <trkpt lat="41.052787" lon="-6.811575">
        <ele>354.907</ele>
        <time>2015-03-30T08:53:21Z</time>
      </trkpt>
      <trkpt lat="41.052983" lon="-6.811480">
        <ele>356.350</ele>
        <time>2015-03-30T08:53:30Z</time>
      </trkpt>
      <trkpt lat="41.053232" lon="-6.811338">
        <ele>357.315</ele>
        <time>2015-03-30T08:53:42Z</time>
      </trkpt>
      <trkpt lat="41.053366" lon="-6.811262">
        <ele>358.780</ele>
        <time>2015-03-30T08:53:49Z</time>
      </trkpt>
      <trkpt lat="41.053605" lon="-6.811125">
        <ele>360.614</ele>
        <time>2015-03-30T08:54:01Z</time>
      </trkpt>
      <trkpt lat="41.053838" lon="-6.810986">
        <ele>362.624</ele>
        <time>2015-03-30T08:54:13Z</time>
      </trkpt>
      <trkpt lat="41.054069" lon="-6.810925">
        <ele>364.047</ele>
        <time>2015-03-30T08:54:23Z</time>
      </trkpt>
      <trkpt lat="41.054326" lon="-6.810884">
        <ele>365.052</ele>
        <time>2015-03-30T08:54:34Z</time>
      </trkpt>
      <trkpt lat="41.054514" lon="-6.810844">
        <ele>365.969</ele>
        <time>2015-03-30T08:54:42Z</time>
      </trkpt>
      <trkpt lat="41.054789" lon="-6.810824">
        <ele>367.404</ele>
        <time>2015-03-30T08:54:53Z</time>
      </trkpt>
      <trkpt lat="41.055107" lon="-6.810977">
        <ele>368.324</ele>
        <time>2015-03-30T08:55:06Z</time>
      </trkpt>
      <trkpt lat="41.055301" lon="-6.811104">
        <ele>369.307</ele>
        <time>2015-03-30T08:55:15Z</time>
      </trkpt>
      <trkpt lat="41.055564" lon="-6.811248">
        <ele>370.265</ele>
        <time>2015-03-30T08:55:27Z</time>
      </trkpt>
      <trkpt lat="41.055796" lon="-6.811349">
        <ele>371.770</ele>
        <time>2015-03-30T08:55:37Z</time>
      </trkpt>
      <trkpt lat="41.056083" lon="-6.811285">
        <ele>372.715</ele>
        <time>2015-03-30T08:55:48Z</time>
      </trkpt>
      <trkpt lat="41.056325" lon="-6.810981">
        <ele>374.679</ele>
        <time>2015-03-30T08:56:01Z</time>
      </trkpt>
      <trkpt lat="41.056508" lon="-6.810739">
        <ele>376.039</ele>
        <time>2015-03-30T08:56:12Z</time>
      </trkpt>
      <trkpt lat="41.056618" lon="-6.810642">
        <ele>376.552</ele>
        <time>2015-03-30T08:56:21Z</time>
      </trkpt>
      <trkpt lat="41.056653" lon="-6.810618">
        <ele>376.517</ele>
        <time>2015-03-30T08:56:24Z</time>
      </trkpt>
      <trkpt lat="41.056755" lon="-6.810542">
        <ele>377.058</ele>
        <time>2015-03-30T08:56:32Z</time>
      </trkpt>
      <trkpt lat="41.056893" lon="-6.810421">
        <ele>377.952</ele>
        <time>2015-03-30T08:56:41Z</time>
      </trkpt>
      <trkpt lat="41.057017" lon="-6.810169">
        <ele>378.917</ele>
        <time>2015-03-30T08:56:51Z</time>
      </trkpt>
      <trkpt lat="41.057084" lon="-6.809722">
        <ele>380.807</ele>
        <time>2015-03-30T08:57:06Z</time>
      </trkpt>
      <trkpt lat="41.057242" lon="-6.809444">
        <ele>381.864</ele>
        <time>2015-03-30T08:57:17Z</time>
      </trkpt>
      <trkpt lat="41.057429" lon="-6.809337">
        <ele>382.789</ele>
        <time>2015-03-30T08:57:26Z</time>
      </trkpt>
      <trkpt lat="41.057778" lon="-6.809208">
        <ele>384.794</ele>
        <time>2015-03-30T08:57:41Z</time>
      </trkpt>
      <trkpt lat="41.058014" lon="-6.809215">
        <ele>385.658</ele>
        <time>2015-03-30T08:57:51Z</time>
      </trkpt>
      <trkpt lat="41.058306" lon="-6.809188">
        <ele>387.118</ele>
        <time>2015-03-30T08:58:03Z</time>
      </trkpt>
      <trkpt lat="41.058534" lon="-6.809031">
        <ele>389.061</ele>
        <time>2015-03-30T08:58:14Z</time>
      </trkpt>
      <trkpt lat="41.058710" lon="-6.808822">
        <ele>390.466</ele>
        <time>2015-03-30T08:58:24Z</time>
      </trkpt>
      <trkpt lat="41.058931" lon="-6.808648">
        <ele>392.488</ele>
        <time>2015-03-30T08:58:36Z</time>
      </trkpt>
      <trkpt lat="41.058963" lon="-6.808642">
        <ele>392.824</ele>
        <time>2015-03-30T08:58:38Z</time>
      </trkpt>
      <trkpt lat="41.059148" lon="-6.808709">
        <ele>393.826</ele>
        <time>2015-03-30T08:58:48Z</time>
      </trkpt>
      <trkpt lat="41.059278" lon="-6.808869">
        <ele>394.807</ele>
        <time>2015-03-30T08:58:57Z</time>
      </trkpt>
      <trkpt lat="41.059297" lon="-6.808955">
        <ele>391.477</ele>
        <time>2015-03-30T08:59:00Z</time>
      </trkpt>
      <trkpt lat="41.059305" lon="-6.808982">
        <ele>397.242</ele>
        <time>2015-03-30T08:59:01Z</time>
      </trkpt>
      <trkpt lat="41.059356" lon="-6.809426">
        <ele>394.897</ele>
        <time>2015-03-30T08:59:14Z</time>
      </trkpt>
      <trkpt lat="41.059503" lon="-6.809770">
        <ele>395.771</ele>
        <time>2015-03-30T08:59:24Z</time>
      </trkpt>
      <trkpt lat="41.059819" lon="-6.809866">
        <ele>396.711</ele>
        <time>2015-03-30T08:59:34Z</time>
      </trkpt>
      <trkpt lat="41.060068" lon="-6.809966">
        <ele>397.654</ele>
        <time>2015-03-30T08:59:43Z</time>
      </trkpt>
      <trkpt lat="41.060298" lon="-6.810284">
        <ele>398.619</ele>
        <time>2015-03-30T08:59:54Z</time>
      </trkpt>
      <trkpt lat="41.060555" lon="-6.810480">
        <ele>400.189</ele>
        <time>2015-03-30T09:00:04Z</time>
      </trkpt>
      <trkpt lat="41.060821" lon="-6.810402">
        <ele>402.006</ele>
        <time>2015-03-30T09:00:14Z</time>
      </trkpt>
      <trkpt lat="41.061026" lon="-6.810286">
        <ele>403.926</ele>
        <time>2015-03-30T09:00:23Z</time>
      </trkpt>
      <trkpt lat="41.061235" lon="-6.810215">
        <ele>404.907</ele>
        <time>2015-03-30T09:00:32Z</time>
      </trkpt>
      <trkpt lat="41.061284" lon="-6.810211">
        <ele>405.357</ele>
        <time>2015-03-30T09:00:34Z</time>
      </trkpt>
      <trkpt lat="41.061530" lon="-6.810423">
        <ele>407.342</ele>
        <time>2015-03-30T09:00:47Z</time>
      </trkpt>
      <trkpt lat="41.061549" lon="-6.810719">
        <ele>408.727</ele>
        <time>2015-03-30T09:00:56Z</time>
      </trkpt>
      <trkpt lat="41.061426" lon="-6.811118">
        <ele>410.681</ele>
        <time>2015-03-30T09:01:09Z</time>
      </trkpt>
      <trkpt lat="41.061405" lon="-6.811209">
        <ele>411.111</ele>
        <time>2015-03-30T09:01:12Z</time>
      </trkpt>
      <trkpt lat="41.061452" lon="-6.811478">
        <ele>412.584</ele>
        <time>2015-03-30T09:01:21Z</time>
      </trkpt>
      <trkpt lat="41.061685" lon="-6.811789">
        <ele>415.039</ele>
        <time>2015-03-30T09:01:35Z</time>
      </trkpt>
      <trkpt lat="41.061913" lon="-6.811967">
        <ele>416.949</ele>
        <time>2015-03-30T09:01:46Z</time>
      </trkpt>
      <trkpt lat="41.062195" lon="-6.812273">
        <ele>417.402</ele>
        <time>2015-03-30T09:01:59Z</time>
      </trkpt>
      <trkpt lat="41.062417" lon="-6.812608">
        <ele>416.922</ele>
        <time>2015-03-30T09:02:09Z</time>
      </trkpt>
      <trkpt lat="41.062550" lon="-6.812818">
        <ele>415.907</ele>
        <time>2015-03-30T09:02:14Z</time>
      </trkpt>
      <trkpt lat="41.062582" lon="-6.812867">
        <ele>415.463</ele>
        <time>2015-03-30T09:02:15Z</time>
      </trkpt>
      <trkpt lat="41.063064" lon="-6.813402">
        <ele>413.528</ele>
        <time>2015-03-30T09:02:26Z</time>
      </trkpt>
      <trkpt lat="41.063497" lon="-6.814078">
        <ele>410.633</ele>
        <time>2015-03-30T09:02:36Z</time>
      </trkpt>
      <trkpt lat="41.064055" lon="-6.815147">
        <ele>407.787</ele>
        <time>2015-03-30T09:02:50Z</time>
      </trkpt>
      <trkpt lat="41.064436" lon="-6.815869">
        <ele>406.827</ele>
        <time>2015-03-30T09:03:01Z</time>
      </trkpt>
      <trkpt lat="41.064726" lon="-6.816377">
        <ele>406.350</ele>
        <time>2015-03-30T09:03:10Z</time>
      </trkpt>
      <trkpt lat="41.064768" lon="-6.816411">
        <ele>405.865</ele>
        <time>2015-03-30T09:03:11Z</time>
      </trkpt>
      <trkpt lat="41.064814" lon="-6.816414">
        <ele>406.316</ele>
        <time>2015-03-30T09:03:12Z</time>
      </trkpt>
      <trkpt lat="41.064857" lon="-6.816387">
        <ele>406.376</ele>
        <time>2015-03-30T09:03:13Z</time>
      </trkpt>
      <trkpt lat="41.064897" lon="-6.816348">
        <ele>406.313</ele>
        <time>2015-03-30T09:03:14Z</time>
      </trkpt>
      <trkpt lat="41.064932" lon="-6.816300">
        <ele>405.807</ele>
        <time>2015-03-30T09:03:15Z</time>
      </trkpt>
      <trkpt lat="41.064954" lon="-6.816239">
        <ele>406.380</ele>
        <time>2015-03-30T09:03:16Z</time>
      </trkpt>
      <trkpt lat="41.064965" lon="-6.816176">
        <ele>406.395</ele>
        <time>2015-03-30T09:03:17Z</time>
      </trkpt>
      <trkpt lat="41.064966" lon="-6.816115">
        <ele>406.370</ele>
        <time>2015-03-30T09:03:18Z</time>
      </trkpt>
      <trkpt lat="41.064963" lon="-6.816059">
        <ele>406.864</ele>
        <time>2015-03-30T09:03:19Z</time>
      </trkpt>
      <trkpt lat="41.064958" lon="-6.816009">
        <ele>406.874</ele>
        <time>2015-03-30T09:03:20Z</time>
      </trkpt>
      <trkpt lat="41.064905" lon="-6.815631">
        <ele>408.247</ele>
        <time>2015-03-30T09:03:29Z</time>
      </trkpt>
      <trkpt lat="41.064865" lon="-6.815278">
        <ele>410.662</ele>
        <time>2015-03-30T09:03:40Z</time>
      </trkpt>
      <trkpt lat="41.064850" lon="-6.814905">
        <ele>412.542</ele>
        <time>2015-03-30T09:03:53Z</time>
      </trkpt>
      <trkpt lat="41.064836" lon="-6.814565">
        <ele>414.522</ele>
        <time>2015-03-30T09:04:05Z</time>
      </trkpt>
      <trkpt lat="41.064840" lon="-6.814186">
        <ele>416.914</ele>
        <time>2015-03-30T09:04:18Z</time>
      </trkpt>
      <trkpt lat="41.064935" lon="-6.813818">
        <ele>418.807</ele>
        <time>2015-03-30T09:04:31Z</time>
      </trkpt>
      <trkpt lat="41.065094" lon="-6.813595">
        <ele>420.723</ele>
        <time>2015-03-30T09:04:41Z</time>
      </trkpt>
      <trkpt lat="41.065356" lon="-6.813420">
        <ele>423.118</ele>
        <time>2015-03-30T09:04:54Z</time>
      </trkpt>
      <trkpt lat="41.065601" lon="-6.813345">
        <ele>425.043</ele>
        <time>2015-03-30T09:05:06Z</time>
      </trkpt>
      <trkpt lat="41.065813" lon="-6.813357">
        <ele>426.527</ele>
        <time>2015-03-30T09:05:16Z</time>
      </trkpt>
      <trkpt lat="41.066062" lon="-6.813373">
        <ele>428.457</ele>
        <time>2015-03-30T09:05:28Z</time>
      </trkpt>
      <trkpt lat="41.066214" lon="-6.813261">
        <ele>429.920</ele>
        <time>2015-03-30T09:05:37Z</time>
      </trkpt>
      <trkpt lat="41.066228" lon="-6.813033">
        <ele>431.895</ele>
        <time>2015-03-30T09:05:46Z</time>
      </trkpt>
      <trkpt lat="41.066217" lon="-6.813010">
        <ele>431.891</ele>
        <time>2015-03-30T09:05:47Z</time>
      </trkpt>
      <trkpt lat="41.066209" lon="-6.812987">
        <ele>432.781</ele>
        <time>2015-03-30T09:05:48Z</time>
      </trkpt>
      <trkpt lat="41.066097" lon="-6.812759">
        <ele>433.219</ele>
        <time>2015-03-30T09:05:58Z</time>
      </trkpt>
      <trkpt lat="41.066087" lon="-6.812735">
        <ele>433.707</ele>
        <time>2015-03-30T09:05:59Z</time>
      </trkpt>
      <trkpt lat="41.066072" lon="-6.812713">
        <ele>433.758</ele>
        <time>2015-03-30T09:06:00Z</time>
      </trkpt>
      <trkpt lat="41.066056" lon="-6.812692">
        <ele>434.283</ele>
        <time>2015-03-30T09:06:01Z</time>
      </trkpt>
      <trkpt lat="41.066041" lon="-6.812666">
        <ele>434.778</ele>
        <time>2015-03-30T09:06:02Z</time>
      </trkpt>
      <trkpt lat="41.066028" lon="-6.812641">
        <ele>434.712</ele>
        <time>2015-03-30T09:06:03Z</time>
      </trkpt>
      <trkpt lat="41.066013" lon="-6.812617">
        <ele>434.792</ele>
        <time>2015-03-30T09:06:04Z</time>
      </trkpt>
      <trkpt lat="41.065995" lon="-6.812595">
        <ele>435.175</ele>
        <time>2015-03-30T09:06:05Z</time>
      </trkpt>
      <trkpt lat="41.065843" lon="-6.812355">
        <ele>436.660</ele>
        <time>2015-03-30T09:06:16Z</time>
      </trkpt>
      <trkpt lat="41.065697" lon="-6.812148">
        <ele>438.552</ele>
        <time>2015-03-30T09:06:26Z</time>
      </trkpt>
      <trkpt lat="41.065554" lon="-6.811950">
        <ele>439.953</ele>
        <time>2015-03-30T09:06:36Z</time>
      </trkpt>
      <trkpt lat="41.065401" lon="-6.811685">
        <ele>442.308</ele>
        <time>2015-03-30T09:06:48Z</time>
      </trkpt>
      <trkpt lat="41.065352" lon="-6.811374">
        <ele>444.307</ele>
        <time>2015-03-30T09:06:59Z</time>
      </trkpt>
      <trkpt lat="41.065439" lon="-6.811068">
        <ele>446.794</ele>
        <time>2015-03-30T09:07:10Z</time>
      </trkpt>
      <trkpt lat="41.065664" lon="-6.810816">
        <ele>448.619</ele>
        <time>2015-03-30T09:07:24Z</time>
      </trkpt>
      <trkpt lat="41.065847" lon="-6.810666">
        <ele>450.524</ele>
        <time>2015-03-30T09:07:33Z</time>
      </trkpt>
      <trkpt lat="41.066103" lon="-6.810517">
        <ele>452.498</ele>
        <time>2015-03-30T09:07:45Z</time>
      </trkpt>
      <trkpt lat="41.066378" lon="-6.810459">
        <ele>454.418</ele>
        <time>2015-03-30T09:07:57Z</time>
      </trkpt>
      <trkpt lat="41.066594" lon="-6.810407">
        <ele>458.231</ele>
        <time>2015-03-30T09:08:07Z</time>
      </trkpt>
      <trkpt lat="41.066771" lon="-6.810362">
        <ele>457.726</ele>
        <time>2015-03-30T09:08:16Z</time>
      </trkpt>
      <trkpt lat="41.067047" lon="-6.810308">
        <ele>459.777</ele>
        <time>2015-03-30T09:08:29Z</time>
      </trkpt>
      <trkpt lat="41.067123" lon="-6.810287">
        <ele>460.661</ele>
        <time>2015-03-30T09:08:33Z</time>
      </trkpt>
      <trkpt lat="41.067142" lon="-6.810286">
        <ele>460.627</ele>
        <time>2015-03-30T09:08:34Z</time>
      </trkpt>
      <trkpt lat="41.067160" lon="-6.810282">
        <ele>461.107</ele>
        <time>2015-03-30T09:08:35Z</time>
      </trkpt>
      <trkpt lat="41.067179" lon="-6.810275">
        <ele>461.116</ele>
        <time>2015-03-30T09:08:36Z</time>
      </trkpt>
      <trkpt lat="41.067196" lon="-6.810270">
        <ele>461.191</ele>
        <time>2015-03-30T09:08:37Z</time>
      </trkpt>
      <trkpt lat="41.067410" lon="-6.810227">
        <ele>463.046</ele>
        <time>2015-03-30T09:08:48Z</time>
      </trkpt>
      <trkpt lat="41.067613" lon="-6.810182">
        <ele>464.550</ele>
        <time>2015-03-30T09:08:59Z</time>
      </trkpt>
      <trkpt lat="41.067842" lon="-6.810128">
        <ele>466.420</ele>
        <time>2015-03-30T09:09:11Z</time>
      </trkpt>
      <trkpt lat="41.067911" lon="-6.810104">
        <ele>466.913</ele>
        <time>2015-03-30T09:09:15Z</time>
      </trkpt>
      <trkpt lat="41.068098" lon="-6.810074">
        <ele>468.898</ele>
        <time>2015-03-30T09:09:26Z</time>
      </trkpt>
      <trkpt lat="41.068254" lon="-6.810009">
        <ele>470.274</ele>
        <time>2015-03-30T09:09:35Z</time>
      </trkpt>
      <trkpt lat="41.068442" lon="-6.809919">
        <ele>471.756</ele>
        <time>2015-03-30T09:09:45Z</time>
      </trkpt>
      <trkpt lat="41.068651" lon="-6.809811">
        <ele>473.621</ele>
        <time>2015-03-30T09:09:56Z</time>
      </trkpt>
      <trkpt lat="41.068853" lon="-6.809693">
        <ele>475.507</ele>
        <time>2015-03-30T09:10:06Z</time>
      </trkpt>
      <trkpt lat="41.069120" lon="-6.809540">
        <ele>477.946</ele>
        <time>2015-03-30T09:10:19Z</time>
      </trkpt>
      <trkpt lat="41.069338" lon="-6.809420">
        <ele>479.451</ele>
        <time>2015-03-30T09:10:30Z</time>
      </trkpt>
      <trkpt lat="41.069599" lon="-6.809279">
        <ele>480.396</ele>
        <time>2015-03-30T09:10:42Z</time>
      </trkpt>
      <trkpt lat="41.069910" lon="-6.809113">
        <ele>482.290</ele>
        <time>2015-03-30T09:10:56Z</time>
      </trkpt>
      <trkpt lat="41.070191" lon="-6.808958">
        <ele>483.770</ele>
        <time>2015-03-30T09:11:08Z</time>
      </trkpt>
      <trkpt lat="41.070480" lon="-6.808863">
        <ele>485.123</ele>
        <time>2015-03-30T09:11:20Z</time>
      </trkpt>
      <trkpt lat="41.070658" lon="-6.808858">
        <ele>486.648</ele>
        <time>2015-03-30T09:11:28Z</time>
      </trkpt>
      <trkpt lat="41.070934" lon="-6.808855">
        <ele>488.542</ele>
        <time>2015-03-30T09:11:40Z</time>
      </trkpt>
      <trkpt lat="41.071152" lon="-6.808843">
        <ele>490.422</ele>
        <time>2015-03-30T09:11:50Z</time>
      </trkpt>
      <trkpt lat="41.071385" lon="-6.808841">
        <ele>492.314</ele>
        <time>2015-03-30T09:12:00Z</time>
      </trkpt>
      <trkpt lat="41.071576" lon="-6.808894">
        <ele>494.307</ele>
        <time>2015-03-30T09:12:09Z</time>
      </trkpt>
      <trkpt lat="41.071830" lon="-6.809077">
        <ele>496.733</ele>
        <time>2015-03-30T09:12:23Z</time>
      </trkpt>
      <trkpt lat="41.071882" lon="-6.809119">
        <ele>497.198</ele>
        <time>2015-03-30T09:12:26Z</time>
      </trkpt>
      <trkpt lat="41.071902" lon="-6.809127">
        <ele>497.153</ele>
        <time>2015-03-30T09:12:27Z</time>
      </trkpt>
      <trkpt lat="41.072133" lon="-6.809192">
        <ele>499.587</ele>
        <time>2015-03-30T09:12:39Z</time>
      </trkpt>
      <trkpt lat="41.072372" lon="-6.809133">
        <ele>501.597</ele>
        <time>2015-03-30T09:12:51Z</time>
      </trkpt>
      <trkpt lat="41.072572" lon="-6.809086">
        <ele>502.950</ele>
        <time>2015-03-30T09:13:01Z</time>
      </trkpt>
      <trkpt lat="41.072809" lon="-6.809033">
        <ele>504.815</ele>
        <time>2015-03-30T09:13:13Z</time>
      </trkpt>
      <trkpt lat="41.073011" lon="-6.809008">
        <ele>506.387</ele>
        <time>2015-03-30T09:13:23Z</time>
      </trkpt>
      <trkpt lat="41.073221" lon="-6.808976">
        <ele>507.742</ele>
        <time>2015-03-30T09:13:33Z</time>
      </trkpt>
      <trkpt lat="41.073364" lon="-6.808967">
        <ele>508.226</ele>
        <time>2015-03-30T09:13:40Z</time>
      </trkpt>
      <trkpt lat="41.073382" lon="-6.808963">
        <ele>508.207</ele>
        <time>2015-03-30T09:13:41Z</time>
      </trkpt>
      <trkpt lat="41.073614" lon="-6.808926">
        <ele>509.267</ele>
        <time>2015-03-30T09:13:52Z</time>
      </trkpt>
      <trkpt lat="41.073921" lon="-6.808892">
        <ele>511.122</ele>
        <time>2015-03-30T09:14:07Z</time>
      </trkpt>
      <trkpt lat="41.074070" lon="-6.808877">
        <ele>512.017</ele>
        <time>2015-03-30T09:14:15Z</time>
      </trkpt>
      <trkpt lat="41.074252" lon="-6.808861">
        <ele>514.061</ele>
        <time>2015-03-30T09:14:25Z</time>
      </trkpt>
      <trkpt lat="41.074397" lon="-6.808858">
        <ele>514.941</ele>
        <time>2015-03-30T09:14:33Z</time>
      </trkpt>
      <trkpt lat="41.074643" lon="-6.808995">
        <ele>516.914</ele>
        <time>2015-03-30T09:14:46Z</time>
      </trkpt>
      <trkpt lat="41.074840" lon="-6.809242">
        <ele>518.899</ele>
        <time>2015-03-30T09:14:59Z</time>
      </trkpt>
      <trkpt lat="41.075009" lon="-6.809487">
        <ele>520.779</ele>
        <time>2015-03-30T09:15:11Z</time>
      </trkpt>
      <trkpt lat="41.075190" lon="-6.809715">
        <ele>522.105</ele>
        <time>2015-03-30T09:15:23Z</time>
      </trkpt>
      <trkpt lat="41.075387" lon="-6.809840">
        <ele>524.125</ele>
        <time>2015-03-30T09:15:34Z</time>
      </trkpt>
      <trkpt lat="41.075605" lon="-6.809794">
        <ele>525.507</ele>
        <time>2015-03-30T09:15:45Z</time>
      </trkpt>
      <trkpt lat="41.075792" lon="-6.809672">
        <ele>527.986</ele>
        <time>2015-03-30T09:15:55Z</time>
      </trkpt>
      <trkpt lat="41.076005" lon="-6.809519">
        <ele>529.381</ele>
        <time>2015-03-30T09:16:07Z</time>
      </trkpt>
      <trkpt lat="41.076179" lon="-6.809401">
        <ele>530.856</ele>
        <time>2015-03-30T09:16:17Z</time>
      </trkpt>
      <trkpt lat="41.076196" lon="-6.809390">
        <ele>530.850</ele>
        <time>2015-03-30T09:16:18Z</time>
      </trkpt>
      <trkpt lat="41.076393" lon="-6.809200">
        <ele>532.710</ele>
        <time>2015-03-30T09:16:29Z</time>
      </trkpt>
      <trkpt lat="41.076548" lon="-6.808983">
        <ele>534.633</ele>
        <time>2015-03-30T09:16:40Z</time>
      </trkpt>
      <trkpt lat="41.076681" lon="-6.808769">
        <ele>536.188</ele>
        <time>2015-03-30T09:16:50Z</time>
      </trkpt>
      <trkpt lat="41.076819" lon="-6.808518">
        <ele>537.077</ele>
        <time>2015-03-30T09:17:01Z</time>
      </trkpt>
      <trkpt lat="41.076993" lon="-6.808245">
        <ele>536.661</ele>
        <time>2015-03-30T09:17:13Z</time>
      </trkpt>
      <trkpt lat="41.077187" lon="-6.807920">
        <ele>535.627</ele>
        <time>2015-03-30T09:17:24Z</time>
      </trkpt>
      <trkpt lat="41.077415" lon="-6.807520">
        <ele>534.607</ele>
        <time>2015-03-30T09:17:35Z</time>
      </trkpt>
      <trkpt lat="41.077657" lon="-6.807133">
        <ele>533.746</ele>
        <time>2015-03-30T09:17:45Z</time>
      </trkpt>
      <trkpt lat="41.077686" lon="-6.807092">
        <ele>533.741</ele>
        <time>2015-03-30T09:17:46Z</time>
      </trkpt>
      <trkpt lat="41.077714" lon="-6.807053">
        <ele>533.296</ele>
        <time>2015-03-30T09:17:47Z</time>
      </trkpt>
      <trkpt lat="41.077768" lon="-6.806974">
        <ele>533.740</ele>
        <time>2015-03-30T09:17:49Z</time>
      </trkpt>
      <trkpt lat="41.077800" lon="-6.806943">
        <ele>533.280</ele>
        <time>2015-03-30T09:17:50Z</time>
      </trkpt>
      <trkpt lat="41.077835" lon="-6.806912">
        <ele>532.763</ele>
        <time>2015-03-30T09:17:51Z</time>
      </trkpt>
      <trkpt lat="41.077868" lon="-6.806879">
        <ele>532.738</ele>
        <time>2015-03-30T09:17:52Z</time>
      </trkpt>
      <trkpt lat="41.077902" lon="-6.806845">
        <ele>532.745</ele>
        <time>2015-03-30T09:17:53Z</time>
      </trkpt>
      <trkpt lat="41.077938" lon="-6.806815">
        <ele>532.747</ele>
        <time>2015-03-30T09:17:54Z</time>
      </trkpt>
      <trkpt lat="41.077978" lon="-6.806782">
        <ele>532.211</ele>
        <time>2015-03-30T09:17:55Z</time>
      </trkpt>
      <trkpt lat="41.078019" lon="-6.806748">
        <ele>531.807</ele>
        <time>2015-03-30T09:17:56Z</time>
      </trkpt>
      <trkpt lat="41.078160" lon="-6.806656">
        <ele>530.813</ele>
        <time>2015-03-30T09:17:59Z</time>
      </trkpt>
      <trkpt lat="41.078212" lon="-6.806626">
        <ele>530.838</ele>
        <time>2015-03-30T09:18:00Z</time>
      </trkpt>
      <trkpt lat="41.078715" lon="-6.806347">
        <ele>527.493</ele>
        <time>2015-03-30T09:18:08Z</time>
      </trkpt>
      <trkpt lat="41.078852" lon="-6.806272">
        <ele>526.077</ele>
        <time>2015-03-30T09:18:10Z</time>
      </trkpt>
      <trkpt lat="41.079146" lon="-6.806157">
        <ele>523.197</ele>
        <time>2015-03-30T09:18:14Z</time>
      </trkpt>
      <trkpt lat="41.079600" lon="-6.806106">
        <ele>519.720</ele>
        <time>2015-03-30T09:18:20Z</time>
      </trkpt>
      <trkpt lat="41.079796" lon="-6.806138">
        <ele>518.365</ele>
        <time>2015-03-30T09:18:23Z</time>
      </trkpt>
      <trkpt lat="41.079858" lon="-6.806157">
        <ele>517.896</ele>
        <time>2015-03-30T09:18:24Z</time>
      </trkpt>
      <trkpt lat="41.080310" lon="-6.806404">
        <ele>514.431</ele>
        <time>2015-03-30T09:18:32Z</time>
      </trkpt>
      <trkpt lat="41.080600" lon="-6.806581">
        <ele>511.124</ele>
        <time>2015-03-30T09:18:37Z</time>
      </trkpt>
      <trkpt lat="41.080719" lon="-6.806624">
        <ele>510.107</ele>
        <time>2015-03-30T09:18:39Z</time>
      </trkpt>
      <trkpt lat="41.080780" lon="-6.806627">
        <ele>509.668</ele>
        <time>2015-03-30T09:18:40Z</time>
      </trkpt>
      <trkpt lat="41.080843" lon="-6.806622">
        <ele>509.293</ele>
        <time>2015-03-30T09:18:41Z</time>
      </trkpt>
      <trkpt lat="41.080907" lon="-6.806608">
        <ele>508.298</ele>
        <time>2015-03-30T09:18:42Z</time>
      </trkpt>
      <trkpt lat="41.080971" lon="-6.806581">
        <ele>507.762</ele>
        <time>2015-03-30T09:18:43Z</time>
      </trkpt>
      <trkpt lat="41.081034" lon="-6.806548">
        <ele>507.232</ele>
        <time>2015-03-30T09:18:44Z</time>
      </trkpt>
      <trkpt lat="41.081220" lon="-6.806428">
        <ele>505.815</ele>
        <time>2015-03-30T09:18:47Z</time>
      </trkpt>
      <trkpt lat="41.081413" lon="-6.806320">
        <ele>504.420</ele>
        <time>2015-03-30T09:18:50Z</time>
      </trkpt>
      <trkpt lat="41.081541" lon="-6.806276">
        <ele>503.484</ele>
        <time>2015-03-30T09:18:52Z</time>
      </trkpt>
      <trkpt lat="41.081601" lon="-6.806266">
        <ele>502.907</ele>
        <time>2015-03-30T09:18:53Z</time>
      </trkpt>
      <trkpt lat="41.081714" lon="-6.806254">
        <ele>502.917</ele>
        <time>2015-03-30T09:18:55Z</time>
      </trkpt>
      <trkpt lat="41.081866" lon="-6.806267">
        <ele>503.407</ele>
        <time>2015-03-30T09:18:58Z</time>
      </trkpt>
      <trkpt lat="41.082323" lon="-6.806274">
        <ele>503.977</ele>
        <time>2015-03-30T09:19:09Z</time>
      </trkpt>
      <trkpt lat="41.082664" lon="-6.806270">
        <ele>504.822</ele>
        <time>2015-03-30T09:19:18Z</time>
      </trkpt>
      <trkpt lat="41.082698" lon="-6.806268">
        <ele>501.017</ele>
        <time>2015-03-30T09:19:19Z</time>
      </trkpt>
      <trkpt lat="41.082734" lon="-6.806265">
        <ele>507.281</ele>
        <time>2015-03-30T09:19:20Z</time>
      </trkpt>
      <trkpt lat="41.083169" lon="-6.806207">
        <ele>506.391</ele>
        <time>2015-03-30T09:19:32Z</time>
      </trkpt>
      <trkpt lat="41.083497" lon="-6.806120">
        <ele>507.784</ele>
        <time>2015-03-30T09:19:42Z</time>
      </trkpt>
      <trkpt lat="41.083836" lon="-6.806029">
        <ele>507.719</ele>
        <time>2015-03-30T09:19:53Z</time>
      </trkpt>
      <trkpt lat="41.084246" lon="-6.805904">
        <ele>504.835</ele>
        <time>2015-03-30T09:20:04Z</time>
      </trkpt>
      <trkpt lat="41.084628" lon="-6.805801">
        <ele>502.086</ele>
        <time>2015-03-30T09:20:12Z</time>
      </trkpt>
      <trkpt lat="41.084721" lon="-6.805785">
        <ele>501.014</ele>
        <time>2015-03-30T09:20:14Z</time>
      </trkpt>
      <trkpt lat="41.084904" lon="-6.805780">
        <ele>500.007</ele>
        <time>2015-03-30T09:20:18Z</time>
      </trkpt>
      <trkpt lat="41.084950" lon="-6.805792">
        <ele>499.592</ele>
        <time>2015-03-30T09:20:19Z</time>
      </trkpt>
      <trkpt lat="41.085046" lon="-6.805829">
        <ele>498.697</ele>
        <time>2015-03-30T09:20:21Z</time>
      </trkpt>
      <trkpt lat="41.085091" lon="-6.805861">
        <ele>497.682</ele>
        <time>2015-03-30T09:20:22Z</time>
      </trkpt>
      <trkpt lat="41.085260" lon="-6.806015">
        <ele>496.276</ele>
        <time>2015-03-30T09:20:26Z</time>
      </trkpt>
      <trkpt lat="41.085296" lon="-6.806060">
        <ele>495.296</ele>
        <time>2015-03-30T09:20:27Z</time>
      </trkpt>
      <trkpt lat="41.085422" lon="-6.806266">
        <ele>494.399</ele>
        <time>2015-03-30T09:20:31Z</time>
      </trkpt>
      <trkpt lat="41.085627" lon="-6.806683">
        <ele>490.944</ele>
        <time>2015-03-30T09:20:37Z</time>
      </trkpt>
      <trkpt lat="41.085766" lon="-6.806861">
        <ele>489.984</ele>
        <time>2015-03-30T09:20:40Z</time>
      </trkpt>
      <trkpt lat="41.085907" lon="-6.806973">
        <ele>491.407</ele>
        <time>2015-03-30T09:20:43Z</time>
      </trkpt>
      <trkpt lat="41.086255" lon="-6.807108">
        <ele>491.417</ele>
        <time>2015-03-30T09:20:52Z</time>
      </trkpt>
      <trkpt lat="41.086470" lon="-6.807335">
        <ele>490.907</ele>
        <time>2015-03-30T09:21:02Z</time>
      </trkpt>
      <trkpt lat="41.086493" lon="-6.807690">
        <ele>489.957</ele>
        <time>2015-03-30T09:21:13Z</time>
      </trkpt>
      <trkpt lat="41.086309" lon="-6.808056">
        <ele>487.162</ele>
        <time>2015-03-30T09:21:22Z</time>
      </trkpt>
      <trkpt lat="41.086195" lon="-6.808242">
        <ele>486.117</ele>
        <time>2015-03-30T09:21:26Z</time>
      </trkpt>
      <trkpt lat="41.086167" lon="-6.808282">
        <ele>485.691</ele>
        <time>2015-03-30T09:21:27Z</time>
      </trkpt>
      <trkpt lat="41.086082" lon="-6.808580">
        <ele>483.251</ele>
        <time>2015-03-30T09:21:34Z</time>
      </trkpt>
      <trkpt lat="41.086108" lon="-6.808618">
        <ele>482.264</ele>
        <time>2015-03-30T09:21:35Z</time>
      </trkpt>
      <trkpt lat="41.086143" lon="-6.808648">
        <ele>481.859</ele>
        <time>2015-03-30T09:21:36Z</time>
      </trkpt>
      <trkpt lat="41.086341" lon="-6.808752">
        <ele>479.899</ele>
        <time>2015-03-30T09:21:42Z</time>
      </trkpt>
      <trkpt lat="41.086372" lon="-6.808740">
        <ele>479.807</ele>
        <time>2015-03-30T09:21:43Z</time>
      </trkpt>
      <trkpt lat="41.086611" lon="-6.808658">
        <ele>478.427</ele>
        <time>2015-03-30T09:21:50Z</time>
      </trkpt>
      <trkpt lat="41.086848" lon="-6.808635">
        <ele>475.007</ele>
        <time>2015-03-30T09:21:55Z</time>
      </trkpt>
      <trkpt lat="41.086899" lon="-6.808634">
        <ele>474.628</ele>
        <time>2015-03-30T09:21:56Z</time>
      </trkpt>
      <trkpt lat="41.086955" lon="-6.808636">
        <ele>474.113</ele>
        <time>2015-03-30T09:21:57Z</time>
      </trkpt>
      <trkpt lat="41.087073" lon="-6.808619">
        <ele>473.188</ele>
        <time>2015-03-30T09:21:59Z</time>
      </trkpt>
      <trkpt lat="41.087130" lon="-6.808598">
        <ele>472.642</ele>
        <time>2015-03-30T09:22:00Z</time>
      </trkpt>
      <trkpt lat="41.087180" lon="-6.808566">
        <ele>472.112</ele>
        <time>2015-03-30T09:22:01Z</time>
      </trkpt>
      <trkpt lat="41.087227" lon="-6.808520">
        <ele>471.275</ele>
        <time>2015-03-30T09:22:02Z</time>
      </trkpt>
      <trkpt lat="41.087274" lon="-6.808467">
        <ele>470.750</ele>
        <time>2015-03-30T09:22:03Z</time>
      </trkpt>
      <trkpt lat="41.087319" lon="-6.808406">
        <ele>470.781</ele>
        <time>2015-03-30T09:22:04Z</time>
      </trkpt>
      <trkpt lat="41.087653" lon="-6.807974">
        <ele>466.961</ele>
        <time>2015-03-30T09:22:11Z</time>
      </trkpt>
      <trkpt lat="41.087750" lon="-6.807862">
        <ele>465.917</ele>
        <time>2015-03-30T09:22:13Z</time>
      </trkpt>
      <trkpt lat="41.088096" lon="-6.807447">
        <ele>464.007</ele>
        <time>2015-03-30T09:22:20Z</time>
      </trkpt>
      <trkpt lat="41.088733" lon="-6.806904">
        <ele>460.197</ele>
        <time>2015-03-30T09:22:31Z</time>
      </trkpt>
      <trkpt lat="41.088951" lon="-6.806771">
        <ele>459.762</ele>
        <time>2015-03-30T09:22:35Z</time>
      </trkpt>
      <trkpt lat="41.089045" lon="-6.806742">
        <ele>459.287</ele>
        <time>2015-03-30T09:22:37Z</time>
      </trkpt>
      <trkpt lat="41.089081" lon="-6.806746">
        <ele>458.741</ele>
        <time>2015-03-30T09:22:38Z</time>
      </trkpt>
      <trkpt lat="41.089109" lon="-6.806759">
        <ele>458.781</ele>
        <time>2015-03-30T09:22:39Z</time>
      </trkpt>
      <trkpt lat="41.089133" lon="-6.806775">
        <ele>458.214</ele>
        <time>2015-03-30T09:22:40Z</time>
      </trkpt>
      <trkpt lat="41.089154" lon="-6.806797">
        <ele>458.229</ele>
        <time>2015-03-30T09:22:41Z</time>
      </trkpt>
      <trkpt lat="41.089170" lon="-6.806827">
        <ele>458.261</ele>
        <time>2015-03-30T09:22:42Z</time>
      </trkpt>
      <trkpt lat="41.089187" lon="-6.806854">
        <ele>458.221</ele>
        <time>2015-03-30T09:22:43Z</time>
      </trkpt>
      <trkpt lat="41.089207" lon="-6.806857">
        <ele>458.213</ele>
        <time>2015-03-30T09:22:44Z</time>
      </trkpt>
      <trkpt lat="41.089171" lon="-6.806775">
        <ele>458.207</ele>
        <time>2015-03-30T09:22:49Z</time>
      </trkpt>
      <trkpt lat="41.089114" lon="-6.806694">
        <ele>458.245</ele>
        <time>2015-03-30T09:22:54Z</time>
      </trkpt>
      <trkpt lat="41.089311" lon="-6.806479">
        <ele>457.270</ele>
        <time>2015-03-30T09:23:02Z</time>
      </trkpt>
      <trkpt lat="41.089547" lon="-6.806328">
        <ele>455.875</ele>
        <time>2015-03-30T09:23:11Z</time>
      </trkpt>
      <trkpt lat="41.089837" lon="-6.806294">
        <ele>453.469</ele>
        <time>2015-03-30T09:23:20Z</time>
      </trkpt>
      <trkpt lat="41.089877" lon="-6.806284">
        <ele>453.459</ele>
        <time>2015-03-30T09:23:21Z</time>
      </trkpt>
      <trkpt lat="41.089916" lon="-6.806263">
        <ele>453.492</ele>
        <time>2015-03-30T09:23:22Z</time>
      </trkpt>
      <trkpt lat="41.089949" lon="-6.806241">
        <ele>453.477</ele>
        <time>2015-03-30T09:23:23Z</time>
      </trkpt>
      <trkpt lat="41.089971" lon="-6.806221">
        <ele>453.481</ele>
        <time>2015-03-30T09:23:24Z</time>
      </trkpt>
      <trkpt lat="41.089986" lon="-6.806203">
        <ele>453.961</ele>
        <time>2015-03-30T09:23:25Z</time>
      </trkpt>
      <trkpt lat="41.089999" lon="-6.806190">
        <ele>453.917</ele>
        <time>2015-03-30T09:23:26Z</time>
      </trkpt>
      <trkpt lat="41.090162" lon="-6.806072">
        <ele>455.307</ele>
        <time>2015-03-30T09:23:36Z</time>
      </trkpt>
      <trkpt lat="41.090345" lon="-6.805923">
        <ele>456.347</ele>
        <time>2015-03-30T09:23:46Z</time>
      </trkpt>
      <trkpt lat="41.090537" lon="-6.805828">
        <ele>456.832</ele>
        <time>2015-03-30T09:23:57Z</time>
      </trkpt>
      <trkpt lat="41.090550" lon="-6.805826">
        <ele>456.877</ele>
        <time>2015-03-30T09:23:58Z</time>
      </trkpt>
      <trkpt lat="41.090584" lon="-6.805806">
        <ele>456.871</ele>
        <time>2015-03-30T09:24:02Z</time>
      </trkpt>
      <trkpt lat="41.090692" lon="-6.805773">
        <ele>457.711</ele>
        <time>2015-03-30T09:24:10Z</time>
      </trkpt>
      <trkpt lat="41.090913" lon="-6.805804">
        <ele>458.794</ele>
        <time>2015-03-30T09:24:20Z</time>
      </trkpt>
      <trkpt lat="41.091094" lon="-6.805855">
        <ele>457.299</ele>
        <time>2015-03-30T09:24:28Z</time>
      </trkpt>
      <trkpt lat="41.091269" lon="-6.805889">
        <ele>456.332</ele>
        <time>2015-03-30T09:24:37Z</time>
      </trkpt>
      <trkpt lat="41.091464" lon="-6.805916">
        <ele>456.892</ele>
        <time>2015-03-30T09:24:48Z</time>
      </trkpt>
      <trkpt lat="41.091487" lon="-6.805931">
        <ele>456.811</ele>
        <time>2015-03-30T09:24:50Z</time>
      </trkpt>
      <trkpt lat="41.091526" lon="-6.806003">
        <ele>457.707</ele>
        <time>2015-03-30T09:24:55Z</time>
      </trkpt>
      <trkpt lat="41.091565" lon="-6.806103">
        <ele>458.212</ele>
        <time>2015-03-30T09:25:01Z</time>
      </trkpt>
      <trkpt lat="41.091604" lon="-6.806176">
        <ele>458.757</ele>
        <time>2015-03-30T09:25:05Z</time>
      </trkpt>
      <trkpt lat="41.091655" lon="-6.806200">
        <ele>459.212</ele>
        <time>2015-03-30T09:25:09Z</time>
      </trkpt>
      <trkpt lat="41.091738" lon="-6.806122">
        <ele>460.136</ele>
        <time>2015-03-30T09:25:17Z</time>
      </trkpt>
      <trkpt lat="41.091878" lon="-6.805955">
        <ele>462.116</ele>
        <time>2015-03-30T09:25:29Z</time>
      </trkpt>
      <trkpt lat="41.091948" lon="-6.805858">
        <ele>462.589</ele>
        <time>2015-03-30T09:25:35Z</time>
      </trkpt>
      <trkpt lat="41.092004" lon="-6.805803">
        <ele>463.534</ele>
        <time>2015-03-30T09:25:39Z</time>
      </trkpt>
      <trkpt lat="41.092130" lon="-6.805717">
        <ele>465.492</ele>
        <time>2015-03-30T09:25:47Z</time>
      </trkpt>
      <trkpt lat="41.092166" lon="-6.805681">
        <ele>465.973</ele>
        <time>2015-03-30T09:25:50Z</time>
      </trkpt>
      <trkpt lat="41.092247" lon="-6.805612">
        <ele>465.920</ele>
        <time>2015-03-30T09:25:59Z</time>
      </trkpt>
      <trkpt lat="41.092253" lon="-6.805604">
        <ele>465.907</ele>
        <time>2015-03-30T09:26:10Z</time>
      </trkpt>
      <trkpt lat="41.092252" lon="-6.805607">
        <ele>465.928</ele>
        <time>2015-03-30T09:26:33Z</time>
      </trkpt>
      <trkpt lat="41.092256" lon="-6.805580">
        <ele>465.913</ele>
        <time>2015-03-30T09:26:43Z</time>
      </trkpt>
      <trkpt lat="41.092233" lon="-6.805536">
        <ele>465.918</ele>
        <time>2015-03-30T09:26:51Z</time>
      </trkpt>
      <trkpt lat="41.092235" lon="-6.805530">
        <ele>465.932</ele>
        <time>2015-03-30T09:27:05Z</time>
      </trkpt>
      <trkpt lat="41.092221" lon="-6.805529">
        <ele>465.962</ele>
        <time>2015-03-30T09:27:34Z</time>
      </trkpt>
      <trkpt lat="41.092228" lon="-6.805523">
        <ele>465.925</ele>
        <time>2015-03-30T09:28:02Z</time>
      </trkpt>
      <trkpt lat="41.092240" lon="-6.805520">
        <ele>465.990</ele>
        <time>2015-03-30T09:28:24Z</time>
      </trkpt>
      <trkpt lat="41.092232" lon="-6.805515">
        <ele>465.986</ele>
        <time>2015-03-30T09:28:57Z</time>
      </trkpt>
      <trkpt lat="41.092219" lon="-6.805514">
        <ele>465.460</ele>
        <time>2015-03-30T09:29:31Z</time>
      </trkpt>
      <trkpt lat="41.092218" lon="-6.805519">
        <ele>465.426</ele>
        <time>2015-03-30T09:29:58Z</time>
      </trkpt>
      <trkpt lat="41.092213" lon="-6.805515">
        <ele>464.907</ele>
        <time>2015-03-30T09:30:21Z</time>
      </trkpt>
      <trkpt lat="41.092217" lon="-6.805514">
        <ele>465.497</ele>
        <time>2015-03-30T09:30:46Z</time>
      </trkpt>
      <trkpt lat="41.092215" lon="-6.805517">
        <ele>465.492</ele>
        <time>2015-03-30T09:31:11Z</time>
      </trkpt>
      <trkpt lat="41.092221" lon="-6.805517">
        <ele>465.417</ele>
        <time>2015-03-30T09:31:25Z</time>
      </trkpt>
      <trkpt lat="41.092227" lon="-6.805507">
        <ele>464.981</ele>
        <time>2015-03-30T09:31:46Z</time>
      </trkpt>
      <trkpt lat="41.092188" lon="-6.805627">
        <ele>461.641</ele>
        <time>2015-03-30T09:33:38Z</time>
      </trkpt>
      <trkpt lat="41.092196" lon="-6.805620">
        <ele>461.634</ele>
        <time>2015-03-30T09:33:39Z</time>
      </trkpt>
      <trkpt lat="41.092201" lon="-6.805598">
        <ele>462.599</ele>
        <time>2015-03-30T09:33:41Z</time>
      </trkpt>
      <trkpt lat="41.092203" lon="-6.805613">
        <ele>462.534</ele>
        <time>2015-03-30T09:33:49Z</time>
      </trkpt>
      <trkpt lat="41.092229" lon="-6.805622">
        <ele>460.155</ele>
        <time>2015-03-30T09:33:56Z</time>
      </trkpt>
      <trkpt lat="41.092232" lon="-6.805626">
        <ele>463.510</ele>
        <time>2015-03-30T09:33:57Z</time>
      </trkpt>
      <trkpt lat="41.092294" lon="-6.805680">
        <ele>463.007</ele>
        <time>2015-03-30T09:34:03Z</time>
      </trkpt>
      <trkpt lat="41.092425" lon="-6.805652">
        <ele>462.132</ele>
        <time>2015-03-30T09:34:13Z</time>
      </trkpt>
      <trkpt lat="41.092601" lon="-6.805649">
        <ele>459.727</ele>
        <time>2015-03-30T09:34:23Z</time>
      </trkpt>
      <trkpt lat="41.092651" lon="-6.805688">
        <ele>459.212</ele>
        <time>2015-03-30T09:34:25Z</time>
      </trkpt>
      <trkpt lat="41.092878" lon="-6.805801">
        <ele>455.896</ele>
        <time>2015-03-30T09:34:36Z</time>
      </trkpt>
      <trkpt lat="41.093090" lon="-6.805869">
        <ele>451.026</ele>
        <time>2015-03-30T09:34:44Z</time>
      </trkpt>
      <trkpt lat="41.093122" lon="-6.805876">
        <ele>452.919</ele>
        <time>2015-03-30T09:34:45Z</time>
      </trkpt>
      <trkpt lat="41.093446" lon="-6.805945">
        <ele>449.654</ele>
        <time>2015-03-30T09:34:55Z</time>
      </trkpt>
      <trkpt lat="41.093640" lon="-6.806039">
        <ele>446.225</ele>
        <time>2015-03-30T09:35:02Z</time>
      </trkpt>
      <trkpt lat="41.093814" lon="-6.806255">
        <ele>442.826</ele>
        <time>2015-03-30T09:35:07Z</time>
      </trkpt>
      <trkpt lat="41.093875" lon="-6.806337">
        <ele>440.908</ele>
        <time>2015-03-30T09:35:09Z</time>
      </trkpt>
      <trkpt lat="41.093929" lon="-6.806426">
        <ele>439.007</ele>
        <time>2015-03-30T09:35:11Z</time>
      </trkpt>
      <trkpt lat="41.094001" lon="-6.806576">
        <ele>437.131</ele>
        <time>2015-03-30T09:35:14Z</time>
      </trkpt>
      <trkpt lat="41.094081" lon="-6.806787">
        <ele>434.796</ele>
        <time>2015-03-30T09:35:18Z</time>
      </trkpt>
      <trkpt lat="41.094098" lon="-6.806839">
        <ele>434.211</ele>
        <time>2015-03-30T09:35:19Z</time>
      </trkpt>
      <trkpt lat="41.094177" lon="-6.807147">
        <ele>430.835</ele>
        <time>2015-03-30T09:35:25Z</time>
      </trkpt>
      <trkpt lat="41.094195" lon="-6.807218">
        <ele>424.195</ele>
        <time>2015-03-30T09:35:27Z</time>
      </trkpt>
      <trkpt lat="41.094196" lon="-6.807242">
        <ele>432.788</ele>
        <time>2015-03-30T09:35:28Z</time>
      </trkpt>
      <trkpt lat="41.094196" lon="-6.807267">
        <ele>429.983</ele>
        <time>2015-03-30T09:35:29Z</time>
      </trkpt>
      <trkpt lat="41.094200" lon="-6.807295">
        <ele>429.999</ele>
        <time>2015-03-30T09:35:30Z</time>
      </trkpt>
      <trkpt lat="41.094213" lon="-6.807322">
        <ele>429.407</ele>
        <time>2015-03-30T09:35:31Z</time>
      </trkpt>
      <trkpt lat="41.094231" lon="-6.807339">
        <ele>429.427</ele>
        <time>2015-03-30T09:35:32Z</time>
      </trkpt>
      <trkpt lat="41.094252" lon="-6.807340">
        <ele>429.407</ele>
        <time>2015-03-30T09:35:33Z</time>
      </trkpt>
      <trkpt lat="41.094275" lon="-6.807338">
        <ele>428.428</ele>
        <time>2015-03-30T09:35:34Z</time>
      </trkpt>
      <trkpt lat="41.094297" lon="-6.807341">
        <ele>427.933</ele>
        <time>2015-03-30T09:35:35Z</time>
      </trkpt>
      <trkpt lat="41.094319" lon="-6.807353">
        <ele>428.478</ele>
        <time>2015-03-30T09:35:36Z</time>
      </trkpt>
      <trkpt lat="41.094343" lon="-6.807360">
        <ele>428.452</ele>
        <time>2015-03-30T09:35:37Z</time>
      </trkpt>
      <trkpt lat="41.094369" lon="-6.807365">
        <ele>427.922</ele>
        <time>2015-03-30T09:35:38Z</time>
      </trkpt>
      <trkpt lat="41.094395" lon="-6.807365">
        <ele>427.915</ele>
        <time>2015-03-30T09:35:39Z</time>
      </trkpt>
      <trkpt lat="41.094421" lon="-6.807365">
        <ele>427.440</ele>
        <time>2015-03-30T09:35:40Z</time>
      </trkpt>
      <trkpt lat="41.094447" lon="-6.807370">
        <ele>427.969</ele>
        <time>2015-03-30T09:35:41Z</time>
      </trkpt>
      <trkpt lat="41.094471" lon="-6.807380">
        <ele>427.904</ele>
        <time>2015-03-30T09:35:42Z</time>
      </trkpt>
      <trkpt lat="41.094495" lon="-6.807387">
        <ele>428.424</ele>
        <time>2015-03-30T09:35:43Z</time>
      </trkpt>
      <trkpt lat="41.094520" lon="-6.807390">
        <ele>427.907</ele>
        <time>2015-03-30T09:35:44Z</time>
      </trkpt>
      <trkpt lat="41.094546" lon="-6.807394">
        <ele>427.975</ele>
        <time>2015-03-30T09:35:45Z</time>
      </trkpt>
      <trkpt lat="41.094571" lon="-6.807402">
        <ele>427.910</ele>
        <time>2015-03-30T09:35:46Z</time>
      </trkpt>
      <trkpt lat="41.094594" lon="-6.807406">
        <ele>427.965</ele>
        <time>2015-03-30T09:35:47Z</time>
      </trkpt>
      <trkpt lat="41.094617" lon="-6.807409">
        <ele>427.979</ele>
        <time>2015-03-30T09:35:48Z</time>
      </trkpt>
      <trkpt lat="41.094641" lon="-6.807415">
        <ele>427.939</ele>
        <time>2015-03-30T09:35:49Z</time>
      </trkpt>
      <trkpt lat="41.094662" lon="-6.807422">
        <ele>427.952</ele>
        <time>2015-03-30T09:35:50Z</time>
      </trkpt>
      <trkpt lat="41.094684" lon="-6.807428">
        <ele>427.947</ele>
        <time>2015-03-30T09:35:51Z</time>
      </trkpt>
      <trkpt lat="41.094705" lon="-6.807428">
        <ele>427.918</ele>
        <time>2015-03-30T09:35:52Z</time>
      </trkpt>
      <trkpt lat="41.094727" lon="-6.807427">
        <ele>427.998</ele>
        <time>2015-03-30T09:35:53Z</time>
      </trkpt>
      <trkpt lat="41.094748" lon="-6.807420">
        <ele>427.917</ele>
        <time>2015-03-30T09:35:54Z</time>
      </trkpt>
      <trkpt lat="41.094766" lon="-6.807407">
        <ele>427.907</ele>
        <time>2015-03-30T09:35:55Z</time>
      </trkpt>
      <trkpt lat="41.094785" lon="-6.807393">
        <ele>428.490</ele>
        <time>2015-03-30T09:35:56Z</time>
      </trkpt>
      <trkpt lat="41.094804" lon="-6.807382">
        <ele>427.945</ele>
        <time>2015-03-30T09:35:57Z</time>
      </trkpt>
      <trkpt lat="41.094915" lon="-6.807250">
        <ele>427.990</ele>
        <time>2015-03-30T09:36:04Z</time>
      </trkpt>
      <trkpt lat="41.094916" lon="-6.807225">
        <ele>427.984</ele>
        <time>2015-03-30T09:36:05Z</time>
      </trkpt>
      <trkpt lat="41.094914" lon="-6.807200">
        <ele>428.454</ele>
        <time>2015-03-30T09:36:06Z</time>
      </trkpt>
      <trkpt lat="41.094901" lon="-6.807136">
        <ele>428.917</ele>
        <time>2015-03-30T09:36:09Z</time>
      </trkpt>
      <trkpt lat="41.094893" lon="-6.807115">
        <ele>428.962</ele>
        <time>2015-03-30T09:36:10Z</time>
      </trkpt>
      <trkpt lat="41.094887" lon="-6.807094">
        <ele>429.486</ele>
        <time>2015-03-30T09:36:11Z</time>
      </trkpt>
      <trkpt lat="41.094883" lon="-6.807069">
        <ele>428.960</ele>
        <time>2015-03-30T09:36:12Z</time>
      </trkpt>
      <trkpt lat="41.094877" lon="-6.807046">
        <ele>428.926</ele>
        <time>2015-03-30T09:36:13Z</time>
      </trkpt>
      <trkpt lat="41.094870" lon="-6.807022">
        <ele>429.407</ele>
        <time>2015-03-30T09:36:14Z</time>
      </trkpt>
      <trkpt lat="41.094784" lon="-6.806718">
        <ele>430.397</ele>
        <time>2015-03-30T09:36:27Z</time>
      </trkpt>
      <trkpt lat="41.094758" lon="-6.806501">
        <ele>430.812</ele>
        <time>2015-03-30T09:36:38Z</time>
      </trkpt>
      <trkpt lat="41.094760" lon="-6.806486">
        <ele>430.377</ele>
        <time>2015-03-30T09:36:39Z</time>
      </trkpt>
      <trkpt lat="41.094762" lon="-6.806470">
        <ele>430.871</ele>
        <time>2015-03-30T09:36:40Z</time>
      </trkpt>
      <trkpt lat="41.094762" lon="-6.806451">
        <ele>430.331</ele>
        <time>2015-03-30T09:36:41Z</time>
      </trkpt>
      <trkpt lat="41.094761" lon="-6.806431">
        <ele>430.814</ele>
        <time>2015-03-30T09:36:42Z</time>
      </trkpt>
      <trkpt lat="41.094764" lon="-6.806410">
        <ele>430.829</ele>
        <time>2015-03-30T09:36:43Z</time>
      </trkpt>
      <trkpt lat="41.094772" lon="-6.806388">
        <ele>430.811</ele>
        <time>2015-03-30T09:36:44Z</time>
      </trkpt>
      <trkpt lat="41.094779" lon="-6.806364">
        <ele>430.821</ele>
        <time>2015-03-30T09:36:45Z</time>
      </trkpt>
      <trkpt lat="41.094782" lon="-6.806338">
        <ele>430.303</ele>
        <time>2015-03-30T09:36:46Z</time>
      </trkpt>
      <trkpt lat="41.094788" lon="-6.806312">
        <ele>430.807</ele>
        <time>2015-03-30T09:36:47Z</time>
      </trkpt>
      <trkpt lat="41.094798" lon="-6.806287">
        <ele>430.890</ele>
        <time>2015-03-30T09:36:48Z</time>
      </trkpt>
      <trkpt lat="41.094866" lon="-6.806030">
        <ele>430.835</ele>
        <time>2015-03-30T09:36:58Z</time>
      </trkpt>
      <trkpt lat="41.094982" lon="-6.805796">
        <ele>431.350</ele>
        <time>2015-03-30T09:37:08Z</time>
      </trkpt>
      <trkpt lat="41.095144" lon="-6.805653">
        <ele>431.844</ele>
        <time>2015-03-30T09:37:17Z</time>
      </trkpt>
      <trkpt lat="41.095328" lon="-6.805619">
        <ele>432.344</ele>
        <time>2015-03-30T09:37:26Z</time>
      </trkpt>
      <trkpt lat="41.095519" lon="-6.805613">
        <ele>433.237</ele>
        <time>2015-03-30T09:37:35Z</time>
      </trkpt>
      <trkpt lat="41.095719" lon="-6.805562">
        <ele>434.282</ele>
        <time>2015-03-30T09:37:45Z</time>
      </trkpt>
      <trkpt lat="41.095806" lon="-6.805520">
        <ele>435.116</ele>
        <time>2015-03-30T09:37:50Z</time>
      </trkpt>
      <trkpt lat="41.095821" lon="-6.805510">
        <ele>435.176</ele>
        <time>2015-03-30T09:37:51Z</time>
      </trkpt>
      <trkpt lat="41.095834" lon="-6.805496">
        <ele>435.113</ele>
        <time>2015-03-30T09:37:52Z</time>
      </trkpt>
      <trkpt lat="41.095847" lon="-6.805478">
        <ele>435.607</ele>
        <time>2015-03-30T09:37:53Z</time>
      </trkpt>
      <trkpt lat="41.095857" lon="-6.805457">
        <ele>435.610</ele>
        <time>2015-03-30T09:37:54Z</time>
      </trkpt>
      <trkpt lat="41.095867" lon="-6.805437">
        <ele>435.695</ele>
        <time>2015-03-30T09:37:55Z</time>
      </trkpt>
      <trkpt lat="41.095880" lon="-6.805421">
        <ele>435.680</ele>
        <time>2015-03-30T09:37:56Z</time>
      </trkpt>
      <trkpt lat="41.095893" lon="-6.805406">
        <ele>436.124</ele>
        <time>2015-03-30T09:37:57Z</time>
      </trkpt>
      <trkpt lat="41.095904" lon="-6.805388">
        <ele>436.154</ele>
        <time>2015-03-30T09:37:58Z</time>
      </trkpt>
      <trkpt lat="41.095915" lon="-6.805369">
        <ele>436.177</ele>
        <time>2015-03-30T09:37:59Z</time>
      </trkpt>
      <trkpt lat="41.095992" lon="-6.805198">
        <ele>438.512</ele>
        <time>2015-03-30T09:38:09Z</time>
      </trkpt>
      <trkpt lat="41.096028" lon="-6.805106">
        <ele>439.569</ele>
        <time>2015-03-30T09:38:14Z</time>
      </trkpt>
      <trkpt lat="41.096037" lon="-6.805090">
        <ele>439.904</ele>
        <time>2015-03-30T09:38:15Z</time>
      </trkpt>
      <trkpt lat="41.096046" lon="-6.805072">
        <ele>439.924</ele>
        <time>2015-03-30T09:38:16Z</time>
      </trkpt>
      <trkpt lat="41.096050" lon="-6.805053">
        <ele>439.907</ele>
        <time>2015-03-30T09:38:17Z</time>
      </trkpt>
      <trkpt lat="41.096055" lon="-6.805032">
        <ele>440.465</ele>
        <time>2015-03-30T09:38:18Z</time>
      </trkpt>
      <trkpt lat="41.096063" lon="-6.805015">
        <ele>440.410</ele>
        <time>2015-03-30T09:38:19Z</time>
      </trkpt>
      <trkpt lat="41.096071" lon="-6.804999">
        <ele>440.935</ele>
        <time>2015-03-30T09:38:20Z</time>
      </trkpt>
      <trkpt lat="41.096168" lon="-6.804819">
        <ele>442.819</ele>
        <time>2015-03-30T09:38:30Z</time>
      </trkpt>
      <trkpt lat="41.096230" lon="-6.804706">
        <ele>443.859</ele>
        <time>2015-03-30T09:38:36Z</time>
      </trkpt>
      <trkpt lat="41.096239" lon="-6.804685">
        <ele>443.812</ele>
        <time>2015-03-30T09:38:37Z</time>
      </trkpt>
      <trkpt lat="41.096249" lon="-6.804669">
        <ele>443.837</ele>
        <time>2015-03-30T09:38:38Z</time>
      </trkpt>
      <trkpt lat="41.096376" lon="-6.804528">
        <ele>444.839</ele>
        <time>2015-03-30T09:38:48Z</time>
      </trkpt>
      <trkpt lat="41.096508" lon="-6.804385">
        <ele>444.801</ele>
        <time>2015-03-30T09:39:00Z</time>
      </trkpt>
      <trkpt lat="41.096530" lon="-6.804366">
        <ele>444.821</ele>
        <time>2015-03-30T09:39:02Z</time>
      </trkpt>
      <trkpt lat="41.096539" lon="-6.804349">
        <ele>444.807</ele>
        <time>2015-03-30T09:39:03Z</time>
      </trkpt>
      <trkpt lat="41.096546" lon="-6.804328">
        <ele>445.272</ele>
        <time>2015-03-30T09:39:04Z</time>
      </trkpt>
      <trkpt lat="41.096555" lon="-6.804308">
        <ele>445.257</ele>
        <time>2015-03-30T09:39:05Z</time>
      </trkpt>
      <trkpt lat="41.096566" lon="-6.804289">
        <ele>444.822</ele>
        <time>2015-03-30T09:39:06Z</time>
      </trkpt>
      <trkpt lat="41.096576" lon="-6.804267">
        <ele>445.266</ele>
        <time>2015-03-30T09:39:07Z</time>
      </trkpt>
      <trkpt lat="41.096699" lon="-6.804130">
        <ele>446.276</ele>
        <time>2015-03-30T09:39:16Z</time>
      </trkpt>
      <trkpt lat="41.096712" lon="-6.804133">
        <ele>446.259</ele>
        <time>2015-03-30T09:39:17Z</time>
      </trkpt>
      <trkpt lat="41.096763" lon="-6.804125">
        <ele>446.784</ele>
        <time>2015-03-30T09:39:22Z</time>
      </trkpt>
      <trkpt lat="41.096784" lon="-6.804081">
        <ele>447.669</ele>
        <time>2015-03-30T09:39:27Z</time>
      </trkpt>
      <trkpt lat="41.096797" lon="-6.804078">
        <ele>447.604</ele>
        <time>2015-03-30T09:39:28Z</time>
      </trkpt>
      <trkpt lat="41.096811" lon="-6.804079">
        <ele>448.124</ele>
        <time>2015-03-30T09:39:29Z</time>
      </trkpt>
      <trkpt lat="41.096891" lon="-6.804085">
        <ele>448.607</ele>
        <time>2015-03-30T09:39:36Z</time>
      </trkpt>
      <trkpt lat="41.096900" lon="-6.804094">
        <ele>449.125</ele>
        <time>2015-03-30T09:39:37Z</time>
      </trkpt>
      <trkpt lat="41.096925" lon="-6.804102">
        <ele>449.620</ele>
        <time>2015-03-30T09:39:39Z</time>
      </trkpt>
      <trkpt lat="41.096938" lon="-6.804095">
        <ele>449.635</ele>
        <time>2015-03-30T09:39:40Z</time>
      </trkpt>
      <trkpt lat="41.096951" lon="-6.804084">
        <ele>450.079</ele>
        <time>2015-03-30T09:39:41Z</time>
      </trkpt>
      <trkpt lat="41.096983" lon="-6.804073">
        <ele>450.029</ele>
        <time>2015-03-30T09:39:44Z</time>
      </trkpt>
      <trkpt lat="41.096995" lon="-6.804083">
        <ele>450.552</ele>
        <time>2015-03-30T09:39:45Z</time>
      </trkpt>
      <trkpt lat="41.097031" lon="-6.804088">
        <ele>450.547</ele>
        <time>2015-03-30T09:39:48Z</time>
      </trkpt>
      <trkpt lat="41.097040" lon="-6.804072">
        <ele>451.073</ele>
        <time>2015-03-30T09:39:49Z</time>
      </trkpt>
      <trkpt lat="41.097050" lon="-6.804059">
        <ele>451.085</ele>
        <time>2015-03-30T09:39:50Z</time>
      </trkpt>
      <trkpt lat="41.097087" lon="-6.804049">
        <ele>451.513</ele>
        <time>2015-03-30T09:39:53Z</time>
      </trkpt>
      <trkpt lat="41.097126" lon="-6.804067">
        <ele>452.407</ele>
        <time>2015-03-30T09:39:56Z</time>
      </trkpt>
      <trkpt lat="41.097141" lon="-6.804063">
        <ele>452.446</ele>
        <time>2015-03-30T09:39:57Z</time>
      </trkpt>
      <trkpt lat="41.097154" lon="-6.804051">
        <ele>452.421</ele>
        <time>2015-03-30T09:39:58Z</time>
      </trkpt>
      <trkpt lat="41.097163" lon="-6.804038">
        <ele>452.456</ele>
        <time>2015-03-30T09:39:59Z</time>
      </trkpt>
      <trkpt lat="41.097172" lon="-6.804024">
        <ele>452.980</ele>
        <time>2015-03-30T09:40:00Z</time>
      </trkpt>
      <trkpt lat="41.097180" lon="-6.804009">
        <ele>452.960</ele>
        <time>2015-03-30T09:40:01Z</time>
      </trkpt>
      <trkpt lat="41.097191" lon="-6.803997">
        <ele>452.983</ele>
        <time>2015-03-30T09:40:02Z</time>
      </trkpt>
      <trkpt lat="41.097292" lon="-6.803973">
        <ele>454.878</ele>
        <time>2015-03-30T09:40:10Z</time>
      </trkpt>
      <trkpt lat="41.097388" lon="-6.803927">
        <ele>456.399</ele>
        <time>2015-03-30T09:40:18Z</time>
      </trkpt>
      <trkpt lat="41.097432" lon="-6.803902">
        <ele>456.807</ele>
        <time>2015-03-30T09:40:21Z</time>
      </trkpt>
      <trkpt lat="41.097443" lon="-6.803886">
        <ele>457.227</ele>
        <time>2015-03-30T09:40:22Z</time>
      </trkpt>
      <trkpt lat="41.097457" lon="-6.803876">
        <ele>457.207</ele>
        <time>2015-03-30T09:40:23Z</time>
      </trkpt>
      <trkpt lat="41.097473" lon="-6.803870">
        <ele>457.768</ele>
        <time>2015-03-30T09:40:24Z</time>
      </trkpt>
      <trkpt lat="41.097491" lon="-6.803866">
        <ele>457.743</ele>
        <time>2015-03-30T09:40:25Z</time>
      </trkpt>
      <trkpt lat="41.097578" lon="-6.803835">
        <ele>459.248</ele>
        <time>2015-03-30T09:40:31Z</time>
      </trkpt>
      <trkpt lat="41.097593" lon="-6.803832">
        <ele>459.742</ele>
        <time>2015-03-30T09:40:32Z</time>
      </trkpt>
      <trkpt lat="41.097609" lon="-6.803826">
        <ele>459.782</ele>
        <time>2015-03-30T09:40:33Z</time>
      </trkpt>
      <trkpt lat="41.097625" lon="-6.803820">
        <ele>459.795</ele>
        <time>2015-03-30T09:40:34Z</time>
      </trkpt>
      <trkpt lat="41.097639" lon="-6.803811">
        <ele>460.190</ele>
        <time>2015-03-30T09:40:35Z</time>
      </trkpt>
      <trkpt lat="41.097736" lon="-6.803785">
        <ele>461.179</ele>
        <time>2015-03-30T09:40:42Z</time>
      </trkpt>
      <trkpt lat="41.097750" lon="-6.803776">
        <ele>461.105</ele>
        <time>2015-03-30T09:40:43Z</time>
      </trkpt>
      <trkpt lat="41.097765" lon="-6.803767">
        <ele>461.625</ele>
        <time>2015-03-30T09:40:44Z</time>
      </trkpt>
      <trkpt lat="41.097815" lon="-6.803740">
        <ele>462.107</ele>
        <time>2015-03-30T09:40:48Z</time>
      </trkpt>
      <trkpt lat="41.097824" lon="-6.803729">
        <ele>462.116</ele>
        <time>2015-03-30T09:40:49Z</time>
      </trkpt>
      <trkpt lat="41.097834" lon="-6.803720">
        <ele>462.131</ele>
        <time>2015-03-30T09:40:50Z</time>
      </trkpt>
      <trkpt lat="41.097846" lon="-6.803719">
        <ele>462.146</ele>
        <time>2015-03-30T09:40:51Z</time>
      </trkpt>
      <trkpt lat="41.097860" lon="-6.803726">
        <ele>462.560</ele>
        <time>2015-03-30T09:40:52Z</time>
      </trkpt>
      <trkpt lat="41.097875" lon="-6.803731">
        <ele>462.570</ele>
        <time>2015-03-30T09:40:53Z</time>
      </trkpt>
      <trkpt lat="41.097890" lon="-6.803722">
        <ele>462.533</ele>
        <time>2015-03-30T09:40:54Z</time>
      </trkpt>
      <trkpt lat="41.097903" lon="-6.803708">
        <ele>463.028</ele>
        <time>2015-03-30T09:40:55Z</time>
      </trkpt>
      <trkpt lat="41.097916" lon="-6.803696">
        <ele>463.077</ele>
        <time>2015-03-30T09:40:56Z</time>
      </trkpt>
      <trkpt lat="41.097958" lon="-6.803648">
        <ele>463.561</ele>
        <time>2015-03-30T09:41:00Z</time>
      </trkpt>
      <trkpt lat="41.097973" lon="-6.803648">
        <ele>464.027</ele>
        <time>2015-03-30T09:41:01Z</time>
      </trkpt>
      <trkpt lat="41.098000" lon="-6.803643">
        <ele>464.507</ele>
        <time>2015-03-30T09:41:03Z</time>
      </trkpt>
      <trkpt lat="41.098012" lon="-6.803632">
        <ele>464.566</ele>
        <time>2015-03-30T09:41:04Z</time>
      </trkpt>
      <trkpt lat="41.098026" lon="-6.803625">
        <ele>464.931</ele>
        <time>2015-03-30T09:41:05Z</time>
      </trkpt>
      <trkpt lat="41.098071" lon="-6.803603">
        <ele>465.426</ele>
        <time>2015-03-30T09:41:08Z</time>
      </trkpt>
      <trkpt lat="41.098106" lon="-6.803578">
        <ele>465.990</ele>
        <time>2015-03-30T09:41:11Z</time>
      </trkpt>
      <trkpt lat="41.098117" lon="-6.803579">
        <ele>466.430</ele>
        <time>2015-03-30T09:41:12Z</time>
      </trkpt>
      <trkpt lat="41.098130" lon="-6.803576">
        <ele>466.453</ele>
        <time>2015-03-30T09:41:13Z</time>
      </trkpt>
      <trkpt lat="41.098143" lon="-6.803566">
        <ele>466.458</ele>
        <time>2015-03-30T09:41:14Z</time>
      </trkpt>
      <trkpt lat="41.098156" lon="-6.803555">
        <ele>466.463</ele>
        <time>2015-03-30T09:41:15Z</time>
      </trkpt>
      <trkpt lat="41.098169" lon="-6.803543">
        <ele>466.444</ele>
        <time>2015-03-30T09:41:16Z</time>
      </trkpt>
      <trkpt lat="41.098183" lon="-6.803530">
        <ele>466.918</ele>
        <time>2015-03-30T09:41:17Z</time>
      </trkpt>
      <trkpt lat="41.098217" lon="-6.803505">
        <ele>466.907</ele>
        <time>2015-03-30T09:41:19Z</time>
      </trkpt>
      <trkpt lat="41.098233" lon="-6.803498">
        <ele>466.945</ele>
        <time>2015-03-30T09:41:20Z</time>
      </trkpt>
      <trkpt lat="41.098249" lon="-6.803493">
        <ele>467.360</ele>
        <time>2015-03-30T09:41:21Z</time>
      </trkpt>
      <trkpt lat="41.098288" lon="-6.803485">
        <ele>467.865</ele>
        <time>2015-03-30T09:41:30Z</time>
      </trkpt>
      <trkpt lat="41.098324" lon="-6.803489">
        <ele>467.829</ele>
        <time>2015-03-30T09:41:41Z</time>
      </trkpt>
      <trkpt lat="41.098328" lon="-6.803482">
        <ele>467.819</ele>
        <time>2015-03-30T09:41:57Z</time>
      </trkpt>
      <trkpt lat="41.098337" lon="-6.803484">
        <ele>467.822</ele>
        <time>2015-03-30T09:42:16Z</time>
      </trkpt>
      <trkpt lat="41.098336" lon="-6.803476">
        <ele>467.827</ele>
        <time>2015-03-30T09:42:39Z</time>
      </trkpt>
      <trkpt lat="41.098337" lon="-6.803481">
        <ele>467.391</ele>
        <time>2015-03-30T09:43:05Z</time>
      </trkpt>
      <trkpt lat="41.098334" lon="-6.803476">
        <ele>467.381</ele>
        <time>2015-03-30T09:43:31Z</time>
      </trkpt>
      <trkpt lat="41.098335" lon="-6.803475">
        <ele>467.819</ele>
        <time>2015-03-30T09:43:55Z</time>
      </trkpt>
      <trkpt lat="41.098339" lon="-6.803472">
        <ele>467.807</ele>
        <time>2015-03-30T09:44:18Z</time>
      </trkpt>
      <trkpt lat="41.098346" lon="-6.803476">
        <ele>467.888</ele>
        <time>2015-03-30T09:44:40Z</time>
      </trkpt>
      <trkpt lat="41.098352" lon="-6.803482">
        <ele>467.883</ele>
        <time>2015-03-30T09:45:01Z</time>
      </trkpt>
      <trkpt lat="41.098350" lon="-6.803483">
        <ele>466.448</ele>
        <time>2015-03-30T09:45:22Z</time>
      </trkpt>
      <trkpt lat="41.098346" lon="-6.803490">
        <ele>467.362</ele>
        <time>2015-03-30T09:45:46Z</time>
      </trkpt>
      <trkpt lat="41.098353" lon="-6.803484">
        <ele>467.322</ele>
        <time>2015-03-30T09:45:51Z</time>
      </trkpt>
      <trkpt lat="41.098388" lon="-6.803465">
        <ele>467.395</ele>
        <time>2015-03-30T09:45:54Z</time>
      </trkpt>
      <trkpt lat="41.098399" lon="-6.803455">
        <ele>467.390</ele>
        <time>2015-03-30T09:45:55Z</time>
      </trkpt>
      <trkpt lat="41.098411" lon="-6.803441">
        <ele>467.823</ele>
        <time>2015-03-30T09:45:56Z</time>
      </trkpt>
      <trkpt lat="41.098549" lon="-6.803316">
        <ele>468.383</ele>
        <time>2015-03-30T09:46:06Z</time>
      </trkpt>
      <trkpt lat="41.098703" lon="-6.803207">
        <ele>469.311</ele>
        <time>2015-03-30T09:46:16Z</time>
      </trkpt>
      <trkpt lat="41.098916" lon="-6.803043">
        <ele>470.207</ele>
        <time>2015-03-30T09:46:27Z</time>
      </trkpt>
      <trkpt lat="41.099159" lon="-6.802914">
        <ele>471.711</ele>
        <time>2015-03-30T09:46:38Z</time>
      </trkpt>
      <trkpt lat="41.099411" lon="-6.802814">
        <ele>473.176</ele>
        <time>2015-03-30T09:46:49Z</time>
      </trkpt>
      <trkpt lat="41.099632" lon="-6.802785">
        <ele>475.571</ele>
        <time>2015-03-30T09:47:00Z</time>
      </trkpt>
      <trkpt lat="41.099820" lon="-6.802777">
        <ele>477.085</ele>
        <time>2015-03-30T09:47:10Z</time>
      </trkpt>
      <trkpt lat="41.099910" lon="-6.802787">
        <ele>477.495</ele>
        <time>2015-03-30T09:47:15Z</time>
      </trkpt>
      <trkpt lat="41.100123" lon="-6.802769">
        <ele>480.398</ele>
        <time>2015-03-30T09:47:27Z</time>
      </trkpt>
      <trkpt lat="41.100157" lon="-6.802771">
        <ele>480.363</ele>
        <time>2015-03-30T09:47:29Z</time>
      </trkpt>
      <trkpt lat="41.100174" lon="-6.802765">
        <ele>480.861</ele>
        <time>2015-03-30T09:47:30Z</time>
      </trkpt>
      <trkpt lat="41.100192" lon="-6.802756">
        <ele>480.821</ele>
        <time>2015-03-30T09:47:31Z</time>
      </trkpt>
      <trkpt lat="41.100437" lon="-6.802721">
        <ele>482.713</ele>
        <time>2015-03-30T09:47:44Z</time>
      </trkpt>
      <trkpt lat="41.100671" lon="-6.802646">
        <ele>486.107</ele>
        <time>2015-03-30T09:47:57Z</time>
      </trkpt>
      <trkpt lat="41.100831" lon="-6.802561">
        <ele>488.015</ele>
        <time>2015-03-30T09:48:06Z</time>
      </trkpt>
      <trkpt lat="41.100848" lon="-6.802549">
        <ele>488.090</ele>
        <time>2015-03-30T09:48:07Z</time>
      </trkpt>
      <trkpt lat="41.101041" lon="-6.802408">
        <ele>490.955</ele>
        <time>2015-03-30T09:48:19Z</time>
      </trkpt>
      <trkpt lat="41.101174" lon="-6.802280">
        <ele>492.349</ele>
        <time>2015-03-30T09:48:29Z</time>
      </trkpt>
      <trkpt lat="41.101277" lon="-6.802160">
        <ele>492.819</ele>
        <time>2015-03-30T09:48:36Z</time>
      </trkpt>
      <trkpt lat="41.101290" lon="-6.802140">
        <ele>493.372</ele>
        <time>2015-03-30T09:48:37Z</time>
      </trkpt>
      <trkpt lat="41.101306" lon="-6.802124">
        <ele>493.377</ele>
        <time>2015-03-30T09:48:38Z</time>
      </trkpt>
      <trkpt lat="41.101321" lon="-6.802113">
        <ele>493.373</ele>
        <time>2015-03-30T09:48:39Z</time>
      </trkpt>
      <trkpt lat="41.101334" lon="-6.802098">
        <ele>493.885</ele>
        <time>2015-03-30T09:48:40Z</time>
      </trkpt>
      <trkpt lat="41.101346" lon="-6.802079">
        <ele>493.813</ele>
        <time>2015-03-30T09:48:41Z</time>
      </trkpt>
      <trkpt lat="41.101503" lon="-6.801884">
        <ele>494.707</ele>
        <time>2015-03-30T09:48:52Z</time>
      </trkpt>
      <trkpt lat="41.101723" lon="-6.801641">
        <ele>496.776</ele>
        <time>2015-03-30T09:49:06Z</time>
      </trkpt>
      <trkpt lat="41.101905" lon="-6.801462">
        <ele>497.661</ele>
        <time>2015-03-30T09:49:17Z</time>
      </trkpt>
      <trkpt lat="41.102086" lon="-6.801239">
        <ele>498.616</ele>
        <time>2015-03-30T09:49:28Z</time>
      </trkpt>
      <trkpt lat="41.102285" lon="-6.801103">
        <ele>499.530</ele>
        <time>2015-03-30T09:49:38Z</time>
      </trkpt>
      <trkpt lat="41.102489" lon="-6.801093">
        <ele>501.030</ele>
        <time>2015-03-30T09:49:48Z</time>
      </trkpt>
      <trkpt lat="41.102667" lon="-6.801109">
        <ele>502.033</ele>
        <time>2015-03-30T09:49:57Z</time>
      </trkpt>
      <trkpt lat="41.102930" lon="-6.801120">
        <ele>502.918</ele>
        <time>2015-03-30T09:50:09Z</time>
      </trkpt>
      <trkpt lat="41.103094" lon="-6.800999">
        <ele>503.972</ele>
        <time>2015-03-30T09:50:18Z</time>
      </trkpt>
      <trkpt lat="41.103164" lon="-6.800706">
        <ele>504.813</ele>
        <time>2015-03-30T09:50:29Z</time>
      </trkpt>
      <trkpt lat="41.103123" lon="-6.800458">
        <ele>505.814</ele>
        <time>2015-03-30T09:50:38Z</time>
      </trkpt>
      <trkpt lat="41.103113" lon="-6.800433">
        <ele>505.807</ele>
        <time>2015-03-30T09:50:39Z</time>
      </trkpt>
      <trkpt lat="41.103043" lon="-6.800139">
        <ele>506.846</ele>
        <time>2015-03-30T09:50:50Z</time>
      </trkpt>
      <trkpt lat="41.102959" lon="-6.799866">
        <ele>507.721</ele>
        <time>2015-03-30T09:51:00Z</time>
      </trkpt>
      <trkpt lat="41.102897" lon="-6.799619">
        <ele>509.256</ele>
        <time>2015-03-30T09:51:09Z</time>
      </trkpt>
      <trkpt lat="41.102869" lon="-6.799396">
        <ele>510.650</ele>
        <time>2015-03-30T09:51:17Z</time>
      </trkpt>
      <trkpt lat="41.102862" lon="-6.799367">
        <ele>511.110</ele>
        <time>2015-03-30T09:51:18Z</time>
      </trkpt>
      <trkpt lat="41.102859" lon="-6.799342">
        <ele>511.173</ele>
        <time>2015-03-30T09:51:19Z</time>
      </trkpt>
      <trkpt lat="41.102861" lon="-6.799317">
        <ele>511.188</ele>
        <time>2015-03-30T09:51:20Z</time>
      </trkpt>
      <trkpt lat="41.102864" lon="-6.799291">
        <ele>511.679</ele>
        <time>2015-03-30T09:51:21Z</time>
      </trkpt>
      <trkpt lat="41.102868" lon="-6.799268">
        <ele>511.605</ele>
        <time>2015-03-30T09:51:22Z</time>
      </trkpt>
      <trkpt lat="41.102871" lon="-6.799245">
        <ele>511.625</ele>
        <time>2015-03-30T09:51:23Z</time>
      </trkpt>
      <trkpt lat="41.102872" lon="-6.799219">
        <ele>512.007</ele>
        <time>2015-03-30T09:51:24Z</time>
      </trkpt>
      <trkpt lat="41.102870" lon="-6.799195">
        <ele>512.046</ele>
        <time>2015-03-30T09:51:25Z</time>
      </trkpt>
      <trkpt lat="41.102946" lon="-6.798963">
        <ele>513.581</ele>
        <time>2015-03-30T09:51:36Z</time>
      </trkpt>
      <trkpt lat="41.103035" lon="-6.798743">
        <ele>515.446</ele>
        <time>2015-03-30T09:51:47Z</time>
      </trkpt>
      <trkpt lat="41.103146" lon="-6.798534">
        <ele>516.990</ele>
        <time>2015-03-30T09:51:57Z</time>
      </trkpt>
      <trkpt lat="41.103220" lon="-6.798366">
        <ele>518.870</ele>
        <time>2015-03-30T09:52:05Z</time>
      </trkpt>
      <trkpt lat="41.103244" lon="-6.798338">
        <ele>518.853</ele>
        <time>2015-03-30T09:52:07Z</time>
      </trkpt>
      <trkpt lat="41.103251" lon="-6.798318">
        <ele>519.328</ele>
        <time>2015-03-30T09:52:08Z</time>
      </trkpt>
      <trkpt lat="41.103257" lon="-6.798303">
        <ele>519.367</ele>
        <time>2015-03-30T09:52:09Z</time>
      </trkpt>
      <trkpt lat="41.103261" lon="-6.798282">
        <ele>519.381</ele>
        <time>2015-03-30T09:52:10Z</time>
      </trkpt>
      <trkpt lat="41.103264" lon="-6.798261">
        <ele>519.719</ele>
        <time>2015-03-30T09:52:11Z</time>
      </trkpt>
      <trkpt lat="41.103268" lon="-6.798241">
        <ele>519.707</ele>
        <time>2015-03-30T09:52:12Z</time>
      </trkpt>
      <trkpt lat="41.103276" lon="-6.798225">
        <ele>519.755</ele>
        <time>2015-03-30T09:52:13Z</time>
      </trkpt>
      <trkpt lat="41.103284" lon="-6.798208">
        <ele>520.230</ele>
        <time>2015-03-30T09:52:14Z</time>
      </trkpt>
      <trkpt lat="41.103296" lon="-6.798189">
        <ele>520.215</ele>
        <time>2015-03-30T09:52:15Z</time>
      </trkpt>
      <trkpt lat="41.103310" lon="-6.798174">
        <ele>520.259</ele>
        <time>2015-03-30T09:52:16Z</time>
      </trkpt>
      <trkpt lat="41.103345" lon="-6.798132">
        <ele>521.259</ele>
        <time>2015-03-30T09:52:19Z</time>
      </trkpt>
      <trkpt lat="41.103354" lon="-6.798111">
        <ele>521.262</ele>
        <time>2015-03-30T09:52:20Z</time>
      </trkpt>
      <trkpt lat="41.103361" lon="-6.798089">
        <ele>521.747</ele>
        <time>2015-03-30T09:52:21Z</time>
      </trkpt>
      <trkpt lat="41.103365" lon="-6.798068">
        <ele>521.732</ele>
        <time>2015-03-30T09:52:22Z</time>
      </trkpt>
      <trkpt lat="41.103392" lon="-6.797940">
        <ele>522.692</ele>
        <time>2015-03-30T09:52:29Z</time>
      </trkpt>
      <trkpt lat="41.103404" lon="-6.797922">
        <ele>522.111</ele>
        <time>2015-03-30T09:52:30Z</time>
      </trkpt>
      <trkpt lat="41.103419" lon="-6.797904">
        <ele>522.107</ele>
        <time>2015-03-30T09:52:31Z</time>
      </trkpt>
      <trkpt lat="41.103434" lon="-6.797885">
        <ele>522.132</ele>
        <time>2015-03-30T09:52:32Z</time>
      </trkpt>
      <trkpt lat="41.103450" lon="-6.797866">
        <ele>522.667</ele>
        <time>2015-03-30T09:52:33Z</time>
      </trkpt>
      <trkpt lat="41.103466" lon="-6.797850">
        <ele>522.622</ele>
        <time>2015-03-30T09:52:34Z</time>
      </trkpt>
      <trkpt lat="41.103482" lon="-6.797836">
        <ele>522.676</ele>
        <time>2015-03-30T09:52:35Z</time>
      </trkpt>
      <trkpt lat="41.103657" lon="-6.797708">
        <ele>524.116</ele>
        <time>2015-03-30T09:52:45Z</time>
      </trkpt>
      <trkpt lat="41.103842" lon="-6.797586">
        <ele>526.059</ele>
        <time>2015-03-30T09:52:56Z</time>
      </trkpt>
      <trkpt lat="41.104014" lon="-6.797479">
        <ele>526.524</ele>
        <time>2015-03-30T09:53:06Z</time>
      </trkpt>
      <trkpt lat="41.104188" lon="-6.797348">
        <ele>526.016</ele>
        <time>2015-03-30T09:53:16Z</time>
      </trkpt>
      <trkpt lat="41.104369" lon="-6.797210">
        <ele>522.676</ele>
        <time>2015-03-30T09:53:23Z</time>
      </trkpt>
      <trkpt lat="41.104412" lon="-6.797196">
        <ele>524.113</ele>
        <time>2015-03-30T09:53:25Z</time>
      </trkpt>
      <trkpt lat="41.104433" lon="-6.797210">
        <ele>523.607</ele>
        <time>2015-03-30T09:53:26Z</time>
      </trkpt>
      <trkpt lat="41.104456" lon="-6.797226">
        <ele>524.140</ele>
        <time>2015-03-30T09:53:27Z</time>
      </trkpt>
      <trkpt lat="41.104481" lon="-6.797239">
        <ele>524.195</ele>
        <time>2015-03-30T09:53:28Z</time>
      </trkpt>
      <trkpt lat="41.104505" lon="-6.797248">
        <ele>523.650</ele>
        <time>2015-03-30T09:53:29Z</time>
      </trkpt>
      <trkpt lat="41.104651" lon="-6.797265">
        <ele>522.184</ele>
        <time>2015-03-30T09:53:34Z</time>
      </trkpt>
      <trkpt lat="41.105007" lon="-6.797340">
        <ele>520.244</ele>
        <time>2015-03-30T09:53:45Z</time>
      </trkpt>
      <trkpt lat="41.105430" lon="-6.797318">
        <ele>519.387</ele>
        <time>2015-03-30T09:53:55Z</time>
      </trkpt>
      <trkpt lat="41.105869" lon="-6.797395">
        <ele>519.342</ele>
        <time>2015-03-30T09:54:06Z</time>
      </trkpt>
      <trkpt lat="41.106177" lon="-6.797520">
        <ele>518.878</ele>
        <time>2015-03-30T09:54:14Z</time>
      </trkpt>
      <trkpt lat="41.106294" lon="-6.797549">
        <ele>518.833</ele>
        <time>2015-03-30T09:54:17Z</time>
      </trkpt>
      <trkpt lat="41.106419" lon="-6.797559">
        <ele>518.826</ele>
        <time>2015-03-30T09:54:20Z</time>
      </trkpt>
      <trkpt lat="41.106629" lon="-6.797532">
        <ele>518.807</ele>
        <time>2015-03-30T09:54:25Z</time>
      </trkpt>
      <trkpt lat="41.106668" lon="-6.797515">
        <ele>519.346</ele>
        <time>2015-03-30T09:54:26Z</time>
      </trkpt>
      <trkpt lat="41.106706" lon="-6.797494">
        <ele>518.861</ele>
        <time>2015-03-30T09:54:27Z</time>
      </trkpt>
      <trkpt lat="41.107135" lon="-6.797201">
        <ele>518.866</ele>
        <time>2015-03-30T09:54:39Z</time>
      </trkpt>
      <trkpt lat="41.107539" lon="-6.796944">
        <ele>519.710</ele>
        <time>2015-03-30T09:54:51Z</time>
      </trkpt>
      <trkpt lat="41.107747" lon="-6.796844">
        <ele>520.740</ele>
        <time>2015-03-30T09:54:58Z</time>
      </trkpt>
      <trkpt lat="41.108089" lon="-6.796571">
        <ele>521.783</ele>
        <time>2015-03-30T09:55:10Z</time>
      </trkpt>
      <trkpt lat="41.108395" lon="-6.796352">
        <ele>522.138</ele>
        <time>2015-03-30T09:55:21Z</time>
      </trkpt>
      <trkpt lat="41.108752" lon="-6.796293">
        <ele>523.168</ele>
        <time>2015-03-30T09:55:32Z</time>
      </trkpt>
      <trkpt lat="41.109123" lon="-6.796366">
        <ele>524.142</ele>
        <time>2015-03-30T09:55:44Z</time>
      </trkpt>
      <trkpt lat="41.109506" lon="-6.796388">
        <ele>522.626</ele>
        <time>2015-03-30T09:55:56Z</time>
      </trkpt>
      <trkpt lat="41.109657" lon="-6.796370">
        <ele>521.707</ele>
        <time>2015-03-30T09:56:00Z</time>
      </trkpt>
      <trkpt lat="41.109868" lon="-6.796399">
        <ele>519.785</ele>
        <time>2015-03-30T09:56:05Z</time>
      </trkpt>
      <trkpt lat="41.109961" lon="-6.796412">
        <ele>518.870</ele>
        <time>2015-03-30T09:56:07Z</time>
      </trkpt>
      <trkpt lat="41.110111" lon="-6.796468">
        <ele>517.335</ele>
        <time>2015-03-30T09:56:10Z</time>
      </trkpt>
      <trkpt lat="41.110170" lon="-6.796469">
        <ele>516.969</ele>
        <time>2015-03-30T09:56:11Z</time>
      </trkpt>
      <trkpt lat="41.110520" lon="-6.796437">
        <ele>513.589</ele>
        <time>2015-03-30T09:56:16Z</time>
      </trkpt>
      <trkpt lat="41.110936" lon="-6.796384">
        <ele>512.082</ele>
        <time>2015-03-30T09:56:22Z</time>
      </trkpt>
      <trkpt lat="41.111003" lon="-6.796369">
        <ele>511.647</ele>
        <time>2015-03-30T09:56:23Z</time>
      </trkpt>
      <trkpt lat="41.111138" lon="-6.796340">
        <ele>510.669</ele>
        <time>2015-03-30T09:56:25Z</time>
      </trkpt>
      <trkpt lat="41.111276" lon="-6.796284">
        <ele>510.104</ele>
        <time>2015-03-30T09:56:27Z</time>
      </trkpt>
      <trkpt lat="41.111628" lon="-6.796159">
        <ele>508.724</ele>
        <time>2015-03-30T09:56:32Z</time>
      </trkpt>
      <trkpt lat="41.112275" lon="-6.796136">
        <ele>506.307</ele>
        <time>2015-03-30T09:56:42Z</time>
      </trkpt>
      <trkpt lat="41.112435" lon="-6.796152">
        <ele>506.355</ele>
        <time>2015-03-30T09:56:45Z</time>
      </trkpt>
      <trkpt lat="41.112484" lon="-6.796148">
        <ele>505.830</ele>
        <time>2015-03-30T09:56:46Z</time>
      </trkpt>
      <trkpt lat="41.112529" lon="-6.796146">
        <ele>506.355</ele>
        <time>2015-03-30T09:56:47Z</time>
      </trkpt>
      <trkpt lat="41.112927" lon="-6.796189">
        <ele>507.299</ele>
        <time>2015-03-30T09:56:58Z</time>
      </trkpt>
      <trkpt lat="41.113229" lon="-6.796123">
        <ele>508.259</ele>
        <time>2015-03-30T09:57:08Z</time>
      </trkpt>
      <trkpt lat="41.113574" lon="-6.795970">
        <ele>510.122</ele>
        <time>2015-03-30T09:57:19Z</time>
      </trkpt>
      <trkpt lat="41.113822" lon="-6.795733">
        <ele>509.247</ele>
        <time>2015-03-30T09:57:28Z</time>
      </trkpt>
      <trkpt lat="41.113981" lon="-6.795560">
        <ele>507.234</ele>
        <time>2015-03-30T09:57:33Z</time>
      </trkpt>
      <trkpt lat="41.114145" lon="-6.795306">
        <ele>505.855</ele>
        <time>2015-03-30T09:57:38Z</time>
      </trkpt>
      <trkpt lat="41.114308" lon="-6.794943">
        <ele>502.410</ele>
        <time>2015-03-30T09:57:44Z</time>
      </trkpt>
      <trkpt lat="41.114360" lon="-6.794845">
        <ele>502.007</ele>
        <time>2015-03-30T09:57:46Z</time>
      </trkpt>
      <trkpt lat="41.114462" lon="-6.794736">
        <ele>500.512</ele>
        <time>2015-03-30T09:57:49Z</time>
      </trkpt>
      <trkpt lat="41.114501" lon="-6.794699">
        <ele>500.087</ele>
        <time>2015-03-30T09:57:50Z</time>
      </trkpt>
      <trkpt lat="41.114540" lon="-6.794660">
        <ele>499.582</ele>
        <time>2015-03-30T09:57:51Z</time>
      </trkpt>
      <trkpt lat="41.114585" lon="-6.794625">
        <ele>499.196</ele>
        <time>2015-03-30T09:57:52Z</time>
      </trkpt>
      <trkpt lat="41.114636" lon="-6.794597">
        <ele>498.616</ele>
        <time>2015-03-30T09:57:53Z</time>
      </trkpt>
      <trkpt lat="41.114689" lon="-6.794572">
        <ele>498.189</ele>
        <time>2015-03-30T09:57:54Z</time>
      </trkpt>
      <trkpt lat="41.114743" lon="-6.794550">
        <ele>496.754</ele>
        <time>2015-03-30T09:57:55Z</time>
      </trkpt>
      <trkpt lat="41.114801" lon="-6.794527">
        <ele>496.775</ele>
        <time>2015-03-30T09:57:56Z</time>
      </trkpt>
      <trkpt lat="41.115207" lon="-6.794368">
        <ele>493.328</ele>
        <time>2015-03-30T09:58:03Z</time>
      </trkpt>
      <trkpt lat="41.115323" lon="-6.794347">
        <ele>492.320</ele>
        <time>2015-03-30T09:58:05Z</time>
      </trkpt>
      <trkpt lat="41.115571" lon="-6.794332">
        <ele>490.907</ele>
        <time>2015-03-30T09:58:09Z</time>
      </trkpt>
      <trkpt lat="41.115633" lon="-6.794317">
        <ele>490.436</ele>
        <time>2015-03-30T09:58:10Z</time>
      </trkpt>
      <trkpt lat="41.115993" lon="-6.794183">
        <ele>489.021</ele>
        <time>2015-03-30T09:58:16Z</time>
      </trkpt>
      <trkpt lat="41.116043" lon="-6.794143">
        <ele>488.066</ele>
        <time>2015-03-30T09:58:17Z</time>
      </trkpt>
      <trkpt lat="41.116275" lon="-6.793904">
        <ele>487.570</ele>
        <time>2015-03-30T09:58:22Z</time>
      </trkpt>
      <trkpt lat="41.116319" lon="-6.793872">
        <ele>487.120</ele>
        <time>2015-03-30T09:58:23Z</time>
      </trkpt>
      <trkpt lat="41.116361" lon="-6.793847">
        <ele>486.673</ele>
        <time>2015-03-30T09:58:24Z</time>
      </trkpt>
      <trkpt lat="41.116400" lon="-6.793831">
        <ele>486.178</ele>
        <time>2015-03-30T09:58:25Z</time>
      </trkpt>
      <trkpt lat="41.116442" lon="-6.793821">
        <ele>485.676</ele>
        <time>2015-03-30T09:58:26Z</time>
      </trkpt>
      <trkpt lat="41.116485" lon="-6.793823">
        <ele>484.690</ele>
        <time>2015-03-30T09:58:27Z</time>
      </trkpt>
      <trkpt lat="41.116532" lon="-6.793844">
        <ele>484.219</ele>
        <time>2015-03-30T09:58:28Z</time>
      </trkpt>
      <trkpt lat="41.116581" lon="-6.793879">
        <ele>483.707</ele>
        <time>2015-03-30T09:58:29Z</time>
      </trkpt>
      <trkpt lat="41.116634" lon="-6.793908">
        <ele>483.296</ele>
        <time>2015-03-30T09:58:30Z</time>
      </trkpt>
      <trkpt lat="41.116683" lon="-6.793927">
        <ele>480.811</ele>
        <time>2015-03-30T09:58:31Z</time>
      </trkpt>
      <trkpt lat="41.116723" lon="-6.793941">
        <ele>485.186</ele>
        <time>2015-03-30T09:58:32Z</time>
      </trkpt>
      <trkpt lat="41.116757" lon="-6.793952">
        <ele>483.790</ele>
        <time>2015-03-30T09:58:33Z</time>
      </trkpt>
      <trkpt lat="41.116790" lon="-6.793962">
        <ele>483.750</ele>
        <time>2015-03-30T09:58:34Z</time>
      </trkpt>
      <trkpt lat="41.116940" lon="-6.794090">
        <ele>484.263</ele>
        <time>2015-03-30T09:58:39Z</time>
      </trkpt>
      <trkpt lat="41.116961" lon="-6.794137">
        <ele>484.258</ele>
        <time>2015-03-30T09:58:40Z</time>
      </trkpt>
      <trkpt lat="41.117113" lon="-6.794634">
        <ele>482.731</ele>
        <time>2015-03-30T09:58:50Z</time>
      </trkpt>
      <trkpt lat="41.117148" lon="-6.794775">
        <ele>482.761</ele>
        <time>2015-03-30T09:58:53Z</time>
      </trkpt>
      <trkpt lat="41.117167" lon="-6.794825">
        <ele>482.207</ele>
        <time>2015-03-30T09:58:54Z</time>
      </trkpt>
      <trkpt lat="41.117192" lon="-6.794872">
        <ele>482.207</ele>
        <time>2015-03-30T09:58:55Z</time>
      </trkpt>
      <trkpt lat="41.117220" lon="-6.794911">
        <ele>481.832</ele>
        <time>2015-03-30T09:58:56Z</time>
      </trkpt>
      <trkpt lat="41.117252" lon="-6.794939">
        <ele>481.827</ele>
        <time>2015-03-30T09:58:57Z</time>
      </trkpt>
      <trkpt lat="41.117287" lon="-6.794949">
        <ele>481.822</ele>
        <time>2015-03-30T09:58:58Z</time>
      </trkpt>
      <trkpt lat="41.117320" lon="-6.794942">
        <ele>482.246</ele>
        <time>2015-03-30T09:58:59Z</time>
      </trkpt>
      <trkpt lat="41.117353" lon="-6.794932">
        <ele>482.286</ele>
        <time>2015-03-30T09:59:00Z</time>
      </trkpt>
      <trkpt lat="41.117382" lon="-6.794933">
        <ele>481.899</ele>
        <time>2015-03-30T09:59:01Z</time>
      </trkpt>
      <trkpt lat="41.117410" lon="-6.794939">
        <ele>481.824</ele>
        <time>2015-03-30T09:59:02Z</time>
      </trkpt>
      <trkpt lat="41.117441" lon="-6.794939">
        <ele>481.891</ele>
        <time>2015-03-30T09:59:03Z</time>
      </trkpt>
      <trkpt lat="41.117470" lon="-6.794935">
        <ele>482.281</ele>
        <time>2015-03-30T09:59:04Z</time>
      </trkpt>
      <trkpt lat="41.117495" lon="-6.794928">
        <ele>482.219</ele>
        <time>2015-03-30T09:59:05Z</time>
      </trkpt>
      <trkpt lat="41.117664" lon="-6.794926">
        <ele>484.207</ele>
        <time>2015-03-30T09:59:15Z</time>
      </trkpt>
      <trkpt lat="41.117705" lon="-6.794928">
        <ele>485.668</ele>
        <time>2015-03-30T09:59:18Z</time>
      </trkpt>
      <trkpt lat="41.117718" lon="-6.794936">
        <ele>485.183</ele>
        <time>2015-03-30T09:59:19Z</time>
      </trkpt>
      <trkpt lat="41.117733" lon="-6.794939">
        <ele>485.148</ele>
        <time>2015-03-30T09:59:20Z</time>
      </trkpt>
      <trkpt lat="41.117748" lon="-6.794939">
        <ele>485.162</ele>
        <time>2015-03-30T09:59:21Z</time>
      </trkpt>
      <trkpt lat="41.117763" lon="-6.794942">
        <ele>485.652</ele>
        <time>2015-03-30T09:59:22Z</time>
      </trkpt>
      <trkpt lat="41.117778" lon="-6.794946">
        <ele>485.625</ele>
        <time>2015-03-30T09:59:23Z</time>
      </trkpt>
      <trkpt lat="41.117794" lon="-6.794953">
        <ele>486.190</ele>
        <time>2015-03-30T09:59:24Z</time>
      </trkpt>
      <trkpt lat="41.117808" lon="-6.794960">
        <ele>486.175</ele>
        <time>2015-03-30T09:59:25Z</time>
      </trkpt>
      <trkpt lat="41.117824" lon="-6.794963">
        <ele>486.128</ele>
        <time>2015-03-30T09:59:26Z</time>
      </trkpt>
      <trkpt lat="41.117841" lon="-6.794964">
        <ele>486.620</ele>
        <time>2015-03-30T09:59:27Z</time>
      </trkpt>
      <trkpt lat="41.117857" lon="-6.794966">
        <ele>487.107</ele>
        <time>2015-03-30T09:59:28Z</time>
      </trkpt>
      <trkpt lat="41.117871" lon="-6.794969">
        <ele>487.156</ele>
        <time>2015-03-30T09:59:29Z</time>
      </trkpt>
      <trkpt lat="41.117886" lon="-6.794970">
        <ele>487.111</ele>
        <time>2015-03-30T09:59:30Z</time>
      </trkpt>
      <trkpt lat="41.117901" lon="-6.794972">
        <ele>487.586</ele>
        <time>2015-03-30T09:59:31Z</time>
      </trkpt>
      <trkpt lat="41.117917" lon="-6.794975">
        <ele>487.520</ele>
        <time>2015-03-30T09:59:32Z</time>
      </trkpt>
      <trkpt lat="41.117931" lon="-6.794981">
        <ele>488.070</ele>
        <time>2015-03-30T09:59:33Z</time>
      </trkpt>
      <trkpt lat="41.118111" lon="-6.795014">
        <ele>491.443</ele>
        <time>2015-03-30T09:59:45Z</time>
      </trkpt>
      <trkpt lat="41.118293" lon="-6.795065">
        <ele>492.348</ele>
        <time>2015-03-30T09:59:57Z</time>
      </trkpt>
      <trkpt lat="41.118450" lon="-6.795107">
        <ele>494.366</ele>
        <time>2015-03-30T10:00:07Z</time>
      </trkpt>
      <trkpt lat="41.118645" lon="-6.795144">
        <ele>496.229</ele>
        <time>2015-03-30T10:00:19Z</time>
      </trkpt>
      <trkpt lat="41.118737" lon="-6.795162">
        <ele>497.121</ele>
        <time>2015-03-30T10:00:25Z</time>
      </trkpt>
      <trkpt lat="41.118750" lon="-6.795168">
        <ele>497.607</ele>
        <time>2015-03-30T10:00:26Z</time>
      </trkpt>
      <trkpt lat="41.118796" lon="-6.795180">
        <ele>498.155</ele>
        <time>2015-03-30T10:00:29Z</time>
      </trkpt>
      <trkpt lat="41.118945" lon="-6.795209">
        <ele>499.580</ele>
        <time>2015-03-30T10:00:39Z</time>
      </trkpt>
      <trkpt lat="41.119041" lon="-6.795233">
        <ele>500.585</ele>
        <time>2015-03-30T10:00:45Z</time>
      </trkpt>
      <trkpt lat="41.119055" lon="-6.795238">
        <ele>500.549</ele>
        <time>2015-03-30T10:00:46Z</time>
      </trkpt>
      <trkpt lat="41.119067" lon="-6.795242">
        <ele>501.049</ele>
        <time>2015-03-30T10:00:47Z</time>
      </trkpt>
      <trkpt lat="41.119078" lon="-6.795247">
        <ele>501.052</ele>
        <time>2015-03-30T10:00:48Z</time>
      </trkpt>
      <trkpt lat="41.119091" lon="-6.795250">
        <ele>501.577</ele>
        <time>2015-03-30T10:00:49Z</time>
      </trkpt>
      <trkpt lat="41.119106" lon="-6.795255">
        <ele>501.551</ele>
        <time>2015-03-30T10:00:50Z</time>
      </trkpt>
      <trkpt lat="41.119123" lon="-6.795258">
        <ele>502.001</ele>
        <time>2015-03-30T10:00:51Z</time>
      </trkpt>
      <trkpt lat="41.119140" lon="-6.795264">
        <ele>502.011</ele>
        <time>2015-03-30T10:00:52Z</time>
      </trkpt>
      <trkpt lat="41.119321" lon="-6.795302">
        <ele>502.907</ele>
        <time>2015-03-30T10:01:03Z</time>
      </trkpt>
      <trkpt lat="41.119516" lon="-6.795331">
        <ele>504.454</ele>
        <time>2015-03-30T10:01:15Z</time>
      </trkpt>
      <trkpt lat="41.119703" lon="-6.795292">
        <ele>506.349</ele>
        <time>2015-03-30T10:01:26Z</time>
      </trkpt>
      <trkpt lat="41.119891" lon="-6.795224">
        <ele>507.234</ele>
        <time>2015-03-30T10:01:37Z</time>
      </trkpt>
      <trkpt lat="41.120093" lon="-6.795274">
        <ele>508.298</ele>
        <time>2015-03-30T10:01:49Z</time>
      </trkpt>
      <trkpt lat="41.120227" lon="-6.795437">
        <ele>510.638</ele>
        <time>2015-03-30T10:02:01Z</time>
      </trkpt>
      <trkpt lat="41.120329" lon="-6.795661">
        <ele>514.061</ele>
        <time>2015-03-30T10:02:14Z</time>
      </trkpt>
      <trkpt lat="41.120385" lon="-6.795862">
        <ele>515.986</ele>
        <time>2015-03-30T10:02:25Z</time>
      </trkpt>
      <trkpt lat="41.120396" lon="-6.795914">
        <ele>516.421</ele>
        <time>2015-03-30T10:02:28Z</time>
      </trkpt>
      <trkpt lat="41.120403" lon="-6.795930">
        <ele>516.441</ele>
        <time>2015-03-30T10:02:29Z</time>
      </trkpt>
      <trkpt lat="41.120404" lon="-6.795952">
        <ele>516.905</ele>
        <time>2015-03-30T10:02:30Z</time>
      </trkpt>
      <trkpt lat="41.120405" lon="-6.795990">
        <ele>517.307</ele>
        <time>2015-03-30T10:02:32Z</time>
      </trkpt>
      <trkpt lat="41.120413" lon="-6.796007">
        <ele>517.331</ele>
        <time>2015-03-30T10:02:33Z</time>
      </trkpt>
      <trkpt lat="41.120420" lon="-6.796022">
        <ele>517.846</ele>
        <time>2015-03-30T10:02:34Z</time>
      </trkpt>
      <trkpt lat="41.120428" lon="-6.796036">
        <ele>517.831</ele>
        <time>2015-03-30T10:02:35Z</time>
      </trkpt>
      <trkpt lat="41.120435" lon="-6.796051">
        <ele>518.345</ele>
        <time>2015-03-30T10:02:36Z</time>
      </trkpt>
      <trkpt lat="41.120441" lon="-6.796066">
        <ele>518.395</ele>
        <time>2015-03-30T10:02:37Z</time>
      </trkpt>
      <trkpt lat="41.120448" lon="-6.796081">
        <ele>518.318</ele>
        <time>2015-03-30T10:02:38Z</time>
      </trkpt>
      <trkpt lat="41.120458" lon="-6.796096">
        <ele>518.333</ele>
        <time>2015-03-30T10:02:39Z</time>
      </trkpt>
      <trkpt lat="41.120464" lon="-6.796112">
        <ele>518.865</ele>
        <time>2015-03-30T10:02:40Z</time>
      </trkpt>
      <trkpt lat="41.120552" lon="-6.796268">
        <ele>520.768</ele>
        <time>2015-03-30T10:02:51Z</time>
      </trkpt>
      <trkpt lat="41.120669" lon="-6.796429">
        <ele>522.114</ele>
        <time>2015-03-30T10:03:03Z</time>
      </trkpt>
      <trkpt lat="41.120811" lon="-6.796652">
        <ele>524.507</ele>
        <time>2015-03-30T10:03:18Z</time>
      </trkpt>
      <trkpt lat="41.120916" lon="-6.796788">
        <ele>527.485</ele>
        <time>2015-03-30T10:03:28Z</time>
      </trkpt>
      <trkpt lat="41.121085" lon="-6.796805">
        <ele>529.880</ele>
        <time>2015-03-30T10:03:41Z</time>
      </trkpt>
      <trkpt lat="41.121153" lon="-6.796777">
        <ele>530.815</ele>
        <time>2015-03-30T10:03:46Z</time>
      </trkpt>
      <trkpt lat="41.121168" lon="-6.796768">
        <ele>530.899</ele>
        <time>2015-03-30T10:03:47Z</time>
      </trkpt>
      <trkpt lat="41.121183" lon="-6.796758">
        <ele>531.319</ele>
        <time>2015-03-30T10:03:48Z</time>
      </trkpt>
      <trkpt lat="41.121282" lon="-6.796652">
        <ele>532.292</ele>
        <time>2015-03-30T10:03:56Z</time>
      </trkpt>
      <trkpt lat="41.121292" lon="-6.796636">
        <ele>532.787</ele>
        <time>2015-03-30T10:03:57Z</time>
      </trkpt>
      <trkpt lat="41.121399" lon="-6.796451">
        <ele>534.614</ele>
        <time>2015-03-30T10:04:08Z</time>
      </trkpt>
      <trkpt lat="41.121520" lon="-6.796298">
        <ele>535.654</ele>
        <time>2015-03-30T10:04:19Z</time>
      </trkpt>
      <trkpt lat="41.121613" lon="-6.796167">
        <ele>536.109</ele>
        <time>2015-03-30T10:04:28Z</time>
      </trkpt>
      <trkpt lat="41.121625" lon="-6.796153">
        <ele>536.607</ele>
        <time>2015-03-30T10:04:29Z</time>
      </trkpt>
      <trkpt lat="41.121637" lon="-6.796138">
        <ele>536.620</ele>
        <time>2015-03-30T10:04:30Z</time>
      </trkpt>
      <trkpt lat="41.121649" lon="-6.796126">
        <ele>536.695</ele>
        <time>2015-03-30T10:04:31Z</time>
      </trkpt>
      <trkpt lat="41.121663" lon="-6.796111">
        <ele>537.030</ele>
        <time>2015-03-30T10:04:32Z</time>
      </trkpt>
      <trkpt lat="41.121674" lon="-6.796098">
        <ele>537.074</ele>
        <time>2015-03-30T10:04:33Z</time>
      </trkpt>
      <trkpt lat="41.121688" lon="-6.796081">
        <ele>537.014</ele>
        <time>2015-03-30T10:04:34Z</time>
      </trkpt>
      <trkpt lat="41.121700" lon="-6.796068">
        <ele>537.057</ele>
        <time>2015-03-30T10:04:35Z</time>
      </trkpt>
      <trkpt lat="41.121715" lon="-6.796054">
        <ele>537.582</ele>
        <time>2015-03-30T10:04:36Z</time>
      </trkpt>
      <trkpt lat="41.121730" lon="-6.796042">
        <ele>538.012</ele>
        <time>2015-03-30T10:04:37Z</time>
      </trkpt>
      <trkpt lat="41.121745" lon="-6.796030">
        <ele>538.532</ele>
        <time>2015-03-30T10:04:38Z</time>
      </trkpt>
      <trkpt lat="41.121756" lon="-6.796015">
        <ele>538.005</ele>
        <time>2015-03-30T10:04:39Z</time>
      </trkpt>
      <trkpt lat="41.121765" lon="-6.796001">
        <ele>538.507</ele>
        <time>2015-03-30T10:04:40Z</time>
      </trkpt>
      <trkpt lat="41.121774" lon="-6.795985">
        <ele>539.040</ele>
        <time>2015-03-30T10:04:41Z</time>
      </trkpt>
      <trkpt lat="41.121782" lon="-6.795967">
        <ele>539.065</ele>
        <time>2015-03-30T10:04:42Z</time>
      </trkpt>
      <trkpt lat="41.121788" lon="-6.795947">
        <ele>539.080</ele>
        <time>2015-03-30T10:04:43Z</time>
      </trkpt>
      <trkpt lat="41.121794" lon="-6.795929">
        <ele>539.044</ele>
        <time>2015-03-30T10:04:44Z</time>
      </trkpt>
      <trkpt lat="41.121888" lon="-6.795778">
        <ele>540.454</ele>
        <time>2015-03-30T10:04:53Z</time>
      </trkpt>
      <trkpt lat="41.121901" lon="-6.795763">
        <ele>540.427</ele>
        <time>2015-03-30T10:04:54Z</time>
      </trkpt>
      <trkpt lat="41.121914" lon="-6.795746">
        <ele>540.942</ele>
        <time>2015-03-30T10:04:55Z</time>
      </trkpt>
      <trkpt lat="41.121926" lon="-6.795729">
        <ele>540.917</ele>
        <time>2015-03-30T10:04:56Z</time>
      </trkpt>
      <trkpt lat="41.121939" lon="-6.795713">
        <ele>540.987</ele>
        <time>2015-03-30T10:04:57Z</time>
      </trkpt>
      <trkpt lat="41.121953" lon="-6.795698">
        <ele>541.415</ele>
        <time>2015-03-30T10:04:58Z</time>
      </trkpt>
      <trkpt lat="41.121967" lon="-6.795677">
        <ele>541.407</ele>
        <time>2015-03-30T10:04:59Z</time>
      </trkpt>
      <trkpt lat="41.121982" lon="-6.795652">
        <ele>541.480</ele>
        <time>2015-03-30T10:05:00Z</time>
      </trkpt>
      <trkpt lat="41.122094" lon="-6.795406">
        <ele>541.835</ele>
        <time>2015-03-30T10:05:10Z</time>
      </trkpt>
      <trkpt lat="41.122127" lon="-6.795325">
        <ele>542.340</ele>
        <time>2015-03-30T10:05:17Z</time>
      </trkpt>
      <trkpt lat="41.122150" lon="-6.795289">
        <ele>542.384</ele>
        <time>2015-03-30T10:05:19Z</time>
      </trkpt>
      <trkpt lat="41.122162" lon="-6.795269">
        <ele>542.324</ele>
        <time>2015-03-30T10:05:20Z</time>
      </trkpt>
      <trkpt lat="41.122176" lon="-6.795247">
        <ele>542.327</ele>
        <time>2015-03-30T10:05:21Z</time>
      </trkpt>
      <trkpt lat="41.122190" lon="-6.795225">
        <ele>542.332</ele>
        <time>2015-03-30T10:05:22Z</time>
      </trkpt>
      <trkpt lat="41.122206" lon="-6.795200">
        <ele>542.387</ele>
        <time>2015-03-30T10:05:23Z</time>
      </trkpt>
      <trkpt lat="41.122409" lon="-6.794936">
        <ele>542.842</ele>
        <time>2015-03-30T10:05:34Z</time>
      </trkpt>
      <trkpt lat="41.122641" lon="-6.794716">
        <ele>542.826</ele>
        <time>2015-03-30T10:05:44Z</time>
      </trkpt>
      <trkpt lat="41.122901" lon="-6.794509">
        <ele>542.807</ele>
        <time>2015-03-30T10:05:53Z</time>
      </trkpt>
      <trkpt lat="41.123187" lon="-6.794361">
        <ele>543.847</ele>
        <time>2015-03-30T10:06:03Z</time>
      </trkpt>
      <trkpt lat="41.123387" lon="-6.794244">
        <ele>544.742</ele>
        <time>2015-03-30T10:06:11Z</time>
      </trkpt>
      <trkpt lat="41.123555" lon="-6.794176">
        <ele>546.757</ele>
        <time>2015-03-30T10:06:19Z</time>
      </trkpt>
      <trkpt lat="41.123737" lon="-6.794138">
        <ele>548.161</ele>
        <time>2015-03-30T10:06:29Z</time>
      </trkpt>
      <trkpt lat="41.123967" lon="-6.794145">
        <ele>551.031</ele>
        <time>2015-03-30T10:06:41Z</time>
      </trkpt>
      <trkpt lat="41.124185" lon="-6.794176">
        <ele>553.944</ele>
        <time>2015-03-30T10:06:53Z</time>
      </trkpt>
      <trkpt lat="41.124367" lon="-6.794222">
        <ele>555.319</ele>
        <time>2015-03-30T10:07:03Z</time>
      </trkpt>
      <trkpt lat="41.124556" lon="-6.794288">
        <ele>556.798</ele>
        <time>2015-03-30T10:07:13Z</time>
      </trkpt>
      <trkpt lat="41.124573" lon="-6.794297">
        <ele>557.215</ele>
        <time>2015-03-30T10:07:14Z</time>
      </trkpt>
      <trkpt lat="41.124591" lon="-6.794304">
        <ele>557.226</ele>
        <time>2015-03-30T10:07:15Z</time>
      </trkpt>
      <trkpt lat="41.124607" lon="-6.794313">
        <ele>557.707</ele>
        <time>2015-03-30T10:07:16Z</time>
      </trkpt>
      <trkpt lat="41.124625" lon="-6.794326">
        <ele>557.728</ele>
        <time>2015-03-30T10:07:17Z</time>
      </trkpt>
      <trkpt lat="41.124645" lon="-6.794336">
        <ele>557.713</ele>
        <time>2015-03-30T10:07:18Z</time>
      </trkpt>
      <trkpt lat="41.124664" lon="-6.794338">
        <ele>557.768</ele>
        <time>2015-03-30T10:07:19Z</time>
      </trkpt>
      <trkpt lat="41.124683" lon="-6.794343">
        <ele>557.792</ele>
        <time>2015-03-30T10:07:20Z</time>
      </trkpt>
      <trkpt lat="41.124700" lon="-6.794353">
        <ele>558.292</ele>
        <time>2015-03-30T10:07:21Z</time>
      </trkpt>
      <trkpt lat="41.124716" lon="-6.794367">
        <ele>558.255</ele>
        <time>2015-03-30T10:07:22Z</time>
      </trkpt>
      <trkpt lat="41.124735" lon="-6.794376">
        <ele>558.220</ele>
        <time>2015-03-30T10:07:23Z</time>
      </trkpt>
      <trkpt lat="41.124755" lon="-6.794377">
        <ele>558.228</ele>
        <time>2015-03-30T10:07:24Z</time>
      </trkpt>
      <trkpt lat="41.124772" lon="-6.794385">
        <ele>558.789</ele>
        <time>2015-03-30T10:07:25Z</time>
      </trkpt>
      <trkpt lat="41.124789" lon="-6.794397">
        <ele>558.717</ele>
        <time>2015-03-30T10:07:26Z</time>
      </trkpt>
      <trkpt lat="41.124808" lon="-6.794407">
        <ele>558.707</ele>
        <time>2015-03-30T10:07:27Z</time>
      </trkpt>
      <trkpt lat="41.124829" lon="-6.794417">
        <ele>558.731</ele>
        <time>2015-03-30T10:07:28Z</time>
      </trkpt>
      <trkpt lat="41.124847" lon="-6.794428">
        <ele>558.726</ele>
        <time>2015-03-30T10:07:29Z</time>
      </trkpt>
      <trkpt lat="41.125046" lon="-6.794514">
        <ele>559.131</ele>
        <time>2015-03-30T10:07:39Z</time>
      </trkpt>
      <trkpt lat="41.125088" lon="-6.794528">
        <ele>558.285</ele>
        <time>2015-03-30T10:07:41Z</time>
      </trkpt>
      <trkpt lat="41.125414" lon="-6.794663">
        <ele>557.765</ele>
        <time>2015-03-30T10:07:53Z</time>
      </trkpt>
      <trkpt lat="41.125680" lon="-6.794810">
        <ele>556.318</ele>
        <time>2015-03-30T10:08:02Z</time>
      </trkpt>
      <trkpt lat="41.125752" lon="-6.794851">
        <ele>555.893</ele>
        <time>2015-03-30T10:08:04Z</time>
      </trkpt>
      <trkpt lat="41.125788" lon="-6.794875">
        <ele>555.815</ele>
        <time>2015-03-30T10:08:05Z</time>
      </trkpt>
      <trkpt lat="41.125825" lon="-6.794893">
        <ele>555.865</ele>
        <time>2015-03-30T10:08:06Z</time>
      </trkpt>
      <trkpt lat="41.125865" lon="-6.794906">
        <ele>555.311</ele>
        <time>2015-03-30T10:08:07Z</time>
      </trkpt>
      <trkpt lat="41.125904" lon="-6.794918">
        <ele>555.307</ele>
        <time>2015-03-30T10:08:08Z</time>
      </trkpt>
      <trkpt lat="41.125944" lon="-6.794926">
        <ele>555.330</ele>
        <time>2015-03-30T10:08:09Z</time>
      </trkpt>
      <trkpt lat="41.125983" lon="-6.794923">
        <ele>555.315</ele>
        <time>2015-03-30T10:08:10Z</time>
      </trkpt>
      <trkpt lat="41.126020" lon="-6.794915">
        <ele>555.390</ele>
        <time>2015-03-30T10:08:11Z</time>
      </trkpt>
      <trkpt lat="41.126055" lon="-6.794902">
        <ele>555.344</ele>
        <time>2015-03-30T10:08:12Z</time>
      </trkpt>
      <trkpt lat="41.126090" lon="-6.794890">
        <ele>555.374</ele>
        <time>2015-03-30T10:08:13Z</time>
      </trkpt>
      <trkpt lat="41.126127" lon="-6.794882">
        <ele>555.377</ele>
        <time>2015-03-30T10:08:14Z</time>
      </trkpt>
      <trkpt lat="41.126438" lon="-6.794690">
        <ele>555.322</ele>
        <time>2015-03-30T10:08:23Z</time>
      </trkpt>
      <trkpt lat="41.126687" lon="-6.794498">
        <ele>556.728</ele>
        <time>2015-03-30T10:08:32Z</time>
      </trkpt>
      <trkpt lat="41.126968" lon="-6.794180">
        <ele>558.289</ele>
        <time>2015-03-30T10:08:44Z</time>
      </trkpt>
      <trkpt lat="41.127201" lon="-6.793801">
        <ele>561.617</ele>
        <time>2015-03-30T10:08:57Z</time>
      </trkpt>
      <trkpt lat="41.127320" lon="-6.793552">
        <ele>563.507</ele>
        <time>2015-03-30T10:09:07Z</time>
      </trkpt>
      <trkpt lat="41.127346" lon="-6.793514">
        <ele>564.061</ele>
        <time>2015-03-30T10:09:09Z</time>
      </trkpt>
      <trkpt lat="41.127356" lon="-6.793494">
        <ele>564.076</ele>
        <time>2015-03-30T10:09:10Z</time>
      </trkpt>
      <trkpt lat="41.127371" lon="-6.793480">
        <ele>564.421</ele>
        <time>2015-03-30T10:09:11Z</time>
      </trkpt>
      <trkpt lat="41.127538" lon="-6.793360">
        <ele>568.375</ele>
        <time>2015-03-30T10:09:21Z</time>
      </trkpt>
      <trkpt lat="41.127652" lon="-6.793311">
        <ele>567.885</ele>
        <time>2015-03-30T10:09:28Z</time>
      </trkpt>
      <trkpt lat="41.127666" lon="-6.793300">
        <ele>567.818</ele>
        <time>2015-03-30T10:09:29Z</time>
      </trkpt>
      <trkpt lat="41.127680" lon="-6.793291">
        <ele>567.893</ele>
        <time>2015-03-30T10:09:30Z</time>
      </trkpt>
      <trkpt lat="41.127694" lon="-6.793284">
        <ele>568.384</ele>
        <time>2015-03-30T10:09:31Z</time>
      </trkpt>
      <trkpt lat="41.127711" lon="-6.793282">
        <ele>568.307</ele>
        <time>2015-03-30T10:09:32Z</time>
      </trkpt>
      <trkpt lat="41.127728" lon="-6.793286">
        <ele>568.317</ele>
        <time>2015-03-30T10:09:33Z</time>
      </trkpt>
      <trkpt lat="41.127747" lon="-6.793289">
        <ele>568.807</ele>
        <time>2015-03-30T10:09:34Z</time>
      </trkpt>
      <trkpt lat="41.127901" lon="-6.793281">
        <ele>569.767</ele>
        <time>2015-03-30T10:09:43Z</time>
      </trkpt>
      <trkpt lat="41.127968" lon="-6.793273">
        <ele>570.242</ele>
        <time>2015-03-30T10:09:47Z</time>
      </trkpt>
      <trkpt lat="41.127984" lon="-6.793278">
        <ele>570.217</ele>
        <time>2015-03-30T10:09:48Z</time>
      </trkpt>
      <trkpt lat="41.128001" lon="-6.793284">
        <ele>570.261</ele>
        <time>2015-03-30T10:09:49Z</time>
      </trkpt>
      <trkpt lat="41.128017" lon="-6.793286">
        <ele>570.741</ele>
        <time>2015-03-30T10:09:50Z</time>
      </trkpt>
      <trkpt lat="41.128031" lon="-6.793285">
        <ele>570.784</ele>
        <time>2015-03-30T10:09:51Z</time>
      </trkpt>
      <trkpt lat="41.128199" lon="-6.793300">
        <ele>571.259</ele>
        <time>2015-03-30T10:10:00Z</time>
      </trkpt>
      <trkpt lat="41.128443" lon="-6.793354">
        <ele>571.675</ele>
        <time>2015-03-30T10:10:11Z</time>
      </trkpt>
      <trkpt lat="41.128696" lon="-6.793392">
        <ele>571.628</ele>
        <time>2015-03-30T10:10:21Z</time>
      </trkpt>
      <trkpt lat="41.129021" lon="-6.793495">
        <ele>570.220</ele>
        <time>2015-03-30T10:10:33Z</time>
      </trkpt>
      <trkpt lat="41.129236" lon="-6.793716">
        <ele>568.807</ele>
        <time>2015-03-30T10:10:40Z</time>
      </trkpt>
      <trkpt lat="41.129308" lon="-6.793785">
        <ele>567.886</ele>
        <time>2015-03-30T10:10:42Z</time>
      </trkpt>
      <trkpt lat="41.129345" lon="-6.793816">
        <ele>567.821</ele>
        <time>2015-03-30T10:10:43Z</time>
      </trkpt>
      <trkpt lat="41.129530" lon="-6.794021">
        <ele>567.356</ele>
        <time>2015-03-30T10:10:48Z</time>
      </trkpt>
      <trkpt lat="41.129620" lon="-6.794095">
        <ele>567.330</ele>
        <time>2015-03-30T10:10:50Z</time>
      </trkpt>
      <trkpt lat="41.129668" lon="-6.794121">
        <ele>567.350</ele>
        <time>2015-03-30T10:10:51Z</time>
      </trkpt>
      <trkpt lat="41.129952" lon="-6.794200">
        <ele>567.823</ele>
        <time>2015-03-30T10:10:59Z</time>
      </trkpt>
      <trkpt lat="41.130179" lon="-6.794387">
        <ele>567.358</ele>
        <time>2015-03-30T10:11:08Z</time>
      </trkpt>
      <trkpt lat="41.130236" lon="-6.794489">
        <ele>564.924</ele>
        <time>2015-03-30T10:11:11Z</time>
      </trkpt>
      <trkpt lat="41.130354" lon="-6.794773">
        <ele>563.504</ele>
        <time>2015-03-30T10:11:17Z</time>
      </trkpt>
      <trkpt lat="41.130454" lon="-6.794951">
        <ele>563.014</ele>
        <time>2015-03-30T10:11:21Z</time>
      </trkpt>
      <trkpt lat="41.130632" lon="-6.795292">
        <ele>560.107</ele>
        <time>2015-03-30T10:11:27Z</time>
      </trkpt>
      <trkpt lat="41.130858" lon="-6.795666">
        <ele>557.721</ele>
        <time>2015-03-30T10:11:32Z</time>
      </trkpt>
      <trkpt lat="41.130918" lon="-6.795711">
        <ele>557.786</ele>
        <time>2015-03-30T10:11:33Z</time>
      </trkpt>
      <trkpt lat="41.131018" lon="-6.795758">
        <ele>558.741</ele>
        <time>2015-03-30T10:11:35Z</time>
      </trkpt>
      <trkpt lat="41.131060" lon="-6.795765">
        <ele>559.175</ele>
        <time>2015-03-30T10:11:36Z</time>
      </trkpt>
      <trkpt lat="41.131099" lon="-6.795770">
        <ele>559.695</ele>
        <time>2015-03-30T10:11:37Z</time>
      </trkpt>
      <trkpt lat="41.131160" lon="-6.795779">
        <ele>560.678</ele>
        <time>2015-03-30T10:11:39Z</time>
      </trkpt>
      <trkpt lat="41.131396" lon="-6.795865">
        <ele>562.513</ele>
        <time>2015-03-30T10:11:49Z</time>
      </trkpt>
      <trkpt lat="41.131601" lon="-6.795881">
        <ele>564.457</ele>
        <time>2015-03-30T10:11:57Z</time>
      </trkpt>
      <trkpt lat="41.131732" lon="-6.795871">
        <ele>565.400</ele>
        <time>2015-03-30T10:12:03Z</time>
      </trkpt>
      <trkpt lat="41.131753" lon="-6.795859">
        <ele>565.920</ele>
        <time>2015-03-30T10:12:04Z</time>
      </trkpt>
      <trkpt lat="41.131775" lon="-6.795854">
        <ele>565.907</ele>
        <time>2015-03-30T10:12:05Z</time>
      </trkpt>
      <trkpt lat="41.132006" lon="-6.795848">
        <ele>567.314</ele>
        <time>2015-03-30T10:12:15Z</time>
      </trkpt>
      <trkpt lat="41.132178" lon="-6.795876">
        <ele>568.329</ele>
        <time>2015-03-30T10:12:25Z</time>
      </trkpt>
      <trkpt lat="41.132169" lon="-6.795868">
        <ele>568.814</ele>
        <time>2015-03-30T10:12:45Z</time>
      </trkpt>
      <trkpt lat="41.132171" lon="-6.795869">
        <ele>568.818</ele>
        <time>2015-03-30T10:12:53Z</time>
      </trkpt>
      <trkpt lat="41.132215" lon="-6.795883">
        <ele>568.848</ele>
        <time>2015-03-30T10:12:56Z</time>
      </trkpt>
      <trkpt lat="41.132233" lon="-6.795891">
        <ele>568.851</ele>
        <time>2015-03-30T10:12:57Z</time>
      </trkpt>
      <trkpt lat="41.132426" lon="-6.796113">
        <ele>565.936</ele>
        <time>2015-03-30T10:13:08Z</time>
      </trkpt>
      <trkpt lat="41.132602" lon="-6.796479">
        <ele>564.465</ele>
        <time>2015-03-30T10:13:17Z</time>
      </trkpt>
      <trkpt lat="41.132631" lon="-6.796518">
        <ele>564.968</ele>
        <time>2015-03-30T10:13:18Z</time>
      </trkpt>
      <trkpt lat="41.132690" lon="-6.796598">
        <ele>565.414</ele>
        <time>2015-03-30T10:13:20Z</time>
      </trkpt>
      <trkpt lat="41.132723" lon="-6.796631">
        <ele>565.407</ele>
        <time>2015-03-30T10:13:21Z</time>
      </trkpt>
      <trkpt lat="41.133029" lon="-6.796765">
        <ele>565.455</ele>
        <time>2015-03-30T10:13:30Z</time>
      </trkpt>
      <trkpt lat="41.133288" lon="-6.796642">
        <ele>566.460</ele>
        <time>2015-03-30T10:13:38Z</time>
      </trkpt>
      <trkpt lat="41.133646" lon="-6.796299">
        <ele>567.835</ele>
        <time>2015-03-30T10:13:51Z</time>
      </trkpt>
      <trkpt lat="41.133756" lon="-6.796074">
        <ele>564.999</ele>
        <time>2015-03-30T10:13:57Z</time>
      </trkpt>
      <trkpt lat="41.133772" lon="-6.796039">
        <ele>570.299</ele>
        <time>2015-03-30T10:13:58Z</time>
      </trkpt>
      <trkpt lat="41.133852" lon="-6.795872">
        <ele>566.472</ele>
        <time>2015-03-30T10:14:03Z</time>
      </trkpt>
      <trkpt lat="41.133875" lon="-6.795841">
        <ele>570.747</ele>
        <time>2015-03-30T10:14:04Z</time>
      </trkpt>
      <trkpt lat="41.134180" lon="-6.795672">
        <ele>567.351</ele>
        <time>2015-03-30T10:14:13Z</time>
      </trkpt>
      <trkpt lat="41.134217" lon="-6.795653">
        <ele>567.301</ele>
        <time>2015-03-30T10:14:14Z</time>
      </trkpt>
      <trkpt lat="41.134253" lon="-6.795628">
        <ele>567.311</ele>
        <time>2015-03-30T10:14:15Z</time>
      </trkpt>
      <trkpt lat="41.134287" lon="-6.795603">
        <ele>567.307</ele>
        <time>2015-03-30T10:14:16Z</time>
      </trkpt>
      <trkpt lat="41.134671" lon="-6.795437">
        <ele>567.364</ele>
        <time>2015-03-30T10:14:27Z</time>
      </trkpt>
      <trkpt lat="41.134751" lon="-6.795445">
        <ele>567.849</ele>
        <time>2015-03-30T10:14:29Z</time>
      </trkpt>
      <trkpt lat="41.135053" lon="-6.795293">
        <ele>569.264</ele>
        <time>2015-03-30T10:14:38Z</time>
      </trkpt>
      <trkpt lat="41.135309" lon="-6.795033">
        <ele>569.238</ele>
        <time>2015-03-30T10:14:47Z</time>
      </trkpt>
      <trkpt lat="41.135582" lon="-6.794862">
        <ele>566.858</ele>
        <time>2015-03-30T10:14:53Z</time>
      </trkpt>
      <trkpt lat="41.135624" lon="-6.794824">
        <ele>566.811</ele>
        <time>2015-03-30T10:14:54Z</time>
      </trkpt>
      <trkpt lat="41.135660" lon="-6.794785">
        <ele>566.816</ele>
        <time>2015-03-30T10:14:55Z</time>
      </trkpt>
      <trkpt lat="41.135898" lon="-6.794488">
        <ele>568.815</ele>
        <time>2015-03-30T10:15:04Z</time>
      </trkpt>
      <trkpt lat="41.136212" lon="-6.794348">
        <ele>568.865</ele>
        <time>2015-03-30T10:15:14Z</time>
      </trkpt>
      <trkpt lat="41.136325" lon="-6.794309">
        <ele>567.311</ele>
        <time>2015-03-30T10:15:17Z</time>
      </trkpt>
      <trkpt lat="41.136365" lon="-6.794296">
        <ele>566.407</ele>
        <time>2015-03-30T10:15:18Z</time>
      </trkpt>
      <trkpt lat="41.136528" lon="-6.794250">
        <ele>565.480</ele>
        <time>2015-03-30T10:15:22Z</time>
      </trkpt>
      <trkpt lat="41.136668" lon="-6.794242">
        <ele>564.495</ele>
        <time>2015-03-30T10:15:25Z</time>
      </trkpt>
      <trkpt lat="41.136718" lon="-6.794250">
        <ele>564.450</ele>
        <time>2015-03-30T10:15:26Z</time>
      </trkpt>
      <trkpt lat="41.136768" lon="-6.794266">
        <ele>564.044</ele>
        <time>2015-03-30T10:15:27Z</time>
      </trkpt>
      <trkpt lat="41.136815" lon="-6.794291">
        <ele>563.594</ele>
        <time>2015-03-30T10:15:28Z</time>
      </trkpt>
      <trkpt lat="41.136859" lon="-6.794322">
        <ele>563.587</ele>
        <time>2015-03-30T10:15:29Z</time>
      </trkpt>
      <trkpt lat="41.136902" lon="-6.794355">
        <ele>563.012</ele>
        <time>2015-03-30T10:15:30Z</time>
      </trkpt>
      <trkpt lat="41.137139" lon="-6.794563">
        <ele>563.084</ele>
        <time>2015-03-30T10:15:36Z</time>
      </trkpt>
      <trkpt lat="41.137179" lon="-6.794587">
        <ele>563.507</ele>
        <time>2015-03-30T10:15:37Z</time>
      </trkpt>
      <trkpt lat="41.137221" lon="-6.794603">
        <ele>563.517</ele>
        <time>2015-03-30T10:15:38Z</time>
      </trkpt>
      <trkpt lat="41.137264" lon="-6.794612">
        <ele>563.007</ele>
        <time>2015-03-30T10:15:39Z</time>
      </trkpt>
      <trkpt lat="41.137308" lon="-6.794617">
        <ele>563.057</ele>
        <time>2015-03-30T10:15:40Z</time>
      </trkpt>
      <trkpt lat="41.137353" lon="-6.794615">
        <ele>562.532</ele>
        <time>2015-03-30T10:15:41Z</time>
      </trkpt>
      <trkpt lat="41.137396" lon="-6.794610">
        <ele>562.567</ele>
        <time>2015-03-30T10:15:42Z</time>
      </trkpt>
      <trkpt lat="41.137439" lon="-6.794600">
        <ele>562.551</ele>
        <time>2015-03-30T10:15:43Z</time>
      </trkpt>
      <trkpt lat="41.137484" lon="-6.794591">
        <ele>562.581</ele>
        <time>2015-03-30T10:15:44Z</time>
      </trkpt>
      <trkpt lat="41.137529" lon="-6.794586">
        <ele>562.574</ele>
        <time>2015-03-30T10:15:45Z</time>
      </trkpt>
      <trkpt lat="41.137573" lon="-6.794587">
        <ele>562.019</ele>
        <time>2015-03-30T10:15:46Z</time>
      </trkpt>
      <trkpt lat="41.137615" lon="-6.794583">
        <ele>562.032</ele>
        <time>2015-03-30T10:15:47Z</time>
      </trkpt>
      <trkpt lat="41.137905" lon="-6.794576">
        <ele>561.192</ele>
        <time>2015-03-30T10:15:54Z</time>
      </trkpt>
      <trkpt lat="41.138180" lon="-6.794750">
        <ele>561.111</ele>
        <time>2015-03-30T10:16:03Z</time>
      </trkpt>
      <trkpt lat="41.138270" lon="-6.794948">
        <ele>559.607</ele>
        <time>2015-03-30T10:16:09Z</time>
      </trkpt>
      <trkpt lat="41.138275" lon="-6.794984">
        <ele>559.622</ele>
        <time>2015-03-30T10:16:10Z</time>
      </trkpt>
      <trkpt lat="41.138284" lon="-6.795017">
        <ele>558.717</ele>
        <time>2015-03-30T10:16:11Z</time>
      </trkpt>
      <trkpt lat="41.138295" lon="-6.795046">
        <ele>559.672</ele>
        <time>2015-03-30T10:16:12Z</time>
      </trkpt>
      <trkpt lat="41.138308" lon="-6.795078">
        <ele>558.776</ele>
        <time>2015-03-30T10:16:13Z</time>
      </trkpt>
      <trkpt lat="41.138322" lon="-6.795114">
        <ele>559.126</ele>
        <time>2015-03-30T10:16:14Z</time>
      </trkpt>
      <trkpt lat="41.138342" lon="-6.795149">
        <ele>559.669</ele>
        <time>2015-03-30T10:16:15Z</time>
      </trkpt>
      <trkpt lat="41.138366" lon="-6.795180">
        <ele>559.634</ele>
        <time>2015-03-30T10:16:16Z</time>
      </trkpt>
      <trkpt lat="41.138398" lon="-6.795207">
        <ele>559.172</ele>
        <time>2015-03-30T10:16:17Z</time>
      </trkpt>
      <trkpt lat="41.138431" lon="-6.795226">
        <ele>559.613</ele>
        <time>2015-03-30T10:16:18Z</time>
      </trkpt>
      <trkpt lat="41.138658" lon="-6.795286">
        <ele>559.114</ele>
        <time>2015-03-30T10:16:26Z</time>
      </trkpt>
      <trkpt lat="41.138902" lon="-6.795454">
        <ele>557.707</ele>
        <time>2015-03-30T10:16:34Z</time>
      </trkpt>
      <trkpt lat="41.138942" lon="-6.795465">
        <ele>557.736</ele>
        <time>2015-03-30T10:16:35Z</time>
      </trkpt>
      <trkpt lat="41.138983" lon="-6.795463">
        <ele>557.751</ele>
        <time>2015-03-30T10:16:36Z</time>
      </trkpt>
      <trkpt lat="41.139023" lon="-6.795456">
        <ele>555.816</ele>
        <time>2015-03-30T10:16:37Z</time>
      </trkpt>
      <trkpt lat="41.139062" lon="-6.795442">
        <ele>557.790</ele>
        <time>2015-03-30T10:16:38Z</time>
      </trkpt>
      <trkpt lat="41.139098" lon="-6.795417">
        <ele>557.270</ele>
        <time>2015-03-30T10:16:39Z</time>
      </trkpt>
      <trkpt lat="41.139135" lon="-6.795389">
        <ele>556.793</ele>
        <time>2015-03-30T10:16:40Z</time>
      </trkpt>
      <trkpt lat="41.139169" lon="-6.795361">
        <ele>556.788</ele>
        <time>2015-03-30T10:16:41Z</time>
      </trkpt>
      <trkpt lat="41.139201" lon="-6.795328">
        <ele>556.375</ele>
        <time>2015-03-30T10:16:42Z</time>
      </trkpt>
      <trkpt lat="41.139285" lon="-6.795205">
        <ele>556.328</ele>
        <time>2015-03-30T10:16:45Z</time>
      </trkpt>
      <trkpt lat="41.139307" lon="-6.795159">
        <ele>556.320</ele>
        <time>2015-03-30T10:16:46Z</time>
      </trkpt>
      <trkpt lat="41.139404" lon="-6.794958">
        <ele>555.307</ele>
        <time>2015-03-30T10:16:50Z</time>
      </trkpt>
      <trkpt lat="41.139429" lon="-6.794906">
        <ele>555.896</ele>
        <time>2015-03-30T10:16:51Z</time>
      </trkpt>
      <trkpt lat="41.139459" lon="-6.794859">
        <ele>555.331</ele>
        <time>2015-03-30T10:16:52Z</time>
      </trkpt>
      <trkpt lat="41.139682" lon="-6.794561">
        <ele>553.946</ele>
        <time>2015-03-30T10:16:59Z</time>
      </trkpt>
      <trkpt lat="41.139752" lon="-6.794495">
        <ele>553.930</ele>
        <time>2015-03-30T10:17:01Z</time>
      </trkpt>
      <trkpt lat="41.140125" lon="-6.794307">
        <ele>553.980</ele>
        <time>2015-03-30T10:17:12Z</time>
      </trkpt>
      <trkpt lat="41.140383" lon="-6.794350">
        <ele>552.443</ele>
        <time>2015-03-30T10:17:19Z</time>
      </trkpt>
      <trkpt lat="41.140421" lon="-6.794378">
        <ele>551.568</ele>
        <time>2015-03-30T10:17:20Z</time>
      </trkpt>
      <trkpt lat="41.140547" lon="-6.794461">
        <ele>550.555</ele>
        <time>2015-03-30T10:17:23Z</time>
      </trkpt>
      <trkpt lat="41.140596" lon="-6.794475">
        <ele>550.507</ele>
        <time>2015-03-30T10:17:24Z</time>
      </trkpt>
      <trkpt lat="41.140643" lon="-6.794470">
        <ele>550.517</ele>
        <time>2015-03-30T10:17:25Z</time>
      </trkpt>
      <trkpt lat="41.140689" lon="-6.794451">
        <ele>551.007</ele>
        <time>2015-03-30T10:17:26Z</time>
      </trkpt>
      <trkpt lat="41.140726" lon="-6.794419">
        <ele>551.014</ele>
        <time>2015-03-30T10:17:27Z</time>
      </trkpt>
      <trkpt lat="41.140756" lon="-6.794382">
        <ele>551.079</ele>
        <time>2015-03-30T10:17:28Z</time>
      </trkpt>
      <trkpt lat="41.141004" lon="-6.794102">
        <ele>550.044</ele>
        <time>2015-03-30T10:17:36Z</time>
      </trkpt>
      <trkpt lat="41.141043" lon="-6.794074">
        <ele>550.538</ele>
        <time>2015-03-30T10:17:37Z</time>
      </trkpt>
      <trkpt lat="41.141080" lon="-6.794053">
        <ele>550.518</ele>
        <time>2015-03-30T10:17:38Z</time>
      </trkpt>
      <trkpt lat="41.141416" lon="-6.794034">
        <ele>551.511</ele>
        <time>2015-03-30T10:17:48Z</time>
      </trkpt>
      <trkpt lat="41.141648" lon="-6.794235">
        <ele>555.366</ele>
        <time>2015-03-30T10:17:57Z</time>
      </trkpt>
      <trkpt lat="41.141670" lon="-6.794260">
        <ele>551.931</ele>
        <time>2015-03-30T10:17:58Z</time>
      </trkpt>
      <trkpt lat="41.141831" lon="-6.794626">
        <ele>551.561</ele>
        <time>2015-03-30T10:18:08Z</time>
      </trkpt>
      <trkpt lat="41.141878" lon="-6.794954">
        <ele>549.507</ele>
        <time>2015-03-30T10:18:14Z</time>
      </trkpt>
      <trkpt lat="41.141913" lon="-6.795079">
        <ele>549.107</ele>
        <time>2015-03-30T10:18:16Z</time>
      </trkpt>
      <trkpt lat="41.141943" lon="-6.795137">
        <ele>549.132</ele>
        <time>2015-03-30T10:18:17Z</time>
      </trkpt>
      <trkpt lat="41.141980" lon="-6.795191">
        <ele>549.137</ele>
        <time>2015-03-30T10:18:18Z</time>
      </trkpt>
      <trkpt lat="41.142022" lon="-6.795232">
        <ele>548.632</ele>
        <time>2015-03-30T10:18:19Z</time>
      </trkpt>
      <trkpt lat="41.142072" lon="-6.795260">
        <ele>548.666</ele>
        <time>2015-03-30T10:18:20Z</time>
      </trkpt>
      <trkpt lat="41.142127" lon="-6.795274">
        <ele>548.156</ele>
        <time>2015-03-30T10:18:21Z</time>
      </trkpt>
      <trkpt lat="41.142183" lon="-6.795269">
        <ele>548.149</ele>
        <time>2015-03-30T10:18:22Z</time>
      </trkpt>
      <trkpt lat="41.142239" lon="-6.795251">
        <ele>548.194</ele>
        <time>2015-03-30T10:18:23Z</time>
      </trkpt>
      <trkpt lat="41.142294" lon="-6.795227">
        <ele>547.177</ele>
        <time>2015-03-30T10:18:24Z</time>
      </trkpt>
      <trkpt lat="41.142410" lon="-6.795188">
        <ele>546.761</ele>
        <time>2015-03-30T10:18:26Z</time>
      </trkpt>
      <trkpt lat="41.142524" lon="-6.795135">
        <ele>546.227</ele>
        <time>2015-03-30T10:18:28Z</time>
      </trkpt>
      <trkpt lat="41.142628" lon="-6.795065">
        <ele>546.707</ele>
        <time>2015-03-30T10:18:30Z</time>
      </trkpt>
      <trkpt lat="41.142676" lon="-6.795034">
        <ele>546.256</ele>
        <time>2015-03-30T10:18:31Z</time>
      </trkpt>
      <trkpt lat="41.142725" lon="-6.795007">
        <ele>546.281</ele>
        <time>2015-03-30T10:18:32Z</time>
      </trkpt>
      <trkpt lat="41.142820" lon="-6.794970">
        <ele>546.776</ele>
        <time>2015-03-30T10:18:34Z</time>
      </trkpt>
      <trkpt lat="41.142869" lon="-6.794964">
        <ele>546.730</ele>
        <time>2015-03-30T10:18:35Z</time>
      </trkpt>
      <trkpt lat="41.142919" lon="-6.794969">
        <ele>546.780</ele>
        <time>2015-03-30T10:18:36Z</time>
      </trkpt>
      <trkpt lat="41.143068" lon="-6.795013">
        <ele>546.223</ele>
        <time>2015-03-30T10:18:39Z</time>
      </trkpt>
      <trkpt lat="41.143116" lon="-6.795039">
        <ele>546.248</ele>
        <time>2015-03-30T10:18:40Z</time>
      </trkpt>
      <trkpt lat="41.143160" lon="-6.795071">
        <ele>546.263</ele>
        <time>2015-03-30T10:18:41Z</time>
      </trkpt>
      <trkpt lat="41.143278" lon="-6.795168">
        <ele>545.744</ele>
        <time>2015-03-30T10:18:44Z</time>
      </trkpt>
      <trkpt lat="41.143342" lon="-6.795235">
        <ele>546.718</ele>
        <time>2015-03-30T10:18:46Z</time>
      </trkpt>
      <trkpt lat="41.143532" lon="-6.795590">
        <ele>548.607</ele>
        <time>2015-03-30T10:18:55Z</time>
      </trkpt>
      <trkpt lat="41.143684" lon="-6.796050">
        <ele>547.125</ele>
        <time>2015-03-30T10:19:06Z</time>
      </trkpt>
      <trkpt lat="41.143806" lon="-6.796242">
        <ele>545.230</ele>
        <time>2015-03-30T10:19:11Z</time>
      </trkpt>
      <trkpt lat="41.143851" lon="-6.796247">
        <ele>544.715</ele>
        <time>2015-03-30T10:19:12Z</time>
      </trkpt>
      <trkpt lat="41.143896" lon="-6.796242">
        <ele>543.879</ele>
        <time>2015-03-30T10:19:13Z</time>
      </trkpt>
      <trkpt lat="41.143940" lon="-6.796228">
        <ele>543.849</ele>
        <time>2015-03-30T10:19:14Z</time>
      </trkpt>
      <trkpt lat="41.143982" lon="-6.796208">
        <ele>543.322</ele>
        <time>2015-03-30T10:19:15Z</time>
      </trkpt>
      <trkpt lat="41.144156" lon="-6.796136">
        <ele>542.367</ele>
        <time>2015-03-30T10:19:19Z</time>
      </trkpt>
      <trkpt lat="41.144421" lon="-6.796081">
        <ele>539.978</ele>
        <time>2015-03-30T10:19:25Z</time>
      </trkpt>
      <trkpt lat="41.144463" lon="-6.796047">
        <ele>539.933</ele>
        <time>2015-03-30T10:19:26Z</time>
      </trkpt>
      <trkpt lat="41.144499" lon="-6.795998">
        <ele>539.926</ele>
        <time>2015-03-30T10:19:27Z</time>
      </trkpt>
      <trkpt lat="41.144529" lon="-6.795943">
        <ele>539.407</ele>
        <time>2015-03-30T10:19:28Z</time>
      </trkpt>
      <trkpt lat="41.144556" lon="-6.795884">
        <ele>539.026</ele>
        <time>2015-03-30T10:19:29Z</time>
      </trkpt>
      <trkpt lat="41.144581" lon="-6.795822">
        <ele>539.051</ele>
        <time>2015-03-30T10:19:30Z</time>
      </trkpt>
      <trkpt lat="41.144603" lon="-6.795760">
        <ele>538.556</ele>
        <time>2015-03-30T10:19:31Z</time>
      </trkpt>
      <trkpt lat="41.144713" lon="-6.795393">
        <ele>535.610</ele>
        <time>2015-03-30T10:19:37Z</time>
      </trkpt>
      <trkpt lat="41.144731" lon="-6.795333">
        <ele>534.610</ele>
        <time>2015-03-30T10:19:38Z</time>
      </trkpt>
      <trkpt lat="41.144752" lon="-6.795277">
        <ele>534.633</ele>
        <time>2015-03-30T10:19:39Z</time>
      </trkpt>
      <trkpt lat="41.144807" lon="-6.795124">
        <ele>532.778</ele>
        <time>2015-03-30T10:19:42Z</time>
      </trkpt>
      <trkpt lat="41.144949" lon="-6.795006">
        <ele>528.444</ele>
        <time>2015-03-30T10:19:48Z</time>
      </trkpt>
      <trkpt lat="41.144980" lon="-6.795005">
        <ele>533.705</ele>
        <time>2015-03-30T10:19:49Z</time>
      </trkpt>
      <trkpt lat="41.145049" lon="-6.795029">
        <ele>530.315</ele>
        <time>2015-03-30T10:19:51Z</time>
      </trkpt>
      <trkpt lat="41.145087" lon="-6.795056">
        <ele>529.807</ele>
        <time>2015-03-30T10:19:52Z</time>
      </trkpt>
      <trkpt lat="41.145121" lon="-6.795093">
        <ele>529.343</ele>
        <time>2015-03-30T10:19:53Z</time>
      </trkpt>
      <trkpt lat="41.145154" lon="-6.795139">
        <ele>528.998</ele>
        <time>2015-03-30T10:19:54Z</time>
      </trkpt>
      <trkpt lat="41.145185" lon="-6.795191">
        <ele>528.973</ele>
        <time>2015-03-30T10:19:55Z</time>
      </trkpt>
      <trkpt lat="41.145213" lon="-6.795247">
        <ele>528.447</ele>
        <time>2015-03-30T10:19:56Z</time>
      </trkpt>
      <trkpt lat="41.145264" lon="-6.795369">
        <ele>527.927</ele>
        <time>2015-03-30T10:19:58Z</time>
      </trkpt>
      <trkpt lat="41.145357" lon="-6.795718">
        <ele>527.450</ele>
        <time>2015-03-30T10:20:03Z</time>
      </trkpt>
      <trkpt lat="41.145398" lon="-6.795867">
        <ele>526.015</ele>
        <time>2015-03-30T10:20:05Z</time>
      </trkpt>
      <trkpt lat="41.145455" lon="-6.796113">
        <ele>525.044</ele>
        <time>2015-03-30T10:20:08Z</time>
      </trkpt>
      <trkpt lat="41.145488" lon="-6.796186">
        <ele>524.505</ele>
        <time>2015-03-30T10:20:09Z</time>
      </trkpt>
      <trkpt lat="41.145529" lon="-6.796253">
        <ele>525.015</ele>
        <time>2015-03-30T10:20:10Z</time>
      </trkpt>
      <trkpt lat="41.145570" lon="-6.796319">
        <ele>524.507</ele>
        <time>2015-03-30T10:20:11Z</time>
      </trkpt>
      <trkpt lat="41.145607" lon="-6.796388">
        <ele>524.133</ele>
        <time>2015-03-30T10:20:12Z</time>
      </trkpt>
      <trkpt lat="41.145642" lon="-6.796463">
        <ele>524.178</ele>
        <time>2015-03-30T10:20:13Z</time>
      </trkpt>
      <trkpt lat="41.145670" lon="-6.796540">
        <ele>523.653</ele>
        <time>2015-03-30T10:20:14Z</time>
      </trkpt>
      <trkpt lat="41.145696" lon="-6.796620">
        <ele>523.657</ele>
        <time>2015-03-30T10:20:15Z</time>
      </trkpt>
      <trkpt lat="41.145743" lon="-6.796759">
        <ele>523.637</ele>
        <time>2015-03-30T10:20:17Z</time>
      </trkpt>
      <trkpt lat="41.145777" lon="-6.796796">
        <ele>523.610</ele>
        <time>2015-03-30T10:20:18Z</time>
      </trkpt>
      <trkpt lat="41.145818" lon="-6.796809">
        <ele>523.665</ele>
        <time>2015-03-30T10:20:19Z</time>
      </trkpt>
      <trkpt lat="41.145857" lon="-6.796794">
        <ele>523.693</ele>
        <time>2015-03-30T10:20:20Z</time>
      </trkpt>
      <trkpt lat="41.145888" lon="-6.796773">
        <ele>524.165</ele>
        <time>2015-03-30T10:20:21Z</time>
      </trkpt>
      <trkpt lat="41.145914" lon="-6.796755">
        <ele>524.121</ele>
        <time>2015-03-30T10:20:22Z</time>
      </trkpt>
      <trkpt lat="41.145937" lon="-6.796738">
        <ele>524.107</ele>
        <time>2015-03-30T10:20:23Z</time>
      </trkpt>
      <trkpt lat="41.145957" lon="-6.796721">
        <ele>524.598</ele>
        <time>2015-03-30T10:20:24Z</time>
      </trkpt>
      <trkpt lat="41.146053" lon="-6.796486">
        <ele>527.943</ele>
        <time>2015-03-30T10:20:33Z</time>
      </trkpt>
      <trkpt lat="41.146062" lon="-6.796458">
        <ele>527.938</ele>
        <time>2015-03-30T10:20:34Z</time>
      </trkpt>
      <trkpt lat="41.146125" lon="-6.796133">
        <ele>527.462</ele>
        <time>2015-03-30T10:20:44Z</time>
      </trkpt>
      <trkpt lat="41.146200" lon="-6.795892">
        <ele>528.472</ele>
        <time>2015-03-30T10:20:52Z</time>
      </trkpt>
      <trkpt lat="41.146251" lon="-6.795512">
        <ele>529.315</ele>
        <time>2015-03-30T10:21:03Z</time>
      </trkpt>
      <trkpt lat="41.146278" lon="-6.795360">
        <ele>529.370</ele>
        <time>2015-03-30T10:21:07Z</time>
      </trkpt>
      <trkpt lat="41.146288" lon="-6.795325">
        <ele>529.323</ele>
        <time>2015-03-30T10:21:08Z</time>
      </trkpt>
      <trkpt lat="41.146398" lon="-6.794908">
        <ele>529.883</ele>
        <time>2015-03-30T10:21:20Z</time>
      </trkpt>
      <trkpt lat="41.146574" lon="-6.794633">
        <ele>529.811</ele>
        <time>2015-03-30T10:21:29Z</time>
      </trkpt>
      <trkpt lat="41.146732" lon="-6.794278">
        <ele>530.307</ele>
        <time>2015-03-30T10:21:39Z</time>
      </trkpt>
      <trkpt lat="41.146916" lon="-6.794027">
        <ele>531.831</ele>
        <time>2015-03-30T10:21:49Z</time>
      </trkpt>
      <trkpt lat="41.147085" lon="-6.793864">
        <ele>533.276</ele>
        <time>2015-03-30T10:21:58Z</time>
      </trkpt>
      <trkpt lat="41.147128" lon="-6.793566">
        <ele>533.791</ele>
        <time>2015-03-30T10:22:06Z</time>
      </trkpt>
      <trkpt lat="41.147209" lon="-6.793203">
        <ele>534.275</ele>
        <time>2015-03-30T10:22:16Z</time>
      </trkpt>
      <trkpt lat="41.147451" lon="-6.793010">
        <ele>535.685</ele>
        <time>2015-03-30T10:22:26Z</time>
      </trkpt>
      <trkpt lat="41.147593" lon="-6.792844">
        <ele>536.668</ele>
        <time>2015-03-30T10:22:34Z</time>
      </trkpt>
      <trkpt lat="41.147586" lon="-6.792812">
        <ele>536.193</ele>
        <time>2015-03-30T10:22:35Z</time>
      </trkpt>
      <trkpt lat="41.147576" lon="-6.792779">
        <ele>536.187</ele>
        <time>2015-03-30T10:22:36Z</time>
      </trkpt>
      <trkpt lat="41.147362" lon="-6.792455">
        <ele>535.642</ele>
        <time>2015-03-30T10:22:47Z</time>
      </trkpt>
      <trkpt lat="41.147057" lon="-6.792328">
        <ele>534.226</ele>
        <time>2015-03-30T10:22:56Z</time>
      </trkpt>
      <trkpt lat="41.147033" lon="-6.792296">
        <ele>534.207</ele>
        <time>2015-03-30T10:22:57Z</time>
      </trkpt>
      <trkpt lat="41.147017" lon="-6.792256">
        <ele>534.297</ele>
        <time>2015-03-30T10:22:58Z</time>
      </trkpt>
      <trkpt lat="41.147005" lon="-6.792214">
        <ele>534.282</ele>
        <time>2015-03-30T10:22:59Z</time>
      </trkpt>
      <trkpt lat="41.147019" lon="-6.791916">
        <ele>534.267</ele>
        <time>2015-03-30T10:23:07Z</time>
      </trkpt>
      <trkpt lat="41.147117" lon="-6.791619">
        <ele>533.781</ele>
        <time>2015-03-30T10:23:16Z</time>
      </trkpt>
      <trkpt lat="41.147103" lon="-6.791623">
        <ele>533.721</ele>
        <time>2015-03-30T10:23:32Z</time>
      </trkpt>
      <trkpt lat="41.147106" lon="-6.791627">
        <ele>528.464</ele>
        <time>2015-03-30T10:23:43Z</time>
      </trkpt>
      <trkpt lat="41.147107" lon="-6.791627">
        <ele>538.569</ele>
        <time>2015-03-30T10:23:44Z</time>
      </trkpt>
      <trkpt lat="41.147108" lon="-6.791624">
        <ele>534.228</ele>
        <time>2015-03-30T10:23:45Z</time>
      </trkpt>
      <trkpt lat="41.147110" lon="-6.791622">
        <ele>534.689</ele>
        <time>2015-03-30T10:23:56Z</time>
      </trkpt>
      <trkpt lat="41.147111" lon="-6.791623">
        <ele>534.617</ele>
        <time>2015-03-30T10:24:24Z</time>
      </trkpt>
      <trkpt lat="41.147115" lon="-6.791621">
        <ele>534.207</ele>
        <time>2015-03-30T10:24:41Z</time>
      </trkpt>
      <trkpt lat="41.147121" lon="-6.791616">
        <ele>534.221</ele>
        <time>2015-03-30T10:25:09Z</time>
      </trkpt>
      <trkpt lat="41.147118" lon="-6.791616">
        <ele>534.256</ele>
        <time>2015-03-30T10:25:33Z</time>
      </trkpt>
      <trkpt lat="41.147118" lon="-6.791618">
        <ele>533.751</ele>
        <time>2015-03-30T10:25:51Z</time>
      </trkpt>
      <trkpt lat="41.147115" lon="-6.791613">
        <ele>533.225</ele>
        <time>2015-03-30T10:26:17Z</time>
      </trkpt>
      <trkpt lat="41.147116" lon="-6.791609">
        <ele>533.275</ele>
        <time>2015-03-30T10:26:25Z</time>
      </trkpt>
      <trkpt lat="41.147123" lon="-6.791589">
        <ele>533.238</ele>
        <time>2015-03-30T10:26:26Z</time>
      </trkpt>
      <trkpt lat="41.147129" lon="-6.791568">
        <ele>533.223</ele>
        <time>2015-03-30T10:26:27Z</time>
      </trkpt>
      <trkpt lat="41.147161" lon="-6.791246">
        <ele>532.755</ele>
        <time>2015-03-30T10:26:36Z</time>
      </trkpt>
      <trkpt lat="41.147161" lon="-6.790862">
        <ele>533.207</ele>
        <time>2015-03-30T10:26:48Z</time>
      </trkpt>
      <trkpt lat="41.147180" lon="-6.790528">
        <ele>533.717</ele>
        <time>2015-03-30T10:26:57Z</time>
      </trkpt>
      <trkpt lat="41.147126" lon="-6.790122">
        <ele>535.107</ele>
        <time>2015-03-30T10:27:08Z</time>
      </trkpt>
      <trkpt lat="41.147196" lon="-6.789704">
        <ele>536.174</ele>
        <time>2015-03-30T10:27:20Z</time>
      </trkpt>
      <trkpt lat="41.147415" lon="-6.789571">
        <ele>537.599</ele>
        <time>2015-03-30T10:27:29Z</time>
      </trkpt>
      <trkpt lat="41.147589" lon="-6.789493">
        <ele>538.584</ele>
        <time>2015-03-30T10:27:37Z</time>
      </trkpt>
      <trkpt lat="41.147811" lon="-6.789295">
        <ele>540.428</ele>
        <time>2015-03-30T10:27:49Z</time>
      </trkpt>
      <trkpt lat="41.147914" lon="-6.789061">
        <ele>542.388</ele>
        <time>2015-03-30T10:27:59Z</time>
      </trkpt>
      <trkpt lat="41.147871" lon="-6.788753">
        <ele>543.351</ele>
        <time>2015-03-30T10:28:10Z</time>
      </trkpt>
      <trkpt lat="41.147778" lon="-6.788444">
        <ele>544.246</ele>
        <time>2015-03-30T10:28:20Z</time>
      </trkpt>
      <trkpt lat="41.147726" lon="-6.788118">
        <ele>545.285</ele>
        <time>2015-03-30T10:28:31Z</time>
      </trkpt>
      <trkpt lat="41.147732" lon="-6.787839">
        <ele>545.789</ele>
        <time>2015-03-30T10:28:40Z</time>
      </trkpt>
      <trkpt lat="41.147741" lon="-6.787802">
        <ele>545.717</ele>
        <time>2015-03-30T10:28:42Z</time>
      </trkpt>
      <trkpt lat="41.147748" lon="-6.787786">
        <ele>545.707</ele>
        <time>2015-03-30T10:28:43Z</time>
      </trkpt>
      <trkpt lat="41.147757" lon="-6.787767">
        <ele>545.747</ele>
        <time>2015-03-30T10:28:44Z</time>
      </trkpt>
      <trkpt lat="41.147766" lon="-6.787747">
        <ele>545.772</ele>
        <time>2015-03-30T10:28:45Z</time>
      </trkpt>
      <trkpt lat="41.147775" lon="-6.787725">
        <ele>545.747</ele>
        <time>2015-03-30T10:28:46Z</time>
      </trkpt>
      <trkpt lat="41.147866" lon="-6.787373">
        <ele>546.261</ele>
        <time>2015-03-30T10:28:58Z</time>
      </trkpt>
      <trkpt lat="41.147820" lon="-6.786956">
        <ele>546.771</ele>
        <time>2015-03-30T10:29:09Z</time>
      </trkpt>
      <trkpt lat="41.147776" lon="-6.786517">
        <ele>547.194</ele>
        <time>2015-03-30T10:29:20Z</time>
      </trkpt>
      <trkpt lat="41.147832" lon="-6.785996">
        <ele>548.159</ele>
        <time>2015-03-30T10:29:33Z</time>
      </trkpt>
      <trkpt lat="41.147882" lon="-6.785691">
        <ele>548.686</ele>
        <time>2015-03-30T10:29:42Z</time>
      </trkpt>
      <trkpt lat="41.147957" lon="-6.785520">
        <ele>549.560</ele>
        <time>2015-03-30T10:29:48Z</time>
      </trkpt>
      <trkpt lat="41.148022" lon="-6.785476">
        <ele>550.526</ele>
        <time>2015-03-30T10:29:52Z</time>
      </trkpt>
      <trkpt lat="41.148107" lon="-6.785513">
        <ele>551.507</ele>
        <time>2015-03-30T10:30:00Z</time>
      </trkpt>
      <trkpt lat="41.148181" lon="-6.785546">
        <ele>552.437</ele>
        <time>2015-03-30T10:30:07Z</time>
      </trkpt>
      <trkpt lat="41.148302" lon="-6.785613">
        <ele>554.342</ele>
        <time>2015-03-30T10:30:18Z</time>
      </trkpt>
      <trkpt lat="41.148325" lon="-6.785614">
        <ele>554.847</ele>
        <time>2015-03-30T10:30:20Z</time>
      </trkpt>
      <trkpt lat="41.148373" lon="-6.785652">
        <ele>555.891</ele>
        <time>2015-03-30T10:30:26Z</time>
      </trkpt>
      <trkpt lat="41.148437" lon="-6.785709">
        <ele>557.261</ele>
        <time>2015-03-30T10:30:34Z</time>
      </trkpt>
      <trkpt lat="41.148491" lon="-6.785736">
        <ele>557.784</ele>
        <time>2015-03-30T10:30:39Z</time>
      </trkpt>
      <trkpt lat="41.148547" lon="-6.785760">
        <ele>559.129</ele>
        <time>2015-03-30T10:30:45Z</time>
      </trkpt>
      <trkpt lat="41.148607" lon="-6.785815">
        <ele>561.181</ele>
        <time>2015-03-30T10:30:54Z</time>
      </trkpt>
      <trkpt lat="41.148682" lon="-6.785824">
        <ele>562.561</ele>
        <time>2015-03-30T10:31:01Z</time>
      </trkpt>
      <trkpt lat="41.148749" lon="-6.785863">
        <ele>564.017</ele>
        <time>2015-03-30T10:31:08Z</time>
      </trkpt>
      <trkpt lat="41.148834" lon="-6.785930">
        <ele>565.907</ele>
        <time>2015-03-30T10:31:17Z</time>
      </trkpt>
      <trkpt lat="41.148901" lon="-6.785968">
        <ele>566.447</ele>
        <time>2015-03-30T10:31:22Z</time>
      </trkpt>
      <trkpt lat="41.148927" lon="-6.786000">
        <ele>567.352</ele>
        <time>2015-03-30T10:31:25Z</time>
      </trkpt>
      <trkpt lat="41.148991" lon="-6.786004">
        <ele>568.337</ele>
        <time>2015-03-30T10:31:32Z</time>
      </trkpt>
      <trkpt lat="41.149027" lon="-6.785957">
        <ele>568.851</ele>
        <time>2015-03-30T10:31:43Z</time>
      </trkpt>
      <trkpt lat="41.149004" lon="-6.785995">
        <ele>568.831</ele>
        <time>2015-03-30T10:31:48Z</time>
      </trkpt>
      <trkpt lat="41.148956" lon="-6.786107">
        <ele>568.894</ele>
        <time>2015-03-30T10:31:57Z</time>
      </trkpt>
      <trkpt lat="41.148946" lon="-6.786167">
        <ele>569.249</ele>
        <time>2015-03-30T10:32:01Z</time>
      </trkpt>
      <trkpt lat="41.148879" lon="-6.786375">
        <ele>569.715</ele>
        <time>2015-03-30T10:32:12Z</time>
      </trkpt>
      <trkpt lat="41.148851" lon="-6.786470">
        <ele>570.265</ele>
        <time>2015-03-30T10:32:17Z</time>
      </trkpt>
      <trkpt lat="41.148838" lon="-6.786552">
        <ele>570.711</ele>
        <time>2015-03-30T10:32:21Z</time>
      </trkpt>
      <trkpt lat="41.148846" lon="-6.786753">
        <ele>571.607</ele>
        <time>2015-03-30T10:32:30Z</time>
      </trkpt>
      <trkpt lat="41.148845" lon="-6.786814">
        <ele>571.690</ele>
        <time>2015-03-30T10:32:33Z</time>
      </trkpt>
      <trkpt lat="41.148882" lon="-6.786970">
        <ele>573.195</ele>
        <time>2015-03-30T10:32:42Z</time>
      </trkpt>
      <trkpt lat="41.148870" lon="-6.787147">
        <ele>574.010</ele>
        <time>2015-03-30T10:32:51Z</time>
      </trkpt>
      <trkpt lat="41.148899" lon="-6.787245">
        <ele>575.024</ele>
        <time>2015-03-30T10:32:59Z</time>
      </trkpt>
      <trkpt lat="41.148941" lon="-6.787311">
        <ele>575.574</ele>
        <time>2015-03-30T10:33:04Z</time>
      </trkpt>
      <trkpt lat="41.149056" lon="-6.787223">
        <ele>577.467</ele>
        <time>2015-03-30T10:33:13Z</time>
      </trkpt>
      <trkpt lat="41.149146" lon="-6.786949">
        <ele>579.372</ele>
        <time>2015-03-30T10:33:27Z</time>
      </trkpt>
      <trkpt lat="41.149249" lon="-6.786722">
        <ele>580.875</ele>
        <time>2015-03-30T10:33:39Z</time>
      </trkpt>
      <trkpt lat="41.149245" lon="-6.786721">
        <ele>581.328</ele>
        <time>2015-03-30T10:33:54Z</time>
      </trkpt>
      <trkpt lat="41.149244" lon="-6.786723">
        <ele>581.320</ele>
        <time>2015-03-30T10:34:11Z</time>
      </trkpt>
      <trkpt lat="41.149262" lon="-6.786703">
        <ele>581.307</ele>
        <time>2015-03-30T10:34:27Z</time>
      </trkpt>
      <trkpt lat="41.149320" lon="-6.786656">
        <ele>581.766</ele>
        <time>2015-03-30T10:34:35Z</time>
      </trkpt>
      <trkpt lat="41.149403" lon="-6.786591">
        <ele>582.791</ele>
        <time>2015-03-30T10:34:44Z</time>
      </trkpt>
      <trkpt lat="41.149414" lon="-6.786587">
        <ele>583.276</ele>
        <time>2015-03-30T10:34:45Z</time>
      </trkpt>
      <trkpt lat="41.149510" lon="-6.786539">
        <ele>584.130</ele>
        <time>2015-03-30T10:34:53Z</time>
      </trkpt>
      <trkpt lat="41.149671" lon="-6.786472">
        <ele>585.620</ele>
        <time>2015-03-30T10:35:05Z</time>
      </trkpt>
      <trkpt lat="41.149857" lon="-6.786387">
        <ele>587.563</ele>
        <time>2015-03-30T10:35:17Z</time>
      </trkpt>
      <trkpt lat="41.150051" lon="-6.786319">
        <ele>589.928</ele>
        <time>2015-03-30T10:35:29Z</time>
      </trkpt>
      <trkpt lat="41.150067" lon="-6.786314">
        <ele>589.981</ele>
        <time>2015-03-30T10:35:30Z</time>
      </trkpt>
      <trkpt lat="41.150161" lon="-6.786272">
        <ele>590.961</ele>
        <time>2015-03-30T10:35:36Z</time>
      </trkpt>
      <trkpt lat="41.150292" lon="-6.786210">
        <ele>592.317</ele>
        <time>2015-03-30T10:35:45Z</time>
      </trkpt>
      <trkpt lat="41.150415" lon="-6.786145">
        <ele>593.807</ele>
        <time>2015-03-30T10:35:54Z</time>
      </trkpt>
      <trkpt lat="41.150547" lon="-6.786077">
        <ele>595.247</ele>
        <time>2015-03-30T10:36:04Z</time>
      </trkpt>
      <trkpt lat="41.150609" lon="-6.786035">
        <ele>595.782</ele>
        <time>2015-03-30T10:36:09Z</time>
      </trkpt>
      <trkpt lat="41.150645" lon="-6.786015">
        <ele>596.297</ele>
        <time>2015-03-30T10:36:12Z</time>
      </trkpt>
      <trkpt lat="41.150724" lon="-6.785940">
        <ele>597.661</ele>
        <time>2015-03-30T10:36:20Z</time>
      </trkpt>
      <trkpt lat="41.150805" lon="-6.785863">
        <ele>598.621</ele>
        <time>2015-03-30T10:36:27Z</time>
      </trkpt>
      <trkpt lat="41.150912" lon="-6.785762">
        <ele>600.074</ele>
        <time>2015-03-30T10:36:35Z</time>
      </trkpt>
      <trkpt lat="41.151086" lon="-6.785560">
        <ele>601.979</ele>
        <time>2015-03-30T10:36:48Z</time>
      </trkpt>
      <trkpt lat="41.151165" lon="-6.785457">
        <ele>602.955</ele>
        <time>2015-03-30T10:36:55Z</time>
      </trkpt>
      <trkpt lat="41.151236" lon="-6.785348">
        <ele>604.307</ele>
        <time>2015-03-30T10:37:02Z</time>
      </trkpt>
      <trkpt lat="41.151253" lon="-6.785319">
        <ele>604.317</ele>
        <time>2015-03-30T10:37:04Z</time>
      </trkpt>
      <trkpt lat="41.151294" lon="-6.785268">
        <ele>604.807</ele>
        <time>2015-03-30T10:37:08Z</time>
      </trkpt>
      <trkpt lat="41.151407" lon="-6.785061">
        <ele>606.384</ele>
        <time>2015-03-30T10:37:20Z</time>
      </trkpt>
      <trkpt lat="41.151477" lon="-6.784938">
        <ele>607.779</ele>
        <time>2015-03-30T10:37:27Z</time>
      </trkpt>
      <trkpt lat="41.151595" lon="-6.784732">
        <ele>610.174</ele>
        <time>2015-03-30T10:37:38Z</time>
      </trkpt>
      <trkpt lat="41.151627" lon="-6.784681">
        <ele>610.158</ele>
        <time>2015-03-30T10:37:41Z</time>
      </trkpt>
      <trkpt lat="41.151667" lon="-6.784606">
        <ele>609.698</ele>
        <time>2015-03-30T10:37:45Z</time>
      </trkpt>
      <trkpt lat="41.151814" lon="-6.784412">
        <ele>613.021</ele>
        <time>2015-03-30T10:37:58Z</time>
      </trkpt>
      <trkpt lat="41.151975" lon="-6.784292">
        <ele>615.466</ele>
        <time>2015-03-30T10:38:10Z</time>
      </trkpt>
      <trkpt lat="41.152044" lon="-6.784250">
        <ele>615.915</ele>
        <time>2015-03-30T10:38:15Z</time>
      </trkpt>
      <trkpt lat="41.152119" lon="-6.784206">
        <ele>616.865</ele>
        <time>2015-03-30T10:38:21Z</time>
      </trkpt>
      <trkpt lat="41.152189" lon="-6.784159">
        <ele>617.311</ele>
        <time>2015-03-30T10:38:26Z</time>
      </trkpt>
      <trkpt lat="41.152240" lon="-6.784110">
        <ele>617.807</ele>
        <time>2015-03-30T10:38:30Z</time>
      </trkpt>
      <trkpt lat="41.152370" lon="-6.783961">
        <ele>621.690</ele>
        <time>2015-03-30T10:38:41Z</time>
      </trkpt>
      <trkpt lat="41.152417" lon="-6.783866">
        <ele>620.745</ele>
        <time>2015-03-30T10:38:46Z</time>
      </trkpt>
      <trkpt lat="41.152544" lon="-6.783649">
        <ele>622.150</ele>
        <time>2015-03-30T10:38:59Z</time>
      </trkpt>
      <trkpt lat="41.152664" lon="-6.783444">
        <ele>623.694</ele>
        <time>2015-03-30T10:39:11Z</time>
      </trkpt>
      <trkpt lat="41.152669" lon="-6.783430">
        <ele>624.044</ele>
        <time>2015-03-30T10:39:20Z</time>
      </trkpt>
      <trkpt lat="41.152668" lon="-6.783433">
        <ele>624.077</ele>
        <time>2015-03-30T10:39:33Z</time>
      </trkpt>
      <trkpt lat="41.152661" lon="-6.783432">
        <ele>624.082</ele>
        <time>2015-03-30T10:39:49Z</time>
      </trkpt>
      <trkpt lat="41.152683" lon="-6.783425">
        <ele>624.546</ele>
        <time>2015-03-30T10:39:56Z</time>
      </trkpt>
      <trkpt lat="41.152687" lon="-6.783424">
        <ele>624.588</ele>
        <time>2015-03-30T10:40:16Z</time>
      </trkpt>
      <trkpt lat="41.152691" lon="-6.783430">
        <ele>624.516</ele>
        <time>2015-03-30T10:40:38Z</time>
      </trkpt>
      <trkpt lat="41.152692" lon="-6.783429">
        <ele>625.007</ele>
        <time>2015-03-30T10:40:40Z</time>
      </trkpt>
      <trkpt lat="41.152693" lon="-6.783382">
        <ele>625.063</ele>
        <time>2015-03-30T10:40:43Z</time>
      </trkpt>
      <trkpt lat="41.152775" lon="-6.783228">
        <ele>626.098</ele>
        <time>2015-03-30T10:40:53Z</time>
      </trkpt>
      <trkpt lat="41.152802" lon="-6.783178">
        <ele>626.913</ele>
        <time>2015-03-30T10:40:56Z</time>
      </trkpt>
      <trkpt lat="41.152899" lon="-6.783007">
        <ele>630.347</ele>
        <time>2015-03-30T10:41:06Z</time>
      </trkpt>
      <trkpt lat="41.153012" lon="-6.782792">
        <ele>631.257</ele>
        <time>2015-03-30T10:41:18Z</time>
      </trkpt>
      <trkpt lat="41.153128" lon="-6.782587">
        <ele>632.710</ele>
        <time>2015-03-30T10:41:29Z</time>
      </trkpt>
      <trkpt lat="41.153304" lon="-6.782394">
        <ele>634.115</ele>
        <time>2015-03-30T10:41:41Z</time>
      </trkpt>
      <trkpt lat="41.153452" lon="-6.782280">
        <ele>634.637</ele>
        <time>2015-03-30T10:41:50Z</time>
      </trkpt>
      <trkpt lat="41.153659" lon="-6.782165">
        <ele>636.149</ele>
        <time>2015-03-30T10:42:02Z</time>
      </trkpt>
      <trkpt lat="41.153698" lon="-6.782147">
        <ele>636.113</ele>
        <time>2015-03-30T10:42:04Z</time>
      </trkpt>
      <trkpt lat="41.153936" lon="-6.782138">
        <ele>638.007</ele>
        <time>2015-03-30T10:42:17Z</time>
      </trkpt>
      <trkpt lat="41.154016" lon="-6.782141">
        <ele>638.962</ele>
        <time>2015-03-30T10:42:22Z</time>
      </trkpt>
      <trkpt lat="41.154204" lon="-6.782160">
        <ele>640.947</ele>
        <time>2015-03-30T10:42:34Z</time>
      </trkpt>
      <trkpt lat="41.154386" lon="-6.782214">
        <ele>642.842</ele>
        <time>2015-03-30T10:42:46Z</time>
      </trkpt>
      <trkpt lat="41.154517" lon="-6.782267">
        <ele>643.756</ele>
        <time>2015-03-30T10:42:55Z</time>
      </trkpt>
      <trkpt lat="41.154668" lon="-6.782381">
        <ele>646.656</ele>
        <time>2015-03-30T10:43:06Z</time>
      </trkpt>
      <trkpt lat="41.154786" lon="-6.782569">
        <ele>649.059</ele>
        <time>2015-03-30T10:43:18Z</time>
      </trkpt>
      <trkpt lat="41.154889" lon="-6.782743">
        <ele>650.584</ele>
        <time>2015-03-30T10:43:29Z</time>
      </trkpt>
      <trkpt lat="41.155009" lon="-6.782960">
        <ele>651.998</ele>
        <time>2015-03-30T10:43:42Z</time>
      </trkpt>
      <trkpt lat="41.155110" lon="-6.783126">
        <ele>653.815</ele>
        <time>2015-03-30T10:43:52Z</time>
      </trkpt>
      <trkpt lat="41.155227" lon="-6.783320">
        <ele>655.326</ele>
        <time>2015-03-30T10:44:04Z</time>
      </trkpt>
      <trkpt lat="41.155341" lon="-6.783522">
        <ele>657.707</ele>
        <time>2015-03-30T10:44:15Z</time>
      </trkpt>
      <trkpt lat="41.155427" lon="-6.783778">
        <ele>659.168</ele>
        <time>2015-03-30T10:44:27Z</time>
      </trkpt>
      <trkpt lat="41.155510" lon="-6.783995">
        <ele>660.623</ele>
        <time>2015-03-30T10:44:37Z</time>
      </trkpt>
      <trkpt lat="41.155584" lon="-6.784232">
        <ele>661.528</ele>
        <time>2015-03-30T10:44:47Z</time>
      </trkpt>
      <trkpt lat="41.155685" lon="-6.784522">
        <ele>663.062</ele>
        <time>2015-03-30T10:44:59Z</time>
      </trkpt>
      <trkpt lat="41.155772" lon="-6.784787">
        <ele>663.972</ele>
        <time>2015-03-30T10:45:10Z</time>
      </trkpt>
      <trkpt lat="41.155860" lon="-6.785050">
        <ele>665.455</ele>
        <time>2015-03-30T10:45:21Z</time>
      </trkpt>
      <trkpt lat="41.155938" lon="-6.785356">
        <ele>666.870</ele>
        <time>2015-03-30T10:45:33Z</time>
      </trkpt>
      <trkpt lat="41.155920" lon="-6.785599">
        <ele>668.348</ele>
        <time>2015-03-30T10:45:42Z</time>
      </trkpt>
      <trkpt lat="41.155919" lon="-6.785626">
        <ele>668.761</ele>
        <time>2015-03-30T10:45:43Z</time>
      </trkpt>
      <trkpt lat="41.155808" lon="-6.785934">
        <ele>669.217</ele>
        <time>2015-03-30T10:45:55Z</time>
      </trkpt>
      <trkpt lat="41.155712" lon="-6.786178">
        <ele>669.707</ele>
        <time>2015-03-30T10:46:05Z</time>
      </trkpt>
      <trkpt lat="41.155665" lon="-6.786421">
        <ele>670.753</ele>
        <time>2015-03-30T10:46:14Z</time>
      </trkpt>
      <trkpt lat="41.155706" lon="-6.786760">
        <ele>672.198</ele>
        <time>2015-03-30T10:46:26Z</time>
      </trkpt>
      <trkpt lat="41.155809" lon="-6.787044">
        <ele>673.173</ele>
        <time>2015-03-30T10:46:37Z</time>
      </trkpt>
      <trkpt lat="41.155944" lon="-6.787198">
        <ele>674.017</ele>
        <time>2015-03-30T10:46:46Z</time>
      </trkpt>
      <trkpt lat="41.156073" lon="-6.787340">
        <ele>675.947</ele>
        <time>2015-03-30T10:46:54Z</time>
      </trkpt>
      <trkpt lat="41.156149" lon="-6.787486">
        <ele>676.990</ele>
        <time>2015-03-30T10:47:01Z</time>
      </trkpt>
      <trkpt lat="41.156192" lon="-6.787545">
        <ele>677.455</ele>
        <time>2015-03-30T10:47:05Z</time>
      </trkpt>
      <trkpt lat="41.156339" lon="-6.787431">
        <ele>676.497</ele>
        <time>2015-03-30T10:47:12Z</time>
      </trkpt>
      <trkpt lat="41.156354" lon="-6.787406">
        <ele>676.923</ele>
        <time>2015-03-30T10:47:13Z</time>
      </trkpt>
      <trkpt lat="41.156516" lon="-6.787074">
        <ele>676.425</ele>
        <time>2015-03-30T10:47:25Z</time>
      </trkpt>
      <trkpt lat="41.156714" lon="-6.786776">
        <ele>675.907</ele>
        <time>2015-03-30T10:47:33Z</time>
      </trkpt>
      <trkpt lat="41.156851" lon="-6.786632">
        <ele>675.058</ele>
        <time>2015-03-30T10:47:37Z</time>
      </trkpt>
      <trkpt lat="41.156958" lon="-6.786531">
        <ele>674.593</ele>
        <time>2015-03-30T10:47:40Z</time>
      </trkpt>
      <trkpt lat="41.157156" lon="-6.786403">
        <ele>674.558</ele>
        <time>2015-03-30T10:47:45Z</time>
      </trkpt>
      <trkpt lat="41.157290" lon="-6.786364">
        <ele>674.082</ele>
        <time>2015-03-30T10:47:48Z</time>
      </trkpt>
      <trkpt lat="41.157333" lon="-6.786357">
        <ele>673.192</ele>
        <time>2015-03-30T10:47:49Z</time>
      </trkpt>
      <trkpt lat="41.157375" lon="-6.786346">
        <ele>673.535</ele>
        <time>2015-03-30T10:47:50Z</time>
      </trkpt>
      <trkpt lat="41.157417" lon="-6.786336">
        <ele>673.150</ele>
        <time>2015-03-30T10:47:51Z</time>
      </trkpt>
      <trkpt lat="41.157458" lon="-6.786327">
        <ele>673.111</ele>
        <time>2015-03-30T10:47:52Z</time>
      </trkpt>
      <trkpt lat="41.157736" lon="-6.786198">
        <ele>672.621</ele>
        <time>2015-03-30T10:48:00Z</time>
      </trkpt>
      <trkpt lat="41.157800" lon="-6.786132">
        <ele>672.603</ele>
        <time>2015-03-30T10:48:02Z</time>
      </trkpt>
      <trkpt lat="41.157823" lon="-6.786087">
        <ele>672.107</ele>
        <time>2015-03-30T10:48:03Z</time>
      </trkpt>
      <trkpt lat="41.157839" lon="-6.786036">
        <ele>671.620</ele>
        <time>2015-03-30T10:48:04Z</time>
      </trkpt>
      <trkpt lat="41.157845" lon="-6.785978">
        <ele>672.125</ele>
        <time>2015-03-30T10:48:05Z</time>
      </trkpt>
      <trkpt lat="41.157844" lon="-6.785920">
        <ele>672.180</ele>
        <time>2015-03-30T10:48:06Z</time>
      </trkpt>
      <trkpt lat="41.157837" lon="-6.785863">
        <ele>672.174</ele>
        <time>2015-03-30T10:48:07Z</time>
      </trkpt>
      <trkpt lat="41.157827" lon="-6.785805">
        <ele>671.674</ele>
        <time>2015-03-30T10:48:08Z</time>
      </trkpt>
      <trkpt lat="41.157815" lon="-6.785752">
        <ele>671.627</ele>
        <time>2015-03-30T10:48:09Z</time>
      </trkpt>
      <trkpt lat="41.157802" lon="-6.785705">
        <ele>671.632</ele>
        <time>2015-03-30T10:48:10Z</time>
      </trkpt>
      <trkpt lat="41.157788" lon="-6.785661">
        <ele>671.647</ele>
        <time>2015-03-30T10:48:11Z</time>
      </trkpt>
      <trkpt lat="41.157771" lon="-6.785619">
        <ele>671.629</ele>
        <time>2015-03-30T10:48:12Z</time>
      </trkpt>
      <trkpt lat="41.157575" lon="-6.785202">
        <ele>671.621</ele>
        <time>2015-03-30T10:48:22Z</time>
      </trkpt>
      <trkpt lat="41.157447" lon="-6.784898">
        <ele>671.607</ele>
        <time>2015-03-30T10:48:29Z</time>
      </trkpt>
      <trkpt lat="41.157380" lon="-6.784617">
        <ele>673.533</ele>
        <time>2015-03-30T10:48:38Z</time>
      </trkpt>
      <trkpt lat="41.157337" lon="-6.784285">
        <ele>674.518</ele>
        <time>2015-03-30T10:48:49Z</time>
      </trkpt>
      <trkpt lat="41.157316" lon="-6.783977">
        <ele>676.923</ele>
        <time>2015-03-30T10:49:00Z</time>
      </trkpt>
      <trkpt lat="41.157316" lon="-6.783684">
        <ele>678.427</ele>
        <time>2015-03-30T10:49:10Z</time>
      </trkpt>
      <trkpt lat="41.157351" lon="-6.783375">
        <ele>680.337</ele>
        <time>2015-03-30T10:49:22Z</time>
      </trkpt>
      <trkpt lat="41.157390" lon="-6.783200">
        <ele>681.270</ele>
        <time>2015-03-30T10:49:29Z</time>
      </trkpt>
      <trkpt lat="41.157397" lon="-6.783177">
        <ele>681.235</ele>
        <time>2015-03-30T10:49:30Z</time>
      </trkpt>
      <trkpt lat="41.157406" lon="-6.783157">
        <ele>681.719</ele>
        <time>2015-03-30T10:49:31Z</time>
      </trkpt>
      <trkpt lat="41.157534" lon="-6.783001">
        <ele>683.609</ele>
        <time>2015-03-30T10:49:41Z</time>
      </trkpt>
      <trkpt lat="41.157541" lon="-6.782985">
        <ele>683.619</ele>
        <time>2015-03-30T10:49:42Z</time>
      </trkpt>
      <trkpt lat="41.157549" lon="-6.782966">
        <ele>683.607</ele>
        <time>2015-03-30T10:49:43Z</time>
      </trkpt>
      <trkpt lat="41.157560" lon="-6.782951">
        <ele>684.140</ele>
        <time>2015-03-30T10:49:44Z</time>
      </trkpt>
      <trkpt lat="41.157666" lon="-6.782783">
        <ele>685.145</ele>
        <time>2015-03-30T10:49:55Z</time>
      </trkpt>
      <trkpt lat="41.157675" lon="-6.782767">
        <ele>685.620</ele>
        <time>2015-03-30T10:49:56Z</time>
      </trkpt>
      <trkpt lat="41.157723" lon="-6.782664">
        <ele>686.044</ele>
        <time>2015-03-30T10:50:02Z</time>
      </trkpt>
      <trkpt lat="41.157731" lon="-6.782648">
        <ele>686.044</ele>
        <time>2015-03-30T10:50:03Z</time>
      </trkpt>
      <trkpt lat="41.157740" lon="-6.782633">
        <ele>686.537</ele>
        <time>2015-03-30T10:50:04Z</time>
      </trkpt>
      <trkpt lat="41.157748" lon="-6.782617">
        <ele>686.562</ele>
        <time>2015-03-30T10:50:05Z</time>
      </trkpt>
      <trkpt lat="41.157756" lon="-6.782604">
        <ele>686.537</ele>
        <time>2015-03-30T10:50:06Z</time>
      </trkpt>
      <trkpt lat="41.157837" lon="-6.782446">
        <ele>688.049</ele>
        <time>2015-03-30T10:50:15Z</time>
      </trkpt>
      <trkpt lat="41.157941" lon="-6.782302">
        <ele>689.413</ele>
        <time>2015-03-30T10:50:25Z</time>
      </trkpt>
      <trkpt lat="41.158007" lon="-6.782248">
        <ele>689.907</ele>
        <time>2015-03-30T10:50:30Z</time>
      </trkpt>
      <trkpt lat="41.158099" lon="-6.782146">
        <ele>691.332</ele>
        <time>2015-03-30T10:50:39Z</time>
      </trkpt>
      <trkpt lat="41.158203" lon="-6.782046">
        <ele>692.367</ele>
        <time>2015-03-30T10:50:49Z</time>
      </trkpt>
      <trkpt lat="41.158244" lon="-6.782010">
        <ele>692.872</ele>
        <time>2015-03-30T10:50:52Z</time>
      </trkpt>
      <trkpt lat="41.158255" lon="-6.781996">
        <ele>692.846</ele>
        <time>2015-03-30T10:50:53Z</time>
      </trkpt>
      <trkpt lat="41.158267" lon="-6.781983">
        <ele>692.846</ele>
        <time>2015-03-30T10:50:54Z</time>
      </trkpt>
      <trkpt lat="41.158280" lon="-6.781969">
        <ele>692.819</ele>
        <time>2015-03-30T10:50:55Z</time>
      </trkpt>
      <trkpt lat="41.158295" lon="-6.781955">
        <ele>693.314</ele>
        <time>2015-03-30T10:50:56Z</time>
      </trkpt>
      <trkpt lat="41.158312" lon="-6.781943">
        <ele>693.341</ele>
        <time>2015-03-30T10:50:57Z</time>
      </trkpt>
      <trkpt lat="41.158328" lon="-6.781933">
        <ele>693.781</ele>
        <time>2015-03-30T10:50:58Z</time>
      </trkpt>
      <trkpt lat="41.158446" lon="-6.781857">
        <ele>694.709</ele>
        <time>2015-03-30T10:51:06Z</time>
      </trkpt>
      <trkpt lat="41.158563" lon="-6.781734">
        <ele>695.707</ele>
        <time>2015-03-30T10:51:15Z</time>
      </trkpt>
      <trkpt lat="41.158707" lon="-6.781634">
        <ele>697.153</ele>
        <time>2015-03-30T10:51:24Z</time>
      </trkpt>
      <trkpt lat="41.158723" lon="-6.781621">
        <ele>697.168</ele>
        <time>2015-03-30T10:51:25Z</time>
      </trkpt>
      <trkpt lat="41.158815" lon="-6.781542">
        <ele>698.513</ele>
        <time>2015-03-30T10:51:32Z</time>
      </trkpt>
      <trkpt lat="41.158827" lon="-6.781531">
        <ele>698.557</ele>
        <time>2015-03-30T10:51:33Z</time>
      </trkpt>
      <trkpt lat="41.158839" lon="-6.781518">
        <ele>699.067</ele>
        <time>2015-03-30T10:51:34Z</time>
      </trkpt>
      <trkpt lat="41.158851" lon="-6.781507">
        <ele>699.030</ele>
        <time>2015-03-30T10:51:35Z</time>
      </trkpt>
      <trkpt lat="41.158861" lon="-6.781494">
        <ele>699.075</ele>
        <time>2015-03-30T10:51:36Z</time>
      </trkpt>
      <trkpt lat="41.158869" lon="-6.781482">
        <ele>699.047</ele>
        <time>2015-03-30T10:51:37Z</time>
      </trkpt>
      <trkpt lat="41.158879" lon="-6.781473">
        <ele>699.529</ele>
        <time>2015-03-30T10:51:38Z</time>
      </trkpt>
      <trkpt lat="41.158962" lon="-6.781393">
        <ele>700.521</ele>
        <time>2015-03-30T10:51:46Z</time>
      </trkpt>
      <trkpt lat="41.158974" lon="-6.781382">
        <ele>700.507</ele>
        <time>2015-03-30T10:51:47Z</time>
      </trkpt>
      <trkpt lat="41.158983" lon="-6.781369">
        <ele>700.543</ele>
        <time>2015-03-30T10:51:48Z</time>
      </trkpt>
      <trkpt lat="41.158996" lon="-6.781359">
        <ele>700.968</ele>
        <time>2015-03-30T10:51:49Z</time>
      </trkpt>
      <trkpt lat="41.159009" lon="-6.781350">
        <ele>700.963</ele>
        <time>2015-03-30T10:51:50Z</time>
      </trkpt>
      <trkpt lat="41.159022" lon="-6.781342">
        <ele>700.977</ele>
        <time>2015-03-30T10:51:51Z</time>
      </trkpt>
      <trkpt lat="41.159034" lon="-6.781331">
        <ele>700.977</ele>
        <time>2015-03-30T10:51:52Z</time>
      </trkpt>
      <trkpt lat="41.159068" lon="-6.781302">
        <ele>701.910</ele>
        <time>2015-03-30T10:51:55Z</time>
      </trkpt>
      <trkpt lat="41.159077" lon="-6.781289">
        <ele>701.985</ele>
        <time>2015-03-30T10:51:56Z</time>
      </trkpt>
      <trkpt lat="41.159086" lon="-6.781279">
        <ele>702.499</ele>
        <time>2015-03-30T10:51:57Z</time>
      </trkpt>
      <trkpt lat="41.159095" lon="-6.781269">
        <ele>702.407</ele>
        <time>2015-03-30T10:51:58Z</time>
      </trkpt>
      <trkpt lat="41.159106" lon="-6.781260">
        <ele>702.927</ele>
        <time>2015-03-30T10:51:59Z</time>
      </trkpt>
      <trkpt lat="41.159118" lon="-6.781251">
        <ele>702.907</ele>
        <time>2015-03-30T10:52:00Z</time>
      </trkpt>
      <trkpt lat="41.159129" lon="-6.781240">
        <ele>703.368</ele>
        <time>2015-03-30T10:52:01Z</time>
      </trkpt>
      <trkpt lat="41.159165" lon="-6.781206">
        <ele>703.843</ele>
        <time>2015-03-30T10:52:04Z</time>
      </trkpt>
      <trkpt lat="41.159175" lon="-6.781191">
        <ele>703.878</ele>
        <time>2015-03-30T10:52:05Z</time>
      </trkpt>
      <trkpt lat="41.159280" lon="-6.781125">
        <ele>705.852</ele>
        <time>2015-03-30T10:52:14Z</time>
      </trkpt>
      <trkpt lat="41.159346" lon="-6.781067">
        <ele>706.732</ele>
        <time>2015-03-30T10:52:20Z</time>
      </trkpt>
      <trkpt lat="41.159420" lon="-6.781017">
        <ele>708.225</ele>
        <time>2015-03-30T10:52:27Z</time>
      </trkpt>
      <trkpt lat="41.159431" lon="-6.781005">
        <ele>708.280</ele>
        <time>2015-03-30T10:52:28Z</time>
      </trkpt>
      <trkpt lat="41.159443" lon="-6.780999">
        <ele>708.616</ele>
        <time>2015-03-30T10:52:29Z</time>
      </trkpt>
      <trkpt lat="41.159454" lon="-6.780993">
        <ele>708.676</ele>
        <time>2015-03-30T10:52:30Z</time>
      </trkpt>
      <trkpt lat="41.159466" lon="-6.780983">
        <ele>708.613</ele>
        <time>2015-03-30T10:52:31Z</time>
      </trkpt>
      <trkpt lat="41.159591" lon="-6.780878">
        <ele>710.607</ele>
        <time>2015-03-30T10:52:42Z</time>
      </trkpt>
      <trkpt lat="41.159677" lon="-6.780828">
        <ele>711.590</ele>
        <time>2015-03-30T10:52:49Z</time>
      </trkpt>
      <trkpt lat="41.159687" lon="-6.780821">
        <ele>711.575</ele>
        <time>2015-03-30T10:52:50Z</time>
      </trkpt>
      <trkpt lat="41.159799" lon="-6.780743">
        <ele>713.040</ele>
        <time>2015-03-30T10:53:01Z</time>
      </trkpt>
      <trkpt lat="41.159900" lon="-6.780674">
        <ele>714.984</ele>
        <time>2015-03-30T10:53:11Z</time>
      </trkpt>
      <trkpt lat="41.159914" lon="-6.780667">
        <ele>714.914</ele>
        <time>2015-03-30T10:53:12Z</time>
      </trkpt>
      <trkpt lat="41.159928" lon="-6.780660">
        <ele>714.997</ele>
        <time>2015-03-30T10:53:13Z</time>
      </trkpt>
      <trkpt lat="41.160072" lon="-6.780592">
        <ele>716.862</ele>
        <time>2015-03-30T10:53:24Z</time>
      </trkpt>
      <trkpt lat="41.160106" lon="-6.780580">
        <ele>717.345</ele>
        <time>2015-03-30T10:53:27Z</time>
      </trkpt>
      <trkpt lat="41.160118" lon="-6.780578">
        <ele>717.347</ele>
        <time>2015-03-30T10:53:28Z</time>
      </trkpt>
      <trkpt lat="41.160129" lon="-6.780571">
        <ele>717.311</ele>
        <time>2015-03-30T10:53:29Z</time>
      </trkpt>
      <trkpt lat="41.160140" lon="-6.780564">
        <ele>717.807</ele>
        <time>2015-03-30T10:53:30Z</time>
      </trkpt>
      <trkpt lat="41.160152" lon="-6.780560">
        <ele>718.283</ele>
        <time>2015-03-30T10:53:31Z</time>
      </trkpt>
      <trkpt lat="41.160165" lon="-6.780556">
        <ele>718.238</ele>
        <time>2015-03-30T10:53:32Z</time>
      </trkpt>
      <trkpt lat="41.160177" lon="-6.780556">
        <ele>718.213</ele>
        <time>2015-03-30T10:53:33Z</time>
      </trkpt>
      <trkpt lat="41.160251" lon="-6.780550">
        <ele>719.267</ele>
        <time>2015-03-30T10:53:40Z</time>
      </trkpt>
      <trkpt lat="41.160315" lon="-6.780545">
        <ele>719.737</ele>
        <time>2015-03-30T10:53:46Z</time>
      </trkpt>
      <trkpt lat="41.160326" lon="-6.780545">
        <ele>719.730</ele>
        <time>2015-03-30T10:53:47Z</time>
      </trkpt>
      <trkpt lat="41.160338" lon="-6.780541">
        <ele>720.265</ele>
        <time>2015-03-30T10:53:48Z</time>
      </trkpt>
      <trkpt lat="41.160351" lon="-6.780534">
        <ele>720.255</ele>
        <time>2015-03-30T10:53:49Z</time>
      </trkpt>
      <trkpt lat="41.160364" lon="-6.780529">
        <ele>720.707</ele>
        <time>2015-03-30T10:53:50Z</time>
      </trkpt>
      <trkpt lat="41.160378" lon="-6.780525">
        <ele>720.217</ele>
        <time>2015-03-30T10:53:51Z</time>
      </trkpt>
      <trkpt lat="41.160393" lon="-6.780522">
        <ele>720.707</ele>
        <time>2015-03-30T10:53:52Z</time>
      </trkpt>
      <trkpt lat="41.160437" lon="-6.780520">
        <ele>721.114</ele>
        <time>2015-03-30T10:53:55Z</time>
      </trkpt>
      <trkpt lat="41.160449" lon="-6.780516">
        <ele>721.199</ele>
        <time>2015-03-30T10:53:56Z</time>
      </trkpt>
      <trkpt lat="41.160461" lon="-6.780512">
        <ele>721.634</ele>
        <time>2015-03-30T10:53:57Z</time>
      </trkpt>
      <trkpt lat="41.160473" lon="-6.780509">
        <ele>722.118</ele>
        <time>2015-03-30T10:53:58Z</time>
      </trkpt>
      <trkpt lat="41.160485" lon="-6.780502">
        <ele>722.168</ele>
        <time>2015-03-30T10:53:59Z</time>
      </trkpt>
      <trkpt lat="41.160498" lon="-6.780498">
        <ele>722.131</ele>
        <time>2015-03-30T10:54:00Z</time>
      </trkpt>
      <trkpt lat="41.160511" lon="-6.780492">
        <ele>722.636</ele>
        <time>2015-03-30T10:54:01Z</time>
      </trkpt>
      <trkpt lat="41.160524" lon="-6.780485">
        <ele>722.679</ele>
        <time>2015-03-30T10:54:02Z</time>
      </trkpt>
      <trkpt lat="41.160628" lon="-6.780429">
        <ele>723.505</ele>
        <time>2015-03-30T10:54:11Z</time>
      </trkpt>
      <trkpt lat="41.160637" lon="-6.780420">
        <ele>723.525</ele>
        <time>2015-03-30T10:54:12Z</time>
      </trkpt>
      <trkpt lat="41.160649" lon="-6.780409">
        <ele>723.507</ele>
        <time>2015-03-30T10:54:13Z</time>
      </trkpt>
      <trkpt lat="41.160661" lon="-6.780397">
        <ele>723.566</ele>
        <time>2015-03-30T10:54:14Z</time>
      </trkpt>
      <trkpt lat="41.160672" lon="-6.780384">
        <ele>723.541</ele>
        <time>2015-03-30T10:54:15Z</time>
      </trkpt>
      <trkpt lat="41.160684" lon="-6.780371">
        <ele>724.026</ele>
        <time>2015-03-30T10:54:16Z</time>
      </trkpt>
      <trkpt lat="41.160830" lon="-6.780164">
        <ele>725.530</ele>
        <time>2015-03-30T10:54:30Z</time>
      </trkpt>
      <trkpt lat="41.160907" lon="-6.779977">
        <ele>726.440</ele>
        <time>2015-03-30T10:54:40Z</time>
      </trkpt>
      <trkpt lat="41.160912" lon="-6.779960">
        <ele>726.433</ele>
        <time>2015-03-30T10:54:41Z</time>
      </trkpt>
      <trkpt lat="41.160920" lon="-6.779943">
        <ele>726.448</ele>
        <time>2015-03-30T10:54:42Z</time>
      </trkpt>
      <trkpt lat="41.161012" lon="-6.779771">
        <ele>728.334</ele>
        <time>2015-03-30T10:54:52Z</time>
      </trkpt>
      <trkpt lat="41.161022" lon="-6.779755">
        <ele>728.855</ele>
        <time>2015-03-30T10:54:53Z</time>
      </trkpt>
      <trkpt lat="41.161033" lon="-6.779742">
        <ele>728.810</ele>
        <time>2015-03-30T10:54:54Z</time>
      </trkpt>
      <trkpt lat="41.161046" lon="-6.779731">
        <ele>729.307</ele>
        <time>2015-03-30T10:54:55Z</time>
      </trkpt>
      <trkpt lat="41.161059" lon="-6.779718">
        <ele>729.322</ele>
        <time>2015-03-30T10:54:56Z</time>
      </trkpt>
      <trkpt lat="41.161070" lon="-6.779703">
        <ele>729.857</ele>
        <time>2015-03-30T10:54:57Z</time>
      </trkpt>
      <trkpt lat="41.161193" lon="-6.779633">
        <ele>731.212</ele>
        <time>2015-03-30T10:55:06Z</time>
      </trkpt>
      <trkpt lat="41.161219" lon="-6.779636">
        <ele>731.266</ele>
        <time>2015-03-30T10:55:08Z</time>
      </trkpt>
      <trkpt lat="41.161233" lon="-6.779634">
        <ele>731.746</ele>
        <time>2015-03-30T10:55:09Z</time>
      </trkpt>
      <trkpt lat="41.161248" lon="-6.779630">
        <ele>731.799</ele>
        <time>2015-03-30T10:55:10Z</time>
      </trkpt>
      <trkpt lat="41.161263" lon="-6.779627">
        <ele>732.274</ele>
        <time>2015-03-30T10:55:11Z</time>
      </trkpt>
      <trkpt lat="41.161278" lon="-6.779632">
        <ele>732.229</ele>
        <time>2015-03-30T10:55:12Z</time>
      </trkpt>
      <trkpt lat="41.161295" lon="-6.779636">
        <ele>732.200</ele>
        <time>2015-03-30T10:55:13Z</time>
      </trkpt>
      <trkpt lat="41.161310" lon="-6.779635">
        <ele>732.220</ele>
        <time>2015-03-30T10:55:14Z</time>
      </trkpt>
      <trkpt lat="41.161323" lon="-6.779637">
        <ele>732.207</ele>
        <time>2015-03-30T10:55:15Z</time>
      </trkpt>
      <trkpt lat="41.161351" lon="-6.779649">
        <ele>732.221</ele>
        <time>2015-03-30T10:55:17Z</time>
      </trkpt>
      <trkpt lat="41.161363" lon="-6.779655">
        <ele>732.726</ele>
        <time>2015-03-30T10:55:18Z</time>
      </trkpt>
      <trkpt lat="41.161377" lon="-6.779660">
        <ele>732.221</ele>
        <time>2015-03-30T10:55:19Z</time>
      </trkpt>
      <trkpt lat="41.161390" lon="-6.779665">
        <ele>732.735</ele>
        <time>2015-03-30T10:55:20Z</time>
      </trkpt>
      <trkpt lat="41.161403" lon="-6.779669">
        <ele>732.715</ele>
        <time>2015-03-30T10:55:21Z</time>
      </trkpt>
      <trkpt lat="41.161415" lon="-6.779677">
        <ele>732.718</ele>
        <time>2015-03-30T10:55:22Z</time>
      </trkpt>
      <trkpt lat="41.161426" lon="-6.779685">
        <ele>732.753</ele>
        <time>2015-03-30T10:55:23Z</time>
      </trkpt>
      <trkpt lat="41.161437" lon="-6.779694">
        <ele>732.722</ele>
        <time>2015-03-30T10:55:24Z</time>
      </trkpt>
      <trkpt lat="41.161486" lon="-6.779712">
        <ele>732.762</ele>
        <time>2015-03-30T10:55:28Z</time>
      </trkpt>
      <trkpt lat="41.161660" lon="-6.779850">
        <ele>731.208</ele>
        <time>2015-03-30T10:55:37Z</time>
      </trkpt>
      <trkpt lat="41.161944" lon="-6.780113">
        <ele>728.307</ele>
        <time>2015-03-30T10:55:47Z</time>
      </trkpt>
      <trkpt lat="41.162456" lon="-6.780514">
        <ele>725.531</ele>
        <time>2015-03-30T10:56:00Z</time>
      </trkpt>
      <trkpt lat="41.162742" lon="-6.780753">
        <ele>723.556</ele>
        <time>2015-03-30T10:56:07Z</time>
      </trkpt>
      <trkpt lat="41.162773" lon="-6.780797">
        <ele>723.581</ele>
        <time>2015-03-30T10:56:08Z</time>
      </trkpt>
      <trkpt lat="41.162796" lon="-6.780844">
        <ele>722.155</ele>
        <time>2015-03-30T10:56:09Z</time>
      </trkpt>
      <trkpt lat="41.162812" lon="-6.780889">
        <ele>725.085</ele>
        <time>2015-03-30T10:56:10Z</time>
      </trkpt>
      <trkpt lat="41.162825" lon="-6.780937">
        <ele>723.578</ele>
        <time>2015-03-30T10:56:11Z</time>
      </trkpt>
      <trkpt lat="41.162909" lon="-6.781408">
        <ele>722.633</ele>
        <time>2015-03-30T10:56:22Z</time>
      </trkpt>
      <trkpt lat="41.162928" lon="-6.781614">
        <ele>722.617</ele>
        <time>2015-03-30T10:56:29Z</time>
      </trkpt>
      <trkpt lat="41.162997" lon="-6.782025">
        <ele>720.787</ele>
        <time>2015-03-30T10:56:39Z</time>
      </trkpt>
      <trkpt lat="41.163006" lon="-6.782062">
        <ele>720.715</ele>
        <time>2015-03-30T10:56:48Z</time>
      </trkpt>
      <trkpt lat="41.163135" lon="-6.782214">
        <ele>718.707</ele>
        <time>2015-03-30T10:56:54Z</time>
      </trkpt>
      <trkpt lat="41.163173" lon="-6.782217">
        <ele>718.230</ele>
        <time>2015-03-30T10:56:55Z</time>
      </trkpt>
      <trkpt lat="41.163214" lon="-6.782213">
        <ele>717.865</ele>
        <time>2015-03-30T10:56:56Z</time>
      </trkpt>
      <trkpt lat="41.163647" lon="-6.782219">
        <ele>714.930</ele>
        <time>2015-03-30T10:57:07Z</time>
      </trkpt>
      <trkpt lat="41.163793" lon="-6.782492">
        <ele>713.494</ele>
        <time>2015-03-30T10:57:15Z</time>
      </trkpt>
      <trkpt lat="41.163931" lon="-6.782769">
        <ele>711.594</ele>
        <time>2015-03-30T10:57:21Z</time>
      </trkpt>
      <trkpt lat="41.163969" lon="-6.782799">
        <ele>711.077</ele>
        <time>2015-03-30T10:57:22Z</time>
      </trkpt>
      <trkpt lat="41.164009" lon="-6.782815">
        <ele>711.092</ele>
        <time>2015-03-30T10:57:23Z</time>
      </trkpt>
      <trkpt lat="41.164053" lon="-6.782812">
        <ele>710.659</ele>
        <time>2015-03-30T10:57:24Z</time>
      </trkpt>
      <trkpt lat="41.164101" lon="-6.782794">
        <ele>709.603</ele>
        <time>2015-03-30T10:57:25Z</time>
      </trkpt>
      <trkpt lat="41.164153" lon="-6.782773">
        <ele>709.123</ele>
        <time>2015-03-30T10:57:26Z</time>
      </trkpt>
      <trkpt lat="41.164208" lon="-6.782760">
        <ele>709.107</ele>
        <time>2015-03-30T10:57:27Z</time>
      </trkpt>
      <trkpt lat="41.164264" lon="-6.782754">
        <ele>708.614</ele>
        <time>2015-03-30T10:57:28Z</time>
      </trkpt>
      <trkpt lat="41.164323" lon="-6.782758">
        <ele>708.249</ele>
        <time>2015-03-30T10:57:29Z</time>
      </trkpt>
      <trkpt lat="41.164380" lon="-6.782776">
        <ele>707.734</ele>
        <time>2015-03-30T10:57:30Z</time>
      </trkpt>
      <trkpt lat="41.164437" lon="-6.782803">
        <ele>707.268</ele>
        <time>2015-03-30T10:57:31Z</time>
      </trkpt>
      <trkpt lat="41.164489" lon="-6.782836">
        <ele>707.248</ele>
        <time>2015-03-30T10:57:32Z</time>
      </trkpt>
      <trkpt lat="41.164536" lon="-6.782877">
        <ele>706.711</ele>
        <time>2015-03-30T10:57:33Z</time>
      </trkpt>
      <trkpt lat="41.164580" lon="-6.782922">
        <ele>706.726</ele>
        <time>2015-03-30T10:57:34Z</time>
      </trkpt>
      <trkpt lat="41.164620" lon="-6.782967">
        <ele>706.717</ele>
        <time>2015-03-30T10:57:35Z</time>
      </trkpt>
      <trkpt lat="41.164693" lon="-6.783042">
        <ele>706.287</ele>
        <time>2015-03-30T10:57:37Z</time>
      </trkpt>
      <trkpt lat="41.164732" lon="-6.783068">
        <ele>706.215</ele>
        <time>2015-03-30T10:57:38Z</time>
      </trkpt>
      <trkpt lat="41.164815" lon="-6.783122">
        <ele>705.307</ele>
        <time>2015-03-30T10:57:40Z</time>
      </trkpt>
      <trkpt lat="41.164861" lon="-6.783140">
        <ele>705.330</ele>
        <time>2015-03-30T10:57:41Z</time>
      </trkpt>
      <trkpt lat="41.164911" lon="-6.783150">
        <ele>704.355</ele>
        <time>2015-03-30T10:57:42Z</time>
      </trkpt>
      <trkpt lat="41.164963" lon="-6.783151">
        <ele>704.350</ele>
        <time>2015-03-30T10:57:43Z</time>
      </trkpt>
      <trkpt lat="41.165016" lon="-6.783146">
        <ele>703.324</ele>
        <time>2015-03-30T10:57:44Z</time>
      </trkpt>
      <trkpt lat="41.165071" lon="-6.783140">
        <ele>703.834</ele>
        <time>2015-03-30T10:57:45Z</time>
      </trkpt>
      <trkpt lat="41.165295" lon="-6.783113">
        <ele>700.917</ele>
        <time>2015-03-30T10:57:49Z</time>
      </trkpt>
      <trkpt lat="41.165725" lon="-6.783100">
        <ele>697.682</ele>
        <time>2015-03-30T10:57:56Z</time>
      </trkpt>
      <trkpt lat="41.165979" lon="-6.783112">
        <ele>696.173</ele>
        <time>2015-03-30T10:58:00Z</time>
      </trkpt>
      <trkpt lat="41.166371" lon="-6.783177">
        <ele>695.285</ele>
        <time>2015-03-30T10:58:07Z</time>
      </trkpt>
      <trkpt lat="41.166421" lon="-6.783186">
        <ele>695.213</ele>
        <time>2015-03-30T10:58:08Z</time>
      </trkpt>
      <trkpt lat="41.166472" lon="-6.783208">
        <ele>695.207</ele>
        <time>2015-03-30T10:58:09Z</time>
      </trkpt>
      <trkpt lat="41.166676" lon="-6.783354">
        <ele>692.336</ele>
        <time>2015-03-30T10:58:13Z</time>
      </trkpt>
      <trkpt lat="41.166785" lon="-6.783422">
        <ele>690.881</ele>
        <time>2015-03-30T10:58:15Z</time>
      </trkpt>
      <trkpt lat="41.166837" lon="-6.783444">
        <ele>691.316</ele>
        <time>2015-03-30T10:58:16Z</time>
      </trkpt>
      <trkpt lat="41.167017" lon="-6.783503">
        <ele>692.810</ele>
        <time>2015-03-30T10:58:21Z</time>
      </trkpt>
      <trkpt lat="41.167286" lon="-6.783673">
        <ele>692.320</ele>
        <time>2015-03-30T10:58:31Z</time>
      </trkpt>
      <trkpt lat="41.167563" lon="-6.783920">
        <ele>690.453</ele>
        <time>2015-03-30T10:58:40Z</time>
      </trkpt>
      <trkpt lat="41.167601" lon="-6.783948">
        <ele>690.448</ele>
        <time>2015-03-30T10:58:41Z</time>
      </trkpt>
      <trkpt lat="41.167640" lon="-6.783977">
        <ele>689.935</ele>
        <time>2015-03-30T10:58:42Z</time>
      </trkpt>
      <trkpt lat="41.168053" lon="-6.784199">
        <ele>688.086</ele>
        <time>2015-03-30T10:58:51Z</time>
      </trkpt>
      <trkpt lat="41.168293" lon="-6.784448">
        <ele>686.014</ele>
        <time>2015-03-30T10:59:00Z</time>
      </trkpt>
      <trkpt lat="41.168320" lon="-6.784475">
        <ele>690.807</ele>
        <time>2015-03-30T10:59:01Z</time>
      </trkpt>
      <trkpt lat="41.168543" lon="-6.784763">
        <ele>688.412</ele>
        <time>2015-03-30T10:59:10Z</time>
      </trkpt>
      <trkpt lat="41.168759" lon="-6.785102">
        <ele>689.977</ele>
        <time>2015-03-30T10:59:21Z</time>
      </trkpt>
      <trkpt lat="41.169086" lon="-6.785451">
        <ele>690.852</ele>
        <time>2015-03-30T10:59:35Z</time>
      </trkpt>
      <trkpt lat="41.169372" lon="-6.785682">
        <ele>693.726</ele>
        <time>2015-03-30T10:59:48Z</time>
      </trkpt>
      <trkpt lat="41.169549" lon="-6.785818">
        <ele>694.276</ele>
        <time>2015-03-30T10:59:57Z</time>
      </trkpt>
      <trkpt lat="41.169762" lon="-6.786023">
        <ele>692.829</ele>
        <time>2015-03-30T11:00:07Z</time>
      </trkpt>
      <trkpt lat="41.169992" lon="-6.786336">
        <ele>690.474</ele>
        <time>2015-03-30T11:00:17Z</time>
      </trkpt>
      <trkpt lat="41.170050" lon="-6.786403">
        <ele>688.949</ele>
        <time>2015-03-30T11:00:19Z</time>
      </trkpt>
      <trkpt lat="41.170080" lon="-6.786447">
        <ele>688.402</ele>
        <time>2015-03-30T11:00:20Z</time>
      </trkpt>
      <trkpt lat="41.170212" lon="-6.786630">
        <ele>687.522</ele>
        <time>2015-03-30T11:00:24Z</time>
      </trkpt>
      <trkpt lat="41.170239" lon="-6.786678">
        <ele>687.507</ele>
        <time>2015-03-30T11:00:25Z</time>
      </trkpt>
      <trkpt lat="41.170275" lon="-6.786779">
        <ele>688.053</ele>
        <time>2015-03-30T11:00:27Z</time>
      </trkpt>
      <trkpt lat="41.170287" lon="-6.786831">
        <ele>688.098</ele>
        <time>2015-03-30T11:00:28Z</time>
      </trkpt>
      <trkpt lat="41.170300" lon="-6.786885">
        <ele>688.063</ele>
        <time>2015-03-30T11:00:29Z</time>
      </trkpt>
      <trkpt lat="41.170312" lon="-6.786936">
        <ele>688.077</ele>
        <time>2015-03-30T11:00:30Z</time>
      </trkpt>
      <trkpt lat="41.170324" lon="-6.786985">
        <ele>687.577</ele>
        <time>2015-03-30T11:00:31Z</time>
      </trkpt>
      <trkpt lat="41.170338" lon="-6.787030">
        <ele>688.040</ele>
        <time>2015-03-30T11:00:32Z</time>
      </trkpt>
      <trkpt lat="41.170359" lon="-6.787068">
        <ele>687.555</ele>
        <time>2015-03-30T11:00:33Z</time>
      </trkpt>
      <trkpt lat="41.170388" lon="-6.787097">
        <ele>687.539</ele>
        <time>2015-03-30T11:00:34Z</time>
      </trkpt>
      <trkpt lat="41.170420" lon="-6.787121">
        <ele>687.501</ele>
        <time>2015-03-30T11:00:35Z</time>
      </trkpt>
      <trkpt lat="41.170476" lon="-6.787151">
        <ele>688.021</ele>
        <time>2015-03-30T11:00:37Z</time>
      </trkpt>
      <trkpt lat="41.170644" lon="-6.787042">
        <ele>688.907</ele>
        <time>2015-03-30T11:00:44Z</time>
      </trkpt>
      <trkpt lat="41.170885" lon="-6.786685">
        <ele>689.442</ele>
        <time>2015-03-30T11:00:55Z</time>
      </trkpt>
      <trkpt lat="41.171148" lon="-6.786434">
        <ele>690.477</ele>
        <time>2015-03-30T11:01:06Z</time>
      </trkpt>
      <trkpt lat="41.171360" lon="-6.786333">
        <ele>691.872</ele>
        <time>2015-03-30T11:01:16Z</time>
      </trkpt>
      <trkpt lat="41.171550" lon="-6.786273">
        <ele>692.326</ele>
        <time>2015-03-30T11:01:25Z</time>
      </trkpt>
      <trkpt lat="41.171810" lon="-6.786124">
        <ele>692.856</ele>
        <time>2015-03-30T11:01:36Z</time>
      </trkpt>
      <trkpt lat="41.172184" lon="-6.785804">
        <ele>692.399</ele>
        <time>2015-03-30T11:01:48Z</time>
      </trkpt>
      <trkpt lat="41.172358" lon="-6.785670">
        <ele>691.854</ele>
        <time>2015-03-30T11:01:53Z</time>
      </trkpt>
      <trkpt lat="41.172564" lon="-6.785500">
        <ele>691.813</ele>
        <time>2015-03-30T11:02:00Z</time>
      </trkpt>
      <trkpt lat="41.172802" lon="-6.785451">
        <ele>691.843</ele>
        <time>2015-03-30T11:02:07Z</time>
      </trkpt>
      <trkpt lat="41.173015" lon="-6.785239">
        <ele>692.307</ele>
        <time>2015-03-30T11:02:15Z</time>
      </trkpt>
      <trkpt lat="41.173121" lon="-6.784867">
        <ele>693.307</ele>
        <time>2015-03-30T11:02:25Z</time>
      </trkpt>
      <trkpt lat="41.173268" lon="-6.784543">
        <ele>695.270</ele>
        <time>2015-03-30T11:02:35Z</time>
      </trkpt>
      <trkpt lat="41.173410" lon="-6.784274">
        <ele>696.645</ele>
        <time>2015-03-30T11:02:45Z</time>
      </trkpt>
      <trkpt lat="41.173559" lon="-6.784029">
        <ele>698.150</ele>
        <time>2015-03-30T11:02:54Z</time>
      </trkpt>
      <trkpt lat="41.173661" lon="-6.783724">
        <ele>699.034</ele>
        <time>2015-03-30T11:03:04Z</time>
      </trkpt>
      <trkpt lat="41.173811" lon="-6.783444">
        <ele>700.554</ele>
        <time>2015-03-30T11:03:15Z</time>
      </trkpt>
      <trkpt lat="41.173963" lon="-6.783194">
        <ele>702.457</ele>
        <time>2015-03-30T11:03:26Z</time>
      </trkpt>
      <trkpt lat="41.174107" lon="-6.782944">
        <ele>704.372</ele>
        <time>2015-03-30T11:03:39Z</time>
      </trkpt>
      <trkpt lat="41.174294" lon="-6.782814">
        <ele>705.846</ele>
        <time>2015-03-30T11:03:50Z</time>
      </trkpt>
      <trkpt lat="41.174456" lon="-6.782698">
        <ele>706.788</ele>
        <time>2015-03-30T11:03:59Z</time>
      </trkpt>
      <trkpt lat="41.174616" lon="-6.782538">
        <ele>708.616</ele>
        <time>2015-03-30T11:04:10Z</time>
      </trkpt>
      <trkpt lat="41.174759" lon="-6.782394">
        <ele>710.107</ele>
        <time>2015-03-30T11:04:20Z</time>
      </trkpt>
      <trkpt lat="41.174890" lon="-6.782187">
        <ele>712.523</ele>
        <time>2015-03-30T11:04:31Z</time>
      </trkpt>
      <trkpt lat="41.174910" lon="-6.782150">
        <ele>712.528</ele>
        <time>2015-03-30T11:04:33Z</time>
      </trkpt>
      <trkpt lat="41.174925" lon="-6.782130">
        <ele>712.523</ele>
        <time>2015-03-30T11:04:34Z</time>
      </trkpt>
      <trkpt lat="41.175066" lon="-6.781902">
        <ele>714.497</ele>
        <time>2015-03-30T11:04:45Z</time>
      </trkpt>
      <trkpt lat="41.175237" lon="-6.781662">
        <ele>715.857</ele>
        <time>2015-03-30T11:04:57Z</time>
      </trkpt>
      <trkpt lat="41.175275" lon="-6.781603">
        <ele>716.320</ele>
        <time>2015-03-30T11:05:00Z</time>
      </trkpt>
      <trkpt lat="41.175290" lon="-6.781584">
        <ele>716.385</ele>
        <time>2015-03-30T11:05:01Z</time>
      </trkpt>
      <trkpt lat="41.175302" lon="-6.781563">
        <ele>716.358</ele>
        <time>2015-03-30T11:05:02Z</time>
      </trkpt>
      <trkpt lat="41.175316" lon="-6.781541">
        <ele>716.352</ele>
        <time>2015-03-30T11:05:03Z</time>
      </trkpt>
      <trkpt lat="41.175329" lon="-6.781521">
        <ele>716.817</ele>
        <time>2015-03-30T11:05:04Z</time>
      </trkpt>
      <trkpt lat="41.175442" lon="-6.781299">
        <ele>717.807</ele>
        <time>2015-03-30T11:05:14Z</time>
      </trkpt>
      <trkpt lat="41.175500" lon="-6.781044">
        <ele>718.294</ele>
        <time>2015-03-30T11:05:23Z</time>
      </trkpt>
      <trkpt lat="41.175616" lon="-6.780800">
        <ele>719.789</ele>
        <time>2015-03-30T11:05:33Z</time>
      </trkpt>
      <trkpt lat="41.175724" lon="-6.780651">
        <ele>720.234</ele>
        <time>2015-03-30T11:05:40Z</time>
      </trkpt>
      <trkpt lat="41.175740" lon="-6.780632">
        <ele>720.748</ele>
        <time>2015-03-30T11:05:41Z</time>
      </trkpt>
      <trkpt lat="41.175874" lon="-6.780382">
        <ele>721.668</ele>
        <time>2015-03-30T11:05:52Z</time>
      </trkpt>
      <trkpt lat="41.175933" lon="-6.780201">
        <ele>721.641</ele>
        <time>2015-03-30T11:05:58Z</time>
      </trkpt>
      <trkpt lat="41.175940" lon="-6.780168">
        <ele>721.666</ele>
        <time>2015-03-30T11:05:59Z</time>
      </trkpt>
      <trkpt lat="41.175951" lon="-6.780137">
        <ele>721.698</ele>
        <time>2015-03-30T11:06:00Z</time>
      </trkpt>
      <trkpt lat="41.176151" lon="-6.779783">
        <ele>721.115</ele>
        <time>2015-03-30T11:06:12Z</time>
      </trkpt>
      <trkpt lat="41.176351" lon="-6.779540">
        <ele>721.126</ele>
        <time>2015-03-30T11:06:21Z</time>
      </trkpt>
      <trkpt lat="41.176607" lon="-6.779351">
        <ele>721.107</ele>
        <time>2015-03-30T11:06:30Z</time>
      </trkpt>
      <trkpt lat="41.176924" lon="-6.779217">
        <ele>721.188</ele>
        <time>2015-03-30T11:06:40Z</time>
      </trkpt>
      <trkpt lat="41.177343" lon="-6.778997">
        <ele>722.683</ele>
        <time>2015-03-30T11:06:53Z</time>
      </trkpt>
      <trkpt lat="41.177694" lon="-6.778737">
        <ele>723.518</ele>
        <time>2015-03-30T11:07:05Z</time>
      </trkpt>
      <trkpt lat="41.177970" lon="-6.778450">
        <ele>724.542</ele>
        <time>2015-03-30T11:07:16Z</time>
      </trkpt>
      <trkpt lat="41.178269" lon="-6.778202">
        <ele>726.482</ele>
        <time>2015-03-30T11:07:28Z</time>
      </trkpt>
      <trkpt lat="41.178278" lon="-6.778180">
        <ele>726.495</ele>
        <time>2015-03-30T11:07:29Z</time>
      </trkpt>
      <trkpt lat="41.178280" lon="-6.778154">
        <ele>726.970</ele>
        <time>2015-03-30T11:07:30Z</time>
      </trkpt>
      <trkpt lat="41.178281" lon="-6.778129">
        <ele>726.955</ele>
        <time>2015-03-30T11:07:31Z</time>
      </trkpt>
      <trkpt lat="41.178279" lon="-6.778104">
        <ele>726.907</ele>
        <time>2015-03-30T11:07:32Z</time>
      </trkpt>
      <trkpt lat="41.178275" lon="-6.778076">
        <ele>726.917</ele>
        <time>2015-03-30T11:07:33Z</time>
      </trkpt>
      <trkpt lat="41.178307" lon="-6.777936">
        <ele>727.407</ele>
        <time>2015-03-30T11:07:38Z</time>
      </trkpt>
      <trkpt lat="41.178322" lon="-6.777921">
        <ele>727.464</ele>
        <time>2015-03-30T11:07:39Z</time>
      </trkpt>
      <trkpt lat="41.178332" lon="-6.777905">
        <ele>727.959</ele>
        <time>2015-03-30T11:07:40Z</time>
      </trkpt>
      <trkpt lat="41.178331" lon="-6.777888">
        <ele>727.414</ele>
        <time>2015-03-30T11:07:50Z</time>
      </trkpt>
      <trkpt lat="41.178328" lon="-6.777886">
        <ele>727.978</ele>
        <time>2015-03-30T11:08:15Z</time>
      </trkpt>
      <trkpt lat="41.178328" lon="-6.777889">
        <ele>727.998</ele>
        <time>2015-03-30T11:08:38Z</time>
      </trkpt>
      <trkpt lat="41.178353" lon="-6.777849">
        <ele>728.321</ele>
        <time>2015-03-30T11:08:42Z</time>
      </trkpt>
      <trkpt lat="41.178355" lon="-6.777831">
        <ele>727.946</ele>
        <time>2015-03-30T11:08:43Z</time>
      </trkpt>
      <trkpt lat="41.178346" lon="-6.777802">
        <ele>728.313</ele>
        <time>2015-03-30T11:08:45Z</time>
      </trkpt>
      <trkpt lat="41.178333" lon="-6.777784">
        <ele>727.943</ele>
        <time>2015-03-30T11:08:46Z</time>
      </trkpt>
      <trkpt lat="41.178321" lon="-6.777763">
        <ele>727.907</ele>
        <time>2015-03-30T11:08:47Z</time>
      </trkpt>
      <trkpt lat="41.178313" lon="-6.777746">
        <ele>727.907</ele>
        <time>2015-03-30T11:08:48Z</time>
      </trkpt>
      <trkpt lat="41.178308" lon="-6.777732">
        <ele>727.970</ele>
        <time>2015-03-30T11:08:49Z</time>
      </trkpt>
      <trkpt lat="41.178292" lon="-6.777710">
        <ele>727.415</ele>
        <time>2015-03-30T11:08:56Z</time>
      </trkpt>
      <trkpt lat="41.178294" lon="-6.777718">
        <ele>727.990</ele>
        <time>2015-03-30T11:09:02Z</time>
      </trkpt>
      <trkpt lat="41.178318" lon="-6.777770">
        <ele>727.424</ele>
        <time>2015-03-30T11:09:09Z</time>
      </trkpt>
      <trkpt lat="41.178323" lon="-6.777787">
        <ele>727.474</ele>
        <time>2015-03-30T11:09:10Z</time>
      </trkpt>
      <trkpt lat="41.178332" lon="-6.777856">
        <ele>727.977</ele>
        <time>2015-03-30T11:09:14Z</time>
      </trkpt>
      <trkpt lat="41.178326" lon="-6.777878">
        <ele>727.462</ele>
        <time>2015-03-30T11:09:15Z</time>
      </trkpt>
      <trkpt lat="41.178263" lon="-6.778175">
        <ele>726.989</ele>
        <time>2015-03-30T11:09:25Z</time>
      </trkpt>
      <trkpt lat="41.178259" lon="-6.778220">
        <ele>726.406</ele>
        <time>2015-03-30T11:09:27Z</time>
      </trkpt>
      <trkpt lat="41.178273" lon="-6.778233">
        <ele>725.526</ele>
        <time>2015-03-30T11:09:34Z</time>
      </trkpt>
      <trkpt lat="41.178273" lon="-6.778232">
        <ele>729.807</ele>
        <time>2015-03-30T11:09:47Z</time>
      </trkpt>
      <trkpt lat="41.178274" lon="-6.778231">
        <ele>726.417</ele>
        <time>2015-03-30T11:09:48Z</time>
      </trkpt>
      <trkpt lat="41.178281" lon="-6.778226">
        <ele>726.412</ele>
        <time>2015-03-30T11:10:03Z</time>
      </trkpt>
      <trkpt lat="41.178278" lon="-6.778226">
        <ele>726.957</ele>
        <time>2015-03-30T11:10:23Z</time>
      </trkpt>
      <trkpt lat="41.178279" lon="-6.778221">
        <ele>726.911</ele>
        <time>2015-03-30T11:10:43Z</time>
      </trkpt>
      <trkpt lat="41.178284" lon="-6.778212">
        <ele>726.941</ele>
        <time>2015-03-30T11:11:05Z</time>
      </trkpt>
      <trkpt lat="41.178281" lon="-6.778213">
        <ele>726.984</ele>
        <time>2015-03-30T11:11:22Z</time>
      </trkpt>
      <trkpt lat="41.178283" lon="-6.778214">
        <ele>727.499</ele>
        <time>2015-03-30T11:11:40Z</time>
      </trkpt>
      <trkpt lat="41.178283" lon="-6.778210">
        <ele>727.456</ele>
        <time>2015-03-30T11:11:59Z</time>
      </trkpt>
      <trkpt lat="41.178283" lon="-6.778214">
        <ele>726.959</ele>
        <time>2015-03-30T11:12:22Z</time>
      </trkpt>
      <trkpt lat="41.178283" lon="-6.778211">
        <ele>727.414</ele>
        <time>2015-03-30T11:12:48Z</time>
      </trkpt>
      <trkpt lat="41.178287" lon="-6.778212">
        <ele>727.407</ele>
        <time>2015-03-30T11:13:08Z</time>
      </trkpt>
      <trkpt lat="41.178286" lon="-6.778212">
        <ele>726.994</ele>
        <time>2015-03-30T11:13:24Z</time>
      </trkpt>
      <trkpt lat="41.178282" lon="-6.778215">
        <ele>727.419</ele>
        <time>2015-03-30T11:13:48Z</time>
      </trkpt>
      <trkpt lat="41.178287" lon="-6.778205">
        <ele>727.474</ele>
        <time>2015-03-30T11:13:59Z</time>
      </trkpt>
      <trkpt lat="41.178284" lon="-6.778192">
        <ele>727.478</ele>
        <time>2015-03-30T11:14:00Z</time>
      </trkpt>
      <trkpt lat="41.178278" lon="-6.778177">
        <ele>727.458</ele>
        <time>2015-03-30T11:14:01Z</time>
      </trkpt>
      <trkpt lat="41.178278" lon="-6.778157">
        <ele>727.451</ele>
        <time>2015-03-30T11:14:03Z</time>
      </trkpt>
      <trkpt lat="41.178275" lon="-6.778117">
        <ele>727.486</ele>
        <time>2015-03-30T11:14:06Z</time>
      </trkpt>
      <trkpt lat="41.178271" lon="-6.778096">
        <ele>727.482</ele>
        <time>2015-03-30T11:14:07Z</time>
      </trkpt>
      <trkpt lat="41.178274" lon="-6.778008">
        <ele>729.343</ele>
        <time>2015-03-30T11:14:12Z</time>
      </trkpt>
      <trkpt lat="41.178276" lon="-6.777998">
        <ele>727.917</ele>
        <time>2015-03-30T11:14:14Z</time>
      </trkpt>
      <trkpt lat="41.178274" lon="-6.778003">
        <ele>724.507</ele>
        <time>2015-03-30T11:14:19Z</time>
      </trkpt>
      <trkpt lat="41.178275" lon="-6.778003">
        <ele>731.297</ele>
        <time>2015-03-30T11:14:20Z</time>
      </trkpt>
      <trkpt lat="41.178277" lon="-6.777992">
        <ele>727.992</ele>
        <time>2015-03-30T11:14:22Z</time>
      </trkpt>
      <trkpt lat="41.178281" lon="-6.777976">
        <ele>727.957</ele>
        <time>2015-03-30T11:14:23Z</time>
      </trkpt>
      <trkpt lat="41.178289" lon="-6.777959">
        <ele>727.961</ele>
        <time>2015-03-30T11:14:24Z</time>
      </trkpt>
      <trkpt lat="41.178353" lon="-6.777850">
        <ele>728.351</ele>
        <time>2015-03-30T11:14:33Z</time>
      </trkpt>
      <trkpt lat="41.178361" lon="-6.777826">
        <ele>728.814</ele>
        <time>2015-03-30T11:14:35Z</time>
      </trkpt>
      <trkpt lat="41.178358" lon="-6.777810">
        <ele>728.339</ele>
        <time>2015-03-30T11:14:36Z</time>
      </trkpt>
      <trkpt lat="41.178350" lon="-6.777796">
        <ele>728.388</ele>
        <time>2015-03-30T11:14:37Z</time>
      </trkpt>
      <trkpt lat="41.178339" lon="-6.777780">
        <ele>728.824</ele>
        <time>2015-03-30T11:14:38Z</time>
      </trkpt>
      <trkpt lat="41.178327" lon="-6.777758">
        <ele>728.326</ele>
        <time>2015-03-30T11:14:39Z</time>
      </trkpt>
      <trkpt lat="41.178317" lon="-6.777734">
        <ele>728.307</ele>
        <time>2015-03-30T11:14:40Z</time>
      </trkpt>
      <trkpt lat="41.178305" lon="-6.777714">
        <ele>728.317</ele>
        <time>2015-03-30T11:14:41Z</time>
      </trkpt>
      <trkpt lat="41.178291" lon="-6.777697">
        <ele>728.322</ele>
        <time>2015-03-30T11:14:42Z</time>
      </trkpt>
      <trkpt lat="41.178281" lon="-6.777676">
        <ele>728.367</ele>
        <time>2015-03-30T11:14:43Z</time>
      </trkpt>
      <trkpt lat="41.178272" lon="-6.777654">
        <ele>728.341</ele>
        <time>2015-03-30T11:14:44Z</time>
      </trkpt>
      <trkpt lat="41.178263" lon="-6.777635">
        <ele>728.331</ele>
        <time>2015-03-30T11:14:45Z</time>
      </trkpt>
      <trkpt lat="41.178253" lon="-6.777616">
        <ele>728.374</ele>
        <time>2015-03-30T11:14:46Z</time>
      </trkpt>
      <trkpt lat="41.178245" lon="-6.777595">
        <ele>728.349</ele>
        <time>2015-03-30T11:14:47Z</time>
      </trkpt>
      <trkpt lat="41.178239" lon="-6.777579">
        <ele>728.315</ele>
        <time>2015-03-30T11:14:48Z</time>
      </trkpt>
      <trkpt lat="41.178230" lon="-6.777563">
        <ele>728.365</ele>
        <time>2015-03-30T11:14:49Z</time>
      </trkpt>
      <trkpt lat="41.178152" lon="-6.777418">
        <ele>728.311</ele>
        <time>2015-03-30T11:14:58Z</time>
      </trkpt>
      <trkpt lat="41.178060" lon="-6.777219">
        <ele>727.907</ele>
        <time>2015-03-30T11:15:07Z</time>
      </trkpt>
      <trkpt lat="41.177958" lon="-6.777016">
        <ele>727.960</ele>
        <time>2015-03-30T11:15:17Z</time>
      </trkpt>
      <trkpt lat="41.177837" lon="-6.776747">
        <ele>727.475</ele>
        <time>2015-03-30T11:15:29Z</time>
      </trkpt>
      <trkpt lat="41.177675" lon="-6.776421">
        <ele>727.450</ele>
        <time>2015-03-30T11:15:44Z</time>
      </trkpt>
      <trkpt lat="41.177645" lon="-6.776352">
        <ele>727.914</ele>
        <time>2015-03-30T11:15:48Z</time>
      </trkpt>
      <trkpt lat="41.177641" lon="-6.776330">
        <ele>727.994</ele>
        <time>2015-03-30T11:15:49Z</time>
      </trkpt>
      <trkpt lat="41.177642" lon="-6.776302">
        <ele>727.447</ele>
        <time>2015-03-30T11:15:50Z</time>
      </trkpt>
      <trkpt lat="41.177650" lon="-6.776274">
        <ele>727.432</ele>
        <time>2015-03-30T11:15:51Z</time>
      </trkpt>
      <trkpt lat="41.177661" lon="-6.776248">
        <ele>726.952</ele>
        <time>2015-03-30T11:15:52Z</time>
      </trkpt>
      <trkpt lat="41.177671" lon="-6.776219">
        <ele>726.953</ele>
        <time>2015-03-30T11:15:53Z</time>
      </trkpt>
      <trkpt lat="41.177681" lon="-6.776189">
        <ele>728.808</ele>
        <time>2015-03-30T11:15:54Z</time>
      </trkpt>
      <trkpt lat="41.177690" lon="-6.776158">
        <ele>727.907</ele>
        <time>2015-03-30T11:15:55Z</time>
      </trkpt>
      <trkpt lat="41.177699" lon="-6.776127">
        <ele>727.434</ele>
        <time>2015-03-30T11:15:56Z</time>
      </trkpt>
      <trkpt lat="41.177761" lon="-6.775801">
        <ele>726.439</ele>
        <time>2015-03-30T11:16:05Z</time>
      </trkpt>
      <trkpt lat="41.177856" lon="-6.775391">
        <ele>723.574</ele>
        <time>2015-03-30T11:16:14Z</time>
      </trkpt>
      <trkpt lat="41.177862" lon="-6.775339">
        <ele>723.538</ele>
        <time>2015-03-30T11:16:15Z</time>
      </trkpt>
      <trkpt lat="41.177874" lon="-6.775289">
        <ele>723.188</ele>
        <time>2015-03-30T11:16:16Z</time>
      </trkpt>
      <trkpt lat="41.177892" lon="-6.775239">
        <ele>722.651</ele>
        <time>2015-03-30T11:16:17Z</time>
      </trkpt>
      <trkpt lat="41.177915" lon="-6.775193">
        <ele>722.646</ele>
        <time>2015-03-30T11:16:18Z</time>
      </trkpt>
      <trkpt lat="41.177943" lon="-6.775147">
        <ele>722.111</ele>
        <time>2015-03-30T11:16:19Z</time>
      </trkpt>
      <trkpt lat="41.178029" lon="-6.774996">
        <ele>721.621</ele>
        <time>2015-03-30T11:16:22Z</time>
      </trkpt>
      <trkpt lat="41.178054" lon="-6.774936">
        <ele>721.103</ele>
        <time>2015-03-30T11:16:23Z</time>
      </trkpt>
      <trkpt lat="41.178103" lon="-6.774806">
        <ele>720.207</ele>
        <time>2015-03-30T11:16:25Z</time>
      </trkpt>
      <trkpt lat="41.178131" lon="-6.774740">
        <ele>720.280</ele>
        <time>2015-03-30T11:16:26Z</time>
      </trkpt>
      <trkpt lat="41.178296" lon="-6.774325">
        <ele>718.735</ele>
        <time>2015-03-30T11:16:32Z</time>
      </trkpt>
      <trkpt lat="41.178334" lon="-6.774272">
        <ele>718.760</ele>
        <time>2015-03-30T11:16:33Z</time>
      </trkpt>
      <trkpt lat="41.178375" lon="-6.774221">
        <ele>718.734</ele>
        <time>2015-03-30T11:16:34Z</time>
      </trkpt>
      <trkpt lat="41.178413" lon="-6.774163">
        <ele>718.214</ele>
        <time>2015-03-30T11:16:35Z</time>
      </trkpt>
      <trkpt lat="41.178448" lon="-6.774101">
        <ele>717.837</ele>
        <time>2015-03-30T11:16:36Z</time>
      </trkpt>
      <trkpt lat="41.178650" lon="-6.773701">
        <ele>716.352</ele>
        <time>2015-03-30T11:16:42Z</time>
      </trkpt>
      <trkpt lat="41.178673" lon="-6.773627">
        <ele>716.866</ele>
        <time>2015-03-30T11:16:43Z</time>
      </trkpt>
      <trkpt lat="41.178688" lon="-6.773549">
        <ele>716.329</ele>
        <time>2015-03-30T11:16:44Z</time>
      </trkpt>
      <trkpt lat="41.178696" lon="-6.773468">
        <ele>716.321</ele>
        <time>2015-03-30T11:16:45Z</time>
      </trkpt>
      <trkpt lat="41.178698" lon="-6.773385">
        <ele>715.807</ele>
        <time>2015-03-30T11:16:46Z</time>
      </trkpt>
      <trkpt lat="41.178698" lon="-6.773300">
        <ele>715.845</ele>
        <time>2015-03-30T11:16:47Z</time>
      </trkpt>
      <trkpt lat="41.178681" lon="-6.772871">
        <ele>714.460</ele>
        <time>2015-03-30T11:16:52Z</time>
      </trkpt>
      <trkpt lat="41.178690" lon="-6.772791">
        <ele>714.435</ele>
        <time>2015-03-30T11:16:53Z</time>
      </trkpt>
      <trkpt lat="41.178700" lon="-6.772627">
        <ele>713.979</ele>
        <time>2015-03-30T11:16:55Z</time>
      </trkpt>
      <trkpt lat="41.178691" lon="-6.772541">
        <ele>713.999</ele>
        <time>2015-03-30T11:16:56Z</time>
      </trkpt>
      <trkpt lat="41.178669" lon="-6.772462">
        <ele>713.412</ele>
        <time>2015-03-30T11:16:57Z</time>
      </trkpt>
      <trkpt lat="41.178636" lon="-6.772390">
        <ele>713.067</ele>
        <time>2015-03-30T11:16:58Z</time>
      </trkpt>
      <trkpt lat="41.178597" lon="-6.772327">
        <ele>713.479</ele>
        <time>2015-03-30T11:16:59Z</time>
      </trkpt>
      <trkpt lat="41.178327" lon="-6.771665">
        <ele>711.005</ele>
        <time>2015-03-30T11:17:09Z</time>
      </trkpt>
      <trkpt lat="41.178308" lon="-6.771605">
        <ele>711.525</ele>
        <time>2015-03-30T11:17:10Z</time>
      </trkpt>
      <trkpt lat="41.178131" lon="-6.771020">
        <ele>709.607</ele>
        <time>2015-03-30T11:17:20Z</time>
      </trkpt>
      <trkpt lat="41.177930" lon="-6.770452">
        <ele>709.156</ele>
        <time>2015-03-30T11:17:30Z</time>
      </trkpt>
      <trkpt lat="41.177909" lon="-6.770397">
        <ele>708.631</ele>
        <time>2015-03-30T11:17:31Z</time>
      </trkpt>
      <trkpt lat="41.177901" lon="-6.770333">
        <ele>708.656</ele>
        <time>2015-03-30T11:17:32Z</time>
      </trkpt>
      <trkpt lat="41.177907" lon="-6.770271">
        <ele>708.660</ele>
        <time>2015-03-30T11:17:33Z</time>
      </trkpt>
      <trkpt lat="41.177921" lon="-6.770213">
        <ele>708.230</ele>
        <time>2015-03-30T11:17:34Z</time>
      </trkpt>
      <trkpt lat="41.177937" lon="-6.770159">
        <ele>708.293</ele>
        <time>2015-03-30T11:17:35Z</time>
      </trkpt>
      <trkpt lat="41.177992" lon="-6.769992">
        <ele>709.128</ele>
        <time>2015-03-30T11:17:38Z</time>
      </trkpt>
      <trkpt lat="41.178001" lon="-6.769926">
        <ele>707.764</ele>
        <time>2015-03-30T11:17:39Z</time>
      </trkpt>
      <trkpt lat="41.177992" lon="-6.769855">
        <ele>707.206</ele>
        <time>2015-03-30T11:17:40Z</time>
      </trkpt>
      <trkpt lat="41.177972" lon="-6.769782">
        <ele>706.716</ele>
        <time>2015-03-30T11:17:41Z</time>
      </trkpt>
      <trkpt lat="41.177949" lon="-6.769711">
        <ele>706.207</ele>
        <time>2015-03-30T11:17:42Z</time>
      </trkpt>
      <trkpt lat="41.177924" lon="-6.769645">
        <ele>706.285</ele>
        <time>2015-03-30T11:17:43Z</time>
      </trkpt>
      <trkpt lat="41.177909" lon="-6.769586">
        <ele>705.820</ele>
        <time>2015-03-30T11:17:44Z</time>
      </trkpt>
      <trkpt lat="41.177908" lon="-6.769541">
        <ele>705.855</ele>
        <time>2015-03-30T11:17:45Z</time>
      </trkpt>
      <trkpt lat="41.177920" lon="-6.769515">
        <ele>705.859</ele>
        <time>2015-03-30T11:17:46Z</time>
      </trkpt>
      <trkpt lat="41.177940" lon="-6.769503">
        <ele>706.219</ele>
        <time>2015-03-30T11:17:47Z</time>
      </trkpt>
      <trkpt lat="41.177963" lon="-6.769495">
        <ele>705.812</ele>
        <time>2015-03-30T11:17:48Z</time>
      </trkpt>
      <trkpt lat="41.177990" lon="-6.769488">
        <ele>705.327</ele>
        <time>2015-03-30T11:17:49Z</time>
      </trkpt>
      <trkpt lat="41.178181" lon="-6.769376">
        <ele>703.881</ele>
        <time>2015-03-30T11:17:57Z</time>
      </trkpt>
      <trkpt lat="41.178290" lon="-6.769287">
        <ele>707.261</ele>
        <time>2015-03-30T11:18:01Z</time>
      </trkpt>
      <trkpt lat="41.178430" lon="-6.769125">
        <ele>705.317</ele>
        <time>2015-03-30T11:18:09Z</time>
      </trkpt>
      <trkpt lat="41.178531" lon="-6.768974">
        <ele>707.207</ele>
        <time>2015-03-30T11:18:15Z</time>
      </trkpt>
      <trkpt lat="41.178604" lon="-6.768696">
        <ele>705.857</ele>
        <time>2015-03-30T11:18:24Z</time>
      </trkpt>
      <trkpt lat="41.178571" lon="-6.768299">
        <ele>704.362</ele>
        <time>2015-03-30T11:18:32Z</time>
      </trkpt>
      <trkpt lat="41.178485" lon="-6.768069">
        <ele>703.817</ele>
        <time>2015-03-30T11:18:37Z</time>
      </trkpt>
      <trkpt lat="41.178468" lon="-6.768012">
        <ele>703.371</ele>
        <time>2015-03-30T11:18:38Z</time>
      </trkpt>
      <trkpt lat="41.178459" lon="-6.767953">
        <ele>703.391</ele>
        <time>2015-03-30T11:18:39Z</time>
      </trkpt>
      <trkpt lat="41.178457" lon="-6.767890">
        <ele>703.394</ele>
        <time>2015-03-30T11:18:40Z</time>
      </trkpt>
      <trkpt lat="41.178456" lon="-6.767826">
        <ele>703.359</ele>
        <time>2015-03-30T11:18:41Z</time>
      </trkpt>
      <trkpt lat="41.178466" lon="-6.767632">
        <ele>702.918</ele>
        <time>2015-03-30T11:18:44Z</time>
      </trkpt>
      <trkpt lat="41.178470" lon="-6.767567">
        <ele>702.998</ele>
        <time>2015-03-30T11:18:45Z</time>
      </trkpt>
      <trkpt lat="41.178511" lon="-6.767102">
        <ele>702.917</ele>
        <time>2015-03-30T11:18:54Z</time>
      </trkpt>
      <trkpt lat="41.178555" lon="-6.766614">
        <ele>703.807</ele>
        <time>2015-03-30T11:19:05Z</time>
      </trkpt>
      <trkpt lat="41.178544" lon="-6.766468">
        <ele>704.330</ele>
        <time>2015-03-30T11:19:09Z</time>
      </trkpt>
      <trkpt lat="41.178536" lon="-6.766440">
        <ele>704.385</ele>
        <time>2015-03-30T11:19:10Z</time>
      </trkpt>
      <trkpt lat="41.178528" lon="-6.766412">
        <ele>704.850</ele>
        <time>2015-03-30T11:19:11Z</time>
      </trkpt>
      <trkpt lat="41.178518" lon="-6.766387">
        <ele>705.334</ele>
        <time>2015-03-30T11:19:12Z</time>
      </trkpt>
      <trkpt lat="41.178512" lon="-6.766357">
        <ele>704.854</ele>
        <time>2015-03-30T11:19:13Z</time>
      </trkpt>
      <trkpt lat="41.178507" lon="-6.766324">
        <ele>703.857</ele>
        <time>2015-03-30T11:19:14Z</time>
      </trkpt>
      <trkpt lat="41.178543" lon="-6.766036">
        <ele>706.222</ele>
        <time>2015-03-30T11:19:23Z</time>
      </trkpt>
      <trkpt lat="41.178590" lon="-6.765774">
        <ele>708.296</ele>
        <time>2015-03-30T11:19:32Z</time>
      </trkpt>
      <trkpt lat="41.178590" lon="-6.765749">
        <ele>708.231</ele>
        <time>2015-03-30T11:19:33Z</time>
      </trkpt>
      <trkpt lat="41.178648" lon="-6.765449">
        <ele>710.124</ele>
        <time>2015-03-30T11:19:44Z</time>
      </trkpt>
      <trkpt lat="41.178779" lon="-6.765138">
        <ele>711.507</ele>
        <time>2015-03-30T11:19:56Z</time>
      </trkpt>
      <trkpt lat="41.178999" lon="-6.764923">
        <ele>712.588</ele>
        <time>2015-03-30T11:20:07Z</time>
      </trkpt>
      <trkpt lat="41.179040" lon="-6.764908">
        <ele>713.083</ele>
        <time>2015-03-30T11:20:09Z</time>
      </trkpt>
      <trkpt lat="41.179060" lon="-6.764886">
        <ele>713.048</ele>
        <time>2015-03-30T11:20:10Z</time>
      </trkpt>
      <trkpt lat="41.179080" lon="-6.764860">
        <ele>712.582</ele>
        <time>2015-03-30T11:20:11Z</time>
      </trkpt>
      <trkpt lat="41.179240" lon="-6.764562">
        <ele>711.552</ele>
        <time>2015-03-30T11:20:19Z</time>
      </trkpt>
      <trkpt lat="41.179528" lon="-6.764145">
        <ele>709.615</ele>
        <time>2015-03-30T11:20:30Z</time>
      </trkpt>
      <trkpt lat="41.179808" lon="-6.763867">
        <ele>709.140</ele>
        <time>2015-03-30T11:20:38Z</time>
      </trkpt>
      <trkpt lat="41.179841" lon="-6.763836">
        <ele>709.174</ele>
        <time>2015-03-30T11:20:39Z</time>
      </trkpt>
      <trkpt lat="41.179873" lon="-6.763810">
        <ele>708.656</ele>
        <time>2015-03-30T11:20:40Z</time>
      </trkpt>
      <trkpt lat="41.179906" lon="-6.763782">
        <ele>708.621</ele>
        <time>2015-03-30T11:20:41Z</time>
      </trkpt>
      <trkpt lat="41.179941" lon="-6.763749">
        <ele>708.207</ele>
        <time>2015-03-30T11:20:42Z</time>
      </trkpt>
      <trkpt lat="41.180290" lon="-6.763371">
        <ele>708.266</ele>
        <time>2015-03-30T11:20:54Z</time>
      </trkpt>
      <trkpt lat="41.180563" lon="-6.763202">
        <ele>709.121</ele>
        <time>2015-03-30T11:21:04Z</time>
      </trkpt>
      <trkpt lat="41.180906" lon="-6.763135">
        <ele>708.286</ele>
        <time>2015-03-30T11:21:15Z</time>
      </trkpt>
      <trkpt lat="41.181190" lon="-6.763055">
        <ele>704.860</ele>
        <time>2015-03-30T11:21:24Z</time>
      </trkpt>
      <trkpt lat="41.181413" lon="-6.763001">
        <ele>702.920</ele>
        <time>2015-03-30T11:21:30Z</time>
      </trkpt>
      <trkpt lat="41.181494" lon="-6.762970">
        <ele>701.933</ele>
        <time>2015-03-30T11:21:32Z</time>
      </trkpt>
      <trkpt lat="41.181531" lon="-6.762944">
        <ele>701.428</ele>
        <time>2015-03-30T11:21:33Z</time>
      </trkpt>
      <trkpt lat="41.181559" lon="-6.762914">
        <ele>701.426</ele>
        <time>2015-03-30T11:21:34Z</time>
      </trkpt>
      <trkpt lat="41.181788" lon="-6.762667">
        <ele>701.947</ele>
        <time>2015-03-30T11:21:43Z</time>
      </trkpt>
      <trkpt lat="41.181842" lon="-6.762609">
        <ele>702.911</ele>
        <time>2015-03-30T11:21:47Z</time>
      </trkpt>
      <trkpt lat="41.181850" lon="-6.762592">
        <ele>702.407</ele>
        <time>2015-03-30T11:21:48Z</time>
      </trkpt>
      <trkpt lat="41.181893" lon="-6.762512">
        <ele>703.381</ele>
        <time>2015-03-30T11:21:53Z</time>
      </trkpt>
      <trkpt lat="41.181899" lon="-6.762495">
        <ele>703.826</ele>
        <time>2015-03-30T11:21:54Z</time>
      </trkpt>
      <trkpt lat="41.181905" lon="-6.762472">
        <ele>703.351</ele>
        <time>2015-03-30T11:21:55Z</time>
      </trkpt>
      <trkpt lat="41.181925" lon="-6.762415">
        <ele>704.335</ele>
        <time>2015-03-30T11:21:58Z</time>
      </trkpt>
      <trkpt lat="41.181937" lon="-6.762406">
        <ele>704.355</ele>
        <time>2015-03-30T11:21:59Z</time>
      </trkpt>
      <trkpt lat="41.181950" lon="-6.762399">
        <ele>704.848</ele>
        <time>2015-03-30T11:22:00Z</time>
      </trkpt>
      <trkpt lat="41.181963" lon="-6.762388">
        <ele>705.333</ele>
        <time>2015-03-30T11:22:01Z</time>
      </trkpt>
      <trkpt lat="41.181980" lon="-6.762377">
        <ele>705.342</ele>
        <time>2015-03-30T11:22:09Z</time>
      </trkpt>
      <trkpt lat="41.181988" lon="-6.762382">
        <ele>705.322</ele>
        <time>2015-03-30T11:22:10Z</time>
      </trkpt>
      <trkpt lat="41.182003" lon="-6.762400">
        <ele>705.314</ele>
        <time>2015-03-30T11:22:12Z</time>
      </trkpt>
      <trkpt lat="41.182008" lon="-6.762414">
        <ele>705.307</ele>
        <time>2015-03-30T11:22:13Z</time>
      </trkpt>
      <trkpt lat="41.182013" lon="-6.762430">
        <ele>705.383</ele>
        <time>2015-03-30T11:22:14Z</time>
      </trkpt>
      <trkpt lat="41.182022" lon="-6.762445">
        <ele>705.858</ele>
        <time>2015-03-30T11:22:15Z</time>
      </trkpt>
      <trkpt lat="41.182034" lon="-6.762459">
        <ele>705.893</ele>
        <time>2015-03-30T11:22:16Z</time>
      </trkpt>
      <trkpt lat="41.182075" lon="-6.762489">
        <ele>706.297</ele>
        <time>2015-03-30T11:22:26Z</time>
      </trkpt>
      <trkpt lat="41.182049" lon="-6.762488">
        <ele>706.237</ele>
        <time>2015-03-30T11:22:39Z</time>
      </trkpt>
      <trkpt lat="41.182034" lon="-6.762474">
        <ele>706.790</ele>
        <time>2015-03-30T11:22:40Z</time>
      </trkpt>
      <trkpt lat="41.182018" lon="-6.762452">
        <ele>706.775</ele>
        <time>2015-03-30T11:22:41Z</time>
      </trkpt>
      <trkpt lat="41.181911" lon="-6.762173">
        <ele>705.332</ele>
        <time>2015-03-30T11:22:50Z</time>
      </trkpt>
      <trkpt lat="41.181885" lon="-6.761943">
        <ele>707.292</ele>
        <time>2015-03-30T11:22:59Z</time>
      </trkpt>
      <trkpt lat="41.181968" lon="-6.761710">
        <ele>709.111</ele>
        <time>2015-03-30T11:23:09Z</time>
      </trkpt>
      <trkpt lat="41.182012" lon="-6.761662">
        <ele>709.607</ele>
        <time>2015-03-30T11:23:12Z</time>
      </trkpt>
      <trkpt lat="41.182028" lon="-6.761652">
        <ele>709.642</ele>
        <time>2015-03-30T11:23:13Z</time>
      </trkpt>
      <trkpt lat="41.182170" lon="-6.761503">
        <ele>712.597</ele>
        <time>2015-03-30T11:23:23Z</time>
      </trkpt>
      <trkpt lat="41.182264" lon="-6.761382">
        <ele>711.552</ele>
        <time>2015-03-30T11:23:31Z</time>
      </trkpt>
      <trkpt lat="41.182276" lon="-6.761365">
        <ele>711.526</ele>
        <time>2015-03-30T11:23:32Z</time>
      </trkpt>
      <trkpt lat="41.182291" lon="-6.761348">
        <ele>712.086</ele>
        <time>2015-03-30T11:23:33Z</time>
      </trkpt>
      <trkpt lat="41.182306" lon="-6.761334">
        <ele>712.089</ele>
        <time>2015-03-30T11:23:34Z</time>
      </trkpt>
      <trkpt lat="41.182321" lon="-6.761321">
        <ele>712.064</ele>
        <time>2015-03-30T11:23:35Z</time>
      </trkpt>
      <trkpt lat="41.182338" lon="-6.761309">
        <ele>712.585</ele>
        <time>2015-03-30T11:23:36Z</time>
      </trkpt>
      <trkpt lat="41.182353" lon="-6.761296">
        <ele>712.589</ele>
        <time>2015-03-30T11:23:37Z</time>
      </trkpt>
      <trkpt lat="41.182367" lon="-6.761283">
        <ele>713.017</ele>
        <time>2015-03-30T11:23:38Z</time>
      </trkpt>
      <trkpt lat="41.182440" lon="-6.761217">
        <ele>713.407</ele>
        <time>2015-03-30T11:23:43Z</time>
      </trkpt>
      <trkpt lat="41.182521" lon="-6.761084">
        <ele>714.937</ele>
        <time>2015-03-30T11:23:51Z</time>
      </trkpt>
      <trkpt lat="41.182539" lon="-6.761053">
        <ele>714.922</ele>
        <time>2015-03-30T11:23:53Z</time>
      </trkpt>
      <trkpt lat="41.182619" lon="-6.760863">
        <ele>717.327</ele>
        <time>2015-03-30T11:24:04Z</time>
      </trkpt>
      <trkpt lat="41.182627" lon="-6.760850">
        <ele>717.381</ele>
        <time>2015-03-30T11:24:05Z</time>
      </trkpt>
      <trkpt lat="41.182638" lon="-6.760837">
        <ele>717.361</ele>
        <time>2015-03-30T11:24:06Z</time>
      </trkpt>
      <trkpt lat="41.182648" lon="-6.760823">
        <ele>717.324</ele>
        <time>2015-03-30T11:24:07Z</time>
      </trkpt>
      <trkpt lat="41.182656" lon="-6.760808">
        <ele>717.899</ele>
        <time>2015-03-30T11:24:08Z</time>
      </trkpt>
      <trkpt lat="41.182665" lon="-6.760793">
        <ele>717.877</ele>
        <time>2015-03-30T11:24:09Z</time>
      </trkpt>
      <trkpt lat="41.182677" lon="-6.760777">
        <ele>717.861</ele>
        <time>2015-03-30T11:24:10Z</time>
      </trkpt>
      <trkpt lat="41.182688" lon="-6.760761">
        <ele>718.227</ele>
        <time>2015-03-30T11:24:11Z</time>
      </trkpt>
      <trkpt lat="41.182701" lon="-6.760748">
        <ele>718.207</ele>
        <time>2015-03-30T11:24:12Z</time>
      </trkpt>
      <trkpt lat="41.182715" lon="-6.760732">
        <ele>718.216</ele>
        <time>2015-03-30T11:24:13Z</time>
      </trkpt>
      <trkpt lat="41.182727" lon="-6.760716">
        <ele>718.731</ele>
        <time>2015-03-30T11:24:14Z</time>
      </trkpt>
      <trkpt lat="41.182778" lon="-6.760647">
        <ele>719.286</ele>
        <time>2015-03-30T11:24:19Z</time>
      </trkpt>
      <trkpt lat="41.182784" lon="-6.760630">
        <ele>719.280</ele>
        <time>2015-03-30T11:24:20Z</time>
      </trkpt>
      <trkpt lat="41.182792" lon="-6.760613">
        <ele>719.730</ele>
        <time>2015-03-30T11:24:21Z</time>
      </trkpt>
      <trkpt lat="41.182803" lon="-6.760597">
        <ele>719.733</ele>
        <time>2015-03-30T11:24:22Z</time>
      </trkpt>
      <trkpt lat="41.182812" lon="-6.760581">
        <ele>719.748</ele>
        <time>2015-03-30T11:24:23Z</time>
      </trkpt>
      <trkpt lat="41.182822" lon="-6.760561">
        <ele>719.782</ele>
        <time>2015-03-30T11:24:24Z</time>
      </trkpt>
      <trkpt lat="41.182835" lon="-6.760544">
        <ele>720.243</ele>
        <time>2015-03-30T11:24:25Z</time>
      </trkpt>
      <trkpt lat="41.182848" lon="-6.760532">
        <ele>720.217</ele>
        <time>2015-03-30T11:24:26Z</time>
      </trkpt>
      <trkpt lat="41.182859" lon="-6.760521">
        <ele>720.207</ele>
        <time>2015-03-30T11:24:27Z</time>
      </trkpt>
      <trkpt lat="41.182870" lon="-6.760509">
        <ele>720.747</ele>
        <time>2015-03-30T11:24:28Z</time>
      </trkpt>
      <trkpt lat="41.182878" lon="-6.760495">
        <ele>720.712</ele>
        <time>2015-03-30T11:24:29Z</time>
      </trkpt>
      <trkpt lat="41.182890" lon="-6.760485">
        <ele>720.717</ele>
        <time>2015-03-30T11:24:30Z</time>
      </trkpt>
      <trkpt lat="41.182903" lon="-6.760474">
        <ele>721.151</ele>
        <time>2015-03-30T11:24:31Z</time>
      </trkpt>
      <trkpt lat="41.182918" lon="-6.760459">
        <ele>721.111</ele>
        <time>2015-03-30T11:24:32Z</time>
      </trkpt>
      <trkpt lat="41.183043" lon="-6.760360">
        <ele>722.114</ele>
        <time>2015-03-30T11:24:41Z</time>
      </trkpt>
      <trkpt lat="41.183057" lon="-6.760350">
        <ele>722.159</ele>
        <time>2015-03-30T11:24:42Z</time>
      </trkpt>
      <trkpt lat="41.183069" lon="-6.760337">
        <ele>722.146</ele>
        <time>2015-03-30T11:24:43Z</time>
      </trkpt>
      <trkpt lat="41.183079" lon="-6.760323">
        <ele>722.188</ele>
        <time>2015-03-30T11:24:44Z</time>
      </trkpt>
      <trkpt lat="41.183093" lon="-6.760316">
        <ele>722.116</ele>
        <time>2015-03-30T11:24:45Z</time>
      </trkpt>
      <trkpt lat="41.183108" lon="-6.760306">
        <ele>722.107</ele>
        <time>2015-03-30T11:24:46Z</time>
      </trkpt>
      <trkpt lat="41.183121" lon="-6.760296">
        <ele>722.613</ele>
        <time>2015-03-30T11:24:47Z</time>
      </trkpt>
      <trkpt lat="41.183136" lon="-6.760285">
        <ele>722.118</ele>
        <time>2015-03-30T11:24:48Z</time>
      </trkpt>
      <trkpt lat="41.183148" lon="-6.760273">
        <ele>722.673</ele>
        <time>2015-03-30T11:24:49Z</time>
      </trkpt>
      <trkpt lat="41.183172" lon="-6.760252">
        <ele>723.167</ele>
        <time>2015-03-30T11:24:51Z</time>
      </trkpt>
      <trkpt lat="41.183185" lon="-6.760246">
        <ele>723.157</ele>
        <time>2015-03-30T11:24:52Z</time>
      </trkpt>
      <trkpt lat="41.183199" lon="-6.760239">
        <ele>723.120</ele>
        <time>2015-03-30T11:24:53Z</time>
      </trkpt>
      <trkpt lat="41.183213" lon="-6.760228">
        <ele>723.115</ele>
        <time>2015-03-30T11:24:54Z</time>
      </trkpt>
      <trkpt lat="41.183225" lon="-6.760215">
        <ele>723.123</ele>
        <time>2015-03-30T11:24:55Z</time>
      </trkpt>
      <trkpt lat="41.183239" lon="-6.760203">
        <ele>723.183</ele>
        <time>2015-03-30T11:24:56Z</time>
      </trkpt>
      <trkpt lat="41.183254" lon="-6.760190">
        <ele>723.511</ele>
        <time>2015-03-30T11:24:57Z</time>
      </trkpt>
      <trkpt lat="41.183267" lon="-6.760174">
        <ele>723.507</ele>
        <time>2015-03-30T11:24:58Z</time>
      </trkpt>
      <trkpt lat="41.183279" lon="-6.760162">
        <ele>723.581</ele>
        <time>2015-03-30T11:24:59Z</time>
      </trkpt>
      <trkpt lat="41.183294" lon="-6.760149">
        <ele>723.536</ele>
        <time>2015-03-30T11:25:00Z</time>
      </trkpt>
      <trkpt lat="41.183310" lon="-6.760134">
        <ele>724.061</ele>
        <time>2015-03-30T11:25:01Z</time>
      </trkpt>
      <trkpt lat="41.183430" lon="-6.760020">
        <ele>724.085</ele>
        <time>2015-03-30T11:25:09Z</time>
      </trkpt>
      <trkpt lat="41.183633" lon="-6.759823">
        <ele>724.045</ele>
        <time>2015-03-30T11:25:19Z</time>
      </trkpt>
      <trkpt lat="41.183911" lon="-6.759626">
        <ele>724.598</ele>
        <time>2015-03-30T11:25:31Z</time>
      </trkpt>
      <trkpt lat="41.184091" lon="-6.759501">
        <ele>725.023</ele>
        <time>2015-03-30T11:25:39Z</time>
      </trkpt>
      <trkpt lat="41.184268" lon="-6.759432">
        <ele>726.437</ele>
        <time>2015-03-30T11:25:47Z</time>
      </trkpt>
      <trkpt lat="41.184321" lon="-6.759182">
        <ele>727.449</ele>
        <time>2015-03-30T11:25:55Z</time>
      </trkpt>
      <trkpt lat="41.184334" lon="-6.759152">
        <ele>726.913</ele>
        <time>2015-03-30T11:25:56Z</time>
      </trkpt>
      <trkpt lat="41.184352" lon="-6.759123">
        <ele>727.407</ele>
        <time>2015-03-30T11:25:57Z</time>
      </trkpt>
      <trkpt lat="41.184367" lon="-6.759092">
        <ele>727.472</ele>
        <time>2015-03-30T11:25:58Z</time>
      </trkpt>
      <trkpt lat="41.184383" lon="-6.759061">
        <ele>727.417</ele>
        <time>2015-03-30T11:25:59Z</time>
      </trkpt>
      <trkpt lat="41.184400" lon="-6.759033">
        <ele>727.432</ele>
        <time>2015-03-30T11:26:00Z</time>
      </trkpt>
      <trkpt lat="41.184420" lon="-6.759008">
        <ele>727.946</ele>
        <time>2015-03-30T11:26:01Z</time>
      </trkpt>
      <trkpt lat="41.184439" lon="-6.758983">
        <ele>727.446</ele>
        <time>2015-03-30T11:26:02Z</time>
      </trkpt>
      <trkpt lat="41.184460" lon="-6.758956">
        <ele>727.419</ele>
        <time>2015-03-30T11:26:03Z</time>
      </trkpt>
      <trkpt lat="41.184483" lon="-6.758931">
        <ele>727.464</ele>
        <time>2015-03-30T11:26:04Z</time>
      </trkpt>
      <trkpt lat="41.184505" lon="-6.758908">
        <ele>727.463</ele>
        <time>2015-03-30T11:26:05Z</time>
      </trkpt>
      <trkpt lat="41.184525" lon="-6.758878">
        <ele>727.444</ele>
        <time>2015-03-30T11:26:06Z</time>
      </trkpt>
      <trkpt lat="41.184539" lon="-6.758844">
        <ele>726.918</ele>
        <time>2015-03-30T11:26:07Z</time>
      </trkpt>
      <trkpt lat="41.184553" lon="-6.758808">
        <ele>726.907</ele>
        <time>2015-03-30T11:26:08Z</time>
      </trkpt>
      <trkpt lat="41.184568" lon="-6.758772">
        <ele>726.455</ele>
        <time>2015-03-30T11:26:09Z</time>
      </trkpt>
      <trkpt lat="41.184588" lon="-6.758735">
        <ele>725.910</ele>
        <time>2015-03-30T11:26:10Z</time>
      </trkpt>
      <trkpt lat="41.184716" lon="-6.758450">
        <ele>724.035</ele>
        <time>2015-03-30T11:26:19Z</time>
      </trkpt>
      <trkpt lat="41.184803" lon="-6.758015">
        <ele>720.719</ele>
        <time>2015-03-30T11:26:28Z</time>
      </trkpt>
      <trkpt lat="41.184829" lon="-6.757909">
        <ele>720.279</ele>
        <time>2015-03-30T11:26:30Z</time>
      </trkpt>
      <trkpt lat="41.184845" lon="-6.757861">
        <ele>719.772</ele>
        <time>2015-03-30T11:26:31Z</time>
      </trkpt>
      <trkpt lat="41.184864" lon="-6.757820">
        <ele>719.287</ele>
        <time>2015-03-30T11:26:32Z</time>
      </trkpt>
      <trkpt lat="41.184889" lon="-6.757784">
        <ele>719.238</ele>
        <time>2015-03-30T11:26:33Z</time>
      </trkpt>
      <trkpt lat="41.184913" lon="-6.757750">
        <ele>718.770</ele>
        <time>2015-03-30T11:26:34Z</time>
      </trkpt>
      <trkpt lat="41.184940" lon="-6.757714">
        <ele>718.717</ele>
        <time>2015-03-30T11:26:35Z</time>
      </trkpt>
      <trkpt lat="41.184976" lon="-6.757679">
        <ele>718.707</ele>
        <time>2015-03-30T11:26:36Z</time>
      </trkpt>
      <trkpt lat="41.185016" lon="-6.757644">
        <ele>717.332</ele>
        <time>2015-03-30T11:26:37Z</time>
      </trkpt>
      <trkpt lat="41.185057" lon="-6.757615">
        <ele>716.837</ele>
        <time>2015-03-30T11:26:38Z</time>
      </trkpt>
      <trkpt lat="41.185099" lon="-6.757587">
        <ele>716.872</ele>
        <time>2015-03-30T11:26:39Z</time>
      </trkpt>
      <trkpt lat="41.185348" lon="-6.757430">
        <ele>715.846</ele>
        <time>2015-03-30T11:26:45Z</time>
      </trkpt>
      <trkpt lat="41.185379" lon="-6.757395">
        <ele>716.376</ele>
        <time>2015-03-30T11:26:46Z</time>
      </trkpt>
      <trkpt lat="41.185402" lon="-6.757356">
        <ele>716.349</ele>
        <time>2015-03-30T11:26:47Z</time>
      </trkpt>
      <trkpt lat="41.185424" lon="-6.757318">
        <ele>716.354</ele>
        <time>2015-03-30T11:26:48Z</time>
      </trkpt>
      <trkpt lat="41.185445" lon="-6.757281">
        <ele>716.398</ele>
        <time>2015-03-30T11:26:49Z</time>
      </trkpt>
      <trkpt lat="41.185466" lon="-6.757243">
        <ele>716.315</ele>
        <time>2015-03-30T11:26:50Z</time>
      </trkpt>
      <trkpt lat="41.185636" lon="-6.757012">
        <ele>715.826</ele>
        <time>2015-03-30T11:26:58Z</time>
      </trkpt>
      <trkpt lat="41.185891" lon="-6.756748">
        <ele>714.907</ele>
        <time>2015-03-30T11:27:07Z</time>
      </trkpt>
      <trkpt lat="41.186081" lon="-6.756463">
        <ele>713.978</ele>
        <time>2015-03-30T11:27:14Z</time>
      </trkpt>
      <trkpt lat="41.186141" lon="-6.756327">
        <ele>713.963</ele>
        <time>2015-03-30T11:27:17Z</time>
      </trkpt>
      <trkpt lat="41.186284" lon="-6.755888">
        <ele>713.458</ele>
        <time>2015-03-30T11:27:27Z</time>
      </trkpt>
      <trkpt lat="41.186392" lon="-6.755642">
        <ele>713.942</ele>
        <time>2015-03-30T11:27:35Z</time>
      </trkpt>
      <trkpt lat="41.186495" lon="-6.755432">
        <ele>715.442</ele>
        <time>2015-03-30T11:27:46Z</time>
      </trkpt>
      <trkpt lat="41.186560" lon="-6.755379">
        <ele>715.875</ele>
        <time>2015-03-30T11:27:50Z</time>
      </trkpt>
      <trkpt lat="41.186568" lon="-6.755367">
        <ele>715.880</ele>
        <time>2015-03-30T11:27:58Z</time>
      </trkpt>
      <trkpt lat="41.186586" lon="-6.755353">
        <ele>715.834</ele>
        <time>2015-03-30T11:28:00Z</time>
      </trkpt>
      <trkpt lat="41.186597" lon="-6.755345">
        <ele>715.855</ele>
        <time>2015-03-30T11:28:01Z</time>
      </trkpt>
      <trkpt lat="41.186613" lon="-6.755324">
        <ele>715.810</ele>
        <time>2015-03-30T11:28:11Z</time>
      </trkpt>
      <trkpt lat="41.186615" lon="-6.755300">
        <ele>715.407</ele>
        <time>2015-03-30T11:28:22Z</time>
      </trkpt>
      <trkpt lat="41.186661" lon="-6.755276">
        <ele>715.872</ele>
        <time>2015-03-30T11:28:32Z</time>
      </trkpt>
      <trkpt lat="41.186685" lon="-6.755253">
        <ele>715.487</ele>
        <time>2015-03-30T11:28:33Z</time>
      </trkpt>
      <trkpt lat="41.186762" lon="-6.755180">
        <ele>714.432</ele>
        <time>2015-03-30T11:28:41Z</time>
      </trkpt>
      <trkpt lat="41.186769" lon="-6.755172">
        <ele>714.946</ele>
        <time>2015-03-30T11:29:02Z</time>
      </trkpt>
      <trkpt lat="41.186769" lon="-6.755172">
        <ele>714.416</ele>
        <time>2015-03-30T11:29:03Z</time>
      </trkpt>
      <trkpt lat="41.186768" lon="-6.754926">
        <ele>713.099</ele>
        <time>2015-03-30T11:29:12Z</time>
      </trkpt>
      <trkpt lat="41.186710" lon="-6.754677">
        <ele>711.554</ele>
        <time>2015-03-30T11:29:22Z</time>
      </trkpt>
      <trkpt lat="41.186717" lon="-6.754683">
        <ele>711.522</ele>
        <time>2015-03-30T11:29:42Z</time>
      </trkpt>
      <trkpt lat="41.186712" lon="-6.754670">
        <ele>711.562</ele>
        <time>2015-03-30T11:30:02Z</time>
      </trkpt>
      <trkpt lat="41.186705" lon="-6.754662">
        <ele>712.008</ele>
        <time>2015-03-30T11:30:21Z</time>
      </trkpt>
      <trkpt lat="41.186703" lon="-6.754666">
        <ele>712.007</ele>
        <time>2015-03-30T11:30:24Z</time>
      </trkpt>
      <trkpt lat="41.186755" lon="-6.754413">
        <ele>710.621</ele>
        <time>2015-03-30T11:30:33Z</time>
      </trkpt>
      <trkpt lat="41.186812" lon="-6.754108">
        <ele>709.626</ele>
        <time>2015-03-30T11:30:41Z</time>
      </trkpt>
      <trkpt lat="41.186852" lon="-6.753836">
        <ele>708.271</ele>
        <time>2015-03-30T11:30:49Z</time>
      </trkpt>
      <trkpt lat="41.186938" lon="-6.753553">
        <ele>706.765</ele>
        <time>2015-03-30T11:30:59Z</time>
      </trkpt>
      <trkpt lat="41.186981" lon="-6.753344">
        <ele>706.245</ele>
        <time>2015-03-30T11:31:06Z</time>
      </trkpt>
      <trkpt lat="41.186983" lon="-6.753210">
        <ele>705.838</ele>
        <time>2015-03-30T11:31:10Z</time>
      </trkpt>
      <trkpt lat="41.187035" lon="-6.752954">
        <ele>705.363</ele>
        <time>2015-03-30T11:31:18Z</time>
      </trkpt>
      <trkpt lat="41.187047" lon="-6.752934">
        <ele>705.324</ele>
        <time>2015-03-30T11:31:29Z</time>
      </trkpt>
      <trkpt lat="41.187045" lon="-6.752932">
        <ele>705.304</ele>
        <time>2015-03-30T11:31:43Z</time>
      </trkpt>
      <trkpt lat="41.187039" lon="-6.752930">
        <ele>705.314</ele>
        <time>2015-03-30T11:32:05Z</time>
      </trkpt>
      <trkpt lat="41.187039" lon="-6.752931">
        <ele>704.807</ele>
        <time>2015-03-30T11:32:23Z</time>
      </trkpt>
      <trkpt lat="41.187031" lon="-6.752932">
        <ele>705.341</ele>
        <time>2015-03-30T11:32:47Z</time>
      </trkpt>
      <trkpt lat="41.187030" lon="-6.752931">
        <ele>705.376</ele>
        <time>2015-03-30T11:32:52Z</time>
      </trkpt>
      <trkpt lat="41.187078" lon="-6.752827">
        <ele>705.371</ele>
        <time>2015-03-30T11:33:02Z</time>
      </trkpt>
      <trkpt lat="41.187117" lon="-6.752785">
        <ele>705.825</ele>
        <time>2015-03-30T11:33:20Z</time>
      </trkpt>
      <trkpt lat="41.187194" lon="-6.752689">
        <ele>706.245</ele>
        <time>2015-03-30T11:33:25Z</time>
      </trkpt>
      <trkpt lat="41.187263" lon="-6.752600">
        <ele>706.218</ele>
        <time>2015-03-30T11:33:29Z</time>
      </trkpt>
      <trkpt lat="41.187489" lon="-6.752341">
        <ele>705.373</ele>
        <time>2015-03-30T11:33:40Z</time>
      </trkpt>
      <trkpt lat="41.187675" lon="-6.752203">
        <ele>705.845</ele>
        <time>2015-03-30T11:33:49Z</time>
      </trkpt>
      <trkpt lat="41.187807" lon="-6.752017">
        <ele>705.847</ele>
        <time>2015-03-30T11:33:57Z</time>
      </trkpt>
      <trkpt lat="41.188008" lon="-6.751792">
        <ele>705.811</ele>
        <time>2015-03-30T11:34:08Z</time>
      </trkpt>
      <trkpt lat="41.188058" lon="-6.751765">
        <ele>705.807</ele>
        <time>2015-03-30T11:34:11Z</time>
      </trkpt>
      <trkpt lat="41.188099" lon="-6.751745">
        <ele>705.893</ele>
        <time>2015-03-30T11:34:21Z</time>
      </trkpt>
      <trkpt lat="41.188105" lon="-6.751743">
        <ele>705.828</ele>
        <time>2015-03-30T11:34:41Z</time>
      </trkpt>
      <trkpt lat="41.188106" lon="-6.751714">
        <ele>706.263</ele>
        <time>2015-03-30T11:35:03Z</time>
      </trkpt>
      <trkpt lat="41.188112" lon="-6.751720">
        <ele>705.897</ele>
        <time>2015-03-30T11:35:29Z</time>
      </trkpt>
      <trkpt lat="41.188114" lon="-6.751733">
        <ele>706.267</ele>
        <time>2015-03-30T11:35:52Z</time>
      </trkpt>
      <trkpt lat="41.188105" lon="-6.751733">
        <ele>705.860</ele>
        <time>2015-03-30T11:36:16Z</time>
      </trkpt>
      <trkpt lat="41.188101" lon="-6.751734">
        <ele>705.835</ele>
        <time>2015-03-30T11:36:44Z</time>
      </trkpt>
      <trkpt lat="41.188093" lon="-6.751729">
        <ele>705.882</ele>
        <time>2015-03-30T11:37:05Z</time>
      </trkpt>
      <trkpt lat="41.188088" lon="-6.751733">
        <ele>705.843</ele>
        <time>2015-03-30T11:37:25Z</time>
      </trkpt>
      <trkpt lat="41.188083" lon="-6.751731">
        <ele>705.817</ele>
        <time>2015-03-30T11:37:51Z</time>
      </trkpt>
      <trkpt lat="41.188067" lon="-6.751739">
        <ele>705.807</ele>
        <time>2015-03-30T11:38:10Z</time>
      </trkpt>
      <trkpt lat="41.188065" lon="-6.751748">
        <ele>705.837</ele>
        <time>2015-03-30T11:38:25Z</time>
      </trkpt>
      <trkpt lat="41.188066" lon="-6.751752">
        <ele>705.382</ele>
        <time>2015-03-30T11:38:51Z</time>
      </trkpt>
      <trkpt lat="41.188061" lon="-6.751749">
        <ele>705.827</ele>
        <time>2015-03-30T11:39:14Z</time>
      </trkpt>
      <trkpt lat="41.188070" lon="-6.751771">
        <ele>705.861</ele>
        <time>2015-03-30T11:39:40Z</time>
      </trkpt>
      <trkpt lat="41.188069" lon="-6.751770">
        <ele>706.251</ele>
        <time>2015-03-30T11:39:49Z</time>
      </trkpt>
      <trkpt lat="41.188072" lon="-6.751771">
        <ele>705.814</ele>
        <time>2015-03-30T11:40:01Z</time>
      </trkpt>
      <trkpt lat="41.188070" lon="-6.751776">
        <ele>705.329</ele>
        <time>2015-03-30T11:40:12Z</time>
      </trkpt>
      <trkpt lat="41.188068" lon="-6.751787">
        <ele>704.858</ele>
        <time>2015-03-30T11:40:43Z</time>
      </trkpt>
      <trkpt lat="41.188069" lon="-6.751798">
        <ele>704.852</ele>
        <time>2015-03-30T11:40:54Z</time>
      </trkpt>
      <trkpt lat="41.187930" lon="-6.751904">
        <ele>705.317</ele>
        <time>2015-03-30T11:41:04Z</time>
      </trkpt>
      <trkpt lat="41.187911" lon="-6.751913">
        <ele>705.307</ele>
        <time>2015-03-30T11:41:05Z</time>
      </trkpt>
      <trkpt lat="41.187854" lon="-6.751975">
        <ele>705.834</ele>
        <time>2015-03-30T11:41:09Z</time>
      </trkpt>
      <trkpt lat="41.187801" lon="-6.752026">
        <ele>705.899</ele>
        <time>2015-03-30T11:41:13Z</time>
      </trkpt>
      <trkpt lat="41.187665" lon="-6.752177">
        <ele>706.274</ele>
        <time>2015-03-30T11:41:22Z</time>
      </trkpt>
      <trkpt lat="41.187635" lon="-6.752250">
        <ele>705.848</ele>
        <time>2015-03-30T11:41:26Z</time>
      </trkpt>
      <trkpt lat="41.187523" lon="-6.752317">
        <ele>705.328</ele>
        <time>2015-03-30T11:41:33Z</time>
      </trkpt>
      <trkpt lat="41.187457" lon="-6.752308">
        <ele>705.311</ele>
        <time>2015-03-30T11:41:36Z</time>
      </trkpt>
      <trkpt lat="41.187291" lon="-6.752102">
        <ele>701.996</ele>
        <time>2015-03-30T11:41:45Z</time>
      </trkpt>
      <trkpt lat="41.187114" lon="-6.751981">
        <ele>700.057</ele>
        <time>2015-03-30T11:41:51Z</time>
      </trkpt>
      <trkpt lat="41.187082" lon="-6.751941">
        <ele>700.000</ele>
        <time>2015-03-30T11:41:52Z</time>
      </trkpt>
      <trkpt lat="41.187043" lon="-6.751902">
        <ele>699.520</ele>
        <time>2015-03-30T11:41:53Z</time>
      </trkpt>
      <trkpt lat="41.187003" lon="-6.751858">
        <ele>699.007</ele>
        <time>2015-03-30T11:41:54Z</time>
      </trkpt>
      <trkpt lat="41.186963" lon="-6.751808">
        <ele>698.524</ele>
        <time>2015-03-30T11:41:55Z</time>
      </trkpt>
      <trkpt lat="41.186923" lon="-6.751757">
        <ele>698.579</ele>
        <time>2015-03-30T11:41:56Z</time>
      </trkpt>
      <trkpt lat="41.186887" lon="-6.751701">
        <ele>698.544</ele>
        <time>2015-03-30T11:41:57Z</time>
      </trkpt>
      <trkpt lat="41.186826" lon="-6.751581">
        <ele>698.158</ele>
        <time>2015-03-30T11:41:59Z</time>
      </trkpt>
      <trkpt lat="41.186803" lon="-6.751515">
        <ele>698.188</ele>
        <time>2015-03-30T11:42:00Z</time>
      </trkpt>
      <trkpt lat="41.186785" lon="-6.751448">
        <ele>698.111</ele>
        <time>2015-03-30T11:42:01Z</time>
      </trkpt>
      <trkpt lat="41.186747" lon="-6.751246">
        <ele>698.126</ele>
        <time>2015-03-30T11:42:04Z</time>
      </trkpt>
      <trkpt lat="41.186722" lon="-6.751054">
        <ele>698.193</ele>
        <time>2015-03-30T11:42:07Z</time>
      </trkpt>
      <trkpt lat="41.186702" lon="-6.750998">
        <ele>698.165</ele>
        <time>2015-03-30T11:42:08Z</time>
      </trkpt>
      <trkpt lat="41.186673" lon="-6.750951">
        <ele>698.121</ele>
        <time>2015-03-30T11:42:09Z</time>
      </trkpt>
      <trkpt lat="41.186639" lon="-6.750913">
        <ele>698.107</ele>
        <time>2015-03-30T11:42:10Z</time>
      </trkpt>
      <trkpt lat="41.186608" lon="-6.750878">
        <ele>698.128</ele>
        <time>2015-03-30T11:42:11Z</time>
      </trkpt>
      <trkpt lat="41.186586" lon="-6.750840">
        <ele>698.173</ele>
        <time>2015-03-30T11:42:12Z</time>
      </trkpt>
      <trkpt lat="41.186569" lon="-6.750804">
        <ele>698.558</ele>
        <time>2015-03-30T11:42:13Z</time>
      </trkpt>
      <trkpt lat="41.186557" lon="-6.750774">
        <ele>698.582</ele>
        <time>2015-03-30T11:42:14Z</time>
      </trkpt>
      <trkpt lat="41.186497" lon="-6.750620">
        <ele>699.512</ele>
        <time>2015-03-30T11:42:20Z</time>
      </trkpt>
      <trkpt lat="41.186259" lon="-6.750467">
        <ele>700.935</ele>
        <time>2015-03-30T11:42:31Z</time>
      </trkpt>
      <trkpt lat="41.185953" lon="-6.750267">
        <ele>701.960</ele>
        <time>2015-03-30T11:42:44Z</time>
      </trkpt>
      <trkpt lat="41.185660" lon="-6.750132">
        <ele>702.481</ele>
        <time>2015-03-30T11:42:55Z</time>
      </trkpt>
      <trkpt lat="41.185392" lon="-6.749876">
        <ele>703.361</ele>
        <time>2015-03-30T11:43:06Z</time>
      </trkpt>
      <trkpt lat="41.185112" lon="-6.749439">
        <ele>703.817</ele>
        <time>2015-03-30T11:43:20Z</time>
      </trkpt>
      <trkpt lat="41.184913" lon="-6.749067">
        <ele>701.407</ele>
        <time>2015-03-30T11:43:30Z</time>
      </trkpt>
      <trkpt lat="41.184878" lon="-6.748969">
        <ele>700.527</ele>
        <time>2015-03-30T11:43:32Z</time>
      </trkpt>
      <trkpt lat="41.184848" lon="-6.748864">
        <ele>700.582</ele>
        <time>2015-03-30T11:43:34Z</time>
      </trkpt>
      <trkpt lat="41.184787" lon="-6.748697">
        <ele>699.577</ele>
        <time>2015-03-30T11:43:37Z</time>
      </trkpt>
      <trkpt lat="41.184759" lon="-6.748643">
        <ele>699.561</ele>
        <time>2015-03-30T11:43:38Z</time>
      </trkpt>
      <trkpt lat="41.184631" lon="-6.748433">
        <ele>698.551</ele>
        <time>2015-03-30T11:43:42Z</time>
      </trkpt>
      <trkpt lat="41.184600" lon="-6.748388">
        <ele>699.094</ele>
        <time>2015-03-30T11:43:43Z</time>
      </trkpt>
      <trkpt lat="41.184578" lon="-6.748343">
        <ele>698.129</ele>
        <time>2015-03-30T11:43:44Z</time>
      </trkpt>
      <trkpt lat="41.184563" lon="-6.748299">
        <ele>698.524</ele>
        <time>2015-03-30T11:43:45Z</time>
      </trkpt>
      <trkpt lat="41.184554" lon="-6.748256">
        <ele>699.004</ele>
        <time>2015-03-30T11:43:46Z</time>
      </trkpt>
      <trkpt lat="41.184545" lon="-6.748216">
        <ele>699.014</ele>
        <time>2015-03-30T11:43:47Z</time>
      </trkpt>
      <trkpt lat="41.184541" lon="-6.748177">
        <ele>699.007</ele>
        <time>2015-03-30T11:43:48Z</time>
      </trkpt>
      <trkpt lat="41.184546" lon="-6.748140">
        <ele>699.541</ele>
        <time>2015-03-30T11:43:49Z</time>
      </trkpt>
      <trkpt lat="41.184558" lon="-6.748103">
        <ele>699.056</ele>
        <time>2015-03-30T11:43:50Z</time>
      </trkpt>
      <trkpt lat="41.184573" lon="-6.748067">
        <ele>699.081</ele>
        <time>2015-03-30T11:43:51Z</time>
      </trkpt>
      <trkpt lat="41.184824" lon="-6.747680">
        <ele>698.515</ele>
        <time>2015-03-30T11:44:02Z</time>
      </trkpt>
      <trkpt lat="41.184966" lon="-6.747420">
        <ele>697.175</ele>
        <time>2015-03-30T11:44:09Z</time>
      </trkpt>
      <trkpt lat="41.184977" lon="-6.747290">
        <ele>696.138</ele>
        <time>2015-03-30T11:44:12Z</time>
      </trkpt>
      <trkpt lat="41.184863" lon="-6.747186">
        <ele>692.323</ele>
        <time>2015-03-30T11:44:18Z</time>
      </trkpt>
      <trkpt lat="41.184835" lon="-6.747189">
        <ele>695.728</ele>
        <time>2015-03-30T11:44:19Z</time>
      </trkpt>
      <trkpt lat="41.184817" lon="-6.747193">
        <ele>695.289</ele>
        <time>2015-03-30T11:44:25Z</time>
      </trkpt>
      <trkpt lat="41.184685" lon="-6.747285">
        <ele>693.717</ele>
        <time>2015-03-30T11:44:32Z</time>
      </trkpt>
      <trkpt lat="41.184429" lon="-6.747394">
        <ele>690.807</ele>
        <time>2015-03-30T11:44:41Z</time>
      </trkpt>
      <trkpt lat="41.184209" lon="-6.747680">
        <ele>689.971</ele>
        <time>2015-03-30T11:44:49Z</time>
      </trkpt>
      <trkpt lat="41.184151" lon="-6.747724">
        <ele>689.446</ele>
        <time>2015-03-30T11:44:51Z</time>
      </trkpt>
      <trkpt lat="41.184073" lon="-6.747726">
        <ele>688.941</ele>
        <time>2015-03-30T11:44:53Z</time>
      </trkpt>
      <trkpt lat="41.184032" lon="-6.747691">
        <ele>688.955</ele>
        <time>2015-03-30T11:44:54Z</time>
      </trkpt>
      <trkpt lat="41.183995" lon="-6.747640">
        <ele>688.455</ele>
        <time>2015-03-30T11:44:55Z</time>
      </trkpt>
      <trkpt lat="41.183961" lon="-6.747578">
        <ele>688.048</ele>
        <time>2015-03-30T11:44:56Z</time>
      </trkpt>
      <trkpt lat="41.183921" lon="-6.747521">
        <ele>687.073</ele>
        <time>2015-03-30T11:44:57Z</time>
      </trkpt>
      <trkpt lat="41.183875" lon="-6.747480">
        <ele>686.592</ele>
        <time>2015-03-30T11:44:58Z</time>
      </trkpt>
      <trkpt lat="41.183822" lon="-6.747454">
        <ele>686.073</ele>
        <time>2015-03-30T11:44:59Z</time>
      </trkpt>
      <trkpt lat="41.183765" lon="-6.747436">
        <ele>685.620</ele>
        <time>2015-03-30T11:45:00Z</time>
      </trkpt>
      <trkpt lat="41.183702" lon="-6.747418">
        <ele>685.107</ele>
        <time>2015-03-30T11:45:01Z</time>
      </trkpt>
      <trkpt lat="41.183635" lon="-6.747399">
        <ele>684.118</ele>
        <time>2015-03-30T11:45:02Z</time>
      </trkpt>
      <trkpt lat="41.183569" lon="-6.747375">
        <ele>683.683</ele>
        <time>2015-03-30T11:45:03Z</time>
      </trkpt>
      <trkpt lat="41.183508" lon="-6.747334">
        <ele>682.718</ele>
        <time>2015-03-30T11:45:04Z</time>
      </trkpt>
      <trkpt lat="41.183453" lon="-6.747275">
        <ele>681.712</ele>
        <time>2015-03-30T11:45:05Z</time>
      </trkpt>
      <trkpt lat="41.183294" lon="-6.747100">
        <ele>679.832</ele>
        <time>2015-03-30T11:45:08Z</time>
      </trkpt>
      <trkpt lat="41.183176" lon="-6.746837">
        <ele>677.455</ele>
        <time>2015-03-30T11:45:13Z</time>
      </trkpt>
      <trkpt lat="41.183177" lon="-6.746698">
        <ele>675.950</ele>
        <time>2015-03-30T11:45:15Z</time>
      </trkpt>
      <trkpt lat="41.183123" lon="-6.746450">
        <ele>673.564</ele>
        <time>2015-03-30T11:45:19Z</time>
      </trkpt>
      <trkpt lat="41.182860" lon="-6.745956">
        <ele>671.106</ele>
        <time>2015-03-30T11:45:27Z</time>
      </trkpt>
      <trkpt lat="41.182755" lon="-6.745913">
        <ele>676.416</ele>
        <time>2015-03-30T11:45:31Z</time>
      </trkpt>
      <trkpt lat="41.182725" lon="-6.745918">
        <ele>670.707</ele>
        <time>2015-03-30T11:45:32Z</time>
      </trkpt>
      <trkpt lat="41.182492" lon="-6.745944">
        <ele>670.765</ele>
        <time>2015-03-30T11:45:40Z</time>
      </trkpt>
      <trkpt lat="41.182257" lon="-6.745998">
        <ele>670.770</ele>
        <time>2015-03-30T11:45:47Z</time>
      </trkpt>
      <trkpt lat="41.182136" lon="-6.745908">
        <ele>670.795</ele>
        <time>2015-03-30T11:45:52Z</time>
      </trkpt>
      <trkpt lat="41.181872" lon="-6.745772">
        <ele>671.159</ele>
        <time>2015-03-30T11:46:03Z</time>
      </trkpt>
      <trkpt lat="41.181521" lon="-6.745488">
        <ele>671.149</ele>
        <time>2015-03-30T11:46:16Z</time>
      </trkpt>
      <trkpt lat="41.181291" lon="-6.745207">
        <ele>672.662</ele>
        <time>2015-03-30T11:46:27Z</time>
      </trkpt>
      <trkpt lat="41.181063" lon="-6.744881">
        <ele>674.077</ele>
        <time>2015-03-30T11:46:40Z</time>
      </trkpt>
      <trkpt lat="41.180876" lon="-6.744648">
        <ele>675.042</ele>
        <time>2015-03-30T11:46:50Z</time>
      </trkpt>
      <trkpt lat="41.180681" lon="-6.744440">
        <ele>676.422</ele>
        <time>2015-03-30T11:47:00Z</time>
      </trkpt>
      <trkpt lat="41.180500" lon="-6.744235">
        <ele>677.914</ele>
        <time>2015-03-30T11:47:10Z</time>
      </trkpt>
      <trkpt lat="41.180352" lon="-6.743997">
        <ele>679.307</ele>
        <time>2015-03-30T11:47:21Z</time>
      </trkpt>
      <trkpt lat="41.180289" lon="-6.743688">
        <ele>680.833</ele>
        <time>2015-03-30T11:47:33Z</time>
      </trkpt>
      <trkpt lat="41.180228" lon="-6.743351">
        <ele>682.238</ele>
        <time>2015-03-30T11:47:46Z</time>
      </trkpt>
      <trkpt lat="41.180095" lon="-6.743181">
        <ele>684.143</ele>
        <time>2015-03-30T11:47:56Z</time>
      </trkpt>
      <trkpt lat="41.179966" lon="-6.743079">
        <ele>686.017</ele>
        <time>2015-03-30T11:48:05Z</time>
      </trkpt>
      <trkpt lat="41.179848" lon="-6.742899">
        <ele>688.097</ele>
        <time>2015-03-30T11:48:17Z</time>
      </trkpt>
      <trkpt lat="41.179775" lon="-6.742655">
        <ele>689.960</ele>
        <time>2015-03-30T11:48:28Z</time>
      </trkpt>
      <trkpt lat="41.179787" lon="-6.742389">
        <ele>690.425</ele>
        <time>2015-03-30T11:48:37Z</time>
      </trkpt>
      <trkpt lat="41.179808" lon="-6.741938">
        <ele>691.898</ele>
        <time>2015-03-30T11:48:51Z</time>
      </trkpt>
      <trkpt lat="41.179753" lon="-6.741584">
        <ele>693.315</ele>
        <time>2015-03-30T11:49:02Z</time>
      </trkpt>
      <trkpt lat="41.179777" lon="-6.741249">
        <ele>693.326</ele>
        <time>2015-03-30T11:49:12Z</time>
      </trkpt>
      <trkpt lat="41.179770" lon="-6.741044">
        <ele>693.707</ele>
        <time>2015-03-30T11:49:19Z</time>
      </trkpt>
      <trkpt lat="41.179493" lon="-6.740717">
        <ele>693.378</ele>
        <time>2015-03-30T11:49:31Z</time>
      </trkpt>
      <trkpt lat="41.179327" lon="-6.740563">
        <ele>692.333</ele>
        <time>2015-03-30T11:49:37Z</time>
      </trkpt>
      <trkpt lat="41.179192" lon="-6.740421">
        <ele>692.398</ele>
        <time>2015-03-30T11:49:41Z</time>
      </trkpt>
      <trkpt lat="41.178856" lon="-6.740035">
        <ele>692.882</ele>
        <time>2015-03-30T11:49:52Z</time>
      </trkpt>
      <trkpt lat="41.178652" lon="-6.739849">
        <ele>693.342</ele>
        <time>2015-03-30T11:49:59Z</time>
      </trkpt>
      <trkpt lat="41.178582" lon="-6.739776">
        <ele>693.395</ele>
        <time>2015-03-30T11:50:01Z</time>
      </trkpt>
      <trkpt lat="41.178544" lon="-6.739747">
        <ele>692.810</ele>
        <time>2015-03-30T11:50:02Z</time>
      </trkpt>
      <trkpt lat="41.178015" lon="-6.739326">
        <ele>691.362</ele>
        <time>2015-03-30T11:50:14Z</time>
      </trkpt>
      <trkpt lat="41.177836" lon="-6.739165">
        <ele>690.883</ele>
        <time>2015-03-30T11:50:18Z</time>
      </trkpt>
      <trkpt lat="41.177789" lon="-6.739132">
        <ele>690.811</ele>
        <time>2015-03-30T11:50:19Z</time>
      </trkpt>
      <trkpt lat="41.177743" lon="-6.739097">
        <ele>690.807</ele>
        <time>2015-03-30T11:50:20Z</time>
      </trkpt>
      <trkpt lat="41.177649" lon="-6.739011">
        <ele>690.495</ele>
        <time>2015-03-30T11:50:22Z</time>
      </trkpt>
      <trkpt lat="41.177503" lon="-6.738892">
        <ele>690.430</ele>
        <time>2015-03-30T11:50:25Z</time>
      </trkpt>
      <trkpt lat="41.176960" lon="-6.738394">
        <ele>687.065</ele>
        <time>2015-03-30T11:50:35Z</time>
      </trkpt>
      <trkpt lat="41.176470" lon="-6.738023">
        <ele>685.639</ele>
        <time>2015-03-30T11:50:43Z</time>
      </trkpt>
      <trkpt lat="41.176404" lon="-6.738005">
        <ele>685.199</ele>
        <time>2015-03-30T11:50:44Z</time>
      </trkpt>
      <trkpt lat="41.176044" lon="-6.737905">
        <ele>686.572</ele>
        <time>2015-03-30T11:50:51Z</time>
      </trkpt>
      <trkpt lat="41.176002" lon="-6.737884">
        <ele>687.037</ele>
        <time>2015-03-30T11:50:52Z</time>
      </trkpt>
      <trkpt lat="41.175605" lon="-6.737584">
        <ele>686.061</ele>
        <time>2015-03-30T11:51:01Z</time>
      </trkpt>
      <trkpt lat="41.175245" lon="-6.737223">
        <ele>684.621</ele>
        <time>2015-03-30T11:51:10Z</time>
      </trkpt>
      <trkpt lat="41.175043" lon="-6.736942">
        <ele>682.713</ele>
        <time>2015-03-30T11:51:16Z</time>
      </trkpt>
      <trkpt lat="41.175016" lon="-6.736888">
        <ele>682.707</ele>
        <time>2015-03-30T11:51:17Z</time>
      </trkpt>
      <trkpt lat="41.174864" lon="-6.736593">
        <ele>679.325</ele>
        <time>2015-03-30T11:51:22Z</time>
      </trkpt>
      <trkpt lat="41.174713" lon="-6.736349">
        <ele>675.980</ele>
        <time>2015-03-30T11:51:26Z</time>
      </trkpt>
      <trkpt lat="41.174589" lon="-6.736146">
        <ele>673.135</ele>
        <time>2015-03-30T11:51:29Z</time>
      </trkpt>
      <trkpt lat="41.174390" lon="-6.735843">
        <ele>670.219</ele>
        <time>2015-03-30T11:51:33Z</time>
      </trkpt>
      <trkpt lat="41.174095" lon="-6.735440">
        <ele>666.889</ele>
        <time>2015-03-30T11:51:39Z</time>
      </trkpt>
      <trkpt lat="41.173972" lon="-6.735281">
        <ele>663.592</ele>
        <time>2015-03-30T11:51:41Z</time>
      </trkpt>
      <trkpt lat="41.173753" lon="-6.734987">
        <ele>658.677</ele>
        <time>2015-03-30T11:51:44Z</time>
      </trkpt>
      <trkpt lat="41.173615" lon="-6.734742">
        <ele>655.863</ele>
        <time>2015-03-30T11:51:46Z</time>
      </trkpt>
      <trkpt lat="41.173567" lon="-6.734604">
        <ele>653.844</ele>
        <time>2015-03-30T11:51:47Z</time>
      </trkpt>
      <trkpt lat="41.173535" lon="-6.734459">
        <ele>652.918</ele>
        <time>2015-03-30T11:51:48Z</time>
      </trkpt>
      <trkpt lat="41.173509" lon="-6.734326">
        <ele>653.407</ele>
        <time>2015-03-30T11:51:49Z</time>
      </trkpt>
      <trkpt lat="41.173408" lon="-6.733962">
        <ele>653.825</ele>
        <time>2015-03-30T11:51:53Z</time>
      </trkpt>
      <trkpt lat="41.173374" lon="-6.733912">
        <ele>653.880</ele>
        <time>2015-03-30T11:51:54Z</time>
      </trkpt>
      <trkpt lat="41.173339" lon="-6.733875">
        <ele>652.435</ele>
        <time>2015-03-30T11:51:55Z</time>
      </trkpt>
      <trkpt lat="41.173305" lon="-6.733847">
        <ele>654.399</ele>
        <time>2015-03-30T11:51:56Z</time>
      </trkpt>
      <trkpt lat="41.173283" lon="-6.733824">
        <ele>653.829</ele>
        <time>2015-03-30T11:51:57Z</time>
      </trkpt>
      <trkpt lat="41.173281" lon="-6.733806">
        <ele>653.862</ele>
        <time>2015-03-30T11:52:00Z</time>
      </trkpt>
      <trkpt lat="41.173301" lon="-6.733826">
        <ele>653.837</ele>
        <time>2015-03-30T11:52:02Z</time>
      </trkpt>
      <trkpt lat="41.173314" lon="-6.733835">
        <ele>653.468</ele>
        <time>2015-03-30T11:52:03Z</time>
      </trkpt>
      <trkpt lat="41.173368" lon="-6.733845">
        <ele>653.442</ele>
        <time>2015-03-30T11:52:07Z</time>
      </trkpt>
      <trkpt lat="41.173386" lon="-6.733839">
        <ele>653.826</ele>
        <time>2015-03-30T11:52:08Z</time>
      </trkpt>
      <trkpt lat="41.173407" lon="-6.733834">
        <ele>653.807</ele>
        <time>2015-03-30T11:52:09Z</time>
      </trkpt>
      <trkpt lat="41.173429" lon="-6.733826">
        <ele>654.345</ele>
        <time>2015-03-30T11:52:10Z</time>
      </trkpt>
      <trkpt lat="41.173454" lon="-6.733812">
        <ele>653.440</ele>
        <time>2015-03-30T11:52:11Z</time>
      </trkpt>
      <trkpt lat="41.173482" lon="-6.733782">
        <ele>653.495</ele>
        <time>2015-03-30T11:52:12Z</time>
      </trkpt>
      <trkpt lat="41.173514" lon="-6.733739">
        <ele>652.419</ele>
        <time>2015-03-30T11:52:13Z</time>
      </trkpt>
      <trkpt lat="41.173714" lon="-6.733430">
        <ele>649.579</ele>
        <time>2015-03-30T11:52:18Z</time>
      </trkpt>
      <trkpt lat="41.173854" lon="-6.733256">
        <ele>648.672</ele>
        <time>2015-03-30T11:52:21Z</time>
      </trkpt>
      <trkpt lat="41.173909" lon="-6.733224">
        <ele>648.117</ele>
        <time>2015-03-30T11:52:22Z</time>
      </trkpt>
      <trkpt lat="41.173968" lon="-6.733206">
        <ele>647.696</ele>
        <time>2015-03-30T11:52:23Z</time>
      </trkpt>
      <trkpt lat="41.174027" lon="-6.733206">
        <ele>647.631</ele>
        <time>2015-03-30T11:52:24Z</time>
      </trkpt>
      <trkpt lat="41.174083" lon="-6.733212">
        <ele>647.124</ele>
        <time>2015-03-30T11:52:25Z</time>
      </trkpt>
      <trkpt lat="41.174136" lon="-6.733209">
        <ele>647.107</ele>
        <time>2015-03-30T11:52:26Z</time>
      </trkpt>
      <trkpt lat="41.174187" lon="-6.733193">
        <ele>647.158</ele>
        <time>2015-03-30T11:52:27Z</time>
      </trkpt>
      <trkpt lat="41.174232" lon="-6.733170">
        <ele>647.153</ele>
        <time>2015-03-30T11:52:28Z</time>
      </trkpt>
      <trkpt lat="41.174578" lon="-6.732887">
        <ele>646.638</ele>
        <time>2015-03-30T11:52:39Z</time>
      </trkpt>
      <trkpt lat="41.174907" lon="-6.732583">
        <ele>645.742</ele>
        <time>2015-03-30T11:52:50Z</time>
      </trkpt>
      <trkpt lat="41.175008" lon="-6.732505">
        <ele>646.192</ele>
        <time>2015-03-30T11:52:54Z</time>
      </trkpt>
      <trkpt lat="41.175214" lon="-6.732318">
        <ele>648.175</ele>
        <time>2015-03-30T11:53:05Z</time>
      </trkpt>
      <trkpt lat="41.175299" lon="-6.732180">
        <ele>649.550</ele>
        <time>2015-03-30T11:53:12Z</time>
      </trkpt>
      <trkpt lat="41.175309" lon="-6.732161">
        <ele>649.535</ele>
        <time>2015-03-30T11:53:13Z</time>
      </trkpt>
      <trkpt lat="41.175320" lon="-6.732145">
        <ele>650.086</ele>
        <time>2015-03-30T11:53:14Z</time>
      </trkpt>
      <trkpt lat="41.175332" lon="-6.732131">
        <ele>650.014</ele>
        <time>2015-03-30T11:53:15Z</time>
      </trkpt>
      <trkpt lat="41.175345" lon="-6.732120">
        <ele>650.007</ele>
        <time>2015-03-30T11:53:16Z</time>
      </trkpt>
      <trkpt lat="41.175359" lon="-6.732103">
        <ele>650.572</ele>
        <time>2015-03-30T11:53:17Z</time>
      </trkpt>
      <trkpt lat="41.175370" lon="-6.732090">
        <ele>650.547</ele>
        <time>2015-03-30T11:53:18Z</time>
      </trkpt>
      <trkpt lat="41.175384" lon="-6.732079">
        <ele>651.082</ele>
        <time>2015-03-30T11:53:19Z</time>
      </trkpt>
      <trkpt lat="41.175401" lon="-6.732068">
        <ele>651.096</ele>
        <time>2015-03-30T11:53:20Z</time>
      </trkpt>
      <trkpt lat="41.175414" lon="-6.732055">
        <ele>651.016</ele>
        <time>2015-03-30T11:53:21Z</time>
      </trkpt>
      <trkpt lat="41.175424" lon="-6.732035">
        <ele>651.429</ele>
        <time>2015-03-30T11:53:22Z</time>
      </trkpt>
      <trkpt lat="41.175436" lon="-6.732017">
        <ele>651.414</ele>
        <time>2015-03-30T11:53:23Z</time>
      </trkpt>
      <trkpt lat="41.175446" lon="-6.732005">
        <ele>651.466</ele>
        <time>2015-03-30T11:53:24Z</time>
      </trkpt>
      <trkpt lat="41.175457" lon="-6.731991">
        <ele>651.929</ele>
        <time>2015-03-30T11:53:25Z</time>
      </trkpt>
      <trkpt lat="41.175469" lon="-6.731973">
        <ele>651.921</ele>
        <time>2015-03-30T11:53:26Z</time>
      </trkpt>
      <trkpt lat="41.175483" lon="-6.731957">
        <ele>651.907</ele>
        <time>2015-03-30T11:53:27Z</time>
      </trkpt>
      <trkpt lat="41.175495" lon="-6.731942">
        <ele>652.445</ele>
        <time>2015-03-30T11:53:28Z</time>
      </trkpt>
      <trkpt lat="41.175509" lon="-6.731925">
        <ele>652.440</ele>
        <time>2015-03-30T11:53:29Z</time>
      </trkpt>
      <trkpt lat="41.175529" lon="-6.731889">
        <ele>652.465</ele>
        <time>2015-03-30T11:53:31Z</time>
      </trkpt>
      <trkpt lat="41.175535" lon="-6.731873">
        <ele>652.499</ele>
        <time>2015-03-30T11:53:32Z</time>
      </trkpt>
      <trkpt lat="41.175590" lon="-6.731638">
        <ele>653.499</ele>
        <time>2015-03-30T11:53:43Z</time>
      </trkpt>
      <trkpt lat="41.175581" lon="-6.731620">
        <ele>653.842</ele>
        <time>2015-03-30T11:53:44Z</time>
      </trkpt>
      <trkpt lat="41.175573" lon="-6.731601">
        <ele>653.887</ele>
        <time>2015-03-30T11:53:45Z</time>
      </trkpt>
      <trkpt lat="41.175567" lon="-6.731581">
        <ele>653.826</ele>
        <time>2015-03-30T11:53:46Z</time>
      </trkpt>
      <trkpt lat="41.175563" lon="-6.731559">
        <ele>653.847</ele>
        <time>2015-03-30T11:53:47Z</time>
      </trkpt>
      <trkpt lat="41.175493" lon="-6.731430">
        <ele>654.811</ele>
        <time>2015-03-30T11:53:55Z</time>
      </trkpt>
      <trkpt lat="41.175385" lon="-6.731377">
        <ele>656.207</ele>
        <time>2015-03-30T11:54:03Z</time>
      </trkpt>
      <trkpt lat="41.175373" lon="-6.731369">
        <ele>656.281</ele>
        <time>2015-03-30T11:54:04Z</time>
      </trkpt>
      <trkpt lat="41.175362" lon="-6.731360">
        <ele>656.286</ele>
        <time>2015-03-30T11:54:05Z</time>
      </trkpt>
      <trkpt lat="41.175357" lon="-6.731348">
        <ele>656.241</ele>
        <time>2015-03-30T11:54:06Z</time>
      </trkpt>
      <trkpt lat="41.175362" lon="-6.731271">
        <ele>657.775</ele>
        <time>2015-03-30T11:54:16Z</time>
      </trkpt>
      <trkpt lat="41.175397" lon="-6.731275">
        <ele>658.225</ele>
        <time>2015-03-30T11:54:20Z</time>
      </trkpt>
      <trkpt lat="41.175467" lon="-6.731214">
        <ele>658.668</ele>
        <time>2015-03-30T11:54:28Z</time>
      </trkpt>
      <trkpt lat="41.175504" lon="-6.731188">
        <ele>659.113</ele>
        <time>2015-03-30T11:54:35Z</time>
      </trkpt>
      <trkpt lat="41.175541" lon="-6.731083">
        <ele>660.159</ele>
        <time>2015-03-30T11:54:42Z</time>
      </trkpt>
      <trkpt lat="41.175598" lon="-6.730993">
        <ele>661.003</ele>
        <time>2015-03-30T11:54:49Z</time>
      </trkpt>
      <trkpt lat="41.175609" lon="-6.730981">
        <ele>661.023</ele>
        <time>2015-03-30T11:54:50Z</time>
      </trkpt>
      <trkpt lat="41.175620" lon="-6.730965">
        <ele>661.507</ele>
        <time>2015-03-30T11:54:51Z</time>
      </trkpt>
      <trkpt lat="41.175632" lon="-6.730949">
        <ele>661.564</ele>
        <time>2015-03-30T11:54:52Z</time>
      </trkpt>
      <trkpt lat="41.175644" lon="-6.730938">
        <ele>661.539</ele>
        <time>2015-03-30T11:54:53Z</time>
      </trkpt>
      <trkpt lat="41.175652" lon="-6.730927">
        <ele>661.534</ele>
        <time>2015-03-30T11:54:54Z</time>
      </trkpt>
      <trkpt lat="41.175753" lon="-6.730780">
        <ele>662.538</ele>
        <time>2015-03-30T11:55:05Z</time>
      </trkpt>
      <trkpt lat="41.175812" lon="-6.730652">
        <ele>663.518</ele>
        <time>2015-03-30T11:55:13Z</time>
      </trkpt>
      <trkpt lat="41.175821" lon="-6.730633">
        <ele>663.591</ele>
        <time>2015-03-30T11:55:14Z</time>
      </trkpt>
      <trkpt lat="41.175827" lon="-6.730616">
        <ele>663.586</ele>
        <time>2015-03-30T11:55:15Z</time>
      </trkpt>
      <trkpt lat="41.175834" lon="-6.730599">
        <ele>663.533</ele>
        <time>2015-03-30T11:55:16Z</time>
      </trkpt>
      <trkpt lat="41.175840" lon="-6.730580">
        <ele>663.523</ele>
        <time>2015-03-30T11:55:17Z</time>
      </trkpt>
      <trkpt lat="41.175942" lon="-6.730370">
        <ele>664.915</ele>
        <time>2015-03-30T11:55:29Z</time>
      </trkpt>
      <trkpt lat="41.176060" lon="-6.730270">
        <ele>665.907</ele>
        <time>2015-03-30T11:55:39Z</time>
      </trkpt>
      <trkpt lat="41.176085" lon="-6.730258">
        <ele>665.922</ele>
        <time>2015-03-30T11:55:41Z</time>
      </trkpt>
      <trkpt lat="41.176098" lon="-6.730251">
        <ele>665.947</ele>
        <time>2015-03-30T11:55:42Z</time>
      </trkpt>
      <trkpt lat="41.176110" lon="-6.730246">
        <ele>665.952</ele>
        <time>2015-03-30T11:55:43Z</time>
      </trkpt>
      <trkpt lat="41.176124" lon="-6.730237">
        <ele>665.966</ele>
        <time>2015-03-30T11:55:44Z</time>
      </trkpt>
      <trkpt lat="41.176138" lon="-6.730226">
        <ele>665.466</ele>
        <time>2015-03-30T11:55:45Z</time>
      </trkpt>
      <trkpt lat="41.176150" lon="-6.730223">
        <ele>666.359</ele>
        <time>2015-03-30T11:55:46Z</time>
      </trkpt>
      <trkpt lat="41.176163" lon="-6.730220">
        <ele>666.344</ele>
        <time>2015-03-30T11:55:47Z</time>
      </trkpt>
      <trkpt lat="41.176177" lon="-6.730216">
        <ele>666.369</ele>
        <time>2015-03-30T11:55:48Z</time>
      </trkpt>
      <trkpt lat="41.176348" lon="-6.730238">
        <ele>666.304</ele>
        <time>2015-03-30T11:55:59Z</time>
      </trkpt>
      <trkpt lat="41.176508" lon="-6.730255">
        <ele>666.824</ele>
        <time>2015-03-30T11:56:09Z</time>
      </trkpt>
      <trkpt lat="41.176685" lon="-6.730283">
        <ele>667.807</ele>
        <time>2015-03-30T11:56:21Z</time>
      </trkpt>
      <trkpt lat="41.176893" lon="-6.730325">
        <ele>669.245</ele>
        <time>2015-03-30T11:56:35Z</time>
      </trkpt>
      <trkpt lat="41.177044" lon="-6.730349">
        <ele>670.740</ele>
        <time>2015-03-30T11:56:45Z</time>
      </trkpt>
      <trkpt lat="41.177202" lon="-6.730399">
        <ele>672.675</ele>
        <time>2015-03-30T11:56:56Z</time>
      </trkpt>
      <trkpt lat="41.177273" lon="-6.730413">
        <ele>673.199</ele>
        <time>2015-03-30T11:57:01Z</time>
      </trkpt>
      <trkpt lat="41.177343" lon="-6.730422">
        <ele>673.559</ele>
        <time>2015-03-30T11:57:06Z</time>
      </trkpt>
      <trkpt lat="41.177371" lon="-6.730425">
        <ele>674.052</ele>
        <time>2015-03-30T11:57:08Z</time>
      </trkpt>
      <trkpt lat="41.177441" lon="-6.730444">
        <ele>674.567</ele>
        <time>2015-03-30T11:57:15Z</time>
      </trkpt>
      <trkpt lat="41.177533" lon="-6.730468">
        <ele>675.516</ele>
        <time>2015-03-30T11:57:22Z</time>
      </trkpt>
      <trkpt lat="41.177734" lon="-6.730513">
        <ele>676.976</ele>
        <time>2015-03-30T11:57:36Z</time>
      </trkpt>
      <trkpt lat="41.177911" lon="-6.730540">
        <ele>678.413</ele>
        <time>2015-03-30T11:57:48Z</time>
      </trkpt>
      <trkpt lat="41.178054" lon="-6.730578">
        <ele>679.307</ele>
        <time>2015-03-30T11:57:58Z</time>
      </trkpt>
      <trkpt lat="41.178052" lon="-6.730392">
        <ele>678.820</ele>
        <time>2015-03-30T11:58:07Z</time>
      </trkpt>
      <trkpt lat="41.177967" lon="-6.730124">
        <ele>679.395</ele>
        <time>2015-03-30T11:58:19Z</time>
      </trkpt>
      <trkpt lat="41.177916" lon="-6.729938">
        <ele>679.320</ele>
        <time>2015-03-30T11:58:27Z</time>
      </trkpt>
      <trkpt lat="41.177925" lon="-6.729750">
        <ele>679.314</ele>
        <time>2015-03-30T11:58:36Z</time>
      </trkpt>
      <trkpt lat="41.177931" lon="-6.729727">
        <ele>679.394</ele>
        <time>2015-03-30T11:58:37Z</time>
      </trkpt>
      <trkpt lat="41.178145" lon="-6.729470">
        <ele>676.437</ele>
        <time>2015-03-30T11:58:47Z</time>
      </trkpt>
      <trkpt lat="41.178377" lon="-6.729275">
        <ele>674.562</ele>
        <time>2015-03-30T11:58:53Z</time>
      </trkpt>
      <trkpt lat="41.178669" lon="-6.729008">
        <ele>672.651</ele>
        <time>2015-03-30T11:59:02Z</time>
      </trkpt>
      <trkpt lat="41.178850" lon="-6.728854">
        <ele>671.101</ele>
        <time>2015-03-30T11:59:10Z</time>
      </trkpt>
      <trkpt lat="41.178965" lon="-6.728678">
        <ele>670.211</ele>
        <time>2015-03-30T11:59:18Z</time>
      </trkpt>
      <trkpt lat="41.178979" lon="-6.728689">
        <ele>669.707</ele>
        <time>2015-03-30T11:59:31Z</time>
      </trkpt>
      <trkpt lat="41.178968" lon="-6.728696">
        <ele>670.214</ele>
        <time>2015-03-30T11:59:51Z</time>
      </trkpt>
      <trkpt lat="41.178962" lon="-6.728700">
        <ele>670.279</ele>
        <time>2015-03-30T12:00:10Z</time>
      </trkpt>
      <trkpt lat="41.178958" lon="-6.728688">
        <ele>670.244</ele>
        <time>2015-03-30T12:00:34Z</time>
      </trkpt>
      <trkpt lat="41.178978" lon="-6.728649">
        <ele>669.798</ele>
        <time>2015-03-30T12:00:41Z</time>
      </trkpt>
      <trkpt lat="41.179122" lon="-6.728414">
        <ele>668.728</ele>
        <time>2015-03-30T12:00:52Z</time>
      </trkpt>
      <trkpt lat="41.179251" lon="-6.728265">
        <ele>668.381</ele>
        <time>2015-03-30T12:01:00Z</time>
      </trkpt>
      <trkpt lat="41.179441" lon="-6.728243">
        <ele>667.866</ele>
        <time>2015-03-30T12:01:09Z</time>
      </trkpt>
      <trkpt lat="41.179572" lon="-6.728057">
        <ele>667.316</ele>
        <time>2015-03-30T12:01:18Z</time>
      </trkpt>
      <trkpt lat="41.179729" lon="-6.727715">
        <ele>666.876</ele>
        <time>2015-03-30T12:01:30Z</time>
      </trkpt>
      <trkpt lat="41.179779" lon="-6.727660">
        <ele>666.813</ele>
        <time>2015-03-30T12:01:33Z</time>
      </trkpt>
      <trkpt lat="41.179863" lon="-6.727617">
        <ele>668.307</ele>
        <time>2015-03-30T12:01:38Z</time>
      </trkpt>
      <trkpt lat="41.179977" lon="-6.727620">
        <ele>666.880</ele>
        <time>2015-03-30T12:01:44Z</time>
      </trkpt>
      <trkpt lat="41.180129" lon="-6.727753">
        <ele>667.375</ele>
        <time>2015-03-30T12:01:54Z</time>
      </trkpt>
      <trkpt lat="41.180296" lon="-6.727981">
        <ele>668.350</ele>
        <time>2015-03-30T12:02:07Z</time>
      </trkpt>
      <trkpt lat="41.180405" lon="-6.728037">
        <ele>669.244</ele>
        <time>2015-03-30T12:02:14Z</time>
      </trkpt>
      <trkpt lat="41.180465" lon="-6.727968">
        <ele>668.764</ele>
        <time>2015-03-30T12:02:19Z</time>
      </trkpt>
      <trkpt lat="41.180619" lon="-6.727770">
        <ele>670.797</ele>
        <time>2015-03-30T12:02:31Z</time>
      </trkpt>
      <trkpt lat="41.180713" lon="-6.727587">
        <ele>672.672</ele>
        <time>2015-03-30T12:02:42Z</time>
      </trkpt>
      <trkpt lat="41.180728" lon="-6.727396">
        <ele>673.562</ele>
        <time>2015-03-30T12:02:51Z</time>
      </trkpt>
      <trkpt lat="41.180783" lon="-6.727188">
        <ele>674.583</ele>
        <time>2015-03-30T12:03:01Z</time>
      </trkpt>
      <trkpt lat="41.180792" lon="-6.727150">
        <ele>674.511</ele>
        <time>2015-03-30T12:03:03Z</time>
      </trkpt>
      <trkpt lat="41.180828" lon="-6.727092">
        <ele>675.507</ele>
        <time>2015-03-30T12:03:07Z</time>
      </trkpt>
      <trkpt lat="41.180935" lon="-6.726840">
        <ele>674.575</ele>
        <time>2015-03-30T12:03:18Z</time>
      </trkpt>
      <trkpt lat="41.180940" lon="-6.726506">
        <ele>673.520</ele>
        <time>2015-03-30T12:03:26Z</time>
      </trkpt>
      <trkpt lat="41.180866" lon="-6.726405">
        <ele>668.765</ele>
        <time>2015-03-30T12:03:29Z</time>
      </trkpt>
      <trkpt lat="41.180841" lon="-6.726374">
        <ele>677.489</ele>
        <time>2015-03-30T12:03:30Z</time>
      </trkpt>
      <trkpt lat="41.180819" lon="-6.726342">
        <ele>673.139</ele>
        <time>2015-03-30T12:03:31Z</time>
      </trkpt>
      <trkpt lat="41.180764" lon="-6.725992">
        <ele>672.632</ele>
        <time>2015-03-30T12:03:40Z</time>
      </trkpt>
      <trkpt lat="41.180826" lon="-6.725594">
        <ele>672.667</ele>
        <time>2015-03-30T12:03:49Z</time>
      </trkpt>
      <trkpt lat="41.180856" lon="-6.725545">
        <ele>672.675</ele>
        <time>2015-03-30T12:03:50Z</time>
      </trkpt>
      <trkpt lat="41.180894" lon="-6.725503">
        <ele>672.128</ele>
        <time>2015-03-30T12:03:51Z</time>
      </trkpt>
      <trkpt lat="41.181033" lon="-6.725386">
        <ele>671.120</ele>
        <time>2015-03-30T12:03:54Z</time>
      </trkpt>
      <trkpt lat="41.181346" lon="-6.725111">
        <ele>669.707</ele>
        <time>2015-03-30T12:04:01Z</time>
      </trkpt>
      <trkpt lat="41.181787" lon="-6.724724">
        <ele>667.886</ele>
        <time>2015-03-30T12:04:11Z</time>
      </trkpt>
      <trkpt lat="41.182158" lon="-6.724234">
        <ele>664.411</ele>
        <time>2015-03-30T12:04:20Z</time>
      </trkpt>
      <trkpt lat="41.182233" lon="-6.724146">
        <ele>663.946</ele>
        <time>2015-03-30T12:04:22Z</time>
      </trkpt>
      <trkpt lat="41.182301" lon="-6.724045">
        <ele>653.820</ele>
        <time>2015-03-30T12:04:26Z</time>
      </trkpt>
      <trkpt lat="41.182303" lon="-6.724037">
        <ele>667.870</ele>
        <time>2015-03-30T12:04:27Z</time>
      </trkpt>
      <trkpt lat="41.182310" lon="-6.724024">
        <ele>662.513</ele>
        <time>2015-03-30T12:04:28Z</time>
      </trkpt>
      <trkpt lat="41.182322" lon="-6.724011">
        <ele>662.528</ele>
        <time>2015-03-30T12:04:29Z</time>
      </trkpt>
      <trkpt lat="41.182338" lon="-6.724005">
        <ele>662.047</ele>
        <time>2015-03-30T12:04:30Z</time>
      </trkpt>
      <trkpt lat="41.182357" lon="-6.724011">
        <ele>662.029</ele>
        <time>2015-03-30T12:04:31Z</time>
      </trkpt>
      <trkpt lat="41.182371" lon="-6.724027">
        <ele>662.021</ele>
        <time>2015-03-30T12:04:32Z</time>
      </trkpt>
      <trkpt lat="41.182379" lon="-6.724049">
        <ele>662.007</ele>
        <time>2015-03-30T12:04:33Z</time>
      </trkpt>
      <trkpt lat="41.182381" lon="-6.724070">
        <ele>661.543</ele>
        <time>2015-03-30T12:04:34Z</time>
      </trkpt>
      <trkpt lat="41.182390" lon="-6.724086">
        <ele>662.038</ele>
        <time>2015-03-30T12:04:35Z</time>
      </trkpt>
      <trkpt lat="41.182402" lon="-6.724100">
        <ele>659.663</ele>
        <time>2015-03-30T12:04:36Z</time>
      </trkpt>
      <trkpt lat="41.182417" lon="-6.724122">
        <ele>663.537</ele>
        <time>2015-03-30T12:04:37Z</time>
      </trkpt>
      <trkpt lat="41.182440" lon="-6.724149">
        <ele>661.517</ele>
        <time>2015-03-30T12:04:38Z</time>
      </trkpt>
      <trkpt lat="41.182523" lon="-6.724253">
        <ele>660.170</ele>
        <time>2015-03-30T12:04:41Z</time>
      </trkpt>
      <trkpt lat="41.182560" lon="-6.724272">
        <ele>659.625</ele>
        <time>2015-03-30T12:04:42Z</time>
      </trkpt>
      <trkpt lat="41.182602" lon="-6.724273">
        <ele>659.682</ele>
        <time>2015-03-30T12:04:43Z</time>
      </trkpt>
      <trkpt lat="41.182641" lon="-6.724264">
        <ele>659.143</ele>
        <time>2015-03-30T12:04:44Z</time>
      </trkpt>
      <trkpt lat="41.182681" lon="-6.724249">
        <ele>659.117</ele>
        <time>2015-03-30T12:04:45Z</time>
      </trkpt>
      <trkpt lat="41.182718" lon="-6.724236">
        <ele>659.107</ele>
        <time>2015-03-30T12:04:46Z</time>
      </trkpt>
      <trkpt lat="41.182750" lon="-6.724227">
        <ele>659.137</ele>
        <time>2015-03-30T12:04:47Z</time>
      </trkpt>
      <trkpt lat="41.182989" lon="-6.724135">
        <ele>659.112</ele>
        <time>2015-03-30T12:04:55Z</time>
      </trkpt>
      <trkpt lat="41.183172" lon="-6.724053">
        <ele>658.697</ele>
        <time>2015-03-30T12:05:03Z</time>
      </trkpt>
      <trkpt lat="41.183398" lon="-6.723972">
        <ele>658.671</ele>
        <time>2015-03-30T12:05:12Z</time>
      </trkpt>
      <trkpt lat="41.183561" lon="-6.723911">
        <ele>659.191</ele>
        <time>2015-03-30T12:05:20Z</time>
      </trkpt>
      <trkpt lat="41.183753" lon="-6.723883">
        <ele>659.634</ele>
        <time>2015-03-30T12:05:29Z</time>
      </trkpt>
      <trkpt lat="41.184007" lon="-6.723842">
        <ele>659.679</ele>
        <time>2015-03-30T12:05:39Z</time>
      </trkpt>
      <trkpt lat="41.184275" lon="-6.723827">
        <ele>660.123</ele>
        <time>2015-03-30T12:05:50Z</time>
      </trkpt>
      <trkpt lat="41.184461" lon="-6.723785">
        <ele>661.583</ele>
        <time>2015-03-30T12:05:59Z</time>
      </trkpt>
      <trkpt lat="41.184479" lon="-6.723777">
        <ele>661.511</ele>
        <time>2015-03-30T12:06:00Z</time>
      </trkpt>
      <trkpt lat="41.184500" lon="-6.723761">
        <ele>661.507</ele>
        <time>2015-03-30T12:06:01Z</time>
      </trkpt>
      <trkpt lat="41.184523" lon="-6.723742">
        <ele>661.551</ele>
        <time>2015-03-30T12:06:02Z</time>
      </trkpt>
      <trkpt lat="41.184548" lon="-6.723725">
        <ele>661.536</ele>
        <time>2015-03-30T12:06:03Z</time>
      </trkpt>
      <trkpt lat="41.184751" lon="-6.723653">
        <ele>662.061</ele>
        <time>2015-03-30T12:06:12Z</time>
      </trkpt>
      <trkpt lat="41.184962" lon="-6.723673">
        <ele>663.545</ele>
        <time>2015-03-30T12:06:22Z</time>
      </trkpt>
      <trkpt lat="41.184981" lon="-6.723670">
        <ele>663.545</ele>
        <time>2015-03-30T12:06:23Z</time>
      </trkpt>
      <trkpt lat="41.185001" lon="-6.723662">
        <ele>663.528</ele>
        <time>2015-03-30T12:06:24Z</time>
      </trkpt>
      <trkpt lat="41.185026" lon="-6.723653">
        <ele>663.543</ele>
        <time>2015-03-30T12:06:25Z</time>
      </trkpt>
      <trkpt lat="41.185051" lon="-6.723650">
        <ele>663.594</ele>
        <time>2015-03-30T12:06:26Z</time>
      </trkpt>
      <trkpt lat="41.185077" lon="-6.723652">
        <ele>663.557</ele>
        <time>2015-03-30T12:06:27Z</time>
      </trkpt>
      <trkpt lat="41.185103" lon="-6.723654">
        <ele>663.522</ele>
        <time>2015-03-30T12:06:28Z</time>
      </trkpt>
      <trkpt lat="41.185130" lon="-6.723655">
        <ele>663.507</ele>
        <time>2015-03-30T12:06:29Z</time>
      </trkpt>
      <trkpt lat="41.185157" lon="-6.723649">
        <ele>663.588</ele>
        <time>2015-03-30T12:06:30Z</time>
      </trkpt>
      <trkpt lat="41.185179" lon="-6.723639">
        <ele>663.533</ele>
        <time>2015-03-30T12:06:31Z</time>
      </trkpt>
      <trkpt lat="41.185197" lon="-6.723629">
        <ele>663.518</ele>
        <time>2015-03-30T12:06:32Z</time>
      </trkpt>
      <trkpt lat="41.185216" lon="-6.723618">
        <ele>663.592</ele>
        <time>2015-03-30T12:06:33Z</time>
      </trkpt>
      <trkpt lat="41.185231" lon="-6.723608">
        <ele>663.592</ele>
        <time>2015-03-30T12:06:34Z</time>
      </trkpt>
      <trkpt lat="41.185246" lon="-6.723601">
        <ele>663.555</ele>
        <time>2015-03-30T12:06:35Z</time>
      </trkpt>
      <trkpt lat="41.185262" lon="-6.723596">
        <ele>663.510</ele>
        <time>2015-03-30T12:06:36Z</time>
      </trkpt>
      <trkpt lat="41.185282" lon="-6.723595">
        <ele>663.532</ele>
        <time>2015-03-30T12:06:37Z</time>
      </trkpt>
      <trkpt lat="41.185503" lon="-6.723533">
        <ele>663.992</ele>
        <time>2015-03-30T12:06:47Z</time>
      </trkpt>
      <trkpt lat="41.185708" lon="-6.723473">
        <ele>664.411</ele>
        <time>2015-03-30T12:06:58Z</time>
      </trkpt>
      <trkpt lat="41.185717" lon="-6.723472">
        <ele>664.407</ele>
        <time>2015-03-30T12:07:09Z</time>
      </trkpt>
      <trkpt lat="41.185727" lon="-6.723472">
        <ele>664.482</ele>
        <time>2015-03-30T12:07:31Z</time>
      </trkpt>
      <trkpt lat="41.185739" lon="-6.723472">
        <ele>664.477</ele>
        <time>2015-03-30T12:07:32Z</time>
      </trkpt>
      <trkpt lat="41.185752" lon="-6.723472">
        <ele>664.422</ele>
        <time>2015-03-30T12:07:33Z</time>
      </trkpt>
      <trkpt lat="41.185777" lon="-6.723467">
        <ele>664.986</ele>
        <time>2015-03-30T12:07:35Z</time>
      </trkpt>
      <trkpt lat="41.185789" lon="-6.723462">
        <ele>664.936</ele>
        <time>2015-03-30T12:07:36Z</time>
      </trkpt>
      <trkpt lat="41.185802" lon="-6.723455">
        <ele>664.989</ele>
        <time>2015-03-30T12:07:37Z</time>
      </trkpt>
      <trkpt lat="41.185818" lon="-6.723447">
        <ele>665.914</ele>
        <time>2015-03-30T12:07:38Z</time>
      </trkpt>
      <trkpt lat="41.185835" lon="-6.723441">
        <ele>665.487</ele>
        <time>2015-03-30T12:07:39Z</time>
      </trkpt>
      <trkpt lat="41.185898" lon="-6.723420">
        <ele>665.442</ele>
        <time>2015-03-30T12:07:43Z</time>
      </trkpt>
      <trkpt lat="41.185916" lon="-6.723420">
        <ele>665.426</ele>
        <time>2015-03-30T12:07:44Z</time>
      </trkpt>
      <trkpt lat="41.185933" lon="-6.723418">
        <ele>665.407</ele>
        <time>2015-03-30T12:07:45Z</time>
      </trkpt>
      <trkpt lat="41.185951" lon="-6.723414">
        <ele>665.487</ele>
        <time>2015-03-30T12:07:46Z</time>
      </trkpt>
      <trkpt lat="41.185968" lon="-6.723412">
        <ele>665.412</ele>
        <time>2015-03-30T12:07:47Z</time>
      </trkpt>
      <trkpt lat="41.185985" lon="-6.723410">
        <ele>665.967</ele>
        <time>2015-03-30T12:07:48Z</time>
      </trkpt>
      <trkpt lat="41.186000" lon="-6.723404">
        <ele>665.931</ele>
        <time>2015-03-30T12:07:49Z</time>
      </trkpt>
      <trkpt lat="41.186016" lon="-6.723399">
        <ele>665.971</ele>
        <time>2015-03-30T12:07:50Z</time>
      </trkpt>
      <trkpt lat="41.186033" lon="-6.723396">
        <ele>665.924</ele>
        <time>2015-03-30T12:07:51Z</time>
      </trkpt>
      <trkpt lat="41.186182" lon="-6.723358">
        <ele>666.339</ele>
        <time>2015-03-30T12:08:00Z</time>
      </trkpt>
      <trkpt lat="41.186275" lon="-6.723345">
        <ele>666.325</ele>
        <time>2015-03-30T12:08:08Z</time>
      </trkpt>
      <trkpt lat="41.186417" lon="-6.723310">
        <ele>667.326</ele>
        <time>2015-03-30T12:08:16Z</time>
      </trkpt>
      <trkpt lat="41.186431" lon="-6.723305">
        <ele>667.308</ele>
        <time>2015-03-30T12:08:17Z</time>
      </trkpt>
      <trkpt lat="41.186676" lon="-6.723228">
        <ele>667.807</ele>
        <time>2015-03-30T12:08:29Z</time>
      </trkpt>
      <trkpt lat="41.186985" lon="-6.723126">
        <ele>668.721</ele>
        <time>2015-03-30T12:08:42Z</time>
      </trkpt>
      <trkpt lat="41.187144" lon="-6.723101">
        <ele>669.746</ele>
        <time>2015-03-30T12:08:50Z</time>
      </trkpt>
      <trkpt lat="41.187157" lon="-6.723080">
        <ele>670.241</ele>
        <time>2015-03-30T12:08:51Z</time>
      </trkpt>
      <trkpt lat="41.187167" lon="-6.723048">
        <ele>669.785</ele>
        <time>2015-03-30T12:08:52Z</time>
      </trkpt>
      <trkpt lat="41.187177" lon="-6.723014">
        <ele>669.765</ele>
        <time>2015-03-30T12:08:53Z</time>
      </trkpt>
      <trkpt lat="41.187184" lon="-6.722975">
        <ele>669.228</ele>
        <time>2015-03-30T12:08:54Z</time>
      </trkpt>
      <trkpt lat="41.187186" lon="-6.722934">
        <ele>669.283</ele>
        <time>2015-03-30T12:08:55Z</time>
      </trkpt>
      <trkpt lat="41.187169" lon="-6.722614">
        <ele>668.754</ele>
        <time>2015-03-30T12:09:05Z</time>
      </trkpt>
      <trkpt lat="41.187113" lon="-6.722425">
        <ele>668.756</ele>
        <time>2015-03-30T12:09:14Z</time>
      </trkpt>
      <trkpt lat="41.187104" lon="-6.722385">
        <ele>668.711</ele>
        <time>2015-03-30T12:09:17Z</time>
      </trkpt>
      <trkpt lat="41.187107" lon="-6.722369">
        <ele>668.707</ele>
        <time>2015-03-30T12:09:18Z</time>
      </trkpt>
      <trkpt lat="41.187109" lon="-6.722352">
        <ele>668.754</ele>
        <time>2015-03-30T12:09:19Z</time>
      </trkpt>
      <trkpt lat="41.187109" lon="-6.722331">
        <ele>668.769</ele>
        <time>2015-03-30T12:09:20Z</time>
      </trkpt>
      <trkpt lat="41.187107" lon="-6.722310">
        <ele>668.724</ele>
        <time>2015-03-30T12:09:21Z</time>
      </trkpt>
      <trkpt lat="41.187104" lon="-6.722291">
        <ele>668.728</ele>
        <time>2015-03-30T12:09:22Z</time>
      </trkpt>
      <trkpt lat="41.187063" lon="-6.722076">
        <ele>668.778</ele>
        <time>2015-03-30T12:09:31Z</time>
      </trkpt>
      <trkpt lat="41.187001" lon="-6.721842">
        <ele>670.271</ele>
        <time>2015-03-30T12:09:39Z</time>
      </trkpt>
      <trkpt lat="41.186962" lon="-6.721726">
        <ele>669.236</ele>
        <time>2015-03-30T12:09:43Z</time>
      </trkpt>
      <trkpt lat="41.186966" lon="-6.721693">
        <ele>669.257</ele>
        <time>2015-03-30T12:09:44Z</time>
      </trkpt>
      <trkpt lat="41.186980" lon="-6.721682">
        <ele>669.700</ele>
        <time>2015-03-30T12:09:45Z</time>
      </trkpt>
      <trkpt lat="41.186998" lon="-6.721681">
        <ele>669.720</ele>
        <time>2015-03-30T12:09:46Z</time>
      </trkpt>
      <trkpt lat="41.187017" lon="-6.721683">
        <ele>669.707</ele>
        <time>2015-03-30T12:09:47Z</time>
      </trkpt>
      <trkpt lat="41.187035" lon="-6.721690">
        <ele>669.794</ele>
        <time>2015-03-30T12:09:48Z</time>
      </trkpt>
      <trkpt lat="41.187053" lon="-6.721700">
        <ele>669.799</ele>
        <time>2015-03-30T12:09:49Z</time>
      </trkpt>
      <trkpt lat="41.187072" lon="-6.721712">
        <ele>669.294</ele>
        <time>2015-03-30T12:09:50Z</time>
      </trkpt>
      <trkpt lat="41.187346" lon="-6.721828">
        <ele>669.758</ele>
        <time>2015-03-30T12:10:02Z</time>
      </trkpt>
      <trkpt lat="41.187540" lon="-6.721869">
        <ele>670.738</ele>
        <time>2015-03-30T12:10:10Z</time>
      </trkpt>
      <trkpt lat="41.187559" lon="-6.721872">
        <ele>670.291</ele>
        <time>2015-03-30T12:10:11Z</time>
      </trkpt>
      <trkpt lat="41.187680" lon="-6.721889">
        <ele>670.796</ele>
        <time>2015-03-30T12:10:17Z</time>
      </trkpt>
      <trkpt lat="41.187700" lon="-6.721895">
        <ele>670.783</ele>
        <time>2015-03-30T12:10:18Z</time>
      </trkpt>
      <trkpt lat="41.187722" lon="-6.721898">
        <ele>670.725</ele>
        <time>2015-03-30T12:10:19Z</time>
      </trkpt>
      <trkpt lat="41.187745" lon="-6.721904">
        <ele>670.717</ele>
        <time>2015-03-30T12:10:20Z</time>
      </trkpt>
      <trkpt lat="41.187768" lon="-6.721907">
        <ele>670.707</ele>
        <time>2015-03-30T12:10:21Z</time>
      </trkpt>
      <trkpt lat="41.187792" lon="-6.721908">
        <ele>670.757</ele>
        <time>2015-03-30T12:10:22Z</time>
      </trkpt>
      <trkpt lat="41.187817" lon="-6.721910">
        <ele>671.142</ele>
        <time>2015-03-30T12:10:23Z</time>
      </trkpt>
      <trkpt lat="41.187844" lon="-6.721904">
        <ele>671.157</ele>
        <time>2015-03-30T12:10:24Z</time>
      </trkpt>
      <trkpt lat="41.187871" lon="-6.721899">
        <ele>671.151</ele>
        <time>2015-03-30T12:10:25Z</time>
      </trkpt>
      <trkpt lat="41.187896" lon="-6.721896">
        <ele>671.111</ele>
        <time>2015-03-30T12:10:26Z</time>
      </trkpt>
      <trkpt lat="41.187962" lon="-6.721894">
        <ele>671.134</ele>
        <time>2015-03-30T12:10:29Z</time>
      </trkpt>
      <trkpt lat="41.187976" lon="-6.721910">
        <ele>671.699</ele>
        <time>2015-03-30T12:10:30Z</time>
      </trkpt>
      <trkpt lat="41.187991" lon="-6.721929">
        <ele>671.681</ele>
        <time>2015-03-30T12:10:31Z</time>
      </trkpt>
      <trkpt lat="41.188006" lon="-6.721949">
        <ele>671.661</ele>
        <time>2015-03-30T12:10:32Z</time>
      </trkpt>
      <trkpt lat="41.188018" lon="-6.721975">
        <ele>671.617</ele>
        <time>2015-03-30T12:10:33Z</time>
      </trkpt>
      <trkpt lat="41.188027" lon="-6.722000">
        <ele>671.607</ele>
        <time>2015-03-30T12:10:34Z</time>
      </trkpt>
      <trkpt lat="41.188130" lon="-6.722269">
        <ele>672.637</ele>
        <time>2015-03-30T12:10:46Z</time>
      </trkpt>
      <trkpt lat="41.188153" lon="-6.722297">
        <ele>672.672</ele>
        <time>2015-03-30T12:10:48Z</time>
      </trkpt>
      <trkpt lat="41.188167" lon="-6.722306">
        <ele>672.687</ele>
        <time>2015-03-30T12:10:49Z</time>
      </trkpt>
      <trkpt lat="41.188181" lon="-6.722317">
        <ele>672.691</ele>
        <time>2015-03-30T12:10:50Z</time>
      </trkpt>
      <trkpt lat="41.188196" lon="-6.722329">
        <ele>672.621</ele>
        <time>2015-03-30T12:10:51Z</time>
      </trkpt>
      <trkpt lat="41.188211" lon="-6.722341">
        <ele>672.674</ele>
        <time>2015-03-30T12:10:52Z</time>
      </trkpt>
      <trkpt lat="41.188227" lon="-6.722352">
        <ele>672.699</ele>
        <time>2015-03-30T12:10:53Z</time>
      </trkpt>
      <trkpt lat="41.188405" lon="-6.722364">
        <ele>673.162</ele>
        <time>2015-03-30T12:11:03Z</time>
      </trkpt>
      <trkpt lat="41.188594" lon="-6.722366">
        <ele>674.083</ele>
        <time>2015-03-30T12:11:14Z</time>
      </trkpt>
      <trkpt lat="41.188709" lon="-6.722366">
        <ele>675.011</ele>
        <time>2015-03-30T12:11:21Z</time>
      </trkpt>
      <trkpt lat="41.188722" lon="-6.722362">
        <ele>675.007</ele>
        <time>2015-03-30T12:11:22Z</time>
      </trkpt>
      <trkpt lat="41.188736" lon="-6.722368">
        <ele>675.065</ele>
        <time>2015-03-30T12:11:23Z</time>
      </trkpt>
      <trkpt lat="41.188749" lon="-6.722377">
        <ele>675.020</ele>
        <time>2015-03-30T12:11:24Z</time>
      </trkpt>
      <trkpt lat="41.188760" lon="-6.722380">
        <ele>675.575</ele>
        <time>2015-03-30T12:11:25Z</time>
      </trkpt>
      <trkpt lat="41.188770" lon="-6.722379">
        <ele>675.559</ele>
        <time>2015-03-30T12:11:26Z</time>
      </trkpt>
      <trkpt lat="41.188783" lon="-6.722380">
        <ele>675.949</ele>
        <time>2015-03-30T12:11:27Z</time>
      </trkpt>
      <trkpt lat="41.188828" lon="-6.722373">
        <ele>675.932</ele>
        <time>2015-03-30T12:11:30Z</time>
      </trkpt>
      <trkpt lat="41.188843" lon="-6.722372">
        <ele>675.937</ele>
        <time>2015-03-30T12:11:31Z</time>
      </trkpt>
      <trkpt lat="41.188858" lon="-6.722372">
        <ele>675.937</ele>
        <time>2015-03-30T12:11:32Z</time>
      </trkpt>
      <trkpt lat="41.188873" lon="-6.722372">
        <ele>675.949</ele>
        <time>2015-03-30T12:11:33Z</time>
      </trkpt>
      <trkpt lat="41.188888" lon="-6.722371">
        <ele>675.913</ele>
        <time>2015-03-30T12:11:34Z</time>
      </trkpt>
      <trkpt lat="41.188905" lon="-6.722370">
        <ele>675.907</ele>
        <time>2015-03-30T12:11:35Z</time>
      </trkpt>
      <trkpt lat="41.188921" lon="-6.722370">
        <ele>675.972</ele>
        <time>2015-03-30T12:11:36Z</time>
      </trkpt>
      <trkpt lat="41.188939" lon="-6.722369">
        <ele>675.937</ele>
        <time>2015-03-30T12:11:37Z</time>
      </trkpt>
      <trkpt lat="41.188960" lon="-6.722371">
        <ele>675.932</ele>
        <time>2015-03-30T12:11:38Z</time>
      </trkpt>
      <trkpt lat="41.188981" lon="-6.722369">
        <ele>675.956</ele>
        <time>2015-03-30T12:11:39Z</time>
      </trkpt>
      <trkpt lat="41.189000" lon="-6.722363">
        <ele>675.916</ele>
        <time>2015-03-30T12:11:40Z</time>
      </trkpt>
      <trkpt lat="41.189061" lon="-6.722328">
        <ele>676.919</ele>
        <time>2015-03-30T12:11:44Z</time>
      </trkpt>
      <trkpt lat="41.189077" lon="-6.722316">
        <ele>676.924</ele>
        <time>2015-03-30T12:11:45Z</time>
      </trkpt>
      <trkpt lat="41.189094" lon="-6.722302">
        <ele>676.977</ele>
        <time>2015-03-30T12:11:46Z</time>
      </trkpt>
      <trkpt lat="41.189113" lon="-6.722291">
        <ele>677.461</ele>
        <time>2015-03-30T12:11:47Z</time>
      </trkpt>
      <trkpt lat="41.189132" lon="-6.722281">
        <ele>677.427</ele>
        <time>2015-03-30T12:11:48Z</time>
      </trkpt>
      <trkpt lat="41.189322" lon="-6.722142">
        <ele>677.407</ele>
        <time>2015-03-30T12:11:58Z</time>
      </trkpt>
      <trkpt lat="41.189438" lon="-6.722018">
        <ele>678.476</ele>
        <time>2015-03-30T12:12:07Z</time>
      </trkpt>
      <trkpt lat="41.189470" lon="-6.721962">
        <ele>678.821</ele>
        <time>2015-03-30T12:12:11Z</time>
      </trkpt>
      <trkpt lat="41.189483" lon="-6.721953">
        <ele>679.326</ele>
        <time>2015-03-30T12:12:12Z</time>
      </trkpt>
      <trkpt lat="41.189494" lon="-6.721944">
        <ele>679.350</ele>
        <time>2015-03-30T12:12:13Z</time>
      </trkpt>
      <trkpt lat="41.189506" lon="-6.721935">
        <ele>679.340</ele>
        <time>2015-03-30T12:12:14Z</time>
      </trkpt>
      <trkpt lat="41.189627" lon="-6.721868">
        <ele>679.863</ele>
        <time>2015-03-30T12:12:23Z</time>
      </trkpt>
      <trkpt lat="41.189643" lon="-6.721870">
        <ele>680.348</ele>
        <time>2015-03-30T12:12:24Z</time>
      </trkpt>
      <trkpt lat="41.189658" lon="-6.721871">
        <ele>680.319</ele>
        <time>2015-03-30T12:12:25Z</time>
      </trkpt>
      <trkpt lat="41.189673" lon="-6.721866">
        <ele>679.809</ele>
        <time>2015-03-30T12:12:26Z</time>
      </trkpt>
      <trkpt lat="41.189690" lon="-6.721860">
        <ele>680.319</ele>
        <time>2015-03-30T12:12:27Z</time>
      </trkpt>
      <trkpt lat="41.189708" lon="-6.721852">
        <ele>680.307</ele>
        <time>2015-03-30T12:12:28Z</time>
      </trkpt>
      <trkpt lat="41.189722" lon="-6.721841">
        <ele>680.370</ele>
        <time>2015-03-30T12:12:29Z</time>
      </trkpt>
      <trkpt lat="41.189738" lon="-6.721834">
        <ele>680.335</ele>
        <time>2015-03-30T12:12:30Z</time>
      </trkpt>
      <trkpt lat="41.189754" lon="-6.721826">
        <ele>680.390</ele>
        <time>2015-03-30T12:12:31Z</time>
      </trkpt>
      <trkpt lat="41.189771" lon="-6.721819">
        <ele>680.314</ele>
        <time>2015-03-30T12:12:32Z</time>
      </trkpt>
      <trkpt lat="41.189787" lon="-6.721817">
        <ele>680.384</ele>
        <time>2015-03-30T12:12:33Z</time>
      </trkpt>
      <trkpt lat="41.189989" lon="-6.721811">
        <ele>682.257</ele>
        <time>2015-03-30T12:12:45Z</time>
      </trkpt>
      <trkpt lat="41.190003" lon="-6.721810">
        <ele>682.232</ele>
        <time>2015-03-30T12:12:46Z</time>
      </trkpt>
      <trkpt lat="41.190017" lon="-6.721805">
        <ele>682.231</ele>
        <time>2015-03-30T12:12:47Z</time>
      </trkpt>
      <trkpt lat="41.190028" lon="-6.721797">
        <ele>682.761</ele>
        <time>2015-03-30T12:12:48Z</time>
      </trkpt>
      <trkpt lat="41.190041" lon="-6.721788">
        <ele>682.207</ele>
        <time>2015-03-30T12:12:49Z</time>
      </trkpt>
      <trkpt lat="41.190057" lon="-6.721788">
        <ele>682.707</ele>
        <time>2015-03-30T12:12:50Z</time>
      </trkpt>
      <trkpt lat="41.190072" lon="-6.721790">
        <ele>682.782</ele>
        <time>2015-03-30T12:12:51Z</time>
      </trkpt>
      <trkpt lat="41.190086" lon="-6.721790">
        <ele>683.287</ele>
        <time>2015-03-30T12:12:52Z</time>
      </trkpt>
      <trkpt lat="41.190230" lon="-6.721785">
        <ele>683.612</ele>
        <time>2015-03-30T12:13:01Z</time>
      </trkpt>
      <trkpt lat="41.190393" lon="-6.721754">
        <ele>684.116</ele>
        <time>2015-03-30T12:13:11Z</time>
      </trkpt>
      <trkpt lat="41.190501" lon="-6.721755">
        <ele>685.196</ele>
        <time>2015-03-30T12:13:18Z</time>
      </trkpt>
      <trkpt lat="41.190518" lon="-6.721749">
        <ele>685.149</ele>
        <time>2015-03-30T12:13:19Z</time>
      </trkpt>
      <trkpt lat="41.190535" lon="-6.721743">
        <ele>685.134</ele>
        <time>2015-03-30T12:13:20Z</time>
      </trkpt>
      <trkpt lat="41.190551" lon="-6.721737">
        <ele>685.111</ele>
        <time>2015-03-30T12:13:21Z</time>
      </trkpt>
      <trkpt lat="41.190567" lon="-6.721737">
        <ele>685.121</ele>
        <time>2015-03-30T12:13:22Z</time>
      </trkpt>
      <trkpt lat="41.190583" lon="-6.721737">
        <ele>685.603</ele>
        <time>2015-03-30T12:13:23Z</time>
      </trkpt>
      <trkpt lat="41.190599" lon="-6.721735">
        <ele>685.607</ele>
        <time>2015-03-30T12:13:24Z</time>
      </trkpt>
      <trkpt lat="41.190683" lon="-6.721725">
        <ele>686.560</ele>
        <time>2015-03-30T12:13:30Z</time>
      </trkpt>
      <trkpt lat="41.190693" lon="-6.721732">
        <ele>686.545</ele>
        <time>2015-03-30T12:13:31Z</time>
      </trkpt>
      <trkpt lat="41.190705" lon="-6.721735">
        <ele>686.520</ele>
        <time>2015-03-30T12:13:32Z</time>
      </trkpt>
      <trkpt lat="41.190717" lon="-6.721738">
        <ele>686.574</ele>
        <time>2015-03-30T12:13:33Z</time>
      </trkpt>
      <trkpt lat="41.190728" lon="-6.721742">
        <ele>687.014</ele>
        <time>2015-03-30T12:13:34Z</time>
      </trkpt>
      <trkpt lat="41.190742" lon="-6.721743">
        <ele>687.067</ele>
        <time>2015-03-30T12:13:35Z</time>
      </trkpt>
      <trkpt lat="41.190758" lon="-6.721746">
        <ele>687.072</ele>
        <time>2015-03-30T12:13:36Z</time>
      </trkpt>
      <trkpt lat="41.190775" lon="-6.721747">
        <ele>687.033</ele>
        <time>2015-03-30T12:13:37Z</time>
      </trkpt>
      <trkpt lat="41.190799" lon="-6.721753">
        <ele>687.523</ele>
        <time>2015-03-30T12:13:39Z</time>
      </trkpt>
      <trkpt lat="41.190862" lon="-6.721793">
        <ele>687.515</ele>
        <time>2015-03-30T12:13:44Z</time>
      </trkpt>
      <trkpt lat="41.190880" lon="-6.721797">
        <ele>688.407</ele>
        <time>2015-03-30T12:13:45Z</time>
      </trkpt>
      <trkpt lat="41.190895" lon="-6.721801">
        <ele>688.042</ele>
        <time>2015-03-30T12:13:46Z</time>
      </trkpt>
      <trkpt lat="41.190912" lon="-6.721805">
        <ele>688.067</ele>
        <time>2015-03-30T12:13:47Z</time>
      </trkpt>
      <trkpt lat="41.190926" lon="-6.721810">
        <ele>688.022</ele>
        <time>2015-03-30T12:13:48Z</time>
      </trkpt>
      <trkpt lat="41.190940" lon="-6.721817">
        <ele>688.446</ele>
        <time>2015-03-30T12:13:49Z</time>
      </trkpt>
      <trkpt lat="41.191080" lon="-6.721914">
        <ele>690.426</ele>
        <time>2015-03-30T12:13:59Z</time>
      </trkpt>
      <trkpt lat="41.191200" lon="-6.722019">
        <ele>692.859</ele>
        <time>2015-03-30T12:14:09Z</time>
      </trkpt>
      <trkpt lat="41.191332" lon="-6.722110">
        <ele>694.294</ele>
        <time>2015-03-30T12:14:20Z</time>
      </trkpt>
      <trkpt lat="41.191345" lon="-6.722118">
        <ele>694.798</ele>
        <time>2015-03-30T12:14:21Z</time>
      </trkpt>
      <trkpt lat="41.191359" lon="-6.722127">
        <ele>695.215</ele>
        <time>2015-03-30T12:14:22Z</time>
      </trkpt>
      <trkpt lat="41.191372" lon="-6.722136">
        <ele>695.226</ele>
        <time>2015-03-30T12:14:23Z</time>
      </trkpt>
      <trkpt lat="41.191384" lon="-6.722142">
        <ele>695.707</ele>
        <time>2015-03-30T12:14:24Z</time>
      </trkpt>
      <trkpt lat="41.191396" lon="-6.722146">
        <ele>695.768</ele>
        <time>2015-03-30T12:14:25Z</time>
      </trkpt>
      <trkpt lat="41.191514" lon="-6.722187">
        <ele>697.113</ele>
        <time>2015-03-30T12:14:35Z</time>
      </trkpt>
      <trkpt lat="41.191522" lon="-6.722196">
        <ele>697.668</ele>
        <time>2015-03-30T12:14:36Z</time>
      </trkpt>
      <trkpt lat="41.191597" lon="-6.722227">
        <ele>698.552</ele>
        <time>2015-03-30T12:14:44Z</time>
      </trkpt>
      <trkpt lat="41.191670" lon="-6.722260">
        <ele>695.242</ele>
        <time>2015-03-30T12:14:50Z</time>
      </trkpt>
      <trkpt lat="41.191680" lon="-6.722264">
        <ele>702.435</ele>
        <time>2015-03-30T12:14:51Z</time>
      </trkpt>
      <trkpt lat="41.191721" lon="-6.722283">
        <ele>700.070</ele>
        <time>2015-03-30T12:14:57Z</time>
      </trkpt>
      <trkpt lat="41.191734" lon="-6.722286">
        <ele>700.083</ele>
        <time>2015-03-30T12:14:58Z</time>
      </trkpt>
      <trkpt lat="41.191748" lon="-6.722285">
        <ele>700.025</ele>
        <time>2015-03-30T12:14:59Z</time>
      </trkpt>
      <trkpt lat="41.191774" lon="-6.722284">
        <ele>700.017</ele>
        <time>2015-03-30T12:15:01Z</time>
      </trkpt>
      <trkpt lat="41.191785" lon="-6.722288">
        <ele>700.007</ele>
        <time>2015-03-30T12:15:02Z</time>
      </trkpt>
      <trkpt lat="41.191796" lon="-6.722291">
        <ele>698.157</ele>
        <time>2015-03-30T12:15:03Z</time>
      </trkpt>
      <trkpt lat="41.191806" lon="-6.722300">
        <ele>701.982</ele>
        <time>2015-03-30T12:15:04Z</time>
      </trkpt>
      <trkpt lat="41.191815" lon="-6.722312">
        <ele>700.557</ele>
        <time>2015-03-30T12:15:05Z</time>
      </trkpt>
      <trkpt lat="41.191826" lon="-6.722322">
        <ele>700.521</ele>
        <time>2015-03-30T12:15:06Z</time>
      </trkpt>
      <trkpt lat="41.191835" lon="-6.722333">
        <ele>700.511</ele>
        <time>2015-03-30T12:15:07Z</time>
      </trkpt>
      <trkpt lat="41.191843" lon="-6.722345">
        <ele>700.584</ele>
        <time>2015-03-30T12:15:08Z</time>
      </trkpt>
      <trkpt lat="41.191853" lon="-6.722357">
        <ele>700.999</ele>
        <time>2015-03-30T12:15:09Z</time>
      </trkpt>
      <trkpt lat="41.191864" lon="-6.722367">
        <ele>700.529</ele>
        <time>2015-03-30T12:15:10Z</time>
      </trkpt>
      <trkpt lat="41.191976" lon="-6.722503">
        <ele>701.400</ele>
        <time>2015-03-30T12:15:21Z</time>
      </trkpt>
      <trkpt lat="41.192060" lon="-6.722701">
        <ele>702.420</ele>
        <time>2015-03-30T12:15:32Z</time>
      </trkpt>
      <trkpt lat="41.192167" lon="-6.722854">
        <ele>702.907</ele>
        <time>2015-03-30T12:15:42Z</time>
      </trkpt>
      <trkpt lat="41.192235" lon="-6.723000">
        <ele>703.821</ele>
        <time>2015-03-30T12:15:52Z</time>
      </trkpt>
      <trkpt lat="41.192304" lon="-6.723169">
        <ele>704.366</ele>
        <time>2015-03-30T12:16:02Z</time>
      </trkpt>
      <trkpt lat="41.192329" lon="-6.723208">
        <ele>704.881</ele>
        <time>2015-03-30T12:16:10Z</time>
      </trkpt>
      <trkpt lat="41.192341" lon="-6.723210">
        <ele>704.855</ele>
        <time>2015-03-30T12:16:20Z</time>
      </trkpt>
      <trkpt lat="41.192344" lon="-6.723204">
        <ele>706.235</ele>
        <time>2015-03-30T12:16:32Z</time>
      </trkpt>
      <trkpt lat="41.192343" lon="-6.723203">
        <ele>701.478</ele>
        <time>2015-03-30T12:16:35Z</time>
      </trkpt>
      <trkpt lat="41.192343" lon="-6.723203">
        <ele>707.763</ele>
        <time>2015-03-30T12:16:36Z</time>
      </trkpt>
      <trkpt lat="41.192342" lon="-6.723203">
        <ele>704.863</ele>
        <time>2015-03-30T12:16:37Z</time>
      </trkpt>
      <trkpt lat="41.192340" lon="-6.723214">
        <ele>704.344</ele>
        <time>2015-03-30T12:16:48Z</time>
      </trkpt>
      <trkpt lat="41.192338" lon="-6.723222">
        <ele>704.318</ele>
        <time>2015-03-30T12:17:00Z</time>
      </trkpt>
      <trkpt lat="41.192344" lon="-6.723237">
        <ele>704.307</ele>
        <time>2015-03-30T12:17:19Z</time>
      </trkpt>
      <trkpt lat="41.192340" lon="-6.723248">
        <ele>704.865</ele>
        <time>2015-03-30T12:17:44Z</time>
      </trkpt>
      <trkpt lat="41.192345" lon="-6.723248">
        <ele>704.350</ele>
        <time>2015-03-30T12:17:57Z</time>
      </trkpt>
      <trkpt lat="41.192352" lon="-6.723249">
        <ele>704.835</ele>
        <time>2015-03-30T12:18:09Z</time>
      </trkpt>
      <trkpt lat="41.192360" lon="-6.723247">
        <ele>704.869</ele>
        <time>2015-03-30T12:18:29Z</time>
      </trkpt>
      <trkpt lat="41.192367" lon="-6.723250">
        <ele>704.859</ele>
        <time>2015-03-30T12:18:55Z</time>
      </trkpt>
      <trkpt lat="41.192363" lon="-6.723243">
        <ele>704.832</ele>
        <time>2015-03-30T12:19:10Z</time>
      </trkpt>
      <trkpt lat="41.192364" lon="-6.723241">
        <ele>702.417</ele>
        <time>2015-03-30T12:19:21Z</time>
      </trkpt>
      <trkpt lat="41.192364" lon="-6.723242">
        <ele>705.394</ele>
        <time>2015-03-30T12:19:22Z</time>
      </trkpt>
      <trkpt lat="41.192364" lon="-6.723242">
        <ele>705.857</ele>
        <time>2015-03-30T12:19:23Z</time>
      </trkpt>
      <trkpt lat="41.192365" lon="-6.723244">
        <ele>701.422</ele>
        <time>2015-03-30T12:19:33Z</time>
      </trkpt>
      <trkpt lat="41.192365" lon="-6.723244">
        <ele>708.207</ele>
        <time>2015-03-30T12:19:34Z</time>
      </trkpt>
      <trkpt lat="41.192365" lon="-6.723244">
        <ele>701.978</ele>
        <time>2015-03-30T12:19:35Z</time>
      </trkpt>
      <trkpt lat="41.192367" lon="-6.723246">
        <ele>706.793</ele>
        <time>2015-03-30T12:19:36Z</time>
      </trkpt>
      <trkpt lat="41.192367" lon="-6.723246">
        <ele>702.968</ele>
        <time>2015-03-30T12:19:37Z</time>
      </trkpt>
      <trkpt lat="41.192366" lon="-6.723247">
        <ele>706.212</ele>
        <time>2015-03-30T12:19:40Z</time>
      </trkpt>
      <trkpt lat="41.192366" lon="-6.723246">
        <ele>701.992</ele>
        <time>2015-03-30T12:19:43Z</time>
      </trkpt>
      <trkpt lat="41.192365" lon="-6.723246">
        <ele>708.285</ele>
        <time>2015-03-30T12:19:44Z</time>
      </trkpt>
      <trkpt lat="41.192365" lon="-6.723246">
        <ele>700.550</ele>
        <time>2015-03-30T12:19:45Z</time>
      </trkpt>
      <trkpt lat="41.192365" lon="-6.723247">
        <ele>708.679</ele>
        <time>2015-03-30T12:19:46Z</time>
      </trkpt>
      <trkpt lat="41.192365" lon="-6.723247">
        <ele>700.905</ele>
        <time>2015-03-30T12:19:47Z</time>
      </trkpt>
      <trkpt lat="41.192365" lon="-6.723248">
        <ele>705.825</ele>
        <time>2015-03-30T12:19:48Z</time>
      </trkpt>
      <trkpt lat="41.192365" lon="-6.723249">
        <ele>701.407</ele>
        <time>2015-03-30T12:19:51Z</time>
      </trkpt>
      <trkpt lat="41.192365" lon="-6.723249">
        <ele>703.846</ele>
        <time>2015-03-30T12:19:52Z</time>
      </trkpt>
      <trkpt lat="41.192365" lon="-6.723250">
        <ele>708.261</ele>
        <time>2015-03-30T12:19:55Z</time>
      </trkpt>
      <trkpt lat="41.192365" lon="-6.723250">
        <ele>704.816</ele>
        <time>2015-03-30T12:19:57Z</time>
      </trkpt>
      <trkpt lat="41.192360" lon="-6.723248">
        <ele>706.240</ele>
        <time>2015-03-30T12:20:04Z</time>
      </trkpt>
      <trkpt lat="41.192359" lon="-6.723249">
        <ele>700.980</ele>
        <time>2015-03-30T12:20:10Z</time>
      </trkpt>
      <trkpt lat="41.192358" lon="-6.723249">
        <ele>709.113</ele>
        <time>2015-03-30T12:20:11Z</time>
      </trkpt>
      <trkpt lat="41.192358" lon="-6.723249">
        <ele>700.538</ele>
        <time>2015-03-30T12:20:12Z</time>
      </trkpt>
      <trkpt lat="41.192358" lon="-6.723249">
        <ele>708.232</ele>
        <time>2015-03-30T12:20:13Z</time>
      </trkpt>
      <trkpt lat="41.192358" lon="-6.723249">
        <ele>703.892</ele>
        <time>2015-03-30T12:20:14Z</time>
      </trkpt>
      <trkpt lat="41.192356" lon="-6.723247">
        <ele>708.611</ele>
        <time>2015-03-30T12:20:29Z</time>
      </trkpt>
      <trkpt lat="41.192356" lon="-6.723247">
        <ele>705.307</ele>
        <time>2015-03-30T12:20:30Z</time>
      </trkpt>
      <trkpt lat="41.192358" lon="-6.723254">
        <ele>701.462</ele>
        <time>2015-03-30T12:20:42Z</time>
      </trkpt>
      <trkpt lat="41.192358" lon="-6.723254">
        <ele>706.787</ele>
        <time>2015-03-30T12:20:43Z</time>
      </trkpt>
      <trkpt lat="41.192358" lon="-6.723255">
        <ele>706.222</ele>
        <time>2015-03-30T12:20:44Z</time>
      </trkpt>
      <trkpt lat="41.192358" lon="-6.723255">
        <ele>701.486</ele>
        <time>2015-03-30T12:20:45Z</time>
      </trkpt>
      <trkpt lat="41.192358" lon="-6.723256">
        <ele>706.236</ele>
        <time>2015-03-30T12:20:46Z</time>
      </trkpt>
      <trkpt lat="41.192358" lon="-6.723258">
        <ele>701.999</ele>
        <time>2015-03-30T12:20:51Z</time>
      </trkpt>
      <trkpt lat="41.192357" lon="-6.723257">
        <ele>707.724</ele>
        <time>2015-03-30T12:20:52Z</time>
      </trkpt>
      <trkpt lat="41.192356" lon="-6.723258">
        <ele>704.874</ele>
        <time>2015-03-30T12:20:55Z</time>
      </trkpt>
      <trkpt lat="41.192347" lon="-6.723259">
        <ele>708.256</ele>
        <time>2015-03-30T12:21:08Z</time>
      </trkpt>
      <trkpt lat="41.192347" lon="-6.723258">
        <ele>701.421</ele>
        <time>2015-03-30T12:21:10Z</time>
      </trkpt>
      <trkpt lat="41.192346" lon="-6.723258">
        <ele>703.807</ele>
        <time>2015-03-30T12:21:11Z</time>
      </trkpt>
      <trkpt lat="41.192345" lon="-6.723257">
        <ele>708.266</ele>
        <time>2015-03-30T12:21:13Z</time>
      </trkpt>
      <trkpt lat="41.192345" lon="-6.723257">
        <ele>703.341</ele>
        <time>2015-03-30T12:21:14Z</time>
      </trkpt>
      <trkpt lat="41.192344" lon="-6.723256">
        <ele>709.186</ele>
        <time>2015-03-30T12:21:17Z</time>
      </trkpt>
      <trkpt lat="41.192344" lon="-6.723255">
        <ele>703.320</ele>
        <time>2015-03-30T12:21:18Z</time>
      </trkpt>
      <trkpt lat="41.192343" lon="-6.723254">
        <ele>708.220</ele>
        <time>2015-03-30T12:21:21Z</time>
      </trkpt>
      <trkpt lat="41.192342" lon="-6.723254">
        <ele>704.833</ele>
        <time>2015-03-30T12:21:22Z</time>
      </trkpt>
      <trkpt lat="41.192342" lon="-6.723253">
        <ele>701.438</ele>
        <time>2015-03-30T12:21:23Z</time>
      </trkpt>
      <trkpt lat="41.192341" lon="-6.723253">
        <ele>705.366</ele>
        <time>2015-03-30T12:21:24Z</time>
      </trkpt>
      <trkpt lat="41.192340" lon="-6.723253">
        <ele>709.129</ele>
        <time>2015-03-30T12:21:26Z</time>
      </trkpt>
      <trkpt lat="41.192339" lon="-6.723253">
        <ele>705.321</ele>
        <time>2015-03-30T12:21:27Z</time>
      </trkpt>
      <trkpt lat="41.192338" lon="-6.723254">
        <ele>701.907</ele>
        <time>2015-03-30T12:21:30Z</time>
      </trkpt>
      <trkpt lat="41.192338" lon="-6.723254">
        <ele>708.645</ele>
        <time>2015-03-30T12:21:31Z</time>
      </trkpt>
      <trkpt lat="41.192338" lon="-6.723254">
        <ele>705.310</ele>
        <time>2015-03-30T12:21:32Z</time>
      </trkpt>
      <trkpt lat="41.192332" lon="-6.723253">
        <ele>705.375</ele>
        <time>2015-03-30T12:21:57Z</time>
      </trkpt>
      <trkpt lat="41.192331" lon="-6.723254">
        <ele>705.329</ele>
        <time>2015-03-30T12:22:22Z</time>
      </trkpt>
      <trkpt lat="41.192329" lon="-6.723246">
        <ele>705.369</ele>
        <time>2015-03-30T12:22:44Z</time>
      </trkpt>
      <trkpt lat="41.192323" lon="-6.723252">
        <ele>705.312</ele>
        <time>2015-03-30T12:23:09Z</time>
      </trkpt>
      <trkpt lat="41.192322" lon="-6.723260">
        <ele>705.857</ele>
        <time>2015-03-30T12:23:30Z</time>
      </trkpt>
      <trkpt lat="41.192336" lon="-6.723267">
        <ele>700.053</ele>
        <time>2015-03-30T12:23:58Z</time>
      </trkpt>
      <trkpt lat="41.192336" lon="-6.723267">
        <ele>708.204</ele>
        <time>2015-03-30T12:23:59Z</time>
      </trkpt>
      <trkpt lat="41.192336" lon="-6.723267">
        <ele>708.214</ele>
        <time>2015-03-30T12:24:00Z</time>
      </trkpt>
      <trkpt lat="41.192335" lon="-6.723265">
        <ele>705.807</ele>
        <time>2015-03-30T12:24:03Z</time>
      </trkpt>
      <trkpt lat="41.192339" lon="-6.723267">
        <ele>706.234</ele>
        <time>2015-03-30T12:24:28Z</time>
      </trkpt>
      <trkpt lat="41.192336" lon="-6.723274">
        <ele>705.819</ele>
        <time>2015-03-30T12:24:47Z</time>
      </trkpt>
      <trkpt lat="41.192322" lon="-6.723279">
        <ele>705.854</ele>
        <time>2015-03-30T12:25:05Z</time>
      </trkpt>
      <trkpt lat="41.192328" lon="-6.723286">
        <ele>705.858</ele>
        <time>2015-03-30T12:25:29Z</time>
      </trkpt>
      <trkpt lat="41.192349" lon="-6.723328">
        <ele>706.248</ele>
        <time>2015-03-30T12:25:38Z</time>
      </trkpt>
      <trkpt lat="41.192354" lon="-6.723399">
        <ele>706.261</ele>
        <time>2015-03-30T12:25:47Z</time>
      </trkpt>
      <trkpt lat="41.192400" lon="-6.723458">
        <ele>706.256</ele>
        <time>2015-03-30T12:25:53Z</time>
      </trkpt>
      <trkpt lat="41.192436" lon="-6.723593">
        <ele>706.726</ele>
        <time>2015-03-30T12:26:03Z</time>
      </trkpt>
      <trkpt lat="41.192455" lon="-6.723673">
        <ele>706.247</ele>
        <time>2015-03-30T12:26:09Z</time>
      </trkpt>
      <trkpt lat="41.192485" lon="-6.723786">
        <ele>708.211</ele>
        <time>2015-03-30T12:26:15Z</time>
      </trkpt>
      <trkpt lat="41.192496" lon="-6.723853">
        <ele>706.707</ele>
        <time>2015-03-30T12:26:18Z</time>
      </trkpt>
      <trkpt lat="41.192548" lon="-6.724101">
        <ele>706.791</ele>
        <time>2015-03-30T12:26:30Z</time>
      </trkpt>
      <trkpt lat="41.192544" lon="-6.724140">
        <ele>706.726</ele>
        <time>2015-03-30T12:26:32Z</time>
      </trkpt>
      <trkpt lat="41.192564" lon="-6.724209">
        <ele>706.741</ele>
        <time>2015-03-30T12:26:36Z</time>
      </trkpt>
      <trkpt lat="41.192611" lon="-6.724308">
        <ele>707.225</ele>
        <time>2015-03-30T12:26:44Z</time>
      </trkpt>
      <trkpt lat="41.192636" lon="-6.724422">
        <ele>707.265</ele>
        <time>2015-03-30T12:26:51Z</time>
      </trkpt>
      <trkpt lat="41.192714" lon="-6.724639">
        <ele>708.248</ele>
        <time>2015-03-30T12:27:03Z</time>
      </trkpt>
      <trkpt lat="41.192771" lon="-6.724840">
        <ele>708.643</ele>
        <time>2015-03-30T12:27:12Z</time>
      </trkpt>
      <trkpt lat="41.192818" lon="-6.724952">
        <ele>708.623</ele>
        <time>2015-03-30T12:27:17Z</time>
      </trkpt>
      <trkpt lat="41.192897" lon="-6.725177">
        <ele>709.683</ele>
        <time>2015-03-30T12:27:27Z</time>
      </trkpt>
      <trkpt lat="41.192975" lon="-6.725373">
        <ele>710.611</ele>
        <time>2015-03-30T12:27:36Z</time>
      </trkpt>
      <trkpt lat="41.193017" lon="-6.725445">
        <ele>711.007</ele>
        <time>2015-03-30T12:27:39Z</time>
      </trkpt>
      <trkpt lat="41.193073" lon="-6.725627">
        <ele>716.821</ele>
        <time>2015-03-30T12:27:46Z</time>
      </trkpt>
      <trkpt lat="41.193083" lon="-6.725652">
        <ele>711.546</ele>
        <time>2015-03-30T12:27:47Z</time>
      </trkpt>
      <trkpt lat="41.193095" lon="-6.725692">
        <ele>711.521</ele>
        <time>2015-03-30T12:27:49Z</time>
      </trkpt>
      <trkpt lat="41.193184" lon="-6.725680">
        <ele>711.075</ele>
        <time>2015-03-30T12:27:58Z</time>
      </trkpt>
      <trkpt lat="41.193208" lon="-6.725644">
        <ele>710.645</ele>
        <time>2015-03-30T12:28:00Z</time>
      </trkpt>
      <trkpt lat="41.193280" lon="-6.725579">
        <ele>709.648</ele>
        <time>2015-03-30T12:28:04Z</time>
      </trkpt>
      <trkpt lat="41.193344" lon="-6.725525">
        <ele>708.673</ele>
        <time>2015-03-30T12:28:08Z</time>
      </trkpt>
      <trkpt lat="41.193481" lon="-6.725456">
        <ele>706.263</ele>
        <time>2015-03-30T12:28:18Z</time>
      </trkpt>
      <trkpt lat="41.193497" lon="-6.725477">
        <ele>705.844</ele>
        <time>2015-03-30T12:28:22Z</time>
      </trkpt>
      <trkpt lat="41.193587" lon="-6.725793">
        <ele>703.818</ele>
        <time>2015-03-30T12:28:31Z</time>
      </trkpt>
      <trkpt lat="41.193639" lon="-6.725960">
        <ele>695.207</ele>
        <time>2015-03-30T12:28:35Z</time>
      </trkpt>
      <trkpt lat="41.193647" lon="-6.725985">
        <ele>710.135</ele>
        <time>2015-03-30T12:28:36Z</time>
      </trkpt>
      <trkpt lat="41.193656" lon="-6.726004">
        <ele>704.320</ele>
        <time>2015-03-30T12:28:37Z</time>
      </trkpt>
      <trkpt lat="41.193753" lon="-6.726211">
        <ele>705.375</ele>
        <time>2015-03-30T12:28:46Z</time>
      </trkpt>
      <trkpt lat="41.193804" lon="-6.726270">
        <ele>705.319</ele>
        <time>2015-03-30T12:28:49Z</time>
      </trkpt>
      <trkpt lat="41.193968" lon="-6.726510">
        <ele>705.359</ele>
        <time>2015-03-30T12:28:59Z</time>
      </trkpt>
      <trkpt lat="41.193986" lon="-6.726538">
        <ele>705.312</ele>
        <time>2015-03-30T12:29:00Z</time>
      </trkpt>
      <trkpt lat="41.194121" lon="-6.726913">
        <ele>706.267</ele>
        <time>2015-03-30T12:29:12Z</time>
      </trkpt>
      <trkpt lat="41.194170" lon="-6.726996">
        <ele>704.825</ele>
        <time>2015-03-30T12:29:14Z</time>
      </trkpt>
      <trkpt lat="41.194197" lon="-6.727047">
        <ele>704.826</ele>
        <time>2015-03-30T12:29:15Z</time>
      </trkpt>
      <trkpt lat="41.194224" lon="-6.727101">
        <ele>704.308</ele>
        <time>2015-03-30T12:29:16Z</time>
      </trkpt>
      <trkpt lat="41.194251" lon="-6.727154">
        <ele>703.807</ele>
        <time>2015-03-30T12:29:17Z</time>
      </trkpt>
      <trkpt lat="41.194378" lon="-6.727433">
        <ele>704.351</ele>
        <time>2015-03-30T12:29:24Z</time>
      </trkpt>
      <trkpt lat="41.194597" lon="-6.727574">
        <ele>704.826</ele>
        <time>2015-03-30T12:29:32Z</time>
      </trkpt>
      <trkpt lat="41.194786" lon="-6.727782">
        <ele>703.321</ele>
        <time>2015-03-30T12:29:39Z</time>
      </trkpt>
      <trkpt lat="41.194893" lon="-6.728179">
        <ele>699.565</ele>
        <time>2015-03-30T12:29:46Z</time>
      </trkpt>
      <trkpt lat="41.194914" lon="-6.728240">
        <ele>699.095</ele>
        <time>2015-03-30T12:29:47Z</time>
      </trkpt>
      <trkpt lat="41.194962" lon="-6.728344">
        <ele>698.128</ele>
        <time>2015-03-30T12:29:49Z</time>
      </trkpt>
      <trkpt lat="41.194991" lon="-6.728390">
        <ele>697.693</ele>
        <time>2015-03-30T12:29:50Z</time>
      </trkpt>
      <trkpt lat="41.195021" lon="-6.728430">
        <ele>697.638</ele>
        <time>2015-03-30T12:29:51Z</time>
      </trkpt>
      <trkpt lat="41.195050" lon="-6.728470">
        <ele>697.170</ele>
        <time>2015-03-30T12:29:52Z</time>
      </trkpt>
      <trkpt lat="41.195078" lon="-6.728517">
        <ele>696.617</ele>
        <time>2015-03-30T12:29:53Z</time>
      </trkpt>
      <trkpt lat="41.195104" lon="-6.728572">
        <ele>696.107</ele>
        <time>2015-03-30T12:29:54Z</time>
      </trkpt>
      <trkpt lat="41.195129" lon="-6.728627">
        <ele>695.782</ele>
        <time>2015-03-30T12:29:55Z</time>
      </trkpt>
      <trkpt lat="41.195302" lon="-6.728927">
        <ele>692.397</ele>
        <time>2015-03-30T12:30:01Z</time>
      </trkpt>
      <trkpt lat="41.195374" lon="-6.729037">
        <ele>692.362</ele>
        <time>2015-03-30T12:30:03Z</time>
      </trkpt>
      <trkpt lat="41.195516" lon="-6.729245">
        <ele>690.486</ele>
        <time>2015-03-30T12:30:07Z</time>
      </trkpt>
      <trkpt lat="41.195617" lon="-6.729403">
        <ele>689.416</ele>
        <time>2015-03-30T12:30:10Z</time>
      </trkpt>
      <trkpt lat="41.195773" lon="-6.729643">
        <ele>687.099</ele>
        <time>2015-03-30T12:30:16Z</time>
      </trkpt>
      <trkpt lat="41.195792" lon="-6.729663">
        <ele>681.724</ele>
        <time>2015-03-30T12:30:17Z</time>
      </trkpt>
      <trkpt lat="41.195816" lon="-6.729682">
        <ele>691.857</ele>
        <time>2015-03-30T12:30:18Z</time>
      </trkpt>
      <trkpt lat="41.195845" lon="-6.729699">
        <ele>687.000</ele>
        <time>2015-03-30T12:30:19Z</time>
      </trkpt>
      <trkpt lat="41.196148" lon="-6.729802">
        <ele>687.020</ele>
        <time>2015-03-30T12:30:28Z</time>
      </trkpt>
      <trkpt lat="41.196293" lon="-6.729823">
        <ele>684.107</ele>
        <time>2015-03-30T12:30:32Z</time>
      </trkpt>
      <trkpt lat="41.196540" lon="-6.729872">
        <ele>680.854</ele>
        <time>2015-03-30T12:30:38Z</time>
      </trkpt>
      <trkpt lat="41.196596" lon="-6.729885">
        <ele>680.819</ele>
        <time>2015-03-30T12:30:39Z</time>
      </trkpt>
      <trkpt lat="41.196776" lon="-6.729941">
        <ele>678.874</ele>
        <time>2015-03-30T12:30:42Z</time>
      </trkpt>
      <trkpt lat="41.197025" lon="-6.730014">
        <ele>675.938</ele>
        <time>2015-03-30T12:30:46Z</time>
      </trkpt>
      <trkpt lat="41.197142" lon="-6.730050">
        <ele>675.048</ele>
        <time>2015-03-30T12:30:48Z</time>
      </trkpt>
      <trkpt lat="41.197191" lon="-6.730086">
        <ele>673.551</ele>
        <time>2015-03-30T12:30:49Z</time>
      </trkpt>
      <trkpt lat="41.197235" lon="-6.730129">
        <ele>673.146</ele>
        <time>2015-03-30T12:30:50Z</time>
      </trkpt>
      <trkpt lat="41.197403" lon="-6.730341">
        <ele>669.235</ele>
        <time>2015-03-30T12:30:54Z</time>
      </trkpt>
      <trkpt lat="41.197487" lon="-6.730433">
        <ele>667.886</ele>
        <time>2015-03-30T12:30:56Z</time>
      </trkpt>
      <trkpt lat="41.197533" lon="-6.730455">
        <ele>666.814</ele>
        <time>2015-03-30T12:30:57Z</time>
      </trkpt>
      <trkpt lat="41.197580" lon="-6.730452">
        <ele>666.307</ele>
        <time>2015-03-30T12:30:58Z</time>
      </trkpt>
      <trkpt lat="41.197621" lon="-6.730425">
        <ele>665.932</ele>
        <time>2015-03-30T12:30:59Z</time>
      </trkpt>
      <trkpt lat="41.197657" lon="-6.730385">
        <ele>665.977</ele>
        <time>2015-03-30T12:31:00Z</time>
      </trkpt>
      <trkpt lat="41.197696" lon="-6.730349">
        <ele>665.452</ele>
        <time>2015-03-30T12:31:01Z</time>
      </trkpt>
      <trkpt lat="41.197740" lon="-6.730321">
        <ele>664.436</ele>
        <time>2015-03-30T12:31:02Z</time>
      </trkpt>
      <trkpt lat="41.197786" lon="-6.730294">
        <ele>663.946</ele>
        <time>2015-03-30T12:31:03Z</time>
      </trkpt>
      <trkpt lat="41.197831" lon="-6.730266">
        <ele>661.549</ele>
        <time>2015-03-30T12:31:04Z</time>
      </trkpt>
      <trkpt lat="41.197872" lon="-6.730237">
        <ele>666.834</ele>
        <time>2015-03-30T12:31:05Z</time>
      </trkpt>
      <trkpt lat="41.197998" lon="-6.730118">
        <ele>665.495</ele>
        <time>2015-03-30T12:31:10Z</time>
      </trkpt>
      <trkpt lat="41.198015" lon="-6.730090">
        <ele>665.449</ele>
        <time>2015-03-30T12:31:11Z</time>
      </trkpt>
      <trkpt lat="41.198025" lon="-6.730060">
        <ele>665.923</ele>
        <time>2015-03-30T12:31:12Z</time>
      </trkpt>
      <trkpt lat="41.198034" lon="-6.730030">
        <ele>666.307</ele>
        <time>2015-03-30T12:31:13Z</time>
      </trkpt>
      <trkpt lat="41.198040" lon="-6.729996">
        <ele>666.348</ele>
        <time>2015-03-30T12:31:14Z</time>
      </trkpt>
      <trkpt lat="41.198045" lon="-6.729959">
        <ele>666.383</ele>
        <time>2015-03-30T12:31:15Z</time>
      </trkpt>
      <trkpt lat="41.198083" lon="-6.729516">
        <ele>666.368</ele>
        <time>2015-03-30T12:31:25Z</time>
      </trkpt>
      <trkpt lat="41.198110" lon="-6.729230">
        <ele>665.462</ele>
        <time>2015-03-30T12:31:30Z</time>
      </trkpt>
      <trkpt lat="41.198125" lon="-6.729173">
        <ele>664.912</ele>
        <time>2015-03-30T12:31:31Z</time>
      </trkpt>
      <trkpt lat="41.198159" lon="-6.729070">
        <ele>664.955</ele>
        <time>2015-03-30T12:31:33Z</time>
      </trkpt>
      <trkpt lat="41.198184" lon="-6.729027">
        <ele>664.920</ele>
        <time>2015-03-30T12:31:34Z</time>
      </trkpt>
      <trkpt lat="41.198219" lon="-6.728998">
        <ele>664.423</ele>
        <time>2015-03-30T12:31:35Z</time>
      </trkpt>
      <trkpt lat="41.198260" lon="-6.728983">
        <ele>664.483</ele>
        <time>2015-03-30T12:31:36Z</time>
      </trkpt>
      <trkpt lat="41.198306" lon="-6.728985">
        <ele>664.411</ele>
        <time>2015-03-30T12:31:37Z</time>
      </trkpt>
      <trkpt lat="41.198355" lon="-6.728999">
        <ele>663.907</ele>
        <time>2015-03-30T12:31:38Z</time>
      </trkpt>
      <trkpt lat="41.198403" lon="-6.729016">
        <ele>664.491</ele>
        <time>2015-03-30T12:31:39Z</time>
      </trkpt>
      <trkpt lat="41.198455" lon="-6.729027">
        <ele>663.926</ele>
        <time>2015-03-30T12:31:40Z</time>
      </trkpt>
      <trkpt lat="41.198508" lon="-6.729031">
        <ele>663.931</ele>
        <time>2015-03-30T12:31:41Z</time>
      </trkpt>
      <trkpt lat="41.198905" lon="-6.729020">
        <ele>661.565</ele>
        <time>2015-03-30T12:31:47Z</time>
      </trkpt>
      <trkpt lat="41.198971" lon="-6.729007">
        <ele>661.565</ele>
        <time>2015-03-30T12:31:48Z</time>
      </trkpt>
      <trkpt lat="41.199036" lon="-6.729005">
        <ele>661.558</ele>
        <time>2015-03-30T12:31:49Z</time>
      </trkpt>
      <trkpt lat="41.199219" lon="-6.729025">
        <ele>661.583</ele>
        <time>2015-03-30T12:31:52Z</time>
      </trkpt>
      <trkpt lat="41.199279" lon="-6.729030">
        <ele>661.533</ele>
        <time>2015-03-30T12:31:53Z</time>
      </trkpt>
      <trkpt lat="41.199334" lon="-6.729042">
        <ele>661.523</ele>
        <time>2015-03-30T12:31:54Z</time>
      </trkpt>
      <trkpt lat="41.199388" lon="-6.729053">
        <ele>661.015</ele>
        <time>2015-03-30T12:31:55Z</time>
      </trkpt>
      <trkpt lat="41.199442" lon="-6.729062">
        <ele>661.007</ele>
        <time>2015-03-30T12:31:56Z</time>
      </trkpt>
      <trkpt lat="41.199545" lon="-6.729093">
        <ele>661.072</ele>
        <time>2015-03-30T12:31:58Z</time>
      </trkpt>
      <trkpt lat="41.199589" lon="-6.729127">
        <ele>660.677</ele>
        <time>2015-03-30T12:31:59Z</time>
      </trkpt>
      <trkpt lat="41.199628" lon="-6.729174">
        <ele>660.142</ele>
        <time>2015-03-30T12:32:00Z</time>
      </trkpt>
      <trkpt lat="41.199662" lon="-6.729229">
        <ele>659.126</ele>
        <time>2015-03-30T12:32:01Z</time>
      </trkpt>
      <trkpt lat="41.199692" lon="-6.729294">
        <ele>659.176</ele>
        <time>2015-03-30T12:32:02Z</time>
      </trkpt>
      <trkpt lat="41.199722" lon="-6.729370">
        <ele>658.659</ele>
        <time>2015-03-30T12:32:03Z</time>
      </trkpt>
      <trkpt lat="41.199820" lon="-6.729602">
        <ele>657.264</ele>
        <time>2015-03-30T12:32:06Z</time>
      </trkpt>
      <trkpt lat="41.199861" lon="-6.729667">
        <ele>657.266</ele>
        <time>2015-03-30T12:32:07Z</time>
      </trkpt>
      <trkpt lat="41.199909" lon="-6.729723">
        <ele>657.229</ele>
        <time>2015-03-30T12:32:08Z</time>
      </trkpt>
      <trkpt lat="41.199967" lon="-6.729765">
        <ele>656.721</ele>
        <time>2015-03-30T12:32:09Z</time>
      </trkpt>
      <trkpt lat="41.200032" lon="-6.729784">
        <ele>656.207</ele>
        <time>2015-03-30T12:32:10Z</time>
      </trkpt>
      <trkpt lat="41.200102" lon="-6.729776">
        <ele>655.885</ele>
        <time>2015-03-30T12:32:11Z</time>
      </trkpt>
      <trkpt lat="41.200169" lon="-6.729752">
        <ele>655.890</ele>
        <time>2015-03-30T12:32:12Z</time>
      </trkpt>
      <trkpt lat="41.200234" lon="-6.729727">
        <ele>655.825</ele>
        <time>2015-03-30T12:32:13Z</time>
      </trkpt>
      <trkpt lat="41.200294" lon="-6.729717">
        <ele>655.389</ele>
        <time>2015-03-30T12:32:14Z</time>
      </trkpt>
      <trkpt lat="41.200346" lon="-6.729734">
        <ele>654.399</ele>
        <time>2015-03-30T12:32:15Z</time>
      </trkpt>
      <trkpt lat="41.200382" lon="-6.729780">
        <ele>653.832</ele>
        <time>2015-03-30T12:32:16Z</time>
      </trkpt>
      <trkpt lat="41.200399" lon="-6.729845">
        <ele>653.437</ele>
        <time>2015-03-30T12:32:17Z</time>
      </trkpt>
      <trkpt lat="41.200407" lon="-6.729910">
        <ele>653.426</ele>
        <time>2015-03-30T12:32:18Z</time>
      </trkpt>
      <trkpt lat="41.200422" lon="-6.729968">
        <ele>651.447</ele>
        <time>2015-03-30T12:32:19Z</time>
      </trkpt>
      <trkpt lat="41.200444" lon="-6.730018">
        <ele>654.811</ele>
        <time>2015-03-30T12:32:20Z</time>
      </trkpt>
      <trkpt lat="41.200474" lon="-6.730066">
        <ele>653.807</ele>
        <time>2015-03-30T12:32:21Z</time>
      </trkpt>
      <trkpt lat="41.200508" lon="-6.730109">
        <ele>653.461</ele>
        <time>2015-03-30T12:32:22Z</time>
      </trkpt>
      <trkpt lat="41.200535" lon="-6.730142">
        <ele>652.966</ele>
        <time>2015-03-30T12:32:23Z</time>
      </trkpt>
      <trkpt lat="41.200557" lon="-6.730170">
        <ele>653.481</ele>
        <time>2015-03-30T12:32:28Z</time>
      </trkpt>
      <trkpt lat="41.200618" lon="-6.730220">
        <ele>651.025</ele>
        <time>2015-03-30T12:32:42Z</time>
      </trkpt>
      <trkpt lat="41.200635" lon="-6.730233">
        <ele>654.355</ele>
        <time>2015-03-30T12:32:43Z</time>
      </trkpt>
      <trkpt lat="41.200698" lon="-6.730243">
        <ele>652.418</ele>
        <time>2015-03-30T12:32:46Z</time>
      </trkpt>
      <trkpt lat="41.200722" lon="-6.730224">
        <ele>652.493</ele>
        <time>2015-03-30T12:32:47Z</time>
      </trkpt>
      <trkpt lat="41.200746" lon="-6.730203">
        <ele>652.921</ele>
        <time>2015-03-30T12:32:48Z</time>
      </trkpt>
      <trkpt lat="41.200772" lon="-6.730185">
        <ele>652.441</ele>
        <time>2015-03-30T12:32:49Z</time>
      </trkpt>
      <trkpt lat="41.200802" lon="-6.730179">
        <ele>652.405</ele>
        <time>2015-03-30T12:32:50Z</time>
      </trkpt>
      <trkpt lat="41.200835" lon="-6.730177">
        <ele>651.907</ele>
        <time>2015-03-30T12:32:51Z</time>
      </trkpt>
      <trkpt lat="41.200868" lon="-6.730177">
        <ele>652.481</ele>
        <time>2015-03-30T12:32:52Z</time>
      </trkpt>
      <trkpt lat="41.200896" lon="-6.730180">
        <ele>652.916</ele>
        <time>2015-03-30T12:32:53Z</time>
      </trkpt>
      <trkpt lat="41.200919" lon="-6.730181">
        <ele>652.491</ele>
        <time>2015-03-30T12:32:54Z</time>
      </trkpt>
      <trkpt lat="41.200941" lon="-6.730180">
        <ele>652.975</ele>
        <time>2015-03-30T12:32:55Z</time>
      </trkpt>
      <trkpt lat="41.200998" lon="-6.730174">
        <ele>644.795</ele>
        <time>2015-03-30T12:32:58Z</time>
      </trkpt>
      <trkpt lat="41.201018" lon="-6.730171">
        <ele>657.728</ele>
        <time>2015-03-30T12:32:59Z</time>
      </trkpt>
      <trkpt lat="41.201037" lon="-6.730167">
        <ele>653.423</ele>
        <time>2015-03-30T12:33:00Z</time>
      </trkpt>
      <trkpt lat="41.201258" lon="-6.730071">
        <ele>655.347</ele>
        <time>2015-03-30T12:33:12Z</time>
      </trkpt>
      <trkpt lat="41.201386" lon="-6.729994">
        <ele>650.529</ele>
        <time>2015-03-30T12:33:20Z</time>
      </trkpt>
      <trkpt lat="41.201399" lon="-6.729984">
        <ele>662.521</ele>
        <time>2015-03-30T12:33:21Z</time>
      </trkpt>
      <trkpt lat="41.201414" lon="-6.729974">
        <ele>657.707</ele>
        <time>2015-03-30T12:33:22Z</time>
      </trkpt>
      <trkpt lat="41.201456" lon="-6.729948">
        <ele>657.773</ele>
        <time>2015-03-30T12:33:25Z</time>
      </trkpt>
      <trkpt lat="41.201475" lon="-6.729939">
        <ele>657.778</ele>
        <time>2015-03-30T12:33:26Z</time>
      </trkpt>
      <trkpt lat="41.201493" lon="-6.729927">
        <ele>657.733</ele>
        <time>2015-03-30T12:33:27Z</time>
      </trkpt>
      <trkpt lat="41.201512" lon="-6.729921">
        <ele>657.767</ele>
        <time>2015-03-30T12:33:28Z</time>
      </trkpt>
      <trkpt lat="41.201531" lon="-6.729915">
        <ele>658.217</ele>
        <time>2015-03-30T12:33:29Z</time>
      </trkpt>
      <trkpt lat="41.201719" lon="-6.729856">
        <ele>660.620</ele>
        <time>2015-03-30T12:33:39Z</time>
      </trkpt>
      <trkpt lat="41.201926" lon="-6.729836">
        <ele>662.085</ele>
        <time>2015-03-30T12:33:50Z</time>
      </trkpt>
      <trkpt lat="41.202171" lon="-6.729834">
        <ele>663.542</ele>
        <time>2015-03-30T12:34:02Z</time>
      </trkpt>
      <trkpt lat="41.202368" lon="-6.729815">
        <ele>665.422</ele>
        <time>2015-03-30T12:34:12Z</time>
      </trkpt>
      <trkpt lat="41.202476" lon="-6.729799">
        <ele>666.314</ele>
        <time>2015-03-30T12:34:18Z</time>
      </trkpt>
      <trkpt lat="41.202492" lon="-6.729789">
        <ele>666.307</ele>
        <time>2015-03-30T12:34:19Z</time>
      </trkpt>
      <trkpt lat="41.202665" lon="-6.729684">
        <ele>668.323</ele>
        <time>2015-03-30T12:34:28Z</time>
      </trkpt>
      <trkpt lat="41.202681" lon="-6.729669">
        <ele>668.398</ele>
        <time>2015-03-30T12:34:29Z</time>
      </trkpt>
      <trkpt lat="41.202698" lon="-6.729653">
        <ele>668.333</ele>
        <time>2015-03-30T12:34:30Z</time>
      </trkpt>
      <trkpt lat="41.202715" lon="-6.729639">
        <ele>666.327</ele>
        <time>2015-03-30T12:34:31Z</time>
      </trkpt>
      <trkpt lat="41.202732" lon="-6.729620">
        <ele>669.737</ele>
        <time>2015-03-30T12:34:32Z</time>
      </trkpt>
      <trkpt lat="41.202750" lon="-6.729596">
        <ele>668.380</ele>
        <time>2015-03-30T12:34:33Z</time>
      </trkpt>
      <trkpt lat="41.202766" lon="-6.729574">
        <ele>668.795</ele>
        <time>2015-03-30T12:34:34Z</time>
      </trkpt>
      <trkpt lat="41.202782" lon="-6.729552">
        <ele>668.791</ele>
        <time>2015-03-30T12:34:35Z</time>
      </trkpt>
      <trkpt lat="41.202796" lon="-6.729529">
        <ele>668.781</ele>
        <time>2015-03-30T12:34:36Z</time>
      </trkpt>
      <trkpt lat="41.202808" lon="-6.729506">
        <ele>668.719</ele>
        <time>2015-03-30T12:34:37Z</time>
      </trkpt>
      <trkpt lat="41.202953" lon="-6.729306">
        <ele>668.307</ele>
        <time>2015-03-30T12:34:46Z</time>
      </trkpt>
      <trkpt lat="41.203258" lon="-6.729199">
        <ele>668.318</ele>
        <time>2015-03-30T12:34:56Z</time>
      </trkpt>
      <trkpt lat="41.203547" lon="-6.729364">
        <ele>669.213</ele>
        <time>2015-03-30T12:35:06Z</time>
      </trkpt>
      <trkpt lat="41.203611" lon="-6.729495">
        <ele>670.728</ele>
        <time>2015-03-30T12:35:12Z</time>
      </trkpt>
      <trkpt lat="41.203623" lon="-6.729514">
        <ele>671.112</ele>
        <time>2015-03-30T12:35:13Z</time>
      </trkpt>
      <trkpt lat="41.203641" lon="-6.729523">
        <ele>671.172</ele>
        <time>2015-03-30T12:35:14Z</time>
      </trkpt>
      <trkpt lat="41.203657" lon="-6.729526">
        <ele>671.685</ele>
        <time>2015-03-30T12:35:15Z</time>
      </trkpt>
      <trkpt lat="41.203672" lon="-6.729532">
        <ele>671.670</ele>
        <time>2015-03-30T12:35:16Z</time>
      </trkpt>
      <trkpt lat="41.203688" lon="-6.729539">
        <ele>672.143</ele>
        <time>2015-03-30T12:35:17Z</time>
      </trkpt>
      <trkpt lat="41.203703" lon="-6.729552">
        <ele>672.164</ele>
        <time>2015-03-30T12:35:18Z</time>
      </trkpt>
      <trkpt lat="41.203718" lon="-6.729564">
        <ele>672.110</ele>
        <time>2015-03-30T12:35:19Z</time>
      </trkpt>
      <trkpt lat="41.203906" lon="-6.729665">
        <ele>674.507</ele>
        <time>2015-03-30T12:35:31Z</time>
      </trkpt>
      <trkpt lat="41.203935" lon="-6.729674">
        <ele>675.033</ele>
        <time>2015-03-30T12:35:33Z</time>
      </trkpt>
      <trkpt lat="41.203978" lon="-6.729656">
        <ele>675.538</ele>
        <time>2015-03-30T12:35:36Z</time>
      </trkpt>
      <trkpt lat="41.203991" lon="-6.729647">
        <ele>675.563</ele>
        <time>2015-03-30T12:35:37Z</time>
      </trkpt>
      <trkpt lat="41.204008" lon="-6.729639">
        <ele>675.967</ele>
        <time>2015-03-30T12:35:38Z</time>
      </trkpt>
      <trkpt lat="41.204024" lon="-6.729633">
        <ele>675.937</ele>
        <time>2015-03-30T12:35:39Z</time>
      </trkpt>
      <trkpt lat="41.204039" lon="-6.729629">
        <ele>674.540</ele>
        <time>2015-03-30T12:35:40Z</time>
      </trkpt>
      <trkpt lat="41.204053" lon="-6.729619">
        <ele>680.395</ele>
        <time>2015-03-30T12:35:41Z</time>
      </trkpt>
      <trkpt lat="41.204068" lon="-6.729611">
        <ele>674.045</ele>
        <time>2015-03-30T12:35:42Z</time>
      </trkpt>
      <trkpt lat="41.204083" lon="-6.729604">
        <ele>677.947</ele>
        <time>2015-03-30T12:35:43Z</time>
      </trkpt>
      <trkpt lat="41.204098" lon="-6.729594">
        <ele>676.411</ele>
        <time>2015-03-30T12:35:44Z</time>
      </trkpt>
      <trkpt lat="41.204110" lon="-6.729581">
        <ele>677.407</ele>
        <time>2015-03-30T12:35:45Z</time>
      </trkpt>
      <trkpt lat="41.204126" lon="-6.729570">
        <ele>677.423</ele>
        <time>2015-03-30T12:35:46Z</time>
      </trkpt>
      <trkpt lat="41.204143" lon="-6.729561">
        <ele>677.478</ele>
        <time>2015-03-30T12:35:47Z</time>
      </trkpt>
      <trkpt lat="41.204159" lon="-6.729553">
        <ele>677.423</ele>
        <time>2015-03-30T12:35:48Z</time>
      </trkpt>
      <trkpt lat="41.204175" lon="-6.729542">
        <ele>677.497</ele>
        <time>2015-03-30T12:35:49Z</time>
      </trkpt>
      <trkpt lat="41.204192" lon="-6.729532">
        <ele>677.937</ele>
        <time>2015-03-30T12:35:50Z</time>
      </trkpt>
      <trkpt lat="41.204348" lon="-6.729435">
        <ele>679.360</ele>
        <time>2015-03-30T12:36:00Z</time>
      </trkpt>
      <trkpt lat="41.204488" lon="-6.729295">
        <ele>680.835</ele>
        <time>2015-03-30T12:36:10Z</time>
      </trkpt>
      <trkpt lat="41.204610" lon="-6.729147">
        <ele>682.224</ele>
        <time>2015-03-30T12:36:19Z</time>
      </trkpt>
      <trkpt lat="41.204626" lon="-6.729132">
        <ele>682.204</ele>
        <time>2015-03-30T12:36:20Z</time>
      </trkpt>
      <trkpt lat="41.204730" lon="-6.729006">
        <ele>683.614</ele>
        <time>2015-03-30T12:36:29Z</time>
      </trkpt>
      <trkpt lat="41.204741" lon="-6.728989">
        <ele>683.607</ele>
        <time>2015-03-30T12:36:30Z</time>
      </trkpt>
      <trkpt lat="41.204750" lon="-6.728969">
        <ele>683.691</ele>
        <time>2015-03-30T12:36:31Z</time>
      </trkpt>
      <trkpt lat="41.204762" lon="-6.728950">
        <ele>683.646</ele>
        <time>2015-03-30T12:36:32Z</time>
      </trkpt>
      <trkpt lat="41.204776" lon="-6.728937">
        <ele>684.131</ele>
        <time>2015-03-30T12:36:33Z</time>
      </trkpt>
      <trkpt lat="41.204788" lon="-6.728923">
        <ele>684.115</ele>
        <time>2015-03-30T12:36:34Z</time>
      </trkpt>
      <trkpt lat="41.204797" lon="-6.728907">
        <ele>684.145</ele>
        <time>2015-03-30T12:36:35Z</time>
      </trkpt>
      <trkpt lat="41.204807" lon="-6.728895">
        <ele>684.638</ele>
        <time>2015-03-30T12:36:36Z</time>
      </trkpt>
      <trkpt lat="41.204816" lon="-6.728884">
        <ele>684.663</ele>
        <time>2015-03-30T12:36:37Z</time>
      </trkpt>
      <trkpt lat="41.204827" lon="-6.728870">
        <ele>684.656</ele>
        <time>2015-03-30T12:36:38Z</time>
      </trkpt>
      <trkpt lat="41.204836" lon="-6.728853">
        <ele>684.659</ele>
        <time>2015-03-30T12:36:39Z</time>
      </trkpt>
      <trkpt lat="41.204906" lon="-6.728689">
        <ele>686.014</ele>
        <time>2015-03-30T12:36:48Z</time>
      </trkpt>
      <trkpt lat="41.204919" lon="-6.728676">
        <ele>686.507</ele>
        <time>2015-03-30T12:36:49Z</time>
      </trkpt>
      <trkpt lat="41.204927" lon="-6.728661">
        <ele>686.574</ele>
        <time>2015-03-30T12:36:50Z</time>
      </trkpt>
      <trkpt lat="41.204931" lon="-6.728645">
        <ele>686.519</ele>
        <time>2015-03-30T12:36:51Z</time>
      </trkpt>
      <trkpt lat="41.204938" lon="-6.728631">
        <ele>686.534</ele>
        <time>2015-03-30T12:36:52Z</time>
      </trkpt>
      <trkpt lat="41.204945" lon="-6.728617">
        <ele>687.018</ele>
        <time>2015-03-30T12:36:53Z</time>
      </trkpt>
      <trkpt lat="41.204950" lon="-6.728600">
        <ele>687.078</ele>
        <time>2015-03-30T12:36:54Z</time>
      </trkpt>
      <trkpt lat="41.204956" lon="-6.728584">
        <ele>687.041</ele>
        <time>2015-03-30T12:36:55Z</time>
      </trkpt>
      <trkpt lat="41.204963" lon="-6.728569">
        <ele>687.566</ele>
        <time>2015-03-30T12:36:56Z</time>
      </trkpt>
      <trkpt lat="41.204970" lon="-6.728556">
        <ele>687.571</ele>
        <time>2015-03-30T12:36:57Z</time>
      </trkpt>
      <trkpt lat="41.204979" lon="-6.728542">
        <ele>687.541</ele>
        <time>2015-03-30T12:36:58Z</time>
      </trkpt>
      <trkpt lat="41.204988" lon="-6.728526">
        <ele>688.015</ele>
        <time>2015-03-30T12:36:59Z</time>
      </trkpt>
      <trkpt lat="41.204999" lon="-6.728513">
        <ele>688.007</ele>
        <time>2015-03-30T12:37:00Z</time>
      </trkpt>
      <trkpt lat="41.205007" lon="-6.728499">
        <ele>688.036</ele>
        <time>2015-03-30T12:37:01Z</time>
      </trkpt>
      <trkpt lat="41.205013" lon="-6.728481">
        <ele>688.491</ele>
        <time>2015-03-30T12:37:02Z</time>
      </trkpt>
      <trkpt lat="41.205017" lon="-6.728463">
        <ele>688.476</ele>
        <time>2015-03-30T12:37:03Z</time>
      </trkpt>
      <trkpt lat="41.205021" lon="-6.728445">
        <ele>688.430</ele>
        <time>2015-03-30T12:37:04Z</time>
      </trkpt>
      <trkpt lat="41.205027" lon="-6.728427">
        <ele>688.980</ele>
        <time>2015-03-30T12:37:05Z</time>
      </trkpt>
      <trkpt lat="41.205039" lon="-6.728413">
        <ele>688.943</ele>
        <time>2015-03-30T12:37:06Z</time>
      </trkpt>
      <trkpt lat="41.205055" lon="-6.728400">
        <ele>688.998</ele>
        <time>2015-03-30T12:37:07Z</time>
      </trkpt>
      <trkpt lat="41.205068" lon="-6.728391">
        <ele>688.991</ele>
        <time>2015-03-30T12:37:08Z</time>
      </trkpt>
      <trkpt lat="41.205079" lon="-6.728381">
        <ele>689.481</ele>
        <time>2015-03-30T12:37:09Z</time>
      </trkpt>
      <trkpt lat="41.205092" lon="-6.728371">
        <ele>689.419</ele>
        <time>2015-03-30T12:37:10Z</time>
      </trkpt>
      <trkpt lat="41.205108" lon="-6.728346">
        <ele>689.907</ele>
        <time>2015-03-30T12:37:12Z</time>
      </trkpt>
      <trkpt lat="41.205119" lon="-6.728333">
        <ele>689.998</ele>
        <time>2015-03-30T12:37:13Z</time>
      </trkpt>
      <trkpt lat="41.205131" lon="-6.728321">
        <ele>690.423</ele>
        <time>2015-03-30T12:37:14Z</time>
      </trkpt>
      <trkpt lat="41.205144" lon="-6.728307">
        <ele>689.988</ele>
        <time>2015-03-30T12:37:15Z</time>
      </trkpt>
      <trkpt lat="41.205155" lon="-6.728295">
        <ele>690.472</ele>
        <time>2015-03-30T12:37:16Z</time>
      </trkpt>
      <trkpt lat="41.205171" lon="-6.728285">
        <ele>688.962</ele>
        <time>2015-03-30T12:37:18Z</time>
      </trkpt>
      <trkpt lat="41.205182" lon="-6.728278">
        <ele>691.345</ele>
        <time>2015-03-30T12:37:19Z</time>
      </trkpt>
      <trkpt lat="41.205190" lon="-6.728270">
        <ele>690.830</ele>
        <time>2015-03-30T12:37:20Z</time>
      </trkpt>
      <trkpt lat="41.205203" lon="-6.728260">
        <ele>690.838</ele>
        <time>2015-03-30T12:37:21Z</time>
      </trkpt>
      <trkpt lat="41.205220" lon="-6.728254">
        <ele>690.870</ele>
        <time>2015-03-30T12:37:22Z</time>
      </trkpt>
      <trkpt lat="41.205236" lon="-6.728250">
        <ele>690.817</ele>
        <time>2015-03-30T12:37:23Z</time>
      </trkpt>
      <trkpt lat="41.205248" lon="-6.728241">
        <ele>691.307</ele>
        <time>2015-03-30T12:37:24Z</time>
      </trkpt>
      <trkpt lat="41.205270" lon="-6.728232">
        <ele>691.352</ele>
        <time>2015-03-30T12:37:26Z</time>
      </trkpt>
      <trkpt lat="41.205279" lon="-6.728233">
        <ele>691.897</ele>
        <time>2015-03-30T12:37:27Z</time>
      </trkpt>
      <trkpt lat="41.205309" lon="-6.728240">
        <ele>692.382</ele>
        <time>2015-03-30T12:37:31Z</time>
      </trkpt>
      <trkpt lat="41.205371" lon="-6.728281">
        <ele>692.866</ele>
        <time>2015-03-30T12:37:38Z</time>
      </trkpt>
      <trkpt lat="41.205380" lon="-6.728292">
        <ele>692.836</ele>
        <time>2015-03-30T12:37:39Z</time>
      </trkpt>
      <trkpt lat="41.205389" lon="-6.728303">
        <ele>692.839</ele>
        <time>2015-03-30T12:37:40Z</time>
      </trkpt>
      <trkpt lat="41.205398" lon="-6.728320">
        <ele>692.894</ele>
        <time>2015-03-30T12:37:41Z</time>
      </trkpt>
      <trkpt lat="41.205400" lon="-6.728338">
        <ele>693.364</ele>
        <time>2015-03-30T12:37:42Z</time>
      </trkpt>
      <trkpt lat="41.205401" lon="-6.728359">
        <ele>693.306</ele>
        <time>2015-03-30T12:37:43Z</time>
      </trkpt>
      <trkpt lat="41.205407" lon="-6.728383">
        <ele>693.716</ele>
        <time>2015-03-30T12:37:44Z</time>
      </trkpt>
      <trkpt lat="41.205417" lon="-6.728401">
        <ele>693.707</ele>
        <time>2015-03-30T12:37:45Z</time>
      </trkpt>
      <trkpt lat="41.205425" lon="-6.728417">
        <ele>694.215</ele>
        <time>2015-03-30T12:37:46Z</time>
      </trkpt>
      <trkpt lat="41.205431" lon="-6.728433">
        <ele>694.270</ele>
        <time>2015-03-30T12:37:47Z</time>
      </trkpt>
      <trkpt lat="41.205517" lon="-6.728519">
        <ele>695.265</ele>
        <time>2015-03-30T12:37:54Z</time>
      </trkpt>
      <trkpt lat="41.205531" lon="-6.728522">
        <ele>696.179</ele>
        <time>2015-03-30T12:37:55Z</time>
      </trkpt>
      <trkpt lat="41.205543" lon="-6.728529">
        <ele>695.759</ele>
        <time>2015-03-30T12:37:56Z</time>
      </trkpt>
      <trkpt lat="41.205557" lon="-6.728535">
        <ele>695.762</ele>
        <time>2015-03-30T12:37:57Z</time>
      </trkpt>
      <trkpt lat="41.205574" lon="-6.728536">
        <ele>696.127</ele>
        <time>2015-03-30T12:37:58Z</time>
      </trkpt>
      <trkpt lat="41.205592" lon="-6.728534">
        <ele>696.122</ele>
        <time>2015-03-30T12:37:59Z</time>
      </trkpt>
      <trkpt lat="41.205611" lon="-6.728530">
        <ele>696.162</ele>
        <time>2015-03-30T12:38:00Z</time>
      </trkpt>
      <trkpt lat="41.205627" lon="-6.728528">
        <ele>696.108</ele>
        <time>2015-03-30T12:38:01Z</time>
      </trkpt>
      <trkpt lat="41.205779" lon="-6.728497">
        <ele>697.107</ele>
        <time>2015-03-30T12:38:11Z</time>
      </trkpt>
      <trkpt lat="41.205794" lon="-6.728494">
        <ele>697.621</ele>
        <time>2015-03-30T12:38:12Z</time>
      </trkpt>
      <trkpt lat="41.205810" lon="-6.728493">
        <ele>697.646</ele>
        <time>2015-03-30T12:38:13Z</time>
      </trkpt>
      <trkpt lat="41.205826" lon="-6.728494">
        <ele>697.621</ele>
        <time>2015-03-30T12:38:14Z</time>
      </trkpt>
      <trkpt lat="41.205843" lon="-6.728494">
        <ele>698.185</ele>
        <time>2015-03-30T12:38:15Z</time>
      </trkpt>
      <trkpt lat="41.205907" lon="-6.728492">
        <ele>698.185</ele>
        <time>2015-03-30T12:38:19Z</time>
      </trkpt>
      <trkpt lat="41.205922" lon="-6.728484">
        <ele>698.528</ele>
        <time>2015-03-30T12:38:20Z</time>
      </trkpt>
      <trkpt lat="41.205937" lon="-6.728478">
        <ele>696.653</ele>
        <time>2015-03-30T12:38:21Z</time>
      </trkpt>
      <trkpt lat="41.205953" lon="-6.728472">
        <ele>700.066</ele>
        <time>2015-03-30T12:38:22Z</time>
      </trkpt>
      <trkpt lat="41.206026" lon="-6.728461">
        <ele>699.029</ele>
        <time>2015-03-30T12:38:27Z</time>
      </trkpt>
      <trkpt lat="41.206039" lon="-6.728452">
        <ele>699.521</ele>
        <time>2015-03-30T12:38:28Z</time>
      </trkpt>
      <trkpt lat="41.206053" lon="-6.728450">
        <ele>700.007</ele>
        <time>2015-03-30T12:38:29Z</time>
      </trkpt>
      <trkpt lat="41.206069" lon="-6.728453">
        <ele>699.575</ele>
        <time>2015-03-30T12:38:30Z</time>
      </trkpt>
      <trkpt lat="41.206084" lon="-6.728461">
        <ele>699.580</ele>
        <time>2015-03-30T12:38:31Z</time>
      </trkpt>
      <trkpt lat="41.206098" lon="-6.728467">
        <ele>699.555</ele>
        <time>2015-03-30T12:38:32Z</time>
      </trkpt>
      <trkpt lat="41.206114" lon="-6.728467">
        <ele>700.059</ele>
        <time>2015-03-30T12:38:33Z</time>
      </trkpt>
      <trkpt lat="41.206132" lon="-6.728464">
        <ele>700.059</ele>
        <time>2015-03-30T12:38:34Z</time>
      </trkpt>
      <trkpt lat="41.206227" lon="-6.728424">
        <ele>700.562</ele>
        <time>2015-03-30T12:38:40Z</time>
      </trkpt>
      <trkpt lat="41.206240" lon="-6.728408">
        <ele>700.567</ele>
        <time>2015-03-30T12:38:41Z</time>
      </trkpt>
      <trkpt lat="41.206267" lon="-6.728388">
        <ele>700.565</ele>
        <time>2015-03-30T12:38:43Z</time>
      </trkpt>
      <trkpt lat="41.206282" lon="-6.728379">
        <ele>700.568</ele>
        <time>2015-03-30T12:38:44Z</time>
      </trkpt>
      <trkpt lat="41.206297" lon="-6.728364">
        <ele>700.514</ele>
        <time>2015-03-30T12:38:45Z</time>
      </trkpt>
      <trkpt lat="41.206311" lon="-6.728351">
        <ele>700.507</ele>
        <time>2015-03-30T12:38:46Z</time>
      </trkpt>
      <trkpt lat="41.206324" lon="-6.728333">
        <ele>700.525</ele>
        <time>2015-03-30T12:38:47Z</time>
      </trkpt>
      <trkpt lat="41.206335" lon="-6.728311">
        <ele>700.550</ele>
        <time>2015-03-30T12:38:48Z</time>
      </trkpt>
      <trkpt lat="41.206440" lon="-6.728088">
        <ele>700.545</ele>
        <time>2015-03-30T12:38:58Z</time>
      </trkpt>
      <trkpt lat="41.206548" lon="-6.727824">
        <ele>700.939</ele>
        <time>2015-03-30T12:39:08Z</time>
      </trkpt>
      <trkpt lat="41.206590" lon="-6.727696">
        <ele>701.979</ele>
        <time>2015-03-30T12:39:14Z</time>
      </trkpt>
      <trkpt lat="41.206600" lon="-6.727669">
        <ele>701.942</ele>
        <time>2015-03-30T12:39:15Z</time>
      </trkpt>
      <trkpt lat="41.206658" lon="-6.727562">
        <ele>702.987</ele>
        <time>2015-03-30T12:39:20Z</time>
      </trkpt>
      <trkpt lat="41.206667" lon="-6.727535">
        <ele>702.992</ele>
        <time>2015-03-30T12:39:21Z</time>
      </trkpt>
      <trkpt lat="41.206674" lon="-6.727506">
        <ele>702.973</ele>
        <time>2015-03-30T12:39:22Z</time>
      </trkpt>
      <trkpt lat="41.206681" lon="-6.727477">
        <ele>703.320</ele>
        <time>2015-03-30T12:39:23Z</time>
      </trkpt>
      <trkpt lat="41.206690" lon="-6.727455">
        <ele>703.307</ele>
        <time>2015-03-30T12:39:24Z</time>
      </trkpt>
      <trkpt lat="41.206698" lon="-6.727434">
        <ele>703.358</ele>
        <time>2015-03-30T12:39:25Z</time>
      </trkpt>
      <trkpt lat="41.206708" lon="-6.727412">
        <ele>703.833</ele>
        <time>2015-03-30T12:39:26Z</time>
      </trkpt>
      <trkpt lat="41.206721" lon="-6.727389">
        <ele>704.378</ele>
        <time>2015-03-30T12:39:27Z</time>
      </trkpt>
      <trkpt lat="41.206735" lon="-6.727366">
        <ele>704.362</ele>
        <time>2015-03-30T12:39:28Z</time>
      </trkpt>
      <trkpt lat="41.206747" lon="-6.727343">
        <ele>704.842</ele>
        <time>2015-03-30T12:39:29Z</time>
      </trkpt>
      <trkpt lat="41.206757" lon="-6.727324">
        <ele>704.875</ele>
        <time>2015-03-30T12:39:30Z</time>
      </trkpt>
      <trkpt lat="41.206769" lon="-6.727306">
        <ele>704.810</ele>
        <time>2015-03-30T12:39:31Z</time>
      </trkpt>
      <trkpt lat="41.206783" lon="-6.727292">
        <ele>704.872</ele>
        <time>2015-03-30T12:39:32Z</time>
      </trkpt>
      <trkpt lat="41.206800" lon="-6.727279">
        <ele>705.313</ele>
        <time>2015-03-30T12:39:33Z</time>
      </trkpt>
      <trkpt lat="41.206815" lon="-6.727266">
        <ele>705.314</ele>
        <time>2015-03-30T12:39:34Z</time>
      </trkpt>
      <trkpt lat="41.206859" lon="-6.727165">
        <ele>706.707</ele>
        <time>2015-03-30T12:39:39Z</time>
      </trkpt>
      <trkpt lat="41.206874" lon="-6.727153">
        <ele>706.766</ele>
        <time>2015-03-30T12:39:40Z</time>
      </trkpt>
      <trkpt lat="41.206889" lon="-6.727145">
        <ele>707.231</ele>
        <time>2015-03-30T12:39:41Z</time>
      </trkpt>
      <trkpt lat="41.206966" lon="-6.727103">
        <ele>707.276</ele>
        <time>2015-03-30T12:39:46Z</time>
      </trkpt>
      <trkpt lat="41.206975" lon="-6.727088">
        <ele>707.780</ele>
        <time>2015-03-30T12:39:47Z</time>
      </trkpt>
      <trkpt lat="41.206984" lon="-6.727070">
        <ele>707.740</ele>
        <time>2015-03-30T12:39:48Z</time>
      </trkpt>
      <trkpt lat="41.206997" lon="-6.727057">
        <ele>707.783</ele>
        <time>2015-03-30T12:39:49Z</time>
      </trkpt>
      <trkpt lat="41.207013" lon="-6.727051">
        <ele>708.258</ele>
        <time>2015-03-30T12:39:50Z</time>
      </trkpt>
      <trkpt lat="41.207027" lon="-6.727040">
        <ele>708.215</ele>
        <time>2015-03-30T12:39:51Z</time>
      </trkpt>
      <trkpt lat="41.207037" lon="-6.727026">
        <ele>708.665</ele>
        <time>2015-03-30T12:39:52Z</time>
      </trkpt>
      <trkpt lat="41.207047" lon="-6.727012">
        <ele>709.111</ele>
        <time>2015-03-30T12:39:53Z</time>
      </trkpt>
      <trkpt lat="41.207056" lon="-6.726997">
        <ele>709.107</ele>
        <time>2015-03-30T12:39:54Z</time>
      </trkpt>
      <trkpt lat="41.207063" lon="-6.726980">
        <ele>710.150</ele>
        <time>2015-03-30T12:39:55Z</time>
      </trkpt>
      <trkpt lat="41.207073" lon="-6.726966">
        <ele>709.145</ele>
        <time>2015-03-30T12:39:56Z</time>
      </trkpt>
      <trkpt lat="41.207080" lon="-6.726951">
        <ele>709.670</ele>
        <time>2015-03-30T12:39:57Z</time>
      </trkpt>
      <trkpt lat="41.207090" lon="-6.726932">
        <ele>709.624</ele>
        <time>2015-03-30T12:39:58Z</time>
      </trkpt>
      <trkpt lat="41.207105" lon="-6.726914">
        <ele>709.654</ele>
        <time>2015-03-30T12:39:59Z</time>
      </trkpt>
      <trkpt lat="41.207117" lon="-6.726897">
        <ele>710.137</ele>
        <time>2015-03-30T12:40:00Z</time>
      </trkpt>
      <trkpt lat="41.207217" lon="-6.726707">
        <ele>711.542</ele>
        <time>2015-03-30T12:40:09Z</time>
      </trkpt>
      <trkpt lat="41.207269" lon="-6.726586">
        <ele>714.931</ele>
        <time>2015-03-30T12:40:15Z</time>
      </trkpt>
      <trkpt lat="41.207394" lon="-6.726352">
        <ele>712.561</ele>
        <time>2015-03-30T12:40:26Z</time>
      </trkpt>
      <trkpt lat="41.207409" lon="-6.726331">
        <ele>712.507</ele>
        <time>2015-03-30T12:40:27Z</time>
      </trkpt>
      <trkpt lat="41.207421" lon="-6.726304">
        <ele>712.507</ele>
        <time>2015-03-30T12:40:28Z</time>
      </trkpt>
      <trkpt lat="41.207432" lon="-6.726274">
        <ele>712.572</ele>
        <time>2015-03-30T12:40:29Z</time>
      </trkpt>
      <trkpt lat="41.207444" lon="-6.726243">
        <ele>713.037</ele>
        <time>2015-03-30T12:40:30Z</time>
      </trkpt>
      <trkpt lat="41.207457" lon="-6.726218">
        <ele>712.542</ele>
        <time>2015-03-30T12:40:31Z</time>
      </trkpt>
      <trkpt lat="41.207472" lon="-6.726197">
        <ele>712.566</ele>
        <time>2015-03-30T12:40:32Z</time>
      </trkpt>
      <trkpt lat="41.207485" lon="-6.726179">
        <ele>712.576</ele>
        <time>2015-03-30T12:40:33Z</time>
      </trkpt>
      <trkpt lat="41.207498" lon="-6.726161">
        <ele>712.569</ele>
        <time>2015-03-30T12:40:34Z</time>
      </trkpt>
      <trkpt lat="41.207511" lon="-6.726143">
        <ele>712.584</ele>
        <time>2015-03-30T12:40:35Z</time>
      </trkpt>
      <trkpt lat="41.207526" lon="-6.726119">
        <ele>712.535</ele>
        <time>2015-03-30T12:40:36Z</time>
      </trkpt>
      <trkpt lat="41.207689" lon="-6.725863">
        <ele>712.586</ele>
        <time>2015-03-30T12:40:45Z</time>
      </trkpt>
      <trkpt lat="41.207915" lon="-6.725619">
        <ele>712.514</ele>
        <time>2015-03-30T12:40:55Z</time>
      </trkpt>
      <trkpt lat="41.208200" lon="-6.725500">
        <ele>712.507</ele>
        <time>2015-03-30T12:41:05Z</time>
      </trkpt>
      <trkpt lat="41.208440" lon="-6.725396">
        <ele>713.062</ele>
        <time>2015-03-30T12:41:13Z</time>
      </trkpt>
      <trkpt lat="41.208738" lon="-6.725261">
        <ele>713.427</ele>
        <time>2015-03-30T12:41:23Z</time>
      </trkpt>
      <trkpt lat="41.208981" lon="-6.725095">
        <ele>714.422</ele>
        <time>2015-03-30T12:41:32Z</time>
      </trkpt>
      <trkpt lat="41.209005" lon="-6.725079">
        <ele>714.446</ele>
        <time>2015-03-30T12:41:33Z</time>
      </trkpt>
      <trkpt lat="41.209186" lon="-6.724912">
        <ele>715.496</ele>
        <time>2015-03-30T12:41:42Z</time>
      </trkpt>
      <trkpt lat="41.209207" lon="-6.724905">
        <ele>715.489</ele>
        <time>2015-03-30T12:41:43Z</time>
      </trkpt>
      <trkpt lat="41.209225" lon="-6.724895">
        <ele>715.844</ele>
        <time>2015-03-30T12:41:44Z</time>
      </trkpt>
      <trkpt lat="41.209239" lon="-6.724881">
        <ele>715.863</ele>
        <time>2015-03-30T12:41:45Z</time>
      </trkpt>
      <trkpt lat="41.209252" lon="-6.724864">
        <ele>716.344</ele>
        <time>2015-03-30T12:41:46Z</time>
      </trkpt>
      <trkpt lat="41.209269" lon="-6.724852">
        <ele>716.318</ele>
        <time>2015-03-30T12:41:47Z</time>
      </trkpt>
      <trkpt lat="41.209290" lon="-6.724842">
        <ele>716.307</ele>
        <time>2015-03-30T12:41:48Z</time>
      </trkpt>
      <trkpt lat="41.209311" lon="-6.724834">
        <ele>716.895</ele>
        <time>2015-03-30T12:41:49Z</time>
      </trkpt>
      <trkpt lat="41.209327" lon="-6.724820">
        <ele>716.810</ele>
        <time>2015-03-30T12:41:50Z</time>
      </trkpt>
      <trkpt lat="41.209338" lon="-6.724801">
        <ele>716.835</ele>
        <time>2015-03-30T12:41:51Z</time>
      </trkpt>
      <trkpt lat="41.209353" lon="-6.724785">
        <ele>717.849</ele>
        <time>2015-03-30T12:41:52Z</time>
      </trkpt>
      <trkpt lat="41.209371" lon="-6.724780">
        <ele>717.329</ele>
        <time>2015-03-30T12:41:53Z</time>
      </trkpt>
      <trkpt lat="41.209390" lon="-6.724775">
        <ele>717.322</ele>
        <time>2015-03-30T12:41:54Z</time>
      </trkpt>
      <trkpt lat="41.209410" lon="-6.724771">
        <ele>717.897</ele>
        <time>2015-03-30T12:41:55Z</time>
      </trkpt>
      <trkpt lat="41.209432" lon="-6.724766">
        <ele>717.843</ele>
        <time>2015-03-30T12:41:56Z</time>
      </trkpt>
      <trkpt lat="41.209452" lon="-6.724762">
        <ele>718.264</ele>
        <time>2015-03-30T12:41:57Z</time>
      </trkpt>
      <trkpt lat="41.209469" lon="-6.724765">
        <ele>718.210</ele>
        <time>2015-03-30T12:41:58Z</time>
      </trkpt>
      <trkpt lat="41.209490" lon="-6.724769">
        <ele>718.207</ele>
        <time>2015-03-30T12:41:59Z</time>
      </trkpt>
      <trkpt lat="41.209510" lon="-6.724771">
        <ele>718.253</ele>
        <time>2015-03-30T12:42:00Z</time>
      </trkpt>
      <trkpt lat="41.209527" lon="-6.724770">
        <ele>718.718</ele>
        <time>2015-03-30T12:42:01Z</time>
      </trkpt>
      <trkpt lat="41.209712" lon="-6.724750">
        <ele>719.723</ele>
        <time>2015-03-30T12:42:11Z</time>
      </trkpt>
      <trkpt lat="41.209770" lon="-6.724724">
        <ele>720.277</ele>
        <time>2015-03-30T12:42:20Z</time>
      </trkpt>
      <trkpt lat="41.209776" lon="-6.724721">
        <ele>719.797</ele>
        <time>2015-03-30T12:42:29Z</time>
      </trkpt>
      <trkpt lat="41.209791" lon="-6.724695">
        <ele>719.710</ele>
        <time>2015-03-30T12:42:31Z</time>
      </trkpt>
      <trkpt lat="41.209796" lon="-6.724681">
        <ele>719.745</ele>
        <time>2015-03-30T12:42:32Z</time>
      </trkpt>
      <trkpt lat="41.209821" lon="-6.724610">
        <ele>719.758</ele>
        <time>2015-03-30T12:42:37Z</time>
      </trkpt>
      <trkpt lat="41.209831" lon="-6.724603">
        <ele>720.252</ele>
        <time>2015-03-30T12:42:38Z</time>
      </trkpt>
      <trkpt lat="41.209844" lon="-6.724598">
        <ele>720.217</ele>
        <time>2015-03-30T12:42:39Z</time>
      </trkpt>
      <trkpt lat="41.209871" lon="-6.724583">
        <ele>720.707</ele>
        <time>2015-03-30T12:42:41Z</time>
      </trkpt>
      <trkpt lat="41.209880" lon="-6.724567">
        <ele>720.764</ele>
        <time>2015-03-30T12:42:42Z</time>
      </trkpt>
      <trkpt lat="41.209892" lon="-6.724551">
        <ele>720.759</ele>
        <time>2015-03-30T12:42:43Z</time>
      </trkpt>
      <trkpt lat="41.209905" lon="-6.724538">
        <ele>720.764</ele>
        <time>2015-03-30T12:42:44Z</time>
      </trkpt>
      <trkpt lat="41.209918" lon="-6.724524">
        <ele>721.178</ele>
        <time>2015-03-30T12:42:45Z</time>
      </trkpt>
      <trkpt lat="41.209931" lon="-6.724513">
        <ele>721.138</ele>
        <time>2015-03-30T12:42:46Z</time>
      </trkpt>
      <trkpt lat="41.209946" lon="-6.724503">
        <ele>721.181</ele>
        <time>2015-03-30T12:42:47Z</time>
      </trkpt>
      <trkpt lat="41.209959" lon="-6.724487">
        <ele>721.636</ele>
        <time>2015-03-30T12:42:48Z</time>
      </trkpt>
      <trkpt lat="41.209975" lon="-6.724475">
        <ele>721.641</ele>
        <time>2015-03-30T12:42:49Z</time>
      </trkpt>
      <trkpt lat="41.209994" lon="-6.724469">
        <ele>721.681</ele>
        <time>2015-03-30T12:42:50Z</time>
      </trkpt>
      <trkpt lat="41.210011" lon="-6.724464">
        <ele>721.609</ele>
        <time>2015-03-30T12:42:51Z</time>
      </trkpt>
      <trkpt lat="41.210029" lon="-6.724460">
        <ele>722.107</ele>
        <time>2015-03-30T12:42:52Z</time>
      </trkpt>
      <trkpt lat="41.210048" lon="-6.724452">
        <ele>722.193</ele>
        <time>2015-03-30T12:42:53Z</time>
      </trkpt>
      <trkpt lat="41.210066" lon="-6.724444">
        <ele>722.158</ele>
        <time>2015-03-30T12:42:54Z</time>
      </trkpt>
      <trkpt lat="41.210087" lon="-6.724439">
        <ele>722.623</ele>
        <time>2015-03-30T12:42:55Z</time>
      </trkpt>
      <trkpt lat="41.210106" lon="-6.724434">
        <ele>722.687</ele>
        <time>2015-03-30T12:42:56Z</time>
      </trkpt>
      <trkpt lat="41.210123" lon="-6.724429">
        <ele>723.117</ele>
        <time>2015-03-30T12:42:57Z</time>
      </trkpt>
      <trkpt lat="41.210201" lon="-6.724395">
        <ele>723.170</ele>
        <time>2015-03-30T12:43:03Z</time>
      </trkpt>
      <trkpt lat="41.210205" lon="-6.724382">
        <ele>723.145</ele>
        <time>2015-03-30T12:43:04Z</time>
      </trkpt>
      <trkpt lat="41.210218" lon="-6.724369">
        <ele>723.582</ele>
        <time>2015-03-30T12:43:05Z</time>
      </trkpt>
      <trkpt lat="41.210255" lon="-6.724347">
        <ele>723.543</ele>
        <time>2015-03-30T12:43:07Z</time>
      </trkpt>
      <trkpt lat="41.210340" lon="-6.724330">
        <ele>724.017</ele>
        <time>2015-03-30T12:43:11Z</time>
      </trkpt>
      <trkpt lat="41.210358" lon="-6.724321">
        <ele>724.007</ele>
        <time>2015-03-30T12:43:12Z</time>
      </trkpt>
      <trkpt lat="41.210378" lon="-6.724315">
        <ele>724.047</ele>
        <time>2015-03-30T12:43:13Z</time>
      </trkpt>
      <trkpt lat="41.210399" lon="-6.724309">
        <ele>724.052</ele>
        <time>2015-03-30T12:43:14Z</time>
      </trkpt>
      <trkpt lat="41.210416" lon="-6.724303">
        <ele>724.527</ele>
        <time>2015-03-30T12:43:15Z</time>
      </trkpt>
      <trkpt lat="41.210434" lon="-6.724299">
        <ele>725.081</ele>
        <time>2015-03-30T12:43:16Z</time>
      </trkpt>
      <trkpt lat="41.210456" lon="-6.724296">
        <ele>724.551</ele>
        <time>2015-03-30T12:43:17Z</time>
      </trkpt>
      <trkpt lat="41.210476" lon="-6.724294">
        <ele>725.074</ele>
        <time>2015-03-30T12:43:18Z</time>
      </trkpt>
      <trkpt lat="41.210628" lon="-6.724229">
        <ele>725.919</ele>
        <time>2015-03-30T12:43:27Z</time>
      </trkpt>
      <trkpt lat="41.210643" lon="-6.724229">
        <ele>725.956</ele>
        <time>2015-03-30T12:43:28Z</time>
      </trkpt>
      <trkpt lat="41.210659" lon="-6.724217">
        <ele>725.959</ele>
        <time>2015-03-30T12:43:29Z</time>
      </trkpt>
      <trkpt lat="41.210674" lon="-6.724200">
        <ele>725.914</ele>
        <time>2015-03-30T12:43:30Z</time>
      </trkpt>
      <trkpt lat="41.210689" lon="-6.724183">
        <ele>725.907</ele>
        <time>2015-03-30T12:43:31Z</time>
      </trkpt>
      <trkpt lat="41.210745" lon="-6.724137">
        <ele>722.644</ele>
        <time>2015-03-30T12:43:35Z</time>
      </trkpt>
      <trkpt lat="41.210761" lon="-6.724131">
        <ele>726.999</ele>
        <time>2015-03-30T12:43:36Z</time>
      </trkpt>
      <trkpt lat="41.210779" lon="-6.724128">
        <ele>726.994</ele>
        <time>2015-03-30T12:43:37Z</time>
      </trkpt>
      <trkpt lat="41.210798" lon="-6.724129">
        <ele>726.928</ele>
        <time>2015-03-30T12:43:38Z</time>
      </trkpt>
      <trkpt lat="41.210816" lon="-6.724126">
        <ele>727.458</ele>
        <time>2015-03-30T12:43:39Z</time>
      </trkpt>
      <trkpt lat="41.210836" lon="-6.724122">
        <ele>727.411</ele>
        <time>2015-03-30T12:43:40Z</time>
      </trkpt>
      <trkpt lat="41.210857" lon="-6.724120">
        <ele>726.976</ele>
        <time>2015-03-30T12:43:41Z</time>
      </trkpt>
      <trkpt lat="41.210876" lon="-6.724117">
        <ele>726.913</ele>
        <time>2015-03-30T12:43:42Z</time>
      </trkpt>
      <trkpt lat="41.210894" lon="-6.724109">
        <ele>727.443</ele>
        <time>2015-03-30T12:43:43Z</time>
      </trkpt>
      <trkpt lat="41.210914" lon="-6.724102">
        <ele>726.907</ele>
        <time>2015-03-30T12:43:44Z</time>
      </trkpt>
      <trkpt lat="41.210935" lon="-6.724100">
        <ele>726.907</ele>
        <time>2015-03-30T12:43:45Z</time>
      </trkpt>
      <trkpt lat="41.210952" lon="-6.724093">
        <ele>727.410</ele>
        <time>2015-03-30T12:43:46Z</time>
      </trkpt>
      <trkpt lat="41.211116" lon="-6.724035">
        <ele>727.945</ele>
        <time>2015-03-30T12:43:55Z</time>
      </trkpt>
      <trkpt lat="41.211320" lon="-6.723932">
        <ele>728.310</ele>
        <time>2015-03-30T12:44:05Z</time>
      </trkpt>
      <trkpt lat="41.211470" lon="-6.723849">
        <ele>728.394</ele>
        <time>2015-03-30T12:44:12Z</time>
      </trkpt>
      <trkpt lat="41.211641" lon="-6.723783">
        <ele>729.354</ele>
        <time>2015-03-30T12:44:20Z</time>
      </trkpt>
      <trkpt lat="41.211843" lon="-6.723724">
        <ele>729.897</ele>
        <time>2015-03-30T12:44:29Z</time>
      </trkpt>
      <trkpt lat="41.212063" lon="-6.723626">
        <ele>729.832</ele>
        <time>2015-03-30T12:44:38Z</time>
      </trkpt>
      <trkpt lat="41.212238" lon="-6.723461">
        <ele>729.883</ele>
        <time>2015-03-30T12:44:47Z</time>
      </trkpt>
      <trkpt lat="41.212428" lon="-6.723309">
        <ele>730.325</ele>
        <time>2015-03-30T12:44:56Z</time>
      </trkpt>
      <trkpt lat="41.212616" lon="-6.723210">
        <ele>730.317</ele>
        <time>2015-03-30T12:45:04Z</time>
      </trkpt>
      <trkpt lat="41.212906" lon="-6.723147">
        <ele>730.307</ele>
        <time>2015-03-30T12:45:15Z</time>
      </trkpt>
      <trkpt lat="41.213203" lon="-6.723114">
        <ele>729.827</ele>
        <time>2015-03-30T12:45:26Z</time>
      </trkpt>
      <trkpt lat="41.213324" lon="-6.723075">
        <ele>729.842</ele>
        <time>2015-03-30T12:45:32Z</time>
      </trkpt>
      <trkpt lat="41.213518" lon="-6.722945">
        <ele>729.897</ele>
        <time>2015-03-30T12:45:39Z</time>
      </trkpt>
      <trkpt lat="41.213775" lon="-6.722826">
        <ele>728.841</ele>
        <time>2015-03-30T12:45:46Z</time>
      </trkpt>
      <trkpt lat="41.213863" lon="-6.722814">
        <ele>728.341</ele>
        <time>2015-03-30T12:45:48Z</time>
      </trkpt>
      <trkpt lat="41.214219" lon="-6.722829">
        <ele>727.464</ele>
        <time>2015-03-30T12:45:56Z</time>
      </trkpt>
      <trkpt lat="41.214407" lon="-6.722817">
        <ele>726.489</ele>
        <time>2015-03-30T12:46:00Z</time>
      </trkpt>
      <trkpt lat="41.214543" lon="-6.722798">
        <ele>726.459</ele>
        <time>2015-03-30T12:46:03Z</time>
      </trkpt>
      <trkpt lat="41.214587" lon="-6.722798">
        <ele>725.903</ele>
        <time>2015-03-30T12:46:04Z</time>
      </trkpt>
      <trkpt lat="41.214633" lon="-6.722799">
        <ele>725.923</ele>
        <time>2015-03-30T12:46:05Z</time>
      </trkpt>
      <trkpt lat="41.214679" lon="-6.722803">
        <ele>725.907</ele>
        <time>2015-03-30T12:46:06Z</time>
      </trkpt>
      <trkpt lat="41.214728" lon="-6.722806">
        <ele>725.544</ele>
        <time>2015-03-30T12:46:07Z</time>
      </trkpt>
      <trkpt lat="41.214779" lon="-6.722813">
        <ele>725.049</ele>
        <time>2015-03-30T12:46:08Z</time>
      </trkpt>
      <trkpt lat="41.215325" lon="-6.722855">
        <ele>723.114</ele>
        <time>2015-03-30T12:46:19Z</time>
      </trkpt>
      <trkpt lat="41.215863" lon="-6.722889">
        <ele>722.148</ele>
        <time>2015-03-30T12:46:30Z</time>
      </trkpt>
      <trkpt lat="41.216407" lon="-6.722838">
        <ele>721.118</ele>
        <time>2015-03-30T12:46:40Z</time>
      </trkpt>
      <trkpt lat="41.216564" lon="-6.722788">
        <ele>719.721</ele>
        <time>2015-03-30T12:46:43Z</time>
      </trkpt>
      <trkpt lat="41.216910" lon="-6.722695">
        <ele>719.236</ele>
        <time>2015-03-30T12:46:50Z</time>
      </trkpt>
      <trkpt lat="41.216957" lon="-6.722677">
        <ele>718.796</ele>
        <time>2015-03-30T12:46:51Z</time>
      </trkpt>
      <trkpt lat="41.217002" lon="-6.722661">
        <ele>719.231</ele>
        <time>2015-03-30T12:46:52Z</time>
      </trkpt>
      <trkpt lat="41.217370" lon="-6.722602">
        <ele>720.224</ele>
        <time>2015-03-30T12:47:00Z</time>
      </trkpt>
      <trkpt lat="41.217406" lon="-6.722606">
        <ele>718.707</ele>
        <time>2015-03-30T12:47:01Z</time>
      </trkpt>
      <trkpt lat="41.217595" lon="-6.722639">
        <ele>718.258</ele>
        <time>2015-03-30T12:47:07Z</time>
      </trkpt>
      <trkpt lat="41.217957" lon="-6.722788">
        <ele>718.743</ele>
        <time>2015-03-30T12:47:17Z</time>
      </trkpt>
      <trkpt lat="41.218254" lon="-6.722935">
        <ele>719.278</ele>
        <time>2015-03-30T12:47:26Z</time>
      </trkpt>
      <trkpt lat="41.218578" lon="-6.722880">
        <ele>719.712</ele>
        <time>2015-03-30T12:47:36Z</time>
      </trkpt>
      <trkpt lat="41.218788" lon="-6.722862">
        <ele>719.242</ele>
        <time>2015-03-30T12:47:43Z</time>
      </trkpt>
      <trkpt lat="41.219113" lon="-6.722855">
        <ele>719.295</ele>
        <time>2015-03-30T12:47:53Z</time>
      </trkpt>
      <trkpt lat="41.219419" lon="-6.722694">
        <ele>719.770</ele>
        <time>2015-03-30T12:48:03Z</time>
      </trkpt>
      <trkpt lat="41.219690" lon="-6.722582">
        <ele>719.739</ele>
        <time>2015-03-30T12:48:11Z</time>
      </trkpt>
      <trkpt lat="41.219876" lon="-6.722523">
        <ele>718.701</ele>
        <time>2015-03-30T12:48:16Z</time>
      </trkpt>
      <trkpt lat="41.219915" lon="-6.722512">
        <ele>718.721</ele>
        <time>2015-03-30T12:48:17Z</time>
      </trkpt>
      <trkpt lat="41.220217" lon="-6.722365">
        <ele>717.807</ele>
        <time>2015-03-30T12:48:25Z</time>
      </trkpt>
      <trkpt lat="41.220340" lon="-6.722304">
        <ele>717.372</ele>
        <time>2015-03-30T12:48:28Z</time>
      </trkpt>
      <trkpt lat="41.220385" lon="-6.722289">
        <ele>716.827</ele>
        <time>2015-03-30T12:48:29Z</time>
      </trkpt>
      <trkpt lat="41.220591" lon="-6.722201">
        <ele>716.332</ele>
        <time>2015-03-30T12:48:34Z</time>
      </trkpt>
      <trkpt lat="41.220629" lon="-6.722176">
        <ele>716.396</ele>
        <time>2015-03-30T12:48:35Z</time>
      </trkpt>
      <trkpt lat="41.220666" lon="-6.722147">
        <ele>715.856</ele>
        <time>2015-03-30T12:48:36Z</time>
      </trkpt>
      <trkpt lat="41.220701" lon="-6.722112">
        <ele>714.979</ele>
        <time>2015-03-30T12:48:37Z</time>
      </trkpt>
      <trkpt lat="41.220736" lon="-6.722076">
        <ele>714.934</ele>
        <time>2015-03-30T12:48:38Z</time>
      </trkpt>
      <trkpt lat="41.220807" lon="-6.722004">
        <ele>714.417</ele>
        <time>2015-03-30T12:48:40Z</time>
      </trkpt>
      <trkpt lat="41.220844" lon="-6.721976">
        <ele>713.987</ele>
        <time>2015-03-30T12:48:41Z</time>
      </trkpt>
      <trkpt lat="41.220961" lon="-6.721899">
        <ele>714.415</ele>
        <time>2015-03-30T12:48:44Z</time>
      </trkpt>
      <trkpt lat="41.221201" lon="-6.721702">
        <ele>713.907</ele>
        <time>2015-03-30T12:48:51Z</time>
      </trkpt>
      <trkpt lat="41.221234" lon="-6.721676">
        <ele>713.920</ele>
        <time>2015-03-30T12:48:52Z</time>
      </trkpt>
      <trkpt lat="41.221673" lon="-6.721369">
        <ele>712.515</ele>
        <time>2015-03-30T12:49:04Z</time>
      </trkpt>
      <trkpt lat="41.222012" lon="-6.721147">
        <ele>713.010</ele>
        <time>2015-03-30T12:49:13Z</time>
      </trkpt>
      <trkpt lat="41.222135" lon="-6.720998">
        <ele>712.514</ele>
        <time>2015-03-30T12:49:17Z</time>
      </trkpt>
      <trkpt lat="41.222164" lon="-6.720962">
        <ele>712.554</ele>
        <time>2015-03-30T12:49:18Z</time>
      </trkpt>
      <trkpt lat="41.222351" lon="-6.720643">
        <ele>711.567</ele>
        <time>2015-03-30T12:49:27Z</time>
      </trkpt>
      <trkpt lat="41.222401" lon="-6.720563">
        <ele>711.572</ele>
        <time>2015-03-30T12:49:29Z</time>
      </trkpt>
      <trkpt lat="41.222433" lon="-6.720525">
        <ele>712.035</ele>
        <time>2015-03-30T12:49:30Z</time>
      </trkpt>
      <trkpt lat="41.222472" lon="-6.720493">
        <ele>711.586</ele>
        <time>2015-03-30T12:49:31Z</time>
      </trkpt>
      <trkpt lat="41.222514" lon="-6.720470">
        <ele>711.014</ele>
        <time>2015-03-30T12:49:32Z</time>
      </trkpt>
      <trkpt lat="41.222557" lon="-6.720452">
        <ele>711.507</ele>
        <time>2015-03-30T12:49:33Z</time>
      </trkpt>
      <trkpt lat="41.222598" lon="-6.720433">
        <ele>711.522</ele>
        <time>2015-03-30T12:49:34Z</time>
      </trkpt>
      <trkpt lat="41.222860" lon="-6.720194">
        <ele>711.567</ele>
        <time>2015-03-30T12:49:42Z</time>
      </trkpt>
      <trkpt lat="41.222921" lon="-6.720123">
        <ele>711.512</ele>
        <time>2015-03-30T12:49:44Z</time>
      </trkpt>
      <trkpt lat="41.222951" lon="-6.720086">
        <ele>711.596</ele>
        <time>2015-03-30T12:49:45Z</time>
      </trkpt>
      <trkpt lat="41.222980" lon="-6.720047">
        <ele>711.576</ele>
        <time>2015-03-30T12:49:46Z</time>
      </trkpt>
      <trkpt lat="41.223007" lon="-6.720006">
        <ele>711.599</ele>
        <time>2015-03-30T12:49:47Z</time>
      </trkpt>
      <trkpt lat="41.223037" lon="-6.719964">
        <ele>711.534</ele>
        <time>2015-03-30T12:49:48Z</time>
      </trkpt>
      <trkpt lat="41.223063" lon="-6.719923">
        <ele>711.582</ele>
        <time>2015-03-30T12:49:49Z</time>
      </trkpt>
      <trkpt lat="41.223086" lon="-6.719881">
        <ele>712.043</ele>
        <time>2015-03-30T12:49:50Z</time>
      </trkpt>
      <trkpt lat="41.223106" lon="-6.719838">
        <ele>708.617</ele>
        <time>2015-03-30T12:49:51Z</time>
      </trkpt>
      <trkpt lat="41.223126" lon="-6.719793">
        <ele>714.407</ele>
        <time>2015-03-30T12:49:52Z</time>
      </trkpt>
      <trkpt lat="41.223292" lon="-6.719513">
        <ele>711.057</ele>
        <time>2015-03-30T12:49:58Z</time>
      </trkpt>
      <trkpt lat="41.223375" lon="-6.719371">
        <ele>711.042</ele>
        <time>2015-03-30T12:50:01Z</time>
      </trkpt>
      <trkpt lat="41.223393" lon="-6.719316">
        <ele>711.087</ele>
        <time>2015-03-30T12:50:02Z</time>
      </trkpt>
      <trkpt lat="41.223399" lon="-6.719260">
        <ele>711.091</ele>
        <time>2015-03-30T12:50:03Z</time>
      </trkpt>
      <trkpt lat="41.223391" lon="-6.719201">
        <ele>711.071</ele>
        <time>2015-03-30T12:50:04Z</time>
      </trkpt>
      <trkpt lat="41.223376" lon="-6.719144">
        <ele>711.044</ele>
        <time>2015-03-30T12:50:05Z</time>
      </trkpt>
      <trkpt lat="41.223364" lon="-6.719088">
        <ele>711.029</ele>
        <time>2015-03-30T12:50:06Z</time>
      </trkpt>
      <trkpt lat="41.223359" lon="-6.719031">
        <ele>711.597</ele>
        <time>2015-03-30T12:50:07Z</time>
      </trkpt>
      <trkpt lat="41.223371" lon="-6.718976">
        <ele>710.623</ele>
        <time>2015-03-30T12:50:08Z</time>
      </trkpt>
      <trkpt lat="41.223399" lon="-6.718935">
        <ele>710.125</ele>
        <time>2015-03-30T12:50:09Z</time>
      </trkpt>
      <trkpt lat="41.223428" lon="-6.718903">
        <ele>710.107</ele>
        <time>2015-03-30T12:50:10Z</time>
      </trkpt>
      <trkpt lat="41.223456" lon="-6.718872">
        <ele>709.618</ele>
        <time>2015-03-30T12:50:11Z</time>
      </trkpt>
      <trkpt lat="41.223583" lon="-6.718728">
        <ele>709.173</ele>
        <time>2015-03-30T12:50:15Z</time>
      </trkpt>
      <trkpt lat="41.223612" lon="-6.718685">
        <ele>709.138</ele>
        <time>2015-03-30T12:50:16Z</time>
      </trkpt>
      <trkpt lat="41.223663" lon="-6.718594">
        <ele>708.642</ele>
        <time>2015-03-30T12:50:18Z</time>
      </trkpt>
      <trkpt lat="41.223709" lon="-6.718495">
        <ele>708.232</ele>
        <time>2015-03-30T12:50:20Z</time>
      </trkpt>
      <trkpt lat="41.224042" lon="-6.717939">
        <ele>707.715</ele>
        <time>2015-03-30T12:50:32Z</time>
      </trkpt>
      <trkpt lat="41.224068" lon="-6.717893">
        <ele>707.720</ele>
        <time>2015-03-30T12:50:33Z</time>
      </trkpt>
      <trkpt lat="41.224114" lon="-6.717797">
        <ele>707.779</ele>
        <time>2015-03-30T12:50:35Z</time>
      </trkpt>
      <trkpt lat="41.224204" lon="-6.717620">
        <ele>707.205</ele>
        <time>2015-03-30T12:50:39Z</time>
      </trkpt>
      <trkpt lat="41.224235" lon="-6.717584">
        <ele>706.725</ele>
        <time>2015-03-30T12:50:40Z</time>
      </trkpt>
      <trkpt lat="41.224371" lon="-6.717436">
        <ele>706.207</ele>
        <time>2015-03-30T12:50:44Z</time>
      </trkpt>
      <trkpt lat="41.224766" lon="-6.716889">
        <ele>705.816</ele>
        <time>2015-03-30T12:50:56Z</time>
      </trkpt>
      <trkpt lat="41.224962" lon="-6.716599">
        <ele>705.311</ele>
        <time>2015-03-30T12:51:03Z</time>
      </trkpt>
      <trkpt lat="41.225230" lon="-6.716353">
        <ele>704.896</ele>
        <time>2015-03-30T12:51:11Z</time>
      </trkpt>
      <trkpt lat="41.225267" lon="-6.716321">
        <ele>704.880</ele>
        <time>2015-03-30T12:51:12Z</time>
      </trkpt>
      <trkpt lat="41.225615" lon="-6.716031">
        <ele>704.860</ele>
        <time>2015-03-30T12:51:21Z</time>
      </trkpt>
      <trkpt lat="41.225647" lon="-6.715984">
        <ele>704.383</ele>
        <time>2015-03-30T12:51:22Z</time>
      </trkpt>
      <trkpt lat="41.225881" lon="-6.715706">
        <ele>704.388</ele>
        <time>2015-03-30T12:51:30Z</time>
      </trkpt>
      <trkpt lat="41.225926" lon="-6.715694">
        <ele>703.886</ele>
        <time>2015-03-30T12:51:31Z</time>
      </trkpt>
      <trkpt lat="41.225970" lon="-6.715676">
        <ele>703.360</ele>
        <time>2015-03-30T12:51:32Z</time>
      </trkpt>
      <trkpt lat="41.226017" lon="-6.715652">
        <ele>703.326</ele>
        <time>2015-03-30T12:51:33Z</time>
      </trkpt>
      <trkpt lat="41.226064" lon="-6.715625">
        <ele>702.907</ele>
        <time>2015-03-30T12:51:34Z</time>
      </trkpt>
      <trkpt lat="41.226230" lon="-6.715508">
        <ele>702.997</ele>
        <time>2015-03-30T12:51:38Z</time>
      </trkpt>
      <trkpt lat="41.226297" lon="-6.715438">
        <ele>702.442</ele>
        <time>2015-03-30T12:51:40Z</time>
      </trkpt>
      <trkpt lat="41.226353" lon="-6.715348">
        <ele>702.927</ele>
        <time>2015-03-30T12:51:42Z</time>
      </trkpt>
      <trkpt lat="41.226416" lon="-6.715263">
        <ele>701.991</ele>
        <time>2015-03-30T12:51:44Z</time>
      </trkpt>
      <trkpt lat="41.226436" lon="-6.715213">
        <ele>701.981</ele>
        <time>2015-03-30T12:51:45Z</time>
      </trkpt>
      <trkpt lat="41.226451" lon="-6.715167">
        <ele>701.424</ele>
        <time>2015-03-30T12:51:46Z</time>
      </trkpt>
      <trkpt lat="41.226608" lon="-6.714895">
        <ele>700.929</ele>
        <time>2015-03-30T12:51:54Z</time>
      </trkpt>
      <trkpt lat="41.226657" lon="-6.714774">
        <ele>700.996</ele>
        <time>2015-03-30T12:52:02Z</time>
      </trkpt>
      <trkpt lat="41.226663" lon="-6.714760">
        <ele>701.431</ele>
        <time>2015-03-30T12:52:11Z</time>
      </trkpt>
      <trkpt lat="41.226671" lon="-6.714725">
        <ele>700.924</ele>
        <time>2015-03-30T12:52:16Z</time>
      </trkpt>
      <trkpt lat="41.226672" lon="-6.714704">
        <ele>700.507</ele>
        <time>2015-03-30T12:52:17Z</time>
      </trkpt>
      <trkpt lat="41.226670" lon="-6.714690">
        <ele>700.938</ele>
        <time>2015-03-30T12:52:18Z</time>
      </trkpt>
      <trkpt lat="41.226691" lon="-6.714632">
        <ele>700.913</ele>
        <time>2015-03-30T12:52:28Z</time>
      </trkpt>
      <trkpt lat="41.226688" lon="-6.714633">
        <ele>700.548</ele>
        <time>2015-03-30T12:52:38Z</time>
      </trkpt>
      <trkpt lat="41.226687" lon="-6.714615">
        <ele>700.522</ele>
        <time>2015-03-30T12:52:51Z</time>
      </trkpt>
      <trkpt lat="41.226692" lon="-6.714595">
        <ele>700.582</ele>
        <time>2015-03-30T12:53:02Z</time>
      </trkpt>
      <trkpt lat="41.226684" lon="-6.714590">
        <ele>700.085</ele>
        <time>2015-03-30T12:53:11Z</time>
      </trkpt>
      <trkpt lat="41.226641" lon="-6.714576">
        <ele>700.010</ele>
        <time>2015-03-30T12:53:22Z</time>
      </trkpt>
      <trkpt lat="41.226604" lon="-6.714526">
        <ele>700.514</ele>
        <time>2015-03-30T12:53:32Z</time>
      </trkpt>
      <trkpt lat="41.226611" lon="-6.714450">
        <ele>700.054</ele>
        <time>2015-03-30T12:53:43Z</time>
      </trkpt>
      <trkpt lat="41.226617" lon="-6.714422">
        <ele>700.509</ele>
        <time>2015-03-30T12:53:52Z</time>
      </trkpt>
      <trkpt lat="41.226626" lon="-6.714402">
        <ele>700.007</ele>
        <time>2015-03-30T12:54:02Z</time>
      </trkpt>
      <trkpt lat="41.226644" lon="-6.714385">
        <ele>700.010</ele>
        <time>2015-03-30T12:54:11Z</time>
      </trkpt>
      <trkpt lat="41.226671" lon="-6.714371">
        <ele>700.555</ele>
        <time>2015-03-30T12:54:21Z</time>
      </trkpt>
      <trkpt lat="41.226691" lon="-6.714347">
        <ele>700.540</ele>
        <time>2015-03-30T12:54:30Z</time>
      </trkpt>
      <trkpt lat="41.226728" lon="-6.714334">
        <ele>700.554</ele>
        <time>2015-03-30T12:54:37Z</time>
      </trkpt>
      <trkpt lat="41.226769" lon="-6.714320">
        <ele>700.564</ele>
        <time>2015-03-30T12:54:45Z</time>
      </trkpt>
      <trkpt lat="41.226802" lon="-6.714306">
        <ele>700.597</ele>
        <time>2015-03-30T12:54:54Z</time>
      </trkpt>
      <trkpt lat="41.226803" lon="-6.714308">
        <ele>700.562</ele>
        <time>2015-03-30T12:55:03Z</time>
      </trkpt>
      <trkpt lat="41.226817" lon="-6.714312">
        <ele>700.956</ele>
        <time>2015-03-30T12:55:15Z</time>
      </trkpt>
      <trkpt lat="41.226829" lon="-6.714304">
        <ele>700.959</ele>
        <time>2015-03-30T12:55:19Z</time>
      </trkpt>
      <trkpt lat="41.226849" lon="-6.714272">
        <ele>700.914</ele>
        <time>2015-03-30T12:55:22Z</time>
      </trkpt>
      <trkpt lat="41.226856" lon="-6.714257">
        <ele>700.907</ele>
        <time>2015-03-30T12:55:23Z</time>
      </trkpt>
      <trkpt lat="41.226863" lon="-6.714244">
        <ele>700.914</ele>
        <time>2015-03-30T12:55:24Z</time>
      </trkpt>
      <trkpt lat="41.226875" lon="-6.714235">
        <ele>700.939</ele>
        <time>2015-03-30T12:55:25Z</time>
      </trkpt>
      <trkpt lat="41.226890" lon="-6.714227">
        <ele>700.954</ele>
        <time>2015-03-30T12:55:26Z</time>
      </trkpt>
      <trkpt lat="41.226903" lon="-6.714218">
        <ele>700.988</ele>
        <time>2015-03-30T12:55:27Z</time>
      </trkpt>
      <trkpt lat="41.226916" lon="-6.714206">
        <ele>700.578</ele>
        <time>2015-03-30T12:55:28Z</time>
      </trkpt>
      <trkpt lat="41.226931" lon="-6.714196">
        <ele>700.961</ele>
        <time>2015-03-30T12:55:29Z</time>
      </trkpt>
      <trkpt lat="41.226944" lon="-6.714190">
        <ele>700.986</ele>
        <time>2015-03-30T12:55:30Z</time>
      </trkpt>
      <trkpt lat="41.226960" lon="-6.714181">
        <ele>700.976</ele>
        <time>2015-03-30T12:55:31Z</time>
      </trkpt>
      <trkpt lat="41.226978" lon="-6.714173">
        <ele>700.990</ele>
        <time>2015-03-30T12:55:32Z</time>
      </trkpt>
      <trkpt lat="41.226994" lon="-6.714168">
        <ele>700.919</ele>
        <time>2015-03-30T12:55:33Z</time>
      </trkpt>
      <trkpt lat="41.227012" lon="-6.714162">
        <ele>700.907</ele>
        <time>2015-03-30T12:55:34Z</time>
      </trkpt>
      <trkpt lat="41.227029" lon="-6.714157">
        <ele>700.956</ele>
        <time>2015-03-30T12:55:35Z</time>
      </trkpt>
      <trkpt lat="41.227044" lon="-6.714150">
        <ele>700.941</ele>
        <time>2015-03-30T12:55:36Z</time>
      </trkpt>
      <trkpt lat="41.227211" lon="-6.714007">
        <ele>701.466</ele>
        <time>2015-03-30T12:55:46Z</time>
      </trkpt>
      <trkpt lat="41.227361" lon="-6.713804">
        <ele>700.910</ele>
        <time>2015-03-30T12:55:56Z</time>
      </trkpt>
      <trkpt lat="41.227543" lon="-6.713642">
        <ele>703.340</ele>
        <time>2015-03-30T12:56:07Z</time>
      </trkpt>
      <trkpt lat="41.227650" lon="-6.713479">
        <ele>703.833</ele>
        <time>2015-03-30T12:56:16Z</time>
      </trkpt>
      <trkpt lat="41.227758" lon="-6.713278">
        <ele>704.828</ele>
        <time>2015-03-30T12:56:25Z</time>
      </trkpt>
      <trkpt lat="41.227961" lon="-6.712970">
        <ele>705.898</ele>
        <time>2015-03-30T12:56:38Z</time>
      </trkpt>
      <trkpt lat="41.228149" lon="-6.712735">
        <ele>707.715</ele>
        <time>2015-03-30T12:56:49Z</time>
      </trkpt>
      <trkpt lat="41.228260" lon="-6.712554">
        <ele>711.026</ele>
        <time>2015-03-30T12:56:58Z</time>
      </trkpt>
      <trkpt lat="41.228271" lon="-6.712531">
        <ele>710.607</ele>
        <time>2015-03-30T12:56:59Z</time>
      </trkpt>
      <trkpt lat="41.228296" lon="-6.712485">
        <ele>709.178</ele>
        <time>2015-03-30T12:57:01Z</time>
      </trkpt>
      <trkpt lat="41.228436" lon="-6.712256">
        <ele>709.133</ele>
        <time>2015-03-30T12:57:11Z</time>
      </trkpt>
      <trkpt lat="41.228566" lon="-6.711956">
        <ele>709.158</ele>
        <time>2015-03-30T12:57:22Z</time>
      </trkpt>
      <trkpt lat="41.228709" lon="-6.711701">
        <ele>710.682</ele>
        <time>2015-03-30T12:57:32Z</time>
      </trkpt>
      <trkpt lat="41.228842" lon="-6.711489">
        <ele>711.052</ele>
        <time>2015-03-30T12:57:41Z</time>
      </trkpt>
      <trkpt lat="41.229001" lon="-6.711262">
        <ele>711.545</ele>
        <time>2015-03-30T12:57:51Z</time>
      </trkpt>
      <trkpt lat="41.229008" lon="-6.711247">
        <ele>711.580</ele>
        <time>2015-03-30T12:57:52Z</time>
      </trkpt>
      <trkpt lat="41.229016" lon="-6.711233">
        <ele>711.595</ele>
        <time>2015-03-30T12:57:53Z</time>
      </trkpt>
      <trkpt lat="41.229031" lon="-6.711222">
        <ele>712.049</ele>
        <time>2015-03-30T12:57:54Z</time>
      </trkpt>
      <trkpt lat="41.229045" lon="-6.711207">
        <ele>711.523</ele>
        <time>2015-03-30T12:57:55Z</time>
      </trkpt>
      <trkpt lat="41.229224" lon="-6.711078">
        <ele>712.007</ele>
        <time>2015-03-30T12:58:04Z</time>
      </trkpt>
      <trkpt lat="41.229429" lon="-6.711100">
        <ele>712.538</ele>
        <time>2015-03-30T12:58:13Z</time>
      </trkpt>
      <trkpt lat="41.229448" lon="-6.711099">
        <ele>712.583</ele>
        <time>2015-03-30T12:58:14Z</time>
      </trkpt>
      <trkpt lat="41.229459" lon="-6.711093">
        <ele>710.698</ele>
        <time>2015-03-30T12:58:15Z</time>
      </trkpt>
      <trkpt lat="41.229469" lon="-6.711087">
        <ele>713.472</ele>
        <time>2015-03-30T12:58:16Z</time>
      </trkpt>
      <trkpt lat="41.229479" lon="-6.711079">
        <ele>713.442</ele>
        <time>2015-03-30T12:58:17Z</time>
      </trkpt>
      <trkpt lat="41.229488" lon="-6.711069">
        <ele>713.025</ele>
        <time>2015-03-30T12:58:18Z</time>
      </trkpt>
      <trkpt lat="41.229496" lon="-6.711057">
        <ele>713.410</ele>
        <time>2015-03-30T12:58:19Z</time>
      </trkpt>
      <trkpt lat="41.229508" lon="-6.711053">
        <ele>713.057</ele>
        <time>2015-03-30T12:58:20Z</time>
      </trkpt>
      <trkpt lat="41.229523" lon="-6.711049">
        <ele>713.400</ele>
        <time>2015-03-30T12:58:21Z</time>
      </trkpt>
      <trkpt lat="41.229540" lon="-6.711044">
        <ele>713.920</ele>
        <time>2015-03-30T12:58:22Z</time>
      </trkpt>
      <trkpt lat="41.229557" lon="-6.711036">
        <ele>713.407</ele>
        <time>2015-03-30T12:58:23Z</time>
      </trkpt>
      <trkpt lat="41.229576" lon="-6.711022">
        <ele>713.464</ele>
        <time>2015-03-30T12:58:24Z</time>
      </trkpt>
      <trkpt lat="41.229724" lon="-6.710903">
        <ele>714.419</ele>
        <time>2015-03-30T12:58:33Z</time>
      </trkpt>
      <trkpt lat="41.229751" lon="-6.710876">
        <ele>713.974</ele>
        <time>2015-03-30T12:58:35Z</time>
      </trkpt>
      <trkpt lat="41.229761" lon="-6.710859">
        <ele>713.928</ele>
        <time>2015-03-30T12:58:36Z</time>
      </trkpt>
      <trkpt lat="41.229772" lon="-6.710849">
        <ele>714.438</ele>
        <time>2015-03-30T12:58:37Z</time>
      </trkpt>
      <trkpt lat="41.229788" lon="-6.710838">
        <ele>714.441</ele>
        <time>2015-03-30T12:58:38Z</time>
      </trkpt>
      <trkpt lat="41.229806" lon="-6.710824">
        <ele>714.466</ele>
        <time>2015-03-30T12:58:39Z</time>
      </trkpt>
      <trkpt lat="41.230021" lon="-6.710645">
        <ele>713.949</ele>
        <time>2015-03-30T12:58:48Z</time>
      </trkpt>
      <trkpt lat="41.230168" lon="-6.710564">
        <ele>714.402</ele>
        <time>2015-03-30T12:58:54Z</time>
      </trkpt>
      <trkpt lat="41.230183" lon="-6.710541">
        <ele>714.422</ele>
        <time>2015-03-30T12:58:55Z</time>
      </trkpt>
      <trkpt lat="41.230366" lon="-6.710342">
        <ele>716.307</ele>
        <time>2015-03-30T12:59:07Z</time>
      </trkpt>
      <trkpt lat="41.230380" lon="-6.710317">
        <ele>715.853</ele>
        <time>2015-03-30T12:59:08Z</time>
      </trkpt>
      <trkpt lat="41.230384" lon="-6.710291">
        <ele>716.378</ele>
        <time>2015-03-30T12:59:09Z</time>
      </trkpt>
      <trkpt lat="41.230388" lon="-6.710270">
        <ele>716.393</ele>
        <time>2015-03-30T12:59:10Z</time>
      </trkpt>
      <trkpt lat="41.230400" lon="-6.710254">
        <ele>716.347</ele>
        <time>2015-03-30T12:59:11Z</time>
      </trkpt>
      <trkpt lat="41.230417" lon="-6.710249">
        <ele>716.367</ele>
        <time>2015-03-30T12:59:12Z</time>
      </trkpt>
      <trkpt lat="41.230437" lon="-6.710245">
        <ele>716.340</ele>
        <time>2015-03-30T12:59:13Z</time>
      </trkpt>
      <trkpt lat="41.230456" lon="-6.710231">
        <ele>716.375</ele>
        <time>2015-03-30T12:59:14Z</time>
      </trkpt>
      <trkpt lat="41.230471" lon="-6.710209">
        <ele>716.386</ele>
        <time>2015-03-30T12:59:15Z</time>
      </trkpt>
      <trkpt lat="41.230481" lon="-6.710182">
        <ele>716.360</ele>
        <time>2015-03-30T12:59:16Z</time>
      </trkpt>
      <trkpt lat="41.230488" lon="-6.710151">
        <ele>716.326</ele>
        <time>2015-03-30T12:59:17Z</time>
      </trkpt>
      <trkpt lat="41.230495" lon="-6.710118">
        <ele>716.807</ele>
        <time>2015-03-30T12:59:18Z</time>
      </trkpt>
      <trkpt lat="41.230586" lon="-6.709812">
        <ele>716.817</ele>
        <time>2015-03-30T12:59:27Z</time>
      </trkpt>
      <trkpt lat="41.230682" lon="-6.709586">
        <ele>717.342</ele>
        <time>2015-03-30T12:59:34Z</time>
      </trkpt>
      <trkpt lat="41.230742" lon="-6.709443">
        <ele>718.237</ele>
        <time>2015-03-30T12:59:40Z</time>
      </trkpt>
      <trkpt lat="41.230752" lon="-6.709436">
        <ele>718.281</ele>
        <time>2015-03-30T12:59:41Z</time>
      </trkpt>
      <trkpt lat="41.230765" lon="-6.709428">
        <ele>718.251</ele>
        <time>2015-03-30T12:59:42Z</time>
      </trkpt>
      <trkpt lat="41.230779" lon="-6.709416">
        <ele>718.214</ele>
        <time>2015-03-30T12:59:43Z</time>
      </trkpt>
      <trkpt lat="41.230792" lon="-6.709400">
        <ele>718.259</ele>
        <time>2015-03-30T12:59:44Z</time>
      </trkpt>
      <trkpt lat="41.230805" lon="-6.709385">
        <ele>718.795</ele>
        <time>2015-03-30T12:59:45Z</time>
      </trkpt>
      <trkpt lat="41.230866" lon="-6.709310">
        <ele>720.249</ele>
        <time>2015-03-30T12:59:50Z</time>
      </trkpt>
      <trkpt lat="41.230875" lon="-6.709298">
        <ele>720.223</ele>
        <time>2015-03-30T12:59:51Z</time>
      </trkpt>
      <trkpt lat="41.230892" lon="-6.709288">
        <ele>720.207</ele>
        <time>2015-03-30T12:59:52Z</time>
      </trkpt>
      <trkpt lat="41.231019" lon="-6.709168">
        <ele>720.728</ele>
        <time>2015-03-30T13:00:00Z</time>
      </trkpt>
      <trkpt lat="41.231139" lon="-6.708958">
        <ele>721.133</ele>
        <time>2015-03-30T13:00:09Z</time>
      </trkpt>
      <trkpt lat="41.231283" lon="-6.708785">
        <ele>721.668</ele>
        <time>2015-03-30T13:00:18Z</time>
      </trkpt>
      <trkpt lat="41.231395" lon="-6.708710">
        <ele>722.182</ele>
        <time>2015-03-30T13:00:24Z</time>
      </trkpt>
      <trkpt lat="41.231474" lon="-6.708756">
        <ele>722.662</ele>
        <time>2015-03-30T13:00:29Z</time>
      </trkpt>
      <trkpt lat="41.231513" lon="-6.708782">
        <ele>722.625</ele>
        <time>2015-03-30T13:00:31Z</time>
      </trkpt>
      <trkpt lat="41.231593" lon="-6.708832">
        <ele>722.670</ele>
        <time>2015-03-30T13:00:35Z</time>
      </trkpt>
      <trkpt lat="41.231790" lon="-6.708764">
        <ele>724.069</ele>
        <time>2015-03-30T13:00:45Z</time>
      </trkpt>
      <trkpt lat="41.231885" lon="-6.708622">
        <ele>725.004</ele>
        <time>2015-03-30T13:00:54Z</time>
      </trkpt>
      <trkpt lat="41.231920" lon="-6.708496">
        <ele>725.024</ele>
        <time>2015-03-30T13:01:00Z</time>
      </trkpt>
      <trkpt lat="41.231912" lon="-6.708405">
        <ele>722.107</ele>
        <time>2015-03-30T13:01:05Z</time>
      </trkpt>
      <trkpt lat="41.231913" lon="-6.708382">
        <ele>725.915</ele>
        <time>2015-03-30T13:01:06Z</time>
      </trkpt>
      <trkpt lat="41.231915" lon="-6.708357">
        <ele>725.010</ele>
        <time>2015-03-30T13:01:07Z</time>
      </trkpt>
      <trkpt lat="41.231938" lon="-6.708290">
        <ele>725.935</ele>
        <time>2015-03-30T13:01:10Z</time>
      </trkpt>
      <trkpt lat="41.232147" lon="-6.708204">
        <ele>725.599</ele>
        <time>2015-03-30T13:01:21Z</time>
      </trkpt>
      <trkpt lat="41.232435" lon="-6.708229">
        <ele>723.119</ele>
        <time>2015-03-30T13:01:29Z</time>
      </trkpt>
      <trkpt lat="41.232716" lon="-6.708264">
        <ele>722.142</ele>
        <time>2015-03-30T13:01:37Z</time>
      </trkpt>
      <trkpt lat="41.232759" lon="-6.708277">
        <ele>721.637</ele>
        <time>2015-03-30T13:01:38Z</time>
      </trkpt>
      <trkpt lat="41.233007" lon="-6.708296">
        <ele>722.165</ele>
        <time>2015-03-30T13:01:46Z</time>
      </trkpt>
      <trkpt lat="41.233184" lon="-6.708103">
        <ele>723.168</ele>
        <time>2015-03-30T13:01:56Z</time>
      </trkpt>
      <trkpt lat="41.233353" lon="-6.707950">
        <ele>724.014</ele>
        <time>2015-03-30T13:02:06Z</time>
      </trkpt>
      <trkpt lat="41.233411" lon="-6.707984">
        <ele>725.007</ele>
        <time>2015-03-30T13:02:09Z</time>
      </trkpt>
      <trkpt lat="41.233422" lon="-6.708003">
        <ele>725.015</ele>
        <time>2015-03-30T13:02:10Z</time>
      </trkpt>
      <trkpt lat="41.233434" lon="-6.708019">
        <ele>725.520</ele>
        <time>2015-03-30T13:02:11Z</time>
      </trkpt>
      <trkpt lat="41.233461" lon="-6.708053">
        <ele>725.955</ele>
        <time>2015-03-30T13:02:14Z</time>
      </trkpt>
      <trkpt lat="41.233467" lon="-6.708070">
        <ele>725.979</ele>
        <time>2015-03-30T13:02:15Z</time>
      </trkpt>
      <trkpt lat="41.233485" lon="-6.708104">
        <ele>726.419</ele>
        <time>2015-03-30T13:02:17Z</time>
      </trkpt>
      <trkpt lat="41.233495" lon="-6.708119">
        <ele>726.442</ele>
        <time>2015-03-30T13:02:18Z</time>
      </trkpt>
      <trkpt lat="41.233524" lon="-6.708164">
        <ele>727.437</ele>
        <time>2015-03-30T13:02:21Z</time>
      </trkpt>
      <trkpt lat="41.233534" lon="-6.708177">
        <ele>727.436</ele>
        <time>2015-03-30T13:02:22Z</time>
      </trkpt>
      <trkpt lat="41.233544" lon="-6.708195">
        <ele>727.417</ele>
        <time>2015-03-30T13:02:23Z</time>
      </trkpt>
      <trkpt lat="41.233554" lon="-6.708211">
        <ele>727.418</ele>
        <time>2015-03-30T13:02:24Z</time>
      </trkpt>
      <trkpt lat="41.233564" lon="-6.708224">
        <ele>727.907</ele>
        <time>2015-03-30T13:02:25Z</time>
      </trkpt>
      <trkpt lat="41.233574" lon="-6.708236">
        <ele>728.822</ele>
        <time>2015-03-30T13:02:26Z</time>
      </trkpt>
      <trkpt lat="41.233585" lon="-6.708246">
        <ele>728.867</ele>
        <time>2015-03-30T13:02:27Z</time>
      </trkpt>
      <trkpt lat="41.233598" lon="-6.708252">
        <ele>728.852</ele>
        <time>2015-03-30T13:02:28Z</time>
      </trkpt>
      <trkpt lat="41.233614" lon="-6.708256">
        <ele>728.326</ele>
        <time>2015-03-30T13:02:29Z</time>
      </trkpt>
      <trkpt lat="41.233629" lon="-6.708260">
        <ele>728.876</ele>
        <time>2015-03-30T13:02:30Z</time>
      </trkpt>
      <trkpt lat="41.233646" lon="-6.708261">
        <ele>729.359</ele>
        <time>2015-03-30T13:02:31Z</time>
      </trkpt>
      <trkpt lat="41.233662" lon="-6.708263">
        <ele>729.364</ele>
        <time>2015-03-30T13:02:32Z</time>
      </trkpt>
      <trkpt lat="41.233679" lon="-6.708265">
        <ele>728.823</ele>
        <time>2015-03-30T13:02:33Z</time>
      </trkpt>
      <trkpt lat="41.233694" lon="-6.708263">
        <ele>728.883</ele>
        <time>2015-03-30T13:02:34Z</time>
      </trkpt>
      <trkpt lat="41.233709" lon="-6.708260">
        <ele>729.311</ele>
        <time>2015-03-30T13:02:35Z</time>
      </trkpt>
      <trkpt lat="41.233754" lon="-6.708267">
        <ele>729.307</ele>
        <time>2015-03-30T13:02:38Z</time>
      </trkpt>
      <trkpt lat="41.233767" lon="-6.708258">
        <ele>729.871</ele>
        <time>2015-03-30T13:02:39Z</time>
      </trkpt>
      <trkpt lat="41.233781" lon="-6.708251">
        <ele>729.896</ele>
        <time>2015-03-30T13:02:40Z</time>
      </trkpt>
      <trkpt lat="41.233795" lon="-6.708242">
        <ele>729.891</ele>
        <time>2015-03-30T13:02:41Z</time>
      </trkpt>
      <trkpt lat="41.233808" lon="-6.708230">
        <ele>729.885</ele>
        <time>2015-03-30T13:02:42Z</time>
      </trkpt>
      <trkpt lat="41.233921" lon="-6.708086">
        <ele>731.245</ele>
        <time>2015-03-30T13:02:52Z</time>
      </trkpt>
      <trkpt lat="41.234155" lon="-6.707871">
        <ele>730.748</ele>
        <time>2015-03-30T13:03:05Z</time>
      </trkpt>
      <trkpt lat="41.234324" lon="-6.707707">
        <ele>730.343</ele>
        <time>2015-03-30T13:03:13Z</time>
      </trkpt>
      <trkpt lat="41.234614" lon="-6.707430">
        <ele>729.876</ele>
        <time>2015-03-30T13:03:23Z</time>
      </trkpt>
      <trkpt lat="41.234636" lon="-6.707416">
        <ele>730.390</ele>
        <time>2015-03-30T13:03:24Z</time>
      </trkpt>
      <trkpt lat="41.234649" lon="-6.707394">
        <ele>730.719</ele>
        <time>2015-03-30T13:03:25Z</time>
      </trkpt>
      <trkpt lat="41.234729" lon="-6.707224">
        <ele>731.707</ele>
        <time>2015-03-30T13:03:32Z</time>
      </trkpt>
      <trkpt lat="41.234745" lon="-6.707204">
        <ele>731.246</ele>
        <time>2015-03-30T13:03:33Z</time>
      </trkpt>
      <trkpt lat="41.234764" lon="-6.707186">
        <ele>731.211</ele>
        <time>2015-03-30T13:03:34Z</time>
      </trkpt>
      <trkpt lat="41.234787" lon="-6.707170">
        <ele>731.236</ele>
        <time>2015-03-30T13:03:35Z</time>
      </trkpt>
      <trkpt lat="41.234810" lon="-6.707157">
        <ele>726.910</ele>
        <time>2015-03-30T13:03:36Z</time>
      </trkpt>
      <trkpt lat="41.234833" lon="-6.707147">
        <ele>733.630</ele>
        <time>2015-03-30T13:03:37Z</time>
      </trkpt>
      <trkpt lat="41.234854" lon="-6.707137">
        <ele>729.333</ele>
        <time>2015-03-30T13:03:38Z</time>
      </trkpt>
      <trkpt lat="41.234874" lon="-6.707127">
        <ele>732.738</ele>
        <time>2015-03-30T13:03:39Z</time>
      </trkpt>
      <trkpt lat="41.235084" lon="-6.707025">
        <ele>732.247</ele>
        <time>2015-03-30T13:03:48Z</time>
      </trkpt>
      <trkpt lat="41.235377" lon="-6.706936">
        <ele>733.129</ele>
        <time>2015-03-30T13:03:58Z</time>
      </trkpt>
      <trkpt lat="41.235579" lon="-6.706844">
        <ele>733.621</ele>
        <time>2015-03-30T13:04:08Z</time>
      </trkpt>
      <trkpt lat="41.235656" lon="-6.706819">
        <ele>734.107</ele>
        <time>2015-03-30T13:04:12Z</time>
      </trkpt>
      <trkpt lat="41.235679" lon="-6.706816">
        <ele>734.193</ele>
        <time>2015-03-30T13:04:13Z</time>
      </trkpt>
      <trkpt lat="41.235704" lon="-6.706813">
        <ele>734.138</ele>
        <time>2015-03-30T13:04:14Z</time>
      </trkpt>
      <trkpt lat="41.235729" lon="-6.706808">
        <ele>734.133</ele>
        <time>2015-03-30T13:04:15Z</time>
      </trkpt>
      <trkpt lat="41.235756" lon="-6.706806">
        <ele>734.187</ele>
        <time>2015-03-30T13:04:16Z</time>
      </trkpt>
      <trkpt lat="41.235780" lon="-6.706800">
        <ele>734.137</ele>
        <time>2015-03-30T13:04:17Z</time>
      </trkpt>
      <trkpt lat="41.235804" lon="-6.706792">
        <ele>734.180</ele>
        <time>2015-03-30T13:04:18Z</time>
      </trkpt>
      <trkpt lat="41.235827" lon="-6.706785">
        <ele>733.115</ele>
        <time>2015-03-30T13:04:19Z</time>
      </trkpt>
      <trkpt lat="41.235850" lon="-6.706777">
        <ele>735.648</ele>
        <time>2015-03-30T13:04:20Z</time>
      </trkpt>
      <trkpt lat="41.235874" lon="-6.706768">
        <ele>734.661</ele>
        <time>2015-03-30T13:04:21Z</time>
      </trkpt>
      <trkpt lat="41.235964" lon="-6.706713">
        <ele>734.617</ele>
        <time>2015-03-30T13:04:25Z</time>
      </trkpt>
      <trkpt lat="41.235979" lon="-6.706691">
        <ele>735.107</ele>
        <time>2015-03-30T13:04:26Z</time>
      </trkpt>
      <trkpt lat="41.235993" lon="-6.706674">
        <ele>735.183</ele>
        <time>2015-03-30T13:04:27Z</time>
      </trkpt>
      <trkpt lat="41.236159" lon="-6.706479">
        <ele>736.578</ele>
        <time>2015-03-30T13:04:36Z</time>
      </trkpt>
      <trkpt lat="41.236413" lon="-6.706446">
        <ele>735.133</ele>
        <time>2015-03-30T13:04:44Z</time>
      </trkpt>
      <trkpt lat="41.236608" lon="-6.706442">
        <ele>736.047</ele>
        <time>2015-03-30T13:04:52Z</time>
      </trkpt>
      <trkpt lat="41.236804" lon="-6.706235">
        <ele>735.197</ele>
        <time>2015-03-30T13:04:59Z</time>
      </trkpt>
      <trkpt lat="41.236842" lon="-6.706207">
        <ele>734.640</ele>
        <time>2015-03-30T13:05:00Z</time>
      </trkpt>
      <trkpt lat="41.236879" lon="-6.706191">
        <ele>734.645</ele>
        <time>2015-03-30T13:05:01Z</time>
      </trkpt>
      <trkpt lat="41.236914" lon="-6.706186">
        <ele>734.657</ele>
        <time>2015-03-30T13:05:02Z</time>
      </trkpt>
      <trkpt lat="41.236943" lon="-6.706181">
        <ele>734.600</ele>
        <time>2015-03-30T13:05:03Z</time>
      </trkpt>
      <trkpt lat="41.236965" lon="-6.706172">
        <ele>735.120</ele>
        <time>2015-03-30T13:05:04Z</time>
      </trkpt>
      <trkpt lat="41.236987" lon="-6.706167">
        <ele>735.107</ele>
        <time>2015-03-30T13:05:05Z</time>
      </trkpt>
      <trkpt lat="41.237296" lon="-6.706172">
        <ele>734.184</ele>
        <time>2015-03-30T13:05:14Z</time>
      </trkpt>
      <trkpt lat="41.237719" lon="-6.706312">
        <ele>734.659</ele>
        <time>2015-03-30T13:05:25Z</time>
      </trkpt>
      <trkpt lat="41.237978" lon="-6.706502">
        <ele>735.684</ele>
        <time>2015-03-30T13:05:35Z</time>
      </trkpt>
      <trkpt lat="41.238001" lon="-6.706503">
        <ele>735.658</ele>
        <time>2015-03-30T13:05:36Z</time>
      </trkpt>
      <trkpt lat="41.238025" lon="-6.706504">
        <ele>735.668</ele>
        <time>2015-03-30T13:05:37Z</time>
      </trkpt>
      <trkpt lat="41.238049" lon="-6.706501">
        <ele>735.631</ele>
        <time>2015-03-30T13:05:38Z</time>
      </trkpt>
      <trkpt lat="41.238075" lon="-6.706498">
        <ele>735.666</ele>
        <time>2015-03-30T13:05:39Z</time>
      </trkpt>
      <trkpt lat="41.238096" lon="-6.706494">
        <ele>736.078</ele>
        <time>2015-03-30T13:05:40Z</time>
      </trkpt>
      <trkpt lat="41.238308" lon="-6.706466">
        <ele>738.433</ele>
        <time>2015-03-30T13:05:50Z</time>
      </trkpt>
      <trkpt lat="41.238444" lon="-6.706363">
        <ele>740.426</ele>
        <time>2015-03-30T13:06:00Z</time>
      </trkpt>
      <trkpt lat="41.238460" lon="-6.706367">
        <ele>740.407</ele>
        <time>2015-03-30T13:06:01Z</time>
      </trkpt>
      <trkpt lat="41.238476" lon="-6.706373">
        <ele>739.916</ele>
        <time>2015-03-30T13:06:02Z</time>
      </trkpt>
      <trkpt lat="41.238492" lon="-6.706372">
        <ele>740.431</ele>
        <time>2015-03-30T13:06:03Z</time>
      </trkpt>
      <trkpt lat="41.238506" lon="-6.706376">
        <ele>740.866</ele>
        <time>2015-03-30T13:06:04Z</time>
      </trkpt>
      <trkpt lat="41.238520" lon="-6.706386">
        <ele>740.870</ele>
        <time>2015-03-30T13:06:05Z</time>
      </trkpt>
      <trkpt lat="41.238537" lon="-6.706395">
        <ele>740.820</ele>
        <time>2015-03-30T13:06:06Z</time>
      </trkpt>
      <trkpt lat="41.238551" lon="-6.706405">
        <ele>740.843</ele>
        <time>2015-03-30T13:06:07Z</time>
      </trkpt>
      <trkpt lat="41.238564" lon="-6.706419">
        <ele>741.368</ele>
        <time>2015-03-30T13:06:08Z</time>
      </trkpt>
      <trkpt lat="41.238739" lon="-6.706618">
        <ele>741.398</ele>
        <time>2015-03-30T13:06:19Z</time>
      </trkpt>
      <trkpt lat="41.238983" lon="-6.706758">
        <ele>741.815</ele>
        <time>2015-03-30T13:06:29Z</time>
      </trkpt>
      <trkpt lat="41.239256" lon="-6.706807">
        <ele>743.226</ele>
        <time>2015-03-30T13:06:41Z</time>
      </trkpt>
      <trkpt lat="41.239353" lon="-6.706824">
        <ele>743.707</ele>
        <time>2015-03-30T13:06:46Z</time>
      </trkpt>
      <trkpt lat="41.239371" lon="-6.706821">
        <ele>744.248</ele>
        <time>2015-03-30T13:06:47Z</time>
      </trkpt>
      <trkpt lat="41.239389" lon="-6.706824">
        <ele>744.273</ele>
        <time>2015-03-30T13:06:48Z</time>
      </trkpt>
      <trkpt lat="41.239405" lon="-6.706825">
        <ele>744.218</ele>
        <time>2015-03-30T13:06:49Z</time>
      </trkpt>
      <trkpt lat="41.239422" lon="-6.706821">
        <ele>744.282</ele>
        <time>2015-03-30T13:06:50Z</time>
      </trkpt>
      <trkpt lat="41.239440" lon="-6.706815">
        <ele>744.782</ele>
        <time>2015-03-30T13:06:51Z</time>
      </trkpt>
      <trkpt lat="41.239464" lon="-6.706809">
        <ele>744.775</ele>
        <time>2015-03-30T13:06:52Z</time>
      </trkpt>
      <trkpt lat="41.239578" lon="-6.706784">
        <ele>744.780</ele>
        <time>2015-03-30T13:06:57Z</time>
      </trkpt>
      <trkpt lat="41.239768" lon="-6.706687">
        <ele>744.712</ele>
        <time>2015-03-30T13:07:06Z</time>
      </trkpt>
      <trkpt lat="41.239833" lon="-6.706629">
        <ele>745.232</ele>
        <time>2015-03-30T13:07:10Z</time>
      </trkpt>
      <trkpt lat="41.239847" lon="-6.706621">
        <ele>745.205</ele>
        <time>2015-03-30T13:07:11Z</time>
      </trkpt>
      <trkpt lat="41.240061" lon="-6.706553">
        <ele>745.207</ele>
        <time>2015-03-30T13:07:21Z</time>
      </trkpt>
      <trkpt lat="41.240231" lon="-6.706514">
        <ele>740.490</ele>
        <time>2015-03-30T13:07:29Z</time>
      </trkpt>
      <trkpt lat="41.240251" lon="-6.706507">
        <ele>749.535</ele>
        <time>2015-03-30T13:07:30Z</time>
      </trkpt>
      <trkpt lat="41.240272" lon="-6.706502">
        <ele>745.290</ele>
        <time>2015-03-30T13:07:31Z</time>
      </trkpt>
      <trkpt lat="41.240448" lon="-6.706395">
        <ele>744.284</ele>
        <time>2015-03-30T13:07:38Z</time>
      </trkpt>
      <trkpt lat="41.240622" lon="-6.706245">
        <ele>742.834</ele>
        <time>2015-03-30T13:07:44Z</time>
      </trkpt>
      <trkpt lat="41.240646" lon="-6.706218">
        <ele>742.857</ele>
        <time>2015-03-30T13:07:45Z</time>
      </trkpt>
      <trkpt lat="41.240669" lon="-6.706186">
        <ele>742.392</ele>
        <time>2015-03-30T13:07:46Z</time>
      </trkpt>
      <trkpt lat="41.240687" lon="-6.706149">
        <ele>742.368</ele>
        <time>2015-03-30T13:07:47Z</time>
      </trkpt>
      <trkpt lat="41.240704" lon="-6.706105">
        <ele>741.842</ele>
        <time>2015-03-30T13:07:48Z</time>
      </trkpt>
      <trkpt lat="41.240768" lon="-6.705948">
        <ele>740.426</ele>
        <time>2015-03-30T13:07:51Z</time>
      </trkpt>
      <trkpt lat="41.240818" lon="-6.705843">
        <ele>739.907</ele>
        <time>2015-03-30T13:07:53Z</time>
      </trkpt>
      <trkpt lat="41.240843" lon="-6.705793">
        <ele>739.455</ele>
        <time>2015-03-30T13:07:54Z</time>
      </trkpt>
      <trkpt lat="41.241050" lon="-6.705290">
        <ele>738.420</ele>
        <time>2015-03-30T13:08:05Z</time>
      </trkpt>
      <trkpt lat="41.241200" lon="-6.704794">
        <ele>738.435</ele>
        <time>2015-03-30T13:08:16Z</time>
      </trkpt>
      <trkpt lat="41.241138" lon="-6.704506">
        <ele>738.979</ele>
        <time>2015-03-30T13:08:23Z</time>
      </trkpt>
      <trkpt lat="41.241146" lon="-6.704387">
        <ele>738.499</ele>
        <time>2015-03-30T13:08:26Z</time>
      </trkpt>
      <trkpt lat="41.241176" lon="-6.704356">
        <ele>738.432</ele>
        <time>2015-03-30T13:08:27Z</time>
      </trkpt>
      <trkpt lat="41.241209" lon="-6.704337">
        <ele>738.427</ele>
        <time>2015-03-30T13:08:28Z</time>
      </trkpt>
      <trkpt lat="41.241239" lon="-6.704327">
        <ele>738.481</ele>
        <time>2015-03-30T13:08:29Z</time>
      </trkpt>
      <trkpt lat="41.241269" lon="-6.704313">
        <ele>738.461</ele>
        <time>2015-03-30T13:08:30Z</time>
      </trkpt>
      <trkpt lat="41.241294" lon="-6.704289">
        <ele>738.417</ele>
        <time>2015-03-30T13:08:31Z</time>
      </trkpt>
      <trkpt lat="41.241313" lon="-6.704254">
        <ele>738.407</ele>
        <time>2015-03-30T13:08:32Z</time>
      </trkpt>
      <trkpt lat="41.241327" lon="-6.704215">
        <ele>738.467</ele>
        <time>2015-03-30T13:08:33Z</time>
      </trkpt>
      <trkpt lat="41.241450" lon="-6.703982">
        <ele>737.532</ele>
        <time>2015-03-30T13:08:40Z</time>
      </trkpt>
      <trkpt lat="41.241459" lon="-6.703944">
        <ele>737.577</ele>
        <time>2015-03-30T13:08:41Z</time>
      </trkpt>
      <trkpt lat="41.241464" lon="-6.703899">
        <ele>737.591</ele>
        <time>2015-03-30T13:08:42Z</time>
      </trkpt>
      <trkpt lat="41.241466" lon="-6.703848">
        <ele>737.031</ele>
        <time>2015-03-30T13:08:43Z</time>
      </trkpt>
      <trkpt lat="41.241465" lon="-6.703795">
        <ele>737.044</ele>
        <time>2015-03-30T13:08:44Z</time>
      </trkpt>
      <trkpt lat="41.241466" lon="-6.703739">
        <ele>737.099</ele>
        <time>2015-03-30T13:08:45Z</time>
      </trkpt>
      <trkpt lat="41.241466" lon="-6.703396">
        <ele>735.615</ele>
        <time>2015-03-30T13:08:51Z</time>
      </trkpt>
      <trkpt lat="41.241465" lon="-6.703336">
        <ele>735.665</ele>
        <time>2015-03-30T13:08:52Z</time>
      </trkpt>
      <trkpt lat="41.241468" lon="-6.703209">
        <ele>735.611</ele>
        <time>2015-03-30T13:08:54Z</time>
      </trkpt>
      <trkpt lat="41.241476" lon="-6.703147">
        <ele>735.607</ele>
        <time>2015-03-30T13:08:55Z</time>
      </trkpt>
      <trkpt lat="41.241490" lon="-6.703089">
        <ele>735.140</ele>
        <time>2015-03-30T13:08:56Z</time>
      </trkpt>
      <trkpt lat="41.241514" lon="-6.703044">
        <ele>735.125</ele>
        <time>2015-03-30T13:08:57Z</time>
      </trkpt>
      <trkpt lat="41.241540" lon="-6.703012">
        <ele>735.610</ele>
        <time>2015-03-30T13:08:58Z</time>
      </trkpt>
      <trkpt lat="41.241565" lon="-6.702977">
        <ele>735.654</ele>
        <time>2015-03-30T13:08:59Z</time>
      </trkpt>
      <trkpt lat="41.241589" lon="-6.702939">
        <ele>735.694</ele>
        <time>2015-03-30T13:09:00Z</time>
      </trkpt>
      <trkpt lat="41.241614" lon="-6.702901">
        <ele>735.697</ele>
        <time>2015-03-30T13:09:01Z</time>
      </trkpt>
      <trkpt lat="41.241720" lon="-6.702753">
        <ele>735.612</ele>
        <time>2015-03-30T13:09:05Z</time>
      </trkpt>
      <trkpt lat="41.241748" lon="-6.702732">
        <ele>735.613</ele>
        <time>2015-03-30T13:09:06Z</time>
      </trkpt>
      <trkpt lat="41.241776" lon="-6.702713">
        <ele>735.643</ele>
        <time>2015-03-30T13:09:07Z</time>
      </trkpt>
      <trkpt lat="41.242010" lon="-6.702520">
        <ele>735.607</ele>
        <time>2015-03-30T13:09:16Z</time>
      </trkpt>
      <trkpt lat="41.242247" lon="-6.702348">
        <ele>736.007</ele>
        <time>2015-03-30T13:09:26Z</time>
      </trkpt>
      <trkpt lat="41.242449" lon="-6.702268">
        <ele>736.520</ele>
        <time>2015-03-30T13:09:34Z</time>
      </trkpt>
      <trkpt lat="41.242652" lon="-6.702230">
        <ele>737.565</ele>
        <time>2015-03-30T13:09:43Z</time>
      </trkpt>
      <trkpt lat="41.242668" lon="-6.702227">
        <ele>736.550</ele>
        <time>2015-03-30T13:09:45Z</time>
      </trkpt>
      <trkpt lat="41.242851" lon="-6.702203">
        <ele>736.594</ele>
        <time>2015-03-30T13:09:53Z</time>
      </trkpt>
      <trkpt lat="41.243120" lon="-6.702110">
        <ele>737.084</ele>
        <time>2015-03-30T13:10:03Z</time>
      </trkpt>
      <trkpt lat="41.243299" lon="-6.701836">
        <ele>737.527</ele>
        <time>2015-03-30T13:10:11Z</time>
      </trkpt>
      <trkpt lat="41.243537" lon="-6.701646">
        <ele>738.472</ele>
        <time>2015-03-30T13:10:19Z</time>
      </trkpt>
      <trkpt lat="41.243805" lon="-6.701413">
        <ele>739.441</ele>
        <time>2015-03-30T13:10:28Z</time>
      </trkpt>
      <trkpt lat="41.244006" lon="-6.701249">
        <ele>739.481</ele>
        <time>2015-03-30T13:10:36Z</time>
      </trkpt>
      <trkpt lat="41.244307" lon="-6.701054">
        <ele>740.409</ele>
        <time>2015-03-30T13:10:46Z</time>
      </trkpt>
      <trkpt lat="41.244550" lon="-6.700899">
        <ele>741.807</ele>
        <time>2015-03-30T13:10:55Z</time>
      </trkpt>
      <trkpt lat="41.244571" lon="-6.700878">
        <ele>741.393</ele>
        <time>2015-03-30T13:10:56Z</time>
      </trkpt>
      <trkpt lat="41.244844" lon="-6.700745">
        <ele>742.378</ele>
        <time>2015-03-30T13:11:06Z</time>
      </trkpt>
      <trkpt lat="41.244884" lon="-6.700751">
        <ele>743.263</ele>
        <time>2015-03-30T13:11:08Z</time>
      </trkpt>
      <trkpt lat="41.244899" lon="-6.700743">
        <ele>743.287</ele>
        <time>2015-03-30T13:11:09Z</time>
      </trkpt>
      <trkpt lat="41.244918" lon="-6.700732">
        <ele>743.737</ele>
        <time>2015-03-30T13:11:10Z</time>
      </trkpt>
      <trkpt lat="41.244936" lon="-6.700721">
        <ele>741.820</ele>
        <time>2015-03-30T13:11:11Z</time>
      </trkpt>
      <trkpt lat="41.244956" lon="-6.700707">
        <ele>744.235</ele>
        <time>2015-03-30T13:11:12Z</time>
      </trkpt>
      <trkpt lat="41.244975" lon="-6.700689">
        <ele>743.778</ele>
        <time>2015-03-30T13:11:13Z</time>
      </trkpt>
      <trkpt lat="41.245204" lon="-6.700535">
        <ele>743.233</ele>
        <time>2015-03-30T13:11:22Z</time>
      </trkpt>
      <trkpt lat="41.245409" lon="-6.700375">
        <ele>743.226</ele>
        <time>2015-03-30T13:11:30Z</time>
      </trkpt>
      <trkpt lat="41.245671" lon="-6.700077">
        <ele>743.707</ele>
        <time>2015-03-30T13:11:40Z</time>
      </trkpt>
      <trkpt lat="41.245955" lon="-6.699654">
        <ele>744.756</ele>
        <time>2015-03-30T13:11:52Z</time>
      </trkpt>
      <trkpt lat="41.246159" lon="-6.699233">
        <ele>744.781</ele>
        <time>2015-03-30T13:12:02Z</time>
      </trkpt>
      <trkpt lat="41.246274" lon="-6.699101">
        <ele>746.156</ele>
        <time>2015-03-30T13:12:07Z</time>
      </trkpt>
      <trkpt lat="41.246477" lon="-6.698887">
        <ele>747.160</ele>
        <time>2015-03-30T13:12:17Z</time>
      </trkpt>
      <trkpt lat="41.246493" lon="-6.698854">
        <ele>747.170</ele>
        <time>2015-03-30T13:12:19Z</time>
      </trkpt>
      <trkpt lat="41.246494" lon="-6.698846">
        <ele>743.783</ele>
        <time>2015-03-30T13:12:23Z</time>
      </trkpt>
      <trkpt lat="41.246495" lon="-6.698845">
        <ele>748.528</ele>
        <time>2015-03-30T13:12:24Z</time>
      </trkpt>
      <trkpt lat="41.246490" lon="-6.698836">
        <ele>746.673</ele>
        <time>2015-03-30T13:12:36Z</time>
      </trkpt>
      <trkpt lat="41.246494" lon="-6.698827">
        <ele>746.685</ele>
        <time>2015-03-30T13:12:46Z</time>
      </trkpt>
      <trkpt lat="41.246479" lon="-6.698831">
        <ele>746.613</ele>
        <time>2015-03-30T13:13:02Z</time>
      </trkpt>
      <trkpt lat="41.246463" lon="-6.698835">
        <ele>746.607</ele>
        <time>2015-03-30T13:13:03Z</time>
      </trkpt>
      <trkpt lat="41.246261" lon="-6.698960">
        <ele>744.746</ele>
        <time>2015-03-30T13:13:10Z</time>
      </trkpt>
      <trkpt lat="41.246043" lon="-6.698980">
        <ele>742.831</ele>
        <time>2015-03-30T13:13:17Z</time>
      </trkpt>
      <trkpt lat="41.246027" lon="-6.698940">
        <ele>742.396</ele>
        <time>2015-03-30T13:13:18Z</time>
      </trkpt>
      <trkpt lat="41.245887" lon="-6.698342">
        <ele>739.480</ele>
        <time>2015-03-30T13:13:28Z</time>
      </trkpt>
      <trkpt lat="41.245871" lon="-6.698273">
        <ele>738.960</ele>
        <time>2015-03-30T13:13:29Z</time>
      </trkpt>
      <trkpt lat="41.245851" lon="-6.698214">
        <ele>738.443</ele>
        <time>2015-03-30T13:13:30Z</time>
      </trkpt>
      <trkpt lat="41.245833" lon="-6.698155">
        <ele>738.458</ele>
        <time>2015-03-30T13:13:31Z</time>
      </trkpt>
      <trkpt lat="41.245785" lon="-6.697906">
        <ele>737.023</ele>
        <time>2015-03-30T13:13:35Z</time>
      </trkpt>
      <trkpt lat="41.245718" lon="-6.697363">
        <ele>735.683</ele>
        <time>2015-03-30T13:13:44Z</time>
      </trkpt>
      <trkpt lat="41.245684" lon="-6.697237">
        <ele>735.111</ele>
        <time>2015-03-30T13:13:46Z</time>
      </trkpt>
      <trkpt lat="41.245537" lon="-6.696794">
        <ele>733.107</ele>
        <time>2015-03-30T13:13:53Z</time>
      </trkpt>
      <trkpt lat="41.245468" lon="-6.696636">
        <ele>732.221</ele>
        <time>2015-03-30T13:13:56Z</time>
      </trkpt>
      <trkpt lat="41.245451" lon="-6.696578">
        <ele>731.796</ele>
        <time>2015-03-30T13:13:57Z</time>
      </trkpt>
      <trkpt lat="41.245180" lon="-6.695964">
        <ele>729.321</ele>
        <time>2015-03-30T13:14:07Z</time>
      </trkpt>
      <trkpt lat="41.244970" lon="-6.695631">
        <ele>728.345</ele>
        <time>2015-03-30T13:14:13Z</time>
      </trkpt>
      <trkpt lat="41.244926" lon="-6.695576">
        <ele>728.385</ele>
        <time>2015-03-30T13:14:14Z</time>
      </trkpt>
      <trkpt lat="41.244849" lon="-6.695456">
        <ele>727.978</ele>
        <time>2015-03-30T13:14:16Z</time>
      </trkpt>
      <trkpt lat="41.244815" lon="-6.695395">
        <ele>727.413</ele>
        <time>2015-03-30T13:14:17Z</time>
      </trkpt>
      <trkpt lat="41.244779" lon="-6.695339">
        <ele>727.492</ele>
        <time>2015-03-30T13:14:18Z</time>
      </trkpt>
      <trkpt lat="41.244671" lon="-6.695178">
        <ele>726.973</ele>
        <time>2015-03-30T13:14:21Z</time>
      </trkpt>
      <trkpt lat="41.244639" lon="-6.695126">
        <ele>726.420</ele>
        <time>2015-03-30T13:14:22Z</time>
      </trkpt>
      <trkpt lat="41.244512" lon="-6.694924">
        <ele>725.907</ele>
        <time>2015-03-30T13:14:26Z</time>
      </trkpt>
      <trkpt lat="41.244488" lon="-6.694868">
        <ele>725.928</ele>
        <time>2015-03-30T13:14:27Z</time>
      </trkpt>
      <trkpt lat="41.244463" lon="-6.694812">
        <ele>725.933</ele>
        <time>2015-03-30T13:14:28Z</time>
      </trkpt>
      <trkpt lat="41.244413" lon="-6.694702">
        <ele>725.018</ele>
        <time>2015-03-30T13:14:30Z</time>
      </trkpt>
      <trkpt lat="41.244398" lon="-6.694647">
        <ele>725.082</ele>
        <time>2015-03-30T13:14:31Z</time>
      </trkpt>
      <trkpt lat="41.244366" lon="-6.694534">
        <ele>724.582</ele>
        <time>2015-03-30T13:14:33Z</time>
      </trkpt>
      <trkpt lat="41.244213" lon="-6.694161">
        <ele>724.075</ele>
        <time>2015-03-30T13:14:40Z</time>
      </trkpt>
      <trkpt lat="41.244187" lon="-6.694110">
        <ele>724.080</ele>
        <time>2015-03-30T13:14:41Z</time>
      </trkpt>
      <trkpt lat="41.244159" lon="-6.694062">
        <ele>724.086</ele>
        <time>2015-03-30T13:14:42Z</time>
      </trkpt>
      <trkpt lat="41.244128" lon="-6.694020">
        <ele>723.560</ele>
        <time>2015-03-30T13:14:43Z</time>
      </trkpt>
      <trkpt lat="41.244095" lon="-6.693984">
        <ele>723.526</ele>
        <time>2015-03-30T13:14:44Z</time>
      </trkpt>
      <trkpt lat="41.244036" lon="-6.693910">
        <ele>723.507</ele>
        <time>2015-03-30T13:14:46Z</time>
      </trkpt>
      <trkpt lat="41.243985" lon="-6.693818">
        <ele>723.127</ele>
        <time>2015-03-30T13:14:48Z</time>
      </trkpt>
      <trkpt lat="41.243878" lon="-6.693585">
        <ele>721.672</ele>
        <time>2015-03-30T13:14:52Z</time>
      </trkpt>
      <trkpt lat="41.243819" lon="-6.693470">
        <ele>721.677</ele>
        <time>2015-03-30T13:14:54Z</time>
      </trkpt>
      <trkpt lat="41.243790" lon="-6.693417">
        <ele>720.711</ele>
        <time>2015-03-30T13:14:55Z</time>
      </trkpt>
      <trkpt lat="41.243624" lon="-6.693105">
        <ele>720.791</ele>
        <time>2015-03-30T13:15:02Z</time>
      </trkpt>
      <trkpt lat="41.243563" lon="-6.693026">
        <ele>720.724</ele>
        <time>2015-03-30T13:15:04Z</time>
      </trkpt>
      <trkpt lat="41.243495" lon="-6.692948">
        <ele>720.229</ele>
        <time>2015-03-30T13:15:06Z</time>
      </trkpt>
      <trkpt lat="41.243466" lon="-6.692903">
        <ele>720.261</ele>
        <time>2015-03-30T13:15:07Z</time>
      </trkpt>
      <trkpt lat="41.243437" lon="-6.692858">
        <ele>720.221</ele>
        <time>2015-03-30T13:15:08Z</time>
      </trkpt>
      <trkpt lat="41.243323" lon="-6.692689">
        <ele>720.213</ele>
        <time>2015-03-30T13:15:12Z</time>
      </trkpt>
      <trkpt lat="41.243296" lon="-6.692650">
        <ele>719.707</ele>
        <time>2015-03-30T13:15:13Z</time>
      </trkpt>
      <trkpt lat="41.243049" lon="-6.692324">
        <ele>720.225</ele>
        <time>2015-03-30T13:15:22Z</time>
      </trkpt>
      <trkpt lat="41.243016" lon="-6.692321">
        <ele>720.240</ele>
        <time>2015-03-30T13:15:23Z</time>
      </trkpt>
      <trkpt lat="41.242982" lon="-6.692322">
        <ele>719.715</ele>
        <time>2015-03-30T13:15:24Z</time>
      </trkpt>
      <trkpt lat="41.242946" lon="-6.692317">
        <ele>719.279</ele>
        <time>2015-03-30T13:15:25Z</time>
      </trkpt>
      <trkpt lat="41.242910" lon="-6.692302">
        <ele>719.289</ele>
        <time>2015-03-30T13:15:26Z</time>
      </trkpt>
      <trkpt lat="41.242877" lon="-6.692276">
        <ele>718.762</ele>
        <time>2015-03-30T13:15:27Z</time>
      </trkpt>
      <trkpt lat="41.242848" lon="-6.692240">
        <ele>719.297</ele>
        <time>2015-03-30T13:15:28Z</time>
      </trkpt>
      <trkpt lat="41.242818" lon="-6.692203">
        <ele>719.258</ele>
        <time>2015-03-30T13:15:29Z</time>
      </trkpt>
      <trkpt lat="41.242766" lon="-6.692124">
        <ele>718.752</ele>
        <time>2015-03-30T13:15:31Z</time>
      </trkpt>
      <trkpt lat="41.242743" lon="-6.692080">
        <ele>718.717</ele>
        <time>2015-03-30T13:15:32Z</time>
      </trkpt>
      <trkpt lat="41.242716" lon="-6.692041">
        <ele>718.207</ele>
        <time>2015-03-30T13:15:33Z</time>
      </trkpt>
      <trkpt lat="41.242552" lon="-6.691918">
        <ele>722.634</ele>
        <time>2015-03-30T13:15:38Z</time>
      </trkpt>
      <trkpt lat="41.242517" lon="-6.691902">
        <ele>719.229</ele>
        <time>2015-03-30T13:15:39Z</time>
      </trkpt>
      <trkpt lat="41.242452" lon="-6.691841">
        <ele>717.874</ele>
        <time>2015-03-30T13:15:41Z</time>
      </trkpt>
      <trkpt lat="41.242432" lon="-6.691789">
        <ele>717.388</ele>
        <time>2015-03-30T13:15:42Z</time>
      </trkpt>
      <trkpt lat="41.242424" lon="-6.691731">
        <ele>717.368</ele>
        <time>2015-03-30T13:15:43Z</time>
      </trkpt>
      <trkpt lat="41.242420" lon="-6.691673">
        <ele>717.371</ele>
        <time>2015-03-30T13:15:44Z</time>
      </trkpt>
      <trkpt lat="41.242408" lon="-6.691617">
        <ele>717.396</ele>
        <time>2015-03-30T13:15:45Z</time>
      </trkpt>
      <trkpt lat="41.242385" lon="-6.691569">
        <ele>716.811</ele>
        <time>2015-03-30T13:15:46Z</time>
      </trkpt>
      <trkpt lat="41.242355" lon="-6.691526">
        <ele>716.321</ele>
        <time>2015-03-30T13:15:47Z</time>
      </trkpt>
      <trkpt lat="41.242187" lon="-6.691283">
        <ele>713.003</ele>
        <time>2015-03-30T13:15:52Z</time>
      </trkpt>
      <trkpt lat="41.242114" lon="-6.691187">
        <ele>717.807</ele>
        <time>2015-03-30T13:15:54Z</time>
      </trkpt>
      <trkpt lat="41.241997" lon="-6.691003">
        <ele>714.460</ele>
        <time>2015-03-30T13:15:58Z</time>
      </trkpt>
      <trkpt lat="41.241906" lon="-6.690865">
        <ele>714.445</ele>
        <time>2015-03-30T13:16:01Z</time>
      </trkpt>
      <trkpt lat="41.241872" lon="-6.690822">
        <ele>713.990</ele>
        <time>2015-03-30T13:16:02Z</time>
      </trkpt>
      <trkpt lat="41.241783" lon="-6.690691">
        <ele>713.924</ele>
        <time>2015-03-30T13:16:05Z</time>
      </trkpt>
      <trkpt lat="41.241759" lon="-6.690645">
        <ele>714.424</ele>
        <time>2015-03-30T13:16:06Z</time>
      </trkpt>
      <trkpt lat="41.241736" lon="-6.690595">
        <ele>714.427</ele>
        <time>2015-03-30T13:16:07Z</time>
      </trkpt>
      <trkpt lat="41.241717" lon="-6.690543">
        <ele>713.982</ele>
        <time>2015-03-30T13:16:08Z</time>
      </trkpt>
      <trkpt lat="41.241703" lon="-6.690490">
        <ele>713.976</ele>
        <time>2015-03-30T13:16:09Z</time>
      </trkpt>
      <trkpt lat="41.241690" lon="-6.690433">
        <ele>713.990</ele>
        <time>2015-03-30T13:16:10Z</time>
      </trkpt>
      <trkpt lat="41.241604" lon="-6.689977">
        <ele>713.419</ele>
        <time>2015-03-30T13:16:18Z</time>
      </trkpt>
      <trkpt lat="41.241600" lon="-6.689920">
        <ele>713.407</ele>
        <time>2015-03-30T13:16:19Z</time>
      </trkpt>
      <trkpt lat="41.241592" lon="-6.689517">
        <ele>713.476</ele>
        <time>2015-03-30T13:16:26Z</time>
      </trkpt>
      <trkpt lat="41.241586" lon="-6.689464">
        <ele>713.431</ele>
        <time>2015-03-30T13:16:27Z</time>
      </trkpt>
      <trkpt lat="41.241582" lon="-6.689413">
        <ele>711.056</ele>
        <time>2015-03-30T13:16:28Z</time>
      </trkpt>
      <trkpt lat="41.241588" lon="-6.689366">
        <ele>713.960</ele>
        <time>2015-03-30T13:16:29Z</time>
      </trkpt>
      <trkpt lat="41.241603" lon="-6.689323">
        <ele>713.490</ele>
        <time>2015-03-30T13:16:30Z</time>
      </trkpt>
      <trkpt lat="41.241619" lon="-6.689279">
        <ele>713.443</ele>
        <time>2015-03-30T13:16:31Z</time>
      </trkpt>
      <trkpt lat="41.241632" lon="-6.689231">
        <ele>713.028</ele>
        <time>2015-03-30T13:16:32Z</time>
      </trkpt>
      <trkpt lat="41.241660" lon="-6.689140">
        <ele>713.097</ele>
        <time>2015-03-30T13:16:34Z</time>
      </trkpt>
      <trkpt lat="41.241660" lon="-6.689088">
        <ele>713.023</ele>
        <time>2015-03-30T13:16:35Z</time>
      </trkpt>
      <trkpt lat="41.241652" lon="-6.689038">
        <ele>713.025</ele>
        <time>2015-03-30T13:16:36Z</time>
      </trkpt>
      <trkpt lat="41.241644" lon="-6.688992">
        <ele>713.007</ele>
        <time>2015-03-30T13:16:37Z</time>
      </trkpt>
      <trkpt lat="41.241646" lon="-6.688948">
        <ele>712.558</ele>
        <time>2015-03-30T13:16:38Z</time>
      </trkpt>
      <trkpt lat="41.241659" lon="-6.688904">
        <ele>712.063</ele>
        <time>2015-03-30T13:16:39Z</time>
      </trkpt>
      <trkpt lat="41.241684" lon="-6.688865">
        <ele>711.558</ele>
        <time>2015-03-30T13:16:40Z</time>
      </trkpt>
      <trkpt lat="41.241711" lon="-6.688829">
        <ele>711.582</ele>
        <time>2015-03-30T13:16:41Z</time>
      </trkpt>
      <trkpt lat="41.241737" lon="-6.688795">
        <ele>711.072</ele>
        <time>2015-03-30T13:16:42Z</time>
      </trkpt>
      <trkpt lat="41.241762" lon="-6.688761">
        <ele>710.645</ele>
        <time>2015-03-30T13:16:43Z</time>
      </trkpt>
      <trkpt lat="41.241789" lon="-6.688723">
        <ele>710.660</ele>
        <time>2015-03-30T13:16:44Z</time>
      </trkpt>
      <trkpt lat="41.241818" lon="-6.688681">
        <ele>709.666</ele>
        <time>2015-03-30T13:16:45Z</time>
      </trkpt>
      <trkpt lat="41.241845" lon="-6.688638">
        <ele>707.229</ele>
        <time>2015-03-30T13:16:46Z</time>
      </trkpt>
      <trkpt lat="41.241921" lon="-6.688500">
        <ele>708.621</ele>
        <time>2015-03-30T13:16:49Z</time>
      </trkpt>
      <trkpt lat="41.241930" lon="-6.688441">
        <ele>708.607</ele>
        <time>2015-03-30T13:16:50Z</time>
      </trkpt>
      <trkpt lat="41.241942" lon="-6.688164">
        <ele>707.245</ele>
        <time>2015-03-30T13:16:54Z</time>
      </trkpt>
      <trkpt lat="41.241933" lon="-6.688097">
        <ele>707.250</ele>
        <time>2015-03-30T13:16:55Z</time>
      </trkpt>
      <trkpt lat="41.241919" lon="-6.688029">
        <ele>707.295</ele>
        <time>2015-03-30T13:16:56Z</time>
      </trkpt>
      <trkpt lat="41.241812" lon="-6.687724">
        <ele>706.729</ele>
        <time>2015-03-30T13:17:01Z</time>
      </trkpt>
      <trkpt lat="41.241777" lon="-6.687661">
        <ele>705.859</ele>
        <time>2015-03-30T13:17:02Z</time>
      </trkpt>
      <trkpt lat="41.241730" lon="-6.687605">
        <ele>705.822</ele>
        <time>2015-03-30T13:17:03Z</time>
      </trkpt>
      <trkpt lat="41.241679" lon="-6.687566">
        <ele>705.327</ele>
        <time>2015-03-30T13:17:04Z</time>
      </trkpt>
      <trkpt lat="41.241635" lon="-6.687542">
        <ele>705.851</ele>
        <time>2015-03-30T13:17:05Z</time>
      </trkpt>
      <trkpt lat="41.241598" lon="-6.687525">
        <ele>705.801</ele>
        <time>2015-03-30T13:17:06Z</time>
      </trkpt>
      <trkpt lat="41.241566" lon="-6.687511">
        <ele>706.711</ele>
        <time>2015-03-30T13:17:07Z</time>
      </trkpt>
      <trkpt lat="41.241532" lon="-6.687488">
        <ele>706.707</ele>
        <time>2015-03-30T13:17:08Z</time>
      </trkpt>
      <trkpt lat="41.241503" lon="-6.687446">
        <ele>705.864</ele>
        <time>2015-03-30T13:17:09Z</time>
      </trkpt>
      <trkpt lat="41.241487" lon="-6.687390">
        <ele>705.329</ele>
        <time>2015-03-30T13:17:10Z</time>
      </trkpt>
      <trkpt lat="41.241484" lon="-6.687330">
        <ele>705.374</ele>
        <time>2015-03-30T13:17:11Z</time>
      </trkpt>
      <trkpt lat="41.241486" lon="-6.687269">
        <ele>705.348</ele>
        <time>2015-03-30T13:17:12Z</time>
      </trkpt>
      <trkpt lat="41.241488" lon="-6.687205">
        <ele>704.818</ele>
        <time>2015-03-30T13:17:13Z</time>
      </trkpt>
      <trkpt lat="41.241489" lon="-6.687142">
        <ele>704.811</ele>
        <time>2015-03-30T13:17:14Z</time>
      </trkpt>
      <trkpt lat="41.241492" lon="-6.687080">
        <ele>704.856</ele>
        <time>2015-03-30T13:17:15Z</time>
      </trkpt>
      <trkpt lat="41.241494" lon="-6.686948">
        <ele>704.812</ele>
        <time>2015-03-30T13:17:17Z</time>
      </trkpt>
      <trkpt lat="41.241492" lon="-6.686806">
        <ele>704.332</ele>
        <time>2015-03-30T13:17:19Z</time>
      </trkpt>
      <trkpt lat="41.241492" lon="-6.686738">
        <ele>704.305</ele>
        <time>2015-03-30T13:17:20Z</time>
      </trkpt>
      <trkpt lat="41.241489" lon="-6.686671">
        <ele>704.307</ele>
        <time>2015-03-30T13:17:21Z</time>
      </trkpt>
      <trkpt lat="41.241480" lon="-6.686542">
        <ele>704.340</ele>
        <time>2015-03-30T13:17:23Z</time>
      </trkpt>
      <trkpt lat="41.241482" lon="-6.686481">
        <ele>703.825</ele>
        <time>2015-03-30T13:17:24Z</time>
      </trkpt>
      <trkpt lat="41.241494" lon="-6.686421">
        <ele>703.890</ele>
        <time>2015-03-30T13:17:25Z</time>
      </trkpt>
      <trkpt lat="41.241506" lon="-6.686365">
        <ele>703.894</ele>
        <time>2015-03-30T13:17:26Z</time>
      </trkpt>
      <trkpt lat="41.241513" lon="-6.686310">
        <ele>703.874</ele>
        <time>2015-03-30T13:17:27Z</time>
      </trkpt>
      <trkpt lat="41.241520" lon="-6.686249">
        <ele>703.857</ele>
        <time>2015-03-30T13:17:28Z</time>
      </trkpt>
      <trkpt lat="41.241522" lon="-6.686186">
        <ele>703.362</ele>
        <time>2015-03-30T13:17:29Z</time>
      </trkpt>
      <trkpt lat="41.241524" lon="-6.686123">
        <ele>703.322</ele>
        <time>2015-03-30T13:17:30Z</time>
      </trkpt>
      <trkpt lat="41.241525" lon="-6.686058">
        <ele>702.962</ele>
        <time>2015-03-30T13:17:31Z</time>
      </trkpt>
      <trkpt lat="41.241524" lon="-6.685995">
        <ele>702.908</ele>
        <time>2015-03-30T13:17:32Z</time>
      </trkpt>
      <trkpt lat="41.241530" lon="-6.685936">
        <ele>702.907</ele>
        <time>2015-03-30T13:17:33Z</time>
      </trkpt>
      <trkpt lat="41.241542" lon="-6.685882">
        <ele>702.991</ele>
        <time>2015-03-30T13:17:34Z</time>
      </trkpt>
      <trkpt lat="41.241575" lon="-6.685712">
        <ele>701.996</ele>
        <time>2015-03-30T13:17:37Z</time>
      </trkpt>
      <trkpt lat="41.241579" lon="-6.685661">
        <ele>701.961</ele>
        <time>2015-03-30T13:17:38Z</time>
      </trkpt>
      <trkpt lat="41.241585" lon="-6.685558">
        <ele>702.985</ele>
        <time>2015-03-30T13:17:40Z</time>
      </trkpt>
      <trkpt lat="41.241580" lon="-6.685501">
        <ele>702.425</ele>
        <time>2015-03-30T13:17:41Z</time>
      </trkpt>
      <trkpt lat="41.241573" lon="-6.685381">
        <ele>700.918</ele>
        <time>2015-03-30T13:17:43Z</time>
      </trkpt>
      <trkpt lat="41.241572" lon="-6.685316">
        <ele>705.343</ele>
        <time>2015-03-30T13:17:44Z</time>
      </trkpt>
      <trkpt lat="41.241572" lon="-6.685251">
        <ele>701.418</ele>
        <time>2015-03-30T13:17:45Z</time>
      </trkpt>
      <trkpt lat="41.241570" lon="-6.685188">
        <ele>700.998</ele>
        <time>2015-03-30T13:17:46Z</time>
      </trkpt>
      <trkpt lat="41.241544" lon="-6.684831">
        <ele>700.017</ele>
        <time>2015-03-30T13:17:51Z</time>
      </trkpt>
      <trkpt lat="41.241542" lon="-6.684749">
        <ele>699.507</ele>
        <time>2015-03-30T13:17:52Z</time>
      </trkpt>
      <trkpt lat="41.241541" lon="-6.684574">
        <ele>698.140</ele>
        <time>2015-03-30T13:17:54Z</time>
      </trkpt>
      <trkpt lat="41.241532" lon="-6.684482">
        <ele>698.175</ele>
        <time>2015-03-30T13:17:55Z</time>
      </trkpt>
      <trkpt lat="41.241453" lon="-6.684019">
        <ele>695.240</ele>
        <time>2015-03-30T13:18:00Z</time>
      </trkpt>
      <trkpt lat="41.241424" lon="-6.683932">
        <ele>695.784</ele>
        <time>2015-03-30T13:18:01Z</time>
      </trkpt>
      <trkpt lat="41.241296" lon="-6.683549">
        <ele>693.784</ele>
        <time>2015-03-30T13:18:06Z</time>
      </trkpt>
      <trkpt lat="41.241173" lon="-6.682786">
        <ele>691.377</ele>
        <time>2015-03-30T13:18:15Z</time>
      </trkpt>
      <trkpt lat="41.241150" lon="-6.682711">
        <ele>691.322</ele>
        <time>2015-03-30T13:18:16Z</time>
      </trkpt>
      <trkpt lat="41.241118" lon="-6.682643">
        <ele>691.374</ele>
        <time>2015-03-30T13:18:17Z</time>
      </trkpt>
      <trkpt lat="41.241078" lon="-6.682581">
        <ele>690.456</ele>
        <time>2015-03-30T13:18:18Z</time>
      </trkpt>
      <trkpt lat="41.241039" lon="-6.682525">
        <ele>690.421</ele>
        <time>2015-03-30T13:18:19Z</time>
      </trkpt>
      <trkpt lat="41.240833" lon="-6.682249">
        <ele>687.507</ele>
        <time>2015-03-30T13:18:26Z</time>
      </trkpt>
      <trkpt lat="41.240802" lon="-6.682213">
        <ele>691.866</ele>
        <time>2015-03-30T13:18:27Z</time>
      </trkpt>
      <trkpt lat="41.240700" lon="-6.682107">
        <ele>689.421</ele>
        <time>2015-03-30T13:18:30Z</time>
      </trkpt>
      <trkpt lat="41.240669" lon="-6.682064">
        <ele>689.476</ele>
        <time>2015-03-30T13:18:31Z</time>
      </trkpt>
      <trkpt lat="41.240580" lon="-6.681928">
        <ele>689.440</ele>
        <time>2015-03-30T13:18:34Z</time>
      </trkpt>
      <trkpt lat="41.240430" lon="-6.681638">
        <ele>688.910</ele>
        <time>2015-03-30T13:18:40Z</time>
      </trkpt>
      <trkpt lat="41.240228" lon="-6.681284">
        <ele>689.423</ele>
        <time>2015-03-30T13:18:49Z</time>
      </trkpt>
      <trkpt lat="41.240028" lon="-6.680995">
        <ele>690.458</ele>
        <time>2015-03-30T13:18:59Z</time>
      </trkpt>
      <trkpt lat="41.239941" lon="-6.680703">
        <ele>690.449</ele>
        <time>2015-03-30T13:19:09Z</time>
      </trkpt>
      <trkpt lat="41.239877" lon="-6.680341">
        <ele>689.402</ele>
        <time>2015-03-30T13:19:18Z</time>
      </trkpt>
      <trkpt lat="41.239856" lon="-6.680019">
        <ele>688.922</ele>
        <time>2015-03-30T13:19:27Z</time>
      </trkpt>
      <trkpt lat="41.239856" lon="-6.680000">
        <ele>688.907</ele>
        <time>2015-03-30T13:19:28Z</time>
      </trkpt>
      <trkpt lat="41.239854" lon="-6.679931">
        <ele>689.443</ele>
        <time>2015-03-30T13:19:37Z</time>
      </trkpt>
      <trkpt lat="41.239836" lon="-6.679936">
        <ele>689.498</ele>
        <time>2015-03-30T13:20:03Z</time>
      </trkpt>
      <trkpt lat="41.239833" lon="-6.679936">
        <ele>689.493</ele>
        <time>2015-03-30T13:20:23Z</time>
      </trkpt>
      <trkpt lat="41.239833" lon="-6.679930">
        <ele>688.477</ele>
        <time>2015-03-30T13:20:42Z</time>
      </trkpt>
      <trkpt lat="41.239835" lon="-6.679926">
        <ele>689.967</ele>
        <time>2015-03-30T13:21:03Z</time>
      </trkpt>
      <trkpt lat="41.239833" lon="-6.679926">
        <ele>689.970</ele>
        <time>2015-03-30T13:21:17Z</time>
      </trkpt>
      <trkpt lat="41.239832" lon="-6.679927">
        <ele>689.985</ele>
        <time>2015-03-30T13:21:19Z</time>
      </trkpt>
      <trkpt lat="41.239855" lon="-6.679936">
        <ele>689.494</ele>
        <time>2015-03-30T13:21:26Z</time>
      </trkpt>
      <trkpt lat="41.239830" lon="-6.680012">
        <ele>688.957</ele>
        <time>2015-03-30T13:21:31Z</time>
      </trkpt>
      <trkpt lat="41.239751" lon="-6.680231">
        <ele>688.022</ele>
        <time>2015-03-30T13:21:40Z</time>
      </trkpt>
      <trkpt lat="41.239744" lon="-6.680260">
        <ele>688.007</ele>
        <time>2015-03-30T13:21:48Z</time>
      </trkpt>
      <trkpt lat="41.239747" lon="-6.680265">
        <ele>687.518</ele>
        <time>2015-03-30T13:21:57Z</time>
      </trkpt>
      <trkpt lat="41.239750" lon="-6.680258">
        <ele>687.553</ele>
        <time>2015-03-30T13:22:20Z</time>
      </trkpt>
      <trkpt lat="41.239751" lon="-6.680260">
        <ele>687.588</ele>
        <time>2015-03-30T13:22:42Z</time>
      </trkpt>
      <trkpt lat="41.239753" lon="-6.680266">
        <ele>687.522</ele>
        <time>2015-03-30T13:23:05Z</time>
      </trkpt>
      <trkpt lat="41.239768" lon="-6.680262">
        <ele>688.012</ele>
        <time>2015-03-30T13:23:28Z</time>
      </trkpt>
      <trkpt lat="41.239784" lon="-6.680251">
        <ele>687.515</ele>
        <time>2015-03-30T13:23:48Z</time>
      </trkpt>
      <trkpt lat="41.239792" lon="-6.680244">
        <ele>687.590</ele>
        <time>2015-03-30T13:24:10Z</time>
      </trkpt>
      <trkpt lat="41.239797" lon="-6.680235">
        <ele>687.566</ele>
        <time>2015-03-30T13:24:32Z</time>
      </trkpt>
      <trkpt lat="41.239799" lon="-6.680222">
        <ele>688.029</ele>
        <time>2015-03-30T13:24:57Z</time>
      </trkpt>
      <trkpt lat="41.239795" lon="-6.680202">
        <ele>688.021</ele>
        <time>2015-03-30T13:25:23Z</time>
      </trkpt>
      <trkpt lat="41.239779" lon="-6.680194">
        <ele>687.507</ele>
        <time>2015-03-30T13:25:50Z</time>
      </trkpt>
      <trkpt lat="41.239770" lon="-6.680203">
        <ele>688.055</ele>
        <time>2015-03-30T13:26:16Z</time>
      </trkpt>
      <trkpt lat="41.239769" lon="-6.680208">
        <ele>688.030</ele>
        <time>2015-03-30T13:26:39Z</time>
      </trkpt>
      <trkpt lat="41.239781" lon="-6.680209">
        <ele>688.435</ele>
        <time>2015-03-30T13:27:03Z</time>
      </trkpt>
      <trkpt lat="41.239793" lon="-6.680206">
        <ele>688.449</ele>
        <time>2015-03-30T13:27:27Z</time>
      </trkpt>
      <trkpt lat="41.239794" lon="-6.680209">
        <ele>688.479</ele>
        <time>2015-03-30T13:27:51Z</time>
      </trkpt>
      <trkpt lat="41.239787" lon="-6.680196">
        <ele>688.932</ele>
        <time>2015-03-30T13:28:15Z</time>
      </trkpt>
      <trkpt lat="41.239783" lon="-6.680190">
        <ele>688.937</ele>
        <time>2015-03-30T13:28:38Z</time>
      </trkpt>
      <trkpt lat="41.239786" lon="-6.680194">
        <ele>688.967</ele>
        <time>2015-03-30T13:29:01Z</time>
      </trkpt>
      <trkpt lat="41.239789" lon="-6.680209">
        <ele>688.981</ele>
        <time>2015-03-30T13:29:25Z</time>
      </trkpt>
      <trkpt lat="41.239797" lon="-6.680216">
        <ele>689.419</ele>
        <time>2015-03-30T13:29:49Z</time>
      </trkpt>
      <trkpt lat="41.239808" lon="-6.680217">
        <ele>689.907</ele>
        <time>2015-03-30T13:30:15Z</time>
      </trkpt>
      <trkpt lat="41.239810" lon="-6.680208">
        <ele>689.935</ele>
        <time>2015-03-30T13:30:38Z</time>
      </trkpt>
      <trkpt lat="41.239810" lon="-6.680207">
        <ele>689.970</ele>
        <time>2015-03-30T13:30:52Z</time>
      </trkpt>
      <trkpt lat="41.239819" lon="-6.680259">
        <ele>690.825</ele>
        <time>2015-03-30T13:57:06Z</time>
      </trkpt>
      <trkpt lat="41.239812" lon="-6.680262">
        <ele>691.399</ele>
        <time>2015-03-30T13:57:07Z</time>
      </trkpt>
      <trkpt lat="41.239790" lon="-6.680250">
        <ele>688.029</ele>
        <time>2015-03-30T13:57:24Z</time>
      </trkpt>
      <trkpt lat="41.239773" lon="-6.680219">
        <ele>687.592</ele>
        <time>2015-03-30T13:57:46Z</time>
      </trkpt>
      <trkpt lat="41.239745" lon="-6.680226">
        <ele>687.587</ele>
        <time>2015-03-30T13:58:01Z</time>
      </trkpt>
      <trkpt lat="41.239734" lon="-6.680223">
        <ele>688.057</ele>
        <time>2015-03-30T13:58:07Z</time>
      </trkpt>
      <trkpt lat="41.239776" lon="-6.680219">
        <ele>688.400</ele>
        <time>2015-03-30T13:58:16Z</time>
      </trkpt>
      <trkpt lat="41.239857" lon="-6.680245">
        <ele>688.920</ele>
        <time>2015-03-30T13:58:26Z</time>
      </trkpt>
      <trkpt lat="41.239839" lon="-6.680151">
        <ele>688.907</ele>
        <time>2015-03-30T13:58:32Z</time>
      </trkpt>
      <trkpt lat="41.239860" lon="-6.679998">
        <ele>689.484</ele>
        <time>2015-03-30T13:58:41Z</time>
      </trkpt>
      <trkpt lat="41.239882" lon="-6.679961">
        <ele>689.499</ele>
        <time>2015-03-30T13:58:44Z</time>
      </trkpt>
      <trkpt lat="41.239955" lon="-6.679876">
        <ele>689.434</ele>
        <time>2015-03-30T13:58:54Z</time>
      </trkpt>
      <trkpt lat="41.239886" lon="-6.679792">
        <ele>688.998</ele>
        <time>2015-03-30T13:59:02Z</time>
      </trkpt>
      <trkpt lat="41.239862" lon="-6.679707">
        <ele>689.458</ele>
        <time>2015-03-30T13:59:06Z</time>
      </trkpt>
      <trkpt lat="41.239907" lon="-6.679492">
        <ele>689.911</ele>
        <time>2015-03-30T13:59:19Z</time>
      </trkpt>
      <trkpt lat="41.239932" lon="-6.679474">
        <ele>689.996</ele>
        <time>2015-03-30T13:59:24Z</time>
      </trkpt>
      <trkpt lat="41.240045" lon="-6.679471">
        <ele>689.912</ele>
        <time>2015-03-30T13:59:31Z</time>
      </trkpt>
      <trkpt lat="41.240094" lon="-6.679412">
        <ele>689.432</ele>
        <time>2015-03-30T13:59:42Z</time>
      </trkpt>
      <trkpt lat="41.240108" lon="-6.679438">
        <ele>689.405</ele>
        <time>2015-03-30T13:59:47Z</time>
      </trkpt>
      <trkpt lat="41.240125" lon="-6.679472">
        <ele>688.407</ele>
        <time>2015-03-30T13:59:50Z</time>
      </trkpt>
      <trkpt lat="41.240396" lon="-6.679464">
        <ele>688.470</ele>
        <time>2015-03-30T14:00:01Z</time>
      </trkpt>
      <trkpt lat="41.240472" lon="-6.679478">
        <ele>688.935</ele>
        <time>2015-03-30T14:00:10Z</time>
      </trkpt>
      <trkpt lat="41.240504" lon="-6.679454">
        <ele>688.440</ele>
        <time>2015-03-30T14:00:24Z</time>
      </trkpt>
      <trkpt lat="41.240516" lon="-6.679444">
        <ele>688.424</ele>
        <time>2015-03-30T14:00:44Z</time>
      </trkpt>
      <trkpt lat="41.240514" lon="-6.679440">
        <ele>688.434</ele>
        <time>2015-03-30T14:01:06Z</time>
      </trkpt>
      <trkpt lat="41.240514" lon="-6.679448">
        <ele>688.487</ele>
        <time>2015-03-30T14:01:32Z</time>
      </trkpt>
      <trkpt lat="41.240519" lon="-6.679446">
        <ele>688.942</ele>
        <time>2015-03-30T14:01:48Z</time>
      </trkpt>
      <trkpt lat="41.240525" lon="-6.679437">
        <ele>688.947</ele>
        <time>2015-03-30T14:02:10Z</time>
      </trkpt>
      <trkpt lat="41.240529" lon="-6.679436">
        <ele>688.929</ele>
        <time>2015-03-30T14:02:34Z</time>
      </trkpt>
      <trkpt lat="41.240530" lon="-6.679436">
        <ele>688.421</ele>
        <time>2015-03-30T14:02:48Z</time>
      </trkpt>
      <trkpt lat="41.240538" lon="-6.679435">
        <ele>688.407</ele>
        <time>2015-03-30T14:03:10Z</time>
      </trkpt>
      <trkpt lat="41.240546" lon="-6.679430">
        <ele>688.453</ele>
        <time>2015-03-30T14:03:19Z</time>
      </trkpt>
      <trkpt lat="41.240620" lon="-6.679410">
        <ele>688.498</ele>
        <time>2015-03-30T14:03:23Z</time>
      </trkpt>
      <trkpt lat="41.240804" lon="-6.679376">
        <ele>688.013</ele>
        <time>2015-03-30T14:03:30Z</time>
      </trkpt>
      <trkpt lat="41.241028" lon="-6.679387">
        <ele>689.977</ele>
        <time>2015-03-30T14:03:40Z</time>
      </trkpt>
      <trkpt lat="41.241073" lon="-6.679379">
        <ele>688.097</ele>
        <time>2015-03-30T14:03:42Z</time>
      </trkpt>
      <trkpt lat="41.241117" lon="-6.679368">
        <ele>689.410</ele>
        <time>2015-03-30T14:03:44Z</time>
      </trkpt>
      <trkpt lat="41.241365" lon="-6.679334">
        <ele>689.965</ele>
        <time>2015-03-30T14:03:55Z</time>
      </trkpt>
      <trkpt lat="41.241464" lon="-6.679339">
        <ele>690.467</ele>
        <time>2015-03-30T14:04:00Z</time>
      </trkpt>
      <trkpt lat="41.241613" lon="-6.679321">
        <ele>690.881</ele>
        <time>2015-03-30T14:04:10Z</time>
      </trkpt>
      <trkpt lat="41.241769" lon="-6.679261">
        <ele>690.419</ele>
        <time>2015-03-30T14:04:21Z</time>
      </trkpt>
      <trkpt lat="41.241958" lon="-6.679081">
        <ele>689.907</ele>
        <time>2015-03-30T14:04:30Z</time>
      </trkpt>
      <trkpt lat="41.242208" lon="-6.678916">
        <ele>688.965</ele>
        <time>2015-03-30T14:04:37Z</time>
      </trkpt>
      <trkpt lat="41.242376" lon="-6.678739">
        <ele>688.970</ele>
        <time>2015-03-30T14:04:44Z</time>
      </trkpt>
      <trkpt lat="41.242454" lon="-6.678657">
        <ele>688.945</ele>
        <time>2015-03-30T14:04:48Z</time>
      </trkpt>
      <trkpt lat="41.242773" lon="-6.678376">
        <ele>690.469</ele>
        <time>2015-03-30T14:05:01Z</time>
      </trkpt>
      <trkpt lat="41.242991" lon="-6.678232">
        <ele>690.429</ele>
        <time>2015-03-30T14:05:10Z</time>
      </trkpt>
      <trkpt lat="41.243165" lon="-6.678044">
        <ele>693.332</ele>
        <time>2015-03-30T14:05:21Z</time>
      </trkpt>
      <trkpt lat="41.243296" lon="-6.677834">
        <ele>694.797</ele>
        <time>2015-03-30T14:05:31Z</time>
      </trkpt>
      <trkpt lat="41.243436" lon="-6.677644">
        <ele>696.661</ele>
        <time>2015-03-30T14:05:40Z</time>
      </trkpt>
      <trkpt lat="41.243454" lon="-6.677608">
        <ele>696.621</ele>
        <time>2015-03-30T14:05:42Z</time>
      </trkpt>
      <trkpt lat="41.243659" lon="-6.677482">
        <ele>698.513</ele>
        <time>2015-03-30T14:05:54Z</time>
      </trkpt>
      <trkpt lat="41.243870" lon="-6.677330">
        <ele>699.507</ele>
        <time>2015-03-30T14:06:05Z</time>
      </trkpt>
      <trkpt lat="41.244093" lon="-6.677141">
        <ele>700.535</ele>
        <time>2015-03-30T14:06:16Z</time>
      </trkpt>
      <trkpt lat="41.244284" lon="-6.677028">
        <ele>701.430</ele>
        <time>2015-03-30T14:06:25Z</time>
      </trkpt>
      <trkpt lat="41.244494" lon="-6.676944">
        <ele>701.495</ele>
        <time>2015-03-30T14:06:35Z</time>
      </trkpt>
      <trkpt lat="41.244695" lon="-6.676854">
        <ele>699.549</ele>
        <time>2015-03-30T14:06:45Z</time>
      </trkpt>
      <trkpt lat="41.244842" lon="-6.676783">
        <ele>702.929</ele>
        <time>2015-03-30T14:06:52Z</time>
      </trkpt>
      <trkpt lat="41.245015" lon="-6.676698">
        <ele>704.372</ele>
        <time>2015-03-30T14:07:01Z</time>
      </trkpt>
      <trkpt lat="41.245028" lon="-6.676692">
        <ele>703.387</ele>
        <time>2015-03-30T14:07:02Z</time>
      </trkpt>
      <trkpt lat="41.245110" lon="-6.676621">
        <ele>706.763</ele>
        <time>2015-03-30T14:07:12Z</time>
      </trkpt>
      <trkpt lat="41.245111" lon="-6.676618">
        <ele>703.344</ele>
        <time>2015-03-30T14:07:14Z</time>
      </trkpt>
      <trkpt lat="41.245110" lon="-6.676616">
        <ele>707.218</ele>
        <time>2015-03-30T14:07:15Z</time>
      </trkpt>
      <trkpt lat="41.245110" lon="-6.676616">
        <ele>703.307</ele>
        <time>2015-03-30T14:07:16Z</time>
      </trkpt>
      <trkpt lat="41.245168" lon="-6.676550">
        <ele>704.875</ele>
        <time>2015-03-30T14:07:28Z</time>
      </trkpt>
      <trkpt lat="41.245264" lon="-6.676340">
        <ele>705.810</ele>
        <time>2015-03-30T14:07:38Z</time>
      </trkpt>
      <trkpt lat="41.245402" lon="-6.676119">
        <ele>706.715</ele>
        <time>2015-03-30T14:07:48Z</time>
      </trkpt>
      <trkpt lat="41.245596" lon="-6.675914">
        <ele>707.229</ele>
        <time>2015-03-30T14:07:58Z</time>
      </trkpt>
      <trkpt lat="41.245860" lon="-6.675702">
        <ele>708.259</ele>
        <time>2015-03-30T14:08:10Z</time>
      </trkpt>
      <trkpt lat="41.246029" lon="-6.675525">
        <ele>709.162</ele>
        <time>2015-03-30T14:08:19Z</time>
      </trkpt>
      <trkpt lat="41.246201" lon="-6.675344">
        <ele>709.197</ele>
        <time>2015-03-30T14:08:28Z</time>
      </trkpt>
      <trkpt lat="41.246404" lon="-6.675150">
        <ele>711.516</ele>
        <time>2015-03-30T14:08:39Z</time>
      </trkpt>
      <trkpt lat="41.246625" lon="-6.674969">
        <ele>712.076</ele>
        <time>2015-03-30T14:08:50Z</time>
      </trkpt>
      <trkpt lat="41.246826" lon="-6.674767">
        <ele>713.013</ele>
        <time>2015-03-30T14:09:01Z</time>
      </trkpt>
      <trkpt lat="41.247050" lon="-6.674578">
        <ele>714.907</ele>
        <time>2015-03-30T14:09:13Z</time>
      </trkpt>
      <trkpt lat="41.247198" lon="-6.674401">
        <ele>714.950</ele>
        <time>2015-03-30T14:09:23Z</time>
      </trkpt>
      <trkpt lat="41.247282" lon="-6.674287">
        <ele>715.445</ele>
        <time>2015-03-30T14:09:29Z</time>
      </trkpt>
      <trkpt lat="41.247317" lon="-6.674135">
        <ele>714.440</ele>
        <time>2015-03-30T14:09:35Z</time>
      </trkpt>
      <trkpt lat="41.247318" lon="-6.674056">
        <ele>715.884</ele>
        <time>2015-03-30T14:09:38Z</time>
      </trkpt>
      <trkpt lat="41.247354" lon="-6.673886">
        <ele>716.354</ele>
        <time>2015-03-30T14:09:45Z</time>
      </trkpt>
      <trkpt lat="41.247436" lon="-6.673789">
        <ele>717.397</ele>
        <time>2015-03-30T14:09:51Z</time>
      </trkpt>
      <trkpt lat="41.247656" lon="-6.673599">
        <ele>718.722</ele>
        <time>2015-03-30T14:10:04Z</time>
      </trkpt>
      <trkpt lat="41.247683" lon="-6.673559">
        <ele>719.216</ele>
        <time>2015-03-30T14:10:06Z</time>
      </trkpt>
      <trkpt lat="41.247728" lon="-6.673483">
        <ele>719.276</ele>
        <time>2015-03-30T14:10:10Z</time>
      </trkpt>
      <trkpt lat="41.247779" lon="-6.673388">
        <ele>719.713</ele>
        <time>2015-03-30T14:10:15Z</time>
      </trkpt>
      <trkpt lat="41.247830" lon="-6.673310">
        <ele>720.207</ele>
        <time>2015-03-30T14:10:20Z</time>
      </trkpt>
      <trkpt lat="41.247845" lon="-6.673277">
        <ele>720.730</ele>
        <time>2015-03-30T14:10:22Z</time>
      </trkpt>
      <trkpt lat="41.247843" lon="-6.673247">
        <ele>720.775</ele>
        <time>2015-03-30T14:10:24Z</time>
      </trkpt>
      <trkpt lat="41.247854" lon="-6.672963">
        <ele>723.160</ele>
        <time>2015-03-30T14:10:35Z</time>
      </trkpt>
      <trkpt lat="41.247912" lon="-6.672582">
        <ele>724.074</ele>
        <time>2015-03-30T14:10:47Z</time>
      </trkpt>
      <trkpt lat="41.248020" lon="-6.672119">
        <ele>724.594</ele>
        <time>2015-03-30T14:11:00Z</time>
      </trkpt>
      <trkpt lat="41.248044" lon="-6.671951">
        <ele>718.287</ele>
        <time>2015-03-30T14:11:04Z</time>
      </trkpt>
      <trkpt lat="41.248048" lon="-6.671911">
        <ele>726.422</ele>
        <time>2015-03-30T14:11:05Z</time>
      </trkpt>
      <trkpt lat="41.248085" lon="-6.671639">
        <ele>723.523</ele>
        <time>2015-03-30T14:11:11Z</time>
      </trkpt>
      <trkpt lat="41.248103" lon="-6.671390">
        <ele>722.683</ele>
        <time>2015-03-30T14:11:15Z</time>
      </trkpt>
      <trkpt lat="41.248138" lon="-6.671026">
        <ele>720.711</ele>
        <time>2015-03-30T14:11:20Z</time>
      </trkpt>
      <trkpt lat="41.248460" lon="-6.670084">
        <ele>718.707</ele>
        <time>2015-03-30T14:11:34Z</time>
      </trkpt>
      <trkpt lat="41.248650" lon="-6.669678">
        <ele>715.421</ele>
        <time>2015-03-30T14:11:39Z</time>
      </trkpt>
      <trkpt lat="41.248726" lon="-6.669495">
        <ele>714.496</ele>
        <time>2015-03-30T14:11:41Z</time>
      </trkpt>
      <trkpt lat="41.248841" lon="-6.669240">
        <ele>713.981</ele>
        <time>2015-03-30T14:11:44Z</time>
      </trkpt>
      <trkpt lat="41.249123" lon="-6.668820">
        <ele>712.575</ele>
        <time>2015-03-30T14:11:50Z</time>
      </trkpt>
      <trkpt lat="41.249392" lon="-6.668367">
        <ele>708.645</ele>
        <time>2015-03-30T14:11:56Z</time>
      </trkpt>
      <trkpt lat="41.249437" lon="-6.668287">
        <ele>708.658</ele>
        <time>2015-03-30T14:11:57Z</time>
      </trkpt>
      <trkpt lat="41.249593" lon="-6.668003">
        <ele>707.243</ele>
        <time>2015-03-30T14:12:01Z</time>
      </trkpt>
      <trkpt lat="41.249849" lon="-6.667569">
        <ele>703.378</ele>
        <time>2015-03-30T14:12:07Z</time>
      </trkpt>
      <trkpt lat="41.249923" lon="-6.667448">
        <ele>701.933</ele>
        <time>2015-03-30T14:12:09Z</time>
      </trkpt>
      <trkpt lat="41.249970" lon="-6.667044">
        <ele>698.526</ele>
        <time>2015-03-30T14:12:15Z</time>
      </trkpt>
      <trkpt lat="41.249906" lon="-6.666941">
        <ele>697.107</ele>
        <time>2015-03-30T14:12:17Z</time>
      </trkpt>
      <trkpt lat="41.249678" lon="-6.666695">
        <ele>692.896</ele>
        <time>2015-03-30T14:12:23Z</time>
      </trkpt>
      <trkpt lat="41.249584" lon="-6.666491">
        <ele>689.451</ele>
        <time>2015-03-30T14:12:28Z</time>
      </trkpt>
      <trkpt lat="41.249583" lon="-6.666470">
        <ele>688.966</ele>
        <time>2015-03-30T14:12:29Z</time>
      </trkpt>
      <trkpt lat="41.249584" lon="-6.666435">
        <ele>684.660</ele>
        <time>2015-03-30T14:12:33Z</time>
      </trkpt>
      <trkpt lat="41.249583" lon="-6.666434">
        <ele>692.310</ele>
        <time>2015-03-30T14:12:34Z</time>
      </trkpt>
      <trkpt lat="41.249583" lon="-6.666434">
        <ele>688.923</ele>
        <time>2015-03-30T14:12:35Z</time>
      </trkpt>
      <trkpt lat="41.249580" lon="-6.666438">
        <ele>688.988</ele>
        <time>2015-03-30T14:12:40Z</time>
      </trkpt>
      <trkpt lat="41.249591" lon="-6.666421">
        <ele>688.922</ele>
        <time>2015-03-30T14:12:41Z</time>
      </trkpt>
      <trkpt lat="41.249606" lon="-6.666401">
        <ele>688.462</ele>
        <time>2015-03-30T14:12:42Z</time>
      </trkpt>
      <trkpt lat="41.249635" lon="-6.666391">
        <ele>687.008</ele>
        <time>2015-03-30T14:12:50Z</time>
      </trkpt>
      <trkpt lat="41.249763" lon="-6.666386">
        <ele>686.507</ele>
        <time>2015-03-30T14:12:55Z</time>
      </trkpt>
      <trkpt lat="41.249911" lon="-6.666318">
        <ele>683.621</ele>
        <time>2015-03-30T14:12:59Z</time>
      </trkpt>
      <trkpt lat="41.250034" lon="-6.666200">
        <ele>680.886</ele>
        <time>2015-03-30T14:13:02Z</time>
      </trkpt>
      <trkpt lat="41.250072" lon="-6.666143">
        <ele>680.861</ele>
        <time>2015-03-30T14:13:03Z</time>
      </trkpt>
      <trkpt lat="41.250111" lon="-6.666083">
        <ele>679.815</ele>
        <time>2015-03-30T14:13:04Z</time>
      </trkpt>
      <trkpt lat="41.250144" lon="-6.666016">
        <ele>678.845</ele>
        <time>2015-03-30T14:13:05Z</time>
      </trkpt>
      <trkpt lat="41.250222" lon="-6.665812">
        <ele>678.898</ele>
        <time>2015-03-30T14:13:08Z</time>
      </trkpt>
      <trkpt lat="41.250226" lon="-6.665743">
        <ele>678.823</ele>
        <time>2015-03-30T14:13:09Z</time>
      </trkpt>
      <trkpt lat="41.250226" lon="-6.665679">
        <ele>679.351</ele>
        <time>2015-03-30T14:13:10Z</time>
      </trkpt>
      <trkpt lat="41.250268" lon="-6.665283">
        <ele>680.301</ele>
        <time>2015-03-30T14:13:18Z</time>
      </trkpt>
      <trkpt lat="41.250358" lon="-6.664885">
        <ele>678.411</ele>
        <time>2015-03-30T14:13:26Z</time>
      </trkpt>
      <trkpt lat="41.250439" lon="-6.664768">
        <ele>676.407</ele>
        <time>2015-03-30T14:13:31Z</time>
      </trkpt>
      <trkpt lat="41.250449" lon="-6.664760">
        <ele>676.484</ele>
        <time>2015-03-30T14:13:32Z</time>
      </trkpt>
      <trkpt lat="41.250457" lon="-6.664750">
        <ele>676.479</ele>
        <time>2015-03-30T14:13:33Z</time>
      </trkpt>
      <trkpt lat="41.250468" lon="-6.664740">
        <ele>675.944</ele>
        <time>2015-03-30T14:13:34Z</time>
      </trkpt>
      <trkpt lat="41.250480" lon="-6.664729">
        <ele>675.598</ele>
        <time>2015-03-30T14:13:35Z</time>
      </trkpt>
      <trkpt lat="41.250495" lon="-6.664717">
        <ele>675.528</ele>
        <time>2015-03-30T14:13:36Z</time>
      </trkpt>
      <trkpt lat="41.250508" lon="-6.664706">
        <ele>675.521</ele>
        <time>2015-03-30T14:13:37Z</time>
      </trkpt>
      <trkpt lat="41.250518" lon="-6.664696">
        <ele>675.096</ele>
        <time>2015-03-30T14:13:38Z</time>
      </trkpt>
      <trkpt lat="41.250530" lon="-6.664685">
        <ele>675.036</ele>
        <time>2015-03-30T14:13:39Z</time>
      </trkpt>
      <trkpt lat="41.250543" lon="-6.664675">
        <ele>674.517</ele>
        <time>2015-03-30T14:13:40Z</time>
      </trkpt>
      <trkpt lat="41.250566" lon="-6.664675">
        <ele>674.018</ele>
        <time>2015-03-30T14:13:48Z</time>
      </trkpt>
      <trkpt lat="41.250831" lon="-6.664557">
        <ele>670.707</ele>
        <time>2015-03-30T14:13:56Z</time>
      </trkpt>
      <trkpt lat="41.250931" lon="-6.664500">
        <ele>668.752</ele>
        <time>2015-03-30T14:13:58Z</time>
      </trkpt>
      <trkpt lat="41.251092" lon="-6.664394">
        <ele>667.837</ele>
        <time>2015-03-30T14:14:01Z</time>
      </trkpt>
      <trkpt lat="41.251143" lon="-6.664367">
        <ele>667.342</ele>
        <time>2015-03-30T14:14:02Z</time>
      </trkpt>
      <trkpt lat="41.251396" lon="-6.664258">
        <ele>663.956</ele>
        <time>2015-03-30T14:14:07Z</time>
      </trkpt>
      <trkpt lat="41.251444" lon="-6.664232">
        <ele>663.036</ele>
        <time>2015-03-30T14:14:08Z</time>
      </trkpt>
      <trkpt lat="41.251493" lon="-6.664205">
        <ele>662.539</ele>
        <time>2015-03-30T14:14:09Z</time>
      </trkpt>
      <trkpt lat="41.251546" lon="-6.664184">
        <ele>662.544</ele>
        <time>2015-03-30T14:14:10Z</time>
      </trkpt>
      <trkpt lat="41.251598" lon="-6.664176">
        <ele>661.088</ele>
        <time>2015-03-30T14:14:11Z</time>
      </trkpt>
      <trkpt lat="41.251647" lon="-6.664177">
        <ele>660.124</ele>
        <time>2015-03-30T14:14:12Z</time>
      </trkpt>
      <trkpt lat="41.251693" lon="-6.664192">
        <ele>659.126</ele>
        <time>2015-03-30T14:14:13Z</time>
      </trkpt>
      <trkpt lat="41.251735" lon="-6.664213">
        <ele>659.107</ele>
        <time>2015-03-30T14:14:14Z</time>
      </trkpt>
      <trkpt lat="41.251840" lon="-6.664218">
        <ele>657.257</ele>
        <time>2015-03-30T14:14:17Z</time>
      </trkpt>
      <trkpt lat="41.251865" lon="-6.664187">
        <ele>656.772</ele>
        <time>2015-03-30T14:14:18Z</time>
      </trkpt>
      <trkpt lat="41.251880" lon="-6.664141">
        <ele>655.887</ele>
        <time>2015-03-30T14:14:19Z</time>
      </trkpt>
      <trkpt lat="41.251894" lon="-6.664087">
        <ele>655.371</ele>
        <time>2015-03-30T14:14:20Z</time>
      </trkpt>
      <trkpt lat="41.251911" lon="-6.664029">
        <ele>654.321</ele>
        <time>2015-03-30T14:14:21Z</time>
      </trkpt>
      <trkpt lat="41.251928" lon="-6.663976">
        <ele>653.874</ele>
        <time>2015-03-30T14:14:22Z</time>
      </trkpt>
      <trkpt lat="41.251946" lon="-6.663924">
        <ele>652.919</ele>
        <time>2015-03-30T14:14:23Z</time>
      </trkpt>
      <trkpt lat="41.251959" lon="-6.663872">
        <ele>652.445</ele>
        <time>2015-03-30T14:14:24Z</time>
      </trkpt>
      <trkpt lat="41.251968" lon="-6.663817">
        <ele>651.947</ele>
        <time>2015-03-30T14:14:25Z</time>
      </trkpt>
      <trkpt lat="41.251972" lon="-6.663758">
        <ele>651.411</ele>
        <time>2015-03-30T14:14:26Z</time>
      </trkpt>
      <trkpt lat="41.251969" lon="-6.663695">
        <ele>650.507</ele>
        <time>2015-03-30T14:14:27Z</time>
      </trkpt>
      <trkpt lat="41.251960" lon="-6.663629">
        <ele>650.083</ele>
        <time>2015-03-30T14:14:28Z</time>
      </trkpt>
      <trkpt lat="41.251950" lon="-6.663566">
        <ele>649.598</ele>
        <time>2015-03-30T14:14:29Z</time>
      </trkpt>
      <trkpt lat="41.251938" lon="-6.663508">
        <ele>648.673</ele>
        <time>2015-03-30T14:14:30Z</time>
      </trkpt>
      <trkpt lat="41.251931" lon="-6.663452">
        <ele>648.197</ele>
        <time>2015-03-30T14:14:31Z</time>
      </trkpt>
      <trkpt lat="41.251944" lon="-6.663318">
        <ele>646.177</ele>
        <time>2015-03-30T14:14:34Z</time>
      </trkpt>
      <trkpt lat="41.251959" lon="-6.663297">
        <ele>645.250</ele>
        <time>2015-03-30T14:14:35Z</time>
      </trkpt>
      <trkpt lat="41.251968" lon="-6.663291">
        <ele>644.785</ele>
        <time>2015-03-30T14:14:36Z</time>
      </trkpt>
      <trkpt lat="41.251980" lon="-6.663291">
        <ele>644.736</ele>
        <time>2015-03-30T14:14:37Z</time>
      </trkpt>
      <trkpt lat="41.251999" lon="-6.663292">
        <ele>644.717</ele>
        <time>2015-03-30T14:14:44Z</time>
      </trkpt>
      <trkpt lat="41.251975" lon="-6.663292">
        <ele>644.718</ele>
        <time>2015-03-30T14:14:52Z</time>
      </trkpt>
      <trkpt lat="41.251976" lon="-6.663284">
        <ele>644.707</ele>
        <time>2015-03-30T14:15:04Z</time>
      </trkpt>
      <trkpt lat="41.251965" lon="-6.663298">
        <ele>644.772</ele>
        <time>2015-03-30T14:15:12Z</time>
      </trkpt>
      <trkpt lat="41.251993" lon="-6.663298">
        <ele>645.257</ele>
        <time>2015-03-30T14:15:15Z</time>
      </trkpt>
      <trkpt lat="41.252012" lon="-6.663300">
        <ele>645.242</ele>
        <time>2015-03-30T14:15:16Z</time>
      </trkpt>
      <trkpt lat="41.252078" lon="-6.663306">
        <ele>644.276</ele>
        <time>2015-03-30T14:15:19Z</time>
      </trkpt>
      <trkpt lat="41.252329" lon="-6.663481">
        <ele>639.986</ele>
        <time>2015-03-30T14:15:26Z</time>
      </trkpt>
      <trkpt lat="41.252534" lon="-6.663653">
        <ele>637.089</ele>
        <time>2015-03-30T14:15:31Z</time>
      </trkpt>
      <trkpt lat="41.252580" lon="-6.663679">
        <ele>636.134</ele>
        <time>2015-03-30T14:15:32Z</time>
      </trkpt>
      <trkpt lat="41.252629" lon="-6.663696">
        <ele>635.635</ele>
        <time>2015-03-30T14:15:33Z</time>
      </trkpt>
      <trkpt lat="41.252681" lon="-6.663702">
        <ele>635.186</ele>
        <time>2015-03-30T14:15:34Z</time>
      </trkpt>
      <trkpt lat="41.252736" lon="-6.663702">
        <ele>634.614</ele>
        <time>2015-03-30T14:15:35Z</time>
      </trkpt>
      <trkpt lat="41.252789" lon="-6.663692">
        <ele>634.107</ele>
        <time>2015-03-30T14:15:36Z</time>
      </trkpt>
      <trkpt lat="41.252840" lon="-6.663672">
        <ele>633.762</ele>
        <time>2015-03-30T14:15:37Z</time>
      </trkpt>
      <trkpt lat="41.252888" lon="-6.663642">
        <ele>633.737</ele>
        <time>2015-03-30T14:15:38Z</time>
      </trkpt>
      <trkpt lat="41.252930" lon="-6.663601">
        <ele>633.782</ele>
        <time>2015-03-30T14:15:39Z</time>
      </trkpt>
      <trkpt lat="41.252965" lon="-6.663553">
        <ele>633.796</ele>
        <time>2015-03-30T14:15:40Z</time>
      </trkpt>
      <trkpt lat="41.253001" lon="-6.663503">
        <ele>633.226</ele>
        <time>2015-03-30T14:15:41Z</time>
      </trkpt>
      <trkpt lat="41.253080" lon="-6.663421">
        <ele>633.269</ele>
        <time>2015-03-30T14:15:43Z</time>
      </trkpt>
      <trkpt lat="41.253287" lon="-6.663282">
        <ele>632.234</ele>
        <time>2015-03-30T14:15:48Z</time>
      </trkpt>
      <trkpt lat="41.253319" lon="-6.663236">
        <ele>632.281</ele>
        <time>2015-03-30T14:15:49Z</time>
      </trkpt>
      <trkpt lat="41.253373" lon="-6.663123">
        <ele>631.261</ele>
        <time>2015-03-30T14:15:51Z</time>
      </trkpt>
      <trkpt lat="41.253393" lon="-6.663056">
        <ele>630.817</ele>
        <time>2015-03-30T14:15:52Z</time>
      </trkpt>
      <trkpt lat="41.253515" lon="-6.662693">
        <ele>627.407</ele>
        <time>2015-03-30T14:15:59Z</time>
      </trkpt>
      <trkpt lat="41.253610" lon="-6.662497">
        <ele>624.577</ele>
        <time>2015-03-30T14:16:03Z</time>
      </trkpt>
      <trkpt lat="41.253658" lon="-6.662368">
        <ele>622.142</ele>
        <time>2015-03-30T14:16:05Z</time>
      </trkpt>
      <trkpt lat="41.253676" lon="-6.662291">
        <ele>621.277</ele>
        <time>2015-03-30T14:16:06Z</time>
      </trkpt>
      <trkpt lat="41.253728" lon="-6.662079">
        <ele>618.831</ele>
        <time>2015-03-30T14:16:09Z</time>
      </trkpt>
      <trkpt lat="41.253749" lon="-6.662024">
        <ele>618.831</ele>
        <time>2015-03-30T14:16:10Z</time>
      </trkpt>
      <trkpt lat="41.253768" lon="-6.661976">
        <ele>618.344</ele>
        <time>2015-03-30T14:16:11Z</time>
      </trkpt>
      <trkpt lat="41.253782" lon="-6.661938">
        <ele>617.839</ele>
        <time>2015-03-30T14:16:12Z</time>
      </trkpt>
      <trkpt lat="41.253796" lon="-6.661908">
        <ele>616.817</ele>
        <time>2015-03-30T14:16:13Z</time>
      </trkpt>
      <trkpt lat="41.253831" lon="-6.661641">
        <ele>615.987</ele>
        <time>2015-03-30T14:16:20Z</time>
      </trkpt>
      <trkpt lat="41.253905" lon="-6.661391">
        <ele>612.515</ele>
        <time>2015-03-30T14:16:24Z</time>
      </trkpt>
      <trkpt lat="41.253962" lon="-6.661160">
        <ele>608.707</ele>
        <time>2015-03-30T14:16:27Z</time>
      </trkpt>
      <trkpt lat="41.254008" lon="-6.661005">
        <ele>606.730</ele>
        <time>2015-03-30T14:16:29Z</time>
      </trkpt>
      <trkpt lat="41.254035" lon="-6.660928">
        <ele>605.815</ele>
        <time>2015-03-30T14:16:30Z</time>
      </trkpt>
      <trkpt lat="41.254104" lon="-6.660710">
        <ele>602.410</ele>
        <time>2015-03-30T14:16:33Z</time>
      </trkpt>
      <trkpt lat="41.254164" lon="-6.660526">
        <ele>599.044</ele>
        <time>2015-03-30T14:16:37Z</time>
      </trkpt>
      <trkpt lat="41.254172" lon="-6.660499">
        <ele>598.644</ele>
        <time>2015-03-30T14:16:38Z</time>
      </trkpt>
      <trkpt lat="41.254196" lon="-6.660209">
        <ele>594.717</ele>
        <time>2015-03-30T14:16:45Z</time>
      </trkpt>
      <trkpt lat="41.254180" lon="-6.660027">
        <ele>591.852</ele>
        <time>2015-03-30T14:16:51Z</time>
      </trkpt>
      <trkpt lat="41.254216" lon="-6.659752">
        <ele>588.066</ele>
        <time>2015-03-30T14:16:57Z</time>
      </trkpt>
      <trkpt lat="41.254216" lon="-6.659581">
        <ele>585.129</ele>
        <time>2015-03-30T14:16:59Z</time>
      </trkpt>
      <trkpt lat="41.254217" lon="-6.659499">
        <ele>584.121</ele>
        <time>2015-03-30T14:17:00Z</time>
      </trkpt>
      <trkpt lat="41.254225" lon="-6.659418">
        <ele>582.707</ele>
        <time>2015-03-30T14:17:01Z</time>
      </trkpt>
      <trkpt lat="41.254246" lon="-6.659273">
        <ele>580.845</ele>
        <time>2015-03-30T14:17:03Z</time>
      </trkpt>
      <trkpt lat="41.254250" lon="-6.659212">
        <ele>580.870</ele>
        <time>2015-03-30T14:17:04Z</time>
      </trkpt>
      <trkpt lat="41.254284" lon="-6.658984">
        <ele>575.545</ele>
        <time>2015-03-30T14:17:07Z</time>
      </trkpt>
      <trkpt lat="41.254303" lon="-6.658897">
        <ele>574.589</ele>
        <time>2015-03-30T14:17:08Z</time>
      </trkpt>
      <trkpt lat="41.254312" lon="-6.658815">
        <ele>574.079</ele>
        <time>2015-03-30T14:17:09Z</time>
      </trkpt>
      <trkpt lat="41.254316" lon="-6.658731">
        <ele>573.142</ele>
        <time>2015-03-30T14:17:10Z</time>
      </trkpt>
      <trkpt lat="41.254322" lon="-6.658646">
        <ele>572.147</ele>
        <time>2015-03-30T14:17:11Z</time>
      </trkpt>
      <trkpt lat="41.254337" lon="-6.658568">
        <ele>571.613</ele>
        <time>2015-03-30T14:17:12Z</time>
      </trkpt>
      <trkpt lat="41.254363" lon="-6.658493">
        <ele>571.243</ele>
        <time>2015-03-30T14:17:13Z</time>
      </trkpt>
      <trkpt lat="41.254390" lon="-6.658413">
        <ele>569.707</ele>
        <time>2015-03-30T14:17:14Z</time>
      </trkpt>
      <trkpt lat="41.254407" lon="-6.658330">
        <ele>569.207</ele>
        <time>2015-03-30T14:17:15Z</time>
      </trkpt>
      <trkpt lat="41.254422" lon="-6.658250">
        <ele>569.270</ele>
        <time>2015-03-30T14:17:16Z</time>
      </trkpt>
      <trkpt lat="41.254441" lon="-6.658171">
        <ele>569.285</ele>
        <time>2015-03-30T14:17:17Z</time>
      </trkpt>
      <trkpt lat="41.254465" lon="-6.658096">
        <ele>568.310</ele>
        <time>2015-03-30T14:17:18Z</time>
      </trkpt>
      <trkpt lat="41.254486" lon="-6.658017">
        <ele>567.884</ele>
        <time>2015-03-30T14:17:19Z</time>
      </trkpt>
      <trkpt lat="41.254499" lon="-6.657934">
        <ele>567.394</ele>
        <time>2015-03-30T14:17:20Z</time>
      </trkpt>
      <trkpt lat="41.254503" lon="-6.657851">
        <ele>567.327</ele>
        <time>2015-03-30T14:17:21Z</time>
      </trkpt>
      <trkpt lat="41.254495" lon="-6.657775">
        <ele>567.392</ele>
        <time>2015-03-30T14:17:22Z</time>
      </trkpt>
      <trkpt lat="41.254477" lon="-6.657709">
        <ele>567.386</ele>
        <time>2015-03-30T14:17:23Z</time>
      </trkpt>
      <trkpt lat="41.254463" lon="-6.657651">
        <ele>567.360</ele>
        <time>2015-03-30T14:17:24Z</time>
      </trkpt>
      <trkpt lat="41.254450" lon="-6.657599">
        <ele>565.926</ele>
        <time>2015-03-30T14:17:25Z</time>
      </trkpt>
      <trkpt lat="41.254429" lon="-6.657488">
        <ele>567.807</ele>
        <time>2015-03-30T14:17:28Z</time>
      </trkpt>
      <trkpt lat="41.254440" lon="-6.657463">
        <ele>567.347</ele>
        <time>2015-03-30T14:17:29Z</time>
      </trkpt>
      <trkpt lat="41.254450" lon="-6.657455">
        <ele>565.922</ele>
        <time>2015-03-30T14:17:30Z</time>
      </trkpt>
      <trkpt lat="41.254462" lon="-6.657467">
        <ele>565.937</ele>
        <time>2015-03-30T14:17:31Z</time>
      </trkpt>
      <trkpt lat="41.254478" lon="-6.657485">
        <ele>565.411</ele>
        <time>2015-03-30T14:17:32Z</time>
      </trkpt>
      <trkpt lat="41.254497" lon="-6.657500">
        <ele>565.461</ele>
        <time>2015-03-30T14:17:33Z</time>
      </trkpt>
      <trkpt lat="41.254564" lon="-6.657613">
        <ele>563.584</ele>
        <time>2015-03-30T14:17:37Z</time>
      </trkpt>
      <trkpt lat="41.254604" lon="-6.657689">
        <ele>563.069</ele>
        <time>2015-03-30T14:17:40Z</time>
      </trkpt>
      <trkpt lat="41.254666" lon="-6.657747">
        <ele>562.599</ele>
        <time>2015-03-30T14:17:44Z</time>
      </trkpt>
      <trkpt lat="41.254770" lon="-6.657778">
        <ele>561.607</ele>
        <time>2015-03-30T14:17:55Z</time>
      </trkpt>
      <trkpt lat="41.254776" lon="-6.657763">
        <ele>561.627</ele>
        <time>2015-03-30T14:18:09Z</time>
      </trkpt>
      <trkpt lat="41.254783" lon="-6.657760">
        <ele>561.607</ele>
        <time>2015-03-30T14:18:12Z</time>
      </trkpt>
      <trkpt lat="41.254781" lon="-6.657740">
        <ele>561.128</ele>
        <time>2015-03-30T14:18:13Z</time>
      </trkpt>
      <trkpt lat="41.254782" lon="-6.657716">
        <ele>561.133</ele>
        <time>2015-03-30T14:18:14Z</time>
      </trkpt>
      <trkpt lat="41.254782" lon="-6.657695">
        <ele>561.148</ele>
        <time>2015-03-30T14:18:15Z</time>
      </trkpt>
      <trkpt lat="41.254785" lon="-6.657678">
        <ele>561.162</ele>
        <time>2015-03-30T14:18:21Z</time>
      </trkpt>
      <trkpt lat="41.254795" lon="-6.657675">
        <ele>561.652</ele>
        <time>2015-03-30T14:18:32Z</time>
      </trkpt>
      <trkpt lat="41.254805" lon="-6.657638">
        <ele>561.665</ele>
        <time>2015-03-30T14:18:41Z</time>
      </trkpt>
      <trkpt lat="41.254808" lon="-6.657636">
        <ele>561.130</ele>
        <time>2015-03-30T14:19:00Z</time>
      </trkpt>
      <trkpt lat="41.254798" lon="-6.657572">
        <ele>561.169</ele>
        <time>2015-03-30T14:19:12Z</time>
      </trkpt>
      <trkpt lat="41.254799" lon="-6.657554">
        <ele>561.104</ele>
        <time>2015-03-30T14:19:14Z</time>
      </trkpt>
      <trkpt lat="41.254803" lon="-6.657539">
        <ele>561.624</ele>
        <time>2015-03-30T14:19:15Z</time>
      </trkpt>
      <trkpt lat="41.254814" lon="-6.657506">
        <ele>561.607</ele>
        <time>2015-03-30T14:19:17Z</time>
      </trkpt>
      <trkpt lat="41.254819" lon="-6.657449">
        <ele>563.095</ele>
        <time>2015-03-30T14:19:20Z</time>
      </trkpt>
      <trkpt lat="41.254818" lon="-6.657412">
        <ele>564.080</ele>
        <time>2015-03-30T14:19:26Z</time>
      </trkpt>
      <trkpt lat="41.254837" lon="-6.657296">
        <ele>566.475</ele>
        <time>2015-03-30T14:19:40Z</time>
      </trkpt>
      <trkpt lat="41.254899" lon="-6.657240">
        <ele>567.839</ele>
        <time>2015-03-30T14:19:52Z</time>
      </trkpt>
      <trkpt lat="41.254939" lon="-6.657186">
        <ele>568.849</ele>
        <time>2015-03-30T14:20:03Z</time>
      </trkpt>
      <trkpt lat="41.254947" lon="-6.657178">
        <ele>569.222</ele>
        <time>2015-03-30T14:20:18Z</time>
      </trkpt>
      <trkpt lat="41.254949" lon="-6.657162">
        <ele>569.297</ele>
        <time>2015-03-30T14:20:29Z</time>
      </trkpt>
      <trkpt lat="41.254952" lon="-6.657145">
        <ele>569.798</ele>
        <time>2015-03-30T14:20:30Z</time>
      </trkpt>
      <trkpt lat="41.254956" lon="-6.657126">
        <ele>569.715</ele>
        <time>2015-03-30T14:20:31Z</time>
      </trkpt>
      <trkpt lat="41.254958" lon="-6.657103">
        <ele>570.226</ele>
        <time>2015-03-30T14:20:32Z</time>
      </trkpt>
      <trkpt lat="41.254954" lon="-6.657081">
        <ele>570.707</ele>
        <time>2015-03-30T14:20:33Z</time>
      </trkpt>
      <trkpt lat="41.254947" lon="-6.657063">
        <ele>570.738</ele>
        <time>2015-03-30T14:20:34Z</time>
      </trkpt>
      <trkpt lat="41.254939" lon="-6.657046">
        <ele>571.213</ele>
        <time>2015-03-30T14:20:35Z</time>
      </trkpt>
      <trkpt lat="41.254934" lon="-6.657026">
        <ele>571.628</ele>
        <time>2015-03-30T14:20:36Z</time>
      </trkpt>
      <trkpt lat="41.254932" lon="-6.657008">
        <ele>571.682</ele>
        <time>2015-03-30T14:20:37Z</time>
      </trkpt>
      <trkpt lat="41.254922" lon="-6.656951">
        <ele>573.132</ele>
        <time>2015-03-30T14:20:41Z</time>
      </trkpt>
      <trkpt lat="41.254893" lon="-6.656888">
        <ele>574.025</ele>
        <time>2015-03-30T14:20:46Z</time>
      </trkpt>
      <trkpt lat="41.254877" lon="-6.656842">
        <ele>575.090</ele>
        <time>2015-03-30T14:20:49Z</time>
      </trkpt>
      <trkpt lat="41.254820" lon="-6.656765">
        <ele>576.525</ele>
        <time>2015-03-30T14:20:57Z</time>
      </trkpt>
      <trkpt lat="41.254814" lon="-6.656749">
        <ele>576.526</ele>
        <time>2015-03-30T14:20:58Z</time>
      </trkpt>
      <trkpt lat="41.254802" lon="-6.656729">
        <ele>576.908</ele>
        <time>2015-03-30T14:21:00Z</time>
      </trkpt>
      <trkpt lat="41.254798" lon="-6.656713">
        <ele>577.407</ele>
        <time>2015-03-30T14:21:01Z</time>
      </trkpt>
      <trkpt lat="41.254795" lon="-6.656701">
        <ele>577.491</ele>
        <time>2015-03-30T14:21:02Z</time>
      </trkpt>
      <trkpt lat="41.254788" lon="-6.656688">
        <ele>577.956</ele>
        <time>2015-03-30T14:21:03Z</time>
      </trkpt>
      <trkpt lat="41.254760" lon="-6.656623">
        <ele>579.371</ele>
        <time>2015-03-30T14:21:08Z</time>
      </trkpt>
      <trkpt lat="41.254756" lon="-6.656607">
        <ele>579.375</ele>
        <time>2015-03-30T14:21:09Z</time>
      </trkpt>
      <trkpt lat="41.254758" lon="-6.656583">
        <ele>579.875</ele>
        <time>2015-03-30T14:21:11Z</time>
      </trkpt>
      <trkpt lat="41.254762" lon="-6.656570">
        <ele>579.838</ele>
        <time>2015-03-30T14:21:12Z</time>
      </trkpt>
      <trkpt lat="41.254766" lon="-6.656558">
        <ele>579.813</ele>
        <time>2015-03-30T14:21:13Z</time>
      </trkpt>
      <trkpt lat="41.254770" lon="-6.656541">
        <ele>579.841</ele>
        <time>2015-03-30T14:21:14Z</time>
      </trkpt>
      <trkpt lat="41.254775" lon="-6.656527">
        <ele>580.381</ele>
        <time>2015-03-30T14:21:15Z</time>
      </trkpt>
      <trkpt lat="41.254815" lon="-6.656465">
        <ele>581.309</ele>
        <time>2015-03-30T14:21:21Z</time>
      </trkpt>
      <trkpt lat="41.254823" lon="-6.656454">
        <ele>581.707</ele>
        <time>2015-03-30T14:21:22Z</time>
      </trkpt>
      <trkpt lat="41.254829" lon="-6.656441">
        <ele>581.743</ele>
        <time>2015-03-30T14:21:23Z</time>
      </trkpt>
      <trkpt lat="41.254858" lon="-6.656339">
        <ele>583.238</ele>
        <time>2015-03-30T14:21:31Z</time>
      </trkpt>
      <trkpt lat="41.254893" lon="-6.656182">
        <ele>584.613</ele>
        <time>2015-03-30T14:21:41Z</time>
      </trkpt>
      <trkpt lat="41.254912" lon="-6.656020">
        <ele>586.597</ele>
        <time>2015-03-30T14:21:52Z</time>
      </trkpt>
      <trkpt lat="41.254912" lon="-6.656004">
        <ele>587.027</ele>
        <time>2015-03-30T14:21:53Z</time>
      </trkpt>
      <trkpt lat="41.254910" lon="-6.655991">
        <ele>587.560</ele>
        <time>2015-03-30T14:21:54Z</time>
      </trkpt>
      <trkpt lat="41.254926" lon="-6.655935">
        <ele>588.095</ele>
        <time>2015-03-30T14:21:59Z</time>
      </trkpt>
      <trkpt lat="41.254922" lon="-6.655882">
        <ele>589.039</ele>
        <time>2015-03-30T14:22:03Z</time>
      </trkpt>
      <trkpt lat="41.254925" lon="-6.655869">
        <ele>589.401</ele>
        <time>2015-03-30T14:22:04Z</time>
      </trkpt>
      <trkpt lat="41.254929" lon="-6.655855">
        <ele>589.421</ele>
        <time>2015-03-30T14:22:05Z</time>
      </trkpt>
      <trkpt lat="41.254929" lon="-6.655843">
        <ele>589.407</ele>
        <time>2015-03-30T14:22:06Z</time>
      </trkpt>
      <trkpt lat="41.254937" lon="-6.655816">
        <ele>589.992</ele>
        <time>2015-03-30T14:22:09Z</time>
      </trkpt>
      <trkpt lat="41.254943" lon="-6.655802">
        <ele>590.447</ele>
        <time>2015-03-30T14:22:10Z</time>
      </trkpt>
      <trkpt lat="41.254946" lon="-6.655770">
        <ele>590.472</ele>
        <time>2015-03-30T14:22:12Z</time>
      </trkpt>
      <trkpt lat="41.254941" lon="-6.655705">
        <ele>591.496</ele>
        <time>2015-03-30T14:22:17Z</time>
      </trkpt>
      <trkpt lat="41.254948" lon="-6.655647">
        <ele>587.596</ele>
        <time>2015-03-30T14:22:21Z</time>
      </trkpt>
      <trkpt lat="41.254953" lon="-6.655631">
        <ele>594.739</ele>
        <time>2015-03-30T14:22:22Z</time>
      </trkpt>
      <trkpt lat="41.254958" lon="-6.655612">
        <ele>592.344</ele>
        <time>2015-03-30T14:22:23Z</time>
      </trkpt>
      <trkpt lat="41.254962" lon="-6.655595">
        <ele>592.341</ele>
        <time>2015-03-30T14:22:24Z</time>
      </trkpt>
      <trkpt lat="41.254966" lon="-6.655581">
        <ele>592.381</ele>
        <time>2015-03-30T14:22:25Z</time>
      </trkpt>
      <trkpt lat="41.255022" lon="-6.655394">
        <ele>591.409</ele>
        <time>2015-03-30T14:22:36Z</time>
      </trkpt>
      <trkpt lat="41.255028" lon="-6.655379">
        <ele>594.207</ele>
        <time>2015-03-30T14:22:37Z</time>
      </trkpt>
      <trkpt lat="41.255033" lon="-6.655364">
        <ele>594.273</ele>
        <time>2015-03-30T14:22:38Z</time>
      </trkpt>
      <trkpt lat="41.255069" lon="-6.655204">
        <ele>595.718</ele>
        <time>2015-03-30T14:22:47Z</time>
      </trkpt>
      <trkpt lat="41.255086" lon="-6.655164">
        <ele>596.243</ele>
        <time>2015-03-30T14:22:50Z</time>
      </trkpt>
      <trkpt lat="41.255101" lon="-6.655092">
        <ele>596.637</ele>
        <time>2015-03-30T14:22:55Z</time>
      </trkpt>
      <trkpt lat="41.255108" lon="-6.655075">
        <ele>597.137</ele>
        <time>2015-03-30T14:22:56Z</time>
      </trkpt>
      <trkpt lat="41.255114" lon="-6.655056">
        <ele>597.120</ele>
        <time>2015-03-30T14:22:57Z</time>
      </trkpt>
      <trkpt lat="41.255123" lon="-6.655039">
        <ele>597.185</ele>
        <time>2015-03-30T14:22:58Z</time>
      </trkpt>
      <trkpt lat="41.255180" lon="-6.654911">
        <ele>598.625</ele>
        <time>2015-03-30T14:23:07Z</time>
      </trkpt>
      <trkpt lat="41.255223" lon="-6.654753">
        <ele>600.526</ele>
        <time>2015-03-30T14:23:16Z</time>
      </trkpt>
      <trkpt lat="41.255229" lon="-6.654735">
        <ele>601.008</ele>
        <time>2015-03-30T14:23:17Z</time>
      </trkpt>
      <trkpt lat="41.255233" lon="-6.654714">
        <ele>600.507</ele>
        <time>2015-03-30T14:23:18Z</time>
      </trkpt>
      <trkpt lat="41.255237" lon="-6.654695">
        <ele>600.571</ele>
        <time>2015-03-30T14:23:19Z</time>
      </trkpt>
      <trkpt lat="41.255243" lon="-6.654676">
        <ele>600.526</ele>
        <time>2015-03-30T14:23:20Z</time>
      </trkpt>
      <trkpt lat="41.255246" lon="-6.654659">
        <ele>601.021</ele>
        <time>2015-03-30T14:23:21Z</time>
      </trkpt>
      <trkpt lat="41.255246" lon="-6.654641">
        <ele>601.085</ele>
        <time>2015-03-30T14:23:22Z</time>
      </trkpt>
      <trkpt lat="41.255248" lon="-6.654625">
        <ele>601.085</ele>
        <time>2015-03-30T14:23:23Z</time>
      </trkpt>
      <trkpt lat="41.255254" lon="-6.654612">
        <ele>601.448</ele>
        <time>2015-03-30T14:23:24Z</time>
      </trkpt>
      <trkpt lat="41.255258" lon="-6.654597">
        <ele>601.453</ele>
        <time>2015-03-30T14:23:25Z</time>
      </trkpt>
      <trkpt lat="41.255260" lon="-6.654580">
        <ele>601.493</ele>
        <time>2015-03-30T14:23:26Z</time>
      </trkpt>
      <trkpt lat="41.255258" lon="-6.654562">
        <ele>601.465</ele>
        <time>2015-03-30T14:23:27Z</time>
      </trkpt>
      <trkpt lat="41.255256" lon="-6.654542">
        <ele>601.421</ele>
        <time>2015-03-30T14:23:28Z</time>
      </trkpt>
      <trkpt lat="41.255275" lon="-6.654361">
        <ele>602.407</ele>
        <time>2015-03-30T14:23:37Z</time>
      </trkpt>
      <trkpt lat="41.255281" lon="-6.654302">
        <ele>602.978</ele>
        <time>2015-03-30T14:23:40Z</time>
      </trkpt>
      <trkpt lat="41.255302" lon="-6.654226">
        <ele>602.943</ele>
        <time>2015-03-30T14:23:44Z</time>
      </trkpt>
      <trkpt lat="41.255308" lon="-6.654205">
        <ele>602.958</ele>
        <time>2015-03-30T14:23:45Z</time>
      </trkpt>
      <trkpt lat="41.255310" lon="-6.654183">
        <ele>602.982</ele>
        <time>2015-03-30T14:23:46Z</time>
      </trkpt>
      <trkpt lat="41.255312" lon="-6.654163">
        <ele>603.462</ele>
        <time>2015-03-30T14:23:47Z</time>
      </trkpt>
      <trkpt lat="41.255314" lon="-6.654142">
        <ele>603.445</ele>
        <time>2015-03-30T14:23:48Z</time>
      </trkpt>
      <trkpt lat="41.255316" lon="-6.654122">
        <ele>603.430</ele>
        <time>2015-03-30T14:23:49Z</time>
      </trkpt>
      <trkpt lat="41.255318" lon="-6.654100">
        <ele>603.432</ele>
        <time>2015-03-30T14:23:50Z</time>
      </trkpt>
      <trkpt lat="41.255363" lon="-6.653926">
        <ele>604.392</ele>
        <time>2015-03-30T14:23:59Z</time>
      </trkpt>
      <trkpt lat="41.255368" lon="-6.653909">
        <ele>604.311</ele>
        <time>2015-03-30T14:24:00Z</time>
      </trkpt>
      <trkpt lat="41.255401" lon="-6.653776">
        <ele>605.307</ele>
        <time>2015-03-30T14:24:06Z</time>
      </trkpt>
      <trkpt lat="41.255403" lon="-6.653756">
        <ele>605.322</ele>
        <time>2015-03-30T14:24:07Z</time>
      </trkpt>
      <trkpt lat="41.255415" lon="-6.653738">
        <ele>605.387</ele>
        <time>2015-03-30T14:24:08Z</time>
      </trkpt>
      <trkpt lat="41.255426" lon="-6.653721">
        <ele>605.322</ele>
        <time>2015-03-30T14:24:09Z</time>
      </trkpt>
      <trkpt lat="41.255433" lon="-6.653702">
        <ele>605.376</ele>
        <time>2015-03-30T14:24:10Z</time>
      </trkpt>
      <trkpt lat="41.255437" lon="-6.653685">
        <ele>605.886</ele>
        <time>2015-03-30T14:24:11Z</time>
      </trkpt>
      <trkpt lat="41.255441" lon="-6.653666">
        <ele>605.819</ele>
        <time>2015-03-30T14:24:12Z</time>
      </trkpt>
      <trkpt lat="41.255447" lon="-6.653647">
        <ele>605.824</ele>
        <time>2015-03-30T14:24:13Z</time>
      </trkpt>
      <trkpt lat="41.255453" lon="-6.653626">
        <ele>605.853</ele>
        <time>2015-03-30T14:24:14Z</time>
      </trkpt>
      <trkpt lat="41.255539" lon="-6.653444">
        <ele>607.204</ele>
        <time>2015-03-30T14:24:25Z</time>
      </trkpt>
      <trkpt lat="41.255604" lon="-6.653322">
        <ele>609.114</ele>
        <time>2015-03-30T14:24:33Z</time>
      </trkpt>
      <trkpt lat="41.255612" lon="-6.653311">
        <ele>609.107</ele>
        <time>2015-03-30T14:24:34Z</time>
      </trkpt>
      <trkpt lat="41.255616" lon="-6.653293">
        <ele>609.184</ele>
        <time>2015-03-30T14:24:35Z</time>
      </trkpt>
      <trkpt lat="41.255620" lon="-6.653276">
        <ele>609.159</ele>
        <time>2015-03-30T14:24:36Z</time>
      </trkpt>
      <trkpt lat="41.255626" lon="-6.653259">
        <ele>609.124</ele>
        <time>2015-03-30T14:24:37Z</time>
      </trkpt>
      <trkpt lat="41.255638" lon="-6.653223">
        <ele>610.138</ele>
        <time>2015-03-30T14:24:39Z</time>
      </trkpt>
      <trkpt lat="41.255642" lon="-6.653206">
        <ele>610.188</ele>
        <time>2015-03-30T14:24:40Z</time>
      </trkpt>
      <trkpt lat="41.255646" lon="-6.653190">
        <ele>610.131</ele>
        <time>2015-03-30T14:24:41Z</time>
      </trkpt>
      <trkpt lat="41.255650" lon="-6.653176">
        <ele>610.666</ele>
        <time>2015-03-30T14:24:42Z</time>
      </trkpt>
      <trkpt lat="41.255654" lon="-6.653160">
        <ele>610.682</ele>
        <time>2015-03-30T14:24:43Z</time>
      </trkpt>
      <trkpt lat="41.255659" lon="-6.653145">
        <ele>610.643</ele>
        <time>2015-03-30T14:24:44Z</time>
      </trkpt>
      <trkpt lat="41.255756" lon="-6.652999">
        <ele>613.017</ele>
        <time>2015-03-30T14:24:55Z</time>
      </trkpt>
      <trkpt lat="41.255854" lon="-6.652896">
        <ele>614.407</ele>
        <time>2015-03-30T14:25:05Z</time>
      </trkpt>
      <trkpt lat="41.255915" lon="-6.652839">
        <ele>615.487</ele>
        <time>2015-03-30T14:25:11Z</time>
      </trkpt>
      <trkpt lat="41.255926" lon="-6.652831">
        <ele>615.462</ele>
        <time>2015-03-30T14:25:12Z</time>
      </trkpt>
      <trkpt lat="41.255968" lon="-6.652793">
        <ele>616.397</ele>
        <time>2015-03-30T14:25:16Z</time>
      </trkpt>
      <trkpt lat="41.255977" lon="-6.652781">
        <ele>616.871</ele>
        <time>2015-03-30T14:25:17Z</time>
      </trkpt>
      <trkpt lat="41.256019" lon="-6.652738">
        <ele>617.361</ele>
        <time>2015-03-30T14:25:21Z</time>
      </trkpt>
      <trkpt lat="41.256028" lon="-6.652724">
        <ele>617.384</ele>
        <time>2015-03-30T14:25:22Z</time>
      </trkpt>
      <trkpt lat="41.256039" lon="-6.652717">
        <ele>617.339</ele>
        <time>2015-03-30T14:25:23Z</time>
      </trkpt>
      <trkpt lat="41.256048" lon="-6.652708">
        <ele>617.859</ele>
        <time>2015-03-30T14:25:24Z</time>
      </trkpt>
      <trkpt lat="41.256087" lon="-6.652662">
        <ele>619.203</ele>
        <time>2015-03-30T14:25:30Z</time>
      </trkpt>
      <trkpt lat="41.256096" lon="-6.652654">
        <ele>618.823</ele>
        <time>2015-03-30T14:25:31Z</time>
      </trkpt>
      <trkpt lat="41.256107" lon="-6.652641">
        <ele>619.207</ele>
        <time>2015-03-30T14:25:32Z</time>
      </trkpt>
      <trkpt lat="41.256119" lon="-6.652632">
        <ele>619.284</ele>
        <time>2015-03-30T14:25:33Z</time>
      </trkpt>
      <trkpt lat="41.256127" lon="-6.652623">
        <ele>619.749</ele>
        <time>2015-03-30T14:25:34Z</time>
      </trkpt>
      <trkpt lat="41.256135" lon="-6.652612">
        <ele>619.714</ele>
        <time>2015-03-30T14:25:35Z</time>
      </trkpt>
      <trkpt lat="41.256154" lon="-6.652588">
        <ele>620.268</ele>
        <time>2015-03-30T14:25:37Z</time>
      </trkpt>
      <trkpt lat="41.256166" lon="-6.652581">
        <ele>620.798</ele>
        <time>2015-03-30T14:25:38Z</time>
      </trkpt>
      <trkpt lat="41.256176" lon="-6.652570">
        <ele>620.751</ele>
        <time>2015-03-30T14:25:39Z</time>
      </trkpt>
      <trkpt lat="41.256187" lon="-6.652558">
        <ele>620.716</ele>
        <time>2015-03-30T14:25:40Z</time>
      </trkpt>
      <trkpt lat="41.256198" lon="-6.652547">
        <ele>620.775</ele>
        <time>2015-03-30T14:25:41Z</time>
      </trkpt>
      <trkpt lat="41.256210" lon="-6.652539">
        <ele>621.228</ele>
        <time>2015-03-30T14:25:42Z</time>
      </trkpt>
      <trkpt lat="41.256223" lon="-6.652530">
        <ele>621.220</ele>
        <time>2015-03-30T14:25:43Z</time>
      </trkpt>
      <trkpt lat="41.256233" lon="-6.652520">
        <ele>621.607</ele>
        <time>2015-03-30T14:25:44Z</time>
      </trkpt>
      <trkpt lat="41.256240" lon="-6.652508">
        <ele>621.636</ele>
        <time>2015-03-30T14:25:45Z</time>
      </trkpt>
      <trkpt lat="41.256251" lon="-6.652498">
        <ele>622.171</ele>
        <time>2015-03-30T14:25:46Z</time>
      </trkpt>
      <trkpt lat="41.256260" lon="-6.652492">
        <ele>622.116</ele>
        <time>2015-03-30T14:25:47Z</time>
      </trkpt>
      <trkpt lat="41.256271" lon="-6.652485">
        <ele>622.660</ele>
        <time>2015-03-30T14:25:48Z</time>
      </trkpt>
      <trkpt lat="41.256282" lon="-6.652479">
        <ele>622.680</ele>
        <time>2015-03-30T14:25:49Z</time>
      </trkpt>
      <trkpt lat="41.256352" lon="-6.652421">
        <ele>623.623</ele>
        <time>2015-03-30T14:25:57Z</time>
      </trkpt>
      <trkpt lat="41.256362" lon="-6.652418">
        <ele>623.688</ele>
        <time>2015-03-30T14:25:58Z</time>
      </trkpt>
      <trkpt lat="41.256424" lon="-6.652387">
        <ele>624.097</ele>
        <time>2015-03-30T14:26:04Z</time>
      </trkpt>
      <trkpt lat="41.256439" lon="-6.652383">
        <ele>624.523</ele>
        <time>2015-03-30T14:26:05Z</time>
      </trkpt>
      <trkpt lat="41.256452" lon="-6.652373">
        <ele>624.525</ele>
        <time>2015-03-30T14:26:06Z</time>
      </trkpt>
      <trkpt lat="41.256532" lon="-6.652302">
        <ele>626.007</ele>
        <time>2015-03-30T14:26:14Z</time>
      </trkpt>
      <trkpt lat="41.256546" lon="-6.652294">
        <ele>626.478</ele>
        <time>2015-03-30T14:26:15Z</time>
      </trkpt>
      <trkpt lat="41.256559" lon="-6.652287">
        <ele>626.423</ele>
        <time>2015-03-30T14:26:16Z</time>
      </trkpt>
      <trkpt lat="41.256571" lon="-6.652274">
        <ele>626.458</ele>
        <time>2015-03-30T14:26:17Z</time>
      </trkpt>
      <trkpt lat="41.256581" lon="-6.652262">
        <ele>626.972</ele>
        <time>2015-03-30T14:26:18Z</time>
      </trkpt>
      <trkpt lat="41.256591" lon="-6.652256">
        <ele>626.972</ele>
        <time>2015-03-30T14:26:19Z</time>
      </trkpt>
      <trkpt lat="41.256601" lon="-6.652250">
        <ele>627.415</ele>
        <time>2015-03-30T14:26:20Z</time>
      </trkpt>
      <trkpt lat="41.256610" lon="-6.652241">
        <ele>627.440</ele>
        <time>2015-03-30T14:26:21Z</time>
      </trkpt>
      <trkpt lat="41.256621" lon="-6.652232">
        <ele>627.434</ele>
        <time>2015-03-30T14:26:22Z</time>
      </trkpt>
      <trkpt lat="41.256674" lon="-6.652194">
        <ele>628.455</ele>
        <time>2015-03-30T14:26:27Z</time>
      </trkpt>
      <trkpt lat="41.256684" lon="-6.652181">
        <ele>628.410</ele>
        <time>2015-03-30T14:26:28Z</time>
      </trkpt>
      <trkpt lat="41.256755" lon="-6.652099">
        <ele>629.807</ele>
        <time>2015-03-30T14:26:38Z</time>
      </trkpt>
      <trkpt lat="41.256818" lon="-6.652024">
        <ele>631.212</ele>
        <time>2015-03-30T14:26:46Z</time>
      </trkpt>
      <trkpt lat="41.256842" lon="-6.651994">
        <ele>632.237</ele>
        <time>2015-03-30T14:26:49Z</time>
      </trkpt>
      <trkpt lat="41.256902" lon="-6.651914">
        <ele>633.792</ele>
        <time>2015-03-30T14:26:57Z</time>
      </trkpt>
      <trkpt lat="41.256910" lon="-6.651907">
        <ele>633.726</ele>
        <time>2015-03-30T14:26:58Z</time>
      </trkpt>
      <trkpt lat="41.256949" lon="-6.651849">
        <ele>634.686</ele>
        <time>2015-03-30T14:27:03Z</time>
      </trkpt>
      <trkpt lat="41.256951" lon="-6.651834">
        <ele>634.619</ele>
        <time>2015-03-30T14:27:04Z</time>
      </trkpt>
      <trkpt lat="41.256956" lon="-6.651824">
        <ele>635.134</ele>
        <time>2015-03-30T14:27:05Z</time>
      </trkpt>
      <trkpt lat="41.256965" lon="-6.651828">
        <ele>635.187</ele>
        <time>2015-03-30T14:27:13Z</time>
      </trkpt>
      <trkpt lat="41.256965" lon="-6.651824">
        <ele>634.642</ele>
        <time>2015-03-30T14:27:29Z</time>
      </trkpt>
      <trkpt lat="41.256967" lon="-6.651827">
        <ele>634.126</ele>
        <time>2015-03-30T14:27:48Z</time>
      </trkpt>
      <trkpt lat="41.256972" lon="-6.651829">
        <ele>636.507</ele>
        <time>2015-03-30T14:28:12Z</time>
      </trkpt>
      <trkpt lat="41.256971" lon="-6.651829">
        <ele>632.717</ele>
        <time>2015-03-30T14:28:14Z</time>
      </trkpt>
      <trkpt lat="41.256970" lon="-6.651828">
        <ele>637.032</ele>
        <time>2015-03-30T14:28:15Z</time>
      </trkpt>
      <trkpt lat="41.256968" lon="-6.651826">
        <ele>633.727</ele>
        <time>2015-03-30T14:28:23Z</time>
      </trkpt>
      <trkpt lat="41.256969" lon="-6.651823">
        <ele>635.181</ele>
        <time>2015-03-30T14:28:41Z</time>
      </trkpt>
      <trkpt lat="41.256965" lon="-6.651824">
        <ele>635.171</ele>
        <time>2015-03-30T14:29:09Z</time>
      </trkpt>
      <trkpt lat="41.257007" lon="-6.651778">
        <ele>635.654</ele>
        <time>2015-03-30T14:29:19Z</time>
      </trkpt>
      <trkpt lat="41.257068" lon="-6.651735">
        <ele>636.539</ele>
        <time>2015-03-30T14:29:26Z</time>
      </trkpt>
      <trkpt lat="41.257079" lon="-6.651728">
        <ele>636.588</ele>
        <time>2015-03-30T14:29:27Z</time>
      </trkpt>
      <trkpt lat="41.257089" lon="-6.651719">
        <ele>636.524</ele>
        <time>2015-03-30T14:29:28Z</time>
      </trkpt>
      <trkpt lat="41.257097" lon="-6.651711">
        <ele>636.526</ele>
        <time>2015-03-30T14:29:29Z</time>
      </trkpt>
      <trkpt lat="41.257181" lon="-6.651647">
        <ele>638.507</ele>
        <time>2015-03-30T14:29:37Z</time>
      </trkpt>
      <trkpt lat="41.257208" lon="-6.651599">
        <ele>639.427</ele>
        <time>2015-03-30T14:29:41Z</time>
      </trkpt>
      <trkpt lat="41.257218" lon="-6.651576">
        <ele>639.942</ele>
        <time>2015-03-30T14:29:43Z</time>
      </trkpt>
      <trkpt lat="41.257229" lon="-6.651570">
        <ele>639.987</ele>
        <time>2015-03-30T14:29:44Z</time>
      </trkpt>
      <trkpt lat="41.257298" lon="-6.651460">
        <ele>641.811</ele>
        <time>2015-03-30T14:29:54Z</time>
      </trkpt>
      <trkpt lat="41.257318" lon="-6.651427">
        <ele>642.371</ele>
        <time>2015-03-30T14:29:57Z</time>
      </trkpt>
      <trkpt lat="41.257323" lon="-6.651411">
        <ele>642.884</ele>
        <time>2015-03-30T14:29:58Z</time>
      </trkpt>
      <trkpt lat="41.257324" lon="-6.651396">
        <ele>642.829</ele>
        <time>2015-03-30T14:29:59Z</time>
      </trkpt>
      <trkpt lat="41.257328" lon="-6.651356">
        <ele>643.789</ele>
        <time>2015-03-30T14:30:03Z</time>
      </trkpt>
      <trkpt lat="41.257399" lon="-6.651199">
        <ele>646.606</ele>
        <time>2015-03-30T14:30:14Z</time>
      </trkpt>
      <trkpt lat="41.257441" lon="-6.651099">
        <ele>649.026</ele>
        <time>2015-03-30T14:30:23Z</time>
      </trkpt>
      <trkpt lat="41.257443" lon="-6.651086">
        <ele>649.007</ele>
        <time>2015-03-30T14:30:24Z</time>
      </trkpt>
      <trkpt lat="41.257447" lon="-6.651073">
        <ele>649.537</ele>
        <time>2015-03-30T14:30:25Z</time>
      </trkpt>
      <trkpt lat="41.257450" lon="-6.651058">
        <ele>649.582</ele>
        <time>2015-03-30T14:30:26Z</time>
      </trkpt>
      <trkpt lat="41.257449" lon="-6.651035">
        <ele>650.027</ele>
        <time>2015-03-30T14:30:28Z</time>
      </trkpt>
      <trkpt lat="41.257460" lon="-6.650967">
        <ele>651.091</ele>
        <time>2015-03-30T14:30:34Z</time>
      </trkpt>
      <trkpt lat="41.257493" lon="-6.650864">
        <ele>651.991</ele>
        <time>2015-03-30T14:30:42Z</time>
      </trkpt>
      <trkpt lat="41.257502" lon="-6.650851">
        <ele>652.464</ele>
        <time>2015-03-30T14:30:43Z</time>
      </trkpt>
      <trkpt lat="41.257506" lon="-6.650837">
        <ele>652.439</ele>
        <time>2015-03-30T14:30:44Z</time>
      </trkpt>
      <trkpt lat="41.257510" lon="-6.650822">
        <ele>652.448</ele>
        <time>2015-03-30T14:30:45Z</time>
      </trkpt>
      <trkpt lat="41.257513" lon="-6.650809">
        <ele>652.961</ele>
        <time>2015-03-30T14:30:46Z</time>
      </trkpt>
      <trkpt lat="41.257512" lon="-6.650795">
        <ele>652.917</ele>
        <time>2015-03-30T14:30:47Z</time>
      </trkpt>
      <trkpt lat="41.257509" lon="-6.650781">
        <ele>652.907</ele>
        <time>2015-03-30T14:30:48Z</time>
      </trkpt>
      <trkpt lat="41.257531" lon="-6.650682">
        <ele>652.943</ele>
        <time>2015-03-30T14:30:55Z</time>
      </trkpt>
      <trkpt lat="41.257540" lon="-6.650642">
        <ele>654.858</ele>
        <time>2015-03-30T14:30:58Z</time>
      </trkpt>
      <trkpt lat="41.257613" lon="-6.650426">
        <ele>651.483</ele>
        <time>2015-03-30T14:31:07Z</time>
      </trkpt>
      <trkpt lat="41.257693" lon="-6.650230">
        <ele>649.557</ele>
        <time>2015-03-30T14:31:11Z</time>
      </trkpt>
      <trkpt lat="41.257720" lon="-6.650174">
        <ele>649.057</ele>
        <time>2015-03-30T14:31:12Z</time>
      </trkpt>
      <trkpt lat="41.257867" lon="-6.649908">
        <ele>646.690</ele>
        <time>2015-03-30T14:31:17Z</time>
      </trkpt>
      <trkpt lat="41.258000" lon="-6.649682">
        <ele>643.395</ele>
        <time>2015-03-30T14:31:21Z</time>
      </trkpt>
      <trkpt lat="41.258141" lon="-6.649435">
        <ele>639.914</ele>
        <time>2015-03-30T14:31:25Z</time>
      </trkpt>
      <trkpt lat="41.258215" lon="-6.649316">
        <ele>638.554</ele>
        <time>2015-03-30T14:31:27Z</time>
      </trkpt>
      <trkpt lat="41.258253" lon="-6.649274">
        <ele>638.509</ele>
        <time>2015-03-30T14:31:28Z</time>
      </trkpt>
      <trkpt lat="41.258287" lon="-6.649241">
        <ele>637.507</ele>
        <time>2015-03-30T14:31:29Z</time>
      </trkpt>
      <trkpt lat="41.258314" lon="-6.649202">
        <ele>636.560</ele>
        <time>2015-03-30T14:31:30Z</time>
      </trkpt>
      <trkpt lat="41.258332" lon="-6.649158">
        <ele>635.675</ele>
        <time>2015-03-30T14:31:31Z</time>
      </trkpt>
      <trkpt lat="41.258344" lon="-6.649108">
        <ele>635.120</ele>
        <time>2015-03-30T14:31:32Z</time>
      </trkpt>
      <trkpt lat="41.258355" lon="-6.648864">
        <ele>631.254</ele>
        <time>2015-03-30T14:31:37Z</time>
      </trkpt>
      <trkpt lat="41.258373" lon="-6.648769">
        <ele>630.394</ele>
        <time>2015-03-30T14:31:39Z</time>
      </trkpt>
      <trkpt lat="41.258395" lon="-6.648732">
        <ele>630.337</ele>
        <time>2015-03-30T14:31:40Z</time>
      </trkpt>
      <trkpt lat="41.258421" lon="-6.648703">
        <ele>630.372</ele>
        <time>2015-03-30T14:31:41Z</time>
      </trkpt>
      <trkpt lat="41.258452" lon="-6.648680">
        <ele>630.328</ele>
        <time>2015-03-30T14:31:42Z</time>
      </trkpt>
      <trkpt lat="41.258482" lon="-6.648657">
        <ele>629.389</ele>
        <time>2015-03-30T14:31:43Z</time>
      </trkpt>
      <trkpt lat="41.258506" lon="-6.648629">
        <ele>629.817</ele>
        <time>2015-03-30T14:31:44Z</time>
      </trkpt>
      <trkpt lat="41.258527" lon="-6.648601">
        <ele>629.307</ele>
        <time>2015-03-30T14:31:45Z</time>
      </trkpt>
      <trkpt lat="41.258547" lon="-6.648578">
        <ele>631.261</ele>
        <time>2015-03-30T14:31:46Z</time>
      </trkpt>
      <trkpt lat="41.258747" lon="-6.648392">
        <ele>630.356</ele>
        <time>2015-03-30T14:31:57Z</time>
      </trkpt>
      <trkpt lat="41.258954" lon="-6.648242">
        <ele>630.881</ele>
        <time>2015-03-30T14:32:08Z</time>
      </trkpt>
      <trkpt lat="41.259162" lon="-6.648120">
        <ele>630.855</ele>
        <time>2015-03-30T14:32:18Z</time>
      </trkpt>
      <trkpt lat="41.259344" lon="-6.648005">
        <ele>631.725</ele>
        <time>2015-03-30T14:32:27Z</time>
      </trkpt>
      <trkpt lat="41.259616" lon="-6.647821">
        <ele>633.238</ele>
        <time>2015-03-30T14:32:39Z</time>
      </trkpt>
      <trkpt lat="41.259830" lon="-6.647773">
        <ele>635.193</ele>
        <time>2015-03-30T14:32:49Z</time>
      </trkpt>
      <trkpt lat="41.259850" lon="-6.647770">
        <ele>635.176</ele>
        <time>2015-03-30T14:32:50Z</time>
      </trkpt>
      <trkpt lat="41.259871" lon="-6.647765">
        <ele>635.690</ele>
        <time>2015-03-30T14:32:51Z</time>
      </trkpt>
      <trkpt lat="41.260117" lon="-6.647831">
        <ele>637.019</ele>
        <time>2015-03-30T14:33:03Z</time>
      </trkpt>
      <trkpt lat="41.260168" lon="-6.647852">
        <ele>633.207</ele>
        <time>2015-03-30T14:33:05Z</time>
      </trkpt>
      <trkpt lat="41.260195" lon="-6.647864">
        <ele>639.486</ele>
        <time>2015-03-30T14:33:06Z</time>
      </trkpt>
      <trkpt lat="41.260408" lon="-6.647948">
        <ele>636.551</ele>
        <time>2015-03-30T14:33:13Z</time>
      </trkpt>
      <trkpt lat="41.260622" lon="-6.647941">
        <ele>636.146</ele>
        <time>2015-03-30T14:33:19Z</time>
      </trkpt>
      <trkpt lat="41.260642" lon="-6.647913">
        <ele>636.130</ele>
        <time>2015-03-30T14:33:20Z</time>
      </trkpt>
      <trkpt lat="41.260663" lon="-6.647883">
        <ele>636.170</ele>
        <time>2015-03-30T14:33:21Z</time>
      </trkpt>
      <trkpt lat="41.260723" lon="-6.647573">
        <ele>636.533</ele>
        <time>2015-03-30T14:33:31Z</time>
      </trkpt>
      <trkpt lat="41.260609" lon="-6.647268">
        <ele>637.028</ele>
        <time>2015-03-30T14:33:42Z</time>
      </trkpt>
      <trkpt lat="41.260567" lon="-6.647099">
        <ele>634.164</ele>
        <time>2015-03-30T14:33:47Z</time>
      </trkpt>
      <trkpt lat="41.260560" lon="-6.647059">
        <ele>639.906</ele>
        <time>2015-03-30T14:33:48Z</time>
      </trkpt>
      <trkpt lat="41.260503" lon="-6.646616">
        <ele>637.516</ele>
        <time>2015-03-30T14:33:59Z</time>
      </trkpt>
      <trkpt lat="41.260530" lon="-6.646102">
        <ele>638.007</ele>
        <time>2015-03-30T14:34:12Z</time>
      </trkpt>
      <trkpt lat="41.260660" lon="-6.645837">
        <ele>638.545</ele>
        <time>2015-03-30T14:34:21Z</time>
      </trkpt>
      <trkpt lat="41.260682" lon="-6.645726">
        <ele>638.530</ele>
        <time>2015-03-30T14:34:25Z</time>
      </trkpt>
      <trkpt lat="41.260673" lon="-6.645696">
        <ele>638.545</ele>
        <time>2015-03-30T14:34:26Z</time>
      </trkpt>
      <trkpt lat="41.260655" lon="-6.645675">
        <ele>638.589</ele>
        <time>2015-03-30T14:34:27Z</time>
      </trkpt>
      <trkpt lat="41.260632" lon="-6.645665">
        <ele>638.599</ele>
        <time>2015-03-30T14:34:28Z</time>
      </trkpt>
      <trkpt lat="41.260612" lon="-6.645647">
        <ele>638.562</ele>
        <time>2015-03-30T14:34:29Z</time>
      </trkpt>
      <trkpt lat="41.260593" lon="-6.645624">
        <ele>638.537</ele>
        <time>2015-03-30T14:34:30Z</time>
      </trkpt>
      <trkpt lat="41.260573" lon="-6.645602">
        <ele>638.582</ele>
        <time>2015-03-30T14:34:31Z</time>
      </trkpt>
      <trkpt lat="41.260553" lon="-6.645584">
        <ele>638.543</ele>
        <time>2015-03-30T14:34:32Z</time>
      </trkpt>
      <trkpt lat="41.260396" lon="-6.645352">
        <ele>638.917</ele>
        <time>2015-03-30T14:34:41Z</time>
      </trkpt>
      <trkpt lat="41.260398" lon="-6.645318">
        <ele>639.407</ele>
        <time>2015-03-30T14:34:42Z</time>
      </trkpt>
      <trkpt lat="41.260440" lon="-6.645035">
        <ele>636.567</ele>
        <time>2015-03-30T14:34:50Z</time>
      </trkpt>
      <trkpt lat="41.260450" lon="-6.645003">
        <ele>641.392</ele>
        <time>2015-03-30T14:34:51Z</time>
      </trkpt>
      <trkpt lat="41.260483" lon="-6.644905">
        <ele>637.577</ele>
        <time>2015-03-30T14:34:54Z</time>
      </trkpt>
      <trkpt lat="41.260495" lon="-6.644876">
        <ele>641.371</ele>
        <time>2015-03-30T14:34:55Z</time>
      </trkpt>
      <trkpt lat="41.260614" lon="-6.644583">
        <ele>640.921</ele>
        <time>2015-03-30T14:35:06Z</time>
      </trkpt>
      <trkpt lat="41.260675" lon="-6.644329">
        <ele>642.884</ele>
        <time>2015-03-30T14:35:17Z</time>
      </trkpt>
      <trkpt lat="41.260690" lon="-6.644086">
        <ele>645.229</ele>
        <time>2015-03-30T14:35:28Z</time>
      </trkpt>
      <trkpt lat="41.260703" lon="-6.644029">
        <ele>646.135</ele>
        <time>2015-03-30T14:35:31Z</time>
      </trkpt>
      <trkpt lat="41.260704" lon="-6.644007">
        <ele>646.686</ele>
        <time>2015-03-30T14:35:32Z</time>
      </trkpt>
      <trkpt lat="41.260708" lon="-6.643987">
        <ele>646.614</ele>
        <time>2015-03-30T14:35:33Z</time>
      </trkpt>
      <trkpt lat="41.260763" lon="-6.643761">
        <ele>648.607</ele>
        <time>2015-03-30T14:35:44Z</time>
      </trkpt>
      <trkpt lat="41.260862" lon="-6.643566">
        <ele>649.532</ele>
        <time>2015-03-30T14:35:54Z</time>
      </trkpt>
      <trkpt lat="41.260885" lon="-6.643534">
        <ele>649.557</ele>
        <time>2015-03-30T14:35:56Z</time>
      </trkpt>
      <trkpt lat="41.260898" lon="-6.643520">
        <ele>650.092</ele>
        <time>2015-03-30T14:35:57Z</time>
      </trkpt>
      <trkpt lat="41.260906" lon="-6.643504">
        <ele>649.586</ele>
        <time>2015-03-30T14:35:58Z</time>
      </trkpt>
      <trkpt lat="41.260917" lon="-6.643486">
        <ele>650.586</ele>
        <time>2015-03-30T14:35:59Z</time>
      </trkpt>
      <trkpt lat="41.260929" lon="-6.643460">
        <ele>650.049</ele>
        <time>2015-03-30T14:36:00Z</time>
      </trkpt>
      <trkpt lat="41.260944" lon="-6.643437">
        <ele>650.014</ele>
        <time>2015-03-30T14:36:01Z</time>
      </trkpt>
      <trkpt lat="41.260958" lon="-6.643415">
        <ele>650.032</ele>
        <time>2015-03-30T14:36:02Z</time>
      </trkpt>
      <trkpt lat="41.260969" lon="-6.643395">
        <ele>650.092</ele>
        <time>2015-03-30T14:36:03Z</time>
      </trkpt>
      <trkpt lat="41.261048" lon="-6.643183">
        <ele>651.911</ele>
        <time>2015-03-30T14:36:14Z</time>
      </trkpt>
      <trkpt lat="41.261063" lon="-6.643122">
        <ele>651.907</ele>
        <time>2015-03-30T14:36:17Z</time>
      </trkpt>
      <trkpt lat="41.261071" lon="-6.643101">
        <ele>652.422</ele>
        <time>2015-03-30T14:36:18Z</time>
      </trkpt>
      <trkpt lat="41.261089" lon="-6.642999">
        <ele>653.887</ele>
        <time>2015-03-30T14:36:23Z</time>
      </trkpt>
      <trkpt lat="41.261115" lon="-6.642782">
        <ele>654.812</ele>
        <time>2015-03-30T14:36:33Z</time>
      </trkpt>
      <trkpt lat="41.261178" lon="-6.642539">
        <ele>656.746</ele>
        <time>2015-03-30T14:36:44Z</time>
      </trkpt>
      <trkpt lat="41.261188" lon="-6.642496">
        <ele>661.026</ele>
        <time>2015-03-30T14:36:46Z</time>
      </trkpt>
      <trkpt lat="41.261195" lon="-6.642473">
        <ele>657.239</ele>
        <time>2015-03-30T14:36:47Z</time>
      </trkpt>
      <trkpt lat="41.261252" lon="-6.642253">
        <ele>658.244</ele>
        <time>2015-03-30T14:36:57Z</time>
      </trkpt>
      <trkpt lat="41.261335" lon="-6.641955">
        <ele>659.684</ele>
        <time>2015-03-30T14:37:10Z</time>
      </trkpt>
      <trkpt lat="41.261394" lon="-6.641695">
        <ele>660.607</ele>
        <time>2015-03-30T14:37:20Z</time>
      </trkpt>
      <trkpt lat="41.261533" lon="-6.641376">
        <ele>663.517</ele>
        <time>2015-03-30T14:37:34Z</time>
      </trkpt>
      <trkpt lat="41.261571" lon="-6.641302">
        <ele>664.407</ele>
        <time>2015-03-30T14:37:38Z</time>
      </trkpt>
      <trkpt lat="41.261578" lon="-6.641283">
        <ele>664.487</ele>
        <time>2015-03-30T14:37:39Z</time>
      </trkpt>
      <trkpt lat="41.261632" lon="-6.641050">
        <ele>665.942</ele>
        <time>2015-03-30T14:37:50Z</time>
      </trkpt>
      <trkpt lat="41.261634" lon="-6.640873">
        <ele>667.897</ele>
        <time>2015-03-30T14:37:59Z</time>
      </trkpt>
      <trkpt lat="41.261637" lon="-6.640848">
        <ele>667.841</ele>
        <time>2015-03-30T14:38:01Z</time>
      </trkpt>
      <trkpt lat="41.261634" lon="-6.640836">
        <ele>668.331</ele>
        <time>2015-03-30T14:38:02Z</time>
      </trkpt>
      <trkpt lat="41.261631" lon="-6.640822">
        <ele>668.794</ele>
        <time>2015-03-30T14:38:03Z</time>
      </trkpt>
      <trkpt lat="41.261631" lon="-6.640806">
        <ele>668.799</ele>
        <time>2015-03-30T14:38:04Z</time>
      </trkpt>
      <trkpt lat="41.261629" lon="-6.640788">
        <ele>668.743</ele>
        <time>2015-03-30T14:38:05Z</time>
      </trkpt>
      <trkpt lat="41.261628" lon="-6.640768">
        <ele>669.264</ele>
        <time>2015-03-30T14:38:06Z</time>
      </trkpt>
      <trkpt lat="41.261623" lon="-6.640748">
        <ele>669.210</ele>
        <time>2015-03-30T14:38:07Z</time>
      </trkpt>
      <trkpt lat="41.261616" lon="-6.640727">
        <ele>669.707</ele>
        <time>2015-03-30T14:38:08Z</time>
      </trkpt>
      <trkpt lat="41.261613" lon="-6.640705">
        <ele>669.773</ele>
        <time>2015-03-30T14:38:09Z</time>
      </trkpt>
      <trkpt lat="41.261612" lon="-6.640688">
        <ele>669.728</ele>
        <time>2015-03-30T14:38:10Z</time>
      </trkpt>
      <trkpt lat="41.261573" lon="-6.640534">
        <ele>671.673</ele>
        <time>2015-03-30T14:38:20Z</time>
      </trkpt>
      <trkpt lat="41.261571" lon="-6.640513">
        <ele>671.657</ele>
        <time>2015-03-30T14:38:21Z</time>
      </trkpt>
      <trkpt lat="41.261555" lon="-6.640353">
        <ele>673.517</ele>
        <time>2015-03-30T14:38:29Z</time>
      </trkpt>
      <trkpt lat="41.261555" lon="-6.640335">
        <ele>673.590</ele>
        <time>2015-03-30T14:38:30Z</time>
      </trkpt>
      <trkpt lat="41.261556" lon="-6.640315">
        <ele>674.015</ele>
        <time>2015-03-30T14:38:31Z</time>
      </trkpt>
      <trkpt lat="41.261555" lon="-6.640294">
        <ele>674.065</ele>
        <time>2015-03-30T14:38:32Z</time>
      </trkpt>
      <trkpt lat="41.261552" lon="-6.640273">
        <ele>674.068</ele>
        <time>2015-03-30T14:38:33Z</time>
      </trkpt>
      <trkpt lat="41.261551" lon="-6.640252">
        <ele>674.014</ele>
        <time>2015-03-30T14:38:34Z</time>
      </trkpt>
      <trkpt lat="41.261553" lon="-6.640230">
        <ele>671.107</ele>
        <time>2015-03-30T14:38:35Z</time>
      </trkpt>
      <trkpt lat="41.261556" lon="-6.640209">
        <ele>676.945</ele>
        <time>2015-03-30T14:38:36Z</time>
      </trkpt>
      <trkpt lat="41.261554" lon="-6.640190">
        <ele>675.030</ele>
        <time>2015-03-30T14:38:37Z</time>
      </trkpt>
      <trkpt lat="41.261549" lon="-6.640169">
        <ele>675.085</ele>
        <time>2015-03-30T14:38:38Z</time>
      </trkpt>
      <trkpt lat="41.261547" lon="-6.640149">
        <ele>675.079</ele>
        <time>2015-03-30T14:38:39Z</time>
      </trkpt>
      <trkpt lat="41.261537" lon="-6.639894">
        <ele>676.999</ele>
        <time>2015-03-30T14:38:52Z</time>
      </trkpt>
      <trkpt lat="41.261538" lon="-6.639685">
        <ele>678.422</ele>
        <time>2015-03-30T14:39:03Z</time>
      </trkpt>
      <trkpt lat="41.261547" lon="-6.639460">
        <ele>679.367</ele>
        <time>2015-03-30T14:39:15Z</time>
      </trkpt>
      <trkpt lat="41.261546" lon="-6.639442">
        <ele>681.239</ele>
        <time>2015-03-30T14:39:16Z</time>
      </trkpt>
      <trkpt lat="41.261544" lon="-6.639425">
        <ele>680.801</ele>
        <time>2015-03-30T14:39:17Z</time>
      </trkpt>
      <trkpt lat="41.261562" lon="-6.639178">
        <ele>682.221</ele>
        <time>2015-03-30T14:39:29Z</time>
      </trkpt>
      <trkpt lat="41.261543" lon="-6.638948">
        <ele>683.207</ele>
        <time>2015-03-30T14:39:39Z</time>
      </trkpt>
      <trkpt lat="41.261487" lon="-6.638674">
        <ele>684.672</ele>
        <time>2015-03-30T14:39:50Z</time>
      </trkpt>
      <trkpt lat="41.261461" lon="-6.638528">
        <ele>685.647</ele>
        <time>2015-03-30T14:39:56Z</time>
      </trkpt>
      <trkpt lat="41.261463" lon="-6.638501">
        <ele>686.042</ele>
        <time>2015-03-30T14:39:57Z</time>
      </trkpt>
      <trkpt lat="41.261462" lon="-6.638472">
        <ele>686.036</ele>
        <time>2015-03-30T14:39:58Z</time>
      </trkpt>
      <trkpt lat="41.261461" lon="-6.638443">
        <ele>686.016</ele>
        <time>2015-03-30T14:39:59Z</time>
      </trkpt>
      <trkpt lat="41.261460" lon="-6.638416">
        <ele>686.059</ele>
        <time>2015-03-30T14:40:00Z</time>
      </trkpt>
      <trkpt lat="41.261470" lon="-6.638108">
        <ele>688.464</ele>
        <time>2015-03-30T14:40:12Z</time>
      </trkpt>
      <trkpt lat="41.261468" lon="-6.638084">
        <ele>688.449</ele>
        <time>2015-03-30T14:40:13Z</time>
      </trkpt>
      <trkpt lat="41.261498" lon="-6.637949">
        <ele>689.902</ele>
        <time>2015-03-30T14:40:19Z</time>
      </trkpt>
      <trkpt lat="41.261501" lon="-6.637926">
        <ele>689.922</ele>
        <time>2015-03-30T14:40:20Z</time>
      </trkpt>
      <trkpt lat="41.261509" lon="-6.637902">
        <ele>690.407</ele>
        <time>2015-03-30T14:40:21Z</time>
      </trkpt>
      <trkpt lat="41.261517" lon="-6.637883">
        <ele>690.413</ele>
        <time>2015-03-30T14:40:22Z</time>
      </trkpt>
      <trkpt lat="41.261519" lon="-6.637859">
        <ele>690.838</ele>
        <time>2015-03-30T14:40:23Z</time>
      </trkpt>
      <trkpt lat="41.261519" lon="-6.637835">
        <ele>691.373</ele>
        <time>2015-03-30T14:40:24Z</time>
      </trkpt>
      <trkpt lat="41.261558" lon="-6.637653">
        <ele>692.337</ele>
        <time>2015-03-30T14:40:32Z</time>
      </trkpt>
      <trkpt lat="41.261563" lon="-6.637557">
        <ele>692.867</ele>
        <time>2015-03-30T14:40:36Z</time>
      </trkpt>
      <trkpt lat="41.261571" lon="-6.637484">
        <ele>693.780</ele>
        <time>2015-03-30T14:40:39Z</time>
      </trkpt>
      <trkpt lat="41.261571" lon="-6.637457">
        <ele>693.385</ele>
        <time>2015-03-30T14:40:40Z</time>
      </trkpt>
      <trkpt lat="41.261621" lon="-6.637268">
        <ele>693.793</ele>
        <time>2015-03-30T14:40:49Z</time>
      </trkpt>
      <trkpt lat="41.261742" lon="-6.636910">
        <ele>691.865</ele>
        <time>2015-03-30T14:40:58Z</time>
      </trkpt>
      <trkpt lat="41.261776" lon="-6.636758">
        <ele>690.821</ele>
        <time>2015-03-30T14:41:01Z</time>
      </trkpt>
      <trkpt lat="41.261868" lon="-6.636383">
        <ele>688.907</ele>
        <time>2015-03-30T14:41:08Z</time>
      </trkpt>
      <trkpt lat="41.262148" lon="-6.635835">
        <ele>686.068</ele>
        <time>2015-03-30T14:41:17Z</time>
      </trkpt>
      <trkpt lat="41.262343" lon="-6.635465">
        <ele>683.223</ele>
        <time>2015-03-30T14:41:22Z</time>
      </trkpt>
      <trkpt lat="41.262498" lon="-6.635138">
        <ele>681.788</ele>
        <time>2015-03-30T14:41:26Z</time>
      </trkpt>
      <trkpt lat="41.262544" lon="-6.635047">
        <ele>680.882</ele>
        <time>2015-03-30T14:41:27Z</time>
      </trkpt>
      <trkpt lat="41.262807" lon="-6.634392">
        <ele>678.822</ele>
        <time>2015-03-30T14:41:35Z</time>
      </trkpt>
      <trkpt lat="41.262818" lon="-6.634323">
        <ele>678.455</ele>
        <time>2015-03-30T14:41:36Z</time>
      </trkpt>
      <trkpt lat="41.262899" lon="-6.633650">
        <ele>675.550</ele>
        <time>2015-03-30T14:41:44Z</time>
      </trkpt>
      <trkpt lat="41.262932" lon="-6.633270">
        <ele>674.579</ele>
        <time>2015-03-30T14:41:48Z</time>
      </trkpt>
      <trkpt lat="41.262989" lon="-6.632731">
        <ele>672.105</ele>
        <time>2015-03-30T14:41:54Z</time>
      </trkpt>
      <trkpt lat="41.262998" lon="-6.632649">
        <ele>672.125</ele>
        <time>2015-03-30T14:41:55Z</time>
      </trkpt>
      <trkpt lat="41.263114" lon="-6.631944">
        <ele>670.207</ele>
        <time>2015-03-30T14:42:05Z</time>
      </trkpt>
      <trkpt lat="41.263114" lon="-6.631862">
        <ele>666.896</ele>
        <time>2015-03-30T14:42:07Z</time>
      </trkpt>
      <trkpt lat="41.263119" lon="-6.631821">
        <ele>675.071</ele>
        <time>2015-03-30T14:42:08Z</time>
      </trkpt>
      <trkpt lat="41.263129" lon="-6.631775">
        <ele>669.786</ele>
        <time>2015-03-30T14:42:09Z</time>
      </trkpt>
      <trkpt lat="41.263179" lon="-6.631626">
        <ele>668.330</ele>
        <time>2015-03-30T14:42:13Z</time>
      </trkpt>
      <trkpt lat="41.263326" lon="-6.631280">
        <ele>665.950</ele>
        <time>2015-03-30T14:42:22Z</time>
      </trkpt>
      <trkpt lat="41.263510" lon="-6.630835">
        <ele>664.483</ele>
        <time>2015-03-30T14:42:32Z</time>
      </trkpt>
      <trkpt lat="41.263614" lon="-6.630600">
        <ele>663.088</ele>
        <time>2015-03-30T14:42:38Z</time>
      </trkpt>
      <trkpt lat="41.263634" lon="-6.630546">
        <ele>663.017</ele>
        <time>2015-03-30T14:42:44Z</time>
      </trkpt>
      <trkpt lat="41.263640" lon="-6.630554">
        <ele>662.587</ele>
        <time>2015-03-30T14:43:05Z</time>
      </trkpt>
      <trkpt lat="41.263641" lon="-6.630560">
        <ele>663.015</ele>
        <time>2015-03-30T14:43:21Z</time>
      </trkpt>
      <trkpt lat="41.263644" lon="-6.630560">
        <ele>662.507</ele>
        <time>2015-03-30T14:43:29Z</time>
      </trkpt>
      <trkpt lat="41.263646" lon="-6.630551">
        <ele>663.010</ele>
        <time>2015-03-30T14:43:52Z</time>
      </trkpt>
      <trkpt lat="41.263646" lon="-6.630551">
        <ele>662.515</ele>
        <time>2015-03-30T14:44:05Z</time>
      </trkpt>
      <trkpt lat="41.263655" lon="-6.630536">
        <ele>662.580</ele>
        <time>2015-03-30T14:44:06Z</time>
      </trkpt>
      <trkpt lat="41.263664" lon="-6.630518">
        <ele>662.524</ele>
        <time>2015-03-30T14:44:07Z</time>
      </trkpt>
      <trkpt lat="41.263677" lon="-6.630494">
        <ele>662.034</ele>
        <time>2015-03-30T14:44:08Z</time>
      </trkpt>
      <trkpt lat="41.263691" lon="-6.630466">
        <ele>662.097</ele>
        <time>2015-03-30T14:44:09Z</time>
      </trkpt>
      <trkpt lat="41.263707" lon="-6.630437">
        <ele>662.032</ele>
        <time>2015-03-30T14:44:10Z</time>
      </trkpt>
      <trkpt lat="41.263851" lon="-6.630171">
        <ele>660.619</ele>
        <time>2015-03-30T14:44:20Z</time>
      </trkpt>
      <trkpt lat="41.263950" lon="-6.629988">
        <ele>659.609</ele>
        <time>2015-03-30T14:44:26Z</time>
      </trkpt>
      <trkpt lat="41.263960" lon="-6.629959">
        <ele>659.619</ele>
        <time>2015-03-30T14:44:27Z</time>
      </trkpt>
      <trkpt lat="41.263971" lon="-6.629924">
        <ele>659.107</ele>
        <time>2015-03-30T14:44:28Z</time>
      </trkpt>
      <trkpt lat="41.263981" lon="-6.629890">
        <ele>659.110</ele>
        <time>2015-03-30T14:44:29Z</time>
      </trkpt>
      <trkpt lat="41.263999" lon="-6.629860">
        <ele>658.665</ele>
        <time>2015-03-30T14:44:30Z</time>
      </trkpt>
      <trkpt lat="41.264021" lon="-6.629837">
        <ele>658.260</ele>
        <time>2015-03-30T14:44:31Z</time>
      </trkpt>
      <trkpt lat="41.264044" lon="-6.629816">
        <ele>658.294</ele>
        <time>2015-03-30T14:44:32Z</time>
      </trkpt>
      <trkpt lat="41.264071" lon="-6.629795">
        <ele>657.724</ele>
        <time>2015-03-30T14:44:33Z</time>
      </trkpt>
      <trkpt lat="41.264304" lon="-6.629621">
        <ele>655.387</ele>
        <time>2015-03-30T14:44:40Z</time>
      </trkpt>
      <trkpt lat="41.264339" lon="-6.629580">
        <ele>654.812</ele>
        <time>2015-03-30T14:44:41Z</time>
      </trkpt>
      <trkpt lat="41.264370" lon="-6.629533">
        <ele>654.839</ele>
        <time>2015-03-30T14:44:42Z</time>
      </trkpt>
      <trkpt lat="41.264545" lon="-6.629212">
        <ele>653.401</ele>
        <time>2015-03-30T14:44:48Z</time>
      </trkpt>
      <trkpt lat="41.264753" lon="-6.628644">
        <ele>651.921</ele>
        <time>2015-03-30T14:44:59Z</time>
      </trkpt>
      <trkpt lat="41.264772" lon="-6.628550">
        <ele>651.907</ele>
        <time>2015-03-30T14:45:01Z</time>
      </trkpt>
      <trkpt lat="41.264829" lon="-6.628269">
        <ele>649.072</ele>
        <time>2015-03-30T14:45:06Z</time>
      </trkpt>
      <trkpt lat="41.264888" lon="-6.628100">
        <ele>647.617</ele>
        <time>2015-03-30T14:45:09Z</time>
      </trkpt>
      <trkpt lat="41.264904" lon="-6.628035">
        <ele>647.132</ele>
        <time>2015-03-30T14:45:10Z</time>
      </trkpt>
      <trkpt lat="41.264919" lon="-6.627970">
        <ele>646.616</ele>
        <time>2015-03-30T14:45:11Z</time>
      </trkpt>
      <trkpt lat="41.264941" lon="-6.627913">
        <ele>646.616</ele>
        <time>2015-03-30T14:45:12Z</time>
      </trkpt>
      <trkpt lat="41.264969" lon="-6.627859">
        <ele>646.139</ele>
        <time>2015-03-30T14:45:13Z</time>
      </trkpt>
      <trkpt lat="41.265064" lon="-6.627673">
        <ele>644.764</ele>
        <time>2015-03-30T14:45:16Z</time>
      </trkpt>
      <trkpt lat="41.265204" lon="-6.627358">
        <ele>643.786</ele>
        <time>2015-03-30T14:45:21Z</time>
      </trkpt>
      <trkpt lat="41.265374" lon="-6.626920">
        <ele>642.860</ele>
        <time>2015-03-30T14:45:31Z</time>
      </trkpt>
      <trkpt lat="41.265503" lon="-6.626685">
        <ele>642.326</ele>
        <time>2015-03-30T14:45:40Z</time>
      </trkpt>
      <trkpt lat="41.265662" lon="-6.626340">
        <ele>641.807</ele>
        <time>2015-03-30T14:45:51Z</time>
      </trkpt>
      <trkpt lat="41.265693" lon="-6.626158">
        <ele>640.927</ele>
        <time>2015-03-30T14:45:58Z</time>
      </trkpt>
      <trkpt lat="41.265683" lon="-6.626104">
        <ele>639.952</ele>
        <time>2015-03-30T14:46:08Z</time>
      </trkpt>
      <trkpt lat="41.265666" lon="-6.625883">
        <ele>638.977</ele>
        <time>2015-03-30T14:46:16Z</time>
      </trkpt>
      <trkpt lat="41.265614" lon="-6.625628">
        <ele>637.541</ele>
        <time>2015-03-30T14:46:25Z</time>
      </trkpt>
      <trkpt lat="41.265547" lon="-6.625527">
        <ele>636.551</ele>
        <time>2015-03-30T14:46:30Z</time>
      </trkpt>
      <trkpt lat="41.265519" lon="-6.625306">
        <ele>635.624</ele>
        <time>2015-03-30T14:46:36Z</time>
      </trkpt>
      <trkpt lat="41.265398" lon="-6.625051">
        <ele>633.739</ele>
        <time>2015-03-30T14:46:46Z</time>
      </trkpt>
      <trkpt lat="41.265367" lon="-6.624874">
        <ele>632.733</ele>
        <time>2015-03-30T14:46:53Z</time>
      </trkpt>
      <trkpt lat="41.265338" lon="-6.624769">
        <ele>632.223</ele>
        <time>2015-03-30T14:46:58Z</time>
      </trkpt>
      <trkpt lat="41.265248" lon="-6.624424">
        <ele>631.715</ele>
        <time>2015-03-30T14:47:09Z</time>
      </trkpt>
      <trkpt lat="41.265114" lon="-6.624134">
        <ele>631.207</ele>
        <time>2015-03-30T14:47:20Z</time>
      </trkpt>
      <trkpt lat="41.265002" lon="-6.623842">
        <ele>630.842</ele>
        <time>2015-03-30T14:47:30Z</time>
      </trkpt>
      <trkpt lat="41.265021" lon="-6.623658">
        <ele>631.277</ele>
        <time>2015-03-30T14:47:37Z</time>
      </trkpt>
      <trkpt lat="41.265066" lon="-6.623476">
        <ele>631.762</ele>
        <time>2015-03-30T14:47:45Z</time>
      </trkpt>
      <trkpt lat="41.265078" lon="-6.623292">
        <ele>632.216</ele>
        <time>2015-03-30T14:47:54Z</time>
      </trkpt>
      <trkpt lat="41.265078" lon="-6.623153">
        <ele>634.146</ele>
        <time>2015-03-30T14:48:01Z</time>
      </trkpt>
      <trkpt lat="41.265052" lon="-6.622963">
        <ele>635.629</ele>
        <time>2015-03-30T14:48:10Z</time>
      </trkpt>
      <trkpt lat="41.265038" lon="-6.622790">
        <ele>636.564</ele>
        <time>2015-03-30T14:48:18Z</time>
      </trkpt>
      <trkpt lat="41.265036" lon="-6.622741">
        <ele>637.064</ele>
        <time>2015-03-30T14:48:20Z</time>
      </trkpt>
      <trkpt lat="41.265028" lon="-6.622458">
        <ele>638.506</ele>
        <time>2015-03-30T14:48:32Z</time>
      </trkpt>
      <trkpt lat="41.265021" lon="-6.622306">
        <ele>638.516</ele>
        <time>2015-03-30T14:48:38Z</time>
      </trkpt>
      <trkpt lat="41.265031" lon="-6.622202">
        <ele>639.407</ele>
        <time>2015-03-30T14:48:47Z</time>
      </trkpt>
      <trkpt lat="41.265031" lon="-6.622044">
        <ele>638.965</ele>
        <time>2015-03-30T14:48:55Z</time>
      </trkpt>
      <trkpt lat="41.265021" lon="-6.621802">
        <ele>639.440</ele>
        <time>2015-03-30T14:49:04Z</time>
      </trkpt>
      <trkpt lat="41.264988" lon="-6.621601">
        <ele>637.565</ele>
        <time>2015-03-30T14:49:11Z</time>
      </trkpt>
      <trkpt lat="41.264983" lon="-6.621571">
        <ele>643.379</ele>
        <time>2015-03-30T14:49:12Z</time>
      </trkpt>
      <trkpt lat="41.264980" lon="-6.621540">
        <ele>639.989</ele>
        <time>2015-03-30T14:49:13Z</time>
      </trkpt>
      <trkpt lat="41.264968" lon="-6.621414">
        <ele>639.932</ele>
        <time>2015-03-30T14:49:17Z</time>
      </trkpt>
      <trkpt lat="41.264961" lon="-6.621074">
        <ele>640.947</ele>
        <time>2015-03-30T14:49:27Z</time>
      </trkpt>
      <trkpt lat="41.264960" lon="-6.620699">
        <ele>641.389</ele>
        <time>2015-03-30T14:49:39Z</time>
      </trkpt>
      <trkpt lat="41.264982" lon="-6.620481">
        <ele>643.306</ele>
        <time>2015-03-30T14:49:47Z</time>
      </trkpt>
      <trkpt lat="41.265042" lon="-6.620247">
        <ele>643.326</ele>
        <time>2015-03-30T14:49:57Z</time>
      </trkpt>
      <trkpt lat="41.265122" lon="-6.620085">
        <ele>643.307</ele>
        <time>2015-03-30T14:50:03Z</time>
      </trkpt>
      <trkpt lat="41.265278" lon="-6.619746">
        <ele>644.237</ele>
        <time>2015-03-30T14:50:15Z</time>
      </trkpt>
      <trkpt lat="41.265427" lon="-6.619452">
        <ele>645.252</ele>
        <time>2015-03-30T14:50:25Z</time>
      </trkpt>
      <trkpt lat="41.265545" lon="-6.619243">
        <ele>646.677</ele>
        <time>2015-03-30T14:50:35Z</time>
      </trkpt>
      <trkpt lat="41.265689" lon="-6.619007">
        <ele>647.661</ele>
        <time>2015-03-30T14:50:45Z</time>
      </trkpt>
      <trkpt lat="41.265830" lon="-6.618757">
        <ele>648.631</ele>
        <time>2015-03-30T14:50:55Z</time>
      </trkpt>
      <trkpt lat="41.265960" lon="-6.618511">
        <ele>650.574</ele>
        <time>2015-03-30T14:51:05Z</time>
      </trkpt>
      <trkpt lat="41.266103" lon="-6.618251">
        <ele>651.919</ele>
        <time>2015-03-30T14:51:16Z</time>
      </trkpt>
      <trkpt lat="41.266163" lon="-6.618025">
        <ele>652.463</ele>
        <time>2015-03-30T14:51:24Z</time>
      </trkpt>
      <trkpt lat="41.266143" lon="-6.617986">
        <ele>653.444</ele>
        <time>2015-03-30T14:51:28Z</time>
      </trkpt>
      <trkpt lat="41.266152" lon="-6.618039">
        <ele>652.918</ele>
        <time>2015-03-30T14:51:31Z</time>
      </trkpt>
      <trkpt lat="41.266209" lon="-6.618194">
        <ele>652.407</ele>
        <time>2015-03-30T14:51:39Z</time>
      </trkpt>
      <trkpt lat="41.266280" lon="-6.618208">
        <ele>652.475</ele>
        <time>2015-03-30T14:51:43Z</time>
      </trkpt>
      <trkpt lat="41.266437" lon="-6.618096">
        <ele>653.470</ele>
        <time>2015-03-30T14:51:53Z</time>
      </trkpt>
      <trkpt lat="41.266467" lon="-6.618051">
        <ele>653.435</ele>
        <time>2015-03-30T14:51:56Z</time>
      </trkpt>
      <trkpt lat="41.266541" lon="-6.617959">
        <ele>654.389</ele>
        <time>2015-03-30T14:52:02Z</time>
      </trkpt>
      <trkpt lat="41.266671" lon="-6.617748">
        <ele>655.349</ele>
        <time>2015-03-30T14:52:13Z</time>
      </trkpt>
      <trkpt lat="41.266828" lon="-6.617572">
        <ele>656.782</ele>
        <time>2015-03-30T14:52:24Z</time>
      </trkpt>
      <trkpt lat="41.267008" lon="-6.617376">
        <ele>657.727</ele>
        <time>2015-03-30T14:52:36Z</time>
      </trkpt>
      <trkpt lat="41.267177" lon="-6.617184">
        <ele>659.143</ele>
        <time>2015-03-30T14:52:47Z</time>
      </trkpt>
      <trkpt lat="41.267327" lon="-6.617003">
        <ele>660.664</ele>
        <time>2015-03-30T14:52:57Z</time>
      </trkpt>
      <trkpt lat="41.267429" lon="-6.616876">
        <ele>661.510</ele>
        <time>2015-03-30T14:53:04Z</time>
      </trkpt>
      <trkpt lat="41.267581" lon="-6.616745">
        <ele>662.507</ele>
        <time>2015-03-30T14:53:14Z</time>
      </trkpt>
      <trkpt lat="41.267766" lon="-6.616585">
        <ele>663.063</ele>
        <time>2015-03-30T14:53:25Z</time>
      </trkpt>
      <trkpt lat="41.267936" lon="-6.616438">
        <ele>663.588</ele>
        <time>2015-03-30T14:53:34Z</time>
      </trkpt>
      <trkpt lat="41.268102" lon="-6.616298">
        <ele>663.993</ele>
        <time>2015-03-30T14:53:43Z</time>
      </trkpt>
      <trkpt lat="41.268292" lon="-6.616111">
        <ele>664.437</ele>
        <time>2015-03-30T14:53:54Z</time>
      </trkpt>
      <trkpt lat="41.268455" lon="-6.615916">
        <ele>664.937</ele>
        <time>2015-03-30T14:54:04Z</time>
      </trkpt>
      <trkpt lat="41.268668" lon="-6.615725">
        <ele>664.960</ele>
        <time>2015-03-30T14:54:15Z</time>
      </trkpt>
      <trkpt lat="41.268913" lon="-6.615472">
        <ele>665.975</ele>
        <time>2015-03-30T14:54:28Z</time>
      </trkpt>
      <trkpt lat="41.269103" lon="-6.615283">
        <ele>666.351</ele>
        <time>2015-03-30T14:54:38Z</time>
      </trkpt>
      <trkpt lat="41.269296" lon="-6.615074">
        <ele>667.801</ele>
        <time>2015-03-30T14:54:49Z</time>
      </trkpt>
      <trkpt lat="41.269467" lon="-6.614943">
        <ele>668.311</ele>
        <time>2015-03-30T14:54:58Z</time>
      </trkpt>
      <trkpt lat="41.269645" lon="-6.614795">
        <ele>669.207</ele>
        <time>2015-03-30T14:55:08Z</time>
      </trkpt>
      <trkpt lat="41.269838" lon="-6.614595">
        <ele>670.264</ele>
        <time>2015-03-30T14:55:19Z</time>
      </trkpt>
      <trkpt lat="41.269988" lon="-6.614471">
        <ele>670.769</ele>
        <time>2015-03-30T14:55:28Z</time>
      </trkpt>
      <trkpt lat="41.270198" lon="-6.614356">
        <ele>669.264</ele>
        <time>2015-03-30T14:55:36Z</time>
      </trkpt>
      <trkpt lat="41.270395" lon="-6.614260">
        <ele>669.228</ele>
        <time>2015-03-30T14:55:45Z</time>
      </trkpt>
      <trkpt lat="41.270501" lon="-6.614189">
        <ele>669.798</ele>
        <time>2015-03-30T14:55:50Z</time>
      </trkpt>
      <trkpt lat="41.270702" lon="-6.613911">
        <ele>668.321</ele>
        <time>2015-03-30T14:55:59Z</time>
      </trkpt>
      <trkpt lat="41.271035" lon="-6.613537">
        <ele>666.346</ele>
        <time>2015-03-30T14:56:10Z</time>
      </trkpt>
      <trkpt lat="41.271112" lon="-6.613443">
        <ele>662.026</ele>
        <time>2015-03-30T14:56:14Z</time>
      </trkpt>
      <trkpt lat="41.271129" lon="-6.613426">
        <ele>669.247</ele>
        <time>2015-03-30T14:56:15Z</time>
      </trkpt>
      <trkpt lat="41.271310" lon="-6.613174">
        <ele>667.311</ele>
        <time>2015-03-30T14:56:25Z</time>
      </trkpt>
      <trkpt lat="41.271508" lon="-6.612920">
        <ele>665.907</ele>
        <time>2015-03-30T14:56:34Z</time>
      </trkpt>
      <trkpt lat="41.271594" lon="-6.612762">
        <ele>665.441</ele>
        <time>2015-03-30T14:56:38Z</time>
      </trkpt>
      <trkpt lat="41.271636" lon="-6.612359">
        <ele>665.476</ele>
        <time>2015-03-30T14:56:46Z</time>
      </trkpt>
      <trkpt lat="41.271754" lon="-6.612143">
        <ele>665.991</ele>
        <time>2015-03-30T14:56:53Z</time>
      </trkpt>
      <trkpt lat="41.271830" lon="-6.611915">
        <ele>666.315</ele>
        <time>2015-03-30T14:57:00Z</time>
      </trkpt>
      <trkpt lat="41.271891" lon="-6.611595">
        <ele>666.315</ele>
        <time>2015-03-30T14:57:08Z</time>
      </trkpt>
      <trkpt lat="41.272110" lon="-6.611377">
        <ele>663.088</ele>
        <time>2015-03-30T14:57:16Z</time>
      </trkpt>
      <trkpt lat="41.272396" lon="-6.611238">
        <ele>662.583</ele>
        <time>2015-03-30T14:57:25Z</time>
      </trkpt>
      <trkpt lat="41.272727" lon="-6.611160">
        <ele>660.633</ele>
        <time>2015-03-30T14:57:35Z</time>
      </trkpt>
      <trkpt lat="41.272884" lon="-6.611159">
        <ele>658.623</ele>
        <time>2015-03-30T14:57:39Z</time>
      </trkpt>
      <trkpt lat="41.272925" lon="-6.611160">
        <ele>658.215</ele>
        <time>2015-03-30T14:57:40Z</time>
      </trkpt>
      <trkpt lat="41.272963" lon="-6.611160">
        <ele>657.707</ele>
        <time>2015-03-30T14:57:41Z</time>
      </trkpt>
      <trkpt lat="41.273004" lon="-6.611164">
        <ele>656.782</ele>
        <time>2015-03-30T14:57:42Z</time>
      </trkpt>
      <trkpt lat="41.273046" lon="-6.611165">
        <ele>656.787</ele>
        <time>2015-03-30T14:57:43Z</time>
      </trkpt>
      <trkpt lat="41.273088" lon="-6.611166">
        <ele>656.262</ele>
        <time>2015-03-30T14:57:44Z</time>
      </trkpt>
      <trkpt lat="41.273126" lon="-6.611162">
        <ele>656.246</ele>
        <time>2015-03-30T14:57:45Z</time>
      </trkpt>
      <trkpt lat="41.273163" lon="-6.611148">
        <ele>655.886</ele>
        <time>2015-03-30T14:57:46Z</time>
      </trkpt>
      <trkpt lat="41.273201" lon="-6.611136">
        <ele>655.339</ele>
        <time>2015-03-30T14:57:47Z</time>
      </trkpt>
      <trkpt lat="41.273239" lon="-6.611124">
        <ele>654.374</ele>
        <time>2015-03-30T14:57:48Z</time>
      </trkpt>
      <trkpt lat="41.273278" lon="-6.611110">
        <ele>654.357</ele>
        <time>2015-03-30T14:57:49Z</time>
      </trkpt>
      <trkpt lat="41.273405" lon="-6.611080">
        <ele>652.900</ele>
        <time>2015-03-30T14:57:52Z</time>
      </trkpt>
      <trkpt lat="41.273594" lon="-6.611040">
        <ele>651.020</ele>
        <time>2015-03-30T14:57:56Z</time>
      </trkpt>
      <trkpt lat="41.273887" lon="-6.610926">
        <ele>649.507</ele>
        <time>2015-03-30T14:58:02Z</time>
      </trkpt>
      <trkpt lat="41.273929" lon="-6.610897">
        <ele>649.534</ele>
        <time>2015-03-30T14:58:03Z</time>
      </trkpt>
      <trkpt lat="41.274052" lon="-6.610797">
        <ele>649.569</ele>
        <time>2015-03-30T14:58:06Z</time>
      </trkpt>
      <trkpt lat="41.274298" lon="-6.610571">
        <ele>649.034</ele>
        <time>2015-03-30T14:58:14Z</time>
      </trkpt>
      <trkpt lat="41.274527" lon="-6.610519">
        <ele>645.758</ele>
        <time>2015-03-30T14:58:21Z</time>
      </trkpt>
      <trkpt lat="41.274564" lon="-6.610507">
        <ele>645.288</ele>
        <time>2015-03-30T14:58:22Z</time>
      </trkpt>
      <trkpt lat="41.274710" lon="-6.610461">
        <ele>643.761</ele>
        <time>2015-03-30T14:58:26Z</time>
      </trkpt>
      <trkpt lat="41.274750" lon="-6.610440">
        <ele>643.786</ele>
        <time>2015-03-30T14:58:27Z</time>
      </trkpt>
      <trkpt lat="41.275050" lon="-6.610265">
        <ele>640.482</ele>
        <time>2015-03-30T14:58:35Z</time>
      </trkpt>
      <trkpt lat="41.275335" lon="-6.610243">
        <ele>637.043</ele>
        <time>2015-03-30T14:58:43Z</time>
      </trkpt>
      <trkpt lat="41.275402" lon="-6.610273">
        <ele>636.517</ele>
        <time>2015-03-30T14:58:45Z</time>
      </trkpt>
      <trkpt lat="41.275457" lon="-6.610282">
        <ele>635.607</ele>
        <time>2015-03-30T14:58:47Z</time>
      </trkpt>
      <trkpt lat="41.275470" lon="-6.610290">
        <ele>635.667</ele>
        <time>2015-03-30T14:58:54Z</time>
      </trkpt>
      <trkpt lat="41.275469" lon="-6.610292">
        <ele>631.232</ele>
        <time>2015-03-30T14:58:58Z</time>
      </trkpt>
      <trkpt lat="41.275470" lon="-6.610292">
        <ele>639.427</ele>
        <time>2015-03-30T14:58:59Z</time>
      </trkpt>
      <trkpt lat="41.275470" lon="-6.610292">
        <ele>635.651</ele>
        <time>2015-03-30T14:59:00Z</time>
      </trkpt>
      <trkpt lat="41.275475" lon="-6.610285">
        <ele>635.131</ele>
        <time>2015-03-30T14:59:15Z</time>
      </trkpt>
      <trkpt lat="41.275495" lon="-6.610282">
        <ele>635.134</ele>
        <time>2015-03-30T14:59:26Z</time>
      </trkpt>
      <trkpt lat="41.275523" lon="-6.610261">
        <ele>635.139</ele>
        <time>2015-03-30T14:59:36Z</time>
      </trkpt>
      <trkpt lat="41.275533" lon="-6.610263">
        <ele>634.663</ele>
        <time>2015-03-30T14:59:50Z</time>
      </trkpt>
      <trkpt lat="41.275543" lon="-6.610266">
        <ele>634.644</ele>
        <time>2015-03-30T15:00:16Z</time>
      </trkpt>
      <trkpt lat="41.275543" lon="-6.610264">
        <ele>635.118</ele>
        <time>2015-03-30T15:00:35Z</time>
      </trkpt>
      <trkpt lat="41.275532" lon="-6.610264">
        <ele>635.107</ele>
        <time>2015-03-30T15:00:57Z</time>
      </trkpt>
      <trkpt lat="41.275531" lon="-6.610268">
        <ele>635.135</ele>
        <time>2015-03-30T15:01:15Z</time>
      </trkpt>
      <trkpt lat="41.275529" lon="-6.610261">
        <ele>635.110</ele>
        <time>2015-03-30T15:01:28Z</time>
      </trkpt>
      <trkpt lat="41.275534" lon="-6.610254">
        <ele>635.175</ele>
        <time>2015-03-30T15:01:41Z</time>
      </trkpt>
      <trkpt lat="41.275534" lon="-6.610257">
        <ele>635.149</ele>
        <time>2015-03-30T15:01:58Z</time>
      </trkpt>
      <trkpt lat="41.275526" lon="-6.610272">
        <ele>635.159</ele>
        <time>2015-03-30T15:02:05Z</time>
      </trkpt>
      <trkpt lat="41.275535" lon="-6.610255">
        <ele>635.122</ele>
        <time>2015-03-30T15:02:11Z</time>
      </trkpt>
      <trkpt lat="41.275544" lon="-6.610229">
        <ele>635.137</ele>
        <time>2015-03-30T15:02:12Z</time>
      </trkpt>
      <trkpt lat="41.275551" lon="-6.610211">
        <ele>635.128</ele>
        <time>2015-03-30T15:02:13Z</time>
      </trkpt>
      <trkpt lat="41.275595" lon="-6.610130">
        <ele>634.689</ele>
        <time>2015-03-30T15:02:18Z</time>
      </trkpt>
      <trkpt lat="41.275603" lon="-6.610114">
        <ele>635.117</ele>
        <time>2015-03-30T15:02:19Z</time>
      </trkpt>
      <trkpt lat="41.275615" lon="-6.610087">
        <ele>635.107</ele>
        <time>2015-03-30T15:02:30Z</time>
      </trkpt>
      <trkpt lat="41.275609" lon="-6.610077">
        <ele>635.661</ele>
        <time>2015-03-30T15:02:46Z</time>
      </trkpt>
      <trkpt lat="41.275664" lon="-6.609962">
        <ele>635.636</ele>
        <time>2015-03-30T15:02:54Z</time>
      </trkpt>
      <trkpt lat="41.275715" lon="-6.609831">
        <ele>635.681</ele>
        <time>2015-03-30T15:03:01Z</time>
      </trkpt>
      <trkpt lat="41.275720" lon="-6.609811">
        <ele>635.625</ele>
        <time>2015-03-30T15:03:02Z</time>
      </trkpt>
      <trkpt lat="41.275726" lon="-6.609793">
        <ele>635.185</ele>
        <time>2015-03-30T15:03:03Z</time>
      </trkpt>
      <trkpt lat="41.275735" lon="-6.609775">
        <ele>635.648</ele>
        <time>2015-03-30T15:03:04Z</time>
      </trkpt>
      <trkpt lat="41.275741" lon="-6.609754">
        <ele>635.663</ele>
        <time>2015-03-30T15:03:05Z</time>
      </trkpt>
      <trkpt lat="41.275780" lon="-6.609664">
        <ele>636.123</ele>
        <time>2015-03-30T15:03:10Z</time>
      </trkpt>
      <trkpt lat="41.275788" lon="-6.609648">
        <ele>636.183</ele>
        <time>2015-03-30T15:03:11Z</time>
      </trkpt>
      <trkpt lat="41.275795" lon="-6.609629">
        <ele>636.111</ele>
        <time>2015-03-30T15:03:12Z</time>
      </trkpt>
      <trkpt lat="41.275825" lon="-6.609570">
        <ele>636.107</ele>
        <time>2015-03-30T15:03:15Z</time>
      </trkpt>
      <trkpt lat="41.275830" lon="-6.609549">
        <ele>636.131</ele>
        <time>2015-03-30T15:03:16Z</time>
      </trkpt>
      <trkpt lat="41.275836" lon="-6.609533">
        <ele>635.666</ele>
        <time>2015-03-30T15:03:17Z</time>
      </trkpt>
      <trkpt lat="41.275843" lon="-6.609518">
        <ele>636.131</ele>
        <time>2015-03-30T15:03:18Z</time>
      </trkpt>
      <trkpt lat="41.275846" lon="-6.609497">
        <ele>636.195</ele>
        <time>2015-03-30T15:03:19Z</time>
      </trkpt>
      <trkpt lat="41.275844" lon="-6.609474">
        <ele>636.195</ele>
        <time>2015-03-30T15:03:20Z</time>
      </trkpt>
      <trkpt lat="41.275846" lon="-6.609453">
        <ele>636.198</ele>
        <time>2015-03-30T15:03:21Z</time>
      </trkpt>
      <trkpt lat="41.275852" lon="-6.609432">
        <ele>636.193</ele>
        <time>2015-03-30T15:03:22Z</time>
      </trkpt>
      <trkpt lat="41.275856" lon="-6.609411">
        <ele>636.149</ele>
        <time>2015-03-30T15:03:23Z</time>
      </trkpt>
      <trkpt lat="41.275864" lon="-6.609391">
        <ele>636.102</ele>
        <time>2015-03-30T15:03:24Z</time>
      </trkpt>
      <trkpt lat="41.275923" lon="-6.609243">
        <ele>636.122</ele>
        <time>2015-03-30T15:03:34Z</time>
      </trkpt>
      <trkpt lat="41.275931" lon="-6.609226">
        <ele>636.107</ele>
        <time>2015-03-30T15:03:35Z</time>
      </trkpt>
      <trkpt lat="41.275962" lon="-6.609144">
        <ele>635.633</ele>
        <time>2015-03-30T15:03:41Z</time>
      </trkpt>
      <trkpt lat="41.275968" lon="-6.609127">
        <ele>635.138</ele>
        <time>2015-03-30T15:03:42Z</time>
      </trkpt>
      <trkpt lat="41.275975" lon="-6.609095">
        <ele>635.643</ele>
        <time>2015-03-30T15:03:49Z</time>
      </trkpt>
      <trkpt lat="41.275987" lon="-6.609084">
        <ele>636.147</ele>
        <time>2015-03-30T15:03:53Z</time>
      </trkpt>
      <trkpt lat="41.276039" lon="-6.609047">
        <ele>636.187</ele>
        <time>2015-03-30T15:03:59Z</time>
      </trkpt>
      <trkpt lat="41.276083" lon="-6.609015">
        <ele>636.590</ele>
        <time>2015-03-30T15:04:09Z</time>
      </trkpt>
      <trkpt lat="41.276121" lon="-6.608970">
        <ele>636.575</ele>
        <time>2015-03-30T15:04:28Z</time>
      </trkpt>
      <trkpt lat="41.276160" lon="-6.608904">
        <ele>636.135</ele>
        <time>2015-03-30T15:04:36Z</time>
      </trkpt>
      <trkpt lat="41.276165" lon="-6.608904">
        <ele>636.186</ele>
        <time>2015-03-30T15:04:57Z</time>
      </trkpt>
      <trkpt lat="41.276227" lon="-6.608839">
        <ele>635.114</ele>
        <time>2015-03-30T15:05:02Z</time>
      </trkpt>
      <trkpt lat="41.276244" lon="-6.608822">
        <ele>635.607</ele>
        <time>2015-03-30T15:05:04Z</time>
      </trkpt>
      <trkpt lat="41.276251" lon="-6.608812">
        <ele>635.692</ele>
        <time>2015-03-30T15:05:05Z</time>
      </trkpt>
      <trkpt lat="41.276258" lon="-6.608802">
        <ele>635.667</ele>
        <time>2015-03-30T15:05:06Z</time>
      </trkpt>
      <trkpt lat="41.276268" lon="-6.608790">
        <ele>635.142</ele>
        <time>2015-03-30T15:05:07Z</time>
      </trkpt>
      <trkpt lat="41.276276" lon="-6.608779">
        <ele>635.626</ele>
        <time>2015-03-30T15:05:08Z</time>
      </trkpt>
      <trkpt lat="41.276285" lon="-6.608766">
        <ele>636.116</ele>
        <time>2015-03-30T15:05:09Z</time>
      </trkpt>
      <trkpt lat="41.276389" lon="-6.608658">
        <ele>635.679</ele>
        <time>2015-03-30T15:05:21Z</time>
      </trkpt>
      <trkpt lat="41.276444" lon="-6.608602">
        <ele>635.634</ele>
        <time>2015-03-30T15:05:26Z</time>
      </trkpt>
      <trkpt lat="41.276453" lon="-6.608589">
        <ele>635.678</ele>
        <time>2015-03-30T15:05:27Z</time>
      </trkpt>
      <trkpt lat="41.276462" lon="-6.608574">
        <ele>635.633</ele>
        <time>2015-03-30T15:05:28Z</time>
      </trkpt>
      <trkpt lat="41.276480" lon="-6.608558">
        <ele>635.626</ele>
        <time>2015-03-30T15:05:30Z</time>
      </trkpt>
      <trkpt lat="41.276522" lon="-6.608493">
        <ele>636.107</ele>
        <time>2015-03-30T15:05:38Z</time>
      </trkpt>
      <trkpt lat="41.276529" lon="-6.608478">
        <ele>636.546</ele>
        <time>2015-03-30T15:05:39Z</time>
      </trkpt>
      <trkpt lat="41.276537" lon="-6.608460">
        <ele>636.191</ele>
        <time>2015-03-30T15:05:40Z</time>
      </trkpt>
      <trkpt lat="41.276548" lon="-6.608442">
        <ele>636.526</ele>
        <time>2015-03-30T15:05:41Z</time>
      </trkpt>
      <trkpt lat="41.276557" lon="-6.608423">
        <ele>636.510</ele>
        <time>2015-03-30T15:05:42Z</time>
      </trkpt>
      <trkpt lat="41.276566" lon="-6.608408">
        <ele>636.560</ele>
        <time>2015-03-30T15:05:43Z</time>
      </trkpt>
      <trkpt lat="41.276578" lon="-6.608393">
        <ele>636.553</ele>
        <time>2015-03-30T15:05:44Z</time>
      </trkpt>
      <trkpt lat="41.276591" lon="-6.608373">
        <ele>637.058</ele>
        <time>2015-03-30T15:05:45Z</time>
      </trkpt>
      <trkpt lat="41.276601" lon="-6.608352">
        <ele>637.024</ele>
        <time>2015-03-30T15:05:46Z</time>
      </trkpt>
      <trkpt lat="41.276608" lon="-6.608329">
        <ele>637.004</ele>
        <time>2015-03-30T15:05:47Z</time>
      </trkpt>
      <trkpt lat="41.276611" lon="-6.608309">
        <ele>637.014</ele>
        <time>2015-03-30T15:05:48Z</time>
      </trkpt>
      <trkpt lat="41.276616" lon="-6.608289">
        <ele>637.507</ele>
        <time>2015-03-30T15:05:49Z</time>
      </trkpt>
      <trkpt lat="41.276622" lon="-6.608271">
        <ele>637.541</ele>
        <time>2015-03-30T15:05:50Z</time>
      </trkpt>
      <trkpt lat="41.276628" lon="-6.608250">
        <ele>639.436</ele>
        <time>2015-03-30T15:05:51Z</time>
      </trkpt>
      <trkpt lat="41.276630" lon="-6.608229">
        <ele>637.511</ele>
        <time>2015-03-30T15:05:52Z</time>
      </trkpt>
      <trkpt lat="41.276634" lon="-6.608210">
        <ele>638.065</ele>
        <time>2015-03-30T15:05:53Z</time>
      </trkpt>
      <trkpt lat="41.276636" lon="-6.608192">
        <ele>636.155</ele>
        <time>2015-03-30T15:05:54Z</time>
      </trkpt>
      <trkpt lat="41.276637" lon="-6.608175">
        <ele>638.538</ele>
        <time>2015-03-30T15:05:55Z</time>
      </trkpt>
      <trkpt lat="41.276649" lon="-6.608123">
        <ele>635.643</ele>
        <time>2015-03-30T15:05:58Z</time>
      </trkpt>
      <trkpt lat="41.276653" lon="-6.608106">
        <ele>640.934</ele>
        <time>2015-03-30T15:05:59Z</time>
      </trkpt>
      <trkpt lat="41.276664" lon="-6.608041">
        <ele>637.055</ele>
        <time>2015-03-30T15:06:09Z</time>
      </trkpt>
      <trkpt lat="41.276673" lon="-6.608030">
        <ele>638.010</ele>
        <time>2015-03-30T15:06:14Z</time>
      </trkpt>
      <trkpt lat="41.276726" lon="-6.607964">
        <ele>638.507</ele>
        <time>2015-03-30T15:06:20Z</time>
      </trkpt>
      <trkpt lat="41.276825" lon="-6.607795">
        <ele>638.042</ele>
        <time>2015-03-30T15:06:30Z</time>
      </trkpt>
      <trkpt lat="41.276902" lon="-6.607623">
        <ele>638.967</ele>
        <time>2015-03-30T15:06:41Z</time>
      </trkpt>
      <trkpt lat="41.276983" lon="-6.607464">
        <ele>640.452</ele>
        <time>2015-03-30T15:06:52Z</time>
      </trkpt>
      <trkpt lat="41.277000" lon="-6.607434">
        <ele>640.416</ele>
        <time>2015-03-30T15:06:54Z</time>
      </trkpt>
      <trkpt lat="41.277010" lon="-6.607422">
        <ele>640.956</ele>
        <time>2015-03-30T15:06:55Z</time>
      </trkpt>
      <trkpt lat="41.277023" lon="-6.607394">
        <ele>640.929</ele>
        <time>2015-03-30T15:06:57Z</time>
      </trkpt>
      <trkpt lat="41.277030" lon="-6.607378">
        <ele>640.984</ele>
        <time>2015-03-30T15:06:58Z</time>
      </trkpt>
      <trkpt lat="41.277037" lon="-6.607367">
        <ele>641.373</ele>
        <time>2015-03-30T15:06:59Z</time>
      </trkpt>
      <trkpt lat="41.277048" lon="-6.607356">
        <ele>641.385</ele>
        <time>2015-03-30T15:07:00Z</time>
      </trkpt>
      <trkpt lat="41.277059" lon="-6.607343">
        <ele>641.313</ele>
        <time>2015-03-30T15:07:01Z</time>
      </trkpt>
      <trkpt lat="41.277071" lon="-6.607328">
        <ele>641.307</ele>
        <time>2015-03-30T15:07:02Z</time>
      </trkpt>
      <trkpt lat="41.277080" lon="-6.607317">
        <ele>636.526</ele>
        <time>2015-03-30T15:07:03Z</time>
      </trkpt>
      <trkpt lat="41.277089" lon="-6.607308">
        <ele>644.791</ele>
        <time>2015-03-30T15:07:04Z</time>
      </trkpt>
      <trkpt lat="41.277098" lon="-6.607301">
        <ele>641.326</ele>
        <time>2015-03-30T15:07:05Z</time>
      </trkpt>
      <trkpt lat="41.277108" lon="-6.607289">
        <ele>641.370</ele>
        <time>2015-03-30T15:07:06Z</time>
      </trkpt>
      <trkpt lat="41.277193" lon="-6.607167">
        <ele>642.880</ele>
        <time>2015-03-30T15:07:15Z</time>
      </trkpt>
      <trkpt lat="41.277203" lon="-6.607158">
        <ele>642.823</ele>
        <time>2015-03-30T15:07:16Z</time>
      </trkpt>
      <trkpt lat="41.277213" lon="-6.607149">
        <ele>642.838</ele>
        <time>2015-03-30T15:07:17Z</time>
      </trkpt>
      <trkpt lat="41.277224" lon="-6.607138">
        <ele>642.889</ele>
        <time>2015-03-30T15:07:18Z</time>
      </trkpt>
      <trkpt lat="41.277234" lon="-6.607128">
        <ele>642.806</ele>
        <time>2015-03-30T15:07:19Z</time>
      </trkpt>
      <trkpt lat="41.277244" lon="-6.607118">
        <ele>643.326</ele>
        <time>2015-03-30T15:07:20Z</time>
      </trkpt>
      <trkpt lat="41.277255" lon="-6.607102">
        <ele>643.707</ele>
        <time>2015-03-30T15:07:21Z</time>
      </trkpt>
      <trkpt lat="41.277267" lon="-6.607090">
        <ele>643.717</ele>
        <time>2015-03-30T15:07:22Z</time>
      </trkpt>
      <trkpt lat="41.277278" lon="-6.607080">
        <ele>643.722</ele>
        <time>2015-03-30T15:07:23Z</time>
      </trkpt>
      <trkpt lat="41.277290" lon="-6.607070">
        <ele>643.747</ele>
        <time>2015-03-30T15:07:24Z</time>
      </trkpt>
      <trkpt lat="41.277303" lon="-6.607061">
        <ele>643.731</ele>
        <time>2015-03-30T15:07:25Z</time>
      </trkpt>
      <trkpt lat="41.277315" lon="-6.607048">
        <ele>643.781</ele>
        <time>2015-03-30T15:07:26Z</time>
      </trkpt>
      <trkpt lat="41.277326" lon="-6.607033">
        <ele>644.214</ele>
        <time>2015-03-30T15:07:27Z</time>
      </trkpt>
      <trkpt lat="41.277335" lon="-6.607018">
        <ele>644.279</ele>
        <time>2015-03-30T15:07:28Z</time>
      </trkpt>
      <trkpt lat="41.277345" lon="-6.607004">
        <ele>644.272</ele>
        <time>2015-03-30T15:07:29Z</time>
      </trkpt>
      <trkpt lat="41.277355" lon="-6.606993">
        <ele>644.713</ele>
        <time>2015-03-30T15:07:30Z</time>
      </trkpt>
      <trkpt lat="41.277366" lon="-6.606983">
        <ele>644.714</ele>
        <time>2015-03-30T15:07:31Z</time>
      </trkpt>
      <trkpt lat="41.277376" lon="-6.606977">
        <ele>644.707</ele>
        <time>2015-03-30T15:07:32Z</time>
      </trkpt>
      <trkpt lat="41.277387" lon="-6.606968">
        <ele>644.726</ele>
        <time>2015-03-30T15:07:33Z</time>
      </trkpt>
      <trkpt lat="41.277396" lon="-6.606957">
        <ele>644.761</ele>
        <time>2015-03-30T15:07:34Z</time>
      </trkpt>
      <trkpt lat="41.277467" lon="-6.606875">
        <ele>645.796</ele>
        <time>2015-03-30T15:07:42Z</time>
      </trkpt>
      <trkpt lat="41.277585" lon="-6.606686">
        <ele>647.150</ele>
        <time>2015-03-30T15:07:55Z</time>
      </trkpt>
      <trkpt lat="41.277594" lon="-6.606670">
        <ele>647.110</ele>
        <time>2015-03-30T15:07:56Z</time>
      </trkpt>
      <trkpt lat="41.277600" lon="-6.606655">
        <ele>647.633</ele>
        <time>2015-03-30T15:07:57Z</time>
      </trkpt>
      <trkpt lat="41.277606" lon="-6.606642">
        <ele>647.628</ele>
        <time>2015-03-30T15:07:58Z</time>
      </trkpt>
      <trkpt lat="41.277612" lon="-6.606626">
        <ele>647.621</ele>
        <time>2015-03-30T15:07:59Z</time>
      </trkpt>
      <trkpt lat="41.277621" lon="-6.606614">
        <ele>647.641</ele>
        <time>2015-03-30T15:08:00Z</time>
      </trkpt>
      <trkpt lat="41.277625" lon="-6.606600">
        <ele>648.105</ele>
        <time>2015-03-30T15:08:01Z</time>
      </trkpt>
      <trkpt lat="41.277628" lon="-6.606582">
        <ele>648.107</ele>
        <time>2015-03-30T15:08:02Z</time>
      </trkpt>
      <trkpt lat="41.277630" lon="-6.606565">
        <ele>648.181</ele>
        <time>2015-03-30T15:08:03Z</time>
      </trkpt>
      <trkpt lat="41.277634" lon="-6.606546">
        <ele>648.156</ele>
        <time>2015-03-30T15:08:04Z</time>
      </trkpt>
      <trkpt lat="41.277641" lon="-6.606526">
        <ele>648.181</ele>
        <time>2015-03-30T15:08:05Z</time>
      </trkpt>
      <trkpt lat="41.277652" lon="-6.606510">
        <ele>648.145</ele>
        <time>2015-03-30T15:08:06Z</time>
      </trkpt>
      <trkpt lat="41.277660" lon="-6.606495">
        <ele>648.675</ele>
        <time>2015-03-30T15:08:07Z</time>
      </trkpt>
      <trkpt lat="41.277665" lon="-6.606481">
        <ele>648.678</ele>
        <time>2015-03-30T15:08:08Z</time>
      </trkpt>
      <trkpt lat="41.277672" lon="-6.606467">
        <ele>648.653</ele>
        <time>2015-03-30T15:08:09Z</time>
      </trkpt>
      <trkpt lat="41.277678" lon="-6.606451">
        <ele>649.076</ele>
        <time>2015-03-30T15:08:10Z</time>
      </trkpt>
      <trkpt lat="41.277682" lon="-6.606437">
        <ele>648.690</ele>
        <time>2015-03-30T15:08:11Z</time>
      </trkpt>
      <trkpt lat="41.277715" lon="-6.606312">
        <ele>650.019</ele>
        <time>2015-03-30T15:08:19Z</time>
      </trkpt>
      <trkpt lat="41.277720" lon="-6.606152">
        <ele>651.407</ele>
        <time>2015-03-30T15:08:28Z</time>
      </trkpt>
      <trkpt lat="41.277736" lon="-6.606010">
        <ele>652.996</ele>
        <time>2015-03-30T15:08:36Z</time>
      </trkpt>
      <trkpt lat="41.277743" lon="-6.605993">
        <ele>652.931</ele>
        <time>2015-03-30T15:08:37Z</time>
      </trkpt>
      <trkpt lat="41.277750" lon="-6.605974">
        <ele>653.446</ele>
        <time>2015-03-30T15:08:38Z</time>
      </trkpt>
      <trkpt lat="41.277755" lon="-6.605957">
        <ele>653.810</ele>
        <time>2015-03-30T15:08:39Z</time>
      </trkpt>
      <trkpt lat="41.277762" lon="-6.605935">
        <ele>654.330</ele>
        <time>2015-03-30T15:08:40Z</time>
      </trkpt>
      <trkpt lat="41.277770" lon="-6.605919">
        <ele>654.393</ele>
        <time>2015-03-30T15:08:41Z</time>
      </trkpt>
      <trkpt lat="41.277777" lon="-6.605904">
        <ele>654.328</ele>
        <time>2015-03-30T15:08:42Z</time>
      </trkpt>
      <trkpt lat="41.277784" lon="-6.605889">
        <ele>654.834</ele>
        <time>2015-03-30T15:08:43Z</time>
      </trkpt>
      <trkpt lat="41.277790" lon="-6.605875">
        <ele>654.855</ele>
        <time>2015-03-30T15:08:44Z</time>
      </trkpt>
      <trkpt lat="41.277795" lon="-6.605864">
        <ele>655.310</ele>
        <time>2015-03-30T15:08:45Z</time>
      </trkpt>
      <trkpt lat="41.277801" lon="-6.605852">
        <ele>655.307</ele>
        <time>2015-03-30T15:08:46Z</time>
      </trkpt>
      <trkpt lat="41.277842" lon="-6.605760">
        <ele>655.862</ele>
        <time>2015-03-30T15:08:55Z</time>
      </trkpt>
      <trkpt lat="41.277848" lon="-6.605747">
        <ele>655.897</ele>
        <time>2015-03-30T15:08:56Z</time>
      </trkpt>
      <trkpt lat="41.277848" lon="-6.605732">
        <ele>656.252</ele>
        <time>2015-03-30T15:08:57Z</time>
      </trkpt>
      <trkpt lat="41.277851" lon="-6.605719">
        <ele>656.276</ele>
        <time>2015-03-30T15:08:58Z</time>
      </trkpt>
      <trkpt lat="41.277914" lon="-6.605570">
        <ele>657.226</ele>
        <time>2015-03-30T15:09:09Z</time>
      </trkpt>
      <trkpt lat="41.277957" lon="-6.605418">
        <ele>657.749</ele>
        <time>2015-03-30T15:09:19Z</time>
      </trkpt>
      <trkpt lat="41.277961" lon="-6.605404">
        <ele>657.294</ele>
        <time>2015-03-30T15:09:20Z</time>
      </trkpt>
      <trkpt lat="41.277967" lon="-6.605383">
        <ele>657.746</ele>
        <time>2015-03-30T15:09:21Z</time>
      </trkpt>
      <trkpt lat="41.277972" lon="-6.605362">
        <ele>657.788</ele>
        <time>2015-03-30T15:09:22Z</time>
      </trkpt>
      <trkpt lat="41.278045" lon="-6.605106">
        <ele>658.616</ele>
        <time>2015-03-30T15:09:34Z</time>
      </trkpt>
      <trkpt lat="41.278050" lon="-6.605081">
        <ele>658.607</ele>
        <time>2015-03-30T15:09:35Z</time>
      </trkpt>
      <trkpt lat="41.278054" lon="-6.605055">
        <ele>658.673</ele>
        <time>2015-03-30T15:09:36Z</time>
      </trkpt>
      <trkpt lat="41.278061" lon="-6.605028">
        <ele>658.688</ele>
        <time>2015-03-30T15:09:37Z</time>
      </trkpt>
      <trkpt lat="41.278069" lon="-6.605001">
        <ele>658.683</ele>
        <time>2015-03-30T15:09:38Z</time>
      </trkpt>
      <trkpt lat="41.278077" lon="-6.604973">
        <ele>658.617</ele>
        <time>2015-03-30T15:09:39Z</time>
      </trkpt>
      <trkpt lat="41.278088" lon="-6.604947">
        <ele>658.627</ele>
        <time>2015-03-30T15:09:40Z</time>
      </trkpt>
      <trkpt lat="41.278097" lon="-6.604917">
        <ele>658.630</ele>
        <time>2015-03-30T15:09:41Z</time>
      </trkpt>
      <trkpt lat="41.278105" lon="-6.604888">
        <ele>658.645</ele>
        <time>2015-03-30T15:09:42Z</time>
      </trkpt>
      <trkpt lat="41.278173" lon="-6.604532">
        <ele>658.294</ele>
        <time>2015-03-30T15:09:54Z</time>
      </trkpt>
      <trkpt lat="41.278209" lon="-6.604248">
        <ele>657.757</ele>
        <time>2015-03-30T15:10:03Z</time>
      </trkpt>
      <trkpt lat="41.278257" lon="-6.603901">
        <ele>657.722</ele>
        <time>2015-03-30T15:10:13Z</time>
      </trkpt>
      <trkpt lat="41.278314" lon="-6.603557">
        <ele>658.207</ele>
        <time>2015-03-30T15:10:23Z</time>
      </trkpt>
      <trkpt lat="41.278340" lon="-6.603245">
        <ele>658.648</ele>
        <time>2015-03-30T15:10:32Z</time>
      </trkpt>
      <trkpt lat="41.278390" lon="-6.602873">
        <ele>658.673</ele>
        <time>2015-03-30T15:10:43Z</time>
      </trkpt>
      <trkpt lat="41.278430" lon="-6.602554">
        <ele>659.168</ele>
        <time>2015-03-30T15:10:52Z</time>
      </trkpt>
      <trkpt lat="41.278487" lon="-6.602257">
        <ele>659.142</ele>
        <time>2015-03-30T15:11:03Z</time>
      </trkpt>
      <trkpt lat="41.278529" lon="-6.601996">
        <ele>659.112</ele>
        <time>2015-03-30T15:11:12Z</time>
      </trkpt>
      <trkpt lat="41.278575" lon="-6.601659">
        <ele>659.635</ele>
        <time>2015-03-30T15:11:23Z</time>
      </trkpt>
      <trkpt lat="41.278612" lon="-6.601335">
        <ele>660.190</ele>
        <time>2015-03-30T15:11:34Z</time>
      </trkpt>
      <trkpt lat="41.278608" lon="-6.600988">
        <ele>661.014</ele>
        <time>2015-03-30T15:11:45Z</time>
      </trkpt>
      <trkpt lat="41.278568" lon="-6.600572">
        <ele>662.554</ele>
        <time>2015-03-30T15:11:58Z</time>
      </trkpt>
      <trkpt lat="41.278439" lon="-6.600198">
        <ele>663.509</ele>
        <time>2015-03-30T15:12:11Z</time>
      </trkpt>
      <trkpt lat="41.278250" lon="-6.599893">
        <ele>663.507</ele>
        <time>2015-03-30T15:12:23Z</time>
      </trkpt>
      <trkpt lat="41.278086" lon="-6.599677">
        <ele>663.550</ele>
        <time>2015-03-30T15:12:34Z</time>
      </trkpt>
      <trkpt lat="41.277916" lon="-6.599459">
        <ele>663.595</ele>
        <time>2015-03-30T15:12:44Z</time>
      </trkpt>
      <trkpt lat="41.277717" lon="-6.599216">
        <ele>663.060</ele>
        <time>2015-03-30T15:12:54Z</time>
      </trkpt>
      <trkpt lat="41.277586" lon="-6.598939">
        <ele>662.064</ele>
        <time>2015-03-30T15:13:03Z</time>
      </trkpt>
      <trkpt lat="41.277491" lon="-6.598646">
        <ele>662.094</ele>
        <time>2015-03-30T15:13:15Z</time>
      </trkpt>
      <trkpt lat="41.277517" lon="-6.598470">
        <ele>661.567</ele>
        <time>2015-03-30T15:13:24Z</time>
      </trkpt>
      <trkpt lat="41.277524" lon="-6.598450">
        <ele>661.592</ele>
        <time>2015-03-30T15:13:25Z</time>
      </trkpt>
      <trkpt lat="41.277580" lon="-6.598253">
        <ele>661.598</ele>
        <time>2015-03-30T15:13:34Z</time>
      </trkpt>
      <trkpt lat="41.277583" lon="-6.598227">
        <ele>661.515</ele>
        <time>2015-03-30T15:13:35Z</time>
      </trkpt>
      <trkpt lat="41.277588" lon="-6.598201">
        <ele>661.526</ele>
        <time>2015-03-30T15:13:36Z</time>
      </trkpt>
      <trkpt lat="41.277589" lon="-6.598174">
        <ele>661.507</ele>
        <time>2015-03-30T15:13:37Z</time>
      </trkpt>
      <trkpt lat="41.277590" lon="-6.598150">
        <ele>661.548</ele>
        <time>2015-03-30T15:13:38Z</time>
      </trkpt>
      <trkpt lat="41.277588" lon="-6.598126">
        <ele>661.553</ele>
        <time>2015-03-30T15:13:39Z</time>
      </trkpt>
      <trkpt lat="41.277588" lon="-6.598103">
        <ele>661.528</ele>
        <time>2015-03-30T15:13:40Z</time>
      </trkpt>
      <trkpt lat="41.277590" lon="-6.598082">
        <ele>661.512</ele>
        <time>2015-03-30T15:13:41Z</time>
      </trkpt>
      <trkpt lat="41.277623" lon="-6.597832">
        <ele>662.022</ele>
        <time>2015-03-30T15:13:51Z</time>
      </trkpt>
      <trkpt lat="41.277632" lon="-6.597792">
        <ele>662.575</ele>
        <time>2015-03-30T15:13:53Z</time>
      </trkpt>
      <trkpt lat="41.277640" lon="-6.597775">
        <ele>662.080</ele>
        <time>2015-03-30T15:13:54Z</time>
      </trkpt>
      <trkpt lat="41.277648" lon="-6.597763">
        <ele>662.056</ele>
        <time>2015-03-30T15:13:55Z</time>
      </trkpt>
      <trkpt lat="41.277734" lon="-6.597628">
        <ele>662.059</ele>
        <time>2015-03-30T15:14:05Z</time>
      </trkpt>
      <trkpt lat="41.277803" lon="-6.597492">
        <ele>662.014</ele>
        <time>2015-03-30T15:14:14Z</time>
      </trkpt>
      <trkpt lat="41.277900" lon="-6.597326">
        <ele>662.007</ele>
        <time>2015-03-30T15:14:23Z</time>
      </trkpt>
      <trkpt lat="41.277915" lon="-6.597307">
        <ele>662.034</ele>
        <time>2015-03-30T15:14:24Z</time>
      </trkpt>
      <trkpt lat="41.277927" lon="-6.597288">
        <ele>662.099</ele>
        <time>2015-03-30T15:14:25Z</time>
      </trkpt>
      <trkpt lat="41.277940" lon="-6.597267">
        <ele>662.014</ele>
        <time>2015-03-30T15:14:26Z</time>
      </trkpt>
      <trkpt lat="41.277954" lon="-6.597246">
        <ele>662.518</ele>
        <time>2015-03-30T15:14:27Z</time>
      </trkpt>
      <trkpt lat="41.277966" lon="-6.597224">
        <ele>662.528</ele>
        <time>2015-03-30T15:14:28Z</time>
      </trkpt>
      <trkpt lat="41.278031" lon="-6.597096">
        <ele>663.051</ele>
        <time>2015-03-30T15:14:34Z</time>
      </trkpt>
      <trkpt lat="41.278040" lon="-6.597070">
        <ele>663.076</ele>
        <time>2015-03-30T15:14:35Z</time>
      </trkpt>
      <trkpt lat="41.278046" lon="-6.597042">
        <ele>663.078</ele>
        <time>2015-03-30T15:14:36Z</time>
      </trkpt>
      <trkpt lat="41.278052" lon="-6.597015">
        <ele>662.533</ele>
        <time>2015-03-30T15:14:37Z</time>
      </trkpt>
      <trkpt lat="41.278058" lon="-6.596991">
        <ele>663.526</ele>
        <time>2015-03-30T15:14:38Z</time>
      </trkpt>
      <trkpt lat="41.278064" lon="-6.596969">
        <ele>663.507</ele>
        <time>2015-03-30T15:14:39Z</time>
      </trkpt>
      <trkpt lat="41.278068" lon="-6.596946">
        <ele>663.036</ele>
        <time>2015-03-30T15:14:40Z</time>
      </trkpt>
      <trkpt lat="41.278069" lon="-6.596925">
        <ele>663.511</ele>
        <time>2015-03-30T15:14:41Z</time>
      </trkpt>
      <trkpt lat="41.278071" lon="-6.596902">
        <ele>663.546</ele>
        <time>2015-03-30T15:14:42Z</time>
      </trkpt>
      <trkpt lat="41.278073" lon="-6.596877">
        <ele>663.520</ele>
        <time>2015-03-30T15:14:43Z</time>
      </trkpt>
      <trkpt lat="41.278090" lon="-6.596816">
        <ele>663.930</ele>
        <time>2015-03-30T15:14:46Z</time>
      </trkpt>
      <trkpt lat="41.278175" lon="-6.596569">
        <ele>664.993</ele>
        <time>2015-03-30T15:14:57Z</time>
      </trkpt>
      <trkpt lat="41.278327" lon="-6.596263">
        <ele>665.928</ele>
        <time>2015-03-30T15:15:10Z</time>
      </trkpt>
      <trkpt lat="41.278468" lon="-6.596026">
        <ele>665.918</ele>
        <time>2015-03-30T15:15:20Z</time>
      </trkpt>
      <trkpt lat="41.278667" lon="-6.595747">
        <ele>665.998</ele>
        <time>2015-03-30T15:15:31Z</time>
      </trkpt>
      <trkpt lat="41.278815" lon="-6.595485">
        <ele>666.317</ele>
        <time>2015-03-30T15:15:40Z</time>
      </trkpt>
      <trkpt lat="41.279016" lon="-6.595156">
        <ele>667.807</ele>
        <time>2015-03-30T15:15:52Z</time>
      </trkpt>
      <trkpt lat="41.279228" lon="-6.594916">
        <ele>668.780</ele>
        <time>2015-03-30T15:16:03Z</time>
      </trkpt>
      <trkpt lat="41.279491" lon="-6.594650">
        <ele>669.775</ele>
        <time>2015-03-30T15:16:16Z</time>
      </trkpt>
      <trkpt lat="41.279697" lon="-6.594442">
        <ele>670.290</ele>
        <time>2015-03-30T15:16:27Z</time>
      </trkpt>
      <trkpt lat="41.279898" lon="-6.594304">
        <ele>671.624</ele>
        <time>2015-03-30T15:16:37Z</time>
      </trkpt>
      <trkpt lat="41.280081" lon="-6.594164">
        <ele>672.124</ele>
        <time>2015-03-30T15:16:47Z</time>
      </trkpt>
      <trkpt lat="41.280228" lon="-6.594003">
        <ele>672.657</ele>
        <time>2015-03-30T15:16:56Z</time>
      </trkpt>
      <trkpt lat="41.280380" lon="-6.593728">
        <ele>673.592</ele>
        <time>2015-03-30T15:17:07Z</time>
      </trkpt>
      <trkpt lat="41.280473" lon="-6.593443">
        <ele>674.524</ele>
        <time>2015-03-30T15:17:17Z</time>
      </trkpt>
      <trkpt lat="41.280505" lon="-6.593128">
        <ele>675.504</ele>
        <time>2015-03-30T15:17:27Z</time>
      </trkpt>
      <trkpt lat="41.280464" lon="-6.592703">
        <ele>675.914</ele>
        <time>2015-03-30T15:17:39Z</time>
      </trkpt>
      <trkpt lat="41.280410" lon="-6.592479">
        <ele>676.407</ele>
        <time>2015-03-30T15:17:47Z</time>
      </trkpt>
      <trkpt lat="41.280295" lon="-6.592089">
        <ele>677.941</ele>
        <time>2015-03-30T15:18:00Z</time>
      </trkpt>
      <trkpt lat="41.280216" lon="-6.591841">
        <ele>678.456</ele>
        <time>2015-03-30T15:18:08Z</time>
      </trkpt>
      <trkpt lat="41.280137" lon="-6.591578">
        <ele>679.881</ele>
        <time>2015-03-30T15:18:18Z</time>
      </trkpt>
      <trkpt lat="41.280134" lon="-6.591553">
        <ele>680.345</ele>
        <time>2015-03-30T15:18:19Z</time>
      </trkpt>
      <trkpt lat="41.280133" lon="-6.591527">
        <ele>680.325</ele>
        <time>2015-03-30T15:18:20Z</time>
      </trkpt>
      <trkpt lat="41.280131" lon="-6.591499">
        <ele>680.328</ele>
        <time>2015-03-30T15:18:21Z</time>
      </trkpt>
      <trkpt lat="41.280125" lon="-6.591472">
        <ele>680.323</ele>
        <time>2015-03-30T15:18:22Z</time>
      </trkpt>
      <trkpt lat="41.280121" lon="-6.591446">
        <ele>680.844</ele>
        <time>2015-03-30T15:18:23Z</time>
      </trkpt>
      <trkpt lat="41.280122" lon="-6.591418">
        <ele>680.805</ele>
        <time>2015-03-30T15:18:24Z</time>
      </trkpt>
      <trkpt lat="41.280077" lon="-6.591139">
        <ele>681.215</ele>
        <time>2015-03-30T15:18:34Z</time>
      </trkpt>
      <trkpt lat="41.280039" lon="-6.590823">
        <ele>681.707</ele>
        <time>2015-03-30T15:18:45Z</time>
      </trkpt>
      <trkpt lat="41.279990" lon="-6.590562">
        <ele>682.733</ele>
        <time>2015-03-30T15:18:54Z</time>
      </trkpt>
      <trkpt lat="41.279988" lon="-6.590330">
        <ele>684.698</ele>
        <time>2015-03-30T15:19:05Z</time>
      </trkpt>
      <trkpt lat="41.280031" lon="-6.590154">
        <ele>686.013</ele>
        <time>2015-03-30T15:19:13Z</time>
      </trkpt>
      <trkpt lat="41.280065" lon="-6.590086">
        <ele>686.557</ele>
        <time>2015-03-30T15:19:16Z</time>
      </trkpt>
      <trkpt lat="41.280075" lon="-6.590069">
        <ele>687.067</ele>
        <time>2015-03-30T15:19:17Z</time>
      </trkpt>
      <trkpt lat="41.280101" lon="-6.590028">
        <ele>687.030</ele>
        <time>2015-03-30T15:19:19Z</time>
      </trkpt>
      <trkpt lat="41.280119" lon="-6.590010">
        <ele>686.545</ele>
        <time>2015-03-30T15:19:20Z</time>
      </trkpt>
      <trkpt lat="41.280136" lon="-6.589993">
        <ele>687.016</ele>
        <time>2015-03-30T15:19:21Z</time>
      </trkpt>
      <trkpt lat="41.280297" lon="-6.589783">
        <ele>688.476</ele>
        <time>2015-03-30T15:19:32Z</time>
      </trkpt>
      <trkpt lat="41.280287" lon="-6.589543">
        <ele>689.913</ele>
        <time>2015-03-30T15:19:42Z</time>
      </trkpt>
      <trkpt lat="41.280214" lon="-6.589233">
        <ele>690.807</ele>
        <time>2015-03-30T15:19:54Z</time>
      </trkpt>
      <trkpt lat="41.280153" lon="-6.588972">
        <ele>691.370</ele>
        <time>2015-03-30T15:20:04Z</time>
      </trkpt>
      <trkpt lat="41.280136" lon="-6.588636">
        <ele>691.835</ele>
        <time>2015-03-30T15:20:16Z</time>
      </trkpt>
      <trkpt lat="41.280111" lon="-6.588360">
        <ele>692.320</ele>
        <time>2015-03-30T15:20:25Z</time>
      </trkpt>
      <trkpt lat="41.280137" lon="-6.588025">
        <ele>693.744</ele>
        <time>2015-03-30T15:20:36Z</time>
      </trkpt>
      <trkpt lat="41.280133" lon="-6.587761">
        <ele>694.294</ele>
        <time>2015-03-30T15:20:45Z</time>
      </trkpt>
      <trkpt lat="41.280129" lon="-6.587728">
        <ele>694.237</ele>
        <time>2015-03-30T15:20:46Z</time>
      </trkpt>
      <trkpt lat="41.280033" lon="-6.587342">
        <ele>693.322</ele>
        <time>2015-03-30T15:20:57Z</time>
      </trkpt>
      <trkpt lat="41.280008" lon="-6.587119">
        <ele>688.093</ele>
        <time>2015-03-30T15:21:04Z</time>
      </trkpt>
      <trkpt lat="41.280003" lon="-6.587087">
        <ele>697.165</ele>
        <time>2015-03-30T15:21:05Z</time>
      </trkpt>
      <trkpt lat="41.280000" lon="-6.587052">
        <ele>696.121</ele>
        <time>2015-03-30T15:21:06Z</time>
      </trkpt>
      <trkpt lat="41.279986" lon="-6.586982">
        <ele>694.207</ele>
        <time>2015-03-30T15:21:08Z</time>
      </trkpt>
      <trkpt lat="41.279954" lon="-6.586753">
        <ele>695.298</ele>
        <time>2015-03-30T15:21:15Z</time>
      </trkpt>
      <trkpt lat="41.279917" lon="-6.586430">
        <ele>696.683</ele>
        <time>2015-03-30T15:21:25Z</time>
      </trkpt>
      <trkpt lat="41.279858" lon="-6.586194">
        <ele>698.148</ele>
        <time>2015-03-30T15:21:33Z</time>
      </trkpt>
      <trkpt lat="41.279861" lon="-6.586110">
        <ele>698.562</ele>
        <time>2015-03-30T15:21:36Z</time>
      </trkpt>
      <trkpt lat="41.279875" lon="-6.585865">
        <ele>699.072</ele>
        <time>2015-03-30T15:21:46Z</time>
      </trkpt>
      <trkpt lat="41.279983" lon="-6.585779">
        <ele>700.055</ele>
        <time>2015-03-30T15:21:55Z</time>
      </trkpt>
      <trkpt lat="41.280005" lon="-6.585755">
        <ele>700.040</ele>
        <time>2015-03-30T15:21:57Z</time>
      </trkpt>
      <trkpt lat="41.280060" lon="-6.585703">
        <ele>700.951</ele>
        <time>2015-03-30T15:22:04Z</time>
      </trkpt>
      <trkpt lat="41.280080" lon="-6.585675">
        <ele>701.401</ele>
        <time>2015-03-30T15:22:06Z</time>
      </trkpt>
      <trkpt lat="41.280125" lon="-6.585662">
        <ele>701.411</ele>
        <time>2015-03-30T15:22:09Z</time>
      </trkpt>
      <trkpt lat="41.280165" lon="-6.585628">
        <ele>701.407</ele>
        <time>2015-03-30T15:22:12Z</time>
      </trkpt>
      <trkpt lat="41.280183" lon="-6.585585">
        <ele>700.914</ele>
        <time>2015-03-30T15:22:16Z</time>
      </trkpt>
      <trkpt lat="41.280267" lon="-6.585462">
        <ele>700.529</ele>
        <time>2015-03-30T15:22:23Z</time>
      </trkpt>
      <trkpt lat="41.280315" lon="-6.585241">
        <ele>697.614</ele>
        <time>2015-03-30T15:22:33Z</time>
      </trkpt>
      <trkpt lat="41.280381" lon="-6.585053">
        <ele>699.538</ele>
        <time>2015-03-30T15:22:40Z</time>
      </trkpt>
      <trkpt lat="41.280455" lon="-6.584956">
        <ele>700.518</ele>
        <time>2015-03-30T15:22:46Z</time>
      </trkpt>
      <trkpt lat="41.280596" lon="-6.584807">
        <ele>701.421</ele>
        <time>2015-03-30T15:22:56Z</time>
      </trkpt>
      <trkpt lat="41.280693" lon="-6.584745">
        <ele>701.496</ele>
        <time>2015-03-30T15:23:02Z</time>
      </trkpt>
      <trkpt lat="41.280747" lon="-6.584656">
        <ele>702.451</ele>
        <time>2015-03-30T15:23:07Z</time>
      </trkpt>
      <trkpt lat="41.280825" lon="-6.584469">
        <ele>703.301</ele>
        <time>2015-03-30T15:23:18Z</time>
      </trkpt>
      <trkpt lat="41.280829" lon="-6.584454">
        <ele>703.311</ele>
        <time>2015-03-30T15:23:19Z</time>
      </trkpt>
      <trkpt lat="41.280937" lon="-6.584313">
        <ele>703.807</ele>
        <time>2015-03-30T15:23:31Z</time>
      </trkpt>
      <trkpt lat="41.281054" lon="-6.584078">
        <ele>702.914</ele>
        <time>2015-03-30T15:23:41Z</time>
      </trkpt>
      <trkpt lat="41.281149" lon="-6.583731">
        <ele>701.969</ele>
        <time>2015-03-30T15:23:50Z</time>
      </trkpt>
      <trkpt lat="41.281230" lon="-6.583375">
        <ele>702.454</ele>
        <time>2015-03-30T15:24:01Z</time>
      </trkpt>
      <trkpt lat="41.281235" lon="-6.583367">
        <ele>702.488</ele>
        <time>2015-03-30T15:24:09Z</time>
      </trkpt>
      <trkpt lat="41.281214" lon="-6.583353">
        <ele>701.978</ele>
        <time>2015-03-30T15:24:36Z</time>
      </trkpt>
      <trkpt lat="41.281208" lon="-6.583342">
        <ele>701.411</ele>
        <time>2015-03-30T15:25:01Z</time>
      </trkpt>
      <trkpt lat="41.281206" lon="-6.583329">
        <ele>701.946</ele>
        <time>2015-03-30T15:25:21Z</time>
      </trkpt>
      <trkpt lat="41.281206" lon="-6.583334">
        <ele>701.983</ele>
        <time>2015-03-30T15:25:44Z</time>
      </trkpt>
      <trkpt lat="41.281216" lon="-6.583342">
        <ele>701.925</ele>
        <time>2015-03-30T15:26:11Z</time>
      </trkpt>
      <trkpt lat="41.281221" lon="-6.583340">
        <ele>701.917</ele>
        <time>2015-03-30T15:26:37Z</time>
      </trkpt>
      <trkpt lat="41.281219" lon="-6.583340">
        <ele>701.907</ele>
        <time>2015-03-30T15:27:01Z</time>
      </trkpt>
      <trkpt lat="41.281213" lon="-6.583343">
        <ele>701.977</ele>
        <time>2015-03-30T15:27:27Z</time>
      </trkpt>
      <trkpt lat="41.281210" lon="-6.583344">
        <ele>701.932</ele>
        <time>2015-03-30T15:27:47Z</time>
      </trkpt>
      <trkpt lat="41.281213" lon="-6.583343">
        <ele>701.967</ele>
        <time>2015-03-30T15:28:12Z</time>
      </trkpt>
      <trkpt lat="41.281210" lon="-6.583348">
        <ele>702.471</ele>
        <time>2015-03-30T15:28:40Z</time>
      </trkpt>
      <trkpt lat="41.281224" lon="-6.583353">
        <ele>702.411</ele>
        <time>2015-03-30T15:29:06Z</time>
      </trkpt>
      <trkpt lat="41.281230" lon="-6.583361">
        <ele>702.964</ele>
        <time>2015-03-30T15:29:28Z</time>
      </trkpt>
      <trkpt lat="41.281232" lon="-6.583362">
        <ele>702.949</ele>
        <time>2015-03-30T15:29:55Z</time>
      </trkpt>
      <trkpt lat="41.281240" lon="-6.583368">
        <ele>702.491</ele>
        <time>2015-03-30T15:30:24Z</time>
      </trkpt>
      <trkpt lat="41.281246" lon="-6.583384">
        <ele>702.481</ele>
        <time>2015-03-30T15:30:50Z</time>
      </trkpt>
      <trkpt lat="41.281248" lon="-6.583384">
        <ele>702.419</ele>
        <time>2015-03-30T15:31:16Z</time>
      </trkpt>
      <trkpt lat="41.281247" lon="-6.583374">
        <ele>702.407</ele>
        <time>2015-03-30T15:31:47Z</time>
      </trkpt>
      <trkpt lat="41.281245" lon="-6.583376">
        <ele>701.938</ele>
        <time>2015-03-30T15:32:17Z</time>
      </trkpt>
      <trkpt lat="41.281240" lon="-6.583380">
        <ele>702.413</ele>
        <time>2015-03-30T15:32:51Z</time>
      </trkpt>
      <trkpt lat="41.281232" lon="-6.583376">
        <ele>701.998</ele>
        <time>2015-03-30T15:33:21Z</time>
      </trkpt>
      <trkpt lat="41.281235" lon="-6.583382">
        <ele>701.912</ele>
        <time>2015-03-30T15:33:58Z</time>
      </trkpt>
      <trkpt lat="41.281248" lon="-6.583386">
        <ele>701.922</ele>
        <time>2015-03-30T15:34:26Z</time>
      </trkpt>
      <trkpt lat="41.281239" lon="-6.583385">
        <ele>701.925</ele>
        <time>2015-03-30T15:34:56Z</time>
      </trkpt>
      <trkpt lat="41.281246" lon="-6.583399">
        <ele>701.940</ele>
        <time>2015-03-30T15:35:28Z</time>
      </trkpt>
      <trkpt lat="41.281238" lon="-6.583410">
        <ele>701.939</ele>
        <time>2015-03-30T15:35:53Z</time>
      </trkpt>
      <trkpt lat="41.281231" lon="-6.583402">
        <ele>701.901</ele>
        <time>2015-03-30T15:36:18Z</time>
      </trkpt>
      <trkpt lat="41.281235" lon="-6.583403">
        <ele>701.921</ele>
        <time>2015-03-30T15:36:42Z</time>
      </trkpt>
      <trkpt lat="41.281237" lon="-6.583394">
        <ele>701.907</ele>
        <time>2015-03-30T15:37:11Z</time>
      </trkpt>
      <trkpt lat="41.281232" lon="-6.583392">
        <ele>701.992</ele>
        <time>2015-03-30T15:37:36Z</time>
      </trkpt>
      <trkpt lat="41.281229" lon="-6.583384">
        <ele>701.957</ele>
        <time>2015-03-30T15:37:58Z</time>
      </trkpt>
      <trkpt lat="41.281242" lon="-6.583384">
        <ele>701.932</ele>
        <time>2015-03-30T15:38:26Z</time>
      </trkpt>
      <trkpt lat="41.281247" lon="-6.583404">
        <ele>701.986</ele>
        <time>2015-03-30T15:38:53Z</time>
      </trkpt>
      <trkpt lat="41.281228" lon="-6.583406">
        <ele>701.986</ele>
        <time>2015-03-30T15:39:23Z</time>
      </trkpt>
      <trkpt lat="41.281232" lon="-6.583396">
        <ele>701.999</ele>
        <time>2015-03-30T15:39:52Z</time>
      </trkpt>
      <trkpt lat="41.281242" lon="-6.583397">
        <ele>701.944</ele>
        <time>2015-03-30T15:40:21Z</time>
      </trkpt>
      <trkpt lat="41.281244" lon="-6.583402">
        <ele>701.939</ele>
        <time>2015-03-30T15:40:51Z</time>
      </trkpt>
      <trkpt lat="41.281236" lon="-6.583395">
        <ele>702.401</ele>
        <time>2015-03-30T15:41:20Z</time>
      </trkpt>
      <trkpt lat="41.281234" lon="-6.583387">
        <ele>702.421</ele>
        <time>2015-03-30T15:41:43Z</time>
      </trkpt>
      <trkpt lat="41.281237" lon="-6.583392">
        <ele>701.907</ele>
        <time>2015-03-30T15:42:12Z</time>
      </trkpt>
      <trkpt lat="41.281249" lon="-6.583402">
        <ele>702.452</ele>
        <time>2015-03-30T15:42:43Z</time>
      </trkpt>
      <trkpt lat="41.281248" lon="-6.583402">
        <ele>701.957</ele>
        <time>2015-03-30T15:42:55Z</time>
      </trkpt>
      <trkpt lat="41.281247" lon="-6.583418">
        <ele>701.962</ele>
        <time>2015-03-30T15:43:08Z</time>
      </trkpt>
      <trkpt lat="41.281246" lon="-6.583419">
        <ele>701.966</ele>
        <time>2015-03-30T15:43:10Z</time>
      </trkpt>
      <trkpt lat="41.281254" lon="-6.583444">
        <ele>701.986</ele>
        <time>2015-03-30T15:43:13Z</time>
      </trkpt>
      <trkpt lat="41.281315" lon="-6.583363">
        <ele>702.959</ele>
        <time>2015-03-30T15:43:21Z</time>
      </trkpt>
      <trkpt lat="41.281351" lon="-6.583248">
        <ele>703.344</ele>
        <time>2015-03-30T15:43:29Z</time>
      </trkpt>
      <trkpt lat="41.281484" lon="-6.582948">
        <ele>702.448</ele>
        <time>2015-03-30T15:43:42Z</time>
      </trkpt>
      <trkpt lat="41.281675" lon="-6.582667">
        <ele>701.461</ele>
        <time>2015-03-30T15:43:52Z</time>
      </trkpt>
      <trkpt lat="41.281863" lon="-6.582495">
        <ele>702.417</ele>
        <time>2015-03-30T15:44:01Z</time>
      </trkpt>
      <trkpt lat="41.282028" lon="-6.582409">
        <ele>703.307</ele>
        <time>2015-03-30T15:44:11Z</time>
      </trkpt>
      <trkpt lat="41.282212" lon="-6.582295">
        <ele>702.973</ele>
        <time>2015-03-30T15:44:20Z</time>
      </trkpt>
      <trkpt lat="41.282230" lon="-6.582280">
        <ele>705.818</ele>
        <time>2015-03-30T15:44:21Z</time>
      </trkpt>
      <trkpt lat="41.282412" lon="-6.582138">
        <ele>704.833</ele>
        <time>2015-03-30T15:44:30Z</time>
      </trkpt>
      <trkpt lat="41.282645" lon="-6.581974">
        <ele>704.357</ele>
        <time>2015-03-30T15:44:40Z</time>
      </trkpt>
      <trkpt lat="41.282955" lon="-6.581752">
        <ele>704.347</ele>
        <time>2015-03-30T15:44:51Z</time>
      </trkpt>
      <trkpt lat="41.283353" lon="-6.581535">
        <ele>703.810</ele>
        <time>2015-03-30T15:45:02Z</time>
      </trkpt>
      <trkpt lat="41.283458" lon="-6.581466">
        <ele>703.885</ele>
        <time>2015-03-30T15:45:05Z</time>
      </trkpt>
      <trkpt lat="41.283492" lon="-6.581438">
        <ele>703.816</ele>
        <time>2015-03-30T15:45:06Z</time>
      </trkpt>
      <trkpt lat="41.283615" lon="-6.581341">
        <ele>703.876</ele>
        <time>2015-03-30T15:45:10Z</time>
      </trkpt>
      <trkpt lat="41.283780" lon="-6.581142">
        <ele>704.813</ele>
        <time>2015-03-30T15:45:18Z</time>
      </trkpt>
      <trkpt lat="41.284042" lon="-6.581026">
        <ele>706.207</ele>
        <time>2015-03-30T15:45:29Z</time>
      </trkpt>
      <trkpt lat="41.284175" lon="-6.580888">
        <ele>706.790</ele>
        <time>2015-03-30T15:45:37Z</time>
      </trkpt>
      <trkpt lat="41.284187" lon="-6.580872">
        <ele>707.295</ele>
        <time>2015-03-30T15:45:38Z</time>
      </trkpt>
      <trkpt lat="41.284196" lon="-6.580853">
        <ele>707.280</ele>
        <time>2015-03-30T15:45:39Z</time>
      </trkpt>
      <trkpt lat="41.284204" lon="-6.580836">
        <ele>707.284</ele>
        <time>2015-03-30T15:45:40Z</time>
      </trkpt>
      <trkpt lat="41.284213" lon="-6.580816">
        <ele>707.224</ele>
        <time>2015-03-30T15:45:41Z</time>
      </trkpt>
      <trkpt lat="41.284223" lon="-6.580793">
        <ele>707.237</ele>
        <time>2015-03-30T15:45:42Z</time>
      </trkpt>
      <trkpt lat="41.284374" lon="-6.580462">
        <ele>706.222</ele>
        <time>2015-03-30T15:45:53Z</time>
      </trkpt>
      <trkpt lat="41.284603" lon="-6.580168">
        <ele>707.775</ele>
        <time>2015-03-30T15:46:03Z</time>
      </trkpt>
      <trkpt lat="41.284803" lon="-6.579998">
        <ele>708.228</ele>
        <time>2015-03-30T15:46:10Z</time>
      </trkpt>
      <trkpt lat="41.284971" lon="-6.579832">
        <ele>707.220</ele>
        <time>2015-03-30T15:46:15Z</time>
      </trkpt>
      <trkpt lat="41.285154" lon="-6.579708">
        <ele>707.207</ele>
        <time>2015-03-30T15:46:20Z</time>
      </trkpt>
      <trkpt lat="41.285309" lon="-6.579622">
        <ele>706.766</ele>
        <time>2015-03-30T15:46:24Z</time>
      </trkpt>
      <trkpt lat="41.285345" lon="-6.579596">
        <ele>706.771</ele>
        <time>2015-03-30T15:46:25Z</time>
      </trkpt>
      <trkpt lat="41.285379" lon="-6.579566">
        <ele>706.736</ele>
        <time>2015-03-30T15:46:26Z</time>
      </trkpt>
      <trkpt lat="41.285412" lon="-6.579531">
        <ele>706.790</ele>
        <time>2015-03-30T15:46:27Z</time>
      </trkpt>
      <trkpt lat="41.285446" lon="-6.579499">
        <ele>707.280</ele>
        <time>2015-03-30T15:46:28Z</time>
      </trkpt>
      <trkpt lat="41.285478" lon="-6.579465">
        <ele>706.783</ele>
        <time>2015-03-30T15:46:29Z</time>
      </trkpt>
      <trkpt lat="41.285510" lon="-6.579432">
        <ele>706.788</ele>
        <time>2015-03-30T15:46:30Z</time>
      </trkpt>
      <trkpt lat="41.285540" lon="-6.579401">
        <ele>707.288</ele>
        <time>2015-03-30T15:46:31Z</time>
      </trkpt>
      <trkpt lat="41.285568" lon="-6.579368">
        <ele>706.724</ele>
        <time>2015-03-30T15:46:32Z</time>
      </trkpt>
      <trkpt lat="41.285649" lon="-6.579257">
        <ele>707.226</ele>
        <time>2015-03-30T15:46:35Z</time>
      </trkpt>
      <trkpt lat="41.285831" lon="-6.578906">
        <ele>706.707</ele>
        <time>2015-03-30T15:46:44Z</time>
      </trkpt>
      <trkpt lat="41.285964" lon="-6.578528">
        <ele>707.757</ele>
        <time>2015-03-30T15:46:54Z</time>
      </trkpt>
      <trkpt lat="41.285922" lon="-6.578143">
        <ele>708.662</ele>
        <time>2015-03-30T15:47:04Z</time>
      </trkpt>
      <trkpt lat="41.285913" lon="-6.578117">
        <ele>708.667</ele>
        <time>2015-03-30T15:47:05Z</time>
      </trkpt>
      <trkpt lat="41.285903" lon="-6.578089">
        <ele>709.111</ele>
        <time>2015-03-30T15:47:06Z</time>
      </trkpt>
      <trkpt lat="41.285894" lon="-6.578058">
        <ele>709.181</ele>
        <time>2015-03-30T15:47:07Z</time>
      </trkpt>
      <trkpt lat="41.285882" lon="-6.578029">
        <ele>709.634</ele>
        <time>2015-03-30T15:47:08Z</time>
      </trkpt>
      <trkpt lat="41.285867" lon="-6.578001">
        <ele>710.119</ele>
        <time>2015-03-30T15:47:09Z</time>
      </trkpt>
      <trkpt lat="41.285792" lon="-6.577861">
        <ele>711.563</ele>
        <time>2015-03-30T15:47:14Z</time>
      </trkpt>
      <trkpt lat="41.285633" lon="-6.577643">
        <ele>713.444</ele>
        <time>2015-03-30T15:47:24Z</time>
      </trkpt>
      <trkpt lat="41.285529" lon="-6.577400">
        <ele>715.418</ele>
        <time>2015-03-30T15:47:34Z</time>
      </trkpt>
      <trkpt lat="41.285554" lon="-6.577160">
        <ele>716.307</ele>
        <time>2015-03-30T15:47:44Z</time>
      </trkpt>
      <trkpt lat="41.285642" lon="-6.576830">
        <ele>717.395</ele>
        <time>2015-03-30T15:47:55Z</time>
      </trkpt>
      <trkpt lat="41.285707" lon="-6.576555">
        <ele>718.250</ele>
        <time>2015-03-30T15:48:06Z</time>
      </trkpt>
      <trkpt lat="41.285716" lon="-6.576539">
        <ele>718.255</ele>
        <time>2015-03-30T15:48:07Z</time>
      </trkpt>
      <trkpt lat="41.285724" lon="-6.576528">
        <ele>718.259</ele>
        <time>2015-03-30T15:48:08Z</time>
      </trkpt>
      <trkpt lat="41.285734" lon="-6.576519">
        <ele>718.789</ele>
        <time>2015-03-30T15:48:09Z</time>
      </trkpt>
      <trkpt lat="41.285742" lon="-6.576503">
        <ele>719.252</ele>
        <time>2015-03-30T15:48:10Z</time>
      </trkpt>
      <trkpt lat="41.285815" lon="-6.576433">
        <ele>719.747</ele>
        <time>2015-03-30T15:48:16Z</time>
      </trkpt>
      <trkpt lat="41.285826" lon="-6.576422">
        <ele>719.774</ele>
        <time>2015-03-30T15:48:17Z</time>
      </trkpt>
      <trkpt lat="41.285925" lon="-6.576273">
        <ele>723.556</ele>
        <time>2015-03-30T15:48:26Z</time>
      </trkpt>
      <trkpt lat="41.285953" lon="-6.576259">
        <ele>721.121</ele>
        <time>2015-03-30T15:48:28Z</time>
      </trkpt>
      <trkpt lat="41.285966" lon="-6.576253">
        <ele>721.607</ele>
        <time>2015-03-30T15:48:29Z</time>
      </trkpt>
      <trkpt lat="41.285979" lon="-6.576242">
        <ele>722.176</ele>
        <time>2015-03-30T15:48:30Z</time>
      </trkpt>
      <trkpt lat="41.285992" lon="-6.576236">
        <ele>722.131</ele>
        <time>2015-03-30T15:48:31Z</time>
      </trkpt>
      <trkpt lat="41.286006" lon="-6.576230">
        <ele>722.686</ele>
        <time>2015-03-30T15:48:32Z</time>
      </trkpt>
      <trkpt lat="41.286022" lon="-6.576220">
        <ele>722.650</ele>
        <time>2015-03-30T15:48:33Z</time>
      </trkpt>
      <trkpt lat="41.286036" lon="-6.576208">
        <ele>722.620</ele>
        <time>2015-03-30T15:48:34Z</time>
      </trkpt>
      <trkpt lat="41.286070" lon="-6.576189">
        <ele>722.663</ele>
        <time>2015-03-30T15:48:36Z</time>
      </trkpt>
      <trkpt lat="41.286089" lon="-6.576194">
        <ele>722.658</ele>
        <time>2015-03-30T15:48:37Z</time>
      </trkpt>
      <trkpt lat="41.286320" lon="-6.576187">
        <ele>724.538</ele>
        <time>2015-03-30T15:48:49Z</time>
      </trkpt>
      <trkpt lat="41.286530" lon="-6.576143">
        <ele>725.570</ele>
        <time>2015-03-30T15:49:00Z</time>
      </trkpt>
      <trkpt lat="41.286716" lon="-6.576152">
        <ele>725.917</ele>
        <time>2015-03-30T15:49:09Z</time>
      </trkpt>
      <trkpt lat="41.286937" lon="-6.576123">
        <ele>727.407</ele>
        <time>2015-03-30T15:49:20Z</time>
      </trkpt>
      <trkpt lat="41.286991" lon="-6.576087">
        <ele>727.482</ele>
        <time>2015-03-30T15:49:23Z</time>
      </trkpt>
      <trkpt lat="41.287009" lon="-6.576077">
        <ele>727.487</ele>
        <time>2015-03-30T15:49:24Z</time>
      </trkpt>
      <trkpt lat="41.287023" lon="-6.576063">
        <ele>727.912</ele>
        <time>2015-03-30T15:49:25Z</time>
      </trkpt>
      <trkpt lat="41.287034" lon="-6.576047">
        <ele>727.996</ele>
        <time>2015-03-30T15:49:26Z</time>
      </trkpt>
      <trkpt lat="41.287043" lon="-6.576031">
        <ele>725.976</ele>
        <time>2015-03-30T15:49:27Z</time>
      </trkpt>
      <trkpt lat="41.287053" lon="-6.576017">
        <ele>728.879</ele>
        <time>2015-03-30T15:49:28Z</time>
      </trkpt>
      <trkpt lat="41.287176" lon="-6.575885">
        <ele>728.854</ele>
        <time>2015-03-30T15:49:38Z</time>
      </trkpt>
      <trkpt lat="41.287230" lon="-6.575788">
        <ele>729.369</ele>
        <time>2015-03-30T15:49:47Z</time>
      </trkpt>
      <trkpt lat="41.287220" lon="-6.575795">
        <ele>729.304</ele>
        <time>2015-03-30T15:50:03Z</time>
      </trkpt>
      <trkpt lat="41.287214" lon="-6.575790">
        <ele>729.324</ele>
        <time>2015-03-30T15:50:06Z</time>
      </trkpt>
      <trkpt lat="41.287203" lon="-6.575794">
        <ele>728.807</ele>
        <time>2015-03-30T15:50:07Z</time>
      </trkpt>
      <trkpt lat="41.287194" lon="-6.575808">
        <ele>728.345</ele>
        <time>2015-03-30T15:50:08Z</time>
      </trkpt>
      <trkpt lat="41.287186" lon="-6.575824">
        <ele>728.840</ele>
        <time>2015-03-30T15:50:09Z</time>
      </trkpt>
      <trkpt lat="41.287180" lon="-6.575843">
        <ele>728.385</ele>
        <time>2015-03-30T15:50:10Z</time>
      </trkpt>
      <trkpt lat="41.287178" lon="-6.575862">
        <ele>728.329</ele>
        <time>2015-03-30T15:50:11Z</time>
      </trkpt>
      <trkpt lat="41.287181" lon="-6.575876">
        <ele>728.359</ele>
        <time>2015-03-30T15:50:12Z</time>
      </trkpt>
      <trkpt lat="41.287187" lon="-6.575879">
        <ele>728.832</ele>
        <time>2015-03-30T15:50:21Z</time>
      </trkpt>
      <trkpt lat="41.287189" lon="-6.575880">
        <ele>728.857</ele>
        <time>2015-03-30T15:50:39Z</time>
      </trkpt>
      <trkpt lat="41.287192" lon="-6.575877">
        <ele>728.874</ele>
        <time>2015-03-30T15:50:52Z</time>
      </trkpt>
      <trkpt lat="41.287199" lon="-6.575873">
        <ele>729.356</ele>
        <time>2015-03-30T15:51:02Z</time>
      </trkpt>
      <trkpt lat="41.287206" lon="-6.575875">
        <ele>729.321</ele>
        <time>2015-03-30T15:51:21Z</time>
      </trkpt>
      <trkpt lat="41.287213" lon="-6.575876">
        <ele>729.307</ele>
        <time>2015-03-30T15:51:38Z</time>
      </trkpt>
      <trkpt lat="41.287220" lon="-6.575871">
        <ele>729.336</ele>
        <time>2015-03-30T15:51:59Z</time>
      </trkpt>
      <trkpt lat="41.287234" lon="-6.575843">
        <ele>729.851</ele>
        <time>2015-03-30T15:52:06Z</time>
      </trkpt>
      <trkpt lat="41.287243" lon="-6.575824">
        <ele>729.366</ele>
        <time>2015-03-30T15:52:07Z</time>
      </trkpt>
      <trkpt lat="41.287414" lon="-6.575647">
        <ele>729.330</ele>
        <time>2015-03-30T15:52:17Z</time>
      </trkpt>
      <trkpt lat="41.287583" lon="-6.575535">
        <ele>729.810</ele>
        <time>2015-03-30T15:52:25Z</time>
      </trkpt>
      <trkpt lat="41.287607" lon="-6.575526">
        <ele>729.853</ele>
        <time>2015-03-30T15:52:26Z</time>
      </trkpt>
      <trkpt lat="41.287847" lon="-6.575355">
        <ele>730.398</ele>
        <time>2015-03-30T15:52:38Z</time>
      </trkpt>
      <trkpt lat="41.288038" lon="-6.575267">
        <ele>730.756</ele>
        <time>2015-03-30T15:52:47Z</time>
      </trkpt>
      <trkpt lat="41.288208" lon="-6.575172">
        <ele>731.759</ele>
        <time>2015-03-30T15:52:55Z</time>
      </trkpt>
      <trkpt lat="41.288440" lon="-6.575057">
        <ele>732.214</ele>
        <time>2015-03-30T15:53:05Z</time>
      </trkpt>
      <trkpt lat="41.288705" lon="-6.575002">
        <ele>733.607</ele>
        <time>2015-03-30T15:53:16Z</time>
      </trkpt>
      <trkpt lat="41.289010" lon="-6.574813">
        <ele>735.194</ele>
        <time>2015-03-30T15:53:30Z</time>
      </trkpt>
      <trkpt lat="41.289026" lon="-6.574800">
        <ele>734.629</ele>
        <time>2015-03-30T15:53:31Z</time>
      </trkpt>
      <trkpt lat="41.289041" lon="-6.574787">
        <ele>734.634</ele>
        <time>2015-03-30T15:53:32Z</time>
      </trkpt>
      <trkpt lat="41.289057" lon="-6.574780">
        <ele>734.668</ele>
        <time>2015-03-30T15:53:33Z</time>
      </trkpt>
      <trkpt lat="41.289074" lon="-6.574767">
        <ele>735.128</ele>
        <time>2015-03-30T15:53:34Z</time>
      </trkpt>
      <trkpt lat="41.289090" lon="-6.574750">
        <ele>735.131</ele>
        <time>2015-03-30T15:53:35Z</time>
      </trkpt>
      <trkpt lat="41.289110" lon="-6.574734">
        <ele>735.126</ele>
        <time>2015-03-30T15:53:36Z</time>
      </trkpt>
      <trkpt lat="41.289293" lon="-6.574593">
        <ele>736.092</ele>
        <time>2015-03-30T15:53:45Z</time>
      </trkpt>
      <trkpt lat="41.289308" lon="-6.574574">
        <ele>736.073</ele>
        <time>2015-03-30T15:53:46Z</time>
      </trkpt>
      <trkpt lat="41.289326" lon="-6.574560">
        <ele>736.520</ele>
        <time>2015-03-30T15:53:47Z</time>
      </trkpt>
      <trkpt lat="41.289347" lon="-6.574547">
        <ele>736.507</ele>
        <time>2015-03-30T15:53:48Z</time>
      </trkpt>
      <trkpt lat="41.289367" lon="-6.574533">
        <ele>736.568</ele>
        <time>2015-03-30T15:53:49Z</time>
      </trkpt>
      <trkpt lat="41.289387" lon="-6.574513">
        <ele>736.553</ele>
        <time>2015-03-30T15:53:50Z</time>
      </trkpt>
      <trkpt lat="41.289405" lon="-6.574492">
        <ele>736.558</ele>
        <time>2015-03-30T15:53:51Z</time>
      </trkpt>
      <trkpt lat="41.289421" lon="-6.574473">
        <ele>736.562</ele>
        <time>2015-03-30T15:53:52Z</time>
      </trkpt>
      <trkpt lat="41.289437" lon="-6.574458">
        <ele>737.022</ele>
        <time>2015-03-30T15:53:53Z</time>
      </trkpt>
      <trkpt lat="41.289642" lon="-6.574261">
        <ele>738.085</ele>
        <time>2015-03-30T15:54:04Z</time>
      </trkpt>
      <trkpt lat="41.289862" lon="-6.574093">
        <ele>738.470</ele>
        <time>2015-03-30T15:54:14Z</time>
      </trkpt>
      <trkpt lat="41.290094" lon="-6.573915">
        <ele>739.968</ele>
        <time>2015-03-30T15:54:25Z</time>
      </trkpt>
      <trkpt lat="41.290293" lon="-6.573714">
        <ele>740.842</ele>
        <time>2015-03-30T15:54:35Z</time>
      </trkpt>
      <trkpt lat="41.290511" lon="-6.573445">
        <ele>742.326</ele>
        <time>2015-03-30T15:54:47Z</time>
      </trkpt>
      <trkpt lat="41.290832" lon="-6.573197">
        <ele>743.707</ele>
        <time>2015-03-30T15:54:59Z</time>
      </trkpt>
      <trkpt lat="41.291054" lon="-6.572997">
        <ele>744.755</ele>
        <time>2015-03-30T15:55:09Z</time>
      </trkpt>
      <trkpt lat="41.291231" lon="-6.572787">
        <ele>745.290</ele>
        <time>2015-03-30T15:55:19Z</time>
      </trkpt>
      <trkpt lat="41.291364" lon="-6.572624">
        <ele>745.625</ele>
        <time>2015-03-30T15:55:26Z</time>
      </trkpt>
      <trkpt lat="41.291450" lon="-6.572601">
        <ele>746.189</ele>
        <time>2015-03-30T15:55:30Z</time>
      </trkpt>
      <trkpt lat="41.291760" lon="-6.572704">
        <ele>747.189</ele>
        <time>2015-03-30T15:55:42Z</time>
      </trkpt>
      <trkpt lat="41.292135" lon="-6.572845">
        <ele>750.072</ele>
        <time>2015-03-30T15:55:56Z</time>
      </trkpt>
      <trkpt lat="41.292506" lon="-6.572977">
        <ele>750.567</ele>
        <time>2015-03-30T15:56:09Z</time>
      </trkpt>
      <trkpt lat="41.292771" lon="-6.573084">
        <ele>749.564</ele>
        <time>2015-03-30T15:56:18Z</time>
      </trkpt>
      <trkpt lat="41.293292" lon="-6.573282">
        <ele>748.506</ele>
        <time>2015-03-30T15:56:31Z</time>
      </trkpt>
      <trkpt lat="41.293503" lon="-6.573365">
        <ele>747.616</ele>
        <time>2015-03-30T15:56:36Z</time>
      </trkpt>
      <trkpt lat="41.293544" lon="-6.573379">
        <ele>748.007</ele>
        <time>2015-03-30T15:56:37Z</time>
      </trkpt>
      <trkpt lat="41.293584" lon="-6.573395">
        <ele>748.075</ele>
        <time>2015-03-30T15:56:38Z</time>
      </trkpt>
      <trkpt lat="41.293624" lon="-6.573410">
        <ele>748.070</ele>
        <time>2015-03-30T15:56:39Z</time>
      </trkpt>
      <trkpt lat="41.293664" lon="-6.573425">
        <ele>748.015</ele>
        <time>2015-03-30T15:56:40Z</time>
      </trkpt>
      <trkpt lat="41.293705" lon="-6.573440">
        <ele>748.019</ele>
        <time>2015-03-30T15:56:41Z</time>
      </trkpt>
      <trkpt lat="41.293747" lon="-6.573456">
        <ele>747.679</ele>
        <time>2015-03-30T15:56:42Z</time>
      </trkpt>
      <trkpt lat="41.294042" lon="-6.573566">
        <ele>747.682</ele>
        <time>2015-03-30T15:56:49Z</time>
      </trkpt>
      <trkpt lat="41.294084" lon="-6.573584">
        <ele>747.667</ele>
        <time>2015-03-30T15:56:50Z</time>
      </trkpt>
      <trkpt lat="41.294743" lon="-6.573829">
        <ele>747.657</ele>
        <time>2015-03-30T15:57:05Z</time>
      </trkpt>
      <trkpt lat="41.295141" lon="-6.573978">
        <ele>742.300</ele>
        <time>2015-03-30T15:57:14Z</time>
      </trkpt>
      <trkpt lat="41.295184" lon="-6.573994">
        <ele>750.920</ele>
        <time>2015-03-30T15:57:15Z</time>
      </trkpt>
      <trkpt lat="41.295275" lon="-6.574024">
        <ele>748.007</ele>
        <time>2015-03-30T15:57:17Z</time>
      </trkpt>
      <trkpt lat="41.295777" lon="-6.574318">
        <ele>748.044</ele>
        <time>2015-03-30T15:57:28Z</time>
      </trkpt>
      <trkpt lat="41.295808" lon="-6.574361">
        <ele>747.639</ele>
        <time>2015-03-30T15:57:29Z</time>
      </trkpt>
      <trkpt lat="41.295868" lon="-6.574454">
        <ele>748.094</ele>
        <time>2015-03-30T15:57:31Z</time>
      </trkpt>
      <trkpt lat="41.295946" lon="-6.574605">
        <ele>747.688</ele>
        <time>2015-03-30T15:57:34Z</time>
      </trkpt>
      <trkpt lat="41.295996" lon="-6.574702">
        <ele>746.618</ele>
        <time>2015-03-30T15:57:36Z</time>
      </trkpt>
      <trkpt lat="41.296041" lon="-6.574802">
        <ele>747.611</ele>
        <time>2015-03-30T15:57:38Z</time>
      </trkpt>
      <trkpt lat="41.296124" lon="-6.574934">
        <ele>747.646</ele>
        <time>2015-03-30T15:57:41Z</time>
      </trkpt>
      <trkpt lat="41.296155" lon="-6.574971">
        <ele>748.023</ele>
        <time>2015-03-30T15:57:42Z</time>
      </trkpt>
      <trkpt lat="41.296192" lon="-6.574999">
        <ele>747.683</ele>
        <time>2015-03-30T15:57:43Z</time>
      </trkpt>
      <trkpt lat="41.296231" lon="-6.575014">
        <ele>747.611</ele>
        <time>2015-03-30T15:57:44Z</time>
      </trkpt>
      <trkpt lat="41.296272" lon="-6.575016">
        <ele>748.007</ele>
        <time>2015-03-30T15:57:45Z</time>
      </trkpt>
      <trkpt lat="41.296312" lon="-6.574997">
        <ele>748.011</ele>
        <time>2015-03-30T15:57:46Z</time>
      </trkpt>
      <trkpt lat="41.296348" lon="-6.574962">
        <ele>748.056</ele>
        <time>2015-03-30T15:57:47Z</time>
      </trkpt>
      <trkpt lat="41.296380" lon="-6.574916">
        <ele>747.691</ele>
        <time>2015-03-30T15:57:48Z</time>
      </trkpt>
      <trkpt lat="41.296407" lon="-6.574863">
        <ele>748.025</ele>
        <time>2015-03-30T15:57:49Z</time>
      </trkpt>
      <trkpt lat="41.296430" lon="-6.574805">
        <ele>748.095</ele>
        <time>2015-03-30T15:57:50Z</time>
      </trkpt>
      <trkpt lat="41.296482" lon="-6.574684">
        <ele>747.658</ele>
        <time>2015-03-30T15:57:52Z</time>
      </trkpt>
      <trkpt lat="41.296690" lon="-6.574159">
        <ele>746.173</ele>
        <time>2015-03-30T15:58:00Z</time>
      </trkpt>
      <trkpt lat="41.296847" lon="-6.573366">
        <ele>744.797</ele>
        <time>2015-03-30T15:58:10Z</time>
      </trkpt>
      <trkpt lat="41.296915" lon="-6.572464">
        <ele>742.823</ele>
        <time>2015-03-30T15:58:20Z</time>
      </trkpt>
      <trkpt lat="41.296917" lon="-6.572281">
        <ele>742.325</ele>
        <time>2015-03-30T15:58:22Z</time>
      </trkpt>
      <trkpt lat="41.296949" lon="-6.571404">
        <ele>740.407</ele>
        <time>2015-03-30T15:58:31Z</time>
      </trkpt>
      <trkpt lat="41.297013" lon="-6.570559">
        <ele>740.438</ele>
        <time>2015-03-30T15:58:41Z</time>
      </trkpt>
      <trkpt lat="41.297069" lon="-6.569712">
        <ele>739.933</ele>
        <time>2015-03-30T15:58:52Z</time>
      </trkpt>
      <trkpt lat="41.297108" lon="-6.568889">
        <ele>738.428</ele>
        <time>2015-03-30T15:59:03Z</time>
      </trkpt>
      <trkpt lat="41.297126" lon="-6.568270">
        <ele>736.542</ele>
        <time>2015-03-30T15:59:10Z</time>
      </trkpt>
      <trkpt lat="41.297117" lon="-6.568173">
        <ele>736.012</ele>
        <time>2015-03-30T15:59:11Z</time>
      </trkpt>
      <trkpt lat="41.296899" lon="-6.567172">
        <ele>733.145</ele>
        <time>2015-03-30T15:59:21Z</time>
      </trkpt>
      <trkpt lat="41.296870" lon="-6.567067">
        <ele>729.320</ele>
        <time>2015-03-30T15:59:22Z</time>
      </trkpt>
      <trkpt lat="41.296847" lon="-6.566965">
        <ele>734.116</ele>
        <time>2015-03-30T15:59:23Z</time>
      </trkpt>
      <trkpt lat="41.296803" lon="-6.566677">
        <ele>731.776</ele>
        <time>2015-03-30T15:59:26Z</time>
      </trkpt>
      <trkpt lat="41.296741" lon="-6.566089">
        <ele>729.813</ele>
        <time>2015-03-30T15:59:33Z</time>
      </trkpt>
      <trkpt lat="41.296644" lon="-6.565647">
        <ele>726.407</ele>
        <time>2015-03-30T15:59:38Z</time>
      </trkpt>
      <trkpt lat="41.296548" lon="-6.565227">
        <ele>723.540</ele>
        <time>2015-03-30T15:59:42Z</time>
      </trkpt>
      <trkpt lat="41.296443" lon="-6.564738">
        <ele>719.235</ele>
        <time>2015-03-30T15:59:47Z</time>
      </trkpt>
      <trkpt lat="41.296318" lon="-6.564178">
        <ele>715.860</ele>
        <time>2015-03-30T15:59:53Z</time>
      </trkpt>
      <trkpt lat="41.296305" lon="-6.564091">
        <ele>715.434</ele>
        <time>2015-03-30T15:59:54Z</time>
      </trkpt>
      <trkpt lat="41.296301" lon="-6.564007">
        <ele>715.454</ele>
        <time>2015-03-30T15:59:55Z</time>
      </trkpt>
      <trkpt lat="41.296371" lon="-6.563369">
        <ele>711.557</ele>
        <time>2015-03-30T16:00:03Z</time>
      </trkpt>
      <trkpt lat="41.296370" lon="-6.563282">
        <ele>711.072</ele>
        <time>2015-03-30T16:00:04Z</time>
      </trkpt>
      <trkpt lat="41.296370" lon="-6.563104">
        <ele>710.124</ele>
        <time>2015-03-30T16:00:06Z</time>
      </trkpt>
      <trkpt lat="41.296377" lon="-6.562402">
        <ele>707.204</ele>
        <time>2015-03-30T16:00:13Z</time>
      </trkpt>
      <trkpt lat="41.296383" lon="-6.561867">
        <ele>705.814</ele>
        <time>2015-03-30T16:00:18Z</time>
      </trkpt>
      <trkpt lat="41.296394" lon="-6.561161">
        <ele>704.807</ele>
        <time>2015-03-30T16:00:25Z</time>
      </trkpt>
      <trkpt lat="41.296411" lon="-6.560983">
        <ele>704.311</ele>
        <time>2015-03-30T16:00:27Z</time>
      </trkpt>
      <trkpt lat="41.296427" lon="-6.560900">
        <ele>704.346</ele>
        <time>2015-03-30T16:00:28Z</time>
      </trkpt>
      <trkpt lat="41.296453" lon="-6.560823">
        <ele>704.311</ele>
        <time>2015-03-30T16:00:29Z</time>
      </trkpt>
      <trkpt lat="41.296522" lon="-6.560682">
        <ele>704.395</ele>
        <time>2015-03-30T16:00:31Z</time>
      </trkpt>
      <trkpt lat="41.296564" lon="-6.560619">
        <ele>704.335</ele>
        <time>2015-03-30T16:00:32Z</time>
      </trkpt>
      <trkpt lat="41.296609" lon="-6.560563">
        <ele>704.338</ele>
        <time>2015-03-30T16:00:33Z</time>
      </trkpt>
      <trkpt lat="41.296657" lon="-6.560513">
        <ele>704.853</ele>
        <time>2015-03-30T16:00:34Z</time>
      </trkpt>
      <trkpt lat="41.296702" lon="-6.560465">
        <ele>704.874</ele>
        <time>2015-03-30T16:00:35Z</time>
      </trkpt>
      <trkpt lat="41.296745" lon="-6.560415">
        <ele>704.356</ele>
        <time>2015-03-30T16:00:36Z</time>
      </trkpt>
      <trkpt lat="41.296939" lon="-6.560227">
        <ele>704.321</ele>
        <time>2015-03-30T16:00:41Z</time>
      </trkpt>
      <trkpt lat="41.296975" lon="-6.560203">
        <ele>704.307</ele>
        <time>2015-03-30T16:00:42Z</time>
      </trkpt>
      <trkpt lat="41.297143" lon="-6.560094">
        <ele>704.836</ele>
        <time>2015-03-30T16:00:48Z</time>
      </trkpt>
      <trkpt lat="41.297164" lon="-6.560096">
        <ele>704.881</ele>
        <time>2015-03-30T16:00:49Z</time>
      </trkpt>
      <trkpt lat="41.297181" lon="-6.560105">
        <ele>704.886</ele>
        <time>2015-03-30T16:00:50Z</time>
      </trkpt>
      <trkpt lat="41.297193" lon="-6.560123">
        <ele>704.890</ele>
        <time>2015-03-30T16:00:51Z</time>
      </trkpt>
      <trkpt lat="41.297190" lon="-6.560144">
        <ele>704.850</ele>
        <time>2015-03-30T16:00:52Z</time>
      </trkpt>
      <trkpt lat="41.297175" lon="-6.560160">
        <ele>705.383</ele>
        <time>2015-03-30T16:00:53Z</time>
      </trkpt>
      <trkpt lat="41.297153" lon="-6.560169">
        <ele>704.848</ele>
        <time>2015-03-30T16:00:54Z</time>
      </trkpt>
      <trkpt lat="41.297130" lon="-6.560176">
        <ele>704.819</ele>
        <time>2015-03-30T16:00:55Z</time>
      </trkpt>
      <trkpt lat="41.297108" lon="-6.560180">
        <ele>705.309</ele>
        <time>2015-03-30T16:00:56Z</time>
      </trkpt>
      <trkpt lat="41.297093" lon="-6.560182">
        <ele>704.819</ele>
        <time>2015-03-30T16:00:57Z</time>
      </trkpt>
      <trkpt lat="41.297098" lon="-6.560195">
        <ele>705.307</ele>
        <time>2015-03-30T16:01:06Z</time>
      </trkpt>
      <trkpt lat="41.297098" lon="-6.560214">
        <ele>705.370</ele>
        <time>2015-03-30T16:01:33Z</time>
      </trkpt>
      <trkpt lat="41.297091" lon="-6.560222">
        <ele>706.795</ele>
        <time>2015-03-30T16:01:57Z</time>
      </trkpt>
      <trkpt lat="41.297090" lon="-6.560227">
        <ele>705.870</ele>
        <time>2015-03-30T16:02:11Z</time>
      </trkpt>
      <trkpt lat="41.297085" lon="-6.560209">
        <ele>705.824</ele>
        <time>2015-03-30T16:02:12Z</time>
      </trkpt>
      <trkpt lat="41.297089" lon="-6.560188">
        <ele>705.344</ele>
        <time>2015-03-30T16:02:13Z</time>
      </trkpt>
      <trkpt lat="41.297101" lon="-6.560166">
        <ele>705.877</ele>
        <time>2015-03-30T16:02:14Z</time>
      </trkpt>
      <trkpt lat="41.297119" lon="-6.560148">
        <ele>705.342</ele>
        <time>2015-03-30T16:02:15Z</time>
      </trkpt>
      <trkpt lat="41.297139" lon="-6.560135">
        <ele>705.324</ele>
        <time>2015-03-30T16:02:16Z</time>
      </trkpt>
      <trkpt lat="41.297161" lon="-6.560128">
        <ele>705.304</ele>
        <time>2015-03-30T16:02:17Z</time>
      </trkpt>
      <trkpt lat="41.297236" lon="-6.560076">
        <ele>705.814</ele>
        <time>2015-03-30T16:02:21Z</time>
      </trkpt>
      <trkpt lat="41.297246" lon="-6.560064">
        <ele>705.807</ele>
        <time>2015-03-30T16:02:22Z</time>
      </trkpt>
      <trkpt lat="41.297249" lon="-6.560056">
        <ele>705.861</ele>
        <time>2015-03-30T16:02:31Z</time>
      </trkpt>
      <trkpt lat="41.297247" lon="-6.560052">
        <ele>705.886</ele>
        <time>2015-03-30T16:02:46Z</time>
      </trkpt>
      <trkpt lat="41.297257" lon="-6.560059">
        <ele>705.861</ele>
        <time>2015-03-30T16:03:05Z</time>
      </trkpt>
      <trkpt lat="41.297255" lon="-6.560059">
        <ele>705.895</ele>
        <time>2015-03-30T16:03:21Z</time>
      </trkpt>
      <trkpt lat="41.297257" lon="-6.560061">
        <ele>706.295</ele>
        <time>2015-03-30T16:03:35Z</time>
      </trkpt>
      <trkpt lat="41.297257" lon="-6.560061">
        <ele>706.268</ele>
        <time>2015-03-30T16:03:51Z</time>
      </trkpt>
      <trkpt lat="41.297259" lon="-6.560067">
        <ele>704.883</ele>
        <time>2015-03-30T16:04:04Z</time>
      </trkpt>
      <trkpt lat="41.297264" lon="-6.560075">
        <ele>707.225</ele>
        <time>2015-03-30T16:04:19Z</time>
      </trkpt>
      <trkpt lat="41.297249" lon="-6.560089">
        <ele>706.226</ele>
        <time>2015-03-30T16:04:26Z</time>
      </trkpt>
      <trkpt lat="41.297235" lon="-6.560102">
        <ele>706.708</ele>
        <time>2015-03-30T16:04:27Z</time>
      </trkpt>
      <trkpt lat="41.297216" lon="-6.560112">
        <ele>706.207</ele>
        <time>2015-03-30T16:04:28Z</time>
      </trkpt>
      <trkpt lat="41.297192" lon="-6.560125">
        <ele>706.211</ele>
        <time>2015-03-30T16:04:29Z</time>
      </trkpt>
      <trkpt lat="41.297165" lon="-6.560140">
        <ele>705.866</ele>
        <time>2015-03-30T16:04:30Z</time>
      </trkpt>
      <trkpt lat="41.297138" lon="-6.560155">
        <ele>705.831</ele>
        <time>2015-03-30T16:04:31Z</time>
      </trkpt>
      <trkpt lat="41.297112" lon="-6.560172">
        <ele>706.245</ele>
        <time>2015-03-30T16:04:32Z</time>
      </trkpt>
      <trkpt lat="41.297046" lon="-6.560212">
        <ele>699.585</ele>
        <time>2015-03-30T16:04:35Z</time>
      </trkpt>
      <trkpt lat="41.297030" lon="-6.560223">
        <ele>713.978</ele>
        <time>2015-03-30T16:04:36Z</time>
      </trkpt>
      <trkpt lat="41.297017" lon="-6.560236">
        <ele>705.383</ele>
        <time>2015-03-30T16:04:37Z</time>
      </trkpt>
      <trkpt lat="41.296849" lon="-6.560375">
        <ele>705.832</ele>
        <time>2015-03-30T16:04:46Z</time>
      </trkpt>
      <trkpt lat="41.296610" lon="-6.560639">
        <ele>705.892</ele>
        <time>2015-03-30T16:04:59Z</time>
      </trkpt>
      <trkpt lat="41.296514" lon="-6.560792">
        <ele>705.811</ele>
        <time>2015-03-30T16:05:08Z</time>
      </trkpt>
      <trkpt lat="41.296514" lon="-6.560798">
        <ele>705.807</ele>
        <time>2015-03-30T16:05:23Z</time>
      </trkpt>
      <trkpt lat="41.296475" lon="-6.560859">
        <ele>705.352</ele>
        <time>2015-03-30T16:05:38Z</time>
      </trkpt>
      <trkpt lat="41.296460" lon="-6.560888">
        <ele>710.157</ele>
        <time>2015-03-30T16:05:40Z</time>
      </trkpt>
      <trkpt lat="41.296461" lon="-6.560905">
        <ele>705.822</ele>
        <time>2015-03-30T16:05:41Z</time>
      </trkpt>
      <trkpt lat="41.296459" lon="-6.560921">
        <ele>705.876</ele>
        <time>2015-03-30T16:05:42Z</time>
      </trkpt>
      <trkpt lat="41.296453" lon="-6.560937">
        <ele>705.356</ele>
        <time>2015-03-30T16:05:43Z</time>
      </trkpt>
      <trkpt lat="41.296448" lon="-6.560957">
        <ele>705.849</ele>
        <time>2015-03-30T16:05:44Z</time>
      </trkpt>
      <trkpt lat="41.296444" lon="-6.560976">
        <ele>705.374</ele>
        <time>2015-03-30T16:05:45Z</time>
      </trkpt>
      <trkpt lat="41.296438" lon="-6.560993">
        <ele>705.844</ele>
        <time>2015-03-30T16:05:46Z</time>
      </trkpt>
      <trkpt lat="41.296432" lon="-6.561007">
        <ele>705.305</ele>
        <time>2015-03-30T16:05:47Z</time>
      </trkpt>
      <trkpt lat="41.296398" lon="-6.560990">
        <ele>705.815</ele>
        <time>2015-03-30T16:05:54Z</time>
      </trkpt>
      <trkpt lat="41.296390" lon="-6.560994">
        <ele>706.207</ele>
        <time>2015-03-30T16:06:17Z</time>
      </trkpt>
      <trkpt lat="41.296390" lon="-6.560994">
        <ele>705.843</ele>
        <time>2015-03-30T16:06:25Z</time>
      </trkpt>
      <trkpt lat="41.296391" lon="-6.560977">
        <ele>705.858</ele>
        <time>2015-03-30T16:06:26Z</time>
      </trkpt>
      <trkpt lat="41.296475" lon="-6.560775">
        <ele>706.243</ele>
        <time>2015-03-30T16:06:33Z</time>
      </trkpt>
      <trkpt lat="41.296721" lon="-6.560452">
        <ele>705.817</ele>
        <time>2015-03-30T16:06:43Z</time>
      </trkpt>
      <trkpt lat="41.297085" lon="-6.560155">
        <ele>705.827</ele>
        <time>2015-03-30T16:06:56Z</time>
      </trkpt>
      <trkpt lat="41.297338" lon="-6.560294">
        <ele>706.780</ele>
        <time>2015-03-30T16:07:05Z</time>
      </trkpt>
      <trkpt lat="41.297638" lon="-6.560441">
        <ele>707.235</ele>
        <time>2015-03-30T16:07:17Z</time>
      </trkpt>
      <trkpt lat="41.297837" lon="-6.560492">
        <ele>706.791</ele>
        <time>2015-03-30T16:07:26Z</time>
      </trkpt>
      <trkpt lat="41.297985" lon="-6.560376">
        <ele>711.581</ele>
        <time>2015-03-30T16:07:34Z</time>
      </trkpt>
      <trkpt lat="41.297983" lon="-6.560217">
        <ele>708.619</ele>
        <time>2015-03-30T16:07:40Z</time>
      </trkpt>
      <trkpt lat="41.298022" lon="-6.560115">
        <ele>709.107</ele>
        <time>2015-03-30T16:07:44Z</time>
      </trkpt>
      <trkpt lat="41.298068" lon="-6.560085">
        <ele>709.658</ele>
        <time>2015-03-30T16:07:52Z</time>
      </trkpt>
      <trkpt lat="41.298005" lon="-6.560289">
        <ele>708.693</ele>
        <time>2015-03-30T16:08:01Z</time>
      </trkpt>
      <trkpt lat="41.298039" lon="-6.560338">
        <ele>707.738</ele>
        <time>2015-03-30T16:08:03Z</time>
      </trkpt>
      <trkpt lat="41.298058" lon="-6.560348">
        <ele>707.742</ele>
        <time>2015-03-30T16:08:04Z</time>
      </trkpt>
      <trkpt lat="41.298278" lon="-6.560489">
        <ele>704.872</ele>
        <time>2015-03-30T16:08:15Z</time>
      </trkpt>
      <trkpt lat="41.298376" lon="-6.560647">
        <ele>702.425</ele>
        <time>2015-03-30T16:08:19Z</time>
      </trkpt>
      <trkpt lat="41.298460" lon="-6.560879">
        <ele>700.010</ele>
        <time>2015-03-30T16:08:23Z</time>
      </trkpt>
      <trkpt lat="41.298520" lon="-6.561036">
        <ele>697.621</ele>
        <time>2015-03-30T16:08:26Z</time>
      </trkpt>
      <trkpt lat="41.298540" lon="-6.561086">
        <ele>697.641</ele>
        <time>2015-03-30T16:08:27Z</time>
      </trkpt>
      <trkpt lat="41.298600" lon="-6.561264">
        <ele>695.205</ele>
        <time>2015-03-30T16:08:31Z</time>
      </trkpt>
      <trkpt lat="41.298638" lon="-6.561385">
        <ele>694.207</ele>
        <time>2015-03-30T16:08:33Z</time>
      </trkpt>
      <trkpt lat="41.298659" lon="-6.561440">
        <ele>693.371</ele>
        <time>2015-03-30T16:08:34Z</time>
      </trkpt>
      <trkpt lat="41.298767" lon="-6.561673">
        <ele>690.486</ele>
        <time>2015-03-30T16:08:41Z</time>
      </trkpt>
      <trkpt lat="41.298798" lon="-6.561680">
        <ele>690.451</ele>
        <time>2015-03-30T16:08:42Z</time>
      </trkpt>
      <trkpt lat="41.298829" lon="-6.561679">
        <ele>689.915</ele>
        <time>2015-03-30T16:08:43Z</time>
      </trkpt>
      <trkpt lat="41.298857" lon="-6.561674">
        <ele>689.465</ele>
        <time>2015-03-30T16:08:44Z</time>
      </trkpt>
      <trkpt lat="41.298882" lon="-6.561671">
        <ele>689.448</ele>
        <time>2015-03-30T16:08:45Z</time>
      </trkpt>
      <trkpt lat="41.299067" lon="-6.561603">
        <ele>688.413</ele>
        <time>2015-03-30T16:08:53Z</time>
      </trkpt>
      <trkpt lat="41.299096" lon="-6.561618">
        <ele>688.024</ele>
        <time>2015-03-30T16:08:54Z</time>
      </trkpt>
      <trkpt lat="41.299120" lon="-6.561649">
        <ele>687.504</ele>
        <time>2015-03-30T16:08:55Z</time>
      </trkpt>
      <trkpt lat="41.299144" lon="-6.561685">
        <ele>687.014</ele>
        <time>2015-03-30T16:08:56Z</time>
      </trkpt>
      <trkpt lat="41.299171" lon="-6.561723">
        <ele>686.507</ele>
        <time>2015-03-30T16:08:57Z</time>
      </trkpt>
      <trkpt lat="41.299211" lon="-6.561760">
        <ele>686.081</ele>
        <time>2015-03-30T16:08:58Z</time>
      </trkpt>
      <trkpt lat="41.299250" lon="-6.561771">
        <ele>686.556</ele>
        <time>2015-03-30T16:08:59Z</time>
      </trkpt>
      <trkpt lat="41.299286" lon="-6.561766">
        <ele>687.081</ele>
        <time>2015-03-30T16:09:00Z</time>
      </trkpt>
      <trkpt lat="41.299318" lon="-6.561757">
        <ele>687.085</ele>
        <time>2015-03-30T16:09:01Z</time>
      </trkpt>
      <trkpt lat="41.299346" lon="-6.561748">
        <ele>687.055</ele>
        <time>2015-03-30T16:09:02Z</time>
      </trkpt>
      <trkpt lat="41.299371" lon="-6.561743">
        <ele>687.018</ele>
        <time>2015-03-30T16:09:03Z</time>
      </trkpt>
      <trkpt lat="41.299596" lon="-6.561675">
        <ele>688.483</ele>
        <time>2015-03-30T16:09:13Z</time>
      </trkpt>
      <trkpt lat="41.299700" lon="-6.561655">
        <ele>690.443</ele>
        <time>2015-03-30T16:09:19Z</time>
      </trkpt>
      <trkpt lat="41.299713" lon="-6.561659">
        <ele>690.864</ele>
        <time>2015-03-30T16:09:20Z</time>
      </trkpt>
      <trkpt lat="41.299729" lon="-6.561662">
        <ele>688.910</ele>
        <time>2015-03-30T16:09:21Z</time>
      </trkpt>
      <trkpt lat="41.299748" lon="-6.561666">
        <ele>691.307</ele>
        <time>2015-03-30T16:09:22Z</time>
      </trkpt>
      <trkpt lat="41.299766" lon="-6.561670">
        <ele>690.483</ele>
        <time>2015-03-30T16:09:23Z</time>
      </trkpt>
      <trkpt lat="41.299788" lon="-6.561677">
        <ele>690.438</ele>
        <time>2015-03-30T16:09:24Z</time>
      </trkpt>
      <trkpt lat="41.299812" lon="-6.561686">
        <ele>690.413</ele>
        <time>2015-03-30T16:09:25Z</time>
      </trkpt>
      <trkpt lat="41.299836" lon="-6.561694">
        <ele>689.917</ele>
        <time>2015-03-30T16:09:26Z</time>
      </trkpt>
      <trkpt lat="41.300048" lon="-6.561799">
        <ele>690.437</ele>
        <time>2015-03-30T16:09:36Z</time>
      </trkpt>
      <trkpt lat="41.300225" lon="-6.561882">
        <ele>689.460</ele>
        <time>2015-03-30T16:09:43Z</time>
      </trkpt>
      <trkpt lat="41.300330" lon="-6.561721">
        <ele>689.455</ele>
        <time>2015-03-30T16:09:48Z</time>
      </trkpt>
      <trkpt lat="41.300328" lon="-6.561378">
        <ele>691.335</ele>
        <time>2015-03-30T16:09:59Z</time>
      </trkpt>
      <trkpt lat="41.300385" lon="-6.561071">
        <ele>693.386</ele>
        <time>2015-03-30T16:10:10Z</time>
      </trkpt>
      <trkpt lat="41.300565" lon="-6.560902">
        <ele>695.214</ele>
        <time>2015-03-30T16:10:20Z</time>
      </trkpt>
      <trkpt lat="41.300617" lon="-6.560824">
        <ele>696.107</ele>
        <time>2015-03-30T16:10:24Z</time>
      </trkpt>
      <trkpt lat="41.300756" lon="-6.560591">
        <ele>697.182</ele>
        <time>2015-03-30T16:10:35Z</time>
      </trkpt>
      <trkpt lat="41.300873" lon="-6.560347">
        <ele>695.727</ele>
        <time>2015-03-30T16:10:45Z</time>
      </trkpt>
      <trkpt lat="41.300912" lon="-6.559913">
        <ele>693.362</ele>
        <time>2015-03-30T16:10:55Z</time>
      </trkpt>
      <trkpt lat="41.300975" lon="-6.559564">
        <ele>689.986</ele>
        <time>2015-03-30T16:11:01Z</time>
      </trkpt>
      <trkpt lat="41.301079" lon="-6.559157">
        <ele>686.516</ele>
        <time>2015-03-30T16:11:07Z</time>
      </trkpt>
      <trkpt lat="41.301094" lon="-6.559092">
        <ele>686.029</ele>
        <time>2015-03-30T16:11:08Z</time>
      </trkpt>
      <trkpt lat="41.301147" lon="-6.558769">
        <ele>683.264</ele>
        <time>2015-03-30T16:11:13Z</time>
      </trkpt>
      <trkpt lat="41.301196" lon="-6.558572">
        <ele>681.299</ele>
        <time>2015-03-30T16:11:16Z</time>
      </trkpt>
      <trkpt lat="41.301226" lon="-6.558514">
        <ele>680.807</ele>
        <time>2015-03-30T16:11:17Z</time>
      </trkpt>
      <trkpt lat="41.301262" lon="-6.558456">
        <ele>679.827</ele>
        <time>2015-03-30T16:11:18Z</time>
      </trkpt>
      <trkpt lat="41.301299" lon="-6.558395">
        <ele>679.307</ele>
        <time>2015-03-30T16:11:19Z</time>
      </trkpt>
      <trkpt lat="41.301339" lon="-6.558332">
        <ele>678.828</ele>
        <time>2015-03-30T16:11:20Z</time>
      </trkpt>
      <trkpt lat="41.301424" lon="-6.558203">
        <ele>677.913</ele>
        <time>2015-03-30T16:11:22Z</time>
      </trkpt>
      <trkpt lat="41.301474" lon="-6.558153">
        <ele>677.998</ele>
        <time>2015-03-30T16:11:23Z</time>
      </trkpt>
      <trkpt lat="41.301530" lon="-6.558115">
        <ele>677.412</ele>
        <time>2015-03-30T16:11:24Z</time>
      </trkpt>
      <trkpt lat="41.301580" lon="-6.558082">
        <ele>677.412</ele>
        <time>2015-03-30T16:11:25Z</time>
      </trkpt>
      <trkpt lat="41.301627" lon="-6.558048">
        <ele>676.455</ele>
        <time>2015-03-30T16:11:26Z</time>
      </trkpt>
      <trkpt lat="41.301674" lon="-6.558027">
        <ele>675.960</ele>
        <time>2015-03-30T16:11:27Z</time>
      </trkpt>
      <trkpt lat="41.301718" lon="-6.558015">
        <ele>675.569</ele>
        <time>2015-03-30T16:11:28Z</time>
      </trkpt>
      <trkpt lat="41.301758" lon="-6.558008">
        <ele>675.004</ele>
        <time>2015-03-30T16:11:29Z</time>
      </trkpt>
      <trkpt lat="41.301950" lon="-6.557855">
        <ele>671.124</ele>
        <time>2015-03-30T16:11:35Z</time>
      </trkpt>
      <trkpt lat="41.302085" lon="-6.557697">
        <ele>668.707</ele>
        <time>2015-03-30T16:11:42Z</time>
      </trkpt>
      <trkpt lat="41.302086" lon="-6.557699">
        <ele>668.715</ele>
        <time>2015-03-30T16:11:50Z</time>
      </trkpt>
      <trkpt lat="41.302085" lon="-6.557705">
        <ele>668.790</ele>
        <time>2015-03-30T16:12:03Z</time>
      </trkpt>
      <trkpt lat="41.302097" lon="-6.557697">
        <ele>668.715</ele>
        <time>2015-03-30T16:12:06Z</time>
      </trkpt>
      <trkpt lat="41.302146" lon="-6.557619">
        <ele>667.369</ele>
        <time>2015-03-30T16:12:13Z</time>
      </trkpt>
      <trkpt lat="41.302163" lon="-6.557613">
        <ele>667.349</ele>
        <time>2015-03-30T16:12:19Z</time>
      </trkpt>
      <trkpt lat="41.302182" lon="-6.557586">
        <ele>667.382</ele>
        <time>2015-03-30T16:12:24Z</time>
      </trkpt>
      <trkpt lat="41.302190" lon="-6.557565">
        <ele>666.887</ele>
        <time>2015-03-30T16:12:25Z</time>
      </trkpt>
      <trkpt lat="41.302203" lon="-6.557546">
        <ele>666.895</ele>
        <time>2015-03-30T16:12:26Z</time>
      </trkpt>
      <trkpt lat="41.302315" lon="-6.557351">
        <ele>663.949</ele>
        <time>2015-03-30T16:12:34Z</time>
      </trkpt>
      <trkpt lat="41.302333" lon="-6.557327">
        <ele>663.023</ele>
        <time>2015-03-30T16:12:35Z</time>
      </trkpt>
      <trkpt lat="41.302362" lon="-6.557275">
        <ele>662.507</ele>
        <time>2015-03-30T16:12:37Z</time>
      </trkpt>
      <trkpt lat="41.302400" lon="-6.557150">
        <ele>660.678</ele>
        <time>2015-03-30T16:12:41Z</time>
      </trkpt>
      <trkpt lat="41.302416" lon="-6.557119">
        <ele>660.193</ele>
        <time>2015-03-30T16:12:43Z</time>
      </trkpt>
      <trkpt lat="41.302416" lon="-6.557099">
        <ele>660.148</ele>
        <time>2015-03-30T16:12:44Z</time>
      </trkpt>
      <trkpt lat="41.302443" lon="-6.556951">
        <ele>657.212</ele>
        <time>2015-03-30T16:12:53Z</time>
      </trkpt>
      <trkpt lat="41.302468" lon="-6.556908">
        <ele>657.252</ele>
        <time>2015-03-30T16:13:08Z</time>
      </trkpt>
      <trkpt lat="41.302473" lon="-6.556891">
        <ele>656.735</ele>
        <time>2015-03-30T16:13:09Z</time>
      </trkpt>
      <trkpt lat="41.302482" lon="-6.556875">
        <ele>656.210</ele>
        <time>2015-03-30T16:13:10Z</time>
      </trkpt>
      <trkpt lat="41.302492" lon="-6.556855">
        <ele>656.295</ele>
        <time>2015-03-30T16:13:11Z</time>
      </trkpt>
      <trkpt lat="41.302504" lon="-6.556830">
        <ele>655.849</ele>
        <time>2015-03-30T16:13:12Z</time>
      </trkpt>
      <trkpt lat="41.302520" lon="-6.556806">
        <ele>655.823</ele>
        <time>2015-03-30T16:13:13Z</time>
      </trkpt>
      <trkpt lat="41.302536" lon="-6.556775">
        <ele>655.307</ele>
        <time>2015-03-30T16:13:14Z</time>
      </trkpt>
      <trkpt lat="41.302634" lon="-6.556586">
        <ele>652.498</ele>
        <time>2015-03-30T16:13:21Z</time>
      </trkpt>
      <trkpt lat="41.302763" lon="-6.556409">
        <ele>649.573</ele>
        <time>2015-03-30T16:13:27Z</time>
      </trkpt>
      <trkpt lat="41.302893" lon="-6.556136">
        <ele>646.668</ele>
        <time>2015-03-30T16:13:36Z</time>
      </trkpt>
      <trkpt lat="41.302918" lon="-6.556004">
        <ele>644.242</ele>
        <time>2015-03-30T16:13:41Z</time>
      </trkpt>
      <trkpt lat="41.302915" lon="-6.555983">
        <ele>643.782</ele>
        <time>2015-03-30T16:13:42Z</time>
      </trkpt>
      <trkpt lat="41.302922" lon="-6.555841">
        <ele>641.885</ele>
        <time>2015-03-30T16:13:48Z</time>
      </trkpt>
      <trkpt lat="41.302921" lon="-6.555822">
        <ele>641.890</ele>
        <time>2015-03-30T16:13:49Z</time>
      </trkpt>
      <trkpt lat="41.302922" lon="-6.555799">
        <ele>641.396</ele>
        <time>2015-03-30T16:13:50Z</time>
      </trkpt>
      <trkpt lat="41.302923" lon="-6.555779">
        <ele>640.931</ele>
        <time>2015-03-30T16:13:51Z</time>
      </trkpt>
      <trkpt lat="41.302921" lon="-6.555759">
        <ele>640.424</ele>
        <time>2015-03-30T16:13:52Z</time>
      </trkpt>
      <trkpt lat="41.302919" lon="-6.555737">
        <ele>640.407</ele>
        <time>2015-03-30T16:13:53Z</time>
      </trkpt>
      <trkpt lat="41.302917" lon="-6.555715">
        <ele>640.488</ele>
        <time>2015-03-30T16:13:54Z</time>
      </trkpt>
      <trkpt lat="41.302914" lon="-6.555693">
        <ele>639.983</ele>
        <time>2015-03-30T16:13:55Z</time>
      </trkpt>
      <trkpt lat="41.302910" lon="-6.555671">
        <ele>638.548</ele>
        <time>2015-03-30T16:13:56Z</time>
      </trkpt>
      <trkpt lat="41.302875" lon="-6.555522">
        <ele>638.542</ele>
        <time>2015-03-30T16:14:02Z</time>
      </trkpt>
      <trkpt lat="41.302872" lon="-6.555527">
        <ele>638.082</ele>
        <time>2015-03-30T16:14:13Z</time>
      </trkpt>
      <trkpt lat="41.302867" lon="-6.555535">
        <ele>640.955</ele>
        <time>2015-03-30T16:14:17Z</time>
      </trkpt>
      <trkpt lat="41.302861" lon="-6.555514">
        <ele>638.050</ele>
        <time>2015-03-30T16:14:28Z</time>
      </trkpt>
      <trkpt lat="41.302853" lon="-6.555493">
        <ele>638.038</ele>
        <time>2015-03-30T16:14:29Z</time>
      </trkpt>
      <trkpt lat="41.302844" lon="-6.555473">
        <ele>638.070</ele>
        <time>2015-03-30T16:14:30Z</time>
      </trkpt>
      <trkpt lat="41.302798" lon="-6.555350">
        <ele>636.117</ele>
        <time>2015-03-30T16:14:35Z</time>
      </trkpt>
      <trkpt lat="41.302792" lon="-6.555323">
        <ele>635.607</ele>
        <time>2015-03-30T16:14:36Z</time>
      </trkpt>
      <trkpt lat="41.302785" lon="-6.555296">
        <ele>635.622</ele>
        <time>2015-03-30T16:14:37Z</time>
      </trkpt>
      <trkpt lat="41.302781" lon="-6.555271">
        <ele>635.187</ele>
        <time>2015-03-30T16:14:38Z</time>
      </trkpt>
      <trkpt lat="41.302780" lon="-6.555243">
        <ele>635.122</ele>
        <time>2015-03-30T16:14:39Z</time>
      </trkpt>
      <trkpt lat="41.302779" lon="-6.555217">
        <ele>635.166</ele>
        <time>2015-03-30T16:14:40Z</time>
      </trkpt>
      <trkpt lat="41.302764" lon="-6.555157">
        <ele>633.786</ele>
        <time>2015-03-30T16:14:44Z</time>
      </trkpt>
      <trkpt lat="41.302766" lon="-6.555150">
        <ele>633.249</ele>
        <time>2015-03-30T16:14:46Z</time>
      </trkpt>
      <trkpt lat="41.302761" lon="-6.555134">
        <ele>633.284</ele>
        <time>2015-03-30T16:14:47Z</time>
      </trkpt>
      <trkpt lat="41.302754" lon="-6.555117">
        <ele>633.214</ele>
        <time>2015-03-30T16:14:48Z</time>
      </trkpt>
      <trkpt lat="41.302740" lon="-6.555076">
        <ele>632.254</ele>
        <time>2015-03-30T16:14:51Z</time>
      </trkpt>
      <trkpt lat="41.302736" lon="-6.555060">
        <ele>632.209</ele>
        <time>2015-03-30T16:14:52Z</time>
      </trkpt>
      <trkpt lat="41.302732" lon="-6.555041">
        <ele>632.207</ele>
        <time>2015-03-30T16:14:53Z</time>
      </trkpt>
      <trkpt lat="41.302730" lon="-6.555020">
        <ele>631.770</ele>
        <time>2015-03-30T16:14:54Z</time>
      </trkpt>
      <trkpt lat="41.302728" lon="-6.554995">
        <ele>631.725</ele>
        <time>2015-03-30T16:14:55Z</time>
      </trkpt>
      <trkpt lat="41.302711" lon="-6.554721">
        <ele>628.430</ele>
        <time>2015-03-30T16:15:05Z</time>
      </trkpt>
      <trkpt lat="41.302683" lon="-6.554639">
        <ele>627.414</ele>
        <time>2015-03-30T16:15:08Z</time>
      </trkpt>
      <trkpt lat="41.302682" lon="-6.554607">
        <ele>627.434</ele>
        <time>2015-03-30T16:15:09Z</time>
      </trkpt>
      <trkpt lat="41.302687" lon="-6.554576">
        <ele>627.437</ele>
        <time>2015-03-30T16:15:10Z</time>
      </trkpt>
      <trkpt lat="41.302688" lon="-6.554543">
        <ele>626.922</ele>
        <time>2015-03-30T16:15:11Z</time>
      </trkpt>
      <trkpt lat="41.302681" lon="-6.554504">
        <ele>626.958</ele>
        <time>2015-03-30T16:15:12Z</time>
      </trkpt>
      <trkpt lat="41.302677" lon="-6.554466">
        <ele>626.452</ele>
        <time>2015-03-30T16:15:13Z</time>
      </trkpt>
      <trkpt lat="41.302678" lon="-6.554436">
        <ele>626.417</ele>
        <time>2015-03-30T16:15:14Z</time>
      </trkpt>
      <trkpt lat="41.302676" lon="-6.554415">
        <ele>626.407</ele>
        <time>2015-03-30T16:15:15Z</time>
      </trkpt>
      <trkpt lat="41.302672" lon="-6.554390">
        <ele>626.094</ele>
        <time>2015-03-30T16:15:16Z</time>
      </trkpt>
      <trkpt lat="41.302670" lon="-6.554360">
        <ele>625.539</ele>
        <time>2015-03-30T16:15:17Z</time>
      </trkpt>
      <trkpt lat="41.302666" lon="-6.554331">
        <ele>625.524</ele>
        <time>2015-03-30T16:15:18Z</time>
      </trkpt>
      <trkpt lat="41.302662" lon="-6.554307">
        <ele>625.088</ele>
        <time>2015-03-30T16:15:19Z</time>
      </trkpt>
      <trkpt lat="41.302663" lon="-6.554282">
        <ele>625.078</ele>
        <time>2015-03-30T16:15:20Z</time>
      </trkpt>
      <trkpt lat="41.302665" lon="-6.554254">
        <ele>624.521</ele>
        <time>2015-03-30T16:15:21Z</time>
      </trkpt>
      <trkpt lat="41.302670" lon="-6.554230">
        <ele>624.546</ele>
        <time>2015-03-30T16:15:22Z</time>
      </trkpt>
      <trkpt lat="41.302694" lon="-6.554176">
        <ele>623.659</ele>
        <time>2015-03-30T16:15:24Z</time>
      </trkpt>
      <trkpt lat="41.302714" lon="-6.554158">
        <ele>621.603</ele>
        <time>2015-03-30T16:15:25Z</time>
      </trkpt>
      <trkpt lat="41.302729" lon="-6.554143">
        <ele>624.023</ele>
        <time>2015-03-30T16:15:26Z</time>
      </trkpt>
      <trkpt lat="41.302739" lon="-6.554129">
        <ele>624.007</ele>
        <time>2015-03-30T16:15:27Z</time>
      </trkpt>
      <trkpt lat="41.302754" lon="-6.554119">
        <ele>622.184</ele>
        <time>2015-03-30T16:15:28Z</time>
      </trkpt>
      <trkpt lat="41.302774" lon="-6.554112">
        <ele>624.079</ele>
        <time>2015-03-30T16:15:29Z</time>
      </trkpt>
      <trkpt lat="41.302798" lon="-6.554102">
        <ele>622.694</ele>
        <time>2015-03-30T16:15:30Z</time>
      </trkpt>
      <trkpt lat="41.302819" lon="-6.554091">
        <ele>622.658</ele>
        <time>2015-03-30T16:15:31Z</time>
      </trkpt>
      <trkpt lat="41.302834" lon="-6.554084">
        <ele>622.678</ele>
        <time>2015-03-30T16:15:32Z</time>
      </trkpt>
      <trkpt lat="41.302847" lon="-6.554074">
        <ele>622.681</ele>
        <time>2015-03-30T16:15:33Z</time>
      </trkpt>
      <trkpt lat="41.302857" lon="-6.554059">
        <ele>622.126</ele>
        <time>2015-03-30T16:15:34Z</time>
      </trkpt>
      <trkpt lat="41.302865" lon="-6.554045">
        <ele>622.168</ele>
        <time>2015-03-30T16:15:35Z</time>
      </trkpt>
      <trkpt lat="41.302875" lon="-6.554032">
        <ele>621.642</ele>
        <time>2015-03-30T16:15:36Z</time>
      </trkpt>
      <trkpt lat="41.302883" lon="-6.554017">
        <ele>621.626</ele>
        <time>2015-03-30T16:15:37Z</time>
      </trkpt>
      <trkpt lat="41.302884" lon="-6.553996">
        <ele>621.207</ele>
        <time>2015-03-30T16:15:46Z</time>
      </trkpt>
      <trkpt lat="41.302884" lon="-6.554010">
        <ele>621.655</ele>
        <time>2015-03-30T16:15:57Z</time>
      </trkpt>
      <trkpt lat="41.302870" lon="-6.554006">
        <ele>621.680</ele>
        <time>2015-03-30T16:16:16Z</time>
      </trkpt>
      <trkpt lat="41.302868" lon="-6.554009">
        <ele>621.635</ele>
        <time>2015-03-30T16:16:22Z</time>
      </trkpt>
      <trkpt lat="41.302866" lon="-6.553989">
        <ele>621.219</ele>
        <time>2015-03-30T16:16:23Z</time>
      </trkpt>
      <trkpt lat="41.302859" lon="-6.553953">
        <ele>620.729</ele>
        <time>2015-03-30T16:16:24Z</time>
      </trkpt>
      <trkpt lat="41.302853" lon="-6.553940">
        <ele>620.772</ele>
        <time>2015-03-30T16:16:30Z</time>
      </trkpt>
      <trkpt lat="41.302860" lon="-6.553918">
        <ele>620.747</ele>
        <time>2015-03-30T16:16:37Z</time>
      </trkpt>
      <trkpt lat="41.302870" lon="-6.553875">
        <ele>621.289</ele>
        <time>2015-03-30T16:16:50Z</time>
      </trkpt>
      <trkpt lat="41.302867" lon="-6.553894">
        <ele>621.206</ele>
        <time>2015-03-30T16:17:06Z</time>
      </trkpt>
      <trkpt lat="41.302876" lon="-6.553880">
        <ele>621.226</ele>
        <time>2015-03-30T16:17:17Z</time>
      </trkpt>
      <trkpt lat="41.302867" lon="-6.553892">
        <ele>621.207</ele>
        <time>2015-03-30T16:17:45Z</time>
      </trkpt>
      <trkpt lat="41.302857" lon="-6.553882">
        <ele>621.287</ele>
        <time>2015-03-30T16:18:10Z</time>
      </trkpt>
      <trkpt lat="41.302850" lon="-6.553859">
        <ele>621.232</ele>
        <time>2015-03-30T16:18:39Z</time>
      </trkpt>
      <trkpt lat="41.302863" lon="-6.553850">
        <ele>621.277</ele>
        <time>2015-03-30T16:19:06Z</time>
      </trkpt>
      <trkpt lat="41.302868" lon="-6.553839">
        <ele>622.171</ele>
        <time>2015-03-30T16:19:21Z</time>
      </trkpt>
      <trkpt lat="41.302873" lon="-6.553839">
        <ele>622.181</ele>
        <time>2015-03-30T16:19:36Z</time>
      </trkpt>
      <trkpt lat="41.302930" lon="-6.553781">
        <ele>622.114</ele>
        <time>2015-03-30T16:19:45Z</time>
      </trkpt>
      <trkpt lat="41.302955" lon="-6.553724">
        <ele>622.669</ele>
        <time>2015-03-30T16:19:55Z</time>
      </trkpt>
      <trkpt lat="41.302958" lon="-6.553707">
        <ele>622.666</ele>
        <time>2015-03-30T16:20:03Z</time>
      </trkpt>
      <trkpt lat="41.302968" lon="-6.553681">
        <ele>623.129</ele>
        <time>2015-03-30T16:20:05Z</time>
      </trkpt>
      <trkpt lat="41.302984" lon="-6.553622">
        <ele>624.021</ele>
        <time>2015-03-30T16:20:11Z</time>
      </trkpt>
      <trkpt lat="41.302992" lon="-6.553589">
        <ele>625.007</ele>
        <time>2015-03-30T16:20:17Z</time>
      </trkpt>
      <trkpt lat="41.303021" lon="-6.553519">
        <ele>625.565</ele>
        <time>2015-03-30T16:20:26Z</time>
      </trkpt>
      <trkpt lat="41.303017" lon="-6.553457">
        <ele>626.030</ele>
        <time>2015-03-30T16:20:34Z</time>
      </trkpt>
      <trkpt lat="41.303034" lon="-6.553430">
        <ele>626.415</ele>
        <time>2015-03-30T16:20:42Z</time>
      </trkpt>
      <trkpt lat="41.303043" lon="-6.553406">
        <ele>627.449</ele>
        <time>2015-03-30T16:20:48Z</time>
      </trkpt>
      <trkpt lat="41.303045" lon="-6.553358">
        <ele>627.989</ele>
        <time>2015-03-30T16:20:57Z</time>
      </trkpt>
      <trkpt lat="41.303052" lon="-6.553344">
        <ele>628.452</ele>
        <time>2015-03-30T16:21:04Z</time>
      </trkpt>
      <trkpt lat="41.303054" lon="-6.553320">
        <ele>628.847</ele>
        <time>2015-03-30T16:21:11Z</time>
      </trkpt>
      <trkpt lat="41.303059" lon="-6.553289">
        <ele>629.368</ele>
        <time>2015-03-30T16:21:21Z</time>
      </trkpt>
      <trkpt lat="41.303051" lon="-6.553277">
        <ele>629.842</ele>
        <time>2015-03-30T16:21:29Z</time>
      </trkpt>
      <trkpt lat="41.303054" lon="-6.553264">
        <ele>629.826</ele>
        <time>2015-03-30T16:21:42Z</time>
      </trkpt>
      <trkpt lat="41.303071" lon="-6.553240">
        <ele>630.807</ele>
        <time>2015-03-30T16:21:51Z</time>
      </trkpt>
      <trkpt lat="41.303070" lon="-6.553226">
        <ele>630.855</ele>
        <time>2015-03-30T16:22:04Z</time>
      </trkpt>
      <trkpt lat="41.303070" lon="-6.553206">
        <ele>631.720</ele>
        <time>2015-03-30T16:22:14Z</time>
      </trkpt>
      <trkpt lat="41.303067" lon="-6.553194">
        <ele>631.765</ele>
        <time>2015-03-30T16:22:22Z</time>
      </trkpt>
      <trkpt lat="41.303059" lon="-6.553160">
        <ele>632.799</ele>
        <time>2015-03-30T16:22:31Z</time>
      </trkpt>
      <trkpt lat="41.303061" lon="-6.553158">
        <ele>633.259</ele>
        <time>2015-03-30T16:22:41Z</time>
      </trkpt>
      <trkpt lat="41.303056" lon="-6.553138">
        <ele>634.682</ele>
        <time>2015-03-30T16:22:52Z</time>
      </trkpt>
      <trkpt lat="41.303032" lon="-6.553065">
        <ele>635.617</ele>
        <time>2015-03-30T16:23:01Z</time>
      </trkpt>
      <trkpt lat="41.302973" lon="-6.553016">
        <ele>637.544</ele>
        <time>2015-03-30T16:23:13Z</time>
      </trkpt>
      <trkpt lat="41.302939" lon="-6.553034">
        <ele>638.505</ele>
        <time>2015-03-30T16:23:23Z</time>
      </trkpt>
      <trkpt lat="41.302921" lon="-6.553051">
        <ele>638.915</ele>
        <time>2015-03-30T16:23:32Z</time>
      </trkpt>
      <trkpt lat="41.302889" lon="-6.553071">
        <ele>640.407</ele>
        <time>2015-03-30T16:23:40Z</time>
      </trkpt>
      <trkpt lat="41.302858" lon="-6.553099">
        <ele>641.393</ele>
        <time>2015-03-30T16:23:50Z</time>
      </trkpt>
      <trkpt lat="41.302800" lon="-6.553152">
        <ele>642.838</ele>
        <time>2015-03-30T16:24:02Z</time>
      </trkpt>
      <trkpt lat="41.302720" lon="-6.553157">
        <ele>643.723</ele>
        <time>2015-03-30T16:24:15Z</time>
      </trkpt>
      <trkpt lat="41.302705" lon="-6.553137">
        <ele>648.137</ele>
        <time>2015-03-30T16:24:21Z</time>
      </trkpt>
      <trkpt lat="41.302703" lon="-6.553135">
        <ele>644.727</ele>
        <time>2015-03-30T16:24:22Z</time>
      </trkpt>
      <trkpt lat="41.302682" lon="-6.553102">
        <ele>645.290</ele>
        <time>2015-03-30T16:24:36Z</time>
      </trkpt>
      <trkpt lat="41.302692" lon="-6.553071">
        <ele>646.175</ele>
        <time>2015-03-30T16:24:46Z</time>
      </trkpt>
      <trkpt lat="41.302689" lon="-6.553039">
        <ele>646.669</ele>
        <time>2015-03-30T16:24:53Z</time>
      </trkpt>
      <trkpt lat="41.302693" lon="-6.552973">
        <ele>647.604</ele>
        <time>2015-03-30T16:25:03Z</time>
      </trkpt>
      <trkpt lat="41.302697" lon="-6.552938">
        <ele>648.624</ele>
        <time>2015-03-30T16:25:13Z</time>
      </trkpt>
      <trkpt lat="41.302697" lon="-6.552825">
        <ele>649.507</ele>
        <time>2015-03-30T16:25:24Z</time>
      </trkpt>
      <trkpt lat="41.302702" lon="-6.552737">
        <ele>651.085</ele>
        <time>2015-03-30T16:25:34Z</time>
      </trkpt>
      <trkpt lat="41.302704" lon="-6.552648">
        <ele>652.410</ele>
        <time>2015-03-30T16:25:44Z</time>
      </trkpt>
      <trkpt lat="41.302692" lon="-6.552604">
        <ele>653.475</ele>
        <time>2015-03-30T16:25:52Z</time>
      </trkpt>
      <trkpt lat="41.302692" lon="-6.552531">
        <ele>654.889</ele>
        <time>2015-03-30T16:26:01Z</time>
      </trkpt>
      <trkpt lat="41.302697" lon="-6.552444">
        <ele>655.879</ele>
        <time>2015-03-30T16:26:11Z</time>
      </trkpt>
      <trkpt lat="41.302721" lon="-6.552359">
        <ele>657.212</ele>
        <time>2015-03-30T16:26:21Z</time>
      </trkpt>
      <trkpt lat="41.302728" lon="-6.552330">
        <ele>657.797</ele>
        <time>2015-03-30T16:26:24Z</time>
      </trkpt>
      <trkpt lat="41.302752" lon="-6.552251">
        <ele>658.658</ele>
        <time>2015-03-30T16:26:34Z</time>
      </trkpt>
      <trkpt lat="41.302757" lon="-6.552229">
        <ele>658.252</ele>
        <time>2015-03-30T16:26:43Z</time>
      </trkpt>
      <trkpt lat="41.302768" lon="-6.552196">
        <ele>658.217</ele>
        <time>2015-03-30T16:26:54Z</time>
      </trkpt>
      <trkpt lat="41.302774" lon="-6.552182">
        <ele>658.607</ele>
        <time>2015-03-30T16:26:55Z</time>
      </trkpt>
      <trkpt lat="41.302806" lon="-6.552126">
        <ele>658.674</ele>
        <time>2015-03-30T16:26:59Z</time>
      </trkpt>
      <trkpt lat="41.302858" lon="-6.551942">
        <ele>660.639</ele>
        <time>2015-03-30T16:27:10Z</time>
      </trkpt>
      <trkpt lat="41.302921" lon="-6.551771">
        <ele>662.544</ele>
        <time>2015-03-30T16:27:20Z</time>
      </trkpt>
      <trkpt lat="41.302934" lon="-6.551754">
        <ele>662.528</ele>
        <time>2015-03-30T16:27:21Z</time>
      </trkpt>
      <trkpt lat="41.302998" lon="-6.551633">
        <ele>663.528</ele>
        <time>2015-03-30T16:27:29Z</time>
      </trkpt>
      <trkpt lat="41.303031" lon="-6.551560">
        <ele>664.421</ele>
        <time>2015-03-30T16:27:33Z</time>
      </trkpt>
      <trkpt lat="41.303110" lon="-6.551415">
        <ele>665.916</ele>
        <time>2015-03-30T16:27:42Z</time>
      </trkpt>
      <trkpt lat="41.303155" lon="-6.551368">
        <ele>665.951</ele>
        <time>2015-03-30T16:27:46Z</time>
      </trkpt>
      <trkpt lat="41.303262" lon="-6.551265">
        <ele>667.301</ele>
        <time>2015-03-30T16:27:55Z</time>
      </trkpt>
      <trkpt lat="41.303343" lon="-6.551158">
        <ele>668.711</ele>
        <time>2015-03-30T16:28:04Z</time>
      </trkpt>
      <trkpt lat="41.303384" lon="-6.551098">
        <ele>669.207</ele>
        <time>2015-03-30T16:28:10Z</time>
      </trkpt>
      <trkpt lat="41.303453" lon="-6.551013">
        <ele>670.784</ele>
        <time>2015-03-30T16:28:19Z</time>
      </trkpt>
      <trkpt lat="41.303476" lon="-6.550976">
        <ele>671.119</ele>
        <time>2015-03-30T16:28:23Z</time>
      </trkpt>
      <trkpt lat="41.303509" lon="-6.550942">
        <ele>672.144</ele>
        <time>2015-03-30T16:28:27Z</time>
      </trkpt>
      <trkpt lat="41.303545" lon="-6.550878">
        <ele>672.648</ele>
        <time>2015-03-30T16:28:32Z</time>
      </trkpt>
      <trkpt lat="41.303600" lon="-6.550792">
        <ele>673.118</ele>
        <time>2015-03-30T16:28:38Z</time>
      </trkpt>
      <trkpt lat="41.303625" lon="-6.550739">
        <ele>673.511</ele>
        <time>2015-03-30T16:28:41Z</time>
      </trkpt>
      <trkpt lat="41.303681" lon="-6.550668">
        <ele>674.046</ele>
        <time>2015-03-30T16:28:47Z</time>
      </trkpt>
      <trkpt lat="41.303821" lon="-6.550569">
        <ele>675.062</ele>
        <time>2015-03-30T16:28:58Z</time>
      </trkpt>
      <trkpt lat="41.303846" lon="-6.550560">
        <ele>675.583</ele>
        <time>2015-03-30T16:29:00Z</time>
      </trkpt>
      <trkpt lat="41.303897" lon="-6.550522">
        <ele>675.911</ele>
        <time>2015-03-30T16:29:04Z</time>
      </trkpt>
      <trkpt lat="41.304048" lon="-6.550434">
        <ele>676.907</ele>
        <time>2015-03-30T16:29:16Z</time>
      </trkpt>
      <trkpt lat="41.304096" lon="-6.550398">
        <ele>677.465</ele>
        <time>2015-03-30T16:29:20Z</time>
      </trkpt>
      <trkpt lat="41.304156" lon="-6.550329">
        <ele>678.420</ele>
        <time>2015-03-30T16:29:26Z</time>
      </trkpt>
      <trkpt lat="41.304286" lon="-6.550186">
        <ele>680.355</ele>
        <time>2015-03-30T16:29:37Z</time>
      </trkpt>
      <trkpt lat="41.304403" lon="-6.550069">
        <ele>682.299</ele>
        <time>2015-03-30T16:29:47Z</time>
      </trkpt>
      <trkpt lat="41.304461" lon="-6.550007">
        <ele>683.269</ele>
        <time>2015-03-30T16:29:52Z</time>
      </trkpt>
      <trkpt lat="41.304529" lon="-6.549939">
        <ele>684.152</ele>
        <time>2015-03-30T16:29:59Z</time>
      </trkpt>
      <trkpt lat="41.304595" lon="-6.549893">
        <ele>684.687</ele>
        <time>2015-03-30T16:30:05Z</time>
      </trkpt>
      <trkpt lat="41.304698" lon="-6.549887">
        <ele>686.048</ele>
        <time>2015-03-30T16:30:14Z</time>
      </trkpt>
      <trkpt lat="41.304781" lon="-6.549888">
        <ele>686.561</ele>
        <time>2015-03-30T16:30:22Z</time>
      </trkpt>
      <trkpt lat="41.304909" lon="-6.549856">
        <ele>688.017</ele>
        <time>2015-03-30T16:30:32Z</time>
      </trkpt>
      <trkpt lat="41.305047" lon="-6.549795">
        <ele>689.407</ele>
        <time>2015-03-30T16:30:43Z</time>
      </trkpt>
      <trkpt lat="41.305165" lon="-6.549669">
        <ele>691.363</ele>
        <time>2015-03-30T16:30:55Z</time>
      </trkpt>
      <trkpt lat="41.305223" lon="-6.549587">
        <ele>692.898</ele>
        <time>2015-03-30T16:31:02Z</time>
      </trkpt>
      <trkpt lat="41.305239" lon="-6.549554">
        <ele>693.323</ele>
        <time>2015-03-30T16:31:05Z</time>
      </trkpt>
      <trkpt lat="41.305252" lon="-6.549467">
        <ele>693.747</ele>
        <time>2015-03-30T16:31:10Z</time>
      </trkpt>
      <trkpt lat="41.305278" lon="-6.549397">
        <ele>694.277</ele>
        <time>2015-03-30T16:31:15Z</time>
      </trkpt>
      <trkpt lat="41.305281" lon="-6.549365">
        <ele>694.290</ele>
        <time>2015-03-30T16:31:17Z</time>
      </trkpt>
      <trkpt lat="41.305300" lon="-6.549291">
        <ele>695.265</ele>
        <time>2015-03-30T16:31:22Z</time>
      </trkpt>
      <trkpt lat="41.305320" lon="-6.549208">
        <ele>695.789</ele>
        <time>2015-03-30T16:31:28Z</time>
      </trkpt>
      <trkpt lat="41.305346" lon="-6.549093">
        <ele>696.606</ele>
        <time>2015-03-30T16:31:36Z</time>
      </trkpt>
      <trkpt lat="41.305366" lon="-6.549002">
        <ele>697.626</ele>
        <time>2015-03-30T16:31:42Z</time>
      </trkpt>
      <trkpt lat="41.305371" lon="-6.548972">
        <ele>697.607</ele>
        <time>2015-03-30T16:31:44Z</time>
      </trkpt>
      <trkpt lat="41.305413" lon="-6.548814">
        <ele>699.087</ele>
        <time>2015-03-30T16:31:54Z</time>
      </trkpt>
      <trkpt lat="41.305434" lon="-6.548681">
        <ele>700.982</ele>
        <time>2015-03-30T16:32:04Z</time>
      </trkpt>
      <trkpt lat="41.305451" lon="-6.548517">
        <ele>702.437</ele>
        <time>2015-03-30T16:32:15Z</time>
      </trkpt>
      <trkpt lat="41.305465" lon="-6.548404">
        <ele>704.321</ele>
        <time>2015-03-30T16:32:23Z</time>
      </trkpt>
      <trkpt lat="41.305459" lon="-6.548364">
        <ele>704.831</ele>
        <time>2015-03-30T16:32:26Z</time>
      </trkpt>
      <trkpt lat="41.305481" lon="-6.548269">
        <ele>705.814</ele>
        <time>2015-03-30T16:32:33Z</time>
      </trkpt>
      <trkpt lat="41.305491" lon="-6.548106">
        <ele>706.799</ele>
        <time>2015-03-30T16:32:43Z</time>
      </trkpt>
      <trkpt lat="41.305486" lon="-6.548065">
        <ele>706.738</ele>
        <time>2015-03-30T16:32:45Z</time>
      </trkpt>
      <trkpt lat="41.305487" lon="-6.547998">
        <ele>707.270</ele>
        <time>2015-03-30T16:32:49Z</time>
      </trkpt>
      <trkpt lat="41.305488" lon="-6.547927">
        <ele>707.717</ele>
        <time>2015-03-30T16:32:53Z</time>
      </trkpt>
      <trkpt lat="41.305538" lon="-6.547744">
        <ele>708.607</ele>
        <time>2015-03-30T16:33:04Z</time>
      </trkpt>
      <trkpt lat="41.305561" lon="-6.547684">
        <ele>709.162</ele>
        <time>2015-03-30T16:33:08Z</time>
      </trkpt>
      <trkpt lat="41.305588" lon="-6.547623">
        <ele>709.647</ele>
        <time>2015-03-30T16:33:12Z</time>
      </trkpt>
      <trkpt lat="41.305609" lon="-6.547592">
        <ele>709.672</ele>
        <time>2015-03-30T16:33:14Z</time>
      </trkpt>
      <trkpt lat="41.305647" lon="-6.547498">
        <ele>711.066</ele>
        <time>2015-03-30T16:33:21Z</time>
      </trkpt>
      <trkpt lat="41.305695" lon="-6.547289">
        <ele>711.566</ele>
        <time>2015-03-30T16:33:33Z</time>
      </trkpt>
      <trkpt lat="41.305708" lon="-6.547224">
        <ele>712.019</ele>
        <time>2015-03-30T16:33:36Z</time>
      </trkpt>
      <trkpt lat="41.305735" lon="-6.547023">
        <ele>713.444</ele>
        <time>2015-03-30T16:33:46Z</time>
      </trkpt>
      <trkpt lat="41.305761" lon="-6.546896">
        <ele>714.497</ele>
        <time>2015-03-30T16:33:52Z</time>
      </trkpt>
      <trkpt lat="41.305807" lon="-6.546774">
        <ele>715.423</ele>
        <time>2015-03-30T16:33:58Z</time>
      </trkpt>
      <trkpt lat="41.305866" lon="-6.546619">
        <ele>716.325</ele>
        <time>2015-03-30T16:34:07Z</time>
      </trkpt>
      <trkpt lat="41.305885" lon="-6.546505">
        <ele>716.807</ele>
        <time>2015-03-30T16:34:13Z</time>
      </trkpt>
      <trkpt lat="41.305939" lon="-6.546254">
        <ele>717.378</ele>
        <time>2015-03-30T16:34:25Z</time>
      </trkpt>
      <trkpt lat="41.305945" lon="-6.546063">
        <ele>718.233</ele>
        <time>2015-03-30T16:34:34Z</time>
      </trkpt>
      <trkpt lat="41.305944" lon="-6.546041">
        <ele>718.228</ele>
        <time>2015-03-30T16:34:35Z</time>
      </trkpt>
      <trkpt lat="41.305879" lon="-6.545939">
        <ele>718.792</ele>
        <time>2015-03-30T16:34:42Z</time>
      </trkpt>
      <trkpt lat="41.305768" lon="-6.545741">
        <ele>717.842</ele>
        <time>2015-03-30T16:34:50Z</time>
      </trkpt>
      <trkpt lat="41.305786" lon="-6.545549">
        <ele>718.755</ele>
        <time>2015-03-30T16:34:58Z</time>
      </trkpt>
      <trkpt lat="41.305798" lon="-6.545504">
        <ele>719.270</ele>
        <time>2015-03-30T16:35:00Z</time>
      </trkpt>
      <trkpt lat="41.305819" lon="-6.545459">
        <ele>719.796</ele>
        <time>2015-03-30T16:35:02Z</time>
      </trkpt>
      <trkpt lat="41.305859" lon="-6.545224">
        <ele>719.731</ele>
        <time>2015-03-30T16:35:11Z</time>
      </trkpt>
      <trkpt lat="41.305865" lon="-6.544989">
        <ele>720.224</ele>
        <time>2015-03-30T16:35:20Z</time>
      </trkpt>
      <trkpt lat="41.305871" lon="-6.544973">
        <ele>720.207</ele>
        <time>2015-03-30T16:35:21Z</time>
      </trkpt>
      <trkpt lat="41.305884" lon="-6.544835">
        <ele>721.148</ele>
        <time>2015-03-30T16:35:27Z</time>
      </trkpt>
      <trkpt lat="41.306037" lon="-6.544557">
        <ele>723.163</ele>
        <time>2015-03-30T16:35:41Z</time>
      </trkpt>
      <trkpt lat="41.306196" lon="-6.544323">
        <ele>724.528</ele>
        <time>2015-03-30T16:35:54Z</time>
      </trkpt>
      <trkpt lat="41.306335" lon="-6.544089">
        <ele>724.572</ele>
        <time>2015-03-30T16:36:05Z</time>
      </trkpt>
      <trkpt lat="41.306501" lon="-6.543850">
        <ele>723.162</ele>
        <time>2015-03-30T16:36:13Z</time>
      </trkpt>
      <trkpt lat="41.306530" lon="-6.543804">
        <ele>723.165</ele>
        <time>2015-03-30T16:36:14Z</time>
      </trkpt>
      <trkpt lat="41.306560" lon="-6.543756">
        <ele>722.650</ele>
        <time>2015-03-30T16:36:15Z</time>
      </trkpt>
      <trkpt lat="41.306619" lon="-6.543672">
        <ele>722.145</ele>
        <time>2015-03-30T16:36:17Z</time>
      </trkpt>
      <trkpt lat="41.306644" lon="-6.543631">
        <ele>722.147</ele>
        <time>2015-03-30T16:36:18Z</time>
      </trkpt>
      <trkpt lat="41.306902" lon="-6.543207">
        <ele>723.111</ele>
        <time>2015-03-30T16:36:30Z</time>
      </trkpt>
      <trkpt lat="41.307177" lon="-6.542805">
        <ele>723.507</ele>
        <time>2015-03-30T16:36:42Z</time>
      </trkpt>
      <trkpt lat="41.307395" lon="-6.542578">
        <ele>725.543</ele>
        <time>2015-03-30T16:36:52Z</time>
      </trkpt>
      <trkpt lat="41.307460" lon="-6.542533">
        <ele>726.458</ele>
        <time>2015-03-30T16:36:55Z</time>
      </trkpt>
      <trkpt lat="41.307674" lon="-6.542453">
        <ele>727.463</ele>
        <time>2015-03-30T16:37:05Z</time>
      </trkpt>
      <trkpt lat="41.307912" lon="-6.542610">
        <ele>727.937</ele>
        <time>2015-03-30T16:37:15Z</time>
      </trkpt>
      <trkpt lat="41.308226" lon="-6.542815">
        <ele>727.937</ele>
        <time>2015-03-30T16:37:27Z</time>
      </trkpt>
      <trkpt lat="41.308559" lon="-6.543090">
        <ele>728.330</ele>
        <time>2015-03-30T16:37:40Z</time>
      </trkpt>
      <trkpt lat="41.308836" lon="-6.543325">
        <ele>728.895</ele>
        <time>2015-03-30T16:37:51Z</time>
      </trkpt>
      <trkpt lat="41.309129" lon="-6.543557">
        <ele>730.324</ele>
        <time>2015-03-30T16:38:03Z</time>
      </trkpt>
      <trkpt lat="41.309325" lon="-6.543710">
        <ele>731.204</ele>
        <time>2015-03-30T16:38:12Z</time>
      </trkpt>
      <trkpt lat="41.309553" lon="-6.543838">
        <ele>732.714</ele>
        <time>2015-03-30T16:38:22Z</time>
      </trkpt>
      <trkpt lat="41.309855" lon="-6.543982">
        <ele>733.607</ele>
        <time>2015-03-30T16:38:35Z</time>
      </trkpt>
      <trkpt lat="41.310105" lon="-6.544110">
        <ele>735.181</ele>
        <time>2015-03-30T16:38:47Z</time>
      </trkpt>
      <trkpt lat="41.310372" lon="-6.544247">
        <ele>735.626</ele>
        <time>2015-03-30T16:38:58Z</time>
      </trkpt>
      <trkpt lat="41.310603" lon="-6.544322">
        <ele>737.031</ele>
        <time>2015-03-30T16:39:08Z</time>
      </trkpt>
      <trkpt lat="41.310853" lon="-6.544426">
        <ele>738.445</ele>
        <time>2015-03-30T16:39:20Z</time>
      </trkpt>
      <trkpt lat="41.311095" lon="-6.544467">
        <ele>739.985</ele>
        <time>2015-03-30T16:39:31Z</time>
      </trkpt>
      <trkpt lat="41.311341" lon="-6.544508">
        <ele>740.498</ele>
        <time>2015-03-30T16:39:42Z</time>
      </trkpt>
      <trkpt lat="41.311601" lon="-6.544494">
        <ele>742.363</ele>
        <time>2015-03-30T16:39:53Z</time>
      </trkpt>
      <trkpt lat="41.311670" lon="-6.544475">
        <ele>742.839</ele>
        <time>2015-03-30T16:39:56Z</time>
      </trkpt>
      <trkpt lat="41.311693" lon="-6.544476">
        <ele>742.801</ele>
        <time>2015-03-30T16:39:57Z</time>
      </trkpt>
      <trkpt lat="41.311874" lon="-6.544443">
        <ele>743.721</ele>
        <time>2015-03-30T16:40:06Z</time>
      </trkpt>
      <trkpt lat="41.311893" lon="-6.544443">
        <ele>743.707</ele>
        <time>2015-03-30T16:40:07Z</time>
      </trkpt>
      <trkpt lat="41.311913" lon="-6.544441">
        <ele>744.232</ele>
        <time>2015-03-30T16:40:08Z</time>
      </trkpt>
      <trkpt lat="41.311932" lon="-6.544442">
        <ele>744.277</ele>
        <time>2015-03-30T16:40:09Z</time>
      </trkpt>
      <trkpt lat="41.311950" lon="-6.544443">
        <ele>744.212</ele>
        <time>2015-03-30T16:40:10Z</time>
      </trkpt>
      <trkpt lat="41.312153" lon="-6.544458">
        <ele>744.756</ele>
        <time>2015-03-30T16:40:20Z</time>
      </trkpt>
      <trkpt lat="41.312280" lon="-6.544473">
        <ele>745.666</ele>
        <time>2015-03-30T16:40:26Z</time>
      </trkpt>
      <trkpt lat="41.312303" lon="-6.544472">
        <ele>746.129</ele>
        <time>2015-03-30T16:40:27Z</time>
      </trkpt>
      <trkpt lat="41.312588" lon="-6.544562">
        <ele>746.134</ele>
        <time>2015-03-30T16:40:40Z</time>
      </trkpt>
      <trkpt lat="41.312838" lon="-6.544712">
        <ele>745.261</ele>
        <time>2015-03-30T16:40:50Z</time>
      </trkpt>
      <trkpt lat="41.312966" lon="-6.544774">
        <ele>744.221</ele>
        <time>2015-03-30T16:40:54Z</time>
      </trkpt>
      <trkpt lat="41.313004" lon="-6.544788">
        <ele>743.213</ele>
        <time>2015-03-30T16:40:55Z</time>
      </trkpt>
      <trkpt lat="41.313347" lon="-6.544887">
        <ele>741.807</ele>
        <time>2015-03-30T16:41:02Z</time>
      </trkpt>
      <trkpt lat="41.313571" lon="-6.544919">
        <ele>741.885</ele>
        <time>2015-03-30T16:41:06Z</time>
      </trkpt>
      <trkpt lat="41.313627" lon="-6.544925">
        <ele>741.310</ele>
        <time>2015-03-30T16:41:07Z</time>
      </trkpt>
      <trkpt lat="41.313888" lon="-6.544971">
        <ele>742.315</ele>
        <time>2015-03-30T16:41:12Z</time>
      </trkpt>
      <trkpt lat="41.314017" lon="-6.545031">
        <ele>741.319</ele>
        <time>2015-03-30T16:41:15Z</time>
      </trkpt>
      <trkpt lat="41.314184" lon="-6.545165">
        <ele>740.819</ele>
        <time>2015-03-30T16:41:20Z</time>
      </trkpt>
      <trkpt lat="41.314300" lon="-6.545326">
        <ele>740.462</ele>
        <time>2015-03-30T16:41:24Z</time>
      </trkpt>
      <trkpt lat="41.314329" lon="-6.545365">
        <ele>740.457</ele>
        <time>2015-03-30T16:41:25Z</time>
      </trkpt>
      <trkpt lat="41.314357" lon="-6.545405">
        <ele>740.496</ele>
        <time>2015-03-30T16:41:26Z</time>
      </trkpt>
      <trkpt lat="41.314382" lon="-6.545444">
        <ele>740.831</ele>
        <time>2015-03-30T16:41:27Z</time>
      </trkpt>
      <trkpt lat="41.314406" lon="-6.545481">
        <ele>740.824</ele>
        <time>2015-03-30T16:41:28Z</time>
      </trkpt>
      <trkpt lat="41.314429" lon="-6.545525">
        <ele>740.807</ele>
        <time>2015-03-30T16:41:29Z</time>
      </trkpt>
      <trkpt lat="41.314449" lon="-6.545575">
        <ele>740.858</ele>
        <time>2015-03-30T16:41:30Z</time>
      </trkpt>
      <trkpt lat="41.314468" lon="-6.545627">
        <ele>740.873</ele>
        <time>2015-03-30T16:41:31Z</time>
      </trkpt>
      <trkpt lat="41.314489" lon="-6.545680">
        <ele>740.878</ele>
        <time>2015-03-30T16:41:32Z</time>
      </trkpt>
      <trkpt lat="41.314509" lon="-6.545731">
        <ele>740.862</ele>
        <time>2015-03-30T16:41:33Z</time>
      </trkpt>
      <trkpt lat="41.314708" lon="-6.546301">
        <ele>740.462</ele>
        <time>2015-03-30T16:41:44Z</time>
      </trkpt>
      <trkpt lat="41.314869" lon="-6.546798">
        <ele>740.475</ele>
        <time>2015-03-30T16:41:54Z</time>
      </trkpt>
      <trkpt lat="41.315072" lon="-6.547194">
        <ele>740.410</ele>
        <time>2015-03-30T16:42:03Z</time>
      </trkpt>
      <trkpt lat="41.315235" lon="-6.547715">
        <ele>739.444</ele>
        <time>2015-03-30T16:42:14Z</time>
      </trkpt>
      <trkpt lat="41.315372" lon="-6.548249">
        <ele>739.405</ele>
        <time>2015-03-30T16:42:25Z</time>
      </trkpt>
      <trkpt lat="41.315514" lon="-6.548783">
        <ele>738.915</ele>
        <time>2015-03-30T16:42:36Z</time>
      </trkpt>
      <trkpt lat="41.315732" lon="-6.549381">
        <ele>738.907</ele>
        <time>2015-03-30T16:42:49Z</time>
      </trkpt>
      <trkpt lat="41.315786" lon="-6.549516">
        <ele>738.923</ele>
        <time>2015-03-30T16:42:52Z</time>
      </trkpt>
      <trkpt lat="41.315807" lon="-6.549560">
        <ele>738.938</ele>
        <time>2015-03-30T16:42:53Z</time>
      </trkpt>
      <trkpt lat="41.315971" lon="-6.549961">
        <ele>738.433</ele>
        <time>2015-03-30T16:43:02Z</time>
      </trkpt>
      <trkpt lat="41.316084" lon="-6.550229">
        <ele>738.917</ele>
        <time>2015-03-30T16:43:08Z</time>
      </trkpt>
      <trkpt lat="41.316105" lon="-6.550273">
        <ele>738.987</ele>
        <time>2015-03-30T16:43:09Z</time>
      </trkpt>
      <trkpt lat="41.316125" lon="-6.550318">
        <ele>738.460</ele>
        <time>2015-03-30T16:43:10Z</time>
      </trkpt>
      <trkpt lat="41.316342" lon="-6.550858">
        <ele>737.585</ele>
        <time>2015-03-30T16:43:21Z</time>
      </trkpt>
      <trkpt lat="41.316493" lon="-6.551416">
        <ele>738.479</ele>
        <time>2015-03-30T16:43:32Z</time>
      </trkpt>
      <trkpt lat="41.316516" lon="-6.551502">
        <ele>737.005</ele>
        <time>2015-03-30T16:43:38Z</time>
      </trkpt>
      <trkpt lat="41.316519" lon="-6.551501">
        <ele>733.625</ele>
        <time>2015-03-30T16:43:41Z</time>
      </trkpt>
      <trkpt lat="41.316520" lon="-6.551501">
        <ele>738.907</ele>
        <time>2015-03-30T16:43:42Z</time>
      </trkpt>
      <trkpt lat="41.316523" lon="-6.551502">
        <ele>738.036</ele>
        <time>2015-03-30T16:43:46Z</time>
      </trkpt>
      <trkpt lat="41.316525" lon="-6.551502">
        <ele>733.651</ele>
        <time>2015-03-30T16:43:51Z</time>
      </trkpt>
      <trkpt lat="41.316525" lon="-6.551502">
        <ele>741.896</ele>
        <time>2015-03-30T16:43:52Z</time>
      </trkpt>
      <trkpt lat="41.316524" lon="-6.551501">
        <ele>738.020</ele>
        <time>2015-03-30T16:43:53Z</time>
      </trkpt>
      <trkpt lat="41.316526" lon="-6.551504">
        <ele>736.050</ele>
        <time>2015-03-30T16:43:57Z</time>
      </trkpt>
      <trkpt lat="41.316526" lon="-6.551505">
        <ele>740.453</ele>
        <time>2015-03-30T16:43:58Z</time>
      </trkpt>
      <trkpt lat="41.316526" lon="-6.551505">
        <ele>733.188</ele>
        <time>2015-03-30T16:43:59Z</time>
      </trkpt>
      <trkpt lat="41.316525" lon="-6.551507">
        <ele>739.962</ele>
        <time>2015-03-30T16:44:00Z</time>
      </trkpt>
      <trkpt lat="41.316525" lon="-6.551507">
        <ele>742.883</ele>
        <time>2015-03-30T16:44:01Z</time>
      </trkpt>
      <trkpt lat="41.316526" lon="-6.551508">
        <ele>735.111</ele>
        <time>2015-03-30T16:44:02Z</time>
      </trkpt>
      <trkpt lat="41.316526" lon="-6.551508">
        <ele>739.407</ele>
        <time>2015-03-30T16:44:03Z</time>
      </trkpt>
      <trkpt lat="41.316527" lon="-6.551507">
        <ele>734.655</ele>
        <time>2015-03-30T16:44:07Z</time>
      </trkpt>
      <trkpt lat="41.316526" lon="-6.551507">
        <ele>740.420</ele>
        <time>2015-03-30T16:44:08Z</time>
      </trkpt>
      <trkpt lat="41.316527" lon="-6.551507">
        <ele>736.515</ele>
        <time>2015-03-30T16:44:09Z</time>
      </trkpt>
      <trkpt lat="41.316537" lon="-6.551516">
        <ele>737.599</ele>
        <time>2015-03-30T16:44:12Z</time>
      </trkpt>
      <trkpt lat="41.316750" lon="-6.551669">
        <ele>735.669</ele>
        <time>2015-03-30T16:44:20Z</time>
      </trkpt>
      <trkpt lat="41.317044" lon="-6.551811">
        <ele>734.132</ele>
        <time>2015-03-30T16:44:29Z</time>
      </trkpt>
      <trkpt lat="41.317517" lon="-6.551960">
        <ele>731.267</ele>
        <time>2015-03-30T16:44:39Z</time>
      </trkpt>
      <trkpt lat="41.317571" lon="-6.551973">
        <ele>731.271</ele>
        <time>2015-03-30T16:44:40Z</time>
      </trkpt>
      <trkpt lat="41.317618" lon="-6.551986">
        <ele>731.241</ele>
        <time>2015-03-30T16:44:41Z</time>
      </trkpt>
      <trkpt lat="41.317973" lon="-6.552062">
        <ele>727.415</ele>
        <time>2015-03-30T16:44:48Z</time>
      </trkpt>
      <trkpt lat="41.318022" lon="-6.552073">
        <ele>727.407</ele>
        <time>2015-03-30T16:44:49Z</time>
      </trkpt>
      <trkpt lat="41.318072" lon="-6.552087">
        <ele>727.426</ele>
        <time>2015-03-30T16:44:50Z</time>
      </trkpt>
      <trkpt lat="41.318250" lon="-6.552134">
        <ele>727.471</ele>
        <time>2015-03-30T16:44:54Z</time>
      </trkpt>
      <trkpt lat="41.318277" lon="-6.552115">
        <ele>727.426</ele>
        <time>2015-03-30T16:44:55Z</time>
      </trkpt>
      <trkpt lat="41.318290" lon="-6.552081">
        <ele>726.930</ele>
        <time>2015-03-30T16:44:56Z</time>
      </trkpt>
      <trkpt lat="41.318285" lon="-6.552036">
        <ele>726.460</ele>
        <time>2015-03-30T16:44:57Z</time>
      </trkpt>
      <trkpt lat="41.318279" lon="-6.551989">
        <ele>724.563</ele>
        <time>2015-03-30T16:44:58Z</time>
      </trkpt>
      <trkpt lat="41.318268" lon="-6.551890">
        <ele>728.328</ele>
        <time>2015-03-30T16:45:00Z</time>
      </trkpt>
      <trkpt lat="41.318266" lon="-6.551836">
        <ele>725.086</ele>
        <time>2015-03-30T16:45:01Z</time>
      </trkpt>
      <trkpt lat="41.318271" lon="-6.551472">
        <ele>725.560</ele>
        <time>2015-03-30T16:45:07Z</time>
      </trkpt>
      <trkpt lat="41.318275" lon="-6.551407">
        <ele>725.526</ele>
        <time>2015-03-30T16:45:08Z</time>
      </trkpt>
      <trkpt lat="41.318282" lon="-6.551340">
        <ele>725.507</ele>
        <time>2015-03-30T16:45:09Z</time>
      </trkpt>
      <trkpt lat="41.318438" lon="-6.550627">
        <ele>723.117</ele>
        <time>2015-03-30T16:45:18Z</time>
      </trkpt>
      <trkpt lat="41.318672" lon="-6.549690">
        <ele>720.272</ele>
        <time>2015-03-30T16:45:28Z</time>
      </trkpt>
      <trkpt lat="41.318882" lon="-6.548741">
        <ele>718.287</ele>
        <time>2015-03-30T16:45:38Z</time>
      </trkpt>
      <trkpt lat="41.318890" lon="-6.548650">
        <ele>718.241</ele>
        <time>2015-03-30T16:45:39Z</time>
      </trkpt>
      <trkpt lat="41.318835" lon="-6.547831">
        <ele>717.821</ele>
        <time>2015-03-30T16:45:48Z</time>
      </trkpt>
      <trkpt lat="41.318710" lon="-6.546989">
        <ele>716.814</ele>
        <time>2015-03-30T16:45:58Z</time>
      </trkpt>
      <trkpt lat="41.318572" lon="-6.546217">
        <ele>716.399</ele>
        <time>2015-03-30T16:46:07Z</time>
      </trkpt>
      <trkpt lat="41.318425" lon="-6.545160">
        <ele>716.825</ele>
        <time>2015-03-30T16:46:20Z</time>
      </trkpt>
      <trkpt lat="41.318380" lon="-6.544460">
        <ele>717.826</ele>
        <time>2015-03-30T16:46:29Z</time>
      </trkpt>
      <trkpt lat="41.318388" lon="-6.543929">
        <ele>718.708</ele>
        <time>2015-03-30T16:46:36Z</time>
      </trkpt>
      <trkpt lat="41.318280" lon="-6.543078">
        <ele>719.707</ele>
        <time>2015-03-30T16:46:48Z</time>
      </trkpt>
      <trkpt lat="41.318265" lon="-6.543010">
        <ele>719.751</ele>
        <time>2015-03-30T16:46:49Z</time>
      </trkpt>
      <trkpt lat="41.318248" lon="-6.542941">
        <ele>719.296</ele>
        <time>2015-03-30T16:46:50Z</time>
      </trkpt>
      <trkpt lat="41.318026" lon="-6.542161">
        <ele>717.381</ele>
        <time>2015-03-30T16:47:01Z</time>
      </trkpt>
      <trkpt lat="41.317760" lon="-6.541289">
        <ele>714.945</ele>
        <time>2015-03-30T16:47:11Z</time>
      </trkpt>
      <trkpt lat="41.317729" lon="-6.541196">
        <ele>714.975</ele>
        <time>2015-03-30T16:47:12Z</time>
      </trkpt>
      <trkpt lat="41.317575" lon="-6.540580">
        <ele>711.578</ele>
        <time>2015-03-30T16:47:18Z</time>
      </trkpt>
      <trkpt lat="41.317557" lon="-6.540343">
        <ele>711.073</ele>
        <time>2015-03-30T16:47:20Z</time>
      </trkpt>
      <trkpt lat="41.317552" lon="-6.540094">
        <ele>707.299</ele>
        <time>2015-03-30T16:47:22Z</time>
      </trkpt>
      <trkpt lat="41.317563" lon="-6.539552">
        <ele>703.807</ele>
        <time>2015-03-30T16:47:26Z</time>
      </trkpt>
      <trkpt lat="41.317571" lon="-6.539095">
        <ele>700.527</ele>
        <time>2015-03-30T16:47:29Z</time>
      </trkpt>
      <trkpt lat="41.317574" lon="-6.538602">
        <ele>696.607</ele>
        <time>2015-03-30T16:47:32Z</time>
      </trkpt>
      <trkpt lat="41.317568" lon="-6.538075">
        <ele>692.838</ele>
        <time>2015-03-30T16:47:35Z</time>
      </trkpt>
      <trkpt lat="41.317557" lon="-6.537532">
        <ele>688.953</ele>
        <time>2015-03-30T16:47:38Z</time>
      </trkpt>
      <trkpt lat="41.317531" lon="-6.537180">
        <ele>688.048</ele>
        <time>2015-03-30T16:47:40Z</time>
      </trkpt>
      <trkpt lat="41.317472" lon="-6.535814">
        <ele>687.572</ele>
        <time>2015-03-30T16:47:49Z</time>
      </trkpt>
      <trkpt lat="41.317440" lon="-6.534404">
        <ele>683.632</ele>
        <time>2015-03-30T16:48:00Z</time>
      </trkpt>
      <trkpt lat="41.317443" lon="-6.534278">
        <ele>688.055</ele>
        <time>2015-03-30T16:48:01Z</time>
      </trkpt>
      <trkpt lat="41.317458" lon="-6.533891">
        <ele>684.670</ele>
        <time>2015-03-30T16:48:04Z</time>
      </trkpt>
      <trkpt lat="41.317473" lon="-6.533199">
        <ele>681.292</ele>
        <time>2015-03-30T16:48:09Z</time>
      </trkpt>
      <trkpt lat="41.317505" lon="-6.532608">
        <ele>677.473</ele>
        <time>2015-03-30T16:48:13Z</time>
      </trkpt>
      <trkpt lat="41.317558" lon="-6.531986">
        <ele>673.520</ele>
        <time>2015-03-30T16:48:17Z</time>
      </trkpt>
      <trkpt lat="41.317602" lon="-6.531358">
        <ele>669.707</ele>
        <time>2015-03-30T16:48:21Z</time>
      </trkpt>
      <trkpt lat="41.317596" lon="-6.531195">
        <ele>668.728</ele>
        <time>2015-03-30T16:48:22Z</time>
      </trkpt>
      <trkpt lat="41.317574" lon="-6.531032">
        <ele>667.813</ele>
        <time>2015-03-30T16:48:23Z</time>
      </trkpt>
      <trkpt lat="41.317536" lon="-6.530872">
        <ele>666.838</ele>
        <time>2015-03-30T16:48:24Z</time>
      </trkpt>
      <trkpt lat="41.317486" lon="-6.530721">
        <ele>664.962</ele>
        <time>2015-03-30T16:48:25Z</time>
      </trkpt>
      <trkpt lat="41.317431" lon="-6.530580">
        <ele>664.982</ele>
        <time>2015-03-30T16:48:26Z</time>
      </trkpt>
      <trkpt lat="41.317193" lon="-6.529965">
        <ele>666.335</ele>
        <time>2015-03-30T16:48:31Z</time>
      </trkpt>
      <trkpt lat="41.317169" lon="-6.529856">
        <ele>667.330</ele>
        <time>2015-03-30T16:48:32Z</time>
      </trkpt>
      <trkpt lat="41.317112" lon="-6.529443">
        <ele>666.371</ele>
        <time>2015-03-30T16:48:37Z</time>
      </trkpt>
      <trkpt lat="41.317111" lon="-6.529394">
        <ele>674.041</ele>
        <time>2015-03-30T16:48:38Z</time>
      </trkpt>
      <trkpt lat="41.317114" lon="-6.529356">
        <ele>671.615</ele>
        <time>2015-03-30T16:48:39Z</time>
      </trkpt>
      <trkpt lat="41.317112" lon="-6.529254">
        <ele>672.607</ele>
        <time>2015-03-30T16:48:43Z</time>
      </trkpt>
      <trkpt lat="41.317115" lon="-6.529238">
        <ele>672.696</ele>
        <time>2015-03-30T16:48:44Z</time>
      </trkpt>
      <trkpt lat="41.317143" lon="-6.529212">
        <ele>673.191</ele>
        <time>2015-03-30T16:48:47Z</time>
      </trkpt>
      <trkpt lat="41.317152" lon="-6.529194">
        <ele>673.176</ele>
        <time>2015-03-30T16:48:48Z</time>
      </trkpt>
      <trkpt lat="41.317156" lon="-6.529175">
        <ele>673.110</ele>
        <time>2015-03-30T16:48:49Z</time>
      </trkpt>
      <trkpt lat="41.317168" lon="-6.529123">
        <ele>673.510</ele>
        <time>2015-03-30T16:48:52Z</time>
      </trkpt>
      <trkpt lat="41.317175" lon="-6.529104">
        <ele>674.523</ele>
        <time>2015-03-30T16:48:53Z</time>
      </trkpt>
      <trkpt lat="41.317175" lon="-6.529082">
        <ele>674.078</ele>
        <time>2015-03-30T16:48:54Z</time>
      </trkpt>
      <trkpt lat="41.317182" lon="-6.529015">
        <ele>674.565</ele>
        <time>2015-03-30T16:48:57Z</time>
      </trkpt>
      <trkpt lat="41.317191" lon="-6.528999">
        <ele>674.568</ele>
        <time>2015-03-30T16:48:58Z</time>
      </trkpt>
      <trkpt lat="41.317201" lon="-6.528992">
        <ele>674.514</ele>
        <time>2015-03-30T16:48:59Z</time>
      </trkpt>
      <trkpt lat="41.317213" lon="-6.528985">
        <ele>675.007</ele>
        <time>2015-03-30T16:49:00Z</time>
      </trkpt>
      <trkpt lat="41.317224" lon="-6.528975">
        <ele>675.085</ele>
        <time>2015-03-30T16:49:01Z</time>
      </trkpt>
      <trkpt lat="41.317234" lon="-6.528961">
        <ele>675.060</ele>
        <time>2015-03-30T16:49:02Z</time>
      </trkpt>
      <trkpt lat="41.317246" lon="-6.528940">
        <ele>675.515</ele>
        <time>2015-03-30T16:49:03Z</time>
      </trkpt>
      <trkpt lat="41.317259" lon="-6.528914">
        <ele>675.569</ele>
        <time>2015-03-30T16:49:04Z</time>
      </trkpt>
      <trkpt lat="41.317272" lon="-6.528888">
        <ele>675.549</ele>
        <time>2015-03-30T16:49:05Z</time>
      </trkpt>
      <trkpt lat="41.317280" lon="-6.528859">
        <ele>675.992</ele>
        <time>2015-03-30T16:49:06Z</time>
      </trkpt>
      <trkpt lat="41.317287" lon="-6.528827">
        <ele>675.947</ele>
        <time>2015-03-30T16:49:07Z</time>
      </trkpt>
      <trkpt lat="41.317296" lon="-6.528792">
        <ele>676.417</ele>
        <time>2015-03-30T16:49:08Z</time>
      </trkpt>
      <trkpt lat="41.317392" lon="-6.528567">
        <ele>678.487</ele>
        <time>2015-03-30T16:49:16Z</time>
      </trkpt>
      <trkpt lat="41.317470" lon="-6.528372">
        <ele>678.815</ele>
        <time>2015-03-30T16:49:25Z</time>
      </trkpt>
      <trkpt lat="41.317475" lon="-6.528352">
        <ele>684.107</ele>
        <time>2015-03-30T16:49:26Z</time>
      </trkpt>
      <trkpt lat="41.317477" lon="-6.528332">
        <ele>679.890</ele>
        <time>2015-03-30T16:49:27Z</time>
      </trkpt>
      <trkpt lat="41.317482" lon="-6.528313">
        <ele>681.255</ele>
        <time>2015-03-30T16:49:28Z</time>
      </trkpt>
      <trkpt lat="41.317523" lon="-6.528091">
        <ele>682.780</ele>
        <time>2015-03-30T16:49:38Z</time>
      </trkpt>
      <trkpt lat="41.317565" lon="-6.527867">
        <ele>684.114</ele>
        <time>2015-03-30T16:49:48Z</time>
      </trkpt>
      <trkpt lat="41.317598" lon="-6.527634">
        <ele>681.294</ele>
        <time>2015-03-30T16:49:59Z</time>
      </trkpt>
      <trkpt lat="41.317598" lon="-6.527612">
        <ele>689.967</ele>
        <time>2015-03-30T16:50:00Z</time>
      </trkpt>
      <trkpt lat="41.317599" lon="-6.527591">
        <ele>682.772</ele>
        <time>2015-03-30T16:50:01Z</time>
      </trkpt>
      <trkpt lat="41.317601" lon="-6.527571">
        <ele>694.751</ele>
        <time>2015-03-30T16:50:02Z</time>
      </trkpt>
      <trkpt lat="41.317602" lon="-6.527550">
        <ele>687.001</ele>
        <time>2015-03-30T16:50:03Z</time>
      </trkpt>
      <trkpt lat="41.317602" lon="-6.527309">
        <ele>689.411</ele>
        <time>2015-03-30T16:50:15Z</time>
      </trkpt>
      <trkpt lat="41.317580" lon="-6.527164">
        <ele>690.407</ele>
        <time>2015-03-30T16:50:22Z</time>
      </trkpt>
      <trkpt lat="41.317574" lon="-6.527145">
        <ele>690.464</ele>
        <time>2015-03-30T16:50:23Z</time>
      </trkpt>
      <trkpt lat="41.317572" lon="-6.527124">
        <ele>690.479</ele>
        <time>2015-03-30T16:50:24Z</time>
      </trkpt>
      <trkpt lat="41.317570" lon="-6.527104">
        <ele>690.864</ele>
        <time>2015-03-30T16:50:25Z</time>
      </trkpt>
      <trkpt lat="41.317563" lon="-6.527085">
        <ele>690.828</ele>
        <time>2015-03-30T16:50:26Z</time>
      </trkpt>
      <trkpt lat="41.317553" lon="-6.527067">
        <ele>690.878</ele>
        <time>2015-03-30T16:50:27Z</time>
      </trkpt>
      <trkpt lat="41.317547" lon="-6.527047">
        <ele>690.831</ele>
        <time>2015-03-30T16:50:28Z</time>
      </trkpt>
      <trkpt lat="41.317547" lon="-6.527027">
        <ele>690.846</ele>
        <time>2015-03-30T16:50:29Z</time>
      </trkpt>
      <trkpt lat="41.317545" lon="-6.527006">
        <ele>691.363</ele>
        <time>2015-03-30T16:50:30Z</time>
      </trkpt>
      <trkpt lat="41.317538" lon="-6.526984">
        <ele>691.844</ele>
        <time>2015-03-30T16:50:31Z</time>
      </trkpt>
      <trkpt lat="41.317530" lon="-6.526963">
        <ele>691.818</ele>
        <time>2015-03-30T16:50:32Z</time>
      </trkpt>
      <trkpt lat="41.317433" lon="-6.526772">
        <ele>694.207</ele>
        <time>2015-03-30T16:50:44Z</time>
      </trkpt>
      <trkpt lat="41.317421" lon="-6.526761">
        <ele>694.235</ele>
        <time>2015-03-30T16:50:45Z</time>
      </trkpt>
      <trkpt lat="41.317389" lon="-6.526721">
        <ele>694.770</ele>
        <time>2015-03-30T16:50:48Z</time>
      </trkpt>
      <trkpt lat="41.317376" lon="-6.526710">
        <ele>694.755</ele>
        <time>2015-03-30T16:50:49Z</time>
      </trkpt>
      <trkpt lat="41.317365" lon="-6.526696">
        <ele>695.289</ele>
        <time>2015-03-30T16:50:50Z</time>
      </trkpt>
      <trkpt lat="41.317352" lon="-6.526683">
        <ele>695.239</ele>
        <time>2015-03-30T16:50:51Z</time>
      </trkpt>
      <trkpt lat="41.317342" lon="-6.526669">
        <ele>695.222</ele>
        <time>2015-03-30T16:50:52Z</time>
      </trkpt>
      <trkpt lat="41.317334" lon="-6.526650">
        <ele>695.297</ele>
        <time>2015-03-30T16:50:53Z</time>
      </trkpt>
      <trkpt lat="41.317285" lon="-6.526594">
        <ele>701.918</ele>
        <time>2015-03-30T16:50:57Z</time>
      </trkpt>
      <trkpt lat="41.317273" lon="-6.526584">
        <ele>696.698</ele>
        <time>2015-03-30T16:50:58Z</time>
      </trkpt>
      <trkpt lat="41.317183" lon="-6.526514">
        <ele>697.617</ele>
        <time>2015-03-30T16:51:05Z</time>
      </trkpt>
      <trkpt lat="41.317161" lon="-6.526493">
        <ele>698.107</ele>
        <time>2015-03-30T16:51:07Z</time>
      </trkpt>
      <trkpt lat="41.317146" lon="-6.526490">
        <ele>698.570</ele>
        <time>2015-03-30T16:51:08Z</time>
      </trkpt>
      <trkpt lat="41.317131" lon="-6.526482">
        <ele>698.535</ele>
        <time>2015-03-30T16:51:09Z</time>
      </trkpt>
      <trkpt lat="41.317116" lon="-6.526475">
        <ele>698.120</ele>
        <time>2015-03-30T16:51:10Z</time>
      </trkpt>
      <trkpt lat="41.317102" lon="-6.526469">
        <ele>698.544</ele>
        <time>2015-03-30T16:51:11Z</time>
      </trkpt>
      <trkpt lat="41.317107" lon="-6.526470">
        <ele>698.594</ele>
        <time>2015-03-30T16:51:12Z</time>
      </trkpt>
      <trkpt lat="41.317105" lon="-6.526468">
        <ele>698.567</ele>
        <time>2015-03-30T16:51:13Z</time>
      </trkpt>
      <trkpt lat="41.317017" lon="-6.526403">
        <ele>698.572</ele>
        <time>2015-03-30T16:51:23Z</time>
      </trkpt>
      <trkpt lat="41.317007" lon="-6.526384">
        <ele>701.941</ele>
        <time>2015-03-30T16:51:24Z</time>
      </trkpt>
      <trkpt lat="41.316894" lon="-6.526156">
        <ele>701.481</ele>
        <time>2015-03-30T16:51:35Z</time>
      </trkpt>
      <trkpt lat="41.316945" lon="-6.525888">
        <ele>697.609</ele>
        <time>2015-03-30T16:51:45Z</time>
      </trkpt>
      <trkpt lat="41.316953" lon="-6.525863">
        <ele>701.907</ele>
        <time>2015-03-30T16:51:46Z</time>
      </trkpt>
      <trkpt lat="41.317022" lon="-6.525596">
        <ele>704.383</ele>
        <time>2015-03-30T16:51:57Z</time>
      </trkpt>
      <trkpt lat="41.317100" lon="-6.525368">
        <ele>704.868</ele>
        <time>2015-03-30T16:52:08Z</time>
      </trkpt>
      <trkpt lat="41.317124" lon="-6.525306">
        <ele>699.513</ele>
        <time>2015-03-30T16:52:11Z</time>
      </trkpt>
      <trkpt lat="41.317132" lon="-6.525286">
        <ele>711.067</ele>
        <time>2015-03-30T16:52:12Z</time>
      </trkpt>
      <trkpt lat="41.317142" lon="-6.525268">
        <ele>705.857</ele>
        <time>2015-03-30T16:52:13Z</time>
      </trkpt>
      <trkpt lat="41.317210" lon="-6.525151">
        <ele>706.270</ele>
        <time>2015-03-30T16:52:21Z</time>
      </trkpt>
      <trkpt lat="41.317209" lon="-6.525133">
        <ele>706.725</ele>
        <time>2015-03-30T16:52:22Z</time>
      </trkpt>
      <trkpt lat="41.317219" lon="-6.525126">
        <ele>702.992</ele>
        <time>2015-03-30T16:52:28Z</time>
      </trkpt>
      <trkpt lat="41.317219" lon="-6.525125">
        <ele>710.173</ele>
        <time>2015-03-30T16:52:29Z</time>
      </trkpt>
      <trkpt lat="41.317219" lon="-6.525124">
        <ele>706.720</ele>
        <time>2015-03-30T16:52:30Z</time>
      </trkpt>
      <trkpt lat="41.317213" lon="-6.525120">
        <ele>699.507</ele>
        <time>2015-03-30T16:52:46Z</time>
      </trkpt>
      <trkpt lat="41.317213" lon="-6.525120">
        <ele>713.928</ele>
        <time>2015-03-30T16:52:47Z</time>
      </trkpt>
      <trkpt lat="41.317213" lon="-6.525120">
        <ele>700.523</ele>
        <time>2015-03-30T16:52:48Z</time>
      </trkpt>
      <trkpt lat="41.317212" lon="-6.525120">
        <ele>711.518</ele>
        <time>2015-03-30T16:52:49Z</time>
      </trkpt>
      <trkpt lat="41.317211" lon="-6.525120">
        <ele>707.212</ele>
        <time>2015-03-30T16:52:50Z</time>
      </trkpt>
      <trkpt lat="41.317205" lon="-6.525122">
        <ele>710.622</ele>
        <time>2015-03-30T16:52:56Z</time>
      </trkpt>
      <trkpt lat="41.317204" lon="-6.525122">
        <ele>707.265</ele>
        <time>2015-03-30T16:52:58Z</time>
      </trkpt>
      <trkpt lat="41.317203" lon="-6.525123">
        <ele>700.970</ele>
        <time>2015-03-30T16:53:01Z</time>
      </trkpt>
      <trkpt lat="41.317202" lon="-6.525123">
        <ele>706.724</ele>
        <time>2015-03-30T16:53:02Z</time>
      </trkpt>
      <trkpt lat="41.317201" lon="-6.525123">
        <ele>711.004</ele>
        <time>2015-03-30T16:53:03Z</time>
      </trkpt>
      <trkpt lat="41.317200" lon="-6.525124">
        <ele>708.614</ele>
        <time>2015-03-30T16:53:04Z</time>
      </trkpt>
      <trkpt lat="41.317200" lon="-6.525123">
        <ele>706.707</ele>
        <time>2015-03-30T16:53:06Z</time>
      </trkpt>
      <trkpt lat="41.317197" lon="-6.525129">
        <ele>706.781</ele>
        <time>2015-03-30T16:53:21Z</time>
      </trkpt>
      <trkpt lat="41.317188" lon="-6.525127">
        <ele>706.766</ele>
        <time>2015-03-30T16:53:39Z</time>
      </trkpt>
      <trkpt lat="41.317182" lon="-6.525123">
        <ele>706.751</ele>
        <time>2015-03-30T16:54:08Z</time>
      </trkpt>
      <trkpt lat="41.317181" lon="-6.525121">
        <ele>706.735</ele>
        <time>2015-03-30T16:54:30Z</time>
      </trkpt>
      <trkpt lat="41.317177" lon="-6.525127">
        <ele>706.765</ele>
        <time>2015-03-30T16:55:01Z</time>
      </trkpt>
      <trkpt lat="41.317179" lon="-6.525133">
        <ele>707.218</ele>
        <time>2015-03-30T16:55:23Z</time>
      </trkpt>
      <trkpt lat="41.317184" lon="-6.525131">
        <ele>706.743</ele>
        <time>2015-03-30T16:55:51Z</time>
      </trkpt>
      <trkpt lat="41.317180" lon="-6.525069">
        <ele>706.716</ele>
        <time>2015-03-30T16:56:12Z</time>
      </trkpt>
      <trkpt lat="41.317191" lon="-6.524838">
        <ele>707.776</ele>
        <time>2015-03-30T16:56:22Z</time>
      </trkpt>
      <trkpt lat="41.317145" lon="-6.524529">
        <ele>709.113</ele>
        <time>2015-03-30T16:56:35Z</time>
      </trkpt>
      <trkpt lat="41.317135" lon="-6.524307">
        <ele>710.107</ele>
        <time>2015-03-30T16:56:44Z</time>
      </trkpt>
      <trkpt lat="41.317148" lon="-6.523969">
        <ele>710.170</ele>
        <time>2015-03-30T16:56:55Z</time>
      </trkpt>
      <trkpt lat="41.317158" lon="-6.523638">
        <ele>708.685</ele>
        <time>2015-03-30T16:57:04Z</time>
      </trkpt>
      <trkpt lat="41.317159" lon="-6.523297">
        <ele>706.230</ele>
        <time>2015-03-30T16:57:10Z</time>
      </trkpt>
      <trkpt lat="41.317165" lon="-6.523229">
        <ele>705.824</ele>
        <time>2015-03-30T16:57:11Z</time>
      </trkpt>
      <trkpt lat="41.317170" lon="-6.523086">
        <ele>704.324</ele>
        <time>2015-03-30T16:57:13Z</time>
      </trkpt>
      <trkpt lat="41.317162" lon="-6.523010">
        <ele>703.377</ele>
        <time>2015-03-30T16:57:14Z</time>
      </trkpt>
      <trkpt lat="41.317144" lon="-6.522849">
        <ele>702.422</ele>
        <time>2015-03-30T16:57:16Z</time>
      </trkpt>
      <trkpt lat="41.317115" lon="-6.522407">
        <ele>699.074</ele>
        <time>2015-03-30T16:57:21Z</time>
      </trkpt>
      <trkpt lat="41.317105" lon="-6.522330">
        <ele>700.056</ele>
        <time>2015-03-30T16:57:22Z</time>
      </trkpt>
      <trkpt lat="41.317102" lon="-6.522253">
        <ele>700.021</ele>
        <time>2015-03-30T16:57:23Z</time>
      </trkpt>
      <trkpt lat="41.317099" lon="-6.522104">
        <ele>700.007</ele>
        <time>2015-03-30T16:57:25Z</time>
      </trkpt>
      <trkpt lat="41.317091" lon="-6.521900">
        <ele>692.356</ele>
        <time>2015-03-30T16:57:28Z</time>
      </trkpt>
      <trkpt lat="41.317095" lon="-6.521837">
        <ele>705.891</ele>
        <time>2015-03-30T16:57:29Z</time>
      </trkpt>
      <trkpt lat="41.317098" lon="-6.521778">
        <ele>699.026</ele>
        <time>2015-03-30T16:57:30Z</time>
      </trkpt>
      <trkpt lat="41.317092" lon="-6.521471">
        <ele>702.970</ele>
        <time>2015-03-30T16:57:37Z</time>
      </trkpt>
      <trkpt lat="41.317056" lon="-6.521232">
        <ele>702.490</ele>
        <time>2015-03-30T16:57:46Z</time>
      </trkpt>
      <trkpt lat="41.317001" lon="-6.520881">
        <ele>699.593</ele>
        <time>2015-03-30T16:57:55Z</time>
      </trkpt>
      <trkpt lat="41.316993" lon="-6.520661">
        <ele>698.598</ele>
        <time>2015-03-30T16:57:59Z</time>
      </trkpt>
      <trkpt lat="41.316999" lon="-6.520548">
        <ele>698.132</ele>
        <time>2015-03-30T16:58:01Z</time>
      </trkpt>
      <trkpt lat="41.317024" lon="-6.520423">
        <ele>698.192</ele>
        <time>2015-03-30T16:58:03Z</time>
      </trkpt>
      <trkpt lat="41.317045" lon="-6.520359">
        <ele>696.611</ele>
        <time>2015-03-30T16:58:04Z</time>
      </trkpt>
      <trkpt lat="41.317070" lon="-6.520297">
        <ele>696.607</ele>
        <time>2015-03-30T16:58:05Z</time>
      </trkpt>
      <trkpt lat="41.317133" lon="-6.520122">
        <ele>696.622</ele>
        <time>2015-03-30T16:58:08Z</time>
      </trkpt>
      <trkpt lat="41.317136" lon="-6.520061">
        <ele>696.697</ele>
        <time>2015-03-30T16:58:09Z</time>
      </trkpt>
      <trkpt lat="41.317128" lon="-6.520006">
        <ele>696.652</ele>
        <time>2015-03-30T16:58:10Z</time>
      </trkpt>
      <trkpt lat="41.317112" lon="-6.519955">
        <ele>696.696</ele>
        <time>2015-03-30T16:58:11Z</time>
      </trkpt>
      <trkpt lat="41.317097" lon="-6.519909">
        <ele>696.656</ele>
        <time>2015-03-30T16:58:12Z</time>
      </trkpt>
      <trkpt lat="41.317012" lon="-6.519505">
        <ele>697.639</ele>
        <time>2015-03-30T16:58:22Z</time>
      </trkpt>
      <trkpt lat="41.317001" lon="-6.519168">
        <ele>699.094</ele>
        <time>2015-03-30T16:58:32Z</time>
      </trkpt>
      <trkpt lat="41.317010" lon="-6.519141">
        <ele>699.569</ele>
        <time>2015-03-30T16:58:33Z</time>
      </trkpt>
      <trkpt lat="41.317021" lon="-6.519112">
        <ele>699.004</ele>
        <time>2015-03-30T16:58:34Z</time>
      </trkpt>
      <trkpt lat="41.317027" lon="-6.519077">
        <ele>699.524</ele>
        <time>2015-03-30T16:58:35Z</time>
      </trkpt>
      <trkpt lat="41.317030" lon="-6.519040">
        <ele>699.007</ele>
        <time>2015-03-30T16:58:36Z</time>
      </trkpt>
      <trkpt lat="41.317036" lon="-6.519001">
        <ele>699.545</ele>
        <time>2015-03-30T16:58:37Z</time>
      </trkpt>
      <trkpt lat="41.317047" lon="-6.518959">
        <ele>699.580</ele>
        <time>2015-03-30T16:58:38Z</time>
      </trkpt>
      <trkpt lat="41.317059" lon="-6.518918">
        <ele>699.575</ele>
        <time>2015-03-30T16:58:39Z</time>
      </trkpt>
      <trkpt lat="41.317073" lon="-6.518552">
        <ele>699.579</ele>
        <time>2015-03-30T16:58:48Z</time>
      </trkpt>
      <trkpt lat="41.317036" lon="-6.518333">
        <ele>701.429</ele>
        <time>2015-03-30T16:58:56Z</time>
      </trkpt>
      <trkpt lat="41.317000" lon="-6.518138">
        <ele>702.922</ele>
        <time>2015-03-30T16:59:05Z</time>
      </trkpt>
      <trkpt lat="41.316938" lon="-6.517888">
        <ele>703.377</ele>
        <time>2015-03-30T16:59:15Z</time>
      </trkpt>
      <trkpt lat="41.316934" lon="-6.517865">
        <ele>703.316</ele>
        <time>2015-03-30T16:59:16Z</time>
      </trkpt>
      <trkpt lat="41.316876" lon="-6.517626">
        <ele>704.876</ele>
        <time>2015-03-30T16:59:26Z</time>
      </trkpt>
      <trkpt lat="41.316875" lon="-6.517605">
        <ele>704.813</ele>
        <time>2015-03-30T16:59:27Z</time>
      </trkpt>
      <trkpt lat="41.316865" lon="-6.517587">
        <ele>705.307</ele>
        <time>2015-03-30T16:59:35Z</time>
      </trkpt>
      <trkpt lat="41.316853" lon="-6.517491">
        <ele>705.850</ele>
        <time>2015-03-30T16:59:43Z</time>
      </trkpt>
      <trkpt lat="41.316849" lon="-6.517470">
        <ele>705.885</ele>
        <time>2015-03-30T16:59:44Z</time>
      </trkpt>
      <trkpt lat="41.316844" lon="-6.517450">
        <ele>706.290</ele>
        <time>2015-03-30T16:59:45Z</time>
      </trkpt>
      <trkpt lat="41.316836" lon="-6.517429">
        <ele>706.284</ele>
        <time>2015-03-30T16:59:46Z</time>
      </trkpt>
      <trkpt lat="41.316830" lon="-6.517406">
        <ele>706.234</ele>
        <time>2015-03-30T16:59:47Z</time>
      </trkpt>
      <trkpt lat="41.316827" lon="-6.517386">
        <ele>706.277</ele>
        <time>2015-03-30T16:59:48Z</time>
      </trkpt>
      <trkpt lat="41.316824" lon="-6.517365">
        <ele>706.742</ele>
        <time>2015-03-30T16:59:49Z</time>
      </trkpt>
      <trkpt lat="41.316818" lon="-6.517341">
        <ele>706.796</ele>
        <time>2015-03-30T16:59:50Z</time>
      </trkpt>
      <trkpt lat="41.316749" lon="-6.517094">
        <ele>711.031</ele>
        <time>2015-03-30T17:00:00Z</time>
      </trkpt>
      <trkpt lat="41.316726" lon="-6.517059">
        <ele>707.724</ele>
        <time>2015-03-30T17:00:02Z</time>
      </trkpt>
      <trkpt lat="41.316655" lon="-6.516912">
        <ele>708.607</ele>
        <time>2015-03-30T17:00:12Z</time>
      </trkpt>
      <trkpt lat="41.316646" lon="-6.516898">
        <ele>707.778</ele>
        <time>2015-03-30T17:00:13Z</time>
      </trkpt>
      <trkpt lat="41.316640" lon="-6.516880">
        <ele>707.753</ele>
        <time>2015-03-30T17:00:14Z</time>
      </trkpt>
      <trkpt lat="41.316635" lon="-6.516863">
        <ele>707.788</ele>
        <time>2015-03-30T17:00:15Z</time>
      </trkpt>
      <trkpt lat="41.316630" lon="-6.516846">
        <ele>707.712</ele>
        <time>2015-03-30T17:00:16Z</time>
      </trkpt>
      <trkpt lat="41.316627" lon="-6.516840">
        <ele>707.732</ele>
        <time>2015-03-30T17:00:25Z</time>
      </trkpt>
      <trkpt lat="41.316627" lon="-6.516843">
        <ele>708.215</ele>
        <time>2015-03-30T17:00:32Z</time>
      </trkpt>
      <trkpt lat="41.316626" lon="-6.516839">
        <ele>707.710</ele>
        <time>2015-03-30T17:00:55Z</time>
      </trkpt>
      <trkpt lat="41.316630" lon="-6.516845">
        <ele>707.243</ele>
        <time>2015-03-30T17:01:03Z</time>
      </trkpt>
      <trkpt lat="41.316636" lon="-6.516863">
        <ele>707.264</ele>
        <time>2015-03-30T17:01:04Z</time>
      </trkpt>
      <trkpt lat="41.316646" lon="-6.516882">
        <ele>706.710</ele>
        <time>2015-03-30T17:01:05Z</time>
      </trkpt>
      <trkpt lat="41.316659" lon="-6.516905">
        <ele>707.207</ele>
        <time>2015-03-30T17:01:06Z</time>
      </trkpt>
      <trkpt lat="41.316673" lon="-6.516932">
        <ele>707.243</ele>
        <time>2015-03-30T17:01:07Z</time>
      </trkpt>
      <trkpt lat="41.316754" lon="-6.517093">
        <ele>707.718</ele>
        <time>2015-03-30T17:01:13Z</time>
      </trkpt>
      <trkpt lat="41.316776" lon="-6.517118">
        <ele>707.213</ele>
        <time>2015-03-30T17:01:15Z</time>
      </trkpt>
      <trkpt lat="41.316789" lon="-6.517113">
        <ele>707.217</ele>
        <time>2015-03-30T17:01:16Z</time>
      </trkpt>
      <trkpt lat="41.316797" lon="-6.517096">
        <ele>707.757</ele>
        <time>2015-03-30T17:01:17Z</time>
      </trkpt>
      <trkpt lat="41.316836" lon="-6.516866">
        <ele>705.890</ele>
        <time>2015-03-30T17:01:26Z</time>
      </trkpt>
      <trkpt lat="41.316892" lon="-6.516595">
        <ele>703.885</ele>
        <time>2015-03-30T17:01:34Z</time>
      </trkpt>
      <trkpt lat="41.316934" lon="-6.516500">
        <ele>703.373</ele>
        <time>2015-03-30T17:01:38Z</time>
      </trkpt>
      <trkpt lat="41.316938" lon="-6.516479">
        <ele>703.385</ele>
        <time>2015-03-30T17:01:39Z</time>
      </trkpt>
      <trkpt lat="41.316971" lon="-6.516247">
        <ele>701.913</ele>
        <time>2015-03-30T17:01:48Z</time>
      </trkpt>
      <trkpt lat="41.316982" lon="-6.516229">
        <ele>701.407</ele>
        <time>2015-03-30T17:01:50Z</time>
      </trkpt>
      <trkpt lat="41.316985" lon="-6.516210">
        <ele>701.486</ele>
        <time>2015-03-30T17:01:51Z</time>
      </trkpt>
      <trkpt lat="41.316985" lon="-6.516194">
        <ele>700.991</ele>
        <time>2015-03-30T17:01:52Z</time>
      </trkpt>
      <trkpt lat="41.316983" lon="-6.516176">
        <ele>700.916</ele>
        <time>2015-03-30T17:01:53Z</time>
      </trkpt>
      <trkpt lat="41.316980" lon="-6.516154">
        <ele>700.920</ele>
        <time>2015-03-30T17:01:54Z</time>
      </trkpt>
      <trkpt lat="41.316969" lon="-6.516132">
        <ele>700.920</ele>
        <time>2015-03-30T17:01:55Z</time>
      </trkpt>
      <trkpt lat="41.316955" lon="-6.516110">
        <ele>700.513</ele>
        <time>2015-03-30T17:01:56Z</time>
      </trkpt>
      <trkpt lat="41.316947" lon="-6.516091">
        <ele>700.598</ele>
        <time>2015-03-30T17:01:57Z</time>
      </trkpt>
      <trkpt lat="41.316945" lon="-6.516075">
        <ele>700.061</ele>
        <time>2015-03-30T17:01:58Z</time>
      </trkpt>
      <trkpt lat="41.316954" lon="-6.516048">
        <ele>700.021</ele>
        <time>2015-03-30T17:02:00Z</time>
      </trkpt>
      <trkpt lat="41.316959" lon="-6.516034">
        <ele>700.013</ele>
        <time>2015-03-30T17:02:01Z</time>
      </trkpt>
      <trkpt lat="41.316958" lon="-6.516014">
        <ele>699.507</ele>
        <time>2015-03-30T17:02:02Z</time>
      </trkpt>
      <trkpt lat="41.316954" lon="-6.515994">
        <ele>700.045</ele>
        <time>2015-03-30T17:02:03Z</time>
      </trkpt>
      <trkpt lat="41.316948" lon="-6.515975">
        <ele>699.050</ele>
        <time>2015-03-30T17:02:04Z</time>
      </trkpt>
      <trkpt lat="41.316938" lon="-6.515933">
        <ele>698.585</ele>
        <time>2015-03-30T17:02:06Z</time>
      </trkpt>
      <trkpt lat="41.316940" lon="-6.515904">
        <ele>698.199</ele>
        <time>2015-03-30T17:02:07Z</time>
      </trkpt>
      <trkpt lat="41.316946" lon="-6.515873">
        <ele>698.129</ele>
        <time>2015-03-30T17:02:08Z</time>
      </trkpt>
      <trkpt lat="41.316955" lon="-6.515843">
        <ele>697.642</ele>
        <time>2015-03-30T17:02:09Z</time>
      </trkpt>
      <trkpt lat="41.316965" lon="-6.515815">
        <ele>697.637</ele>
        <time>2015-03-30T17:02:10Z</time>
      </trkpt>
      <trkpt lat="41.317042" lon="-6.515562">
        <ele>696.127</ele>
        <time>2015-03-30T17:02:20Z</time>
      </trkpt>
      <trkpt lat="41.317078" lon="-6.515450">
        <ele>694.768</ele>
        <time>2015-03-30T17:02:28Z</time>
      </trkpt>
      <trkpt lat="41.317089" lon="-6.515430">
        <ele>694.714</ele>
        <time>2015-03-30T17:02:29Z</time>
      </trkpt>
      <trkpt lat="41.317210" lon="-6.515254">
        <ele>694.207</ele>
        <time>2015-03-30T17:02:38Z</time>
      </trkpt>
      <trkpt lat="41.317215" lon="-6.515238">
        <ele>694.221</ele>
        <time>2015-03-30T17:02:39Z</time>
      </trkpt>
      <trkpt lat="41.317219" lon="-6.515221">
        <ele>694.286</ele>
        <time>2015-03-30T17:02:40Z</time>
      </trkpt>
      <trkpt lat="41.317227" lon="-6.515206">
        <ele>693.751</ele>
        <time>2015-03-30T17:02:41Z</time>
      </trkpt>
      <trkpt lat="41.317235" lon="-6.515166">
        <ele>693.735</ele>
        <time>2015-03-30T17:02:44Z</time>
      </trkpt>
      <trkpt lat="41.317341" lon="-6.514875">
        <ele>691.845</ele>
        <time>2015-03-30T17:02:55Z</time>
      </trkpt>
      <trkpt lat="41.317366" lon="-6.514674">
        <ele>690.488</ele>
        <time>2015-03-30T17:03:03Z</time>
      </trkpt>
      <trkpt lat="41.317387" lon="-6.514581">
        <ele>689.413</ele>
        <time>2015-03-30T17:03:07Z</time>
      </trkpt>
      <trkpt lat="41.317394" lon="-6.514552">
        <ele>688.939</ele>
        <time>2015-03-30T17:03:08Z</time>
      </trkpt>
      <trkpt lat="41.317438" lon="-6.514432">
        <ele>688.001</ele>
        <time>2015-03-30T17:03:13Z</time>
      </trkpt>
      <trkpt lat="41.317459" lon="-6.514375">
        <ele>687.521</ele>
        <time>2015-03-30T17:03:16Z</time>
      </trkpt>
      <trkpt lat="41.317462" lon="-6.514353">
        <ele>687.007</ele>
        <time>2015-03-30T17:03:17Z</time>
      </trkpt>
      <trkpt lat="41.317482" lon="-6.514270">
        <ele>688.082</ele>
        <time>2015-03-30T17:03:22Z</time>
      </trkpt>
      <trkpt lat="41.317473" lon="-6.514139">
        <ele>686.527</ele>
        <time>2015-03-30T17:03:27Z</time>
      </trkpt>
      <trkpt lat="41.317467" lon="-6.514117">
        <ele>686.572</ele>
        <time>2015-03-30T17:03:28Z</time>
      </trkpt>
      <trkpt lat="41.317454" lon="-6.513969">
        <ele>685.156</ele>
        <time>2015-03-30T17:03:34Z</time>
      </trkpt>
      <trkpt lat="41.317478" lon="-6.513875">
        <ele>684.636</ele>
        <time>2015-03-30T17:03:37Z</time>
      </trkpt>
      <trkpt lat="41.317496" lon="-6.513852">
        <ele>684.199</ele>
        <time>2015-03-30T17:03:38Z</time>
      </trkpt>
      <trkpt lat="41.317515" lon="-6.513831">
        <ele>684.144</ele>
        <time>2015-03-30T17:03:39Z</time>
      </trkpt>
      <trkpt lat="41.317532" lon="-6.513813">
        <ele>684.168</ele>
        <time>2015-03-30T17:03:40Z</time>
      </trkpt>
      <trkpt lat="41.317543" lon="-6.513792">
        <ele>684.142</ele>
        <time>2015-03-30T17:03:41Z</time>
      </trkpt>
      <trkpt lat="41.317552" lon="-6.513767">
        <ele>684.126</ele>
        <time>2015-03-30T17:03:42Z</time>
      </trkpt>
      <trkpt lat="41.317588" lon="-6.513618">
        <ele>683.207</ele>
        <time>2015-03-30T17:03:47Z</time>
      </trkpt>
      <trkpt lat="41.317704" lon="-6.513487">
        <ele>682.745</ele>
        <time>2015-03-30T17:03:55Z</time>
      </trkpt>
      <trkpt lat="41.317819" lon="-6.513362">
        <ele>681.790</ele>
        <time>2015-03-30T17:04:04Z</time>
      </trkpt>
      <trkpt lat="41.317949" lon="-6.513194">
        <ele>678.495</ele>
        <time>2015-03-30T17:04:12Z</time>
      </trkpt>
      <trkpt lat="41.317987" lon="-6.513128">
        <ele>677.979</ele>
        <time>2015-03-30T17:04:15Z</time>
      </trkpt>
      <trkpt lat="41.318005" lon="-6.513109">
        <ele>677.999</ele>
        <time>2015-03-30T17:04:16Z</time>
      </trkpt>
      <trkpt lat="41.318020" lon="-6.513083">
        <ele>677.482</ele>
        <time>2015-03-30T17:04:17Z</time>
      </trkpt>
      <trkpt lat="41.318035" lon="-6.513054">
        <ele>677.457</ele>
        <time>2015-03-30T17:04:18Z</time>
      </trkpt>
      <trkpt lat="41.318052" lon="-6.513025">
        <ele>677.961</ele>
        <time>2015-03-30T17:04:19Z</time>
      </trkpt>
      <trkpt lat="41.318069" lon="-6.512993">
        <ele>677.921</ele>
        <time>2015-03-30T17:04:20Z</time>
      </trkpt>
      <trkpt lat="41.318083" lon="-6.512959">
        <ele>677.413</ele>
        <time>2015-03-30T17:04:21Z</time>
      </trkpt>
      <trkpt lat="41.318196" lon="-6.512654">
        <ele>672.107</ele>
        <time>2015-03-30T17:04:29Z</time>
      </trkpt>
      <trkpt lat="41.318208" lon="-6.512623">
        <ele>677.415</ele>
        <time>2015-03-30T17:04:30Z</time>
      </trkpt>
      <trkpt lat="41.318222" lon="-6.512602">
        <ele>677.480</ele>
        <time>2015-03-30T17:04:31Z</time>
      </trkpt>
      <trkpt lat="41.318260" lon="-6.512587">
        <ele>676.455</ele>
        <time>2015-03-30T17:04:39Z</time>
      </trkpt>
      <trkpt lat="41.318276" lon="-6.512581">
        <ele>676.439</ele>
        <time>2015-03-30T17:04:40Z</time>
      </trkpt>
      <trkpt lat="41.318414" lon="-6.512590">
        <ele>674.549</ele>
        <time>2015-03-30T17:04:46Z</time>
      </trkpt>
      <trkpt lat="41.318512" lon="-6.512560">
        <ele>673.182</ele>
        <time>2015-03-30T17:04:49Z</time>
      </trkpt>
      <trkpt lat="41.318767" lon="-6.512469">
        <ele>670.277</ele>
        <time>2015-03-30T17:04:57Z</time>
      </trkpt>
      <trkpt lat="41.318845" lon="-6.512425">
        <ele>669.736</ele>
        <time>2015-03-30T17:04:59Z</time>
      </trkpt>
      <trkpt lat="41.318921" lon="-6.512371">
        <ele>669.717</ele>
        <time>2015-03-30T17:05:01Z</time>
      </trkpt>
      <trkpt lat="41.318960" lon="-6.512344">
        <ele>669.218</ele>
        <time>2015-03-30T17:05:02Z</time>
      </trkpt>
      <trkpt lat="41.319001" lon="-6.512314">
        <ele>668.707</ele>
        <time>2015-03-30T17:05:03Z</time>
      </trkpt>
      <trkpt lat="41.319120" lon="-6.512206">
        <ele>667.342</ele>
        <time>2015-03-30T17:05:06Z</time>
      </trkpt>
      <trkpt lat="41.319165" lon="-6.512169">
        <ele>666.827</ele>
        <time>2015-03-30T17:05:07Z</time>
      </trkpt>
      <trkpt lat="41.319427" lon="-6.511945">
        <ele>663.972</ele>
        <time>2015-03-30T17:05:14Z</time>
      </trkpt>
      <trkpt lat="41.319472" lon="-6.511880">
        <ele>662.066</ele>
        <time>2015-03-30T17:05:18Z</time>
      </trkpt>
      <trkpt lat="41.319484" lon="-6.511857">
        <ele>661.536</ele>
        <time>2015-03-30T17:05:19Z</time>
      </trkpt>
      <trkpt lat="41.319498" lon="-6.511842">
        <ele>660.669</ele>
        <time>2015-03-30T17:05:20Z</time>
      </trkpt>
      <trkpt lat="41.319512" lon="-6.511830">
        <ele>660.634</ele>
        <time>2015-03-30T17:05:21Z</time>
      </trkpt>
      <trkpt lat="41.319526" lon="-6.511819">
        <ele>660.194</ele>
        <time>2015-03-30T17:05:22Z</time>
      </trkpt>
      <trkpt lat="41.319542" lon="-6.511803">
        <ele>659.657</ele>
        <time>2015-03-30T17:05:23Z</time>
      </trkpt>
      <trkpt lat="41.319556" lon="-6.511787">
        <ele>659.122</ele>
        <time>2015-03-30T17:05:24Z</time>
      </trkpt>
      <trkpt lat="41.319572" lon="-6.511771">
        <ele>659.107</ele>
        <time>2015-03-30T17:05:25Z</time>
      </trkpt>
      <trkpt lat="41.319589" lon="-6.511756">
        <ele>658.698</ele>
        <time>2015-03-30T17:05:26Z</time>
      </trkpt>
      <trkpt lat="41.319610" lon="-6.511742">
        <ele>658.273</ele>
        <time>2015-03-30T17:05:27Z</time>
      </trkpt>
      <trkpt lat="41.319630" lon="-6.511729">
        <ele>657.728</ele>
        <time>2015-03-30T17:05:28Z</time>
      </trkpt>
      <trkpt lat="41.319669" lon="-6.511705">
        <ele>656.712</ele>
        <time>2015-03-30T17:05:30Z</time>
      </trkpt>
      <trkpt lat="41.319813" lon="-6.511528">
        <ele>654.342</ele>
        <time>2015-03-30T17:05:39Z</time>
      </trkpt>
      <trkpt lat="41.319880" lon="-6.511423">
        <ele>651.955</ele>
        <time>2015-03-30T17:05:46Z</time>
      </trkpt>
      <trkpt lat="41.319886" lon="-6.511404">
        <ele>651.960</ele>
        <time>2015-03-30T17:05:47Z</time>
      </trkpt>
      <trkpt lat="41.319898" lon="-6.511382">
        <ele>651.493</ele>
        <time>2015-03-30T17:05:48Z</time>
      </trkpt>
      <trkpt lat="41.319915" lon="-6.511359">
        <ele>651.465</ele>
        <time>2015-03-30T17:05:49Z</time>
      </trkpt>
      <trkpt lat="41.319932" lon="-6.511341">
        <ele>651.021</ele>
        <time>2015-03-30T17:05:50Z</time>
      </trkpt>
      <trkpt lat="41.319949" lon="-6.511326">
        <ele>650.507</ele>
        <time>2015-03-30T17:05:51Z</time>
      </trkpt>
      <trkpt lat="41.320049" lon="-6.511211">
        <ele>649.058</ele>
        <time>2015-03-30T17:05:57Z</time>
      </trkpt>
      <trkpt lat="41.320064" lon="-6.511188">
        <ele>649.013</ele>
        <time>2015-03-30T17:05:58Z</time>
      </trkpt>
      <trkpt lat="41.320082" lon="-6.511172">
        <ele>648.638</ele>
        <time>2015-03-30T17:05:59Z</time>
      </trkpt>
      <trkpt lat="41.320099" lon="-6.511158">
        <ele>648.112</ele>
        <time>2015-03-30T17:06:00Z</time>
      </trkpt>
      <trkpt lat="41.320116" lon="-6.511133">
        <ele>648.162</ele>
        <time>2015-03-30T17:06:01Z</time>
      </trkpt>
      <trkpt lat="41.320131" lon="-6.511097">
        <ele>647.695</ele>
        <time>2015-03-30T17:06:02Z</time>
      </trkpt>
      <trkpt lat="41.320133" lon="-6.511062">
        <ele>647.120</ele>
        <time>2015-03-30T17:06:03Z</time>
      </trkpt>
      <trkpt lat="41.320124" lon="-6.511034">
        <ele>648.155</ele>
        <time>2015-03-30T17:06:04Z</time>
      </trkpt>
      <trkpt lat="41.320114" lon="-6.511011">
        <ele>647.107</ele>
        <time>2015-03-30T17:06:05Z</time>
      </trkpt>
      <trkpt lat="41.320104" lon="-6.510992">
        <ele>647.117</ele>
        <time>2015-03-30T17:06:06Z</time>
      </trkpt>
      <trkpt lat="41.320096" lon="-6.510973">
        <ele>647.107</ele>
        <time>2015-03-30T17:06:07Z</time>
      </trkpt>
      <trkpt lat="41.319984" lon="-6.510743">
        <ele>647.154</ele>
        <time>2015-03-30T17:06:17Z</time>
      </trkpt>
      <trkpt lat="41.319939" lon="-6.510687">
        <ele>647.669</ele>
        <time>2015-03-30T17:06:20Z</time>
      </trkpt>
      <trkpt lat="41.319923" lon="-6.510676">
        <ele>647.624</ele>
        <time>2015-03-30T17:06:21Z</time>
      </trkpt>
      <trkpt lat="41.319907" lon="-6.510663">
        <ele>647.148</ele>
        <time>2015-03-30T17:06:22Z</time>
      </trkpt>
      <trkpt lat="41.319793" lon="-6.510505">
        <ele>649.068</ele>
        <time>2015-03-30T17:06:33Z</time>
      </trkpt>
      <trkpt lat="41.319801" lon="-6.510476">
        <ele>649.041</ele>
        <time>2015-03-30T17:06:35Z</time>
      </trkpt>
      <trkpt lat="41.319808" lon="-6.510459">
        <ele>649.576</ele>
        <time>2015-03-30T17:06:41Z</time>
      </trkpt>
      <trkpt lat="41.319826" lon="-6.510457">
        <ele>649.517</ele>
        <time>2015-03-30T17:06:45Z</time>
      </trkpt>
      <trkpt lat="41.319843" lon="-6.510440">
        <ele>650.087</ele>
        <time>2015-03-30T17:06:47Z</time>
      </trkpt>
      <trkpt lat="41.319856" lon="-6.510426">
        <ele>650.015</ele>
        <time>2015-03-30T17:06:50Z</time>
      </trkpt>
      <trkpt lat="41.319905" lon="-6.510374">
        <ele>651.007</ele>
        <time>2015-03-30T17:06:59Z</time>
      </trkpt>
      <trkpt lat="41.319954" lon="-6.510322">
        <ele>652.950</ele>
        <time>2015-03-30T17:07:09Z</time>
      </trkpt>
      <trkpt lat="41.320001" lon="-6.510257">
        <ele>653.865</ele>
        <time>2015-03-30T17:07:19Z</time>
      </trkpt>
      <trkpt lat="41.320008" lon="-6.510232">
        <ele>654.350</ele>
        <time>2015-03-30T17:07:21Z</time>
      </trkpt>
      <trkpt lat="41.320011" lon="-6.510217">
        <ele>654.314</ele>
        <time>2015-03-30T17:07:22Z</time>
      </trkpt>
      <trkpt lat="41.320048" lon="-6.510127">
        <ele>654.824</ele>
        <time>2015-03-30T17:07:30Z</time>
      </trkpt>
      <trkpt lat="41.320049" lon="-6.509999">
        <ele>655.817</ele>
        <time>2015-03-30T17:07:41Z</time>
      </trkpt>
      <trkpt lat="41.319998" lon="-6.509974">
        <ele>656.222</ele>
        <time>2015-03-30T17:07:48Z</time>
      </trkpt>
      <trkpt lat="41.319929" lon="-6.509926">
        <ele>657.711</ele>
        <time>2015-03-30T17:07:59Z</time>
      </trkpt>
      <trkpt lat="41.319868" lon="-6.509875">
        <ele>658.621</ele>
        <time>2015-03-30T17:08:09Z</time>
      </trkpt>
      <trkpt lat="41.319851" lon="-6.509879">
        <ele>659.603</ele>
        <time>2015-03-30T17:08:19Z</time>
      </trkpt>
      <trkpt lat="41.319820" lon="-6.509855">
        <ele>659.607</ele>
        <time>2015-03-30T17:08:30Z</time>
      </trkpt>
      <trkpt lat="41.319782" lon="-6.509786">
        <ele>660.130</ele>
        <time>2015-03-30T17:08:39Z</time>
      </trkpt>
      <trkpt lat="41.319743" lon="-6.509708">
        <ele>661.585</ele>
        <time>2015-03-30T17:08:51Z</time>
      </trkpt>
      <trkpt lat="41.319728" lon="-6.509696">
        <ele>661.590</ele>
        <time>2015-03-30T17:09:04Z</time>
      </trkpt>
      <trkpt lat="41.319688" lon="-6.509624">
        <ele>663.534</ele>
        <time>2015-03-30T17:09:15Z</time>
      </trkpt>
      <trkpt lat="41.319669" lon="-6.509586">
        <ele>663.974</ele>
        <time>2015-03-30T17:09:27Z</time>
      </trkpt>
      <trkpt lat="41.319647" lon="-6.509536">
        <ele>664.417</ele>
        <time>2015-03-30T17:09:36Z</time>
      </trkpt>
      <trkpt lat="41.319570" lon="-6.509348">
        <ele>665.942</ele>
        <time>2015-03-30T17:09:47Z</time>
      </trkpt>
      <trkpt lat="41.319472" lon="-6.509165">
        <ele>667.833</ele>
        <time>2015-03-30T17:09:58Z</time>
      </trkpt>
      <trkpt lat="41.319465" lon="-6.509146">
        <ele>667.823</ele>
        <time>2015-03-30T17:09:59Z</time>
      </trkpt>
      <trkpt lat="41.319429" lon="-6.509032">
        <ele>668.715</ele>
        <time>2015-03-30T17:10:06Z</time>
      </trkpt>
      <trkpt lat="41.319474" lon="-6.508852">
        <ele>669.707</ele>
        <time>2015-03-30T17:10:15Z</time>
      </trkpt>
      <trkpt lat="41.319530" lon="-6.508523">
        <ele>669.762</ele>
        <time>2015-03-30T17:10:27Z</time>
      </trkpt>
      <trkpt lat="41.319451" lon="-6.508279">
        <ele>670.237</ele>
        <time>2015-03-30T17:10:37Z</time>
      </trkpt>
      <trkpt lat="41.319269" lon="-6.508133">
        <ele>670.282</ele>
        <time>2015-03-30T17:10:47Z</time>
      </trkpt>
      <trkpt lat="41.319100" lon="-6.508014">
        <ele>671.176</ele>
        <time>2015-03-30T17:10:56Z</time>
      </trkpt>
      <trkpt lat="41.319035" lon="-6.507957">
        <ele>671.166</ele>
        <time>2015-03-30T17:11:00Z</time>
      </trkpt>
      <trkpt lat="41.318845" lon="-6.507861">
        <ele>673.199</ele>
        <time>2015-03-30T17:11:12Z</time>
      </trkpt>
      <trkpt lat="41.318654" lon="-6.507748">
        <ele>674.514</ele>
        <time>2015-03-30T17:11:24Z</time>
      </trkpt>
      <trkpt lat="41.318596" lon="-6.507728">
        <ele>675.538</ele>
        <time>2015-03-30T17:11:28Z</time>
      </trkpt>
      <trkpt lat="41.318554" lon="-6.507694">
        <ele>675.970</ele>
        <time>2015-03-30T17:11:31Z</time>
      </trkpt>
      <trkpt lat="41.318490" lon="-6.507648">
        <ele>676.917</ele>
        <time>2015-03-30T17:11:36Z</time>
      </trkpt>
      <trkpt lat="41.318435" lon="-6.507580">
        <ele>677.907</ele>
        <time>2015-03-30T17:11:41Z</time>
      </trkpt>
      <trkpt lat="41.318355" lon="-6.507498">
        <ele>679.342</ele>
        <time>2015-03-30T17:11:48Z</time>
      </trkpt>
      <trkpt lat="41.318331" lon="-6.507481">
        <ele>679.327</ele>
        <time>2015-03-30T17:11:50Z</time>
      </trkpt>
      <trkpt lat="41.318300" lon="-6.507445">
        <ele>680.392</ele>
        <time>2015-03-30T17:11:53Z</time>
      </trkpt>
      <trkpt lat="41.318218" lon="-6.507343">
        <ele>681.226</ele>
        <time>2015-03-30T17:12:01Z</time>
      </trkpt>
      <trkpt lat="41.318190" lon="-6.507297">
        <ele>682.286</ele>
        <time>2015-03-30T17:12:04Z</time>
      </trkpt>
      <trkpt lat="41.318142" lon="-6.507254">
        <ele>682.719</ele>
        <time>2015-03-30T17:12:08Z</time>
      </trkpt>
      <trkpt lat="41.318018" lon="-6.507096">
        <ele>684.664</ele>
        <time>2015-03-30T17:12:20Z</time>
      </trkpt>
      <trkpt lat="41.317948" lon="-6.507004">
        <ele>685.628</ele>
        <time>2015-03-30T17:12:28Z</time>
      </trkpt>
      <trkpt lat="41.317824" lon="-6.506771">
        <ele>685.189</ele>
        <time>2015-03-30T17:12:37Z</time>
      </trkpt>
      <trkpt lat="41.317804" lon="-6.506675">
        <ele>684.617</ele>
        <time>2015-03-30T17:12:39Z</time>
      </trkpt>
      <trkpt lat="41.317786" lon="-6.506622">
        <ele>684.107</ele>
        <time>2015-03-30T17:12:40Z</time>
      </trkpt>
      <trkpt lat="41.317761" lon="-6.506570">
        <ele>684.121</ele>
        <time>2015-03-30T17:12:41Z</time>
      </trkpt>
      <trkpt lat="41.317586" lon="-6.506268">
        <ele>683.626</ele>
        <time>2015-03-30T17:12:47Z</time>
      </trkpt>
      <trkpt lat="41.317559" lon="-6.506224">
        <ele>683.651</ele>
        <time>2015-03-30T17:12:48Z</time>
      </trkpt>
      <trkpt lat="41.317529" lon="-6.506185">
        <ele>683.645</ele>
        <time>2015-03-30T17:12:49Z</time>
      </trkpt>
      <trkpt lat="41.317500" lon="-6.506148">
        <ele>683.635</ele>
        <time>2015-03-30T17:12:50Z</time>
      </trkpt>
      <trkpt lat="41.317475" lon="-6.506112">
        <ele>683.618</ele>
        <time>2015-03-30T17:12:51Z</time>
      </trkpt>
      <trkpt lat="41.317448" lon="-6.506082">
        <ele>682.233</ele>
        <time>2015-03-30T17:12:52Z</time>
      </trkpt>
      <trkpt lat="41.317421" lon="-6.506055">
        <ele>683.218</ele>
        <time>2015-03-30T17:12:53Z</time>
      </trkpt>
      <trkpt lat="41.317393" lon="-6.506030">
        <ele>686.098</ele>
        <time>2015-03-30T17:12:54Z</time>
      </trkpt>
      <trkpt lat="41.317364" lon="-6.506014">
        <ele>683.617</ele>
        <time>2015-03-30T17:12:55Z</time>
      </trkpt>
      <trkpt lat="41.317335" lon="-6.506002">
        <ele>683.607</ele>
        <time>2015-03-30T17:12:56Z</time>
      </trkpt>
      <trkpt lat="41.317311" lon="-6.505983">
        <ele>683.610</ele>
        <time>2015-03-30T17:12:57Z</time>
      </trkpt>
      <trkpt lat="41.317287" lon="-6.505963">
        <ele>683.675</ele>
        <time>2015-03-30T17:12:58Z</time>
      </trkpt>
      <trkpt lat="41.317026" lon="-6.505794">
        <ele>684.120</ele>
        <time>2015-03-30T17:13:08Z</time>
      </trkpt>
      <trkpt lat="41.316795" lon="-6.505723">
        <ele>686.064</ele>
        <time>2015-03-30T17:13:19Z</time>
      </trkpt>
      <trkpt lat="41.316584" lon="-6.505729">
        <ele>687.514</ele>
        <time>2015-03-30T17:13:30Z</time>
      </trkpt>
      <trkpt lat="41.316474" lon="-6.505756">
        <ele>688.957</ele>
        <time>2015-03-30T17:13:37Z</time>
      </trkpt>
      <trkpt lat="41.316462" lon="-6.505740">
        <ele>688.952</ele>
        <time>2015-03-30T17:13:38Z</time>
      </trkpt>
      <trkpt lat="41.316453" lon="-6.505719">
        <ele>688.946</ele>
        <time>2015-03-30T17:13:39Z</time>
      </trkpt>
      <trkpt lat="41.316447" lon="-6.505694">
        <ele>688.988</ele>
        <time>2015-03-30T17:13:40Z</time>
      </trkpt>
      <trkpt lat="41.316443" lon="-6.505669">
        <ele>689.416</ele>
        <time>2015-03-30T17:13:41Z</time>
      </trkpt>
      <trkpt lat="41.316442" lon="-6.505641">
        <ele>689.407</ele>
        <time>2015-03-30T17:13:42Z</time>
      </trkpt>
      <trkpt lat="41.316440" lon="-6.505612">
        <ele>689.483</ele>
        <time>2015-03-30T17:13:43Z</time>
      </trkpt>
      <trkpt lat="41.316436" lon="-6.505584">
        <ele>689.928</ele>
        <time>2015-03-30T17:13:44Z</time>
      </trkpt>
      <trkpt lat="41.316429" lon="-6.505559">
        <ele>689.963</ele>
        <time>2015-03-30T17:13:45Z</time>
      </trkpt>
      <trkpt lat="41.316420" lon="-6.505533">
        <ele>690.467</ele>
        <time>2015-03-30T17:13:46Z</time>
      </trkpt>
      <trkpt lat="41.316411" lon="-6.505509">
        <ele>690.457</ele>
        <time>2015-03-30T17:13:47Z</time>
      </trkpt>
      <trkpt lat="41.316365" lon="-6.505405">
        <ele>690.890</ele>
        <time>2015-03-30T17:13:52Z</time>
      </trkpt>
      <trkpt lat="41.316362" lon="-6.505384">
        <ele>690.835</ele>
        <time>2015-03-30T17:13:53Z</time>
      </trkpt>
      <trkpt lat="41.316359" lon="-6.505364">
        <ele>691.351</ele>
        <time>2015-03-30T17:13:54Z</time>
      </trkpt>
      <trkpt lat="41.316360" lon="-6.505342">
        <ele>691.301</ele>
        <time>2015-03-30T17:13:55Z</time>
      </trkpt>
      <trkpt lat="41.316361" lon="-6.505318">
        <ele>691.311</ele>
        <time>2015-03-30T17:13:56Z</time>
      </trkpt>
      <trkpt lat="41.316322" lon="-6.505037">
        <ele>693.307</ele>
        <time>2015-03-30T17:14:08Z</time>
      </trkpt>
      <trkpt lat="41.316187" lon="-6.504853">
        <ele>693.324</ele>
        <time>2015-03-30T17:14:18Z</time>
      </trkpt>
      <trkpt lat="41.316111" lon="-6.504775">
        <ele>693.369</ele>
        <time>2015-03-30T17:14:23Z</time>
      </trkpt>
      <trkpt lat="41.316099" lon="-6.504766">
        <ele>694.234</ele>
        <time>2015-03-30T17:14:24Z</time>
      </trkpt>
      <trkpt lat="41.316085" lon="-6.504761">
        <ele>693.748</ele>
        <time>2015-03-30T17:14:25Z</time>
      </trkpt>
      <trkpt lat="41.316073" lon="-6.504748">
        <ele>693.778</ele>
        <time>2015-03-30T17:14:26Z</time>
      </trkpt>
      <trkpt lat="41.316064" lon="-6.504734">
        <ele>694.211</ele>
        <time>2015-03-30T17:14:27Z</time>
      </trkpt>
      <trkpt lat="41.316048" lon="-6.504724">
        <ele>694.266</ele>
        <time>2015-03-30T17:14:28Z</time>
      </trkpt>
      <trkpt lat="41.316033" lon="-6.504717">
        <ele>694.281</ele>
        <time>2015-03-30T17:14:29Z</time>
      </trkpt>
      <trkpt lat="41.316018" lon="-6.504708">
        <ele>694.261</ele>
        <time>2015-03-30T17:14:30Z</time>
      </trkpt>
      <trkpt lat="41.316003" lon="-6.504704">
        <ele>694.217</ele>
        <time>2015-03-30T17:14:31Z</time>
      </trkpt>
      <trkpt lat="41.315990" lon="-6.504700">
        <ele>694.207</ele>
        <time>2015-03-30T17:14:32Z</time>
      </trkpt>
      <trkpt lat="41.315973" lon="-6.504690">
        <ele>694.297</ele>
        <time>2015-03-30T17:14:33Z</time>
      </trkpt>
      <trkpt lat="41.315904" lon="-6.504661">
        <ele>695.762</ele>
        <time>2015-03-30T17:14:37Z</time>
      </trkpt>
      <trkpt lat="41.315887" lon="-6.504658">
        <ele>695.247</ele>
        <time>2015-03-30T17:14:38Z</time>
      </trkpt>
      <trkpt lat="41.315782" lon="-6.504618">
        <ele>695.721</ele>
        <time>2015-03-30T17:14:46Z</time>
      </trkpt>
      <trkpt lat="41.315700" lon="-6.504581">
        <ele>696.171</ele>
        <time>2015-03-30T17:14:51Z</time>
      </trkpt>
      <trkpt lat="41.315684" lon="-6.504573">
        <ele>696.674</ele>
        <time>2015-03-30T17:14:52Z</time>
      </trkpt>
      <trkpt lat="41.315666" lon="-6.504571">
        <ele>696.619</ele>
        <time>2015-03-30T17:14:53Z</time>
      </trkpt>
      <trkpt lat="41.315612" lon="-6.504556">
        <ele>697.665</ele>
        <time>2015-03-30T17:14:57Z</time>
      </trkpt>
      <trkpt lat="41.315600" lon="-6.504555">
        <ele>697.668</ele>
        <time>2015-03-30T17:14:58Z</time>
      </trkpt>
      <trkpt lat="41.315440" lon="-6.504518">
        <ele>698.514</ele>
        <time>2015-03-30T17:15:08Z</time>
      </trkpt>
      <trkpt lat="41.315424" lon="-6.504517">
        <ele>698.107</ele>
        <time>2015-03-30T17:15:09Z</time>
      </trkpt>
      <trkpt lat="41.315412" lon="-6.504507">
        <ele>698.585</ele>
        <time>2015-03-30T17:15:10Z</time>
      </trkpt>
      <trkpt lat="41.315400" lon="-6.504497">
        <ele>698.530</ele>
        <time>2015-03-30T17:15:11Z</time>
      </trkpt>
      <trkpt lat="41.315388" lon="-6.504491">
        <ele>698.545</ele>
        <time>2015-03-30T17:15:12Z</time>
      </trkpt>
      <trkpt lat="41.315374" lon="-6.504487">
        <ele>698.529</ele>
        <time>2015-03-30T17:15:13Z</time>
      </trkpt>
      <trkpt lat="41.315228" lon="-6.504440">
        <ele>699.529</ele>
        <time>2015-03-30T17:15:23Z</time>
      </trkpt>
      <trkpt lat="41.315203" lon="-6.504419">
        <ele>699.582</ele>
        <time>2015-03-30T17:15:25Z</time>
      </trkpt>
      <trkpt lat="41.315187" lon="-6.504416">
        <ele>699.557</ele>
        <time>2015-03-30T17:15:26Z</time>
      </trkpt>
      <trkpt lat="41.315155" lon="-6.504413">
        <ele>700.061</ele>
        <time>2015-03-30T17:15:28Z</time>
      </trkpt>
      <trkpt lat="41.315141" lon="-6.504404">
        <ele>700.021</ele>
        <time>2015-03-30T17:15:29Z</time>
      </trkpt>
      <trkpt lat="41.315129" lon="-6.504392">
        <ele>700.013</ele>
        <time>2015-03-30T17:15:30Z</time>
      </trkpt>
      <trkpt lat="41.315117" lon="-6.504377">
        <ele>700.007</ele>
        <time>2015-03-30T17:15:31Z</time>
      </trkpt>
      <trkpt lat="41.315103" lon="-6.504369">
        <ele>700.065</ele>
        <time>2015-03-30T17:15:32Z</time>
      </trkpt>
      <trkpt lat="41.315086" lon="-6.504367">
        <ele>700.090</ele>
        <time>2015-03-30T17:15:33Z</time>
      </trkpt>
      <trkpt lat="41.315071" lon="-6.504364">
        <ele>700.075</ele>
        <time>2015-03-30T17:15:34Z</time>
      </trkpt>
      <trkpt lat="41.315056" lon="-6.504360">
        <ele>700.039</ele>
        <time>2015-03-30T17:15:35Z</time>
      </trkpt>
      <trkpt lat="41.315039" lon="-6.504357">
        <ele>700.569</ele>
        <time>2015-03-30T17:15:36Z</time>
      </trkpt>
      <trkpt lat="41.315027" lon="-6.504352">
        <ele>700.532</ele>
        <time>2015-03-30T17:15:37Z</time>
      </trkpt>
      <trkpt lat="41.314885" lon="-6.504289">
        <ele>701.427</ele>
        <time>2015-03-30T17:15:47Z</time>
      </trkpt>
      <trkpt lat="41.314736" lon="-6.504166">
        <ele>702.937</ele>
        <time>2015-03-30T17:15:57Z</time>
      </trkpt>
      <trkpt lat="41.314627" lon="-6.504061">
        <ele>703.849</ele>
        <time>2015-03-30T17:16:06Z</time>
      </trkpt>
      <trkpt lat="41.314586" lon="-6.504056">
        <ele>702.913</ele>
        <time>2015-03-30T17:16:09Z</time>
      </trkpt>
      <trkpt lat="41.314542" lon="-6.504065">
        <ele>705.807</ele>
        <time>2015-03-30T17:16:13Z</time>
      </trkpt>
      <trkpt lat="41.314327" lon="-6.504008">
        <ele>706.772</ele>
        <time>2015-03-30T17:16:27Z</time>
      </trkpt>
      <trkpt lat="41.314108" lon="-6.503930">
        <ele>709.137</ele>
        <time>2015-03-30T17:16:40Z</time>
      </trkpt>
      <trkpt lat="41.313919" lon="-6.503890">
        <ele>711.012</ele>
        <time>2015-03-30T17:16:51Z</time>
      </trkpt>
      <trkpt lat="41.313866" lon="-6.503865">
        <ele>711.526</ele>
        <time>2015-03-30T17:16:55Z</time>
      </trkpt>
      <trkpt lat="41.313780" lon="-6.503855">
        <ele>712.526</ele>
        <time>2015-03-30T17:17:01Z</time>
      </trkpt>
      <trkpt lat="41.313706" lon="-6.503843">
        <ele>713.079</ele>
        <time>2015-03-30T17:17:06Z</time>
      </trkpt>
      <trkpt lat="41.313546" lon="-6.503799">
        <ele>714.954</ele>
        <time>2015-03-30T17:17:16Z</time>
      </trkpt>
      <trkpt lat="41.313485" lon="-6.503772">
        <ele>715.473</ele>
        <time>2015-03-30T17:17:20Z</time>
      </trkpt>
      <trkpt lat="41.313285" lon="-6.503651">
        <ele>716.885</ele>
        <time>2015-03-30T17:17:34Z</time>
      </trkpt>
      <trkpt lat="41.313146" lon="-6.503539">
        <ele>717.313</ele>
        <time>2015-03-30T17:17:42Z</time>
      </trkpt>
      <trkpt lat="41.313026" lon="-6.503470">
        <ele>717.807</ele>
        <time>2015-03-30T17:17:48Z</time>
      </trkpt>
      <trkpt lat="41.312941" lon="-6.503421">
        <ele>717.846</ele>
        <time>2015-03-30T17:17:52Z</time>
      </trkpt>
      <trkpt lat="41.312719" lon="-6.503146">
        <ele>718.271</ele>
        <time>2015-03-30T17:18:04Z</time>
      </trkpt>
      <trkpt lat="41.312541" lon="-6.502891">
        <ele>717.316</ele>
        <time>2015-03-30T17:18:13Z</time>
      </trkpt>
      <trkpt lat="41.312354" lon="-6.502750">
        <ele>716.810</ele>
        <time>2015-03-30T17:18:21Z</time>
      </trkpt>
      <trkpt lat="41.312236" lon="-6.502571">
        <ele>717.340</ele>
        <time>2015-03-30T17:18:32Z</time>
      </trkpt>
      <trkpt lat="41.312228" lon="-6.502542">
        <ele>717.383</ele>
        <time>2015-03-30T17:18:34Z</time>
      </trkpt>
      <trkpt lat="41.312217" lon="-6.502427">
        <ele>717.898</ele>
        <time>2015-03-30T17:18:40Z</time>
      </trkpt>
      <trkpt lat="41.312281" lon="-6.502338">
        <ele>718.257</ele>
        <time>2015-03-30T17:18:48Z</time>
      </trkpt>
      <trkpt lat="41.312294" lon="-6.502288">
        <ele>717.800</ele>
        <time>2015-03-30T17:18:56Z</time>
      </trkpt>
      <trkpt lat="41.312309" lon="-6.502269">
        <ele>717.820</ele>
        <time>2015-03-30T17:19:06Z</time>
      </trkpt>
      <trkpt lat="41.312309" lon="-6.502303">
        <ele>717.807</ele>
        <time>2015-03-30T17:19:19Z</time>
      </trkpt>
      <trkpt lat="41.312307" lon="-6.502306">
        <ele>717.874</ele>
        <time>2015-03-30T17:19:29Z</time>
      </trkpt>
      <trkpt lat="41.312311" lon="-6.502303">
        <ele>717.859</ele>
        <time>2015-03-30T17:19:53Z</time>
      </trkpt>
      <trkpt lat="41.312309" lon="-6.502304">
        <ele>718.224</ele>
        <time>2015-03-30T17:20:16Z</time>
      </trkpt>
      <trkpt lat="41.312314" lon="-6.502318">
        <ele>717.858</ele>
        <time>2015-03-30T17:20:40Z</time>
      </trkpt>
      <trkpt lat="41.312323" lon="-6.502318">
        <ele>717.868</ele>
        <time>2015-03-30T17:21:06Z</time>
      </trkpt>
      <trkpt lat="41.312310" lon="-6.502317">
        <ele>718.241</ele>
        <time>2015-03-30T17:21:32Z</time>
      </trkpt>
      <trkpt lat="41.312311" lon="-6.502311">
        <ele>718.256</ele>
        <time>2015-03-30T17:22:01Z</time>
      </trkpt>
      <trkpt lat="41.312316" lon="-6.502308">
        <ele>717.898</ele>
        <time>2015-03-30T17:22:27Z</time>
      </trkpt>
      <trkpt lat="41.312313" lon="-6.502306">
        <ele>718.215</ele>
        <time>2015-03-30T17:22:50Z</time>
      </trkpt>
      <trkpt lat="41.312319" lon="-6.502297">
        <ele>718.226</ele>
        <time>2015-03-30T17:23:18Z</time>
      </trkpt>
      <trkpt lat="41.312310" lon="-6.502313">
        <ele>718.207</ele>
        <time>2015-03-30T17:23:40Z</time>
      </trkpt>
      <trkpt lat="41.312322" lon="-6.502303">
        <ele>718.218</ele>
        <time>2015-03-30T17:24:10Z</time>
      </trkpt>
      <trkpt lat="41.312317" lon="-6.502291">
        <ele>718.223</ele>
        <time>2015-03-30T17:24:39Z</time>
      </trkpt>
      <trkpt lat="41.312324" lon="-6.502314">
        <ele>718.268</ele>
        <time>2015-03-30T17:25:06Z</time>
      </trkpt>
      <trkpt lat="41.312324" lon="-6.502319">
        <ele>718.272</ele>
        <time>2015-03-30T17:25:30Z</time>
      </trkpt>
      <trkpt lat="41.312316" lon="-6.502314">
        <ele>718.242</ele>
        <time>2015-03-30T17:26:00Z</time>
      </trkpt>
      <trkpt lat="41.312324" lon="-6.502314">
        <ele>718.765</ele>
        <time>2015-03-30T17:26:22Z</time>
      </trkpt>
      <trkpt lat="41.312329" lon="-6.502312">
        <ele>718.280</ele>
        <time>2015-03-30T17:26:46Z</time>
      </trkpt>
      <trkpt lat="41.312322" lon="-6.502325">
        <ele>718.769</ele>
        <time>2015-03-30T17:27:10Z</time>
      </trkpt>
      <trkpt lat="41.312318" lon="-6.502297">
        <ele>718.204</ele>
        <time>2015-03-30T17:27:35Z</time>
      </trkpt>
      <trkpt lat="41.312304" lon="-6.502290">
        <ele>718.224</ele>
        <time>2015-03-30T17:27:56Z</time>
      </trkpt>
      <trkpt lat="41.312315" lon="-6.502298">
        <ele>718.207</ele>
        <time>2015-03-30T17:28:18Z</time>
      </trkpt>
      <trkpt lat="41.312312" lon="-6.502306">
        <ele>718.245</ele>
        <time>2015-03-30T17:28:41Z</time>
      </trkpt>
      <trkpt lat="41.312310" lon="-6.502338">
        <ele>718.270</ele>
        <time>2015-03-30T17:29:05Z</time>
      </trkpt>
      <trkpt lat="41.312312" lon="-6.502343">
        <ele>718.265</ele>
        <time>2015-03-30T17:29:24Z</time>
      </trkpt>
      <trkpt lat="41.312319" lon="-6.502323">
        <ele>718.229</ele>
        <time>2015-03-30T17:29:58Z</time>
      </trkpt>
      <trkpt lat="41.312329" lon="-6.502316">
        <ele>718.239</ele>
        <time>2015-03-30T17:30:30Z</time>
      </trkpt>
      <trkpt lat="41.312319" lon="-6.502329">
        <ele>718.272</ele>
        <time>2015-03-30T17:31:03Z</time>
      </trkpt>
      <trkpt lat="41.312314" lon="-6.502316">
        <ele>718.297</ele>
        <time>2015-03-30T17:31:28Z</time>
      </trkpt>
      <trkpt lat="41.312312" lon="-6.502322">
        <ele>718.276</ele>
        <time>2015-03-30T17:32:04Z</time>
      </trkpt>
      <trkpt lat="41.312318" lon="-6.502322">
        <ele>718.290</ele>
        <time>2015-03-30T17:32:32Z</time>
      </trkpt>
      <trkpt lat="41.312323" lon="-6.502297">
        <ele>718.219</ele>
        <time>2015-03-30T17:33:05Z</time>
      </trkpt>
      <trkpt lat="41.312304" lon="-6.502288">
        <ele>718.207</ele>
        <time>2015-03-30T17:33:34Z</time>
      </trkpt>
      <trkpt lat="41.312308" lon="-6.502271">
        <ele>718.286</ele>
        <time>2015-03-30T17:33:58Z</time>
      </trkpt>
      <trkpt lat="41.312309" lon="-6.502265">
        <ele>718.261</ele>
        <time>2015-03-30T17:34:22Z</time>
      </trkpt>
      <trkpt lat="41.312295" lon="-6.502285">
        <ele>718.796</ele>
        <time>2015-03-30T17:34:50Z</time>
      </trkpt>
      <trkpt lat="41.312296" lon="-6.502295">
        <ele>718.240</ele>
        <time>2015-03-30T17:35:13Z</time>
      </trkpt>
      <trkpt lat="41.312305" lon="-6.502297">
        <ele>718.280</ele>
        <time>2015-03-30T17:35:43Z</time>
      </trkpt>
      <trkpt lat="41.312304" lon="-6.502284">
        <ele>719.273</ele>
        <time>2015-03-30T17:36:07Z</time>
      </trkpt>
      <trkpt lat="41.312311" lon="-6.502287">
        <ele>718.228</ele>
        <time>2015-03-30T17:36:38Z</time>
      </trkpt>
      <trkpt lat="41.312314" lon="-6.502277">
        <ele>718.266</ele>
        <time>2015-03-30T17:37:04Z</time>
      </trkpt>
      <trkpt lat="41.312309" lon="-6.502279">
        <ele>718.729</ele>
        <time>2015-03-30T17:37:31Z</time>
      </trkpt>
      <trkpt lat="41.312301" lon="-6.502309">
        <ele>718.721</ele>
        <time>2015-03-30T17:38:02Z</time>
      </trkpt>
      <trkpt lat="41.312311" lon="-6.502315">
        <ele>718.207</ele>
        <time>2015-03-30T17:38:35Z</time>
      </trkpt>
      <trkpt lat="41.312314" lon="-6.502325">
        <ele>718.215</ele>
        <time>2015-03-30T17:38:59Z</time>
      </trkpt>
      <trkpt lat="41.312312" lon="-6.502317">
        <ele>718.770</ele>
        <time>2015-03-30T17:39:20Z</time>
      </trkpt>
      <trkpt lat="41.312310" lon="-6.502308">
        <ele>718.795</ele>
        <time>2015-03-30T17:39:39Z</time>
      </trkpt>
      <trkpt lat="41.312312" lon="-6.502305">
        <ele>718.799</ele>
        <time>2015-03-30T17:40:04Z</time>
      </trkpt>
      <trkpt lat="41.312318" lon="-6.502310">
        <ele>718.279</ele>
        <time>2015-03-30T17:40:24Z</time>
      </trkpt>
      <trkpt lat="41.312317" lon="-6.502308">
        <ele>718.742</ele>
        <time>2015-03-30T17:40:50Z</time>
      </trkpt>
      <trkpt lat="41.312315" lon="-6.502305">
        <ele>718.227</ele>
        <time>2015-03-30T17:41:16Z</time>
      </trkpt>
      <trkpt lat="41.312313" lon="-6.502313">
        <ele>718.771</ele>
        <time>2015-03-30T17:41:38Z</time>
      </trkpt>
      <trkpt lat="41.312321" lon="-6.502319">
        <ele>718.241</ele>
        <time>2015-03-30T17:41:58Z</time>
      </trkpt>
      <trkpt lat="41.312323" lon="-6.502313">
        <ele>718.215</ele>
        <time>2015-03-30T17:42:20Z</time>
      </trkpt>
      <trkpt lat="41.312332" lon="-6.502312">
        <ele>718.707</ele>
        <time>2015-03-30T17:42:41Z</time>
      </trkpt>
      <trkpt lat="41.312344" lon="-6.502315">
        <ele>718.776</ele>
        <time>2015-03-30T17:43:04Z</time>
      </trkpt>
      <trkpt lat="41.312332" lon="-6.502315">
        <ele>718.281</ele>
        <time>2015-03-30T17:43:30Z</time>
      </trkpt>
      <trkpt lat="41.312329" lon="-6.502331">
        <ele>718.246</ele>
        <time>2015-03-30T17:43:48Z</time>
      </trkpt>
      <trkpt lat="41.312333" lon="-6.502343">
        <ele>718.720</ele>
        <time>2015-03-30T17:44:11Z</time>
      </trkpt>
      <trkpt lat="41.312320" lon="-6.502337">
        <ele>718.230</ele>
        <time>2015-03-30T17:44:30Z</time>
      </trkpt>
      <trkpt lat="41.312292" lon="-6.502353">
        <ele>718.273</ele>
        <time>2015-03-30T17:44:41Z</time>
      </trkpt>
      <trkpt lat="41.312293" lon="-6.502353">
        <ele>718.268</ele>
        <time>2015-03-30T17:44:42Z</time>
      </trkpt>
      <trkpt lat="41.312323" lon="-6.502458">
        <ele>718.276</ele>
        <time>2015-03-30T17:44:50Z</time>
      </trkpt>
      <trkpt lat="41.312337" lon="-6.502509">
        <ele>718.290</ele>
        <time>2015-03-30T17:45:00Z</time>
      </trkpt>
      <trkpt lat="41.312347" lon="-6.502494">
        <ele>718.219</ele>
        <time>2015-03-30T17:45:30Z</time>
      </trkpt>
      <trkpt lat="41.312347" lon="-6.502509">
        <ele>718.207</ele>
        <time>2015-03-30T17:45:40Z</time>
      </trkpt>
      <trkpt lat="41.312239" lon="-6.502480">
        <ele>718.236</ele>
        <time>2015-03-30T17:45:48Z</time>
      </trkpt>
      <trkpt lat="41.312184" lon="-6.502278">
        <ele>718.751</ele>
        <time>2015-03-30T17:45:56Z</time>
      </trkpt>
      <trkpt lat="41.312179" lon="-6.502247">
        <ele>718.786</ele>
        <time>2015-03-30T17:45:57Z</time>
      </trkpt>
      <trkpt lat="41.312207" lon="-6.501901">
        <ele>718.780</ele>
        <time>2015-03-30T17:46:09Z</time>
      </trkpt>
      <trkpt lat="41.312448" lon="-6.501765">
        <ele>717.350</ele>
        <time>2015-03-30T17:46:19Z</time>
      </trkpt>
      <trkpt lat="41.312716" lon="-6.501622">
        <ele>715.453</ele>
        <time>2015-03-30T17:46:29Z</time>
      </trkpt>
      <trkpt lat="41.312939" lon="-6.501475">
        <ele>714.448</ele>
        <time>2015-03-30T17:46:38Z</time>
      </trkpt>
      <trkpt lat="41.313338" lon="-6.501259">
        <ele>713.478</ele>
        <time>2015-03-30T17:46:49Z</time>
      </trkpt>
      <trkpt lat="41.313418" lon="-6.501221">
        <ele>713.033</ele>
        <time>2015-03-30T17:46:51Z</time>
      </trkpt>
      <trkpt lat="41.313978" lon="-6.500878">
        <ele>711.526</ele>
        <time>2015-03-30T17:47:04Z</time>
      </trkpt>
      <trkpt lat="41.314259" lon="-6.500723">
        <ele>711.507</ele>
        <time>2015-03-30T17:47:10Z</time>
      </trkpt>
      <trkpt lat="41.314432" lon="-6.500632">
        <ele>711.516</ele>
        <time>2015-03-30T17:47:14Z</time>
      </trkpt>
      <trkpt lat="41.314558" lon="-6.500553">
        <ele>711.051</ele>
        <time>2015-03-30T17:47:17Z</time>
      </trkpt>
      <trkpt lat="41.314601" lon="-6.500528">
        <ele>711.056</ele>
        <time>2015-03-30T17:47:18Z</time>
      </trkpt>
      <trkpt lat="41.314686" lon="-6.500473">
        <ele>710.640</ele>
        <time>2015-03-30T17:47:20Z</time>
      </trkpt>
      <trkpt lat="41.314726" lon="-6.500444">
        <ele>710.680</ele>
        <time>2015-03-30T17:47:21Z</time>
      </trkpt>
      <trkpt lat="41.314842" lon="-6.500373">
        <ele>710.153</ele>
        <time>2015-03-30T17:47:24Z</time>
      </trkpt>
      <trkpt lat="41.315040" lon="-6.500145">
        <ele>711.048</ele>
        <time>2015-03-30T17:47:33Z</time>
      </trkpt>
      <trkpt lat="41.315077" lon="-6.500071">
        <ele>711.046</ele>
        <time>2015-03-30T17:47:37Z</time>
      </trkpt>
      <trkpt lat="41.315179" lon="-6.499859">
        <ele>711.088</ele>
        <time>2015-03-30T17:47:45Z</time>
      </trkpt>
      <trkpt lat="41.315346" lon="-6.499586">
        <ele>712.516</ele>
        <time>2015-03-30T17:47:54Z</time>
      </trkpt>
      <trkpt lat="41.315371" lon="-6.499583">
        <ele>712.507</ele>
        <time>2015-03-30T17:48:02Z</time>
      </trkpt>
      <trkpt lat="41.315369" lon="-6.499572">
        <ele>712.073</ele>
        <time>2015-03-30T17:48:26Z</time>
      </trkpt>
      <trkpt lat="41.315375" lon="-6.499555">
        <ele>712.098</ele>
        <time>2015-03-30T17:48:27Z</time>
      </trkpt>
      <trkpt lat="41.315439" lon="-6.499340">
        <ele>712.553</ele>
        <time>2015-03-30T17:48:34Z</time>
      </trkpt>
      <trkpt lat="41.315594" lon="-6.499009">
        <ele>712.577</ele>
        <time>2015-03-30T17:48:42Z</time>
      </trkpt>
      <trkpt lat="41.315876" lon="-6.498427">
        <ele>713.427</ele>
        <time>2015-03-30T17:48:55Z</time>
      </trkpt>
      <trkpt lat="41.316204" lon="-6.497811">
        <ele>715.460</ele>
        <time>2015-03-30T17:49:09Z</time>
      </trkpt>
      <trkpt lat="41.316277" lon="-6.497682">
        <ele>715.455</ele>
        <time>2015-03-30T17:49:12Z</time>
      </trkpt>
      <trkpt lat="41.316345" lon="-6.497550">
        <ele>715.469</ele>
        <time>2015-03-30T17:49:15Z</time>
      </trkpt>
      <trkpt lat="41.316370" lon="-6.497507">
        <ele>715.404</ele>
        <time>2015-03-30T17:49:16Z</time>
      </trkpt>
      <trkpt lat="41.316730" lon="-6.496902">
        <ele>716.324</ele>
        <time>2015-03-30T17:49:30Z</time>
      </trkpt>
      <trkpt lat="41.317109" lon="-6.496268">
        <ele>717.307</ele>
        <time>2015-03-30T17:49:45Z</time>
      </trkpt>
      <trkpt lat="41.317433" lon="-6.495751">
        <ele>718.265</ele>
        <time>2015-03-30T17:49:58Z</time>
      </trkpt>
      <trkpt lat="41.317527" lon="-6.495656">
        <ele>718.740</ele>
        <time>2015-03-30T17:50:01Z</time>
      </trkpt>
      <trkpt lat="41.317750" lon="-6.495702">
        <ele>717.825</ele>
        <time>2015-03-30T17:50:07Z</time>
      </trkpt>
      <trkpt lat="41.318027" lon="-6.495983">
        <ele>718.759</ele>
        <time>2015-03-30T17:50:16Z</time>
      </trkpt>
      <trkpt lat="41.318066" lon="-6.496000">
        <ele>716.359</ele>
        <time>2015-03-30T17:50:17Z</time>
      </trkpt>
      <trkpt lat="41.318105" lon="-6.496013">
        <ele>719.282</ele>
        <time>2015-03-30T17:50:18Z</time>
      </trkpt>
      <trkpt lat="41.318644" lon="-6.496161">
        <ele>719.297</ele>
        <time>2015-03-30T17:50:31Z</time>
      </trkpt>
      <trkpt lat="41.319257" lon="-6.496341">
        <ele>721.154</ele>
        <time>2015-03-30T17:50:47Z</time>
      </trkpt>
      <trkpt lat="41.319700" lon="-6.496560">
        <ele>722.656</ele>
        <time>2015-03-30T17:51:00Z</time>
      </trkpt>
      <trkpt lat="41.320170" lon="-6.496792">
        <ele>724.011</ele>
        <time>2015-03-30T17:51:14Z</time>
      </trkpt>
      <trkpt lat="41.320556" lon="-6.496988">
        <ele>725.007</ele>
        <time>2015-03-30T17:51:26Z</time>
      </trkpt>
      <trkpt lat="41.321011" lon="-6.497156">
        <ele>726.994</ele>
        <time>2015-03-30T17:51:40Z</time>
      </trkpt>
      <trkpt lat="41.321462" lon="-6.497219">
        <ele>728.859</ele>
        <time>2015-03-30T17:51:54Z</time>
      </trkpt>
      <trkpt lat="41.321834" lon="-6.497266">
        <ele>730.394</ele>
        <time>2015-03-30T17:52:06Z</time>
      </trkpt>
      <trkpt lat="41.322183" lon="-6.497191">
        <ele>731.758</ele>
        <time>2015-03-30T17:52:18Z</time>
      </trkpt>
      <trkpt lat="41.322550" lon="-6.497019">
        <ele>732.788</ele>
        <time>2015-03-30T17:52:31Z</time>
      </trkpt>
      <trkpt lat="41.322812" lon="-6.496893">
        <ele>733.651</ele>
        <time>2015-03-30T17:52:40Z</time>
      </trkpt>
      <trkpt lat="41.323160" lon="-6.496719">
        <ele>734.656</ele>
        <time>2015-03-30T17:52:52Z</time>
      </trkpt>
      <trkpt lat="41.323442" lon="-6.496516">
        <ele>735.634</ele>
        <time>2015-03-30T17:53:02Z</time>
      </trkpt>
      <trkpt lat="41.323712" lon="-6.496259">
        <ele>737.055</ele>
        <time>2015-03-30T17:53:13Z</time>
      </trkpt>
      <trkpt lat="41.324001" lon="-6.495948">
        <ele>739.410</ele>
        <time>2015-03-30T17:53:26Z</time>
      </trkpt>
      <trkpt lat="41.324259" lon="-6.495677">
        <ele>740.807</ele>
        <time>2015-03-30T17:53:38Z</time>
      </trkpt>
      <trkpt lat="41.324485" lon="-6.495451">
        <ele>742.342</ele>
        <time>2015-03-30T17:53:48Z</time>
      </trkpt>
      <trkpt lat="41.324815" lon="-6.495110">
        <ele>744.757</ele>
        <time>2015-03-30T17:54:02Z</time>
      </trkpt>
      <trkpt lat="41.325088" lon="-6.494830">
        <ele>746.692</ele>
        <time>2015-03-30T17:54:14Z</time>
      </trkpt>
      <trkpt lat="41.325363" lon="-6.494543">
        <ele>748.536</ele>
        <time>2015-03-30T17:54:26Z</time>
      </trkpt>
      <trkpt lat="41.325622" lon="-6.494241">
        <ele>749.526</ele>
        <time>2015-03-30T17:54:38Z</time>
      </trkpt>
      <trkpt lat="41.325897" lon="-6.493864">
        <ele>750.079</ele>
        <time>2015-03-30T17:54:50Z</time>
      </trkpt>
      <trkpt lat="41.326284" lon="-6.493270">
        <ele>750.554</ele>
        <time>2015-03-30T17:55:06Z</time>
      </trkpt>
      <trkpt lat="41.326656" lon="-6.492716">
        <ele>750.984</ele>
        <time>2015-03-30T17:55:20Z</time>
      </trkpt>
      <trkpt lat="41.326962" lon="-6.492249">
        <ele>750.907</ele>
        <time>2015-03-30T17:55:31Z</time>
      </trkpt>
      <trkpt lat="41.326992" lon="-6.492206">
        <ele>750.917</ele>
        <time>2015-03-30T17:55:32Z</time>
      </trkpt>
      <trkpt lat="41.327324" lon="-6.491821">
        <ele>750.907</ele>
        <time>2015-03-30T17:55:42Z</time>
      </trkpt>
      <trkpt lat="41.327361" lon="-6.491789">
        <ele>750.917</ele>
        <time>2015-03-30T17:55:43Z</time>
      </trkpt>
      <trkpt lat="41.327623" lon="-6.491546">
        <ele>751.482</ele>
        <time>2015-03-30T17:55:50Z</time>
      </trkpt>
      <trkpt lat="41.327817" lon="-6.491417">
        <ele>752.927</ele>
        <time>2015-03-30T17:55:55Z</time>
      </trkpt>
      <trkpt lat="41.327850" lon="-6.491388">
        <ele>751.421</ele>
        <time>2015-03-30T17:55:56Z</time>
      </trkpt>
      <trkpt lat="41.327886" lon="-6.491361">
        <ele>751.471</ele>
        <time>2015-03-30T17:55:57Z</time>
      </trkpt>
      <trkpt lat="41.328040" lon="-6.491261">
        <ele>751.474</ele>
        <time>2015-03-30T17:56:01Z</time>
      </trkpt>
      <trkpt lat="41.328079" lon="-6.491236">
        <ele>751.449</ele>
        <time>2015-03-30T17:56:02Z</time>
      </trkpt>
      <trkpt lat="41.328397" lon="-6.491012">
        <ele>751.988</ele>
        <time>2015-03-30T17:56:10Z</time>
      </trkpt>
      <trkpt lat="41.328436" lon="-6.490983">
        <ele>751.424</ele>
        <time>2015-03-30T17:56:11Z</time>
      </trkpt>
      <trkpt lat="41.328913" lon="-6.490675">
        <ele>751.926</ele>
        <time>2015-03-30T17:56:23Z</time>
      </trkpt>
      <trkpt lat="41.328954" lon="-6.490657">
        <ele>751.407</ele>
        <time>2015-03-30T17:56:24Z</time>
      </trkpt>
      <trkpt lat="41.329038" lon="-6.490617">
        <ele>751.457</ele>
        <time>2015-03-30T17:56:26Z</time>
      </trkpt>
      <trkpt lat="41.329083" lon="-6.490602">
        <ele>751.422</ele>
        <time>2015-03-30T17:56:27Z</time>
      </trkpt>
      <trkpt lat="41.329677" lon="-6.490533">
        <ele>750.977</ele>
        <time>2015-03-30T17:56:40Z</time>
      </trkpt>
      <trkpt lat="41.330251" lon="-6.490568">
        <ele>749.051</ele>
        <time>2015-03-30T17:56:51Z</time>
      </trkpt>
      <trkpt lat="41.330940" lon="-6.490419">
        <ele>746.671</ele>
        <time>2015-03-30T17:57:02Z</time>
      </trkpt>
      <trkpt lat="41.331551" lon="-6.490167">
        <ele>749.034</ele>
        <time>2015-03-30T17:57:13Z</time>
      </trkpt>
      <trkpt lat="41.332064" lon="-6.489959">
        <ele>751.499</ele>
        <time>2015-03-30T17:57:25Z</time>
      </trkpt>
      <trkpt lat="41.332629" lon="-6.489907">
        <ele>750.925</ele>
        <time>2015-03-30T17:57:38Z</time>
      </trkpt>
      <trkpt lat="41.333407" lon="-6.489885">
        <ele>749.526</ele>
        <time>2015-03-30T17:57:53Z</time>
      </trkpt>
      <trkpt lat="41.334221" lon="-6.489866">
        <ele>748.008</ele>
        <time>2015-03-30T17:58:08Z</time>
      </trkpt>
      <trkpt lat="41.334993" lon="-6.489844">
        <ele>748.507</ele>
        <time>2015-03-30T17:58:22Z</time>
      </trkpt>
      <trkpt lat="41.335552" lon="-6.489832">
        <ele>750.041</ele>
        <time>2015-03-30T17:58:34Z</time>
      </trkpt>
      <trkpt lat="41.336158" lon="-6.489820">
        <ele>750.966</ele>
        <time>2015-03-30T17:58:48Z</time>
      </trkpt>
      <trkpt lat="41.336631" lon="-6.489810">
        <ele>752.491</ele>
        <time>2015-03-30T17:59:00Z</time>
      </trkpt>
      <trkpt lat="41.337148" lon="-6.489800">
        <ele>753.865</ele>
        <time>2015-03-30T17:59:14Z</time>
      </trkpt>
      <trkpt lat="41.337587" lon="-6.489784">
        <ele>753.315</ele>
        <time>2015-03-30T17:59:25Z</time>
      </trkpt>
      <trkpt lat="41.338338" lon="-6.489760">
        <ele>751.928</ele>
        <time>2015-03-30T17:59:41Z</time>
      </trkpt>
      <trkpt lat="41.339068" lon="-6.489742">
        <ele>749.013</ele>
        <time>2015-03-30T17:59:53Z</time>
      </trkpt>
      <trkpt lat="41.339687" lon="-6.489720">
        <ele>747.692</ele>
        <time>2015-03-30T18:00:03Z</time>
      </trkpt>
      <trkpt lat="41.340620" lon="-6.489700">
        <ele>748.073</ele>
        <time>2015-03-30T18:00:19Z</time>
      </trkpt>
      <trkpt lat="41.341358" lon="-6.489689">
        <ele>748.520</ele>
        <time>2015-03-30T18:00:33Z</time>
      </trkpt>
      <trkpt lat="41.341963" lon="-6.489756">
        <ele>747.607</ele>
        <time>2015-03-30T18:00:45Z</time>
      </trkpt>
      <trkpt lat="41.342618" lon="-6.490076">
        <ele>746.678</ele>
        <time>2015-03-30T18:00:58Z</time>
      </trkpt>
      <trkpt lat="41.343322" lon="-6.490448">
        <ele>746.693</ele>
        <time>2015-03-30T18:01:12Z</time>
      </trkpt>
      <trkpt lat="41.344072" lon="-6.490828">
        <ele>746.198</ele>
        <time>2015-03-30T18:01:28Z</time>
      </trkpt>
      <trkpt lat="41.344660" lon="-6.491129">
        <ele>746.692</ele>
        <time>2015-03-30T18:01:42Z</time>
      </trkpt>
      <trkpt lat="41.345142" lon="-6.491380">
        <ele>747.122</ele>
        <time>2015-03-30T18:01:54Z</time>
      </trkpt>
      <trkpt lat="41.345645" lon="-6.491653">
        <ele>748.065</ele>
        <time>2015-03-30T18:02:07Z</time>
      </trkpt>
      <trkpt lat="41.345685" lon="-6.491674">
        <ele>748.010</ele>
        <time>2015-03-30T18:02:08Z</time>
      </trkpt>
      <trkpt lat="41.346267" lon="-6.491962">
        <ele>749.537</ele>
        <time>2015-03-30T18:02:24Z</time>
      </trkpt>
      <trkpt lat="41.346743" lon="-6.492205">
        <ele>751.449</ele>
        <time>2015-03-30T18:02:39Z</time>
      </trkpt>
      <trkpt lat="41.347115" lon="-6.492384">
        <ele>753.313</ele>
        <time>2015-03-30T18:02:51Z</time>
      </trkpt>
      <trkpt lat="41.347415" lon="-6.492541">
        <ele>754.307</ele>
        <time>2015-03-30T18:03:01Z</time>
      </trkpt>
      <trkpt lat="41.347725" lon="-6.492703">
        <ele>755.742</ele>
        <time>2015-03-30T18:03:12Z</time>
      </trkpt>
      <trkpt lat="41.348047" lon="-6.492871">
        <ele>757.217</ele>
        <time>2015-03-30T18:03:23Z</time>
      </trkpt>
      <trkpt lat="41.348428" lon="-6.493069">
        <ele>758.152</ele>
        <time>2015-03-30T18:03:36Z</time>
      </trkpt>
      <trkpt lat="41.348826" lon="-6.493277">
        <ele>759.666</ele>
        <time>2015-03-30T18:03:49Z</time>
      </trkpt>
      <trkpt lat="41.349197" lon="-6.493452">
        <ele>759.156</ele>
        <time>2015-03-30T18:04:00Z</time>
      </trkpt>
      <trkpt lat="41.349645" lon="-6.493593">
        <ele>759.149</ele>
        <time>2015-03-30T18:04:12Z</time>
      </trkpt>
      <trkpt lat="41.350271" lon="-6.493704">
        <ele>759.184</ele>
        <time>2015-03-30T18:04:28Z</time>
      </trkpt>
      <trkpt lat="41.350850" lon="-6.493764">
        <ele>759.619</ele>
        <time>2015-03-30T18:04:43Z</time>
      </trkpt>
      <trkpt lat="41.351445" lon="-6.493828">
        <ele>758.609</ele>
        <time>2015-03-30T18:04:56Z</time>
      </trkpt>
      <trkpt lat="41.352230" lon="-6.493922">
        <ele>756.719</ele>
        <time>2015-03-30T18:05:11Z</time>
      </trkpt>
      <trkpt lat="41.352282" lon="-6.493928">
        <ele>756.707</ele>
        <time>2015-03-30T18:05:12Z</time>
      </trkpt>
      <trkpt lat="41.353132" lon="-6.494014">
        <ele>755.760</ele>
        <time>2015-03-30T18:05:28Z</time>
      </trkpt>
      <trkpt lat="41.353758" lon="-6.494083">
        <ele>755.755</ele>
        <time>2015-03-30T18:05:40Z</time>
      </trkpt>
      <trkpt lat="41.354260" lon="-6.494166">
        <ele>755.790</ele>
        <time>2015-03-30T18:05:50Z</time>
      </trkpt>
      <trkpt lat="41.354926" lon="-6.494483">
        <ele>755.314</ele>
        <time>2015-03-30T18:06:04Z</time>
      </trkpt>
      <trkpt lat="41.355578" lon="-6.494826">
        <ele>754.874</ele>
        <time>2015-03-30T18:06:18Z</time>
      </trkpt>
      <trkpt lat="41.356178" lon="-6.495131">
        <ele>754.377</ele>
        <time>2015-03-30T18:06:31Z</time>
      </trkpt>
      <trkpt lat="41.356892" lon="-6.495489">
        <ele>753.892</ele>
        <time>2015-03-30T18:06:46Z</time>
      </trkpt>
      <trkpt lat="41.357471" lon="-6.495662">
        <ele>754.312</ele>
        <time>2015-03-30T18:06:58Z</time>
      </trkpt>
      <trkpt lat="41.358086" lon="-6.495718">
        <ele>755.332</ele>
        <time>2015-03-30T18:07:11Z</time>
      </trkpt>
      <trkpt lat="41.358715" lon="-6.495765">
        <ele>756.205</ele>
        <time>2015-03-30T18:07:25Z</time>
      </trkpt>
      <trkpt lat="41.359276" lon="-6.495803">
        <ele>757.207</ele>
        <time>2015-03-30T18:07:38Z</time>
      </trkpt>
      <trkpt lat="41.359782" lon="-6.495850">
        <ele>758.180</ele>
        <time>2015-03-30T18:07:50Z</time>
      </trkpt>
      <trkpt lat="41.359824" lon="-6.495857">
        <ele>758.195</ele>
        <time>2015-03-30T18:07:51Z</time>
      </trkpt>
      <trkpt lat="41.360288" lon="-6.495878">
        <ele>759.150</ele>
        <time>2015-03-30T18:08:02Z</time>
      </trkpt>
      <trkpt lat="41.360841" lon="-6.495924">
        <ele>760.194</ele>
        <time>2015-03-30T18:08:15Z</time>
      </trkpt>
      <trkpt lat="41.361216" lon="-6.495950">
        <ele>761.054</ele>
        <time>2015-03-30T18:08:24Z</time>
      </trkpt>
      <trkpt lat="41.361769" lon="-6.496000">
        <ele>762.037</ele>
        <time>2015-03-30T18:08:38Z</time>
      </trkpt>
      <trkpt lat="41.362456" lon="-6.496047">
        <ele>761.592</ele>
        <time>2015-03-30T18:08:54Z</time>
      </trkpt>
      <trkpt lat="41.363084" lon="-6.496081">
        <ele>761.039</ele>
        <time>2015-03-30T18:09:07Z</time>
      </trkpt>
      <trkpt lat="41.363724" lon="-6.496127">
        <ele>761.001</ele>
        <time>2015-03-30T18:09:21Z</time>
      </trkpt>
      <trkpt lat="41.363857" lon="-6.496141">
        <ele>761.021</ele>
        <time>2015-03-30T18:09:24Z</time>
      </trkpt>
      <trkpt lat="41.363902" lon="-6.496142">
        <ele>761.007</ele>
        <time>2015-03-30T18:09:25Z</time>
      </trkpt>
      <trkpt lat="41.364655" lon="-6.496187">
        <ele>761.552</ele>
        <time>2015-03-30T18:09:42Z</time>
      </trkpt>
      <trkpt lat="41.365180" lon="-6.496229">
        <ele>762.037</ele>
        <time>2015-03-30T18:09:55Z</time>
      </trkpt>
      <trkpt lat="41.365517" lon="-6.496259">
        <ele>762.592</ele>
        <time>2015-03-30T18:10:04Z</time>
      </trkpt>
      <trkpt lat="41.365907" lon="-6.496277">
        <ele>762.996</ele>
        <time>2015-03-30T18:10:15Z</time>
      </trkpt>
      <trkpt lat="41.366368" lon="-6.496320">
        <ele>764.416</ele>
        <time>2015-03-30T18:10:27Z</time>
      </trkpt>
      <trkpt lat="41.366633" lon="-6.496323">
        <ele>765.449</ele>
        <time>2015-03-30T18:10:35Z</time>
      </trkpt>
      <trkpt lat="41.366946" lon="-6.496315">
        <ele>766.324</ele>
        <time>2015-03-30T18:10:45Z</time>
      </trkpt>
      <trkpt lat="41.367125" lon="-6.496162">
        <ele>766.892</ele>
        <time>2015-03-30T18:10:54Z</time>
      </trkpt>
      <trkpt lat="41.367194" lon="-6.495816">
        <ele>766.873</ele>
        <time>2015-03-30T18:11:03Z</time>
      </trkpt>
      <trkpt lat="41.367250" lon="-6.495326">
        <ele>766.320</ele>
        <time>2015-03-30T18:11:14Z</time>
      </trkpt>
      <trkpt lat="41.367327" lon="-6.494795">
        <ele>765.807</ele>
        <time>2015-03-30T18:11:25Z</time>
      </trkpt>
      <trkpt lat="41.367399" lon="-6.494219">
        <ele>766.338</ele>
        <time>2015-03-30T18:11:37Z</time>
      </trkpt>
      <trkpt lat="41.367483" lon="-6.493623">
        <ele>767.373</ele>
        <time>2015-03-30T18:11:50Z</time>
      </trkpt>
      <trkpt lat="41.367567" lon="-6.492963">
        <ele>768.298</ele>
        <time>2015-03-30T18:12:03Z</time>
      </trkpt>
      <trkpt lat="41.367673" lon="-6.492135">
        <ele>769.782</ele>
        <time>2015-03-30T18:12:19Z</time>
      </trkpt>
      <trkpt lat="41.367760" lon="-6.491457">
        <ele>770.612</ele>
        <time>2015-03-30T18:12:32Z</time>
      </trkpt>
      <trkpt lat="41.367835" lon="-6.490919">
        <ele>771.645</ele>
        <time>2015-03-30T18:12:42Z</time>
      </trkpt>
      <trkpt lat="41.367841" lon="-6.490865">
        <ele>771.670</ele>
        <time>2015-03-30T18:12:43Z</time>
      </trkpt>
      <trkpt lat="41.367943" lon="-6.490071">
        <ele>772.681</ele>
        <time>2015-03-30T18:12:58Z</time>
      </trkpt>
      <trkpt lat="41.368028" lon="-6.489440">
        <ele>773.061</ele>
        <time>2015-03-30T18:13:10Z</time>
      </trkpt>
      <trkpt lat="41.368148" lon="-6.488466">
        <ele>774.017</ele>
        <time>2015-03-30T18:13:28Z</time>
      </trkpt>
      <trkpt lat="41.368263" lon="-6.487785">
        <ele>775.407</ele>
        <time>2015-03-30T18:13:41Z</time>
      </trkpt>
      <trkpt lat="41.368289" lon="-6.487681">
        <ele>775.437</ele>
        <time>2015-03-30T18:13:43Z</time>
      </trkpt>
      <trkpt lat="41.368547" lon="-6.486898">
        <ele>773.592</ele>
        <time>2015-03-30T18:13:56Z</time>
      </trkpt>
      <trkpt lat="41.368856" lon="-6.485984">
        <ele>770.677</ele>
        <time>2015-03-30T18:14:07Z</time>
      </trkpt>
      <trkpt lat="41.369262" lon="-6.484742">
        <ele>768.761</ele>
        <time>2015-03-30T18:14:20Z</time>
      </trkpt>
      <trkpt lat="41.369694" lon="-6.483448">
        <ele>765.411</ele>
        <time>2015-03-30T18:14:34Z</time>
      </trkpt>
      <trkpt lat="41.370013" lon="-6.482468">
        <ele>763.944</ele>
        <time>2015-03-30T18:14:45Z</time>
      </trkpt>
      <trkpt lat="41.370286" lon="-6.481629">
        <ele>762.959</ele>
        <time>2015-03-30T18:14:55Z</time>
      </trkpt>
      <trkpt lat="41.370631" lon="-6.480613">
        <ele>760.599</ele>
        <time>2015-03-30T18:15:07Z</time>
      </trkpt>
      <trkpt lat="41.370754" lon="-6.480361">
        <ele>759.107</ele>
        <time>2015-03-30T18:15:10Z</time>
      </trkpt>
      <trkpt lat="41.371143" lon="-6.479677">
        <ele>756.227</ele>
        <time>2015-03-30T18:15:18Z</time>
      </trkpt>
      <trkpt lat="41.371648" lon="-6.478815">
        <ele>753.307</ele>
        <time>2015-03-30T18:15:28Z</time>
      </trkpt>
      <trkpt lat="41.372268" lon="-6.477748">
        <ele>750.058</ele>
        <time>2015-03-30T18:15:40Z</time>
      </trkpt>
      <trkpt lat="41.372822" lon="-6.476794">
        <ele>747.123</ele>
        <time>2015-03-30T18:15:51Z</time>
      </trkpt>
      <trkpt lat="41.373422" lon="-6.475806">
        <ele>744.738</ele>
        <time>2015-03-30T18:16:03Z</time>
      </trkpt>
      <trkpt lat="41.374046" lon="-6.474783">
        <ele>743.242</ele>
        <time>2015-03-30T18:16:16Z</time>
      </trkpt>
      <trkpt lat="41.374661" lon="-6.473950">
        <ele>741.342</ele>
        <time>2015-03-30T18:16:28Z</time>
      </trkpt>
      <trkpt lat="41.375774" lon="-6.472792">
        <ele>738.465</ele>
        <time>2015-03-30T18:16:47Z</time>
      </trkpt>
      <trkpt lat="41.376586" lon="-6.471954">
        <ele>737.010</ele>
        <time>2015-03-30T18:17:01Z</time>
      </trkpt>
      <trkpt lat="41.377286" lon="-6.471225">
        <ele>737.587</ele>
        <time>2015-03-30T18:17:14Z</time>
      </trkpt>
      <trkpt lat="41.377913" lon="-6.470487">
        <ele>736.542</ele>
        <time>2015-03-30T18:17:27Z</time>
      </trkpt>
      <trkpt lat="41.378389" lon="-6.469637">
        <ele>735.626</ele>
        <time>2015-03-30T18:17:39Z</time>
      </trkpt>
      <trkpt lat="41.378763" lon="-6.468623">
        <ele>734.607</ele>
        <time>2015-03-30T18:17:52Z</time>
      </trkpt>
      <trkpt lat="41.379110" lon="-6.467594">
        <ele>735.657</ele>
        <time>2015-03-30T18:18:06Z</time>
      </trkpt>
      <trkpt lat="41.379235" lon="-6.467251">
        <ele>736.512</ele>
        <time>2015-03-30T18:18:11Z</time>
      </trkpt>
      <trkpt lat="41.379277" lon="-6.467121">
        <ele>736.077</ele>
        <time>2015-03-30T18:18:13Z</time>
      </trkpt>
      <trkpt lat="41.379566" lon="-6.466308">
        <ele>738.421</ele>
        <time>2015-03-30T18:18:26Z</time>
      </trkpt>
      <trkpt lat="41.379857" lon="-6.465443">
        <ele>736.541</ele>
        <time>2015-03-30T18:18:39Z</time>
      </trkpt>
      <trkpt lat="41.380119" lon="-6.464611">
        <ele>734.694</ele>
        <time>2015-03-30T18:18:50Z</time>
      </trkpt>
      <trkpt lat="41.380277" lon="-6.463827">
        <ele>734.669</ele>
        <time>2015-03-30T18:19:00Z</time>
      </trkpt>
      <trkpt lat="41.380444" lon="-6.463005">
        <ele>735.133</ele>
        <time>2015-03-30T18:19:12Z</time>
      </trkpt>
      <trkpt lat="41.380623" lon="-6.462325">
        <ele>735.623</ele>
        <time>2015-03-30T18:19:23Z</time>
      </trkpt>
      <trkpt lat="41.380825" lon="-6.461608">
        <ele>735.615</ele>
        <time>2015-03-30T18:19:35Z</time>
      </trkpt>
      <trkpt lat="41.380998" lon="-6.460958">
        <ele>735.607</ele>
        <time>2015-03-30T18:19:45Z</time>
      </trkpt>
      <trkpt lat="41.381179" lon="-6.460300">
        <ele>736.562</ele>
        <time>2015-03-30T18:19:55Z</time>
      </trkpt>
      <trkpt lat="41.381239" lon="-6.460101">
        <ele>735.147</ele>
        <time>2015-03-30T18:19:58Z</time>
      </trkpt>
      <trkpt lat="41.381513" lon="-6.459099">
        <ele>736.542</ele>
        <time>2015-03-30T18:20:12Z</time>
      </trkpt>
      <trkpt lat="41.381613" lon="-6.458738">
        <ele>735.166</ele>
        <time>2015-03-30T18:20:17Z</time>
      </trkpt>
      <trkpt lat="41.381658" lon="-6.458596">
        <ele>734.696</ele>
        <time>2015-03-30T18:20:19Z</time>
      </trkpt>
      <trkpt lat="41.381890" lon="-6.457723">
        <ele>734.659</ele>
        <time>2015-03-30T18:20:31Z</time>
      </trkpt>
      <trkpt lat="41.382102" lon="-6.456953">
        <ele>735.174</ele>
        <time>2015-03-30T18:20:42Z</time>
      </trkpt>
      <trkpt lat="41.382334" lon="-6.456090">
        <ele>735.181</ele>
        <time>2015-03-30T18:20:54Z</time>
      </trkpt>
      <trkpt lat="41.382352" lon="-6.456018">
        <ele>735.161</ele>
        <time>2015-03-30T18:20:55Z</time>
      </trkpt>
      <trkpt lat="41.382564" lon="-6.455244">
        <ele>735.617</ele>
        <time>2015-03-30T18:21:06Z</time>
      </trkpt>
      <trkpt lat="41.382651" lon="-6.454959">
        <ele>735.607</ele>
        <time>2015-03-30T18:21:10Z</time>
      </trkpt>
      <trkpt lat="41.382669" lon="-6.454887">
        <ele>735.637</ele>
        <time>2015-03-30T18:21:11Z</time>
      </trkpt>
      <trkpt lat="41.382941" lon="-6.453880">
        <ele>736.022</ele>
        <time>2015-03-30T18:21:25Z</time>
      </trkpt>
      <trkpt lat="41.383138" lon="-6.453036">
        <ele>730.747</ele>
        <time>2015-03-30T18:21:36Z</time>
      </trkpt>
      <trkpt lat="41.383154" lon="-6.452960">
        <ele>738.931</ele>
        <time>2015-03-30T18:21:37Z</time>
      </trkpt>
      <trkpt lat="41.383170" lon="-6.452885">
        <ele>735.131</ele>
        <time>2015-03-30T18:21:38Z</time>
      </trkpt>
      <trkpt lat="41.383343" lon="-6.452025">
        <ele>735.174</ele>
        <time>2015-03-30T18:21:49Z</time>
      </trkpt>
      <trkpt lat="41.383538" lon="-6.451017">
        <ele>736.049</ele>
        <time>2015-03-30T18:22:02Z</time>
      </trkpt>
      <trkpt lat="41.383615" lon="-6.450486">
        <ele>736.599</ele>
        <time>2015-03-30T18:22:09Z</time>
      </trkpt>
      <trkpt lat="41.383639" lon="-6.449282">
        <ele>735.607</ele>
        <time>2015-03-30T18:22:24Z</time>
      </trkpt>
      <trkpt lat="41.383598" lon="-6.448302">
        <ele>732.727</ele>
        <time>2015-03-30T18:22:35Z</time>
      </trkpt>
      <trkpt lat="41.383547" lon="-6.447157">
        <ele>730.307</ele>
        <time>2015-03-30T18:22:47Z</time>
      </trkpt>
      <trkpt lat="41.383502" lon="-6.445964">
        <ele>726.998</ele>
        <time>2015-03-30T18:22:59Z</time>
      </trkpt>
      <trkpt lat="41.383489" lon="-6.445442">
        <ele>725.063</ele>
        <time>2015-03-30T18:23:04Z</time>
      </trkpt>
      <trkpt lat="41.383457" lon="-6.444739">
        <ele>721.158</ele>
        <time>2015-03-30T18:23:10Z</time>
      </trkpt>
      <trkpt lat="41.383433" lon="-6.443688">
        <ele>717.872</ele>
        <time>2015-03-30T18:23:18Z</time>
      </trkpt>
      <trkpt lat="41.383477" lon="-6.442963">
        <ele>714.442</ele>
        <time>2015-03-30T18:23:23Z</time>
      </trkpt>
      <trkpt lat="41.383590" lon="-6.441459">
        <ele>711.025</ele>
        <time>2015-03-30T18:23:34Z</time>
      </trkpt>
      <trkpt lat="41.383669" lon="-6.440276">
        <ele>709.680</ele>
        <time>2015-03-30T18:23:44Z</time>
      </trkpt>
      <trkpt lat="41.383639" lon="-6.439164">
        <ele>711.048</ele>
        <time>2015-03-30T18:23:55Z</time>
      </trkpt>
      <trkpt lat="41.383602" lon="-6.438337">
        <ele>713.061</ele>
        <time>2015-03-30T18:24:06Z</time>
      </trkpt>
      <trkpt lat="41.383591" lon="-6.437920">
        <ele>714.417</ele>
        <time>2015-03-30T18:24:12Z</time>
      </trkpt>
      <trkpt lat="41.383583" lon="-6.437787">
        <ele>713.907</ele>
        <time>2015-03-30T18:24:14Z</time>
      </trkpt>
      <trkpt lat="41.383624" lon="-6.437024">
        <ele>714.423</ele>
        <time>2015-03-30T18:24:25Z</time>
      </trkpt>
      <trkpt lat="41.383751" lon="-6.436351">
        <ele>713.968</ele>
        <time>2015-03-30T18:24:35Z</time>
      </trkpt>
      <trkpt lat="41.384021" lon="-6.435673">
        <ele>711.543</ele>
        <time>2015-03-30T18:24:46Z</time>
      </trkpt>
      <trkpt lat="41.384084" lon="-6.435563">
        <ele>711.547</ele>
        <time>2015-03-30T18:24:48Z</time>
      </trkpt>
      <trkpt lat="41.384119" lon="-6.435513">
        <ele>711.547</ele>
        <time>2015-03-30T18:24:49Z</time>
      </trkpt>
      <trkpt lat="41.384221" lon="-6.435368">
        <ele>710.650</ele>
        <time>2015-03-30T18:24:52Z</time>
      </trkpt>
      <trkpt lat="41.384300" lon="-6.435282">
        <ele>710.135</ele>
        <time>2015-03-30T18:24:54Z</time>
      </trkpt>
      <trkpt lat="41.384376" lon="-6.435189">
        <ele>709.637</ele>
        <time>2015-03-30T18:24:56Z</time>
      </trkpt>
      <trkpt lat="41.384449" lon="-6.435089">
        <ele>709.649</ele>
        <time>2015-03-30T18:24:58Z</time>
      </trkpt>
      <trkpt lat="41.384883" lon="-6.434498">
        <ele>707.213</ele>
        <time>2015-03-30T18:25:09Z</time>
      </trkpt>
      <trkpt lat="41.384920" lon="-6.434440">
        <ele>707.207</ele>
        <time>2015-03-30T18:25:10Z</time>
      </trkpt>
      <trkpt lat="41.384962" lon="-6.434386">
        <ele>706.782</ele>
        <time>2015-03-30T18:25:11Z</time>
      </trkpt>
      <trkpt lat="41.385438" lon="-6.433746">
        <ele>703.867</ele>
        <time>2015-03-30T18:25:22Z</time>
      </trkpt>
      <trkpt lat="41.386018" lon="-6.432973">
        <ele>700.972</ele>
        <time>2015-03-30T18:25:34Z</time>
      </trkpt>
      <trkpt lat="41.386495" lon="-6.432357">
        <ele>699.526</ele>
        <time>2015-03-30T18:25:44Z</time>
      </trkpt>
      <trkpt lat="41.386542" lon="-6.432328">
        <ele>699.016</ele>
        <time>2015-03-30T18:25:45Z</time>
      </trkpt>
      <trkpt lat="41.386590" lon="-6.432334">
        <ele>699.089</ele>
        <time>2015-03-30T18:25:46Z</time>
      </trkpt>
      <trkpt lat="41.386664" lon="-6.432372">
        <ele>699.564</ele>
        <time>2015-03-30T18:25:48Z</time>
      </trkpt>
      <trkpt lat="41.386717" lon="-6.432469">
        <ele>700.548</ele>
        <time>2015-03-30T18:25:57Z</time>
      </trkpt>
      <trkpt lat="41.386741" lon="-6.432458">
        <ele>700.561</ele>
        <time>2015-03-30T18:26:05Z</time>
      </trkpt>
      <trkpt lat="41.386746" lon="-6.432430">
        <ele>700.517</ele>
        <time>2015-03-30T18:26:07Z</time>
      </trkpt>
      <trkpt lat="41.386768" lon="-6.432480">
        <ele>700.907</ele>
        <time>2015-03-30T18:26:16Z</time>
      </trkpt>
      <trkpt lat="41.386759" lon="-6.432513">
        <ele>700.973</ele>
        <time>2015-03-30T18:26:25Z</time>
      </trkpt>
      <trkpt lat="41.386759" lon="-6.432509">
        <ele>700.958</ele>
        <time>2015-03-30T18:26:38Z</time>
      </trkpt>
      <trkpt lat="41.386757" lon="-6.432501">
        <ele>700.983</ele>
        <time>2015-03-30T18:26:54Z</time>
      </trkpt>
      <trkpt lat="41.386755" lon="-6.432490">
        <ele>700.957</ele>
        <time>2015-03-30T18:27:13Z</time>
      </trkpt>
      <trkpt lat="41.386750" lon="-6.432481">
        <ele>700.947</ele>
        <time>2015-03-30T18:27:28Z</time>
      </trkpt>
      <trkpt lat="41.386750" lon="-6.432479">
        <ele>700.530</ele>
        <time>2015-03-30T18:27:48Z</time>
      </trkpt>
      <trkpt lat="41.386452" lon="-6.431659">
        <ele>699.055</ele>
        <time>2015-03-30T18:53:34Z</time>
      </trkpt>
      <trkpt lat="41.386739" lon="-6.432318">
        <ele>698.576</ele>
        <time>2015-03-30T18:53:37Z</time>
      </trkpt>
      <trkpt lat="41.386741" lon="-6.432205">
        <ele>697.690</ele>
        <time>2015-03-30T18:53:39Z</time>
      </trkpt>
      <trkpt lat="41.386703" lon="-6.431987">
        <ele>697.619</ele>
        <time>2015-03-30T18:53:43Z</time>
      </trkpt>
      <trkpt lat="41.386626" lon="-6.431845">
        <ele>696.607</ele>
        <time>2015-03-30T18:53:46Z</time>
      </trkpt>
      <trkpt lat="41.386579" lon="-6.431832">
        <ele>694.796</ele>
        <time>2015-03-30T18:53:47Z</time>
      </trkpt>
      <trkpt lat="41.386530" lon="-6.431834">
        <ele>699.021</ele>
        <time>2015-03-30T18:53:48Z</time>
      </trkpt>
      <trkpt lat="41.385991" lon="-6.431797">
        <ele>696.156</ele>
        <time>2015-03-30T18:53:58Z</time>
      </trkpt>
      <trkpt lat="41.385458" lon="-6.431773">
        <ele>695.760</ele>
        <time>2015-03-30T18:54:06Z</time>
      </trkpt>
      <trkpt lat="41.385339" lon="-6.431760">
        <ele>695.710</ele>
        <time>2015-03-30T18:54:08Z</time>
      </trkpt>
      <trkpt lat="41.385179" lon="-6.431755">
        <ele>695.713</ele>
        <time>2015-03-30T18:54:11Z</time>
      </trkpt>
      <trkpt lat="41.385132" lon="-6.431743">
        <ele>696.178</ele>
        <time>2015-03-30T18:54:12Z</time>
      </trkpt>
      <trkpt lat="41.385094" lon="-6.431712">
        <ele>696.182</ele>
        <time>2015-03-30T18:54:13Z</time>
      </trkpt>
      <trkpt lat="41.385070" lon="-6.431660">
        <ele>696.143</ele>
        <time>2015-03-30T18:54:14Z</time>
      </trkpt>
      <trkpt lat="41.385057" lon="-6.431593">
        <ele>696.117</ele>
        <time>2015-03-30T18:54:15Z</time>
      </trkpt>
      <trkpt lat="41.385055" lon="-6.431519">
        <ele>696.607</ele>
        <time>2015-03-30T18:54:16Z</time>
      </trkpt>
      <trkpt lat="41.385059" lon="-6.431446">
        <ele>696.667</ele>
        <time>2015-03-30T18:54:17Z</time>
      </trkpt>
      <trkpt lat="41.385067" lon="-6.431377">
        <ele>696.172</ele>
        <time>2015-03-30T18:54:18Z</time>
      </trkpt>
      <trkpt lat="41.385083" lon="-6.431170">
        <ele>696.697</ele>
        <time>2015-03-30T18:54:21Z</time>
      </trkpt>
      <trkpt lat="41.385095" lon="-6.431106">
        <ele>696.641</ele>
        <time>2015-03-30T18:54:22Z</time>
      </trkpt>
      <trkpt lat="41.385153" lon="-6.430852">
        <ele>697.191</ele>
        <time>2015-03-30T18:54:26Z</time>
      </trkpt>
      <trkpt lat="41.385180" lon="-6.430726">
        <ele>697.624</ele>
        <time>2015-03-30T18:54:28Z</time>
      </trkpt>
      <trkpt lat="41.385401" lon="-6.430157">
        <ele>699.569</ele>
        <time>2015-03-30T18:54:39Z</time>
      </trkpt>
      <trkpt lat="41.385417" lon="-6.430111">
        <ele>699.564</ele>
        <time>2015-03-30T18:54:40Z</time>
      </trkpt>
      <trkpt lat="41.385479" lon="-6.429972">
        <ele>700.006</ele>
        <time>2015-03-30T18:54:43Z</time>
      </trkpt>
      <trkpt lat="41.385657" lon="-6.429520">
        <ele>703.316</ele>
        <time>2015-03-30T18:54:54Z</time>
      </trkpt>
      <trkpt lat="41.385747" lon="-6.429285">
        <ele>703.807</ele>
        <time>2015-03-30T18:55:01Z</time>
      </trkpt>
      <trkpt lat="41.385848" lon="-6.428993">
        <ele>705.345</ele>
        <time>2015-03-30T18:55:10Z</time>
      </trkpt>
      <trkpt lat="41.385962" lon="-6.428644">
        <ele>706.220</ele>
        <time>2015-03-30T18:55:20Z</time>
      </trkpt>
      <trkpt lat="41.386062" lon="-6.428418">
        <ele>707.715</ele>
        <time>2015-03-30T18:55:27Z</time>
      </trkpt>
      <trkpt lat="41.386044" lon="-6.428287">
        <ele>707.759</ele>
        <time>2015-03-30T18:55:31Z</time>
      </trkpt>
      <trkpt lat="41.385818" lon="-6.428008">
        <ele>708.699</ele>
        <time>2015-03-30T18:55:42Z</time>
      </trkpt>
      <trkpt lat="41.385775" lon="-6.427956">
        <ele>709.632</ele>
        <time>2015-03-30T18:55:45Z</time>
      </trkpt>
      <trkpt lat="41.385651" lon="-6.427853">
        <ele>711.087</ele>
        <time>2015-03-30T18:55:51Z</time>
      </trkpt>
      <trkpt lat="41.385328" lon="-6.427853">
        <ele>712.551</ele>
        <time>2015-03-30T18:56:01Z</time>
      </trkpt>
      <trkpt lat="41.385038" lon="-6.427907">
        <ele>713.001</ele>
        <time>2015-03-30T18:56:11Z</time>
      </trkpt>
      <trkpt lat="41.384737" lon="-6.427912">
        <ele>712.011</ele>
        <time>2015-03-30T18:56:19Z</time>
      </trkpt>
      <trkpt lat="41.384558" lon="-6.427857">
        <ele>710.607</ele>
        <time>2015-03-30T18:56:23Z</time>
      </trkpt>
      <trkpt lat="41.384423" lon="-6.427712">
        <ele>712.094</ele>
        <time>2015-03-30T18:56:28Z</time>
      </trkpt>
      <trkpt lat="41.384215" lon="-6.427266">
        <ele>713.469</ele>
        <time>2015-03-30T18:56:40Z</time>
      </trkpt>
      <trkpt lat="41.384066" lon="-6.426870">
        <ele>715.494</ele>
        <time>2015-03-30T18:56:50Z</time>
      </trkpt>
      <trkpt lat="41.384150" lon="-6.426470">
        <ele>717.318</ele>
        <time>2015-03-30T18:57:00Z</time>
      </trkpt>
      <trkpt lat="41.384238" lon="-6.426132">
        <ele>718.768</ele>
        <time>2015-03-30T18:57:09Z</time>
      </trkpt>
      <trkpt lat="41.384295" lon="-6.425923">
        <ele>719.781</ele>
        <time>2015-03-30T18:57:15Z</time>
      </trkpt>
      <trkpt lat="41.384468" lon="-6.425918">
        <ele>719.756</ele>
        <time>2015-03-30T18:57:22Z</time>
      </trkpt>
      <trkpt lat="41.384539" lon="-6.425970">
        <ele>719.711</ele>
        <time>2015-03-30T18:57:25Z</time>
      </trkpt>
      <trkpt lat="41.384594" lon="-6.426003">
        <ele>720.221</ele>
        <time>2015-03-30T18:57:34Z</time>
      </trkpt>
      <trkpt lat="41.384597" lon="-6.426004">
        <ele>720.203</ele>
        <time>2015-03-30T18:57:37Z</time>
      </trkpt>
      <trkpt lat="41.384587" lon="-6.425985">
        <ele>720.207</ele>
        <time>2015-03-30T18:57:44Z</time>
      </trkpt>
      <trkpt lat="41.384516" lon="-6.425936">
        <ele>720.290</ele>
        <time>2015-03-30T18:57:54Z</time>
      </trkpt>
      <trkpt lat="41.384509" lon="-6.425940">
        <ele>720.295</ele>
        <time>2015-03-30T18:58:07Z</time>
      </trkpt>
      <trkpt lat="41.384512" lon="-6.425945">
        <ele>720.240</ele>
        <time>2015-03-30T18:58:18Z</time>
      </trkpt>
      <trkpt lat="41.384525" lon="-6.425949">
        <ele>719.784</ele>
        <time>2015-03-30T18:58:30Z</time>
      </trkpt>
      <trkpt lat="41.384516" lon="-6.425973">
        <ele>720.244</ele>
        <time>2015-03-30T18:58:52Z</time>
      </trkpt>
      <trkpt lat="41.384512" lon="-6.425978">
        <ele>719.747</ele>
        <time>2015-03-30T18:59:15Z</time>
      </trkpt>
      <trkpt lat="41.384505" lon="-6.425976">
        <ele>720.222</ele>
        <time>2015-03-30T18:59:38Z</time>
      </trkpt>
      <trkpt lat="41.384498" lon="-6.425969">
        <ele>720.246</ele>
        <time>2015-03-30T19:00:00Z</time>
      </trkpt>
      <trkpt lat="41.384508" lon="-6.425956">
        <ele>719.788</ele>
        <time>2015-03-30T19:00:21Z</time>
      </trkpt>
      <trkpt lat="41.384511" lon="-6.425954">
        <ele>720.216</ele>
        <time>2015-03-30T19:00:46Z</time>
      </trkpt>
      <trkpt lat="41.384512" lon="-6.425968">
        <ele>720.207</ele>
        <time>2015-03-30T19:01:08Z</time>
      </trkpt>
      <trkpt lat="41.384508" lon="-6.425981">
        <ele>719.763</ele>
        <time>2015-03-30T19:01:35Z</time>
      </trkpt>
      <trkpt lat="41.384499" lon="-6.425985">
        <ele>720.238</ele>
        <time>2015-03-30T19:02:05Z</time>
      </trkpt>
      <trkpt lat="41.384492" lon="-6.425984">
        <ele>720.273</ele>
        <time>2015-03-30T19:02:29Z</time>
      </trkpt>
      <trkpt lat="41.384491" lon="-6.425982">
        <ele>720.237</ele>
        <time>2015-03-30T19:02:55Z</time>
      </trkpt>
      <trkpt lat="41.384492" lon="-6.425981">
        <ele>720.257</ele>
        <time>2015-03-30T19:03:21Z</time>
      </trkpt>
      <trkpt lat="41.384498" lon="-6.425992">
        <ele>720.250</ele>
        <time>2015-03-30T19:03:46Z</time>
      </trkpt>
      <trkpt lat="41.384470" lon="-6.425952">
        <ele>720.215</ele>
        <time>2015-03-30T19:03:51Z</time>
      </trkpt>
      <trkpt lat="41.384465" lon="-6.425922">
        <ele>720.228</ele>
        <time>2015-03-30T19:04:02Z</time>
      </trkpt>
      <trkpt lat="41.384431" lon="-6.425896">
        <ele>720.289</ele>
        <time>2015-03-30T19:04:20Z</time>
      </trkpt>
      <trkpt lat="41.384440" lon="-6.425877">
        <ele>720.217</ele>
        <time>2015-03-30T19:04:40Z</time>
      </trkpt>
      <trkpt lat="41.384412" lon="-6.425870">
        <ele>720.707</ele>
        <time>2015-03-30T19:04:54Z</time>
      </trkpt>
      <trkpt lat="41.384338" lon="-6.425885">
        <ele>720.771</ele>
        <time>2015-03-30T19:05:08Z</time>
      </trkpt>
      <trkpt lat="41.384146" lon="-6.425891">
        <ele>720.716</ele>
        <time>2015-03-30T19:05:22Z</time>
      </trkpt>
      <trkpt lat="41.384068" lon="-6.425885">
        <ele>720.791</ele>
        <time>2015-03-30T19:05:36Z</time>
      </trkpt>
      <trkpt lat="41.384410" lon="-6.425808">
        <ele>720.715</ele>
        <time>2015-03-30T19:05:49Z</time>
      </trkpt>
      <trkpt lat="41.384436" lon="-6.425774">
        <ele>720.715</ele>
        <time>2015-03-30T19:06:09Z</time>
      </trkpt>
      <trkpt lat="41.384444" lon="-6.425752">
        <ele>720.728</ele>
        <time>2015-03-30T19:06:31Z</time>
      </trkpt>
      <trkpt lat="41.384422" lon="-6.425718">
        <ele>721.123</ele>
        <time>2015-03-30T19:06:56Z</time>
      </trkpt>
      <trkpt lat="41.384428" lon="-6.425716">
        <ele>720.712</ele>
        <time>2015-03-30T19:07:19Z</time>
      </trkpt>
      <trkpt lat="41.384436" lon="-6.425721">
        <ele>721.132</ele>
        <time>2015-03-30T19:07:40Z</time>
      </trkpt>
      <trkpt lat="41.384449" lon="-6.425732">
        <ele>721.105</ele>
        <time>2015-03-30T19:08:03Z</time>
      </trkpt>
      <trkpt lat="41.384464" lon="-6.425746">
        <ele>721.107</ele>
        <time>2015-03-30T19:08:27Z</time>
      </trkpt>
      <trkpt lat="41.384470" lon="-6.425757">
        <ele>721.650</ele>
        <time>2015-03-30T19:08:52Z</time>
      </trkpt>
      <trkpt lat="41.384477" lon="-6.425766">
        <ele>721.125</ele>
        <time>2015-03-30T19:09:19Z</time>
      </trkpt>
      <trkpt lat="41.384479" lon="-6.425773">
        <ele>721.150</ele>
        <time>2015-03-30T19:09:44Z</time>
      </trkpt>
      <trkpt lat="41.384461" lon="-6.425789">
        <ele>721.154</ele>
        <time>2015-03-30T19:10:07Z</time>
      </trkpt>
      <trkpt lat="41.384471" lon="-6.425789">
        <ele>721.164</ele>
        <time>2015-03-30T19:10:31Z</time>
      </trkpt>
      <trkpt lat="41.384475" lon="-6.425791">
        <ele>721.127</ele>
        <time>2015-03-30T19:10:51Z</time>
      </trkpt>
      <trkpt lat="41.384487" lon="-6.425790">
        <ele>721.652</ele>
        <time>2015-03-30T19:11:13Z</time>
      </trkpt>
      <trkpt lat="41.384481" lon="-6.425789">
        <ele>721.183</ele>
        <time>2015-03-30T19:11:30Z</time>
      </trkpt>
      <trkpt lat="41.384475" lon="-6.425779">
        <ele>721.625</ele>
        <time>2015-03-30T19:11:51Z</time>
      </trkpt>
      <trkpt lat="41.384477" lon="-6.425770">
        <ele>721.617</ele>
        <time>2015-03-30T19:12:15Z</time>
      </trkpt>
      <trkpt lat="41.384481" lon="-6.425771">
        <ele>721.607</ele>
        <time>2015-03-30T19:12:32Z</time>
      </trkpt>
      <trkpt lat="41.384477" lon="-6.425779">
        <ele>721.647</ele>
        <time>2015-03-30T19:12:52Z</time>
      </trkpt>
      <trkpt lat="41.384476" lon="-6.425786">
        <ele>721.632</ele>
        <time>2015-03-30T19:13:11Z</time>
      </trkpt>
      <trkpt lat="41.384486" lon="-6.425793">
        <ele>722.647</ele>
        <time>2015-03-30T19:13:32Z</time>
      </trkpt>
      <trkpt lat="41.384535" lon="-6.425815">
        <ele>721.611</ele>
        <time>2015-03-30T19:13:54Z</time>
      </trkpt>
      <trkpt lat="41.384538" lon="-6.425817">
        <ele>721.641</ele>
        <time>2015-03-30T19:14:14Z</time>
      </trkpt>
      <trkpt lat="41.384536" lon="-6.425817">
        <ele>721.694</ele>
        <time>2015-03-30T19:14:36Z</time>
      </trkpt>
      <trkpt lat="41.384533" lon="-6.425814">
        <ele>721.629</ele>
        <time>2015-03-30T19:14:58Z</time>
      </trkpt>
      <trkpt lat="41.384533" lon="-6.425812">
        <ele>721.147</ele>
        <time>2015-03-30T19:15:29Z</time>
      </trkpt>
      <trkpt lat="41.384534" lon="-6.425809">
        <ele>721.629</ele>
        <time>2015-03-30T19:15:56Z</time>
      </trkpt>
      <trkpt lat="41.384533" lon="-6.425803">
        <ele>721.121</ele>
        <time>2015-03-30T19:16:26Z</time>
      </trkpt>
      <trkpt lat="41.384529" lon="-6.425801">
        <ele>721.107</ele>
        <time>2015-03-30T19:16:51Z</time>
      </trkpt>
      <trkpt lat="41.384528" lon="-6.425798">
        <ele>721.173</ele>
        <time>2015-03-30T19:17:12Z</time>
      </trkpt>
      <trkpt lat="41.384528" lon="-6.425797">
        <ele>721.168</ele>
        <time>2015-03-30T19:17:35Z</time>
      </trkpt>
      <trkpt lat="41.384526" lon="-6.425794">
        <ele>721.143</ele>
        <time>2015-03-30T19:18:00Z</time>
      </trkpt>
      <trkpt lat="41.384515" lon="-6.425790">
        <ele>721.187</ele>
        <time>2015-03-30T19:18:18Z</time>
      </trkpt>
      <trkpt lat="41.384501" lon="-6.425802">
        <ele>721.127</ele>
        <time>2015-03-30T19:18:37Z</time>
      </trkpt>
      <trkpt lat="41.384479" lon="-6.425805">
        <ele>721.140</ele>
        <time>2015-03-30T19:18:58Z</time>
      </trkpt>
      <trkpt lat="41.384440" lon="-6.425812">
        <ele>721.195</ele>
        <time>2015-03-30T19:19:16Z</time>
      </trkpt>
      <trkpt lat="41.384416" lon="-6.425828">
        <ele>721.177</ele>
        <time>2015-03-30T19:19:36Z</time>
      </trkpt>
      <trkpt lat="41.384425" lon="-6.425824">
        <ele>721.161</ele>
        <time>2015-03-30T19:19:56Z</time>
      </trkpt>
      <trkpt lat="41.384428" lon="-6.425819">
        <ele>721.127</ele>
        <time>2015-03-30T19:20:11Z</time>
      </trkpt>
      <trkpt lat="41.384410" lon="-6.425733">
        <ele>721.107</ele>
        <time>2015-03-30T19:20:25Z</time>
      </trkpt>
      <trkpt lat="41.384354" lon="-6.425596">
        <ele>721.186</ele>
        <time>2015-03-30T19:20:56Z</time>
      </trkpt>
      <trkpt lat="41.384390" lon="-6.425624">
        <ele>721.191</ele>
        <time>2015-03-30T19:21:14Z</time>
      </trkpt>
      <trkpt lat="41.384420" lon="-6.425679">
        <ele>721.166</ele>
        <time>2015-03-30T19:21:29Z</time>
      </trkpt>
      <trkpt lat="41.384355" lon="-6.425738">
        <ele>721.140</ele>
        <time>2015-03-30T19:21:50Z</time>
      </trkpt>
      <trkpt lat="41.384318" lon="-6.425761">
        <ele>721.150</ele>
        <time>2015-03-30T19:22:08Z</time>
      </trkpt>
      <trkpt lat="41.384380" lon="-6.425772">
        <ele>721.163</ele>
        <time>2015-03-30T19:22:29Z</time>
      </trkpt>
      <trkpt lat="41.384406" lon="-6.425783">
        <ele>721.158</ele>
        <time>2015-03-30T19:22:51Z</time>
      </trkpt>
      <trkpt lat="41.384433" lon="-6.425790">
        <ele>721.161</ele>
        <time>2015-03-30T19:23:13Z</time>
      </trkpt>
      <trkpt lat="41.384436" lon="-6.425786">
        <ele>721.121</ele>
        <time>2015-03-30T19:23:38Z</time>
      </trkpt>
      <trkpt lat="41.384431" lon="-6.425782">
        <ele>721.113</ele>
        <time>2015-03-30T19:24:03Z</time>
      </trkpt>
      <trkpt lat="41.384443" lon="-6.425779">
        <ele>721.107</ele>
        <time>2015-03-30T19:24:26Z</time>
      </trkpt>
      <trkpt lat="41.384448" lon="-6.425775">
        <ele>721.135</ele>
        <time>2015-03-30T19:24:47Z</time>
      </trkpt>
      <trkpt lat="41.384449" lon="-6.425774">
        <ele>721.150</ele>
        <time>2015-03-30T19:25:10Z</time>
      </trkpt>
      <trkpt lat="41.384451" lon="-6.425774">
        <ele>721.115</ele>
        <time>2015-03-30T19:25:30Z</time>
      </trkpt>
      <trkpt lat="41.384491" lon="-6.425755">
        <ele>721.199</ele>
        <time>2015-03-30T19:25:55Z</time>
      </trkpt>
      <trkpt lat="41.384500" lon="-6.425734">
        <ele>721.659</ele>
        <time>2015-03-30T19:26:24Z</time>
      </trkpt>
      <trkpt lat="41.384494" lon="-6.425743">
        <ele>721.642</ele>
        <time>2015-03-30T19:26:48Z</time>
      </trkpt>
      <trkpt lat="41.384490" lon="-6.425764">
        <ele>722.127</ele>
        <time>2015-03-30T19:27:19Z</time>
      </trkpt>
      <trkpt lat="41.384488" lon="-6.425773">
        <ele>721.647</ele>
        <time>2015-03-30T19:27:45Z</time>
      </trkpt>
      <trkpt lat="41.384482" lon="-6.425781">
        <ele>722.129</ele>
        <time>2015-03-30T19:28:09Z</time>
      </trkpt>
      <trkpt lat="41.384482" lon="-6.425790">
        <ele>722.121</ele>
        <time>2015-03-30T19:28:29Z</time>
      </trkpt>
      <trkpt lat="41.384481" lon="-6.425797">
        <ele>722.107</ele>
        <time>2015-03-30T19:28:49Z</time>
      </trkpt>
      <trkpt lat="41.384479" lon="-6.425803">
        <ele>722.123</ele>
        <time>2015-03-30T19:29:09Z</time>
      </trkpt>
      <trkpt lat="41.384476" lon="-6.425810">
        <ele>722.188</ele>
        <time>2015-03-30T19:29:30Z</time>
      </trkpt>
      <trkpt lat="41.384475" lon="-6.425814">
        <ele>722.133</ele>
        <time>2015-03-30T19:29:47Z</time>
      </trkpt>
      <trkpt lat="41.384474" lon="-6.425819">
        <ele>722.177</ele>
        <time>2015-03-30T19:30:08Z</time>
      </trkpt>
      <trkpt lat="41.384472" lon="-6.425822">
        <ele>722.127</ele>
        <time>2015-03-30T19:30:27Z</time>
      </trkpt>
      <trkpt lat="41.384472" lon="-6.425821">
        <ele>722.150</ele>
        <time>2015-03-30T19:30:46Z</time>
      </trkpt>
      <trkpt lat="41.384473" lon="-6.425819">
        <ele>722.125</ele>
        <time>2015-03-30T19:31:09Z</time>
      </trkpt>
      <trkpt lat="41.384473" lon="-6.425820">
        <ele>722.159</ele>
        <time>2015-03-30T19:31:31Z</time>
      </trkpt>
      <trkpt lat="41.384474" lon="-6.425820">
        <ele>721.603</ele>
        <time>2015-03-30T19:31:54Z</time>
      </trkpt>
      <trkpt lat="41.384506" lon="-6.425819">
        <ele>722.123</ele>
        <time>2015-03-30T19:32:19Z</time>
      </trkpt>
      <trkpt lat="41.384519" lon="-6.425824">
        <ele>721.607</ele>
        <time>2015-03-30T19:32:42Z</time>
      </trkpt>
      <trkpt lat="41.384520" lon="-6.425834">
        <ele>721.694</ele>
        <time>2015-03-30T19:33:07Z</time>
      </trkpt>
      <trkpt lat="41.384523" lon="-6.425827">
        <ele>721.639</ele>
        <time>2015-03-30T19:33:29Z</time>
      </trkpt>
      <trkpt lat="41.384531" lon="-6.425839">
        <ele>721.684</ele>
        <time>2015-03-30T19:33:57Z</time>
      </trkpt>
      <trkpt lat="41.384526" lon="-6.425837">
        <ele>719.238</ele>
        <time>2015-03-30T19:34:14Z</time>
      </trkpt>
      <trkpt lat="41.384526" lon="-6.425837">
        <ele>722.178</ele>
        <time>2015-03-30T19:34:15Z</time>
      </trkpt>
      <trkpt lat="41.384526" lon="-6.425837">
        <ele>721.671</ele>
        <time>2015-03-30T19:34:16Z</time>
      </trkpt>
      <trkpt lat="41.384521" lon="-6.425857">
        <ele>721.696</ele>
        <time>2015-03-30T19:34:19Z</time>
      </trkpt>
      <trkpt lat="41.384513" lon="-6.426112">
        <ele>721.177</ele>
        <time>2015-03-30T19:34:32Z</time>
      </trkpt>
      <trkpt lat="41.384539" lon="-6.426056">
        <ele>720.761</ele>
        <time>2015-03-30T19:34:46Z</time>
      </trkpt>
      <trkpt lat="41.384538" lon="-6.426012">
        <ele>719.227</ele>
        <time>2015-03-30T19:34:50Z</time>
      </trkpt>
      <trkpt lat="41.384539" lon="-6.426008">
        <ele>722.607</ele>
        <time>2015-03-30T19:34:51Z</time>
      </trkpt>
      <trkpt lat="41.384542" lon="-6.425996">
        <ele>721.166</ele>
        <time>2015-03-30T19:34:52Z</time>
      </trkpt>
      <trkpt lat="41.384448" lon="-6.425900">
        <ele>721.151</ele>
        <time>2015-03-30T19:35:09Z</time>
      </trkpt>
      <trkpt lat="41.384416" lon="-6.425881">
        <ele>721.666</ele>
        <time>2015-03-30T19:35:21Z</time>
      </trkpt>
      <trkpt lat="41.384431" lon="-6.425864">
        <ele>721.110</ele>
        <time>2015-03-30T19:35:38Z</time>
      </trkpt>
      <trkpt lat="41.384436" lon="-6.425861">
        <ele>719.210</ele>
        <time>2015-03-30T19:35:44Z</time>
      </trkpt>
      <trkpt lat="41.384436" lon="-6.425861">
        <ele>722.123</ele>
        <time>2015-03-30T19:35:45Z</time>
      </trkpt>
      <trkpt lat="41.384442" lon="-6.425845">
        <ele>721.678</ele>
        <time>2015-03-30T19:35:54Z</time>
      </trkpt>
      <trkpt lat="41.384468" lon="-6.425841">
        <ele>721.186</ele>
        <time>2015-03-30T19:36:15Z</time>
      </trkpt>
      <trkpt lat="41.384471" lon="-6.425838">
        <ele>721.660</ele>
        <time>2015-03-30T19:36:20Z</time>
      </trkpt>
      <trkpt lat="41.384488" lon="-6.425831">
        <ele>716.826</ele>
        <time>2015-03-30T19:36:37Z</time>
      </trkpt>
      <trkpt lat="41.384492" lon="-6.425828">
        <ele>721.607</ele>
        <time>2015-03-30T19:36:38Z</time>
      </trkpt>
      <trkpt lat="41.384491" lon="-6.425827">
        <ele>725.097</ele>
        <time>2015-03-30T19:36:39Z</time>
      </trkpt>
      <trkpt lat="41.384494" lon="-6.425826">
        <ele>720.292</ele>
        <time>2015-03-30T19:36:40Z</time>
      </trkpt>
      <trkpt lat="41.384495" lon="-6.425826">
        <ele>718.767</ele>
        <time>2015-03-30T19:36:41Z</time>
      </trkpt>
      <trkpt lat="41.384495" lon="-6.425826">
        <ele>724.591</ele>
        <time>2015-03-30T19:36:42Z</time>
      </trkpt>
      <trkpt lat="41.384495" lon="-6.425826">
        <ele>721.651</ele>
        <time>2015-03-30T19:36:43Z</time>
      </trkpt>
      <trkpt lat="41.392352" lon="-6.424492">
        <ele>626.955</ele>
        <time>2015-03-31T07:22:52Z</time>
      </trkpt>
      <trkpt lat="41.392361" lon="-6.424498">
        <ele>626.907</ele>
        <time>2015-03-31T07:22:53Z</time>
      </trkpt>
      <trkpt lat="41.392399" lon="-6.424566">
        <ele>626.917</ele>
        <time>2015-03-31T07:23:06Z</time>
      </trkpt>
      <trkpt lat="41.392337" lon="-6.424549">
        <ele>626.907</ele>
        <time>2015-03-31T07:23:14Z</time>
      </trkpt>
      <trkpt lat="41.392273" lon="-6.424599">
        <ele>630.394</ele>
        <time>2015-03-31T07:23:26Z</time>
      </trkpt>
      <trkpt lat="41.392264" lon="-6.424590">
        <ele>635.669</ele>
        <time>2015-03-31T07:23:28Z</time>
      </trkpt>
      <trkpt lat="41.392258" lon="-6.424591">
        <ele>640.944</ele>
        <time>2015-03-31T07:23:30Z</time>
      </trkpt>
      <trkpt lat="41.392260" lon="-6.424591">
        <ele>645.298</ele>
        <time>2015-03-31T07:23:32Z</time>
      </trkpt>
      <trkpt lat="41.392246" lon="-6.424613">
        <ele>649.542</ele>
        <time>2015-03-31T07:23:34Z</time>
      </trkpt>
      <trkpt lat="41.392248" lon="-6.424611">
        <ele>652.917</ele>
        <time>2015-03-31T07:23:36Z</time>
      </trkpt>
      <trkpt lat="41.392240" lon="-6.424624">
        <ele>656.789</ele>
        <time>2015-03-31T07:23:38Z</time>
      </trkpt>
      <trkpt lat="41.392238" lon="-6.424633">
        <ele>659.649</ele>
        <time>2015-03-31T07:23:40Z</time>
      </trkpt>
      <trkpt lat="41.392243" lon="-6.424633">
        <ele>663.002</ele>
        <time>2015-03-31T07:23:42Z</time>
      </trkpt>
      <trkpt lat="41.392254" lon="-6.424638">
        <ele>667.322</ele>
        <time>2015-03-31T07:23:45Z</time>
      </trkpt>
      <trkpt lat="41.392253" lon="-6.424640">
        <ele>671.607</ele>
        <time>2015-03-31T07:23:48Z</time>
      </trkpt>
      <trkpt lat="41.392261" lon="-6.424631">
        <ele>675.933</ele>
        <time>2015-03-31T07:23:51Z</time>
      </trkpt>
      <trkpt lat="41.392274" lon="-6.424620">
        <ele>679.358</ele>
        <time>2015-03-31T07:23:54Z</time>
      </trkpt>
      <trkpt lat="41.392285" lon="-6.424614">
        <ele>683.653</ele>
        <time>2015-03-31T07:23:58Z</time>
      </trkpt>
      <trkpt lat="41.392290" lon="-6.424608">
        <ele>687.067</ele>
        <time>2015-03-31T07:24:02Z</time>
      </trkpt>
      <trkpt lat="41.392292" lon="-6.424597">
        <ele>690.481</ele>
        <time>2015-03-31T07:24:07Z</time>
      </trkpt>
      <trkpt lat="41.392280" lon="-6.424585">
        <ele>693.766</ele>
        <time>2015-03-31T07:24:14Z</time>
      </trkpt>
      <trkpt lat="41.392270" lon="-6.424592">
        <ele>697.138</ele>
        <time>2015-03-31T07:24:23Z</time>
      </trkpt>
      <trkpt lat="41.392279" lon="-6.424613">
        <ele>700.051</ele>
        <time>2015-03-31T07:24:38Z</time>
      </trkpt>
      <trkpt lat="41.392277" lon="-6.424618">
        <ele>703.301</ele>
        <time>2015-03-31T07:25:05Z</time>
      </trkpt>
      <trkpt lat="41.392274" lon="-6.424611">
        <ele>704.311</ele>
        <time>2015-03-31T07:25:27Z</time>
      </trkpt>
      <trkpt lat="41.392255" lon="-6.424608">
        <ele>704.307</ele>
        <time>2015-03-31T07:25:42Z</time>
      </trkpt>
      <trkpt lat="41.392246" lon="-6.424611">
        <ele>703.894</ele>
        <time>2015-03-31T07:26:09Z</time>
      </trkpt>
      <trkpt lat="41.392247" lon="-6.424612">
        <ele>703.829</ele>
        <time>2015-03-31T07:26:41Z</time>
      </trkpt>
      <trkpt lat="41.392255" lon="-6.424613">
        <ele>703.864</ele>
        <time>2015-03-31T07:27:09Z</time>
      </trkpt>
      <trkpt lat="41.392273" lon="-6.424612">
        <ele>703.858</ele>
        <time>2015-03-31T07:27:31Z</time>
      </trkpt>
      <trkpt lat="41.392282" lon="-6.424620">
        <ele>703.892</ele>
        <time>2015-03-31T07:28:05Z</time>
      </trkpt>
      <trkpt lat="41.392310" lon="-6.424606">
        <ele>703.857</ele>
        <time>2015-03-31T07:28:38Z</time>
      </trkpt>
      <trkpt lat="41.392322" lon="-6.424602">
        <ele>703.849</ele>
        <time>2015-03-31T07:29:05Z</time>
      </trkpt>
      <trkpt lat="41.392324" lon="-6.424586">
        <ele>703.833</ele>
        <time>2015-03-31T07:29:32Z</time>
      </trkpt>
      <trkpt lat="41.392313" lon="-6.424573">
        <ele>703.823</ele>
        <time>2015-03-31T07:30:02Z</time>
      </trkpt>
      <trkpt lat="41.392302" lon="-6.424599">
        <ele>703.815</ele>
        <time>2015-03-31T07:30:30Z</time>
      </trkpt>
      <trkpt lat="41.392290" lon="-6.424592">
        <ele>703.807</ele>
        <time>2015-03-31T07:31:00Z</time>
      </trkpt>
      <trkpt lat="41.392279" lon="-6.424557">
        <ele>703.872</ele>
        <time>2015-03-31T07:31:30Z</time>
      </trkpt>
      <trkpt lat="41.392270" lon="-6.424567">
        <ele>703.817</ele>
        <time>2015-03-31T07:32:01Z</time>
      </trkpt>
      <trkpt lat="41.392272" lon="-6.424571">
        <ele>703.832</ele>
        <time>2015-03-31T07:32:22Z</time>
      </trkpt>
      <trkpt lat="41.392269" lon="-6.424584">
        <ele>703.396</ele>
        <time>2015-03-31T07:32:41Z</time>
      </trkpt>
      <trkpt lat="41.392307" lon="-6.424665">
        <ele>703.380</ele>
        <time>2015-03-31T07:32:48Z</time>
      </trkpt>
      <trkpt lat="41.392322" lon="-6.424687">
        <ele>703.325</ele>
        <time>2015-03-31T07:32:50Z</time>
      </trkpt>
      <trkpt lat="41.392298" lon="-6.424818">
        <ele>703.327</ele>
        <time>2015-03-31T07:32:55Z</time>
      </trkpt>
      <trkpt lat="41.392146" lon="-6.425166">
        <ele>704.342</ele>
        <time>2015-03-31T07:33:05Z</time>
      </trkpt>
      <trkpt lat="41.391926" lon="-6.425606">
        <ele>705.322</ele>
        <time>2015-03-31T07:33:18Z</time>
      </trkpt>
      <trkpt lat="41.391727" lon="-6.426026">
        <ele>706.714</ele>
        <time>2015-03-31T07:33:30Z</time>
      </trkpt>
      <trkpt lat="41.391589" lon="-6.426333">
        <ele>708.207</ele>
        <time>2015-03-31T07:33:41Z</time>
      </trkpt>
      <trkpt lat="41.391443" lon="-6.426632">
        <ele>709.133</ele>
        <time>2015-03-31T07:33:52Z</time>
      </trkpt>
      <trkpt lat="41.391415" lon="-6.426671">
        <ele>709.678</ele>
        <time>2015-03-31T07:34:00Z</time>
      </trkpt>
      <trkpt lat="41.391388" lon="-6.426731">
        <ele>710.133</ele>
        <time>2015-03-31T07:34:04Z</time>
      </trkpt>
      <trkpt lat="41.391198" lon="-6.427162">
        <ele>712.027</ele>
        <time>2015-03-31T07:34:18Z</time>
      </trkpt>
      <trkpt lat="41.390991" lon="-6.427582">
        <ele>713.411</ele>
        <time>2015-03-31T07:34:31Z</time>
      </trkpt>
      <trkpt lat="41.390822" lon="-6.427924">
        <ele>714.446</ele>
        <time>2015-03-31T07:34:41Z</time>
      </trkpt>
      <trkpt lat="41.390576" lon="-6.428244">
        <ele>714.978</ele>
        <time>2015-03-31T07:34:52Z</time>
      </trkpt>
      <trkpt lat="41.390128" lon="-6.428645">
        <ele>716.369</ele>
        <time>2015-03-31T07:35:09Z</time>
      </trkpt>
      <trkpt lat="41.389814" lon="-6.428919">
        <ele>717.304</ele>
        <time>2015-03-31T07:35:20Z</time>
      </trkpt>
      <trkpt lat="41.389526" lon="-6.429186">
        <ele>718.724</ele>
        <time>2015-03-31T07:35:31Z</time>
      </trkpt>
      <trkpt lat="41.389230" lon="-6.429465">
        <ele>719.707</ele>
        <time>2015-03-31T07:35:42Z</time>
      </trkpt>
      <trkpt lat="41.389071" lon="-6.429623">
        <ele>720.255</ele>
        <time>2015-03-31T07:35:50Z</time>
      </trkpt>
      <trkpt lat="41.388832" lon="-6.429901">
        <ele>718.710</ele>
        <time>2015-03-31T07:35:59Z</time>
      </trkpt>
      <trkpt lat="41.388420" lon="-6.430329">
        <ele>716.355</ele>
        <time>2015-03-31T07:36:08Z</time>
      </trkpt>
      <trkpt lat="41.388011" lon="-6.430752">
        <ele>713.059</ele>
        <time>2015-03-31T07:36:15Z</time>
      </trkpt>
      <trkpt lat="41.387948" lon="-6.430819">
        <ele>713.013</ele>
        <time>2015-03-31T07:36:16Z</time>
      </trkpt>
      <trkpt lat="41.387753" lon="-6.431026">
        <ele>711.058</ele>
        <time>2015-03-31T07:36:19Z</time>
      </trkpt>
      <trkpt lat="41.387274" lon="-6.431522">
        <ele>708.240</ele>
        <time>2015-03-31T07:36:26Z</time>
      </trkpt>
      <trkpt lat="41.386937" lon="-6.431867">
        <ele>706.282</ele>
        <time>2015-03-31T07:36:33Z</time>
      </trkpt>
      <trkpt lat="41.386780" lon="-6.431999">
        <ele>705.843</ele>
        <time>2015-03-31T07:36:43Z</time>
      </trkpt>
      <trkpt lat="41.386606" lon="-6.431826">
        <ele>704.817</ele>
        <time>2015-03-31T07:36:51Z</time>
      </trkpt>
      <trkpt lat="41.386136" lon="-6.431772">
        <ele>703.807</ele>
        <time>2015-03-31T07:37:02Z</time>
      </trkpt>
      <trkpt lat="41.385617" lon="-6.431754">
        <ele>702.997</ele>
        <time>2015-03-31T07:37:13Z</time>
      </trkpt>
      <trkpt lat="41.385287" lon="-6.431735">
        <ele>703.352</ele>
        <time>2015-03-31T07:37:20Z</time>
      </trkpt>
      <trkpt lat="41.385246" lon="-6.431735">
        <ele>703.327</ele>
        <time>2015-03-31T07:37:21Z</time>
      </trkpt>
      <trkpt lat="41.385138" lon="-6.431746">
        <ele>703.311</ele>
        <time>2015-03-31T07:37:24Z</time>
      </trkpt>
      <trkpt lat="41.385050" lon="-6.431858">
        <ele>703.865</ele>
        <time>2015-03-31T07:37:31Z</time>
      </trkpt>
      <trkpt lat="41.385058" lon="-6.431862">
        <ele>703.390</ele>
        <time>2015-03-31T07:37:51Z</time>
      </trkpt>
      <trkpt lat="41.385054" lon="-6.431854">
        <ele>703.392</ele>
        <time>2015-03-31T07:38:12Z</time>
      </trkpt>
      <trkpt lat="41.385042" lon="-6.431850">
        <ele>703.343</ele>
        <time>2015-03-31T07:38:27Z</time>
      </trkpt>
      <trkpt lat="41.385021" lon="-6.431858">
        <ele>703.364</ele>
        <time>2015-03-31T07:38:29Z</time>
      </trkpt>
      <trkpt lat="41.385006" lon="-6.431867">
        <ele>703.310</ele>
        <time>2015-03-31T07:38:30Z</time>
      </trkpt>
      <trkpt lat="41.384802" lon="-6.431951">
        <ele>702.907</ele>
        <time>2015-03-31T07:38:38Z</time>
      </trkpt>
      <trkpt lat="41.384637" lon="-6.431998">
        <ele>702.933</ele>
        <time>2015-03-31T07:38:44Z</time>
      </trkpt>
      <trkpt lat="41.384624" lon="-6.432022">
        <ele>702.918</ele>
        <time>2015-03-31T07:38:45Z</time>
      </trkpt>
      <trkpt lat="41.384616" lon="-6.432053">
        <ele>702.943</ele>
        <time>2015-03-31T07:38:46Z</time>
      </trkpt>
      <trkpt lat="41.384529" lon="-6.432331">
        <ele>698.137</ele>
        <time>2015-03-31T07:38:53Z</time>
      </trkpt>
      <trkpt lat="41.384513" lon="-6.432368">
        <ele>706.281</ele>
        <time>2015-03-31T07:38:54Z</time>
      </trkpt>
      <trkpt lat="41.384498" lon="-6.432401">
        <ele>706.246</ele>
        <time>2015-03-31T07:38:55Z</time>
      </trkpt>
      <trkpt lat="41.384460" lon="-6.432459">
        <ele>702.958</ele>
        <time>2015-03-31T07:38:57Z</time>
      </trkpt>
      <trkpt lat="41.384265" lon="-6.432780">
        <ele>703.395</ele>
        <time>2015-03-31T07:39:06Z</time>
      </trkpt>
      <trkpt lat="41.383988" lon="-6.432987">
        <ele>704.849</ele>
        <time>2015-03-31T07:39:15Z</time>
      </trkpt>
      <trkpt lat="41.383655" lon="-6.433065">
        <ele>703.823</ele>
        <time>2015-03-31T07:39:26Z</time>
      </trkpt>
      <trkpt lat="41.383330" lon="-6.433114">
        <ele>704.807</ele>
        <time>2015-03-31T07:39:35Z</time>
      </trkpt>
      <trkpt lat="41.383166" lon="-6.433191">
        <ele>703.398</ele>
        <time>2015-03-31T07:39:43Z</time>
      </trkpt>
      <trkpt lat="41.383025" lon="-6.433206">
        <ele>701.943</ele>
        <time>2015-03-31T07:39:47Z</time>
      </trkpt>
      <trkpt lat="41.382935" lon="-6.433180">
        <ele>701.488</ele>
        <time>2015-03-31T07:39:49Z</time>
      </trkpt>
      <trkpt lat="41.382890" lon="-6.433167">
        <ele>700.942</ele>
        <time>2015-03-31T07:39:50Z</time>
      </trkpt>
      <trkpt lat="41.382623" lon="-6.433070">
        <ele>700.526</ele>
        <time>2015-03-31T07:39:56Z</time>
      </trkpt>
      <trkpt lat="41.382584" lon="-6.433036">
        <ele>700.041</ele>
        <time>2015-03-31T07:39:57Z</time>
      </trkpt>
      <trkpt lat="41.382549" lon="-6.432996">
        <ele>700.053</ele>
        <time>2015-03-31T07:39:58Z</time>
      </trkpt>
      <trkpt lat="41.382518" lon="-6.432950">
        <ele>700.049</ele>
        <time>2015-03-31T07:39:59Z</time>
      </trkpt>
      <trkpt lat="41.382491" lon="-6.432900">
        <ele>700.002</ele>
        <time>2015-03-31T07:40:00Z</time>
      </trkpt>
      <trkpt lat="41.382469" lon="-6.432851">
        <ele>700.022</ele>
        <time>2015-03-31T07:40:01Z</time>
      </trkpt>
      <trkpt lat="41.382428" lon="-6.432742">
        <ele>699.507</ele>
        <time>2015-03-31T07:40:03Z</time>
      </trkpt>
      <trkpt lat="41.382415" lon="-6.432691">
        <ele>699.563</ele>
        <time>2015-03-31T07:40:04Z</time>
      </trkpt>
      <trkpt lat="41.382405" lon="-6.432634">
        <ele>699.518</ele>
        <time>2015-03-31T07:40:05Z</time>
      </trkpt>
      <trkpt lat="41.382393" lon="-6.432578">
        <ele>699.533</ele>
        <time>2015-03-31T07:40:06Z</time>
      </trkpt>
      <trkpt lat="41.382381" lon="-6.432521">
        <ele>699.037</ele>
        <time>2015-03-31T07:40:07Z</time>
      </trkpt>
      <trkpt lat="41.382367" lon="-6.432469">
        <ele>699.551</ele>
        <time>2015-03-31T07:40:08Z</time>
      </trkpt>
      <trkpt lat="41.382340" lon="-6.432429">
        <ele>699.086</ele>
        <time>2015-03-31T07:40:09Z</time>
      </trkpt>
      <trkpt lat="41.382305" lon="-6.432411">
        <ele>699.548</ele>
        <time>2015-03-31T07:40:10Z</time>
      </trkpt>
      <trkpt lat="41.382267" lon="-6.432414">
        <ele>699.525</ele>
        <time>2015-03-31T07:40:11Z</time>
      </trkpt>
      <trkpt lat="41.382227" lon="-6.432429">
        <ele>699.026</ele>
        <time>2015-03-31T07:40:12Z</time>
      </trkpt>
      <trkpt lat="41.382185" lon="-6.432445">
        <ele>699.008</ele>
        <time>2015-03-31T07:40:13Z</time>
      </trkpt>
      <trkpt lat="41.382142" lon="-6.432455">
        <ele>699.007</ele>
        <time>2015-03-31T07:40:14Z</time>
      </trkpt>
      <trkpt lat="41.382101" lon="-6.432467">
        <ele>699.031</ele>
        <time>2015-03-31T07:40:15Z</time>
      </trkpt>
      <trkpt lat="41.381628" lon="-6.432637">
        <ele>700.096</ele>
        <time>2015-03-31T07:40:27Z</time>
      </trkpt>
      <trkpt lat="41.381351" lon="-6.432752">
        <ele>700.941</ele>
        <time>2015-03-31T07:40:36Z</time>
      </trkpt>
      <trkpt lat="41.381102" lon="-6.432864">
        <ele>701.495</ele>
        <time>2015-03-31T07:40:45Z</time>
      </trkpt>
      <trkpt lat="41.380887" lon="-6.432957">
        <ele>701.949</ele>
        <time>2015-03-31T07:40:53Z</time>
      </trkpt>
      <trkpt lat="41.380617" lon="-6.433090">
        <ele>702.474</ele>
        <time>2015-03-31T07:41:02Z</time>
      </trkpt>
      <trkpt lat="41.380298" lon="-6.433332">
        <ele>701.446</ele>
        <time>2015-03-31T07:41:12Z</time>
      </trkpt>
      <trkpt lat="41.379944" lon="-6.433641">
        <ele>701.433</ele>
        <time>2015-03-31T07:41:24Z</time>
      </trkpt>
      <trkpt lat="41.379847" lon="-6.433733">
        <ele>701.423</ele>
        <time>2015-03-31T07:41:27Z</time>
      </trkpt>
      <trkpt lat="41.379815" lon="-6.433766">
        <ele>701.415</ele>
        <time>2015-03-31T07:41:28Z</time>
      </trkpt>
      <trkpt lat="41.379454" lon="-6.433959">
        <ele>701.407</ele>
        <time>2015-03-31T07:41:38Z</time>
      </trkpt>
      <trkpt lat="41.379211" lon="-6.434128">
        <ele>701.982</ele>
        <time>2015-03-31T07:41:46Z</time>
      </trkpt>
      <trkpt lat="41.379185" lon="-6.434168">
        <ele>701.947</ele>
        <time>2015-03-31T07:41:47Z</time>
      </trkpt>
      <trkpt lat="41.379163" lon="-6.434214">
        <ele>701.932</ele>
        <time>2015-03-31T07:41:48Z</time>
      </trkpt>
      <trkpt lat="41.379144" lon="-6.434260">
        <ele>701.966</ele>
        <time>2015-03-31T07:41:49Z</time>
      </trkpt>
      <trkpt lat="41.379122" lon="-6.434297">
        <ele>701.980</ele>
        <time>2015-03-31T07:41:50Z</time>
      </trkpt>
      <trkpt lat="41.379099" lon="-6.434334">
        <ele>701.935</ele>
        <time>2015-03-31T07:41:51Z</time>
      </trkpt>
      <trkpt lat="41.378938" lon="-6.434565">
        <ele>703.827</ele>
        <time>2015-03-31T07:41:59Z</time>
      </trkpt>
      <trkpt lat="41.378750" lon="-6.434784">
        <ele>705.319</ele>
        <time>2015-03-31T07:42:08Z</time>
      </trkpt>
      <trkpt lat="41.378560" lon="-6.435030">
        <ele>707.709</ele>
        <time>2015-03-31T07:42:18Z</time>
      </trkpt>
      <trkpt lat="41.378245" lon="-6.435323">
        <ele>708.219</ele>
        <time>2015-03-31T07:42:31Z</time>
      </trkpt>
      <trkpt lat="41.377891" lon="-6.435569">
        <ele>709.107</ele>
        <time>2015-03-31T07:42:44Z</time>
      </trkpt>
      <trkpt lat="41.377656" lon="-6.435747">
        <ele>710.110</ele>
        <time>2015-03-31T07:42:53Z</time>
      </trkpt>
      <trkpt lat="41.377445" lon="-6.435878">
        <ele>710.145</ele>
        <time>2015-03-31T07:43:01Z</time>
      </trkpt>
      <trkpt lat="41.377180" lon="-6.436009">
        <ele>711.080</ele>
        <time>2015-03-31T07:43:10Z</time>
      </trkpt>
      <trkpt lat="41.376839" lon="-6.436181">
        <ele>711.514</ele>
        <time>2015-03-31T07:43:21Z</time>
      </trkpt>
      <trkpt lat="41.376537" lon="-6.436434">
        <ele>714.438</ele>
        <time>2015-03-31T07:43:33Z</time>
      </trkpt>
      <trkpt lat="41.376333" lon="-6.436743">
        <ele>713.963</ele>
        <time>2015-03-31T07:43:43Z</time>
      </trkpt>
      <trkpt lat="41.376283" lon="-6.436825">
        <ele>713.455</ele>
        <time>2015-03-31T07:43:45Z</time>
      </trkpt>
      <trkpt lat="41.376160" lon="-6.436971">
        <ele>712.012</ele>
        <time>2015-03-31T07:43:49Z</time>
      </trkpt>
      <trkpt lat="41.376036" lon="-6.437063">
        <ele>710.632</ele>
        <time>2015-03-31T07:43:52Z</time>
      </trkpt>
      <trkpt lat="41.375996" lon="-6.437090">
        <ele>710.105</ele>
        <time>2015-03-31T07:43:53Z</time>
      </trkpt>
      <trkpt lat="41.375912" lon="-6.437151">
        <ele>709.607</ele>
        <time>2015-03-31T07:43:55Z</time>
      </trkpt>
      <trkpt lat="41.375868" lon="-6.437177">
        <ele>709.180</ele>
        <time>2015-03-31T07:43:56Z</time>
      </trkpt>
      <trkpt lat="41.375416" lon="-6.437436">
        <ele>705.875</ele>
        <time>2015-03-31T07:44:05Z</time>
      </trkpt>
      <trkpt lat="41.374857" lon="-6.437716">
        <ele>702.930</ele>
        <time>2015-03-31T07:44:15Z</time>
      </trkpt>
      <trkpt lat="41.374800" lon="-6.437737">
        <ele>702.414</ele>
        <time>2015-03-31T07:44:16Z</time>
      </trkpt>
      <trkpt lat="41.374695" lon="-6.437785">
        <ele>701.448</ele>
        <time>2015-03-31T07:44:18Z</time>
      </trkpt>
      <trkpt lat="41.374429" lon="-6.437924">
        <ele>699.573</ele>
        <time>2015-03-31T07:44:23Z</time>
      </trkpt>
      <trkpt lat="41.374086" lon="-6.438143">
        <ele>697.165</ele>
        <time>2015-03-31T07:44:29Z</time>
      </trkpt>
      <trkpt lat="41.373925" lon="-6.438268">
        <ele>695.764</ele>
        <time>2015-03-31T07:44:32Z</time>
      </trkpt>
      <trkpt lat="41.373660" lon="-6.438589">
        <ele>693.306</ele>
        <time>2015-03-31T07:44:39Z</time>
      </trkpt>
      <trkpt lat="41.373630" lon="-6.438640">
        <ele>692.816</ele>
        <time>2015-03-31T07:44:40Z</time>
      </trkpt>
      <trkpt lat="41.373599" lon="-6.438693">
        <ele>692.307</ele>
        <time>2015-03-31T07:44:41Z</time>
      </trkpt>
      <trkpt lat="41.373565" lon="-6.438741">
        <ele>688.965</ele>
        <time>2015-03-31T07:44:42Z</time>
      </trkpt>
      <trkpt lat="41.373533" lon="-6.438789">
        <ele>692.880</ele>
        <time>2015-03-31T07:44:43Z</time>
      </trkpt>
      <trkpt lat="41.373506" lon="-6.438832">
        <ele>691.385</ele>
        <time>2015-03-31T07:44:44Z</time>
      </trkpt>
      <trkpt lat="41.373482" lon="-6.438870">
        <ele>690.439</ele>
        <time>2015-03-31T07:44:45Z</time>
      </trkpt>
      <trkpt lat="41.373389" lon="-6.438988">
        <ele>688.913</ele>
        <time>2015-03-31T07:44:48Z</time>
      </trkpt>
      <trkpt lat="41.373239" lon="-6.439243">
        <ele>686.058</ele>
        <time>2015-03-31T07:44:53Z</time>
      </trkpt>
      <trkpt lat="41.373101" lon="-6.439526">
        <ele>682.270</ele>
        <time>2015-03-31T07:44:58Z</time>
      </trkpt>
      <trkpt lat="41.373070" lon="-6.439585">
        <ele>682.216</ele>
        <time>2015-03-31T07:44:59Z</time>
      </trkpt>
      <trkpt lat="41.372970" lon="-6.439771">
        <ele>679.876</ele>
        <time>2015-03-31T07:45:02Z</time>
      </trkpt>
      <trkpt lat="41.372942" lon="-6.439838">
        <ele>679.313</ele>
        <time>2015-03-31T07:45:03Z</time>
      </trkpt>
      <trkpt lat="41.372922" lon="-6.439911">
        <ele>678.407</ele>
        <time>2015-03-31T07:45:04Z</time>
      </trkpt>
      <trkpt lat="41.372911" lon="-6.439985">
        <ele>677.970</ele>
        <time>2015-03-31T07:45:05Z</time>
      </trkpt>
      <trkpt lat="41.372911" lon="-6.440060">
        <ele>677.925</ele>
        <time>2015-03-31T07:45:06Z</time>
      </trkpt>
      <trkpt lat="41.372917" lon="-6.440136">
        <ele>676.940</ele>
        <time>2015-03-31T07:45:07Z</time>
      </trkpt>
      <trkpt lat="41.372932" lon="-6.440210">
        <ele>676.474</ele>
        <time>2015-03-31T07:45:08Z</time>
      </trkpt>
      <trkpt lat="41.372952" lon="-6.440287">
        <ele>675.998</ele>
        <time>2015-03-31T07:45:09Z</time>
      </trkpt>
      <trkpt lat="41.372962" lon="-6.440367">
        <ele>675.593</ele>
        <time>2015-03-31T07:45:10Z</time>
      </trkpt>
      <trkpt lat="41.372962" lon="-6.440451">
        <ele>675.015</ele>
        <time>2015-03-31T07:45:11Z</time>
      </trkpt>
      <trkpt lat="41.372952" lon="-6.440537">
        <ele>675.033</ele>
        <time>2015-03-31T07:45:12Z</time>
      </trkpt>
      <trkpt lat="41.372934" lon="-6.440620">
        <ele>674.523</ele>
        <time>2015-03-31T07:45:13Z</time>
      </trkpt>
      <trkpt lat="41.372909" lon="-6.440702">
        <ele>674.015</ele>
        <time>2015-03-31T07:45:14Z</time>
      </trkpt>
      <trkpt lat="41.372878" lon="-6.440779">
        <ele>674.007</ele>
        <time>2015-03-31T07:45:15Z</time>
      </trkpt>
      <trkpt lat="41.372844" lon="-6.440852">
        <ele>673.562</ele>
        <time>2015-03-31T07:45:16Z</time>
      </trkpt>
      <trkpt lat="41.372808" lon="-6.440920">
        <ele>673.147</ele>
        <time>2015-03-31T07:45:17Z</time>
      </trkpt>
      <trkpt lat="41.372376" lon="-6.441537">
        <ele>672.192</ele>
        <time>2015-03-31T07:45:27Z</time>
      </trkpt>
      <trkpt lat="41.372225" lon="-6.441742">
        <ele>672.156</ele>
        <time>2015-03-31T07:45:31Z</time>
      </trkpt>
      <trkpt lat="41.372166" lon="-6.441846">
        <ele>672.110</ele>
        <time>2015-03-31T07:45:33Z</time>
      </trkpt>
      <trkpt lat="41.372141" lon="-6.441898">
        <ele>672.195</ele>
        <time>2015-03-31T07:45:34Z</time>
      </trkpt>
      <trkpt lat="41.372123" lon="-6.441951">
        <ele>672.697</ele>
        <time>2015-03-31T07:45:35Z</time>
      </trkpt>
      <trkpt lat="41.372108" lon="-6.442006">
        <ele>672.642</ele>
        <time>2015-03-31T07:45:36Z</time>
      </trkpt>
      <trkpt lat="41.372092" lon="-6.442062">
        <ele>672.622</ele>
        <time>2015-03-31T07:45:37Z</time>
      </trkpt>
      <trkpt lat="41.371970" lon="-6.442523">
        <ele>675.014</ele>
        <time>2015-03-31T07:45:47Z</time>
      </trkpt>
      <trkpt lat="41.371835" lon="-6.442881">
        <ele>676.407</ele>
        <time>2015-03-31T07:45:56Z</time>
      </trkpt>
      <trkpt lat="41.371629" lon="-6.443303">
        <ele>677.993</ele>
        <time>2015-03-31T07:46:07Z</time>
      </trkpt>
      <trkpt lat="41.371467" lon="-6.443628">
        <ele>679.348</ele>
        <time>2015-03-31T07:46:17Z</time>
      </trkpt>
      <trkpt lat="41.371390" lon="-6.443953">
        <ele>681.223</ele>
        <time>2015-03-31T07:46:26Z</time>
      </trkpt>
      <trkpt lat="41.371307" lon="-6.444274">
        <ele>683.257</ele>
        <time>2015-03-31T07:46:36Z</time>
      </trkpt>
      <trkpt lat="41.371242" lon="-6.444637">
        <ele>686.041</ele>
        <time>2015-03-31T07:46:48Z</time>
      </trkpt>
      <trkpt lat="41.371182" lon="-6.444933">
        <ele>688.466</ele>
        <time>2015-03-31T07:46:59Z</time>
      </trkpt>
      <trkpt lat="41.371106" lon="-6.445193">
        <ele>689.998</ele>
        <time>2015-03-31T07:47:10Z</time>
      </trkpt>
      <trkpt lat="41.371017" lon="-6.445452">
        <ele>691.343</ele>
        <time>2015-03-31T07:47:21Z</time>
      </trkpt>
      <trkpt lat="41.370936" lon="-6.445730">
        <ele>692.364</ele>
        <time>2015-03-31T07:47:32Z</time>
      </trkpt>
      <trkpt lat="41.370844" lon="-6.446068">
        <ele>691.310</ele>
        <time>2015-03-31T07:47:41Z</time>
      </trkpt>
      <trkpt lat="41.370831" lon="-6.446117">
        <ele>691.307</ele>
        <time>2015-03-31T07:47:42Z</time>
      </trkpt>
      <trkpt lat="41.370787" lon="-6.446271">
        <ele>690.483</ele>
        <time>2015-03-31T07:47:45Z</time>
      </trkpt>
      <trkpt lat="41.370536" lon="-6.446865">
        <ele>688.938</ele>
        <time>2015-03-31T07:47:55Z</time>
      </trkpt>
      <trkpt lat="41.370475" lon="-6.446956">
        <ele>688.953</ele>
        <time>2015-03-31T07:47:57Z</time>
      </trkpt>
      <trkpt lat="41.370409" lon="-6.447038">
        <ele>688.957</ele>
        <time>2015-03-31T07:47:59Z</time>
      </trkpt>
      <trkpt lat="41.370377" lon="-6.447078">
        <ele>688.911</ele>
        <time>2015-03-31T07:48:00Z</time>
      </trkpt>
      <trkpt lat="41.370253" lon="-6.447235">
        <ele>688.996</ele>
        <time>2015-03-31T07:48:04Z</time>
      </trkpt>
      <trkpt lat="41.370223" lon="-6.447272">
        <ele>688.998</ele>
        <time>2015-03-31T07:48:05Z</time>
      </trkpt>
      <trkpt lat="41.370191" lon="-6.447311">
        <ele>688.952</ele>
        <time>2015-03-31T07:48:06Z</time>
      </trkpt>
      <trkpt lat="41.369838" lon="-6.447706">
        <ele>690.853</ele>
        <time>2015-03-31T07:48:18Z</time>
      </trkpt>
      <trkpt lat="41.369496" lon="-6.447923">
        <ele>692.808</ele>
        <time>2015-03-31T07:48:29Z</time>
      </trkpt>
      <trkpt lat="41.369095" lon="-6.448275">
        <ele>694.207</ele>
        <time>2015-03-31T07:48:43Z</time>
      </trkpt>
      <trkpt lat="41.368833" lon="-6.448638">
        <ele>696.154</ele>
        <time>2015-03-31T07:48:55Z</time>
      </trkpt>
      <trkpt lat="41.368703" lon="-6.448975">
        <ele>697.619</ele>
        <time>2015-03-31T07:49:04Z</time>
      </trkpt>
      <trkpt lat="41.368552" lon="-6.449372">
        <ele>699.044</ele>
        <time>2015-03-31T07:49:15Z</time>
      </trkpt>
      <trkpt lat="41.368479" lon="-6.449678">
        <ele>698.518</ele>
        <time>2015-03-31T07:49:22Z</time>
      </trkpt>
      <trkpt lat="41.368261" lon="-6.450063">
        <ele>699.022</ele>
        <time>2015-03-31T07:49:32Z</time>
      </trkpt>
      <trkpt lat="41.367922" lon="-6.450426">
        <ele>700.597</ele>
        <time>2015-03-31T07:49:45Z</time>
      </trkpt>
      <trkpt lat="41.367691" lon="-6.450763">
        <ele>700.049</ele>
        <time>2015-03-31T07:49:56Z</time>
      </trkpt>
      <trkpt lat="41.367416" lon="-6.451197">
        <ele>697.132</ele>
        <time>2015-03-31T07:50:05Z</time>
      </trkpt>
      <trkpt lat="41.367057" lon="-6.451628">
        <ele>695.292</ele>
        <time>2015-03-31T07:50:14Z</time>
      </trkpt>
      <trkpt lat="41.367013" lon="-6.451660">
        <ele>695.711</ele>
        <time>2015-03-31T07:50:15Z</time>
      </trkpt>
      <trkpt lat="41.366972" lon="-6.451686">
        <ele>695.707</ele>
        <time>2015-03-31T07:50:16Z</time>
      </trkpt>
      <trkpt lat="41.366932" lon="-6.451714">
        <ele>695.712</ele>
        <time>2015-03-31T07:50:17Z</time>
      </trkpt>
      <trkpt lat="41.366891" lon="-6.451744">
        <ele>695.767</ele>
        <time>2015-03-31T07:50:18Z</time>
      </trkpt>
      <trkpt lat="41.366853" lon="-6.451773">
        <ele>696.182</ele>
        <time>2015-03-31T07:50:19Z</time>
      </trkpt>
      <trkpt lat="41.366819" lon="-6.451801">
        <ele>696.126</ele>
        <time>2015-03-31T07:50:20Z</time>
      </trkpt>
      <trkpt lat="41.366784" lon="-6.451822">
        <ele>696.670</ele>
        <time>2015-03-31T07:50:21Z</time>
      </trkpt>
      <trkpt lat="41.366750" lon="-6.451844">
        <ele>696.665</ele>
        <time>2015-03-31T07:50:22Z</time>
      </trkpt>
      <trkpt lat="41.366715" lon="-6.451874">
        <ele>697.157</ele>
        <time>2015-03-31T07:50:23Z</time>
      </trkpt>
      <trkpt lat="41.366319" lon="-6.452135">
        <ele>698.127</ele>
        <time>2015-03-31T07:50:35Z</time>
      </trkpt>
      <trkpt lat="41.365823" lon="-6.452298">
        <ele>698.568</ele>
        <time>2015-03-31T07:50:48Z</time>
      </trkpt>
      <trkpt lat="41.365495" lon="-6.452396">
        <ele>700.014</ele>
        <time>2015-03-31T07:50:58Z</time>
      </trkpt>
      <trkpt lat="41.365139" lon="-6.452413">
        <ele>700.907</ele>
        <time>2015-03-31T07:51:08Z</time>
      </trkpt>
      <trkpt lat="41.364733" lon="-6.452463">
        <ele>700.561</ele>
        <time>2015-03-31T07:51:18Z</time>
      </trkpt>
      <trkpt lat="41.364694" lon="-6.452466">
        <ele>700.956</ele>
        <time>2015-03-31T07:51:19Z</time>
      </trkpt>
      <trkpt lat="41.364651" lon="-6.452470">
        <ele>700.551</ele>
        <time>2015-03-31T07:51:20Z</time>
      </trkpt>
      <trkpt lat="41.364609" lon="-6.452473">
        <ele>700.595</ele>
        <time>2015-03-31T07:51:21Z</time>
      </trkpt>
      <trkpt lat="41.364568" lon="-6.452471">
        <ele>700.569</ele>
        <time>2015-03-31T07:51:22Z</time>
      </trkpt>
      <trkpt lat="41.364528" lon="-6.452466">
        <ele>701.434</ele>
        <time>2015-03-31T07:51:23Z</time>
      </trkpt>
      <trkpt lat="41.364488" lon="-6.452458">
        <ele>700.966</ele>
        <time>2015-03-31T07:51:24Z</time>
      </trkpt>
      <trkpt lat="41.364094" lon="-6.452297">
        <ele>702.917</ele>
        <time>2015-03-31T07:51:35Z</time>
      </trkpt>
      <trkpt lat="41.363571" lon="-6.452069">
        <ele>703.887</ele>
        <time>2015-03-31T07:51:49Z</time>
      </trkpt>
      <trkpt lat="41.363196" lon="-6.451791">
        <ele>705.315</ele>
        <time>2015-03-31T07:52:01Z</time>
      </trkpt>
      <trkpt lat="41.362909" lon="-6.451607">
        <ele>706.707</ele>
        <time>2015-03-31T07:52:11Z</time>
      </trkpt>
      <trkpt lat="41.362488" lon="-6.451524">
        <ele>706.740</ele>
        <time>2015-03-31T07:52:23Z</time>
      </trkpt>
      <trkpt lat="41.362446" lon="-6.451533">
        <ele>706.785</ele>
        <time>2015-03-31T07:52:24Z</time>
      </trkpt>
      <trkpt lat="41.362402" lon="-6.451540">
        <ele>706.210</ele>
        <time>2015-03-31T07:52:25Z</time>
      </trkpt>
      <trkpt lat="41.362357" lon="-6.451547">
        <ele>706.234</ele>
        <time>2015-03-31T07:52:26Z</time>
      </trkpt>
      <trkpt lat="41.362312" lon="-6.451550">
        <ele>706.218</ele>
        <time>2015-03-31T07:52:27Z</time>
      </trkpt>
      <trkpt lat="41.362179" lon="-6.451566">
        <ele>705.893</ele>
        <time>2015-03-31T07:52:30Z</time>
      </trkpt>
      <trkpt lat="41.362130" lon="-6.451565">
        <ele>705.815</ele>
        <time>2015-03-31T07:52:31Z</time>
      </trkpt>
      <trkpt lat="41.361608" lon="-6.451575">
        <ele>704.347</ele>
        <time>2015-03-31T07:52:42Z</time>
      </trkpt>
      <trkpt lat="41.361560" lon="-6.451579">
        <ele>704.329</ele>
        <time>2015-03-31T07:52:43Z</time>
      </trkpt>
      <trkpt lat="41.361363" lon="-6.451610">
        <ele>703.821</ele>
        <time>2015-03-31T07:52:47Z</time>
      </trkpt>
      <trkpt lat="41.361319" lon="-6.451632">
        <ele>703.807</ele>
        <time>2015-03-31T07:52:48Z</time>
      </trkpt>
      <trkpt lat="41.361234" lon="-6.451677">
        <ele>703.853</ele>
        <time>2015-03-31T07:52:50Z</time>
      </trkpt>
      <trkpt lat="41.361146" lon="-6.451742">
        <ele>703.888</ele>
        <time>2015-03-31T07:52:52Z</time>
      </trkpt>
      <trkpt lat="41.361107" lon="-6.451775">
        <ele>703.863</ele>
        <time>2015-03-31T07:52:53Z</time>
      </trkpt>
      <trkpt lat="41.360652" lon="-6.452081">
        <ele>704.337</ele>
        <time>2015-03-31T07:53:04Z</time>
      </trkpt>
      <trkpt lat="41.360246" lon="-6.452310">
        <ele>704.821</ele>
        <time>2015-03-31T07:53:14Z</time>
      </trkpt>
      <trkpt lat="41.360212" lon="-6.452344">
        <ele>705.326</ele>
        <time>2015-03-31T07:53:15Z</time>
      </trkpt>
      <trkpt lat="41.360178" lon="-6.452379">
        <ele>705.358</ele>
        <time>2015-03-31T07:53:16Z</time>
      </trkpt>
      <trkpt lat="41.360145" lon="-6.452414">
        <ele>705.371</ele>
        <time>2015-03-31T07:53:17Z</time>
      </trkpt>
      <trkpt lat="41.360114" lon="-6.452451">
        <ele>705.341</ele>
        <time>2015-03-31T07:53:18Z</time>
      </trkpt>
      <trkpt lat="41.359825" lon="-6.452942">
        <ele>705.315</ele>
        <time>2015-03-31T07:53:29Z</time>
      </trkpt>
      <trkpt lat="41.359812" lon="-6.452997">
        <ele>704.807</ele>
        <time>2015-03-31T07:53:30Z</time>
      </trkpt>
      <trkpt lat="41.359690" lon="-6.453570">
        <ele>701.936</ele>
        <time>2015-03-31T07:53:40Z</time>
      </trkpt>
      <trkpt lat="41.359537" lon="-6.454115">
        <ele>698.541</ele>
        <time>2015-03-31T07:53:48Z</time>
      </trkpt>
      <trkpt lat="41.359477" lon="-6.454358">
        <ele>697.196</ele>
        <time>2015-03-31T07:53:51Z</time>
      </trkpt>
      <trkpt lat="41.359457" lon="-6.454701">
        <ele>696.110</ele>
        <time>2015-03-31T07:53:55Z</time>
      </trkpt>
      <trkpt lat="41.359471" lon="-6.455177">
        <ele>695.724</ele>
        <time>2015-03-31T07:54:01Z</time>
      </trkpt>
      <trkpt lat="41.359463" lon="-6.455248">
        <ele>695.769</ele>
        <time>2015-03-31T07:54:02Z</time>
      </trkpt>
      <trkpt lat="41.359450" lon="-6.455319">
        <ele>695.741</ele>
        <time>2015-03-31T07:54:03Z</time>
      </trkpt>
      <trkpt lat="41.359432" lon="-6.455386">
        <ele>695.718</ele>
        <time>2015-03-31T07:54:04Z</time>
      </trkpt>
      <trkpt lat="41.359410" lon="-6.455447">
        <ele>695.798</ele>
        <time>2015-03-31T07:54:05Z</time>
      </trkpt>
      <trkpt lat="41.359387" lon="-6.455503">
        <ele>695.717</ele>
        <time>2015-03-31T07:54:06Z</time>
      </trkpt>
      <trkpt lat="41.359362" lon="-6.455556">
        <ele>695.707</ele>
        <time>2015-03-31T07:54:07Z</time>
      </trkpt>
      <trkpt lat="41.359032" lon="-6.456230">
        <ele>698.120</ele>
        <time>2015-03-31T07:54:20Z</time>
      </trkpt>
      <trkpt lat="41.359003" lon="-6.456269">
        <ele>698.525</ele>
        <time>2015-03-31T07:54:21Z</time>
      </trkpt>
      <trkpt lat="41.358971" lon="-6.456304">
        <ele>699.080</ele>
        <time>2015-03-31T07:54:22Z</time>
      </trkpt>
      <trkpt lat="41.358691" lon="-6.456680">
        <ele>700.574</ele>
        <time>2015-03-31T07:54:32Z</time>
      </trkpt>
      <trkpt lat="41.358480" lon="-6.457056">
        <ele>700.928</ele>
        <time>2015-03-31T07:54:41Z</time>
      </trkpt>
      <trkpt lat="41.358150" lon="-6.457485">
        <ele>701.963</ele>
        <time>2015-03-31T07:54:53Z</time>
      </trkpt>
      <trkpt lat="41.357770" lon="-6.457646">
        <ele>703.355</ele>
        <time>2015-03-31T07:55:04Z</time>
      </trkpt>
      <trkpt lat="41.357405" lon="-6.457822">
        <ele>704.387</ele>
        <time>2015-03-31T07:55:14Z</time>
      </trkpt>
      <trkpt lat="41.356930" lon="-6.457984">
        <ele>702.942</ele>
        <time>2015-03-31T07:55:25Z</time>
      </trkpt>
      <trkpt lat="41.356879" lon="-6.457995">
        <ele>702.926</ele>
        <time>2015-03-31T07:55:26Z</time>
      </trkpt>
      <trkpt lat="41.356828" lon="-6.458002">
        <ele>702.407</ele>
        <time>2015-03-31T07:55:27Z</time>
      </trkpt>
      <trkpt lat="41.356775" lon="-6.458018">
        <ele>702.447</ele>
        <time>2015-03-31T07:55:28Z</time>
      </trkpt>
      <trkpt lat="41.356720" lon="-6.458038">
        <ele>702.482</ele>
        <time>2015-03-31T07:55:29Z</time>
      </trkpt>
      <trkpt lat="41.356014" lon="-6.458328">
        <ele>700.097</ele>
        <time>2015-03-31T07:55:42Z</time>
      </trkpt>
      <trkpt lat="41.355959" lon="-6.458351">
        <ele>699.571</ele>
        <time>2015-03-31T07:55:43Z</time>
      </trkpt>
      <trkpt lat="41.355535" lon="-6.458487">
        <ele>697.155</ele>
        <time>2015-03-31T07:55:50Z</time>
      </trkpt>
      <trkpt lat="41.355184" lon="-6.458606">
        <ele>693.710</ele>
        <time>2015-03-31T07:55:55Z</time>
      </trkpt>
      <trkpt lat="41.355112" lon="-6.458646">
        <ele>693.332</ele>
        <time>2015-03-31T07:55:56Z</time>
      </trkpt>
      <trkpt lat="41.355040" lon="-6.458696">
        <ele>692.358</ele>
        <time>2015-03-31T07:55:57Z</time>
      </trkpt>
      <trkpt lat="41.354467" lon="-6.459272">
        <ele>689.952</ele>
        <time>2015-03-31T07:56:06Z</time>
      </trkpt>
      <trkpt lat="41.354165" lon="-6.459610">
        <ele>685.617</ele>
        <time>2015-03-31T07:56:12Z</time>
      </trkpt>
      <trkpt lat="41.354117" lon="-6.459661">
        <ele>693.307</ele>
        <time>2015-03-31T07:56:13Z</time>
      </trkpt>
      <trkpt lat="41.353508" lon="-6.460215">
        <ele>691.314</ele>
        <time>2015-03-31T07:56:26Z</time>
      </trkpt>
      <trkpt lat="41.352889" lon="-6.460506">
        <ele>691.399</ele>
        <time>2015-03-31T07:56:39Z</time>
      </trkpt>
      <trkpt lat="41.352726" lon="-6.460620">
        <ele>690.834</ele>
        <time>2015-03-31T07:56:43Z</time>
      </trkpt>
      <trkpt lat="41.352649" lon="-6.460697">
        <ele>690.448</ele>
        <time>2015-03-31T07:56:45Z</time>
      </trkpt>
      <trkpt lat="41.352612" lon="-6.460745">
        <ele>690.442</ele>
        <time>2015-03-31T07:56:46Z</time>
      </trkpt>
      <trkpt lat="41.352577" lon="-6.460801">
        <ele>689.947</ele>
        <time>2015-03-31T07:56:47Z</time>
      </trkpt>
      <trkpt lat="41.352544" lon="-6.460865">
        <ele>689.439</ele>
        <time>2015-03-31T07:56:48Z</time>
      </trkpt>
      <trkpt lat="41.352515" lon="-6.460933">
        <ele>688.997</ele>
        <time>2015-03-31T07:56:49Z</time>
      </trkpt>
      <trkpt lat="41.352487" lon="-6.461006">
        <ele>688.923</ele>
        <time>2015-03-31T07:56:50Z</time>
      </trkpt>
      <trkpt lat="41.352197" lon="-6.461775">
        <ele>686.525</ele>
        <time>2015-03-31T07:57:00Z</time>
      </trkpt>
      <trkpt lat="41.352156" lon="-6.461826">
        <ele>686.507</ele>
        <time>2015-03-31T07:57:01Z</time>
      </trkpt>
      <trkpt lat="41.352111" lon="-6.461865">
        <ele>686.568</ele>
        <time>2015-03-31T07:57:02Z</time>
      </trkpt>
      <trkpt lat="41.352065" lon="-6.461893">
        <ele>686.573</ele>
        <time>2015-03-31T07:57:03Z</time>
      </trkpt>
      <trkpt lat="41.352018" lon="-6.461912">
        <ele>686.558</ele>
        <time>2015-03-31T07:57:04Z</time>
      </trkpt>
      <trkpt lat="41.351972" lon="-6.461929">
        <ele>686.572</ele>
        <time>2015-03-31T07:57:05Z</time>
      </trkpt>
      <trkpt lat="41.351929" lon="-6.461944">
        <ele>686.576</ele>
        <time>2015-03-31T07:57:06Z</time>
      </trkpt>
      <trkpt lat="41.351890" lon="-6.461963">
        <ele>686.581</ele>
        <time>2015-03-31T07:57:07Z</time>
      </trkpt>
      <trkpt lat="41.351531" lon="-6.462130">
        <ele>687.543</ele>
        <time>2015-03-31T07:57:17Z</time>
      </trkpt>
      <trkpt lat="41.351180" lon="-6.462408">
        <ele>688.488</ele>
        <time>2015-03-31T07:57:28Z</time>
      </trkpt>
      <trkpt lat="41.351027" lon="-6.462870">
        <ele>689.424</ele>
        <time>2015-03-31T07:57:38Z</time>
      </trkpt>
      <trkpt lat="41.350906" lon="-6.463229">
        <ele>689.926</ele>
        <time>2015-03-31T07:57:48Z</time>
      </trkpt>
      <trkpt lat="41.350692" lon="-6.463457">
        <ele>690.407</ele>
        <time>2015-03-31T07:57:57Z</time>
      </trkpt>
      <trkpt lat="41.350400" lon="-6.463514">
        <ele>691.897</ele>
        <time>2015-03-31T07:58:07Z</time>
      </trkpt>
      <trkpt lat="41.350123" lon="-6.463439">
        <ele>692.862</ele>
        <time>2015-03-31T07:58:17Z</time>
      </trkpt>
      <trkpt lat="41.349822" lon="-6.463411">
        <ele>693.767</ele>
        <time>2015-03-31T07:58:26Z</time>
      </trkpt>
      <trkpt lat="41.349514" lon="-6.463529">
        <ele>694.211</ele>
        <time>2015-03-31T07:58:36Z</time>
      </trkpt>
      <trkpt lat="41.349234" lon="-6.463748">
        <ele>695.745</ele>
        <time>2015-03-31T07:58:45Z</time>
      </trkpt>
      <trkpt lat="41.348972" lon="-6.463983">
        <ele>693.790</ele>
        <time>2015-03-31T07:58:54Z</time>
      </trkpt>
      <trkpt lat="41.348637" lon="-6.464348">
        <ele>694.272</ele>
        <time>2015-03-31T07:59:05Z</time>
      </trkpt>
      <trkpt lat="41.348242" lon="-6.464598">
        <ele>695.233</ele>
        <time>2015-03-31T07:59:17Z</time>
      </trkpt>
      <trkpt lat="41.347823" lon="-6.464769">
        <ele>695.223</ele>
        <time>2015-03-31T07:59:28Z</time>
      </trkpt>
      <trkpt lat="41.347362" lon="-6.464956">
        <ele>696.115</ele>
        <time>2015-03-31T07:59:41Z</time>
      </trkpt>
      <trkpt lat="41.347197" lon="-6.465094">
        <ele>698.507</ele>
        <time>2015-03-31T07:59:49Z</time>
      </trkpt>
      <trkpt lat="41.347134" lon="-6.465358">
        <ele>700.532</ele>
        <time>2015-03-31T08:00:00Z</time>
      </trkpt>
      <trkpt lat="41.347038" lon="-6.465435">
        <ele>700.967</ele>
        <time>2015-03-31T08:00:06Z</time>
      </trkpt>
      <trkpt lat="41.346985" lon="-6.465528">
        <ele>701.942</ele>
        <time>2015-03-31T08:00:11Z</time>
      </trkpt>
      <trkpt lat="41.346952" lon="-6.465602">
        <ele>702.426</ele>
        <time>2015-03-31T08:00:18Z</time>
      </trkpt>
      <trkpt lat="41.346921" lon="-6.465676">
        <ele>702.410</ele>
        <time>2015-03-31T08:00:24Z</time>
      </trkpt>
      <trkpt lat="41.346884" lon="-6.465756">
        <ele>702.415</ele>
        <time>2015-03-31T08:00:28Z</time>
      </trkpt>
      <trkpt lat="41.346690" lon="-6.465983">
        <ele>702.977</ele>
        <time>2015-03-31T08:00:39Z</time>
      </trkpt>
      <trkpt lat="41.346510" lon="-6.466233">
        <ele>702.419</ele>
        <time>2015-03-31T08:00:50Z</time>
      </trkpt>
      <trkpt lat="41.346325" lon="-6.466525">
        <ele>701.909</ele>
        <time>2015-03-31T08:01:00Z</time>
      </trkpt>
      <trkpt lat="41.346075" lon="-6.466815">
        <ele>700.919</ele>
        <time>2015-03-31T08:01:10Z</time>
      </trkpt>
      <trkpt lat="41.345844" lon="-6.466990">
        <ele>700.007</ele>
        <time>2015-03-31T08:01:19Z</time>
      </trkpt>
      <trkpt lat="41.345609" lon="-6.467166">
        <ele>701.420</ele>
        <time>2015-03-31T08:01:29Z</time>
      </trkpt>
      <trkpt lat="41.345587" lon="-6.467179">
        <ele>705.325</ele>
        <time>2015-03-31T08:01:30Z</time>
      </trkpt>
      <trkpt lat="41.345564" lon="-6.467191">
        <ele>697.170</ele>
        <time>2015-03-31T08:01:31Z</time>
      </trkpt>
      <trkpt lat="41.345541" lon="-6.467199">
        <ele>706.784</ele>
        <time>2015-03-31T08:01:32Z</time>
      </trkpt>
      <trkpt lat="41.345518" lon="-6.467207">
        <ele>701.958</ele>
        <time>2015-03-31T08:01:33Z</time>
      </trkpt>
      <trkpt lat="41.345364" lon="-6.467243">
        <ele>702.953</ele>
        <time>2015-03-31T08:01:43Z</time>
      </trkpt>
      <trkpt lat="41.345362" lon="-6.467239">
        <ele>699.075</ele>
        <time>2015-03-31T08:01:56Z</time>
      </trkpt>
      <trkpt lat="41.345362" lon="-6.467239">
        <ele>704.859</ele>
        <time>2015-03-31T08:01:57Z</time>
      </trkpt>
      <trkpt lat="41.345364" lon="-6.467240">
        <ele>702.903</ele>
        <time>2015-03-31T08:02:15Z</time>
      </trkpt>
      <trkpt lat="41.345339" lon="-6.467260">
        <ele>703.323</ele>
        <time>2015-03-31T08:02:23Z</time>
      </trkpt>
      <trkpt lat="41.345338" lon="-6.467262">
        <ele>702.907</ele>
        <time>2015-03-31T08:02:32Z</time>
      </trkpt>
      <trkpt lat="41.345329" lon="-6.467282">
        <ele>703.384</ele>
        <time>2015-03-31T08:02:53Z</time>
      </trkpt>
      <trkpt lat="41.345333" lon="-6.467280">
        <ele>702.949</ele>
        <time>2015-03-31T08:03:17Z</time>
      </trkpt>
      <trkpt lat="41.345335" lon="-6.467278">
        <ele>702.944</ele>
        <time>2015-03-31T08:03:42Z</time>
      </trkpt>
      <trkpt lat="41.345321" lon="-6.467290">
        <ele>702.928</ele>
        <time>2015-03-31T08:04:06Z</time>
      </trkpt>
      <trkpt lat="41.345288" lon="-6.467330">
        <ele>702.912</ele>
        <time>2015-03-31T08:04:19Z</time>
      </trkpt>
      <trkpt lat="41.345249" lon="-6.467360">
        <ele>702.947</ele>
        <time>2015-03-31T08:04:23Z</time>
      </trkpt>
      <trkpt lat="41.345051" lon="-6.467300">
        <ele>702.919</ele>
        <time>2015-03-31T08:04:33Z</time>
      </trkpt>
      <trkpt lat="41.344770" lon="-6.467224">
        <ele>702.482</ele>
        <time>2015-03-31T08:04:44Z</time>
      </trkpt>
      <trkpt lat="41.344494" lon="-6.467099">
        <ele>703.343</ele>
        <time>2015-03-31T08:04:55Z</time>
      </trkpt>
      <trkpt lat="41.344295" lon="-6.466997">
        <ele>703.817</ele>
        <time>2015-03-31T08:05:04Z</time>
      </trkpt>
      <trkpt lat="41.344072" lon="-6.466914">
        <ele>704.307</ele>
        <time>2015-03-31T08:05:14Z</time>
      </trkpt>
      <trkpt lat="41.343982" lon="-6.466879">
        <ele>700.927</ele>
        <time>2015-03-31T08:05:18Z</time>
      </trkpt>
      <trkpt lat="41.343956" lon="-6.466878">
        <ele>706.272</ele>
        <time>2015-03-31T08:05:19Z</time>
      </trkpt>
      <trkpt lat="41.343710" lon="-6.466843">
        <ele>703.827</ele>
        <time>2015-03-31T08:05:28Z</time>
      </trkpt>
      <trkpt lat="41.343335" lon="-6.466778">
        <ele>702.931</ele>
        <time>2015-03-31T08:05:38Z</time>
      </trkpt>
      <trkpt lat="41.342969" lon="-6.466746">
        <ele>700.955</ele>
        <time>2015-03-31T08:05:49Z</time>
      </trkpt>
      <trkpt lat="41.342581" lon="-6.466681">
        <ele>699.510</ele>
        <time>2015-03-31T08:05:58Z</time>
      </trkpt>
      <trkpt lat="41.342530" lon="-6.466669">
        <ele>699.512</ele>
        <time>2015-03-31T08:05:59Z</time>
      </trkpt>
      <trkpt lat="41.342478" lon="-6.466654">
        <ele>699.049</ele>
        <time>2015-03-31T08:06:00Z</time>
      </trkpt>
      <trkpt lat="41.341796" lon="-6.466478">
        <ele>696.102</ele>
        <time>2015-03-31T08:06:12Z</time>
      </trkpt>
      <trkpt lat="41.341179" lon="-6.466332">
        <ele>695.222</ele>
        <time>2015-03-31T08:06:23Z</time>
      </trkpt>
      <trkpt lat="41.340574" lon="-6.466287">
        <ele>693.707</ele>
        <time>2015-03-31T08:06:35Z</time>
      </trkpt>
      <trkpt lat="41.340404" lon="-6.466288">
        <ele>693.323</ele>
        <time>2015-03-31T08:06:38Z</time>
      </trkpt>
      <trkpt lat="41.340350" lon="-6.466288">
        <ele>693.368</ele>
        <time>2015-03-31T08:06:39Z</time>
      </trkpt>
      <trkpt lat="41.340296" lon="-6.466281">
        <ele>693.373</ele>
        <time>2015-03-31T08:06:40Z</time>
      </trkpt>
      <trkpt lat="41.340241" lon="-6.466272">
        <ele>692.377</ele>
        <time>2015-03-31T08:06:41Z</time>
      </trkpt>
      <trkpt lat="41.340187" lon="-6.466264">
        <ele>692.851</ele>
        <time>2015-03-31T08:06:42Z</time>
      </trkpt>
      <trkpt lat="41.339886" lon="-6.466231">
        <ele>692.376</ele>
        <time>2015-03-31T08:06:48Z</time>
      </trkpt>
      <trkpt lat="41.339696" lon="-6.466250">
        <ele>692.388</ele>
        <time>2015-03-31T08:06:52Z</time>
      </trkpt>
      <trkpt lat="41.339601" lon="-6.466279">
        <ele>692.354</ele>
        <time>2015-03-31T08:06:54Z</time>
      </trkpt>
      <trkpt lat="41.339553" lon="-6.466302">
        <ele>692.356</ele>
        <time>2015-03-31T08:06:55Z</time>
      </trkpt>
      <trkpt lat="41.339410" lon="-6.466373">
        <ele>691.811</ele>
        <time>2015-03-31T08:06:58Z</time>
      </trkpt>
      <trkpt lat="41.339266" lon="-6.466468">
        <ele>691.307</ele>
        <time>2015-03-31T08:07:01Z</time>
      </trkpt>
      <trkpt lat="41.339219" lon="-6.466510">
        <ele>691.314</ele>
        <time>2015-03-31T08:07:02Z</time>
      </trkpt>
      <trkpt lat="41.338784" lon="-6.467054">
        <ele>688.419</ele>
        <time>2015-03-31T08:07:12Z</time>
      </trkpt>
      <trkpt lat="41.338695" lon="-6.467167">
        <ele>688.434</ele>
        <time>2015-03-31T08:07:14Z</time>
      </trkpt>
      <trkpt lat="41.338140" lon="-6.467782">
        <ele>685.188</ele>
        <time>2015-03-31T08:07:25Z</time>
      </trkpt>
      <trkpt lat="41.338044" lon="-6.467928">
        <ele>684.172</ele>
        <time>2015-03-31T08:07:27Z</time>
      </trkpt>
      <trkpt lat="41.337820" lon="-6.468205">
        <ele>682.747</ele>
        <time>2015-03-31T08:07:31Z</time>
      </trkpt>
      <trkpt lat="41.337125" lon="-6.468800">
        <ele>680.899</ele>
        <time>2015-03-31T08:07:42Z</time>
      </trkpt>
      <trkpt lat="41.336652" lon="-6.469342">
        <ele>678.446</ele>
        <time>2015-03-31T08:07:52Z</time>
      </trkpt>
      <trkpt lat="41.336407" lon="-6.469635">
        <ele>677.488</ele>
        <time>2015-03-31T08:07:57Z</time>
      </trkpt>
      <trkpt lat="41.336356" lon="-6.469686">
        <ele>677.416</ele>
        <time>2015-03-31T08:07:58Z</time>
      </trkpt>
      <trkpt lat="41.336306" lon="-6.469744">
        <ele>676.907</ele>
        <time>2015-03-31T08:07:59Z</time>
      </trkpt>
      <trkpt lat="41.336209" lon="-6.469878">
        <ele>675.983</ele>
        <time>2015-03-31T08:08:01Z</time>
      </trkpt>
      <trkpt lat="41.335952" lon="-6.470498">
        <ele>673.138</ele>
        <time>2015-03-31T08:08:08Z</time>
      </trkpt>
      <trkpt lat="41.335881" lon="-6.470702">
        <ele>671.613</ele>
        <time>2015-03-31T08:08:10Z</time>
      </trkpt>
      <trkpt lat="41.335715" lon="-6.471120">
        <ele>668.787</ele>
        <time>2015-03-31T08:08:14Z</time>
      </trkpt>
      <trkpt lat="41.335567" lon="-6.471600">
        <ele>665.431</ele>
        <time>2015-03-31T08:08:18Z</time>
      </trkpt>
      <trkpt lat="41.335444" lon="-6.471981">
        <ele>662.546</ele>
        <time>2015-03-31T08:08:21Z</time>
      </trkpt>
      <trkpt lat="41.335231" lon="-6.472482">
        <ele>658.258</ele>
        <time>2015-03-31T08:08:25Z</time>
      </trkpt>
      <trkpt lat="41.335128" lon="-6.472759">
        <ele>655.364</ele>
        <time>2015-03-31T08:08:27Z</time>
      </trkpt>
      <trkpt lat="41.335027" lon="-6.473058">
        <ele>651.906</ele>
        <time>2015-03-31T08:08:29Z</time>
      </trkpt>
      <trkpt lat="41.334968" lon="-6.473204">
        <ele>650.016</ele>
        <time>2015-03-31T08:08:30Z</time>
      </trkpt>
      <trkpt lat="41.334899" lon="-6.473337">
        <ele>649.507</ele>
        <time>2015-03-31T08:08:31Z</time>
      </trkpt>
      <trkpt lat="41.334825" lon="-6.473449">
        <ele>649.535</ele>
        <time>2015-03-31T08:08:32Z</time>
      </trkpt>
      <trkpt lat="41.334751" lon="-6.473538">
        <ele>650.520</ele>
        <time>2015-03-31T08:08:33Z</time>
      </trkpt>
      <trkpt lat="41.334685" lon="-6.473609">
        <ele>652.995</ele>
        <time>2015-03-31T08:08:34Z</time>
      </trkpt>
      <trkpt lat="41.334627" lon="-6.473664">
        <ele>653.889</ele>
        <time>2015-03-31T08:08:35Z</time>
      </trkpt>
      <trkpt lat="41.334437" lon="-6.473828">
        <ele>657.293</ele>
        <time>2015-03-31T08:08:39Z</time>
      </trkpt>
      <trkpt lat="41.334154" lon="-6.474095">
        <ele>660.698</ele>
        <time>2015-03-31T08:08:48Z</time>
      </trkpt>
      <trkpt lat="41.333885" lon="-6.474406">
        <ele>661.070</ele>
        <time>2015-03-31T08:08:58Z</time>
      </trkpt>
      <trkpt lat="41.333662" lon="-6.474662">
        <ele>660.629</ele>
        <time>2015-03-31T08:09:05Z</time>
      </trkpt>
      <trkpt lat="41.333631" lon="-6.474698">
        <ele>660.600</ele>
        <time>2015-03-31T08:09:06Z</time>
      </trkpt>
      <trkpt lat="41.333293" lon="-6.475117">
        <ele>662.020</ele>
        <time>2015-03-31T08:09:18Z</time>
      </trkpt>
      <trkpt lat="41.332977" lon="-6.475454">
        <ele>664.407</ele>
        <time>2015-03-31T08:09:31Z</time>
      </trkpt>
      <trkpt lat="41.332716" lon="-6.475714">
        <ele>666.871</ele>
        <time>2015-03-31T08:09:43Z</time>
      </trkpt>
      <trkpt lat="41.332522" lon="-6.475879">
        <ele>669.716</ele>
        <time>2015-03-31T08:09:53Z</time>
      </trkpt>
      <trkpt lat="41.332319" lon="-6.476015">
        <ele>671.661</ele>
        <time>2015-03-31T08:10:04Z</time>
      </trkpt>
      <trkpt lat="41.332101" lon="-6.476127">
        <ele>671.685</ele>
        <time>2015-03-31T08:10:13Z</time>
      </trkpt>
      <trkpt lat="41.331739" lon="-6.476310">
        <ele>671.179</ele>
        <time>2015-03-31T08:10:24Z</time>
      </trkpt>
      <trkpt lat="41.331430" lon="-6.476472">
        <ele>672.154</ele>
        <time>2015-03-31T08:10:34Z</time>
      </trkpt>
      <trkpt lat="41.331097" lon="-6.476658">
        <ele>674.096</ele>
        <time>2015-03-31T08:10:46Z</time>
      </trkpt>
      <trkpt lat="41.330862" lon="-6.476813">
        <ele>675.044</ele>
        <time>2015-03-31T08:10:55Z</time>
      </trkpt>
      <trkpt lat="41.330618" lon="-6.477013">
        <ele>676.405</ele>
        <time>2015-03-31T08:11:05Z</time>
      </trkpt>
      <trkpt lat="41.330412" lon="-6.477268">
        <ele>678.415</ele>
        <time>2015-03-31T08:11:15Z</time>
      </trkpt>
      <trkpt lat="41.330157" lon="-6.477560">
        <ele>680.307</ele>
        <time>2015-03-31T08:11:27Z</time>
      </trkpt>
      <trkpt lat="41.329910" lon="-6.477706">
        <ele>683.263</ele>
        <time>2015-03-31T08:11:38Z</time>
      </trkpt>
      <trkpt lat="41.329679" lon="-6.477787">
        <ele>684.178</ele>
        <time>2015-03-31T08:11:48Z</time>
      </trkpt>
      <trkpt lat="41.329354" lon="-6.477912">
        <ele>684.633</ele>
        <time>2015-03-31T08:12:00Z</time>
      </trkpt>
      <trkpt lat="41.329010" lon="-6.478164">
        <ele>686.067</ele>
        <time>2015-03-31T08:12:15Z</time>
      </trkpt>
      <trkpt lat="41.328799" lon="-6.478429">
        <ele>688.071</ele>
        <time>2015-03-31T08:12:26Z</time>
      </trkpt>
      <trkpt lat="41.328570" lon="-6.478696">
        <ele>690.456</ele>
        <time>2015-03-31T08:12:39Z</time>
      </trkpt>
      <trkpt lat="41.328359" lon="-6.478973">
        <ele>692.868</ele>
        <time>2015-03-31T08:12:52Z</time>
      </trkpt>
      <trkpt lat="41.328193" lon="-6.479175">
        <ele>694.294</ele>
        <time>2015-03-31T08:13:02Z</time>
      </trkpt>
      <trkpt lat="41.328043" lon="-6.479403">
        <ele>695.757</ele>
        <time>2015-03-31T08:13:12Z</time>
      </trkpt>
      <trkpt lat="41.327885" lon="-6.479659">
        <ele>697.622</ele>
        <time>2015-03-31T08:13:23Z</time>
      </trkpt>
      <trkpt lat="41.327723" lon="-6.479856">
        <ele>700.007</ele>
        <time>2015-03-31T08:13:33Z</time>
      </trkpt>
      <trkpt lat="41.327672" lon="-6.479913">
        <ele>700.538</ele>
        <time>2015-03-31T08:13:36Z</time>
      </trkpt>
      <trkpt lat="41.327598" lon="-6.480024">
        <ele>700.993</ele>
        <time>2015-03-31T08:13:41Z</time>
      </trkpt>
      <trkpt lat="41.327315" lon="-6.480230">
        <ele>701.998</ele>
        <time>2015-03-31T08:13:55Z</time>
      </trkpt>
      <trkpt lat="41.327061" lon="-6.480338">
        <ele>703.872</ele>
        <time>2015-03-31T08:14:07Z</time>
      </trkpt>
      <trkpt lat="41.326869" lon="-6.480439">
        <ele>705.836</ele>
        <time>2015-03-31T08:14:17Z</time>
      </trkpt>
      <trkpt lat="41.326650" lon="-6.480579">
        <ele>708.671</ele>
        <time>2015-03-31T08:14:28Z</time>
      </trkpt>
      <trkpt lat="41.326472" lon="-6.480738">
        <ele>710.623</ele>
        <time>2015-03-31T08:14:38Z</time>
      </trkpt>
      <trkpt lat="41.326320" lon="-6.480903">
        <ele>712.534</ele>
        <time>2015-03-31T08:14:48Z</time>
      </trkpt>
      <trkpt lat="41.326182" lon="-6.481067">
        <ele>714.455</ele>
        <time>2015-03-31T08:14:57Z</time>
      </trkpt>
      <trkpt lat="41.326061" lon="-6.481247">
        <ele>715.810</ele>
        <time>2015-03-31T08:15:05Z</time>
      </trkpt>
      <trkpt lat="41.325875" lon="-6.481466">
        <ele>716.307</ele>
        <time>2015-03-31T08:15:15Z</time>
      </trkpt>
      <trkpt lat="41.325627" lon="-6.481681">
        <ele>717.872</ele>
        <time>2015-03-31T08:15:27Z</time>
      </trkpt>
      <trkpt lat="41.325416" lon="-6.481824">
        <ele>719.727</ele>
        <time>2015-03-31T08:15:37Z</time>
      </trkpt>
      <trkpt lat="41.325176" lon="-6.481977">
        <ele>721.632</ele>
        <time>2015-03-31T08:15:48Z</time>
      </trkpt>
      <trkpt lat="41.325040" lon="-6.482070">
        <ele>722.696</ele>
        <time>2015-03-31T08:15:54Z</time>
      </trkpt>
      <trkpt lat="41.324792" lon="-6.482231">
        <ele>724.060</ele>
        <time>2015-03-31T08:16:05Z</time>
      </trkpt>
      <trkpt lat="41.324535" lon="-6.482417">
        <ele>725.585</ele>
        <time>2015-03-31T08:16:16Z</time>
      </trkpt>
      <trkpt lat="41.324331" lon="-6.482607">
        <ele>725.967</ele>
        <time>2015-03-31T08:16:26Z</time>
      </trkpt>
      <trkpt lat="41.324159" lon="-6.482908">
        <ele>727.468</ele>
        <time>2015-03-31T08:16:37Z</time>
      </trkpt>
      <trkpt lat="41.324018" lon="-6.483245">
        <ele>727.942</ele>
        <time>2015-03-31T08:16:48Z</time>
      </trkpt>
      <trkpt lat="41.323856" lon="-6.483573">
        <ele>729.326</ele>
        <time>2015-03-31T08:16:59Z</time>
      </trkpt>
      <trkpt lat="41.323686" lon="-6.483843">
        <ele>731.707</ele>
        <time>2015-03-31T08:17:10Z</time>
      </trkpt>
      <trkpt lat="41.323495" lon="-6.484135">
        <ele>733.155</ele>
        <time>2015-03-31T08:17:22Z</time>
      </trkpt>
      <trkpt lat="41.323291" lon="-6.484459">
        <ele>732.730</ele>
        <time>2015-03-31T08:17:33Z</time>
      </trkpt>
      <trkpt lat="41.323176" lon="-6.484619">
        <ele>731.245</ele>
        <time>2015-03-31T08:17:37Z</time>
      </trkpt>
      <trkpt lat="41.322947" lon="-6.484972">
        <ele>728.329</ele>
        <time>2015-03-31T08:17:43Z</time>
      </trkpt>
      <trkpt lat="41.322783" lon="-6.485256">
        <ele>725.973</ele>
        <time>2015-03-31T08:17:47Z</time>
      </trkpt>
      <trkpt lat="41.322378" lon="-6.485780">
        <ele>724.058</ele>
        <time>2015-03-31T08:17:56Z</time>
      </trkpt>
      <trkpt lat="41.322194" lon="-6.486105">
        <ele>723.580</ele>
        <time>2015-03-31T08:18:01Z</time>
      </trkpt>
      <trkpt lat="41.322164" lon="-6.486168">
        <ele>723.549</ele>
        <time>2015-03-31T08:18:02Z</time>
      </trkpt>
      <trkpt lat="41.322133" lon="-6.486226">
        <ele>724.002</ele>
        <time>2015-03-31T08:18:03Z</time>
      </trkpt>
      <trkpt lat="41.322104" lon="-6.486284">
        <ele>723.522</ele>
        <time>2015-03-31T08:18:04Z</time>
      </trkpt>
      <trkpt lat="41.322077" lon="-6.486342">
        <ele>723.507</ele>
        <time>2015-03-31T08:18:05Z</time>
      </trkpt>
      <trkpt lat="41.321975" lon="-6.486570">
        <ele>723.573</ele>
        <time>2015-03-31T08:18:09Z</time>
      </trkpt>
      <trkpt lat="41.321956" lon="-6.486631">
        <ele>723.588</ele>
        <time>2015-03-31T08:18:10Z</time>
      </trkpt>
      <trkpt lat="41.321852" lon="-6.487000">
        <ele>723.143</ele>
        <time>2015-03-31T08:18:16Z</time>
      </trkpt>
      <trkpt lat="41.321832" lon="-6.487055">
        <ele>723.567</ele>
        <time>2015-03-31T08:18:17Z</time>
      </trkpt>
      <trkpt lat="41.321819" lon="-6.487112">
        <ele>723.541</ele>
        <time>2015-03-31T08:18:18Z</time>
      </trkpt>
      <trkpt lat="41.321811" lon="-6.487167">
        <ele>723.566</ele>
        <time>2015-03-31T08:18:19Z</time>
      </trkpt>
      <trkpt lat="41.321801" lon="-6.487221">
        <ele>723.558</ele>
        <time>2015-03-31T08:18:20Z</time>
      </trkpt>
      <trkpt lat="41.321722" lon="-6.487492">
        <ele>724.057</ele>
        <time>2015-03-31T08:18:25Z</time>
      </trkpt>
      <trkpt lat="41.321678" lon="-6.487719">
        <ele>724.000</ele>
        <time>2015-03-31T08:18:29Z</time>
      </trkpt>
      <trkpt lat="41.321668" lon="-6.487775">
        <ele>724.520</ele>
        <time>2015-03-31T08:18:30Z</time>
      </trkpt>
      <trkpt lat="41.321657" lon="-6.487829">
        <ele>724.507</ele>
        <time>2015-03-31T08:18:31Z</time>
      </trkpt>
      <trkpt lat="41.321646" lon="-6.487883">
        <ele>724.584</ele>
        <time>2015-03-31T08:18:32Z</time>
      </trkpt>
      <trkpt lat="41.321636" lon="-6.487937">
        <ele>724.549</ele>
        <time>2015-03-31T08:18:33Z</time>
      </trkpt>
      <trkpt lat="41.321546" lon="-6.488382">
        <ele>725.954</ele>
        <time>2015-03-31T08:18:42Z</time>
      </trkpt>
      <trkpt lat="41.321445" lon="-6.488881">
        <ele>726.478</ele>
        <time>2015-03-31T08:18:52Z</time>
      </trkpt>
      <trkpt lat="41.321355" lon="-6.489272">
        <ele>727.462</ele>
        <time>2015-03-31T08:19:00Z</time>
      </trkpt>
      <trkpt lat="41.321186" lon="-6.489561">
        <ele>729.337</ele>
        <time>2015-03-31T08:19:08Z</time>
      </trkpt>
      <trkpt lat="41.320832" lon="-6.489983">
        <ele>728.399</ele>
        <time>2015-03-31T08:19:21Z</time>
      </trkpt>
      <trkpt lat="41.320751" lon="-6.490117">
        <ele>727.455</ele>
        <time>2015-03-31T08:19:24Z</time>
      </trkpt>
      <trkpt lat="41.320552" lon="-6.490572">
        <ele>724.507</ele>
        <time>2015-03-31T08:19:34Z</time>
      </trkpt>
      <trkpt lat="41.320491" lon="-6.490805">
        <ele>723.117</ele>
        <time>2015-03-31T08:19:41Z</time>
      </trkpt>
      <trkpt lat="41.320480" lon="-6.490811">
        <ele>723.507</ele>
        <time>2015-03-31T08:19:42Z</time>
      </trkpt>
      <trkpt lat="41.320473" lon="-6.490793">
        <ele>723.134</ele>
        <time>2015-03-31T08:19:51Z</time>
      </trkpt>
      <trkpt lat="41.320472" lon="-6.490787">
        <ele>723.199</ele>
        <time>2015-03-31T08:20:11Z</time>
      </trkpt>
      <trkpt lat="41.320473" lon="-6.490790">
        <ele>723.174</ele>
        <time>2015-03-31T08:20:25Z</time>
      </trkpt>
      <trkpt lat="41.320470" lon="-6.490787">
        <ele>723.188</ele>
        <time>2015-03-31T08:20:41Z</time>
      </trkpt>
      <trkpt lat="41.320470" lon="-6.490798">
        <ele>723.112</ele>
        <time>2015-03-31T08:21:10Z</time>
      </trkpt>
      <trkpt lat="41.320471" lon="-6.490799">
        <ele>723.147</ele>
        <time>2015-03-31T08:21:38Z</time>
      </trkpt>
      <trkpt lat="41.320470" lon="-6.490796">
        <ele>723.199</ele>
        <time>2015-03-31T08:22:05Z</time>
      </trkpt>
      <trkpt lat="41.320473" lon="-6.490802">
        <ele>723.111</ele>
        <time>2015-03-31T08:22:29Z</time>
      </trkpt>
      <trkpt lat="41.320475" lon="-6.490796">
        <ele>723.121</ele>
        <time>2015-03-31T08:22:58Z</time>
      </trkpt>
      <trkpt lat="41.320475" lon="-6.490795">
        <ele>723.103</ele>
        <time>2015-03-31T08:23:22Z</time>
      </trkpt>
      <trkpt lat="41.320471" lon="-6.490797">
        <ele>723.107</ele>
        <time>2015-03-31T08:23:48Z</time>
      </trkpt>
      <trkpt lat="41.320474" lon="-6.490795">
        <ele>723.150</ele>
        <time>2015-03-31T08:24:09Z</time>
      </trkpt>
      <trkpt lat="41.320476" lon="-6.490795">
        <ele>723.195</ele>
        <time>2015-03-31T08:24:36Z</time>
      </trkpt>
      <trkpt lat="41.320479" lon="-6.490791">
        <ele>723.140</ele>
        <time>2015-03-31T08:25:00Z</time>
      </trkpt>
      <trkpt lat="41.320483" lon="-6.490813">
        <ele>723.184</ele>
        <time>2015-03-31T08:25:10Z</time>
      </trkpt>
      <trkpt lat="41.320499" lon="-6.490870">
        <ele>722.628</ele>
        <time>2015-03-31T08:25:21Z</time>
      </trkpt>
      <trkpt lat="41.320507" lon="-6.490909">
        <ele>722.113</ele>
        <time>2015-03-31T08:25:22Z</time>
      </trkpt>
      <trkpt lat="41.320532" lon="-6.491057">
        <ele>721.655</ele>
        <time>2015-03-31T08:25:25Z</time>
      </trkpt>
      <trkpt lat="41.320541" lon="-6.491178">
        <ele>720.247</ele>
        <time>2015-03-31T08:25:27Z</time>
      </trkpt>
      <trkpt lat="41.320549" lon="-6.491324">
        <ele>718.729</ele>
        <time>2015-03-31T08:25:29Z</time>
      </trkpt>
      <trkpt lat="41.320554" lon="-6.491401">
        <ele>718.221</ele>
        <time>2015-03-31T08:25:30Z</time>
      </trkpt>
      <trkpt lat="41.320557" lon="-6.491484">
        <ele>717.807</ele>
        <time>2015-03-31T08:25:31Z</time>
      </trkpt>
      <trkpt lat="41.320540" lon="-6.491987">
        <ele>713.983</ele>
        <time>2015-03-31T08:25:36Z</time>
      </trkpt>
      <trkpt lat="41.320455" lon="-6.492452">
        <ele>710.168</ele>
        <time>2015-03-31T08:25:40Z</time>
      </trkpt>
      <trkpt lat="41.320355" lon="-6.492819">
        <ele>706.713</ele>
        <time>2015-03-31T08:25:43Z</time>
      </trkpt>
      <trkpt lat="41.320308" lon="-6.492920">
        <ele>706.737</ele>
        <time>2015-03-31T08:25:44Z</time>
      </trkpt>
      <trkpt lat="41.320160" lon="-6.493262">
        <ele>707.711</ele>
        <time>2015-03-31T08:25:48Z</time>
      </trkpt>
      <trkpt lat="41.320070" lon="-6.493639">
        <ele>704.836</ele>
        <time>2015-03-31T08:25:52Z</time>
      </trkpt>
      <trkpt lat="41.320044" lon="-6.493733">
        <ele>706.278</ele>
        <time>2015-03-31T08:25:53Z</time>
      </trkpt>
      <trkpt lat="41.320011" lon="-6.493819">
        <ele>705.333</ele>
        <time>2015-03-31T08:25:54Z</time>
      </trkpt>
      <trkpt lat="41.319968" lon="-6.493888">
        <ele>705.823</ele>
        <time>2015-03-31T08:25:55Z</time>
      </trkpt>
      <trkpt lat="41.319917" lon="-6.493936">
        <ele>705.815</ele>
        <time>2015-03-31T08:25:56Z</time>
      </trkpt>
      <trkpt lat="41.319864" lon="-6.493970">
        <ele>705.807</ele>
        <time>2015-03-31T08:25:57Z</time>
      </trkpt>
      <trkpt lat="41.319808" lon="-6.493991">
        <ele>705.862</ele>
        <time>2015-03-31T08:25:58Z</time>
      </trkpt>
      <trkpt lat="41.319750" lon="-6.494003">
        <ele>706.237</ele>
        <time>2015-03-31T08:25:59Z</time>
      </trkpt>
      <trkpt lat="41.319694" lon="-6.494013">
        <ele>706.252</ele>
        <time>2015-03-31T08:26:00Z</time>
      </trkpt>
      <trkpt lat="41.319435" lon="-6.494074">
        <ele>709.686</ele>
        <time>2015-03-31T08:26:07Z</time>
      </trkpt>
      <trkpt lat="41.319381" lon="-6.494078">
        <ele>710.120</ele>
        <time>2015-03-31T08:26:09Z</time>
      </trkpt>
      <trkpt lat="41.319311" lon="-6.494091">
        <ele>711.575</ele>
        <time>2015-03-31T08:26:12Z</time>
      </trkpt>
      <trkpt lat="41.319267" lon="-6.494103">
        <ele>712.087</ele>
        <time>2015-03-31T08:26:14Z</time>
      </trkpt>
      <trkpt lat="41.319059" lon="-6.494268">
        <ele>713.499</ele>
        <time>2015-03-31T08:26:24Z</time>
      </trkpt>
      <trkpt lat="41.319036" lon="-6.494288">
        <ele>713.407</ele>
        <time>2015-03-31T08:26:25Z</time>
      </trkpt>
      <trkpt lat="41.318734" lon="-6.494648">
        <ele>713.927</ele>
        <time>2015-03-31T08:26:37Z</time>
      </trkpt>
      <trkpt lat="41.318459" lon="-6.494973">
        <ele>714.407</ele>
        <time>2015-03-31T08:26:48Z</time>
      </trkpt>
      <trkpt lat="41.318205" lon="-6.495212">
        <ele>716.378</ele>
        <time>2015-03-31T08:26:58Z</time>
      </trkpt>
      <trkpt lat="41.318042" lon="-6.495378">
        <ele>717.863</ele>
        <time>2015-03-31T08:27:06Z</time>
      </trkpt>
      <trkpt lat="41.317869" lon="-6.495542">
        <ele>719.718</ele>
        <time>2015-03-31T08:27:16Z</time>
      </trkpt>
      <trkpt lat="41.317850" lon="-6.495557">
        <ele>719.732</ele>
        <time>2015-03-31T08:27:17Z</time>
      </trkpt>
      <trkpt lat="41.317782" lon="-6.495648">
        <ele>719.736</ele>
        <time>2015-03-31T08:27:22Z</time>
      </trkpt>
      <trkpt lat="41.317719" lon="-6.495826">
        <ele>720.251</ele>
        <time>2015-03-31T08:27:28Z</time>
      </trkpt>
      <trkpt lat="41.317509" lon="-6.495917">
        <ele>719.733</ele>
        <time>2015-03-31T08:27:37Z</time>
      </trkpt>
      <trkpt lat="41.317484" lon="-6.495891">
        <ele>719.788</ele>
        <time>2015-03-31T08:27:44Z</time>
      </trkpt>
      <trkpt lat="41.317482" lon="-6.495892">
        <ele>719.724</ele>
        <time>2015-03-31T08:27:45Z</time>
      </trkpt>
      <trkpt lat="41.317445" lon="-6.495866">
        <ele>719.726</ele>
        <time>2015-03-31T08:27:49Z</time>
      </trkpt>
      <trkpt lat="41.317430" lon="-6.495833">
        <ele>719.707</ele>
        <time>2015-03-31T08:27:51Z</time>
      </trkpt>
      <trkpt lat="41.317423" lon="-6.495724">
        <ele>719.767</ele>
        <time>2015-03-31T08:27:56Z</time>
      </trkpt>
      <trkpt lat="41.317482" lon="-6.495584">
        <ele>719.712</ele>
        <time>2015-03-31T08:28:04Z</time>
      </trkpt>
      <trkpt lat="41.317520" lon="-6.495559">
        <ele>719.727</ele>
        <time>2015-03-31T08:28:14Z</time>
      </trkpt>
      <trkpt lat="41.317527" lon="-6.495556">
        <ele>719.731</ele>
        <time>2015-03-31T08:28:35Z</time>
      </trkpt>
      <trkpt lat="41.317529" lon="-6.495558">
        <ele>719.255</ele>
        <time>2015-03-31T08:28:57Z</time>
      </trkpt>
      <trkpt lat="41.317528" lon="-6.495548">
        <ele>719.270</ele>
        <time>2015-03-31T08:29:06Z</time>
      </trkpt>
      <trkpt lat="41.317602" lon="-6.495313">
        <ele>718.242</ele>
        <time>2015-03-31T08:29:16Z</time>
      </trkpt>
      <trkpt lat="41.317700" lon="-6.495093">
        <ele>716.898</ele>
        <time>2015-03-31T08:29:21Z</time>
      </trkpt>
      <trkpt lat="41.317884" lon="-6.494644">
        <ele>713.415</ele>
        <time>2015-03-31T08:29:29Z</time>
      </trkpt>
      <trkpt lat="41.318042" lon="-6.494251">
        <ele>710.126</ele>
        <time>2015-03-31T08:29:35Z</time>
      </trkpt>
      <trkpt lat="41.318244" lon="-6.493744">
        <ele>706.707</ele>
        <time>2015-03-31T08:29:41Z</time>
      </trkpt>
      <trkpt lat="41.318444" lon="-6.493270">
        <ele>703.338</ele>
        <time>2015-03-31T08:29:46Z</time>
      </trkpt>
      <trkpt lat="41.318631" lon="-6.492776">
        <ele>700.053</ele>
        <time>2015-03-31T08:29:51Z</time>
      </trkpt>
      <trkpt lat="41.318713" lon="-6.492354">
        <ele>697.148</ele>
        <time>2015-03-31T08:29:55Z</time>
      </trkpt>
      <trkpt lat="41.318717" lon="-6.492239">
        <ele>696.122</ele>
        <time>2015-03-31T08:29:56Z</time>
      </trkpt>
      <trkpt lat="41.318706" lon="-6.492009">
        <ele>694.286</ele>
        <time>2015-03-31T08:29:58Z</time>
      </trkpt>
      <trkpt lat="41.318687" lon="-6.491900">
        <ele>693.761</ele>
        <time>2015-03-31T08:29:59Z</time>
      </trkpt>
      <trkpt lat="41.318507" lon="-6.491154">
        <ele>694.223</ele>
        <time>2015-03-31T08:30:07Z</time>
      </trkpt>
      <trkpt lat="41.318387" lon="-6.490635">
        <ele>695.226</ele>
        <time>2015-03-31T08:30:14Z</time>
      </trkpt>
      <trkpt lat="41.318362" lon="-6.490505">
        <ele>695.247</ele>
        <time>2015-03-31T08:30:16Z</time>
      </trkpt>
      <trkpt lat="41.318332" lon="-6.490378">
        <ele>695.711</ele>
        <time>2015-03-31T08:30:18Z</time>
      </trkpt>
      <trkpt lat="41.318319" lon="-6.490312">
        <ele>695.707</ele>
        <time>2015-03-31T08:30:19Z</time>
      </trkpt>
      <trkpt lat="41.318218" lon="-6.489852">
        <ele>695.281</ele>
        <time>2015-03-31T08:30:26Z</time>
      </trkpt>
      <trkpt lat="41.318203" lon="-6.489784">
        <ele>694.786</ele>
        <time>2015-03-31T08:30:27Z</time>
      </trkpt>
      <trkpt lat="41.318133" lon="-6.489449">
        <ele>694.221</ele>
        <time>2015-03-31T08:30:32Z</time>
      </trkpt>
      <trkpt lat="41.318100" lon="-6.489313">
        <ele>694.285</ele>
        <time>2015-03-31T08:30:34Z</time>
      </trkpt>
      <trkpt lat="41.318084" lon="-6.489244">
        <ele>694.219</ele>
        <time>2015-03-31T08:30:35Z</time>
      </trkpt>
      <trkpt lat="41.318071" lon="-6.489175">
        <ele>694.244</ele>
        <time>2015-03-31T08:30:36Z</time>
      </trkpt>
      <trkpt lat="41.318053" lon="-6.489105">
        <ele>693.786</ele>
        <time>2015-03-31T08:30:37Z</time>
      </trkpt>
      <trkpt lat="41.318033" lon="-6.489031">
        <ele>693.355</ele>
        <time>2015-03-31T08:30:38Z</time>
      </trkpt>
      <trkpt lat="41.317783" lon="-6.488448">
        <ele>689.907</ele>
        <time>2015-03-31T08:30:46Z</time>
      </trkpt>
      <trkpt lat="41.317741" lon="-6.488383">
        <ele>689.917</ele>
        <time>2015-03-31T08:30:47Z</time>
      </trkpt>
      <trkpt lat="41.317592" lon="-6.488202">
        <ele>688.407</ele>
        <time>2015-03-31T08:30:50Z</time>
      </trkpt>
      <trkpt lat="41.317176" lon="-6.487891">
        <ele>685.674</ele>
        <time>2015-03-31T08:30:57Z</time>
      </trkpt>
      <trkpt lat="41.316895" lon="-6.487805">
        <ele>684.639</ele>
        <time>2015-03-31T08:31:02Z</time>
      </trkpt>
      <trkpt lat="41.316862" lon="-6.487769">
        <ele>684.194</ele>
        <time>2015-03-31T08:31:03Z</time>
      </trkpt>
      <trkpt lat="41.316836" lon="-6.487725">
        <ele>684.138</ele>
        <time>2015-03-31T08:31:04Z</time>
      </trkpt>
      <trkpt lat="41.316806" lon="-6.487698">
        <ele>684.662</ele>
        <time>2015-03-31T08:31:05Z</time>
      </trkpt>
      <trkpt lat="41.316772" lon="-6.487690">
        <ele>684.697</ele>
        <time>2015-03-31T08:31:06Z</time>
      </trkpt>
      <trkpt lat="41.316734" lon="-6.487685">
        <ele>685.139</ele>
        <time>2015-03-31T08:31:07Z</time>
      </trkpt>
      <trkpt lat="41.316556" lon="-6.487675">
        <ele>684.161</ele>
        <time>2015-03-31T08:31:11Z</time>
      </trkpt>
      <trkpt lat="41.316140" lon="-6.487643">
        <ele>685.121</ele>
        <time>2015-03-31T08:31:21Z</time>
      </trkpt>
      <trkpt lat="41.315921" lon="-6.487614">
        <ele>685.613</ele>
        <time>2015-03-31T08:31:29Z</time>
      </trkpt>
      <trkpt lat="41.315694" lon="-6.487579">
        <ele>685.107</ele>
        <time>2015-03-31T08:31:37Z</time>
      </trkpt>
      <trkpt lat="41.315583" lon="-6.487548">
        <ele>684.195</ele>
        <time>2015-03-31T08:31:40Z</time>
      </trkpt>
      <trkpt lat="41.315212" lon="-6.487493">
        <ele>681.730</ele>
        <time>2015-03-31T08:31:50Z</time>
      </trkpt>
      <trkpt lat="41.314979" lon="-6.487516">
        <ele>678.835</ele>
        <time>2015-03-31T08:31:56Z</time>
      </trkpt>
      <trkpt lat="41.314939" lon="-6.487520">
        <ele>678.459</ele>
        <time>2015-03-31T08:31:57Z</time>
      </trkpt>
      <trkpt lat="41.314864" lon="-6.487531">
        <ele>677.923</ele>
        <time>2015-03-31T08:31:59Z</time>
      </trkpt>
      <trkpt lat="41.314824" lon="-6.487534">
        <ele>676.968</ele>
        <time>2015-03-31T08:32:00Z</time>
      </trkpt>
      <trkpt lat="41.314743" lon="-6.487527">
        <ele>676.460</ele>
        <time>2015-03-31T08:32:02Z</time>
      </trkpt>
      <trkpt lat="41.314659" lon="-6.487519">
        <ele>674.559</ele>
        <time>2015-03-31T08:32:04Z</time>
      </trkpt>
      <trkpt lat="41.314618" lon="-6.487521">
        <ele>673.503</ele>
        <time>2015-03-31T08:32:05Z</time>
      </trkpt>
      <trkpt lat="41.314575" lon="-6.487518">
        <ele>673.523</ele>
        <time>2015-03-31T08:32:06Z</time>
      </trkpt>
      <trkpt lat="41.314529" lon="-6.487511">
        <ele>672.607</ele>
        <time>2015-03-31T08:32:07Z</time>
      </trkpt>
      <trkpt lat="41.314483" lon="-6.487503">
        <ele>672.114</ele>
        <time>2015-03-31T08:32:08Z</time>
      </trkpt>
      <trkpt lat="41.314276" lon="-6.487423">
        <ele>668.719</ele>
        <time>2015-03-31T08:32:14Z</time>
      </trkpt>
      <trkpt lat="41.314099" lon="-6.487321">
        <ele>664.934</ele>
        <time>2015-03-31T08:32:20Z</time>
      </trkpt>
      <trkpt lat="41.313944" lon="-6.487284">
        <ele>664.448</ele>
        <time>2015-03-31T08:32:29Z</time>
      </trkpt>
      <trkpt lat="41.313909" lon="-6.487283">
        <ele>663.912</ele>
        <time>2015-03-31T08:32:31Z</time>
      </trkpt>
      <trkpt lat="41.313891" lon="-6.487291">
        <ele>663.537</ele>
        <time>2015-03-31T08:32:32Z</time>
      </trkpt>
      <trkpt lat="41.313825" lon="-6.487304">
        <ele>663.029</ele>
        <time>2015-03-31T08:32:36Z</time>
      </trkpt>
      <trkpt lat="41.313731" lon="-6.487320">
        <ele>662.084</ele>
        <time>2015-03-31T08:32:46Z</time>
      </trkpt>
      <trkpt lat="41.313722" lon="-6.487299">
        <ele>662.007</ele>
        <time>2015-03-31T08:33:01Z</time>
      </trkpt>
      <trkpt lat="41.313668" lon="-6.487245">
        <ele>662.017</ele>
        <time>2015-03-31T08:33:04Z</time>
      </trkpt>
      <trkpt lat="41.313632" lon="-6.487187">
        <ele>661.507</ele>
        <time>2015-03-31T08:33:06Z</time>
      </trkpt>
      <trkpt lat="41.313603" lon="-6.487170">
        <ele>661.577</ele>
        <time>2015-03-31T08:33:07Z</time>
      </trkpt>
      <trkpt lat="41.313573" lon="-6.487154">
        <ele>661.592</ele>
        <time>2015-03-31T08:33:08Z</time>
      </trkpt>
      <trkpt lat="41.313544" lon="-6.487134">
        <ele>662.047</ele>
        <time>2015-03-31T08:33:09Z</time>
      </trkpt>
      <trkpt lat="41.313513" lon="-6.487114">
        <ele>662.091</ele>
        <time>2015-03-31T08:33:10Z</time>
      </trkpt>
      <trkpt lat="41.313486" lon="-6.487096">
        <ele>662.035</ele>
        <time>2015-03-31T08:33:11Z</time>
      </trkpt>
      <trkpt lat="41.313461" lon="-6.487072">
        <ele>662.060</ele>
        <time>2015-03-31T08:33:12Z</time>
      </trkpt>
      <trkpt lat="41.313435" lon="-6.487046">
        <ele>662.572</ele>
        <time>2015-03-31T08:33:13Z</time>
      </trkpt>
      <trkpt lat="41.313414" lon="-6.487020">
        <ele>663.029</ele>
        <time>2015-03-31T08:33:14Z</time>
      </trkpt>
      <trkpt lat="41.313220" lon="-6.486783">
        <ele>664.400</ele>
        <time>2015-03-31T08:33:22Z</time>
      </trkpt>
      <trkpt lat="41.313065" lon="-6.486548">
        <ele>666.320</ele>
        <time>2015-03-31T08:33:30Z</time>
      </trkpt>
      <trkpt lat="41.312882" lon="-6.486411">
        <ele>667.807</ele>
        <time>2015-03-31T08:33:38Z</time>
      </trkpt>
      <trkpt lat="41.312765" lon="-6.486361">
        <ele>667.371</ele>
        <time>2015-03-31T08:33:43Z</time>
      </trkpt>
      <trkpt lat="41.312682" lon="-6.486329">
        <ele>666.826</ele>
        <time>2015-03-31T08:33:51Z</time>
      </trkpt>
      <trkpt lat="41.312434" lon="-6.486255">
        <ele>663.041</ele>
        <time>2015-03-31T08:34:00Z</time>
      </trkpt>
      <trkpt lat="41.312398" lon="-6.486241">
        <ele>666.355</ele>
        <time>2015-03-31T08:34:01Z</time>
      </trkpt>
      <trkpt lat="41.312255" lon="-6.486194">
        <ele>664.479</ele>
        <time>2015-03-31T08:34:08Z</time>
      </trkpt>
      <trkpt lat="41.312243" lon="-6.486193">
        <ele>664.484</ele>
        <time>2015-03-31T08:34:09Z</time>
      </trkpt>
      <trkpt lat="41.312020" lon="-6.486210">
        <ele>662.036</ele>
        <time>2015-03-31T08:34:17Z</time>
      </trkpt>
      <trkpt lat="41.311980" lon="-6.486207">
        <ele>662.065</ele>
        <time>2015-03-31T08:34:18Z</time>
      </trkpt>
      <trkpt lat="41.311600" lon="-6.486125">
        <ele>660.168</ele>
        <time>2015-03-31T08:34:28Z</time>
      </trkpt>
      <trkpt lat="41.311428" lon="-6.486051">
        <ele>658.214</ele>
        <time>2015-03-31T08:34:33Z</time>
      </trkpt>
      <trkpt lat="41.311185" lon="-6.485882">
        <ele>654.807</ele>
        <time>2015-03-31T08:34:41Z</time>
      </trkpt>
      <trkpt lat="41.311006" lon="-6.485623">
        <ele>652.985</ele>
        <time>2015-03-31T08:34:49Z</time>
      </trkpt>
      <trkpt lat="41.310798" lon="-6.485272">
        <ele>651.050</ele>
        <time>2015-03-31T08:34:58Z</time>
      </trkpt>
      <trkpt lat="41.310769" lon="-6.485167">
        <ele>650.055</ele>
        <time>2015-03-31T08:35:00Z</time>
      </trkpt>
      <trkpt lat="41.310788" lon="-6.484962">
        <ele>648.649</ele>
        <time>2015-03-31T08:35:05Z</time>
      </trkpt>
      <trkpt lat="41.310748" lon="-6.484763">
        <ele>646.133</ele>
        <time>2015-03-31T08:35:10Z</time>
      </trkpt>
      <trkpt lat="41.310686" lon="-6.484261">
        <ele>644.738</ele>
        <time>2015-03-31T08:35:21Z</time>
      </trkpt>
      <trkpt lat="41.310699" lon="-6.484211">
        <ele>644.780</ele>
        <time>2015-03-31T08:35:22Z</time>
      </trkpt>
      <trkpt lat="41.310709" lon="-6.484155">
        <ele>644.279</ele>
        <time>2015-03-31T08:35:23Z</time>
      </trkpt>
      <trkpt lat="41.310722" lon="-6.484102">
        <ele>644.205</ele>
        <time>2015-03-31T08:35:24Z</time>
      </trkpt>
      <trkpt lat="41.310740" lon="-6.484056">
        <ele>643.725</ele>
        <time>2015-03-31T08:35:25Z</time>
      </trkpt>
      <trkpt lat="41.310756" lon="-6.484007">
        <ele>643.707</ele>
        <time>2015-03-31T08:35:26Z</time>
      </trkpt>
      <trkpt lat="41.310768" lon="-6.483955">
        <ele>643.396</ele>
        <time>2015-03-31T08:35:27Z</time>
      </trkpt>
      <trkpt lat="41.310777" lon="-6.483903">
        <ele>643.381</ele>
        <time>2015-03-31T08:35:28Z</time>
      </trkpt>
      <trkpt lat="41.310779" lon="-6.483851">
        <ele>643.346</ele>
        <time>2015-03-31T08:35:29Z</time>
      </trkpt>
      <trkpt lat="41.310774" lon="-6.483797">
        <ele>642.860</ele>
        <time>2015-03-31T08:35:30Z</time>
      </trkpt>
      <trkpt lat="41.310773" lon="-6.483741">
        <ele>642.844</ele>
        <time>2015-03-31T08:35:31Z</time>
      </trkpt>
      <trkpt lat="41.310771" lon="-6.483685">
        <ele>641.869</ele>
        <time>2015-03-31T08:35:32Z</time>
      </trkpt>
      <trkpt lat="41.310769" lon="-6.483446">
        <ele>639.941</ele>
        <time>2015-03-31T08:35:36Z</time>
      </trkpt>
      <trkpt lat="41.310765" lon="-6.483386">
        <ele>639.467</ele>
        <time>2015-03-31T08:35:37Z</time>
      </trkpt>
      <trkpt lat="41.310763" lon="-6.483328">
        <ele>639.481</ele>
        <time>2015-03-31T08:35:38Z</time>
      </trkpt>
      <trkpt lat="41.310761" lon="-6.483269">
        <ele>638.919</ele>
        <time>2015-03-31T08:35:39Z</time>
      </trkpt>
      <trkpt lat="41.310759" lon="-6.483210">
        <ele>638.507</ele>
        <time>2015-03-31T08:35:40Z</time>
      </trkpt>
      <trkpt lat="41.310718" lon="-6.482822">
        <ele>635.185</ele>
        <time>2015-03-31T08:35:47Z</time>
      </trkpt>
      <trkpt lat="41.310660" lon="-6.482636">
        <ele>632.230</ele>
        <time>2015-03-31T08:35:51Z</time>
      </trkpt>
      <trkpt lat="41.310579" lon="-6.482421">
        <ele>626.955</ele>
        <time>2015-03-31T08:35:56Z</time>
      </trkpt>
      <trkpt lat="41.310561" lon="-6.482388">
        <ele>631.749</ele>
        <time>2015-03-31T08:35:57Z</time>
      </trkpt>
      <trkpt lat="41.310529" lon="-6.482331">
        <ele>628.853</ele>
        <time>2015-03-31T08:35:59Z</time>
      </trkpt>
      <trkpt lat="41.310394" lon="-6.482112">
        <ele>626.038</ele>
        <time>2015-03-31T08:36:08Z</time>
      </trkpt>
      <trkpt lat="41.310159" lon="-6.481974">
        <ele>624.080</ele>
        <time>2015-03-31T08:36:16Z</time>
      </trkpt>
      <trkpt lat="41.309982" lon="-6.481928">
        <ele>623.166</ele>
        <time>2015-03-31T08:36:21Z</time>
      </trkpt>
      <trkpt lat="41.309944" lon="-6.481897">
        <ele>622.629</ele>
        <time>2015-03-31T08:36:22Z</time>
      </trkpt>
      <trkpt lat="41.309769" lon="-6.481737">
        <ele>621.221</ele>
        <time>2015-03-31T08:36:27Z</time>
      </trkpt>
      <trkpt lat="41.309736" lon="-6.481712">
        <ele>621.207</ele>
        <time>2015-03-31T08:36:28Z</time>
      </trkpt>
      <trkpt lat="41.309705" lon="-6.481685">
        <ele>620.795</ele>
        <time>2015-03-31T08:36:29Z</time>
      </trkpt>
      <trkpt lat="41.309676" lon="-6.481664">
        <ele>620.710</ele>
        <time>2015-03-31T08:36:30Z</time>
      </trkpt>
      <trkpt lat="41.309650" lon="-6.481642">
        <ele>620.295</ele>
        <time>2015-03-31T08:36:31Z</time>
      </trkpt>
      <trkpt lat="41.309625" lon="-6.481619">
        <ele>620.259</ele>
        <time>2015-03-31T08:36:32Z</time>
      </trkpt>
      <trkpt lat="41.309503" lon="-6.481502">
        <ele>619.243</ele>
        <time>2015-03-31T08:36:39Z</time>
      </trkpt>
      <trkpt lat="41.309368" lon="-6.481347">
        <ele>615.968</ele>
        <time>2015-03-31T08:36:45Z</time>
      </trkpt>
      <trkpt lat="41.309211" lon="-6.481195">
        <ele>613.070</ele>
        <time>2015-03-31T08:36:52Z</time>
      </trkpt>
      <trkpt lat="41.309147" lon="-6.481163">
        <ele>612.033</ele>
        <time>2015-03-31T08:36:55Z</time>
      </trkpt>
      <trkpt lat="41.309136" lon="-6.481146">
        <ele>610.623</ele>
        <time>2015-03-31T08:36:56Z</time>
      </trkpt>
      <trkpt lat="41.309126" lon="-6.481122">
        <ele>613.015</ele>
        <time>2015-03-31T08:36:57Z</time>
      </trkpt>
      <trkpt lat="41.309115" lon="-6.481096">
        <ele>612.007</ele>
        <time>2015-03-31T08:36:58Z</time>
      </trkpt>
      <trkpt lat="41.309104" lon="-6.481068">
        <ele>612.012</ele>
        <time>2015-03-31T08:36:59Z</time>
      </trkpt>
      <trkpt lat="41.309094" lon="-6.481040">
        <ele>612.057</ele>
        <time>2015-03-31T08:37:00Z</time>
      </trkpt>
      <trkpt lat="41.309086" lon="-6.481023">
        <ele>612.062</ele>
        <time>2015-03-31T08:37:07Z</time>
      </trkpt>
      <trkpt lat="41.309097" lon="-6.481016">
        <ele>612.586</ele>
        <time>2015-03-31T08:37:25Z</time>
      </trkpt>
      <trkpt lat="41.309099" lon="-6.481015">
        <ele>607.770</ele>
        <time>2015-03-31T08:37:31Z</time>
      </trkpt>
      <trkpt lat="41.309099" lon="-6.481016">
        <ele>616.355</ele>
        <time>2015-03-31T08:37:32Z</time>
      </trkpt>
      <trkpt lat="41.309099" lon="-6.481016">
        <ele>613.017</ele>
        <time>2015-03-31T08:37:33Z</time>
      </trkpt>
      <trkpt lat="41.309057" lon="-6.480898">
        <ele>612.032</ele>
        <time>2015-03-31T08:37:45Z</time>
      </trkpt>
      <trkpt lat="41.309003" lon="-6.480797">
        <ele>612.092</ele>
        <time>2015-03-31T08:37:54Z</time>
      </trkpt>
      <trkpt lat="41.308996" lon="-6.480800">
        <ele>612.011</ele>
        <time>2015-03-31T08:38:14Z</time>
      </trkpt>
      <trkpt lat="41.308996" lon="-6.480806">
        <ele>613.507</ele>
        <time>2015-03-31T08:38:39Z</time>
      </trkpt>
      <trkpt lat="41.308993" lon="-6.480768">
        <ele>613.082</ele>
        <time>2015-03-31T08:38:56Z</time>
      </trkpt>
      <trkpt lat="41.308925" lon="-6.480592">
        <ele>612.057</ele>
        <time>2015-03-31T08:39:05Z</time>
      </trkpt>
      <trkpt lat="41.308805" lon="-6.480253">
        <ele>612.042</ele>
        <time>2015-03-31T08:39:15Z</time>
      </trkpt>
      <trkpt lat="41.308624" lon="-6.479791">
        <ele>611.166</ele>
        <time>2015-03-31T08:39:26Z</time>
      </trkpt>
      <trkpt lat="41.308546" lon="-6.479619">
        <ele>610.630</ele>
        <time>2015-03-31T08:39:30Z</time>
      </trkpt>
      <trkpt lat="41.308522" lon="-6.479574">
        <ele>610.145</ele>
        <time>2015-03-31T08:39:31Z</time>
      </trkpt>
      <trkpt lat="41.308499" lon="-6.479526">
        <ele>610.197</ele>
        <time>2015-03-31T08:39:32Z</time>
      </trkpt>
      <trkpt lat="41.308477" lon="-6.479475">
        <ele>609.668</ele>
        <time>2015-03-31T08:39:33Z</time>
      </trkpt>
      <trkpt lat="41.308453" lon="-6.479421">
        <ele>609.642</ele>
        <time>2015-03-31T08:39:34Z</time>
      </trkpt>
      <trkpt lat="41.308305" lon="-6.479047">
        <ele>606.726</ele>
        <time>2015-03-31T08:39:40Z</time>
      </trkpt>
      <trkpt lat="41.308294" lon="-6.478982">
        <ele>606.307</ele>
        <time>2015-03-31T08:39:41Z</time>
      </trkpt>
      <trkpt lat="41.308290" lon="-6.478917">
        <ele>606.355</ele>
        <time>2015-03-31T08:39:42Z</time>
      </trkpt>
      <trkpt lat="41.308294" lon="-6.478849">
        <ele>605.370</ele>
        <time>2015-03-31T08:39:43Z</time>
      </trkpt>
      <trkpt lat="41.308306" lon="-6.478783">
        <ele>604.815</ele>
        <time>2015-03-31T08:39:44Z</time>
      </trkpt>
      <trkpt lat="41.308327" lon="-6.478718">
        <ele>604.329</ele>
        <time>2015-03-31T08:39:45Z</time>
      </trkpt>
      <trkpt lat="41.308355" lon="-6.478663">
        <ele>603.983</ele>
        <time>2015-03-31T08:39:46Z</time>
      </trkpt>
      <trkpt lat="41.308390" lon="-6.478616">
        <ele>603.438</ele>
        <time>2015-03-31T08:39:47Z</time>
      </trkpt>
      <trkpt lat="41.308426" lon="-6.478574">
        <ele>602.980</ele>
        <time>2015-03-31T08:39:48Z</time>
      </trkpt>
      <trkpt lat="41.308491" lon="-6.478503">
        <ele>601.432</ele>
        <time>2015-03-31T08:39:50Z</time>
      </trkpt>
      <trkpt lat="41.308623" lon="-6.478145">
        <ele>599.092</ele>
        <time>2015-03-31T08:39:58Z</time>
      </trkpt>
      <trkpt lat="41.308628" lon="-6.478091">
        <ele>598.611</ele>
        <time>2015-03-31T08:39:59Z</time>
      </trkpt>
      <trkpt lat="41.308632" lon="-6.478034">
        <ele>598.107</ele>
        <time>2015-03-31T08:40:00Z</time>
      </trkpt>
      <trkpt lat="41.308634" lon="-6.477973">
        <ele>597.692</ele>
        <time>2015-03-31T08:40:01Z</time>
      </trkpt>
      <trkpt lat="41.308613" lon="-6.477762">
        <ele>596.247</ele>
        <time>2015-03-31T08:40:04Z</time>
      </trkpt>
      <trkpt lat="41.308594" lon="-6.477693">
        <ele>596.242</ele>
        <time>2015-03-31T08:40:05Z</time>
      </trkpt>
      <trkpt lat="41.308567" lon="-6.477628">
        <ele>595.736</ele>
        <time>2015-03-31T08:40:06Z</time>
      </trkpt>
      <trkpt lat="41.308538" lon="-6.477567">
        <ele>594.790</ele>
        <time>2015-03-31T08:40:07Z</time>
      </trkpt>
      <trkpt lat="41.308512" lon="-6.477506">
        <ele>594.285</ele>
        <time>2015-03-31T08:40:08Z</time>
      </trkpt>
      <trkpt lat="41.308486" lon="-6.477446">
        <ele>594.267</ele>
        <time>2015-03-31T08:40:09Z</time>
      </trkpt>
      <trkpt lat="41.308432" lon="-6.477322">
        <ele>593.852</ele>
        <time>2015-03-31T08:40:11Z</time>
      </trkpt>
      <trkpt lat="41.308348" lon="-6.477145">
        <ele>592.353</ele>
        <time>2015-03-31T08:40:14Z</time>
      </trkpt>
      <trkpt lat="41.308315" lon="-6.477101">
        <ele>591.808</ele>
        <time>2015-03-31T08:40:15Z</time>
      </trkpt>
      <trkpt lat="41.308276" lon="-6.477066">
        <ele>591.807</ele>
        <time>2015-03-31T08:40:16Z</time>
      </trkpt>
      <trkpt lat="41.308233" lon="-6.477043">
        <ele>591.484</ele>
        <time>2015-03-31T08:40:17Z</time>
      </trkpt>
      <trkpt lat="41.308197" lon="-6.477031">
        <ele>591.469</ele>
        <time>2015-03-31T08:40:18Z</time>
      </trkpt>
      <trkpt lat="41.308178" lon="-6.477026">
        <ele>590.964</ele>
        <time>2015-03-31T08:40:19Z</time>
      </trkpt>
      <trkpt lat="41.308153" lon="-6.477033">
        <ele>590.998</ele>
        <time>2015-03-31T08:40:29Z</time>
      </trkpt>
      <trkpt lat="41.308147" lon="-6.477016">
        <ele>590.912</ele>
        <time>2015-03-31T08:40:36Z</time>
      </trkpt>
      <trkpt lat="41.308147" lon="-6.476999">
        <ele>590.997</ele>
        <time>2015-03-31T08:40:37Z</time>
      </trkpt>
      <trkpt lat="41.308152" lon="-6.476981">
        <ele>590.999</ele>
        <time>2015-03-31T08:40:38Z</time>
      </trkpt>
      <trkpt lat="41.308162" lon="-6.476969">
        <ele>590.947</ele>
        <time>2015-03-31T08:40:39Z</time>
      </trkpt>
      <trkpt lat="41.308174" lon="-6.476960">
        <ele>590.929</ele>
        <time>2015-03-31T08:40:40Z</time>
      </trkpt>
      <trkpt lat="41.308194" lon="-6.476954">
        <ele>590.921</ele>
        <time>2015-03-31T08:40:42Z</time>
      </trkpt>
      <trkpt lat="41.308202" lon="-6.476967">
        <ele>590.907</ele>
        <time>2015-03-31T08:40:43Z</time>
      </trkpt>
      <trkpt lat="41.308200" lon="-6.476984">
        <ele>591.443</ele>
        <time>2015-03-31T08:40:44Z</time>
      </trkpt>
      <trkpt lat="41.308189" lon="-6.476998">
        <ele>591.468</ele>
        <time>2015-03-31T08:40:45Z</time>
      </trkpt>
      <trkpt lat="41.308173" lon="-6.477006">
        <ele>590.943</ele>
        <time>2015-03-31T08:40:46Z</time>
      </trkpt>
      <trkpt lat="41.308150" lon="-6.477013">
        <ele>590.917</ele>
        <time>2015-03-31T08:40:47Z</time>
      </trkpt>
      <trkpt lat="41.308122" lon="-6.477024">
        <ele>590.471</ele>
        <time>2015-03-31T08:40:48Z</time>
      </trkpt>
      <trkpt lat="41.307889" lon="-6.477263">
        <ele>589.416</ele>
        <time>2015-03-31T08:40:57Z</time>
      </trkpt>
      <trkpt lat="41.307709" lon="-6.477398">
        <ele>586.548</ele>
        <time>2015-03-31T08:41:04Z</time>
      </trkpt>
      <trkpt lat="41.307500" lon="-6.477369">
        <ele>583.235</ele>
        <time>2015-03-31T08:41:09Z</time>
      </trkpt>
      <trkpt lat="41.307451" lon="-6.477363">
        <ele>582.286</ele>
        <time>2015-03-31T08:41:10Z</time>
      </trkpt>
      <trkpt lat="41.307401" lon="-6.477360">
        <ele>581.314</ele>
        <time>2015-03-31T08:41:11Z</time>
      </trkpt>
      <trkpt lat="41.307349" lon="-6.477357">
        <ele>580.807</ele>
        <time>2015-03-31T08:41:12Z</time>
      </trkpt>
      <trkpt lat="41.307295" lon="-6.477360">
        <ele>579.842</ele>
        <time>2015-03-31T08:41:13Z</time>
      </trkpt>
      <trkpt lat="41.307246" lon="-6.477363">
        <ele>579.377</ele>
        <time>2015-03-31T08:41:14Z</time>
      </trkpt>
      <trkpt lat="41.307197" lon="-6.477363">
        <ele>579.322</ele>
        <time>2015-03-31T08:41:15Z</time>
      </trkpt>
      <trkpt lat="41.306880" lon="-6.477351">
        <ele>575.566</ele>
        <time>2015-03-31T08:41:22Z</time>
      </trkpt>
      <trkpt lat="41.306790" lon="-6.477328">
        <ele>573.690</ele>
        <time>2015-03-31T08:41:24Z</time>
      </trkpt>
      <trkpt lat="41.306744" lon="-6.477307">
        <ele>572.645</ele>
        <time>2015-03-31T08:41:25Z</time>
      </trkpt>
      <trkpt lat="41.306698" lon="-6.477284">
        <ele>571.657</ele>
        <time>2015-03-31T08:41:26Z</time>
      </trkpt>
      <trkpt lat="41.306653" lon="-6.477261">
        <ele>570.737</ele>
        <time>2015-03-31T08:41:27Z</time>
      </trkpt>
      <trkpt lat="41.306614" lon="-6.477234">
        <ele>570.249</ele>
        <time>2015-03-31T08:41:28Z</time>
      </trkpt>
      <trkpt lat="41.306421" lon="-6.477101">
        <ele>566.813</ele>
        <time>2015-03-31T08:41:33Z</time>
      </trkpt>
      <trkpt lat="41.306330" lon="-6.477085">
        <ele>565.907</ele>
        <time>2015-03-31T08:41:36Z</time>
      </trkpt>
      <trkpt lat="41.306300" lon="-6.477102">
        <ele>565.482</ele>
        <time>2015-03-31T08:41:37Z</time>
      </trkpt>
      <trkpt lat="41.306271" lon="-6.477117">
        <ele>565.467</ele>
        <time>2015-03-31T08:41:38Z</time>
      </trkpt>
      <trkpt lat="41.306226" lon="-6.477135">
        <ele>565.452</ele>
        <time>2015-03-31T08:41:44Z</time>
      </trkpt>
      <trkpt lat="41.306225" lon="-6.477126">
        <ele>565.416</ele>
        <time>2015-03-31T08:42:12Z</time>
      </trkpt>
      <trkpt lat="41.306222" lon="-6.477125">
        <ele>565.430</ele>
        <time>2015-03-31T08:42:36Z</time>
      </trkpt>
      <trkpt lat="41.306228" lon="-6.477128">
        <ele>562.035</ele>
        <time>2015-03-31T08:42:57Z</time>
      </trkpt>
      <trkpt lat="41.306228" lon="-6.477128">
        <ele>566.457</ele>
        <time>2015-03-31T08:42:58Z</time>
      </trkpt>
      <trkpt lat="41.306223" lon="-6.477123">
        <ele>564.926</ele>
        <time>2015-03-31T08:43:14Z</time>
      </trkpt>
      <trkpt lat="41.306220" lon="-6.477123">
        <ele>565.447</ele>
        <time>2015-03-31T08:43:35Z</time>
      </trkpt>
      <trkpt lat="41.306220" lon="-6.477125">
        <ele>565.411</ele>
        <time>2015-03-31T08:43:55Z</time>
      </trkpt>
      <trkpt lat="41.306223" lon="-6.477119">
        <ele>565.407</ele>
        <time>2015-03-31T08:44:11Z</time>
      </trkpt>
      <trkpt lat="41.306229" lon="-6.477121">
        <ele>565.411</ele>
        <time>2015-03-31T08:44:32Z</time>
      </trkpt>
      <trkpt lat="41.306227" lon="-6.477116">
        <ele>565.476</ele>
        <time>2015-03-31T08:44:49Z</time>
      </trkpt>
      <trkpt lat="41.306230" lon="-6.477110">
        <ele>558.751</ele>
        <time>2015-03-31T08:45:02Z</time>
      </trkpt>
      <trkpt lat="41.306230" lon="-6.477109">
        <ele>569.215</ele>
        <time>2015-03-31T08:45:03Z</time>
      </trkpt>
      <trkpt lat="41.306230" lon="-6.477109">
        <ele>565.999</ele>
        <time>2015-03-31T08:45:04Z</time>
      </trkpt>
      <trkpt lat="41.306229" lon="-6.477112">
        <ele>563.064</ele>
        <time>2015-03-31T08:45:16Z</time>
      </trkpt>
      <trkpt lat="41.306229" lon="-6.477113">
        <ele>565.916</ele>
        <time>2015-03-31T08:45:19Z</time>
      </trkpt>
      <trkpt lat="41.306228" lon="-6.477120">
        <ele>565.491</ele>
        <time>2015-03-31T08:45:41Z</time>
      </trkpt>
      <trkpt lat="41.306225" lon="-6.477123">
        <ele>565.481</ele>
        <time>2015-03-31T08:46:04Z</time>
      </trkpt>
      <trkpt lat="41.306215" lon="-6.477139">
        <ele>565.419</ele>
        <time>2015-03-31T08:46:05Z</time>
      </trkpt>
      <trkpt lat="41.306208" lon="-6.477166">
        <ele>565.407</ele>
        <time>2015-03-31T08:46:06Z</time>
      </trkpt>
      <trkpt lat="41.306201" lon="-6.477199">
        <ele>564.958</ele>
        <time>2015-03-31T08:46:07Z</time>
      </trkpt>
      <trkpt lat="41.306190" lon="-6.477234">
        <ele>564.953</ele>
        <time>2015-03-31T08:46:08Z</time>
      </trkpt>
      <trkpt lat="41.306177" lon="-6.477275">
        <ele>564.028</ele>
        <time>2015-03-31T08:46:09Z</time>
      </trkpt>
      <trkpt lat="41.306172" lon="-6.477322">
        <ele>563.522</ele>
        <time>2015-03-31T08:46:10Z</time>
      </trkpt>
      <trkpt lat="41.306182" lon="-6.477366">
        <ele>563.586</ele>
        <time>2015-03-31T08:46:11Z</time>
      </trkpt>
      <trkpt lat="41.306207" lon="-6.477403">
        <ele>563.091</ele>
        <time>2015-03-31T08:46:12Z</time>
      </trkpt>
      <trkpt lat="41.306236" lon="-6.477435">
        <ele>563.013</ele>
        <time>2015-03-31T08:46:13Z</time>
      </trkpt>
      <trkpt lat="41.306266" lon="-6.477472">
        <ele>563.049</ele>
        <time>2015-03-31T08:46:14Z</time>
      </trkpt>
      <trkpt lat="41.306293" lon="-6.477512">
        <ele>562.002</ele>
        <time>2015-03-31T08:46:15Z</time>
      </trkpt>
      <trkpt lat="41.306352" lon="-6.477612">
        <ele>561.122</ele>
        <time>2015-03-31T08:46:18Z</time>
      </trkpt>
      <trkpt lat="41.306351" lon="-6.477635">
        <ele>561.107</ele>
        <time>2015-03-31T08:46:19Z</time>
      </trkpt>
      <trkpt lat="41.306338" lon="-6.477662">
        <ele>560.673</ele>
        <time>2015-03-31T08:46:28Z</time>
      </trkpt>
      <trkpt lat="41.306344" lon="-6.477685">
        <ele>560.688</ele>
        <time>2015-03-31T08:46:29Z</time>
      </trkpt>
      <trkpt lat="41.306237" lon="-6.477737">
        <ele>559.193</ele>
        <time>2015-03-31T08:46:34Z</time>
      </trkpt>
      <trkpt lat="41.306199" lon="-6.477703">
        <ele>558.777</ele>
        <time>2015-03-31T08:46:35Z</time>
      </trkpt>
      <trkpt lat="41.306160" lon="-6.477661">
        <ele>558.721</ele>
        <time>2015-03-31T08:46:36Z</time>
      </trkpt>
      <trkpt lat="41.306115" lon="-6.477614">
        <ele>557.726</ele>
        <time>2015-03-31T08:46:37Z</time>
      </trkpt>
      <trkpt lat="41.306063" lon="-6.477568">
        <ele>556.718</ele>
        <time>2015-03-31T08:46:38Z</time>
      </trkpt>
      <trkpt lat="41.306008" lon="-6.477518">
        <ele>555.346</ele>
        <time>2015-03-31T08:46:39Z</time>
      </trkpt>
      <trkpt lat="41.305951" lon="-6.477461">
        <ele>554.388</ele>
        <time>2015-03-31T08:46:40Z</time>
      </trkpt>
      <trkpt lat="41.305679" lon="-6.477198">
        <ele>550.516</ele>
        <time>2015-03-31T08:46:44Z</time>
      </trkpt>
      <trkpt lat="41.305465" lon="-6.476957">
        <ele>547.107</ele>
        <time>2015-03-31T08:46:47Z</time>
      </trkpt>
      <trkpt lat="41.305274" lon="-6.476657">
        <ele>543.863</ele>
        <time>2015-03-31T08:46:50Z</time>
      </trkpt>
      <trkpt lat="41.305106" lon="-6.476307">
        <ele>540.418</ele>
        <time>2015-03-31T08:46:53Z</time>
      </trkpt>
      <trkpt lat="41.304925" lon="-6.475964">
        <ele>536.683</ele>
        <time>2015-03-31T08:46:56Z</time>
      </trkpt>
      <trkpt lat="41.304715" lon="-6.475681">
        <ele>533.257</ele>
        <time>2015-03-31T08:46:59Z</time>
      </trkpt>
      <trkpt lat="41.304638" lon="-6.475608">
        <ele>532.241</ele>
        <time>2015-03-31T08:47:00Z</time>
      </trkpt>
      <trkpt lat="41.304559" lon="-6.475543">
        <ele>531.366</ele>
        <time>2015-03-31T08:47:01Z</time>
      </trkpt>
      <trkpt lat="41.304482" lon="-6.475488">
        <ele>530.818</ele>
        <time>2015-03-31T08:47:02Z</time>
      </trkpt>
      <trkpt lat="41.304409" lon="-6.475437">
        <ele>530.866</ele>
        <time>2015-03-31T08:47:03Z</time>
      </trkpt>
      <trkpt lat="41.304131" lon="-6.475257">
        <ele>526.029</ele>
        <time>2015-03-31T08:47:07Z</time>
      </trkpt>
      <trkpt lat="41.303937" lon="-6.475102">
        <ele>521.221</ele>
        <time>2015-03-31T08:47:11Z</time>
      </trkpt>
      <trkpt lat="41.303903" lon="-6.475071">
        <ele>521.707</ele>
        <time>2015-03-31T08:47:12Z</time>
      </trkpt>
      <trkpt lat="41.303790" lon="-6.474944">
        <ele>521.765</ele>
        <time>2015-03-31T08:47:19Z</time>
      </trkpt>
      <trkpt lat="41.303736" lon="-6.474892">
        <ele>521.780</ele>
        <time>2015-03-31T08:47:29Z</time>
      </trkpt>
      <trkpt lat="41.303686" lon="-6.474809">
        <ele>521.235</ele>
        <time>2015-03-31T08:47:44Z</time>
      </trkpt>
      <trkpt lat="41.303441" lon="-6.474529">
        <ele>519.379</ele>
        <time>2015-03-31T08:47:53Z</time>
      </trkpt>
      <trkpt lat="41.303191" lon="-6.474356">
        <ele>518.833</ele>
        <time>2015-03-31T08:48:02Z</time>
      </trkpt>
      <trkpt lat="41.302961" lon="-6.474253">
        <ele>517.898</ele>
        <time>2015-03-31T08:48:12Z</time>
      </trkpt>
      <trkpt lat="41.302871" lon="-6.474233">
        <ele>517.330</ele>
        <time>2015-03-31T08:48:21Z</time>
      </trkpt>
      <trkpt lat="41.302866" lon="-6.474236">
        <ele>517.335</ele>
        <time>2015-03-31T08:48:38Z</time>
      </trkpt>
      <trkpt lat="41.302849" lon="-6.474227">
        <ele>516.986</ele>
        <time>2015-03-31T08:48:39Z</time>
      </trkpt>
      <trkpt lat="41.302823" lon="-6.474215">
        <ele>516.914</ele>
        <time>2015-03-31T08:48:40Z</time>
      </trkpt>
      <trkpt lat="41.302792" lon="-6.474198">
        <ele>516.407</ele>
        <time>2015-03-31T08:48:41Z</time>
      </trkpt>
      <trkpt lat="41.302759" lon="-6.474178">
        <ele>515.952</ele>
        <time>2015-03-31T08:48:42Z</time>
      </trkpt>
      <trkpt lat="41.302727" lon="-6.474161">
        <ele>514.927</ele>
        <time>2015-03-31T08:48:43Z</time>
      </trkpt>
      <trkpt lat="41.302594" lon="-6.474121">
        <ele>511.652</ele>
        <time>2015-03-31T08:48:47Z</time>
      </trkpt>
      <trkpt lat="41.302462" lon="-6.474063">
        <ele>508.286</ele>
        <time>2015-03-31T08:48:52Z</time>
      </trkpt>
      <trkpt lat="41.302390" lon="-6.473999">
        <ele>507.240</ele>
        <time>2015-03-31T08:48:57Z</time>
      </trkpt>
      <trkpt lat="41.302384" lon="-6.473993">
        <ele>506.315</ele>
        <time>2015-03-31T08:49:05Z</time>
      </trkpt>
      <trkpt lat="41.302378" lon="-6.473977">
        <ele>506.327</ele>
        <time>2015-03-31T08:49:12Z</time>
      </trkpt>
      <trkpt lat="41.302370" lon="-6.473952">
        <ele>505.867</ele>
        <time>2015-03-31T08:49:13Z</time>
      </trkpt>
      <trkpt lat="41.302360" lon="-6.473921">
        <ele>505.381</ele>
        <time>2015-03-31T08:49:14Z</time>
      </trkpt>
      <trkpt lat="41.302349" lon="-6.473882">
        <ele>504.819</ele>
        <time>2015-03-31T08:49:15Z</time>
      </trkpt>
      <trkpt lat="41.302334" lon="-6.473837">
        <ele>504.807</ele>
        <time>2015-03-31T08:49:16Z</time>
      </trkpt>
      <trkpt lat="41.302315" lon="-6.473790">
        <ele>504.425</ele>
        <time>2015-03-31T08:49:17Z</time>
      </trkpt>
      <trkpt lat="41.302302" lon="-6.473739">
        <ele>503.920</ele>
        <time>2015-03-31T08:49:18Z</time>
      </trkpt>
      <trkpt lat="41.302298" lon="-6.473692">
        <ele>503.935</ele>
        <time>2015-03-31T08:49:19Z</time>
      </trkpt>
      <trkpt lat="41.302307" lon="-6.473653">
        <ele>503.419</ele>
        <time>2015-03-31T08:49:20Z</time>
      </trkpt>
      <trkpt lat="41.302323" lon="-6.473631">
        <ele>503.473</ele>
        <time>2015-03-31T08:49:21Z</time>
      </trkpt>
      <trkpt lat="41.302333" lon="-6.473620">
        <ele>498.178</ele>
        <time>2015-03-31T08:49:27Z</time>
      </trkpt>
      <trkpt lat="41.302332" lon="-6.473621">
        <ele>506.830</ele>
        <time>2015-03-31T08:49:28Z</time>
      </trkpt>
      <trkpt lat="41.302332" lon="-6.473623">
        <ele>503.458</ele>
        <time>2015-03-31T08:49:29Z</time>
      </trkpt>
      <trkpt lat="41.302331" lon="-6.473632">
        <ele>502.952</ele>
        <time>2015-03-31T08:49:45Z</time>
      </trkpt>
      <trkpt lat="41.302333" lon="-6.473633">
        <ele>500.017</ele>
        <time>2015-03-31T08:49:50Z</time>
      </trkpt>
      <trkpt lat="41.302333" lon="-6.473633">
        <ele>506.307</ele>
        <time>2015-03-31T08:49:51Z</time>
      </trkpt>
      <trkpt lat="41.302333" lon="-6.473634">
        <ele>502.984</ele>
        <time>2015-03-31T08:49:52Z</time>
      </trkpt>
      <trkpt lat="41.302336" lon="-6.473626">
        <ele>503.449</ele>
        <time>2015-03-31T08:50:06Z</time>
      </trkpt>
      <trkpt lat="41.302337" lon="-6.473624">
        <ele>502.984</ele>
        <time>2015-03-31T08:50:25Z</time>
      </trkpt>
      <trkpt lat="41.302320" lon="-6.473628">
        <ele>503.448</ele>
        <time>2015-03-31T08:50:32Z</time>
      </trkpt>
      <trkpt lat="41.302283" lon="-6.473676">
        <ele>503.962</ele>
        <time>2015-03-31T08:50:38Z</time>
      </trkpt>
      <trkpt lat="41.302277" lon="-6.473694">
        <ele>503.967</ele>
        <time>2015-03-31T08:50:39Z</time>
      </trkpt>
      <trkpt lat="41.302277" lon="-6.473711">
        <ele>503.989</ele>
        <time>2015-03-31T08:50:40Z</time>
      </trkpt>
      <trkpt lat="41.302280" lon="-6.473727">
        <ele>503.991</ele>
        <time>2015-03-31T08:50:41Z</time>
      </trkpt>
      <trkpt lat="41.302283" lon="-6.473742">
        <ele>503.981</ele>
        <time>2015-03-31T08:50:42Z</time>
      </trkpt>
      <trkpt lat="41.302288" lon="-6.473759">
        <ele>503.919</ele>
        <time>2015-03-31T08:50:43Z</time>
      </trkpt>
      <trkpt lat="41.302322" lon="-6.473840">
        <ele>504.407</ele>
        <time>2015-03-31T08:50:48Z</time>
      </trkpt>
      <trkpt lat="41.302330" lon="-6.473859">
        <ele>504.448</ele>
        <time>2015-03-31T08:50:49Z</time>
      </trkpt>
      <trkpt lat="41.302352" lon="-6.473904">
        <ele>504.883</ele>
        <time>2015-03-31T08:50:52Z</time>
      </trkpt>
      <trkpt lat="41.302359" lon="-6.473917">
        <ele>505.368</ele>
        <time>2015-03-31T08:50:53Z</time>
      </trkpt>
      <trkpt lat="41.302363" lon="-6.473935">
        <ele>505.362</ele>
        <time>2015-03-31T08:50:54Z</time>
      </trkpt>
      <trkpt lat="41.302367" lon="-6.473956">
        <ele>505.316</ele>
        <time>2015-03-31T08:50:55Z</time>
      </trkpt>
      <trkpt lat="41.302376" lon="-6.473975">
        <ele>505.881</ele>
        <time>2015-03-31T08:50:56Z</time>
      </trkpt>
      <trkpt lat="41.302412" lon="-6.474017">
        <ele>506.393</ele>
        <time>2015-03-31T08:51:00Z</time>
      </trkpt>
      <trkpt lat="41.302440" lon="-6.474020">
        <ele>506.848</ele>
        <time>2015-03-31T08:51:02Z</time>
      </trkpt>
      <trkpt lat="41.302450" lon="-6.474030">
        <ele>507.261</ele>
        <time>2015-03-31T08:51:03Z</time>
      </trkpt>
      <trkpt lat="41.302531" lon="-6.474103">
        <ele>509.617</ele>
        <time>2015-03-31T08:51:11Z</time>
      </trkpt>
      <trkpt lat="41.302580" lon="-6.474113">
        <ele>510.107</ele>
        <time>2015-03-31T08:51:15Z</time>
      </trkpt>
      <trkpt lat="41.302593" lon="-6.474110">
        <ele>510.673</ele>
        <time>2015-03-31T08:51:16Z</time>
      </trkpt>
      <trkpt lat="41.302606" lon="-6.474109">
        <ele>511.118</ele>
        <time>2015-03-31T08:51:17Z</time>
      </trkpt>
      <trkpt lat="41.302702" lon="-6.474133">
        <ele>513.053</ele>
        <time>2015-03-31T08:51:24Z</time>
      </trkpt>
      <trkpt lat="41.302713" lon="-6.474141">
        <ele>513.587</ele>
        <time>2015-03-31T08:51:25Z</time>
      </trkpt>
      <trkpt lat="41.302741" lon="-6.474155">
        <ele>514.481</ele>
        <time>2015-03-31T08:51:28Z</time>
      </trkpt>
      <trkpt lat="41.302787" lon="-6.474184">
        <ele>514.946</ele>
        <time>2015-03-31T08:51:32Z</time>
      </trkpt>
      <trkpt lat="41.302801" lon="-6.474184">
        <ele>515.428</ele>
        <time>2015-03-31T08:51:33Z</time>
      </trkpt>
      <trkpt lat="41.302815" lon="-6.474186">
        <ele>515.481</ele>
        <time>2015-03-31T08:51:34Z</time>
      </trkpt>
      <trkpt lat="41.302830" lon="-6.474191">
        <ele>515.461</ele>
        <time>2015-03-31T08:51:35Z</time>
      </trkpt>
      <trkpt lat="41.302848" lon="-6.474197">
        <ele>515.917</ele>
        <time>2015-03-31T08:51:37Z</time>
      </trkpt>
      <trkpt lat="41.302859" lon="-6.474204">
        <ele>516.407</ele>
        <time>2015-03-31T08:51:38Z</time>
      </trkpt>
      <trkpt lat="41.302874" lon="-6.474209">
        <ele>516.497</ele>
        <time>2015-03-31T08:51:39Z</time>
      </trkpt>
      <trkpt lat="41.302886" lon="-6.474211">
        <ele>516.422</ele>
        <time>2015-03-31T08:51:40Z</time>
      </trkpt>
      <trkpt lat="41.302899" lon="-6.474214">
        <ele>516.937</ele>
        <time>2015-03-31T08:51:41Z</time>
      </trkpt>
      <trkpt lat="41.302910" lon="-6.474222">
        <ele>516.981</ele>
        <time>2015-03-31T08:51:42Z</time>
      </trkpt>
      <trkpt lat="41.302922" lon="-6.474230">
        <ele>516.995</ele>
        <time>2015-03-31T08:51:43Z</time>
      </trkpt>
      <trkpt lat="41.302936" lon="-6.474235">
        <ele>514.950</ele>
        <time>2015-03-31T08:51:44Z</time>
      </trkpt>
      <trkpt lat="41.302947" lon="-6.474237">
        <ele>523.612</ele>
        <time>2015-03-31T08:51:45Z</time>
      </trkpt>
      <trkpt lat="41.302958" lon="-6.474242">
        <ele>517.813</ele>
        <time>2015-03-31T08:51:46Z</time>
      </trkpt>
      <trkpt lat="41.302971" lon="-6.474244">
        <ele>517.843</ele>
        <time>2015-03-31T08:51:47Z</time>
      </trkpt>
      <trkpt lat="41.302984" lon="-6.474248">
        <ele>515.907</ele>
        <time>2015-03-31T08:51:48Z</time>
      </trkpt>
      <trkpt lat="41.302996" lon="-6.474252">
        <ele>519.707</ele>
        <time>2015-03-31T08:51:49Z</time>
      </trkpt>
      <trkpt lat="41.303009" lon="-6.474257">
        <ele>517.810</ele>
        <time>2015-03-31T08:51:50Z</time>
      </trkpt>
      <trkpt lat="41.303022" lon="-6.474262">
        <ele>516.945</ele>
        <time>2015-03-31T08:51:51Z</time>
      </trkpt>
      <trkpt lat="41.303034" lon="-6.474267">
        <ele>518.350</ele>
        <time>2015-03-31T08:51:52Z</time>
      </trkpt>
      <trkpt lat="41.303048" lon="-6.474271">
        <ele>517.834</ele>
        <time>2015-03-31T08:51:53Z</time>
      </trkpt>
      <trkpt lat="41.303062" lon="-6.474273">
        <ele>516.918</ele>
        <time>2015-03-31T08:51:54Z</time>
      </trkpt>
      <trkpt lat="41.303076" lon="-6.474276">
        <ele>518.343</ele>
        <time>2015-03-31T08:51:55Z</time>
      </trkpt>
      <trkpt lat="41.303090" lon="-6.474279">
        <ele>517.875</ele>
        <time>2015-03-31T08:51:56Z</time>
      </trkpt>
      <trkpt lat="41.303103" lon="-6.474285">
        <ele>517.822</ele>
        <time>2015-03-31T08:51:57Z</time>
      </trkpt>
      <trkpt lat="41.303118" lon="-6.474286">
        <ele>517.862</ele>
        <time>2015-03-31T08:51:58Z</time>
      </trkpt>
      <trkpt lat="41.303131" lon="-6.474292">
        <ele>517.808</ele>
        <time>2015-03-31T08:51:59Z</time>
      </trkpt>
      <trkpt lat="41.303142" lon="-6.474302">
        <ele>517.807</ele>
        <time>2015-03-31T08:52:00Z</time>
      </trkpt>
      <trkpt lat="41.303152" lon="-6.474309">
        <ele>518.381</ele>
        <time>2015-03-31T08:52:01Z</time>
      </trkpt>
      <trkpt lat="41.303163" lon="-6.474315">
        <ele>518.356</ele>
        <time>2015-03-31T08:52:02Z</time>
      </trkpt>
      <trkpt lat="41.303173" lon="-6.474325">
        <ele>518.361</ele>
        <time>2015-03-31T08:52:03Z</time>
      </trkpt>
      <trkpt lat="41.303184" lon="-6.474334">
        <ele>518.345</ele>
        <time>2015-03-31T08:52:04Z</time>
      </trkpt>
      <trkpt lat="41.303195" lon="-6.474346">
        <ele>518.349</ele>
        <time>2015-03-31T08:52:05Z</time>
      </trkpt>
      <trkpt lat="41.303206" lon="-6.474357">
        <ele>518.314</ele>
        <time>2015-03-31T08:52:06Z</time>
      </trkpt>
      <trkpt lat="41.303217" lon="-6.474365">
        <ele>518.336</ele>
        <time>2015-03-31T08:52:07Z</time>
      </trkpt>
      <trkpt lat="41.303228" lon="-6.474377">
        <ele>518.391</ele>
        <time>2015-03-31T08:52:08Z</time>
      </trkpt>
      <trkpt lat="41.303243" lon="-6.474386">
        <ele>518.881</ele>
        <time>2015-03-31T08:52:09Z</time>
      </trkpt>
      <trkpt lat="41.303260" lon="-6.474397">
        <ele>518.819</ele>
        <time>2015-03-31T08:52:10Z</time>
      </trkpt>
      <trkpt lat="41.303274" lon="-6.474405">
        <ele>518.307</ele>
        <time>2015-03-31T08:52:11Z</time>
      </trkpt>
      <trkpt lat="41.303289" lon="-6.474414">
        <ele>518.398</ele>
        <time>2015-03-31T08:52:12Z</time>
      </trkpt>
      <trkpt lat="41.303303" lon="-6.474422">
        <ele>518.813</ele>
        <time>2015-03-31T08:52:13Z</time>
      </trkpt>
      <trkpt lat="41.303317" lon="-6.474426">
        <ele>518.348</ele>
        <time>2015-03-31T08:52:14Z</time>
      </trkpt>
      <trkpt lat="41.303536" lon="-6.474573">
        <ele>518.862</ele>
        <time>2015-03-31T08:52:27Z</time>
      </trkpt>
      <trkpt lat="41.303715" lon="-6.474641">
        <ele>521.286</ele>
        <time>2015-03-31T08:52:36Z</time>
      </trkpt>
      <trkpt lat="41.303781" lon="-6.474642">
        <ele>520.711</ele>
        <time>2015-03-31T08:52:40Z</time>
      </trkpt>
      <trkpt lat="41.303798" lon="-6.474635">
        <ele>520.763</ele>
        <time>2015-03-31T08:52:41Z</time>
      </trkpt>
      <trkpt lat="41.303863" lon="-6.474608">
        <ele>514.991</ele>
        <time>2015-03-31T08:52:46Z</time>
      </trkpt>
      <trkpt lat="41.303863" lon="-6.474607">
        <ele>523.181</ele>
        <time>2015-03-31T08:52:47Z</time>
      </trkpt>
      <trkpt lat="41.303865" lon="-6.474600">
        <ele>519.719</ele>
        <time>2015-03-31T08:52:49Z</time>
      </trkpt>
      <trkpt lat="41.303869" lon="-6.474594">
        <ele>518.807</ele>
        <time>2015-03-31T08:53:00Z</time>
      </trkpt>
      <trkpt lat="41.303872" lon="-6.474593">
        <ele>523.668</ele>
        <time>2015-03-31T08:53:07Z</time>
      </trkpt>
      <trkpt lat="41.303873" lon="-6.474593">
        <ele>518.353</ele>
        <time>2015-03-31T08:53:08Z</time>
      </trkpt>
      <trkpt lat="41.303873" lon="-6.474593">
        <ele>522.148</ele>
        <time>2015-03-31T08:53:09Z</time>
      </trkpt>
      <trkpt lat="41.303873" lon="-6.474593">
        <ele>518.872</ele>
        <time>2015-03-31T08:53:10Z</time>
      </trkpt>
      <trkpt lat="41.303874" lon="-6.474594">
        <ele>522.176</ele>
        <time>2015-03-31T08:53:13Z</time>
      </trkpt>
      <trkpt lat="41.303874" lon="-6.474594">
        <ele>516.921</ele>
        <time>2015-03-31T08:53:15Z</time>
      </trkpt>
      <trkpt lat="41.303875" lon="-6.474593">
        <ele>522.133</ele>
        <time>2015-03-31T08:53:16Z</time>
      </trkpt>
      <trkpt lat="41.303875" lon="-6.474594">
        <ele>518.884</ele>
        <time>2015-03-31T08:53:23Z</time>
      </trkpt>
      <trkpt lat="41.303876" lon="-6.474592">
        <ele>522.107</ele>
        <time>2015-03-31T08:53:28Z</time>
      </trkpt>
      <trkpt lat="41.303877" lon="-6.474592">
        <ele>518.817</ele>
        <time>2015-03-31T08:53:29Z</time>
      </trkpt>
      <trkpt lat="41.303867" lon="-6.474592">
        <ele>520.207</ele>
        <time>2015-03-31T08:53:46Z</time>
      </trkpt>
      <trkpt lat="41.303872" lon="-6.474593">
        <ele>519.737</ele>
        <time>2015-03-31T08:54:05Z</time>
      </trkpt>
      <trkpt lat="41.303862" lon="-6.474586">
        <ele>519.392</ele>
        <time>2015-03-31T08:54:27Z</time>
      </trkpt>
      <trkpt lat="41.303863" lon="-6.474586">
        <ele>518.887</ele>
        <time>2015-03-31T08:54:28Z</time>
      </trkpt>
      <trkpt lat="41.303863" lon="-6.474585">
        <ele>522.611</ele>
        <time>2015-03-31T08:54:29Z</time>
      </trkpt>
      <trkpt lat="41.303864" lon="-6.474584">
        <ele>518.885</ele>
        <time>2015-03-31T08:54:32Z</time>
      </trkpt>
      <trkpt lat="41.303867" lon="-6.474584">
        <ele>520.250</ele>
        <time>2015-03-31T08:54:52Z</time>
      </trkpt>
      <trkpt lat="41.303869" lon="-6.474582">
        <ele>520.262</ele>
        <time>2015-03-31T08:55:16Z</time>
      </trkpt>
      <trkpt lat="41.303867" lon="-6.474589">
        <ele>520.239</ele>
        <time>2015-03-31T08:55:32Z</time>
      </trkpt>
      <trkpt lat="41.303875" lon="-6.474600">
        <ele>520.201</ele>
        <time>2015-03-31T08:55:55Z</time>
      </trkpt>
      <trkpt lat="41.303875" lon="-6.474596">
        <ele>520.221</ele>
        <time>2015-03-31T08:56:20Z</time>
      </trkpt>
      <trkpt lat="41.303871" lon="-6.474596">
        <ele>520.207</ele>
        <time>2015-03-31T08:56:38Z</time>
      </trkpt>
      <trkpt lat="41.303878" lon="-6.474595">
        <ele>520.222</ele>
        <time>2015-03-31T08:57:00Z</time>
      </trkpt>
      <trkpt lat="41.303878" lon="-6.474594">
        <ele>520.217</ele>
        <time>2015-03-31T08:57:16Z</time>
      </trkpt>
      <trkpt lat="41.303890" lon="-6.474595">
        <ele>520.222</ele>
        <time>2015-03-31T08:57:33Z</time>
      </trkpt>
      <trkpt lat="41.303911" lon="-6.474603">
        <ele>520.266</ele>
        <time>2015-03-31T08:57:35Z</time>
      </trkpt>
      <trkpt lat="41.303936" lon="-6.474610">
        <ele>519.780</ele>
        <time>2015-03-31T08:57:36Z</time>
      </trkpt>
      <trkpt lat="41.303964" lon="-6.474613">
        <ele>519.785</ele>
        <time>2015-03-31T08:57:37Z</time>
      </trkpt>
      <trkpt lat="41.303996" lon="-6.474616">
        <ele>519.397</ele>
        <time>2015-03-31T08:57:38Z</time>
      </trkpt>
      <trkpt lat="41.304033" lon="-6.474619">
        <ele>519.325</ele>
        <time>2015-03-31T08:57:39Z</time>
      </trkpt>
      <trkpt lat="41.304076" lon="-6.474627">
        <ele>518.826</ele>
        <time>2015-03-31T08:57:40Z</time>
      </trkpt>
      <trkpt lat="41.304124" lon="-6.474636">
        <ele>518.308</ele>
        <time>2015-03-31T08:57:41Z</time>
      </trkpt>
      <trkpt lat="41.304178" lon="-6.474645">
        <ele>518.307</ele>
        <time>2015-03-31T08:57:42Z</time>
      </trkpt>
      <trkpt lat="41.304512" lon="-6.474713">
        <ele>514.461</ele>
        <time>2015-03-31T08:57:47Z</time>
      </trkpt>
      <trkpt lat="41.304707" lon="-6.474787">
        <ele>512.546</ele>
        <time>2015-03-31T08:57:50Z</time>
      </trkpt>
      <trkpt lat="41.304969" lon="-6.474955">
        <ele>509.251</ele>
        <time>2015-03-31T08:57:54Z</time>
      </trkpt>
      <trkpt lat="41.305039" lon="-6.474991">
        <ele>508.235</ele>
        <time>2015-03-31T08:57:55Z</time>
      </trkpt>
      <trkpt lat="41.305108" lon="-6.475015">
        <ele>507.769</ele>
        <time>2015-03-31T08:57:56Z</time>
      </trkpt>
      <trkpt lat="41.305176" lon="-6.475023">
        <ele>506.884</ele>
        <time>2015-03-31T08:57:57Z</time>
      </trkpt>
      <trkpt lat="41.305243" lon="-6.475018">
        <ele>504.896</ele>
        <time>2015-03-31T08:57:58Z</time>
      </trkpt>
      <trkpt lat="41.305313" lon="-6.475007">
        <ele>504.486</ele>
        <time>2015-03-31T08:57:59Z</time>
      </trkpt>
      <trkpt lat="41.305387" lon="-6.475005">
        <ele>503.960</ele>
        <time>2015-03-31T08:58:00Z</time>
      </trkpt>
      <trkpt lat="41.305464" lon="-6.475020">
        <ele>502.926</ele>
        <time>2015-03-31T08:58:01Z</time>
      </trkpt>
      <trkpt lat="41.305543" lon="-6.475055">
        <ele>502.007</ele>
        <time>2015-03-31T08:58:02Z</time>
      </trkpt>
      <trkpt lat="41.305620" lon="-6.475111">
        <ele>501.087</ele>
        <time>2015-03-31T08:58:03Z</time>
      </trkpt>
      <trkpt lat="41.305694" lon="-6.475179">
        <ele>500.082</ele>
        <time>2015-03-31T08:58:04Z</time>
      </trkpt>
      <trkpt lat="41.305769" lon="-6.475240">
        <ele>499.547</ele>
        <time>2015-03-31T08:58:05Z</time>
      </trkpt>
      <trkpt lat="41.305841" lon="-6.475278">
        <ele>499.171</ele>
        <time>2015-03-31T08:58:06Z</time>
      </trkpt>
      <trkpt lat="41.305905" lon="-6.475296">
        <ele>498.675</ele>
        <time>2015-03-31T08:58:07Z</time>
      </trkpt>
      <trkpt lat="41.305963" lon="-6.475286">
        <ele>498.110</ele>
        <time>2015-03-31T08:58:08Z</time>
      </trkpt>
      <trkpt lat="41.306005" lon="-6.475245">
        <ele>498.162</ele>
        <time>2015-03-31T08:58:09Z</time>
      </trkpt>
      <trkpt lat="41.306015" lon="-6.475181">
        <ele>497.653</ele>
        <time>2015-03-31T08:58:10Z</time>
      </trkpt>
      <trkpt lat="41.305994" lon="-6.475112">
        <ele>497.604</ele>
        <time>2015-03-31T08:58:11Z</time>
      </trkpt>
      <trkpt lat="41.305958" lon="-6.475057">
        <ele>497.614</ele>
        <time>2015-03-31T08:58:12Z</time>
      </trkpt>
      <trkpt lat="41.305909" lon="-6.475014">
        <ele>497.607</ele>
        <time>2015-03-31T08:58:13Z</time>
      </trkpt>
      <trkpt lat="41.305853" lon="-6.474988">
        <ele>496.774</ele>
        <time>2015-03-31T08:58:14Z</time>
      </trkpt>
      <trkpt lat="41.305795" lon="-6.474962">
        <ele>496.279</ele>
        <time>2015-03-31T08:58:15Z</time>
      </trkpt>
      <trkpt lat="41.305738" lon="-6.474928">
        <ele>496.224</ele>
        <time>2015-03-31T08:58:16Z</time>
      </trkpt>
      <trkpt lat="41.305681" lon="-6.474893">
        <ele>495.748</ele>
        <time>2015-03-31T08:58:17Z</time>
      </trkpt>
      <trkpt lat="41.305623" lon="-6.474858">
        <ele>495.242</ele>
        <time>2015-03-31T08:58:18Z</time>
      </trkpt>
      <trkpt lat="41.305566" lon="-6.474822">
        <ele>494.377</ele>
        <time>2015-03-31T08:58:19Z</time>
      </trkpt>
      <trkpt lat="41.305512" lon="-6.474783">
        <ele>492.329</ele>
        <time>2015-03-31T08:58:20Z</time>
      </trkpt>
      <trkpt lat="41.305402" lon="-6.474689">
        <ele>489.965</ele>
        <time>2015-03-31T08:58:22Z</time>
      </trkpt>
      <trkpt lat="41.305346" lon="-6.474633">
        <ele>489.568</ele>
        <time>2015-03-31T08:58:23Z</time>
      </trkpt>
      <trkpt lat="41.305294" lon="-6.474565">
        <ele>488.514</ele>
        <time>2015-03-31T08:58:24Z</time>
      </trkpt>
      <trkpt lat="41.305252" lon="-6.474490">
        <ele>487.507</ele>
        <time>2015-03-31T08:58:25Z</time>
      </trkpt>
      <trkpt lat="41.305112" lon="-6.474199">
        <ele>485.195</ele>
        <time>2015-03-31T08:58:29Z</time>
      </trkpt>
      <trkpt lat="41.305066" lon="-6.474143">
        <ele>484.230</ele>
        <time>2015-03-31T08:58:30Z</time>
      </trkpt>
      <trkpt lat="41.305013" lon="-6.474098">
        <ele>483.795</ele>
        <time>2015-03-31T08:58:31Z</time>
      </trkpt>
      <trkpt lat="41.304798" lon="-6.473936">
        <ele>480.869</ele>
        <time>2015-03-31T08:58:35Z</time>
      </trkpt>
      <trkpt lat="41.304612" lon="-6.473706">
        <ele>477.973</ele>
        <time>2015-03-31T08:58:39Z</time>
      </trkpt>
      <trkpt lat="41.304405" lon="-6.473400">
        <ele>474.198</ele>
        <time>2015-03-31T08:58:43Z</time>
      </trkpt>
      <trkpt lat="41.304286" lon="-6.473236">
        <ele>472.160</ele>
        <time>2015-03-31T08:58:45Z</time>
      </trkpt>
      <trkpt lat="41.304219" lon="-6.473164">
        <ele>470.221</ele>
        <time>2015-03-31T08:58:46Z</time>
      </trkpt>
      <trkpt lat="41.304147" lon="-6.473104">
        <ele>469.341</ele>
        <time>2015-03-31T08:58:47Z</time>
      </trkpt>
      <trkpt lat="41.304070" lon="-6.473063">
        <ele>468.305</ele>
        <time>2015-03-31T08:58:48Z</time>
      </trkpt>
      <trkpt lat="41.303988" lon="-6.473043">
        <ele>467.807</ele>
        <time>2015-03-31T08:58:49Z</time>
      </trkpt>
      <trkpt lat="41.303911" lon="-6.473042">
        <ele>466.941</ele>
        <time>2015-03-31T08:58:50Z</time>
      </trkpt>
      <trkpt lat="41.303839" lon="-6.473055">
        <ele>466.436</ele>
        <time>2015-03-31T08:58:51Z</time>
      </trkpt>
      <trkpt lat="41.303772" lon="-6.473073">
        <ele>465.421</ele>
        <time>2015-03-31T08:58:52Z</time>
      </trkpt>
      <trkpt lat="41.303606" lon="-6.473104">
        <ele>463.575</ele>
        <time>2015-03-31T08:58:55Z</time>
      </trkpt>
      <trkpt lat="41.303562" lon="-6.473099">
        <ele>463.069</ele>
        <time>2015-03-31T08:58:56Z</time>
      </trkpt>
      <trkpt lat="41.303422" lon="-6.473032">
        <ele>461.164</ele>
        <time>2015-03-31T08:59:02Z</time>
      </trkpt>
      <trkpt lat="41.303324" lon="-6.472971">
        <ele>452.036</ele>
        <time>2015-03-31T08:59:08Z</time>
      </trkpt>
      <trkpt lat="41.303311" lon="-6.472957">
        <ele>464.932</ele>
        <time>2015-03-31T08:59:09Z</time>
      </trkpt>
      <trkpt lat="41.303310" lon="-6.472956">
        <ele>460.192</ele>
        <time>2015-03-31T08:59:10Z</time>
      </trkpt>
      <trkpt lat="41.303295" lon="-6.472947">
        <ele>455.811</ele>
        <time>2015-03-31T08:59:18Z</time>
      </trkpt>
      <trkpt lat="41.303295" lon="-6.472945">
        <ele>461.107</ele>
        <time>2015-03-31T08:59:19Z</time>
      </trkpt>
      <trkpt lat="41.303295" lon="-6.472949">
        <ele>457.262</ele>
        <time>2015-03-31T08:59:25Z</time>
      </trkpt>
      <trkpt lat="41.303296" lon="-6.472949">
        <ele>461.167</ele>
        <time>2015-03-31T08:59:27Z</time>
      </trkpt>
      <trkpt lat="41.303209" lon="-6.472828">
        <ele>457.262</ele>
        <time>2015-03-31T08:59:31Z</time>
      </trkpt>
      <trkpt lat="41.303063" lon="-6.472600">
        <ele>454.446</ele>
        <time>2015-03-31T08:59:35Z</time>
      </trkpt>
      <trkpt lat="41.302906" lon="-6.472362">
        <ele>450.520</ele>
        <time>2015-03-31T08:59:39Z</time>
      </trkpt>
      <trkpt lat="41.302869" lon="-6.472302">
        <ele>450.065</ele>
        <time>2015-03-31T08:59:40Z</time>
      </trkpt>
      <trkpt lat="41.302793" lon="-6.472190">
        <ele>448.677</ele>
        <time>2015-03-31T08:59:42Z</time>
      </trkpt>
      <trkpt lat="41.302603" lon="-6.471918">
        <ele>445.765</ele>
        <time>2015-03-31T08:59:48Z</time>
      </trkpt>
      <trkpt lat="41.302514" lon="-6.471812">
        <ele>445.268</ele>
        <time>2015-03-31T08:59:55Z</time>
      </trkpt>
      <trkpt lat="41.302454" lon="-6.471767">
        <ele>445.214</ele>
        <time>2015-03-31T09:00:06Z</time>
      </trkpt>
      <trkpt lat="41.302301" lon="-6.471610">
        <ele>444.807</ele>
        <time>2015-03-31T09:00:15Z</time>
      </trkpt>
      <trkpt lat="41.302232" lon="-6.471502">
        <ele>445.215</ele>
        <time>2015-03-31T09:00:23Z</time>
      </trkpt>
      <trkpt lat="41.302222" lon="-6.471511">
        <ele>445.210</ele>
        <time>2015-03-31T09:00:35Z</time>
      </trkpt>
      <trkpt lat="41.302215" lon="-6.471501">
        <ele>445.285</ele>
        <time>2015-03-31T09:00:54Z</time>
      </trkpt>
      <trkpt lat="41.302214" lon="-6.471495">
        <ele>445.259</ele>
        <time>2015-03-31T09:01:15Z</time>
      </trkpt>
      <trkpt lat="41.302217" lon="-6.471505">
        <ele>445.283</ele>
        <time>2015-03-31T09:01:33Z</time>
      </trkpt>
      <trkpt lat="41.302198" lon="-6.471531">
        <ele>445.278</ele>
        <time>2015-03-31T09:01:51Z</time>
      </trkpt>
      <trkpt lat="41.302171" lon="-6.471545">
        <ele>445.240</ele>
        <time>2015-03-31T09:01:54Z</time>
      </trkpt>
      <trkpt lat="41.302158" lon="-6.471558">
        <ele>445.261</ele>
        <time>2015-03-31T09:01:55Z</time>
      </trkpt>
      <trkpt lat="41.302148" lon="-6.471572">
        <ele>445.221</ele>
        <time>2015-03-31T09:01:56Z</time>
      </trkpt>
      <trkpt lat="41.302138" lon="-6.471594">
        <ele>444.813</ele>
        <time>2015-03-31T09:01:57Z</time>
      </trkpt>
      <trkpt lat="41.302130" lon="-6.471617">
        <ele>445.207</ele>
        <time>2015-03-31T09:01:58Z</time>
      </trkpt>
      <trkpt lat="41.302121" lon="-6.471638">
        <ele>445.245</ele>
        <time>2015-03-31T09:01:59Z</time>
      </trkpt>
      <trkpt lat="41.302107" lon="-6.471656">
        <ele>445.290</ele>
        <time>2015-03-31T09:02:00Z</time>
      </trkpt>
      <trkpt lat="41.302093" lon="-6.471673">
        <ele>445.265</ele>
        <time>2015-03-31T09:02:01Z</time>
      </trkpt>
      <trkpt lat="41.302081" lon="-6.471690">
        <ele>445.289</ele>
        <time>2015-03-31T09:02:02Z</time>
      </trkpt>
      <trkpt lat="41.302050" lon="-6.471712">
        <ele>445.233</ele>
        <time>2015-03-31T09:02:05Z</time>
      </trkpt>
      <trkpt lat="41.302037" lon="-6.471717">
        <ele>445.278</ele>
        <time>2015-03-31T09:02:06Z</time>
      </trkpt>
      <trkpt lat="41.302027" lon="-6.471729">
        <ele>445.270</ele>
        <time>2015-03-31T09:02:07Z</time>
      </trkpt>
      <trkpt lat="41.301929" lon="-6.471823">
        <ele>445.217</ele>
        <time>2015-03-31T09:02:16Z</time>
      </trkpt>
      <trkpt lat="41.301843" lon="-6.471868">
        <ele>445.287</ele>
        <time>2015-03-31T09:02:23Z</time>
      </trkpt>
      <trkpt lat="41.301631" lon="-6.471960">
        <ele>444.815</ele>
        <time>2015-03-31T09:02:31Z</time>
      </trkpt>
      <trkpt lat="41.301346" lon="-6.472190">
        <ele>444.807</ele>
        <time>2015-03-31T09:02:41Z</time>
      </trkpt>
      <trkpt lat="41.301266" lon="-6.472370">
        <ele>445.240</ele>
        <time>2015-03-31T09:02:49Z</time>
      </trkpt>
      <trkpt lat="41.301230" lon="-6.472617">
        <ele>445.765</ele>
        <time>2015-03-31T09:02:59Z</time>
      </trkpt>
      <trkpt lat="41.301215" lon="-6.472706">
        <ele>444.840</ele>
        <time>2015-03-31T09:03:02Z</time>
      </trkpt>
      <trkpt lat="41.301183" lon="-6.472763">
        <ele>444.394</ele>
        <time>2015-03-31T09:03:04Z</time>
      </trkpt>
      <trkpt lat="41.301163" lon="-6.472787">
        <ele>444.388</ele>
        <time>2015-03-31T09:03:05Z</time>
      </trkpt>
      <trkpt lat="41.301147" lon="-6.472818">
        <ele>443.823</ele>
        <time>2015-03-31T09:03:06Z</time>
      </trkpt>
      <trkpt lat="41.301133" lon="-6.472855">
        <ele>443.835</ele>
        <time>2015-03-31T09:03:07Z</time>
      </trkpt>
      <trkpt lat="41.301121" lon="-6.472896">
        <ele>443.835</ele>
        <time>2015-03-31T09:03:08Z</time>
      </trkpt>
      <trkpt lat="41.301106" lon="-6.472935">
        <ele>443.386</ele>
        <time>2015-03-31T09:03:09Z</time>
      </trkpt>
      <trkpt lat="41.301088" lon="-6.472973">
        <ele>443.314</ele>
        <time>2015-03-31T09:03:10Z</time>
      </trkpt>
      <trkpt lat="41.300971" lon="-6.473301">
        <ele>441.907</ele>
        <time>2015-03-31T09:03:18Z</time>
      </trkpt>
      <trkpt lat="41.301023" lon="-6.473614">
        <ele>439.592</ele>
        <time>2015-03-31T09:03:23Z</time>
      </trkpt>
      <trkpt lat="41.301151" lon="-6.474092">
        <ele>436.127</ele>
        <time>2015-03-31T09:03:29Z</time>
      </trkpt>
      <trkpt lat="41.301262" lon="-6.474600">
        <ele>432.742</ele>
        <time>2015-03-31T09:03:34Z</time>
      </trkpt>
      <trkpt lat="41.301290" lon="-6.474822">
        <ele>431.336</ele>
        <time>2015-03-31T09:03:36Z</time>
      </trkpt>
      <trkpt lat="41.301294" lon="-6.474931">
        <ele>430.820</ele>
        <time>2015-03-31T09:03:37Z</time>
      </trkpt>
      <trkpt lat="41.301289" lon="-6.475032">
        <ele>429.975</ele>
        <time>2015-03-31T09:03:38Z</time>
      </trkpt>
      <trkpt lat="41.301269" lon="-6.475118">
        <ele>429.497</ele>
        <time>2015-03-31T09:03:39Z</time>
      </trkpt>
      <trkpt lat="41.301233" lon="-6.475177">
        <ele>428.968</ele>
        <time>2015-03-31T09:03:40Z</time>
      </trkpt>
      <trkpt lat="41.301192" lon="-6.475201">
        <ele>428.442</ele>
        <time>2015-03-31T09:03:41Z</time>
      </trkpt>
      <trkpt lat="41.301155" lon="-6.475200">
        <ele>428.426</ele>
        <time>2015-03-31T09:03:42Z</time>
      </trkpt>
      <trkpt lat="41.301122" lon="-6.475187">
        <ele>428.407</ele>
        <time>2015-03-31T09:03:43Z</time>
      </trkpt>
      <trkpt lat="41.301097" lon="-6.475159">
        <ele>428.435</ele>
        <time>2015-03-31T09:03:44Z</time>
      </trkpt>
      <trkpt lat="41.301086" lon="-6.475119">
        <ele>427.990</ele>
        <time>2015-03-31T09:03:45Z</time>
      </trkpt>
      <trkpt lat="41.301086" lon="-6.475076">
        <ele>427.995</ele>
        <time>2015-03-31T09:03:46Z</time>
      </trkpt>
      <trkpt lat="41.301090" lon="-6.475033">
        <ele>427.999</ele>
        <time>2015-03-31T09:03:47Z</time>
      </trkpt>
      <trkpt lat="41.301112" lon="-6.474745">
        <ele>426.053</ele>
        <time>2015-03-31T09:03:54Z</time>
      </trkpt>
      <trkpt lat="41.301089" lon="-6.474630">
        <ele>425.088</ele>
        <time>2015-03-31T09:03:56Z</time>
      </trkpt>
      <trkpt lat="41.301068" lon="-6.474567">
        <ele>424.690</ele>
        <time>2015-03-31T09:03:57Z</time>
      </trkpt>
      <trkpt lat="41.300905" lon="-6.474174">
        <ele>421.743</ele>
        <time>2015-03-31T09:04:02Z</time>
      </trkpt>
      <trkpt lat="41.300728" lon="-6.473761">
        <ele>418.864</ele>
        <time>2015-03-31T09:04:07Z</time>
      </trkpt>
      <trkpt lat="41.300698" lon="-6.473705">
        <ele>418.810</ele>
        <time>2015-03-31T09:04:08Z</time>
      </trkpt>
      <trkpt lat="41.300666" lon="-6.473661">
        <ele>418.807</ele>
        <time>2015-03-31T09:04:09Z</time>
      </trkpt>
      <trkpt lat="41.300636" lon="-6.473624">
        <ele>418.873</ele>
        <time>2015-03-31T09:04:10Z</time>
      </trkpt>
      <trkpt lat="41.300618" lon="-6.473588">
        <ele>418.868</ele>
        <time>2015-03-31T09:04:11Z</time>
      </trkpt>
      <trkpt lat="41.300610" lon="-6.473564">
        <ele>418.843</ele>
        <time>2015-03-31T09:04:12Z</time>
      </trkpt>
      <trkpt lat="41.300622" lon="-6.473573">
        <ele>418.857</ele>
        <time>2015-03-31T09:04:21Z</time>
      </trkpt>
      <trkpt lat="41.300624" lon="-6.473565">
        <ele>418.841</ele>
        <time>2015-03-31T09:04:48Z</time>
      </trkpt>
      <trkpt lat="41.300624" lon="-6.473557">
        <ele>418.336</ele>
        <time>2015-03-31T09:05:07Z</time>
      </trkpt>
      <trkpt lat="41.300631" lon="-6.473549">
        <ele>418.318</ele>
        <time>2015-03-31T09:05:09Z</time>
      </trkpt>
      <trkpt lat="41.300639" lon="-6.473534">
        <ele>418.354</ele>
        <time>2015-03-31T09:05:10Z</time>
      </trkpt>
      <trkpt lat="41.300640" lon="-6.473512">
        <ele>418.356</ele>
        <time>2015-03-31T09:05:11Z</time>
      </trkpt>
      <trkpt lat="41.300621" lon="-6.473490">
        <ele>418.311</ele>
        <time>2015-03-31T09:05:20Z</time>
      </trkpt>
      <trkpt lat="41.300613" lon="-6.473497">
        <ele>418.307</ele>
        <time>2015-03-31T09:05:44Z</time>
      </trkpt>
      <trkpt lat="41.300610" lon="-6.473497">
        <ele>418.324</ele>
        <time>2015-03-31T09:05:58Z</time>
      </trkpt>
      <trkpt lat="41.300613" lon="-6.473498">
        <ele>418.359</ele>
        <time>2015-03-31T09:06:17Z</time>
      </trkpt>
      <trkpt lat="41.300612" lon="-6.473500">
        <ele>418.344</ele>
        <time>2015-03-31T09:06:31Z</time>
      </trkpt>
      <trkpt lat="41.300609" lon="-6.473487">
        <ele>418.398</ele>
        <time>2015-03-31T09:07:01Z</time>
      </trkpt>
      <trkpt lat="41.300628" lon="-6.473465">
        <ele>417.822</ele>
        <time>2015-03-31T09:07:12Z</time>
      </trkpt>
      <trkpt lat="41.300637" lon="-6.473444">
        <ele>417.897</ele>
        <time>2015-03-31T09:07:13Z</time>
      </trkpt>
      <trkpt lat="41.300642" lon="-6.473414">
        <ele>417.829</ele>
        <time>2015-03-31T09:07:14Z</time>
      </trkpt>
      <trkpt lat="41.300644" lon="-6.473375">
        <ele>417.471</ele>
        <time>2015-03-31T09:07:15Z</time>
      </trkpt>
      <trkpt lat="41.300648" lon="-6.473329">
        <ele>416.941</ele>
        <time>2015-03-31T09:07:16Z</time>
      </trkpt>
      <trkpt lat="41.300649" lon="-6.473275">
        <ele>416.415</ele>
        <time>2015-03-31T09:07:17Z</time>
      </trkpt>
      <trkpt lat="41.300651" lon="-6.473214">
        <ele>415.907</ele>
        <time>2015-03-31T09:07:18Z</time>
      </trkpt>
      <trkpt lat="41.300658" lon="-6.473148">
        <ele>415.486</ele>
        <time>2015-03-31T09:07:19Z</time>
      </trkpt>
      <trkpt lat="41.300670" lon="-6.473078">
        <ele>415.011</ele>
        <time>2015-03-31T09:07:20Z</time>
      </trkpt>
      <trkpt lat="41.300689" lon="-6.473003">
        <ele>414.576</ele>
        <time>2015-03-31T09:07:21Z</time>
      </trkpt>
      <trkpt lat="41.300824" lon="-6.472491">
        <ele>411.110</ele>
        <time>2015-03-31T09:07:27Z</time>
      </trkpt>
      <trkpt lat="41.301000" lon="-6.471874">
        <ele>407.724</ele>
        <time>2015-03-31T09:07:33Z</time>
      </trkpt>
      <trkpt lat="41.301189" lon="-6.471505">
        <ele>405.829</ele>
        <time>2015-03-31T09:07:37Z</time>
      </trkpt>
      <trkpt lat="41.301281" lon="-6.471340">
        <ele>406.371</ele>
        <time>2015-03-31T09:07:39Z</time>
      </trkpt>
      <trkpt lat="41.301384" lon="-6.471098">
        <ele>406.389</ele>
        <time>2015-03-31T09:07:42Z</time>
      </trkpt>
      <trkpt lat="41.301400" lon="-6.471033">
        <ele>406.306</ele>
        <time>2015-03-31T09:07:43Z</time>
      </trkpt>
      <trkpt lat="41.301406" lon="-6.470994">
        <ele>406.826</ele>
        <time>2015-03-31T09:07:44Z</time>
      </trkpt>
      <trkpt lat="41.301391" lon="-6.470985">
        <ele>407.307</ele>
        <time>2015-03-31T09:07:51Z</time>
      </trkpt>
      <trkpt lat="41.301384" lon="-6.470975">
        <ele>407.327</ele>
        <time>2015-03-31T09:08:11Z</time>
      </trkpt>
      <trkpt lat="41.301385" lon="-6.470978">
        <ele>407.322</ele>
        <time>2015-03-31T09:08:26Z</time>
      </trkpt>
      <trkpt lat="41.301389" lon="-6.470934">
        <ele>407.347</ele>
        <time>2015-03-31T09:08:37Z</time>
      </trkpt>
      <trkpt lat="41.301372" lon="-6.470642">
        <ele>406.871</ele>
        <time>2015-03-31T09:08:46Z</time>
      </trkpt>
      <trkpt lat="41.301329" lon="-6.470329">
        <ele>407.385</ele>
        <time>2015-03-31T09:08:55Z</time>
      </trkpt>
      <trkpt lat="41.301324" lon="-6.470301">
        <ele>407.340</ele>
        <time>2015-03-31T09:08:56Z</time>
      </trkpt>
      <trkpt lat="41.301322" lon="-6.470278">
        <ele>407.342</ele>
        <time>2015-03-31T09:08:57Z</time>
      </trkpt>
      <trkpt lat="41.301323" lon="-6.470251">
        <ele>407.365</ele>
        <time>2015-03-31T09:08:58Z</time>
      </trkpt>
      <trkpt lat="41.301319" lon="-6.470224">
        <ele>407.768</ele>
        <time>2015-03-31T09:08:59Z</time>
      </trkpt>
      <trkpt lat="41.301305" lon="-6.470204">
        <ele>407.314</ele>
        <time>2015-03-31T09:09:00Z</time>
      </trkpt>
      <trkpt lat="41.301286" lon="-6.470192">
        <ele>407.307</ele>
        <time>2015-03-31T09:09:01Z</time>
      </trkpt>
      <trkpt lat="41.301269" lon="-6.470182">
        <ele>407.315</ele>
        <time>2015-03-31T09:09:02Z</time>
      </trkpt>
      <trkpt lat="41.301257" lon="-6.470166">
        <ele>407.350</ele>
        <time>2015-03-31T09:09:03Z</time>
      </trkpt>
      <trkpt lat="41.301250" lon="-6.470149">
        <ele>407.375</ele>
        <time>2015-03-31T09:09:04Z</time>
      </trkpt>
      <trkpt lat="41.301244" lon="-6.470146">
        <ele>407.379</ele>
        <time>2015-03-31T09:09:12Z</time>
      </trkpt>
      <trkpt lat="41.301236" lon="-6.470138">
        <ele>407.343</ele>
        <time>2015-03-31T09:09:25Z</time>
      </trkpt>
      <trkpt lat="41.301229" lon="-6.470137">
        <ele>407.398</ele>
        <time>2015-03-31T09:09:26Z</time>
      </trkpt>
      <trkpt lat="41.301218" lon="-6.470136">
        <ele>407.330</ele>
        <time>2015-03-31T09:09:27Z</time>
      </trkpt>
      <trkpt lat="41.301207" lon="-6.470132">
        <ele>407.339</ele>
        <time>2015-03-31T09:09:28Z</time>
      </trkpt>
      <trkpt lat="41.301233" lon="-6.470100">
        <ele>407.301</ele>
        <time>2015-03-31T09:09:37Z</time>
      </trkpt>
      <trkpt lat="41.301220" lon="-6.470094">
        <ele>407.321</ele>
        <time>2015-03-31T09:09:54Z</time>
      </trkpt>
      <trkpt lat="41.301227" lon="-6.470098">
        <ele>407.307</ele>
        <time>2015-03-31T09:10:16Z</time>
      </trkpt>
      <trkpt lat="41.301228" lon="-6.470109">
        <ele>407.352</ele>
        <time>2015-03-31T09:10:36Z</time>
      </trkpt>
      <trkpt lat="41.301222" lon="-6.470093">
        <ele>407.387</ele>
        <time>2015-03-31T09:10:41Z</time>
      </trkpt>
      <trkpt lat="41.301214" lon="-6.470077">
        <ele>407.372</ele>
        <time>2015-03-31T09:10:42Z</time>
      </trkpt>
      <trkpt lat="41.301193" lon="-6.470055">
        <ele>407.376</ele>
        <time>2015-03-31T09:10:44Z</time>
      </trkpt>
      <trkpt lat="41.301183" lon="-6.470038">
        <ele>407.390</ele>
        <time>2015-03-31T09:10:45Z</time>
      </trkpt>
      <trkpt lat="41.301176" lon="-6.470019">
        <ele>407.355</ele>
        <time>2015-03-31T09:10:46Z</time>
      </trkpt>
      <trkpt lat="41.301164" lon="-6.469999">
        <ele>407.387</ele>
        <time>2015-03-31T09:10:47Z</time>
      </trkpt>
      <trkpt lat="41.301148" lon="-6.469983">
        <ele>407.375</ele>
        <time>2015-03-31T09:10:48Z</time>
      </trkpt>
      <trkpt lat="41.301136" lon="-6.469966">
        <ele>407.328</ele>
        <time>2015-03-31T09:10:49Z</time>
      </trkpt>
      <trkpt lat="41.301128" lon="-6.469947">
        <ele>407.320</ele>
        <time>2015-03-31T09:10:50Z</time>
      </trkpt>
      <trkpt lat="41.301119" lon="-6.469930">
        <ele>407.307</ele>
        <time>2015-03-31T09:10:51Z</time>
      </trkpt>
      <trkpt lat="41.301103" lon="-6.469921">
        <ele>407.376</ele>
        <time>2015-03-31T09:10:52Z</time>
      </trkpt>
      <trkpt lat="41.301088" lon="-6.469914">
        <ele>407.321</ele>
        <time>2015-03-31T09:10:53Z</time>
      </trkpt>
      <trkpt lat="41.301079" lon="-6.469904">
        <ele>407.376</ele>
        <time>2015-03-31T09:10:54Z</time>
      </trkpt>
      <trkpt lat="41.301067" lon="-6.469888">
        <ele>407.350</ele>
        <time>2015-03-31T09:10:55Z</time>
      </trkpt>
      <trkpt lat="41.301052" lon="-6.469872">
        <ele>407.314</ele>
        <time>2015-03-31T09:10:56Z</time>
      </trkpt>
      <trkpt lat="41.301035" lon="-6.469853">
        <ele>407.389</ele>
        <time>2015-03-31T09:10:57Z</time>
      </trkpt>
      <trkpt lat="41.300815" lon="-6.469647">
        <ele>407.351</ele>
        <time>2015-03-31T09:11:08Z</time>
      </trkpt>
      <trkpt lat="41.300735" lon="-6.469588">
        <ele>407.377</ele>
        <time>2015-03-31T09:11:13Z</time>
      </trkpt>
      <trkpt lat="41.300722" lon="-6.469572">
        <ele>407.361</ele>
        <time>2015-03-31T09:11:14Z</time>
      </trkpt>
      <trkpt lat="41.300705" lon="-6.469563">
        <ele>407.727</ele>
        <time>2015-03-31T09:11:15Z</time>
      </trkpt>
      <trkpt lat="41.300689" lon="-6.469557">
        <ele>407.707</ele>
        <time>2015-03-31T09:11:16Z</time>
      </trkpt>
      <trkpt lat="41.300676" lon="-6.469545">
        <ele>407.366</ele>
        <time>2015-03-31T09:11:17Z</time>
      </trkpt>
      <trkpt lat="41.300659" lon="-6.469537">
        <ele>407.721</ele>
        <time>2015-03-31T09:11:18Z</time>
      </trkpt>
      <trkpt lat="41.300641" lon="-6.469530">
        <ele>407.376</ele>
        <time>2015-03-31T09:11:19Z</time>
      </trkpt>
      <trkpt lat="41.300409" lon="-6.469451">
        <ele>407.330</ele>
        <time>2015-03-31T09:11:31Z</time>
      </trkpt>
      <trkpt lat="41.300238" lon="-6.469426">
        <ele>407.394</ele>
        <time>2015-03-31T09:11:40Z</time>
      </trkpt>
      <trkpt lat="41.300029" lon="-6.469459">
        <ele>407.779</ele>
        <time>2015-03-31T09:11:48Z</time>
      </trkpt>
      <trkpt lat="41.299845" lon="-6.469529">
        <ele>407.311</ele>
        <time>2015-03-31T09:11:55Z</time>
      </trkpt>
      <trkpt lat="41.299589" lon="-6.469675">
        <ele>407.325</ele>
        <time>2015-03-31T09:12:05Z</time>
      </trkpt>
      <trkpt lat="41.299347" lon="-6.469840">
        <ele>407.726</ele>
        <time>2015-03-31T09:12:16Z</time>
      </trkpt>
      <trkpt lat="41.299328" lon="-6.469854">
        <ele>407.708</ele>
        <time>2015-03-31T09:12:17Z</time>
      </trkpt>
      <trkpt lat="41.299233" lon="-6.469911">
        <ele>408.207</ele>
        <time>2015-03-31T09:12:22Z</time>
      </trkpt>
      <trkpt lat="41.299213" lon="-6.469916">
        <ele>408.271</ele>
        <time>2015-03-31T09:12:23Z</time>
      </trkpt>
      <trkpt lat="41.299191" lon="-6.469920">
        <ele>408.286</ele>
        <time>2015-03-31T09:12:24Z</time>
      </trkpt>
      <trkpt lat="41.298973" lon="-6.470050">
        <ele>408.751</ele>
        <time>2015-03-31T09:12:34Z</time>
      </trkpt>
      <trkpt lat="41.298846" lon="-6.470139">
        <ele>409.225</ele>
        <time>2015-03-31T09:12:40Z</time>
      </trkpt>
      <trkpt lat="41.298833" lon="-6.470160">
        <ele>409.239</ele>
        <time>2015-03-31T09:12:41Z</time>
      </trkpt>
      <trkpt lat="41.298820" lon="-6.470178">
        <ele>409.734</ele>
        <time>2015-03-31T09:12:42Z</time>
      </trkpt>
      <trkpt lat="41.298805" lon="-6.470193">
        <ele>409.736</ele>
        <time>2015-03-31T09:12:43Z</time>
      </trkpt>
      <trkpt lat="41.298788" lon="-6.470200">
        <ele>409.767</ele>
        <time>2015-03-31T09:12:44Z</time>
      </trkpt>
      <trkpt lat="41.298775" lon="-6.470210">
        <ele>409.781</ele>
        <time>2015-03-31T09:12:45Z</time>
      </trkpt>
      <trkpt lat="41.298764" lon="-6.470225">
        <ele>410.119</ele>
        <time>2015-03-31T09:12:46Z</time>
      </trkpt>
      <trkpt lat="41.298755" lon="-6.470240">
        <ele>410.107</ele>
        <time>2015-03-31T09:12:47Z</time>
      </trkpt>
      <trkpt lat="41.298692" lon="-6.470332">
        <ele>404.435</ele>
        <time>2015-03-31T09:12:53Z</time>
      </trkpt>
      <trkpt lat="41.298681" lon="-6.470343">
        <ele>416.470</ele>
        <time>2015-03-31T09:12:54Z</time>
      </trkpt>
      <trkpt lat="41.298669" lon="-6.470354">
        <ele>412.575</ele>
        <time>2015-03-31T09:12:55Z</time>
      </trkpt>
      <trkpt lat="41.298665" lon="-6.470371">
        <ele>412.119</ele>
        <time>2015-03-31T09:12:56Z</time>
      </trkpt>
      <trkpt lat="41.298659" lon="-6.470386">
        <ele>410.113</ele>
        <time>2015-03-31T09:12:57Z</time>
      </trkpt>
      <trkpt lat="41.298634" lon="-6.470433">
        <ele>413.018</ele>
        <time>2015-03-31T09:13:00Z</time>
      </trkpt>
      <trkpt lat="41.298603" lon="-6.470535">
        <ele>413.080</ele>
        <time>2015-03-31T09:13:05Z</time>
      </trkpt>
      <trkpt lat="41.298595" lon="-6.470549">
        <ele>413.552</ele>
        <time>2015-03-31T09:13:06Z</time>
      </trkpt>
      <trkpt lat="41.298592" lon="-6.470569">
        <ele>413.553</ele>
        <time>2015-03-31T09:13:07Z</time>
      </trkpt>
      <trkpt lat="41.298589" lon="-6.470587">
        <ele>414.008</ele>
        <time>2015-03-31T09:13:08Z</time>
      </trkpt>
      <trkpt lat="41.298587" lon="-6.470605">
        <ele>414.007</ele>
        <time>2015-03-31T09:13:09Z</time>
      </trkpt>
      <trkpt lat="41.298583" lon="-6.470625">
        <ele>414.574</ele>
        <time>2015-03-31T09:13:10Z</time>
      </trkpt>
      <trkpt lat="41.298578" lon="-6.470643">
        <ele>414.539</ele>
        <time>2015-03-31T09:13:11Z</time>
      </trkpt>
      <trkpt lat="41.298573" lon="-6.470660">
        <ele>414.574</ele>
        <time>2015-03-31T09:13:12Z</time>
      </trkpt>
      <trkpt lat="41.298571" lon="-6.470679">
        <ele>415.098</ele>
        <time>2015-03-31T09:13:13Z</time>
      </trkpt>
      <trkpt lat="41.298568" lon="-6.470702">
        <ele>415.042</ele>
        <time>2015-03-31T09:13:14Z</time>
      </trkpt>
      <trkpt lat="41.298565" lon="-6.470724">
        <ele>415.047</ele>
        <time>2015-03-31T09:13:15Z</time>
      </trkpt>
      <trkpt lat="41.298562" lon="-6.470743">
        <ele>415.459</ele>
        <time>2015-03-31T09:13:16Z</time>
      </trkpt>
      <trkpt lat="41.298517" lon="-6.470889">
        <ele>416.478</ele>
        <time>2015-03-31T09:13:24Z</time>
      </trkpt>
      <trkpt lat="41.298441" lon="-6.471027">
        <ele>417.833</ele>
        <time>2015-03-31T09:13:32Z</time>
      </trkpt>
      <trkpt lat="41.298313" lon="-6.471134">
        <ele>419.326</ele>
        <time>2015-03-31T09:13:42Z</time>
      </trkpt>
      <trkpt lat="41.298235" lon="-6.471174">
        <ele>420.207</ele>
        <time>2015-03-31T09:13:47Z</time>
      </trkpt>
      <trkpt lat="41.298217" lon="-6.471179">
        <ele>420.256</ele>
        <time>2015-03-31T09:13:48Z</time>
      </trkpt>
      <trkpt lat="41.298097" lon="-6.471217">
        <ele>421.751</ele>
        <time>2015-03-31T09:13:56Z</time>
      </trkpt>
      <trkpt lat="41.298081" lon="-6.471223">
        <ele>421.786</ele>
        <time>2015-03-31T09:13:57Z</time>
      </trkpt>
      <trkpt lat="41.298065" lon="-6.471222">
        <ele>420.240</ele>
        <time>2015-03-31T09:13:58Z</time>
      </trkpt>
      <trkpt lat="41.298048" lon="-6.471220">
        <ele>422.624</ele>
        <time>2015-03-31T09:13:59Z</time>
      </trkpt>
      <trkpt lat="41.298034" lon="-6.471219">
        <ele>422.249</ele>
        <time>2015-03-31T09:14:00Z</time>
      </trkpt>
      <trkpt lat="41.298021" lon="-6.471220">
        <ele>422.611</ele>
        <time>2015-03-31T09:14:01Z</time>
      </trkpt>
      <trkpt lat="41.298008" lon="-6.471229">
        <ele>422.644</ele>
        <time>2015-03-31T09:14:02Z</time>
      </trkpt>
      <trkpt lat="41.297995" lon="-6.471237">
        <ele>422.605</ele>
        <time>2015-03-31T09:14:03Z</time>
      </trkpt>
      <trkpt lat="41.297979" lon="-6.471241">
        <ele>422.615</ele>
        <time>2015-03-31T09:14:04Z</time>
      </trkpt>
      <trkpt lat="41.297962" lon="-6.471241">
        <ele>423.107</ele>
        <time>2015-03-31T09:14:05Z</time>
      </trkpt>
      <trkpt lat="41.297907" lon="-6.471247">
        <ele>423.693</ele>
        <time>2015-03-31T09:14:09Z</time>
      </trkpt>
      <trkpt lat="41.297894" lon="-6.471246">
        <ele>423.678</ele>
        <time>2015-03-31T09:14:10Z</time>
      </trkpt>
      <trkpt lat="41.297882" lon="-6.471250">
        <ele>423.673</ele>
        <time>2015-03-31T09:14:11Z</time>
      </trkpt>
      <trkpt lat="41.297858" lon="-6.471258">
        <ele>424.177</ele>
        <time>2015-03-31T09:14:13Z</time>
      </trkpt>
      <trkpt lat="41.297780" lon="-6.471269">
        <ele>425.041</ele>
        <time>2015-03-31T09:14:19Z</time>
      </trkpt>
      <trkpt lat="41.297766" lon="-6.471265">
        <ele>425.546</ele>
        <time>2015-03-31T09:14:20Z</time>
      </trkpt>
      <trkpt lat="41.297752" lon="-6.471263">
        <ele>425.598</ele>
        <time>2015-03-31T09:14:21Z</time>
      </trkpt>
      <trkpt lat="41.297738" lon="-6.471260">
        <ele>425.547</ele>
        <time>2015-03-31T09:14:22Z</time>
      </trkpt>
      <trkpt lat="41.297723" lon="-6.471257">
        <ele>425.529</ele>
        <time>2015-03-31T09:14:23Z</time>
      </trkpt>
      <trkpt lat="41.297642" lon="-6.471250">
        <ele>426.521</ele>
        <time>2015-03-31T09:14:29Z</time>
      </trkpt>
      <trkpt lat="41.297483" lon="-6.471169">
        <ele>428.407</ele>
        <time>2015-03-31T09:14:41Z</time>
      </trkpt>
      <trkpt lat="41.297471" lon="-6.471161">
        <ele>428.463</ele>
        <time>2015-03-31T09:14:42Z</time>
      </trkpt>
      <trkpt lat="41.297456" lon="-6.471157">
        <ele>428.468</ele>
        <time>2015-03-31T09:14:43Z</time>
      </trkpt>
      <trkpt lat="41.297443" lon="-6.471150">
        <ele>428.953</ele>
        <time>2015-03-31T09:14:44Z</time>
      </trkpt>
      <trkpt lat="41.297433" lon="-6.471142">
        <ele>428.937</ele>
        <time>2015-03-31T09:14:45Z</time>
      </trkpt>
      <trkpt lat="41.297421" lon="-6.471135">
        <ele>428.941</ele>
        <time>2015-03-31T09:14:46Z</time>
      </trkpt>
      <trkpt lat="41.297406" lon="-6.471123">
        <ele>428.956</ele>
        <time>2015-03-31T09:14:47Z</time>
      </trkpt>
      <trkpt lat="41.297341" lon="-6.471064">
        <ele>429.978</ele>
        <time>2015-03-31T09:14:52Z</time>
      </trkpt>
      <trkpt lat="41.297329" lon="-6.471050">
        <ele>429.938</ele>
        <time>2015-03-31T09:14:53Z</time>
      </trkpt>
      <trkpt lat="41.297316" lon="-6.471039">
        <ele>429.970</ele>
        <time>2015-03-31T09:14:54Z</time>
      </trkpt>
      <trkpt lat="41.297304" lon="-6.471029">
        <ele>429.917</ele>
        <time>2015-03-31T09:14:55Z</time>
      </trkpt>
      <trkpt lat="41.297292" lon="-6.471018">
        <ele>429.907</ele>
        <time>2015-03-31T09:14:56Z</time>
      </trkpt>
      <trkpt lat="41.297282" lon="-6.471002">
        <ele>429.942</ele>
        <time>2015-03-31T09:14:57Z</time>
      </trkpt>
      <trkpt lat="41.297273" lon="-6.470991">
        <ele>429.927</ele>
        <time>2015-03-31T09:14:58Z</time>
      </trkpt>
      <trkpt lat="41.297264" lon="-6.470976">
        <ele>430.392</ele>
        <time>2015-03-31T09:14:59Z</time>
      </trkpt>
      <trkpt lat="41.297160" lon="-6.470800">
        <ele>430.886</ele>
        <time>2015-03-31T09:15:09Z</time>
      </trkpt>
      <trkpt lat="41.297064" lon="-6.470646">
        <ele>431.820</ele>
        <time>2015-03-31T09:15:17Z</time>
      </trkpt>
      <trkpt lat="41.297054" lon="-6.470624">
        <ele>431.865</ele>
        <time>2015-03-31T09:15:18Z</time>
      </trkpt>
      <trkpt lat="41.297017" lon="-6.470550">
        <ele>432.347</ele>
        <time>2015-03-31T09:15:22Z</time>
      </trkpt>
      <trkpt lat="41.297007" lon="-6.470536">
        <ele>432.312</ele>
        <time>2015-03-31T09:15:23Z</time>
      </trkpt>
      <trkpt lat="41.297003" lon="-6.470518">
        <ele>432.332</ele>
        <time>2015-03-31T09:15:24Z</time>
      </trkpt>
      <trkpt lat="41.296996" lon="-6.470505">
        <ele>432.705</ele>
        <time>2015-03-31T09:15:25Z</time>
      </trkpt>
      <trkpt lat="41.296987" lon="-6.470498">
        <ele>432.707</ele>
        <time>2015-03-31T09:15:26Z</time>
      </trkpt>
      <trkpt lat="41.296978" lon="-6.470488">
        <ele>432.740</ele>
        <time>2015-03-31T09:15:27Z</time>
      </trkpt>
      <trkpt lat="41.296923" lon="-6.470382">
        <ele>433.275</ele>
        <time>2015-03-31T09:15:35Z</time>
      </trkpt>
      <trkpt lat="41.296828" lon="-6.470222">
        <ele>434.760</ele>
        <time>2015-03-31T09:15:46Z</time>
      </trkpt>
      <trkpt lat="41.296776" lon="-6.470129">
        <ele>434.774</ele>
        <time>2015-03-31T09:15:51Z</time>
      </trkpt>
      <trkpt lat="41.296762" lon="-6.470113">
        <ele>434.738</ele>
        <time>2015-03-31T09:15:52Z</time>
      </trkpt>
      <trkpt lat="41.296751" lon="-6.470095">
        <ele>434.793</ele>
        <time>2015-03-31T09:15:53Z</time>
      </trkpt>
      <trkpt lat="41.296741" lon="-6.470076">
        <ele>435.185</ele>
        <time>2015-03-31T09:15:54Z</time>
      </trkpt>
      <trkpt lat="41.296733" lon="-6.470057">
        <ele>435.153</ele>
        <time>2015-03-31T09:15:55Z</time>
      </trkpt>
      <trkpt lat="41.296622" lon="-6.469872">
        <ele>436.604</ele>
        <time>2015-03-31T09:16:05Z</time>
      </trkpt>
      <trkpt lat="41.296598" lon="-6.469829">
        <ele>436.614</ele>
        <time>2015-03-31T09:16:07Z</time>
      </trkpt>
      <trkpt lat="41.296583" lon="-6.469810">
        <ele>436.607</ele>
        <time>2015-03-31T09:16:08Z</time>
      </trkpt>
      <trkpt lat="41.296571" lon="-6.469791">
        <ele>436.674</ele>
        <time>2015-03-31T09:16:09Z</time>
      </trkpt>
      <trkpt lat="41.296451" lon="-6.469610">
        <ele>438.069</ele>
        <time>2015-03-31T09:16:19Z</time>
      </trkpt>
      <trkpt lat="41.296377" lon="-6.469544">
        <ele>439.074</ele>
        <time>2015-03-31T09:16:24Z</time>
      </trkpt>
      <trkpt lat="41.296362" lon="-6.469534">
        <ele>439.088</ele>
        <time>2015-03-31T09:16:25Z</time>
      </trkpt>
      <trkpt lat="41.296244" lon="-6.469427">
        <ele>439.982</ele>
        <time>2015-03-31T09:16:33Z</time>
      </trkpt>
      <trkpt lat="41.296227" lon="-6.469420">
        <ele>439.937</ele>
        <time>2015-03-31T09:16:34Z</time>
      </trkpt>
      <trkpt lat="41.296210" lon="-6.469409">
        <ele>439.919</ele>
        <time>2015-03-31T09:16:35Z</time>
      </trkpt>
      <trkpt lat="41.296005" lon="-6.469295">
        <ele>441.434</ele>
        <time>2015-03-31T09:16:48Z</time>
      </trkpt>
      <trkpt lat="41.295904" lon="-6.469257">
        <ele>441.955</ele>
        <time>2015-03-31T09:16:54Z</time>
      </trkpt>
      <trkpt lat="41.295884" lon="-6.469258">
        <ele>442.310</ele>
        <time>2015-03-31T09:16:55Z</time>
      </trkpt>
      <trkpt lat="41.295866" lon="-6.469257">
        <ele>442.307</ele>
        <time>2015-03-31T09:16:56Z</time>
      </trkpt>
      <trkpt lat="41.295846" lon="-6.469252">
        <ele>442.382</ele>
        <time>2015-03-31T09:16:57Z</time>
      </trkpt>
      <trkpt lat="41.295825" lon="-6.469247">
        <ele>442.357</ele>
        <time>2015-03-31T09:16:58Z</time>
      </trkpt>
      <trkpt lat="41.295805" lon="-6.469244">
        <ele>442.312</ele>
        <time>2015-03-31T09:16:59Z</time>
      </trkpt>
      <trkpt lat="41.295784" lon="-6.469242">
        <ele>443.396</ele>
        <time>2015-03-31T09:17:00Z</time>
      </trkpt>
      <trkpt lat="41.295764" lon="-6.469235">
        <ele>442.820</ele>
        <time>2015-03-31T09:17:01Z</time>
      </trkpt>
      <trkpt lat="41.295742" lon="-6.469226">
        <ele>442.875</ele>
        <time>2015-03-31T09:17:02Z</time>
      </trkpt>
      <trkpt lat="41.295720" lon="-6.469224">
        <ele>442.867</ele>
        <time>2015-03-31T09:17:03Z</time>
      </trkpt>
      <trkpt lat="41.295700" lon="-6.469226">
        <ele>442.829</ele>
        <time>2015-03-31T09:17:04Z</time>
      </trkpt>
      <trkpt lat="41.295680" lon="-6.469224">
        <ele>442.800</ele>
        <time>2015-03-31T09:17:05Z</time>
      </trkpt>
      <trkpt lat="41.295660" lon="-6.469222">
        <ele>442.820</ele>
        <time>2015-03-31T09:17:06Z</time>
      </trkpt>
      <trkpt lat="41.295587" lon="-6.469217">
        <ele>443.307</ele>
        <time>2015-03-31T09:17:10Z</time>
      </trkpt>
      <trkpt lat="41.295569" lon="-6.469222">
        <ele>443.391</ele>
        <time>2015-03-31T09:17:11Z</time>
      </trkpt>
      <trkpt lat="41.295547" lon="-6.469223">
        <ele>443.336</ele>
        <time>2015-03-31T09:17:12Z</time>
      </trkpt>
      <trkpt lat="41.295525" lon="-6.469224">
        <ele>443.821</ele>
        <time>2015-03-31T09:17:13Z</time>
      </trkpt>
      <trkpt lat="41.295504" lon="-6.469220">
        <ele>443.815</ele>
        <time>2015-03-31T09:17:14Z</time>
      </trkpt>
      <trkpt lat="41.295484" lon="-6.469217">
        <ele>443.889</ele>
        <time>2015-03-31T09:17:15Z</time>
      </trkpt>
      <trkpt lat="41.295424" lon="-6.469233">
        <ele>443.874</ele>
        <time>2015-03-31T09:17:18Z</time>
      </trkpt>
      <trkpt lat="41.295238" lon="-6.469258">
        <ele>444.816</ele>
        <time>2015-03-31T09:17:28Z</time>
      </trkpt>
      <trkpt lat="41.295027" lon="-6.469289">
        <ele>445.211</ele>
        <time>2015-03-31T09:17:39Z</time>
      </trkpt>
      <trkpt lat="41.294846" lon="-6.469296">
        <ele>445.721</ele>
        <time>2015-03-31T09:17:48Z</time>
      </trkpt>
      <trkpt lat="41.294825" lon="-6.469296">
        <ele>445.203</ele>
        <time>2015-03-31T09:17:49Z</time>
      </trkpt>
      <trkpt lat="41.294618" lon="-6.469327">
        <ele>445.707</ele>
        <time>2015-03-31T09:17:59Z</time>
      </trkpt>
      <trkpt lat="41.294475" lon="-6.469351">
        <ele>446.250</ele>
        <time>2015-03-31T09:18:06Z</time>
      </trkpt>
      <trkpt lat="41.294455" lon="-6.469349">
        <ele>446.215</ele>
        <time>2015-03-31T09:18:07Z</time>
      </trkpt>
      <trkpt lat="41.294434" lon="-6.469350">
        <ele>446.220</ele>
        <time>2015-03-31T09:18:08Z</time>
      </trkpt>
      <trkpt lat="41.294416" lon="-6.469352">
        <ele>446.264</ele>
        <time>2015-03-31T09:18:09Z</time>
      </trkpt>
      <trkpt lat="41.294395" lon="-6.469355">
        <ele>446.258</ele>
        <time>2015-03-31T09:18:10Z</time>
      </trkpt>
      <trkpt lat="41.294373" lon="-6.469353">
        <ele>446.273</ele>
        <time>2015-03-31T09:18:11Z</time>
      </trkpt>
      <trkpt lat="41.294353" lon="-6.469349">
        <ele>446.295</ele>
        <time>2015-03-31T09:18:12Z</time>
      </trkpt>
      <trkpt lat="41.294332" lon="-6.469351">
        <ele>446.245</ele>
        <time>2015-03-31T09:18:13Z</time>
      </trkpt>
      <trkpt lat="41.294312" lon="-6.469355">
        <ele>446.747</ele>
        <time>2015-03-31T09:18:14Z</time>
      </trkpt>
      <trkpt lat="41.294290" lon="-6.469352">
        <ele>446.711</ele>
        <time>2015-03-31T09:18:15Z</time>
      </trkpt>
      <trkpt lat="41.294268" lon="-6.469346">
        <ele>446.707</ele>
        <time>2015-03-31T09:18:16Z</time>
      </trkpt>
      <trkpt lat="41.294147" lon="-6.469309">
        <ele>446.743</ele>
        <time>2015-03-31T09:18:22Z</time>
      </trkpt>
      <trkpt lat="41.294126" lon="-6.469299">
        <ele>446.748</ele>
        <time>2015-03-31T09:18:23Z</time>
      </trkpt>
      <trkpt lat="41.294105" lon="-6.469290">
        <ele>446.733</ele>
        <time>2015-03-31T09:18:24Z</time>
      </trkpt>
      <trkpt lat="41.294082" lon="-6.469282">
        <ele>447.217</ele>
        <time>2015-03-31T09:18:25Z</time>
      </trkpt>
      <trkpt lat="41.294061" lon="-6.469271">
        <ele>447.291</ele>
        <time>2015-03-31T09:18:26Z</time>
      </trkpt>
      <trkpt lat="41.294039" lon="-6.469258">
        <ele>447.296</ele>
        <time>2015-03-31T09:18:27Z</time>
      </trkpt>
      <trkpt lat="41.293949" lon="-6.469185">
        <ele>447.698</ele>
        <time>2015-03-31T09:18:32Z</time>
      </trkpt>
      <trkpt lat="41.293935" lon="-6.469162">
        <ele>447.646</ele>
        <time>2015-03-31T09:18:33Z</time>
      </trkpt>
      <trkpt lat="41.293918" lon="-6.469143">
        <ele>447.688</ele>
        <time>2015-03-31T09:18:34Z</time>
      </trkpt>
      <trkpt lat="41.293804" lon="-6.468931">
        <ele>449.116</ele>
        <time>2015-03-31T09:18:44Z</time>
      </trkpt>
      <trkpt lat="41.293768" lon="-6.468724">
        <ele>449.607</ele>
        <time>2015-03-31T09:18:52Z</time>
      </trkpt>
      <trkpt lat="41.293750" lon="-6.468518">
        <ele>451.543</ele>
        <time>2015-03-31T09:19:00Z</time>
      </trkpt>
      <trkpt lat="41.293760" lon="-6.468247">
        <ele>452.468</ele>
        <time>2015-03-31T09:19:10Z</time>
      </trkpt>
      <trkpt lat="41.293766" lon="-6.467958">
        <ele>453.983</ele>
        <time>2015-03-31T09:19:21Z</time>
      </trkpt>
      <trkpt lat="41.293785" lon="-6.467687">
        <ele>455.877</ele>
        <time>2015-03-31T09:19:32Z</time>
      </trkpt>
      <trkpt lat="41.293806" lon="-6.467444">
        <ele>458.221</ele>
        <time>2015-03-31T09:19:42Z</time>
      </trkpt>
      <trkpt lat="41.293868" lon="-6.467164">
        <ele>460.156</ele>
        <time>2015-03-31T09:19:53Z</time>
      </trkpt>
      <trkpt lat="41.293923" lon="-6.467025">
        <ele>461.138</ele>
        <time>2015-03-31T09:19:59Z</time>
      </trkpt>
      <trkpt lat="41.293929" lon="-6.467001">
        <ele>461.194</ele>
        <time>2015-03-31T09:20:00Z</time>
      </trkpt>
      <trkpt lat="41.293938" lon="-6.466981">
        <ele>461.657</ele>
        <time>2015-03-31T09:20:01Z</time>
      </trkpt>
      <trkpt lat="41.293998" lon="-6.466882">
        <ele>462.122</ele>
        <time>2015-03-31T09:20:06Z</time>
      </trkpt>
      <trkpt lat="41.294166" lon="-6.466716">
        <ele>463.007</ele>
        <time>2015-03-31T09:20:16Z</time>
      </trkpt>
      <trkpt lat="41.294385" lon="-6.466648">
        <ele>464.538</ele>
        <time>2015-03-31T09:20:27Z</time>
      </trkpt>
      <trkpt lat="41.294615" lon="-6.466667">
        <ele>466.433</ele>
        <time>2015-03-31T09:20:38Z</time>
      </trkpt>
      <trkpt lat="41.294863" lon="-6.466701">
        <ele>467.858</ele>
        <time>2015-03-31T09:20:50Z</time>
      </trkpt>
      <trkpt lat="41.295054" lon="-6.466678">
        <ele>469.322</ele>
        <time>2015-03-31T09:20:59Z</time>
      </trkpt>
      <trkpt lat="41.295071" lon="-6.466666">
        <ele>470.286</ele>
        <time>2015-03-31T09:21:00Z</time>
      </trkpt>
      <trkpt lat="41.295285" lon="-6.466467">
        <ele>471.231</ele>
        <time>2015-03-31T09:21:12Z</time>
      </trkpt>
      <trkpt lat="41.295404" lon="-6.466292">
        <ele>472.183</ele>
        <time>2015-03-31T09:21:21Z</time>
      </trkpt>
      <trkpt lat="41.295418" lon="-6.466275">
        <ele>472.659</ele>
        <time>2015-03-31T09:21:22Z</time>
      </trkpt>
      <trkpt lat="41.295433" lon="-6.466258">
        <ele>472.603</ele>
        <time>2015-03-31T09:21:23Z</time>
      </trkpt>
      <trkpt lat="41.295446" lon="-6.466235">
        <ele>473.123</ele>
        <time>2015-03-31T09:21:24Z</time>
      </trkpt>
      <trkpt lat="41.295456" lon="-6.466213">
        <ele>473.107</ele>
        <time>2015-03-31T09:21:25Z</time>
      </trkpt>
      <trkpt lat="41.295470" lon="-6.466194">
        <ele>473.624</ele>
        <time>2015-03-31T09:21:26Z</time>
      </trkpt>
      <trkpt lat="41.295489" lon="-6.466180">
        <ele>473.639</ele>
        <time>2015-03-31T09:21:27Z</time>
      </trkpt>
      <trkpt lat="41.295663" lon="-6.466019">
        <ele>475.074</ele>
        <time>2015-03-31T09:21:37Z</time>
      </trkpt>
      <trkpt lat="41.295701" lon="-6.466004">
        <ele>475.038</ele>
        <time>2015-03-31T09:21:39Z</time>
      </trkpt>
      <trkpt lat="41.295725" lon="-6.466002">
        <ele>475.532</ele>
        <time>2015-03-31T09:21:40Z</time>
      </trkpt>
      <trkpt lat="41.295800" lon="-6.465974">
        <ele>476.037</ele>
        <time>2015-03-31T09:21:44Z</time>
      </trkpt>
      <trkpt lat="41.295818" lon="-6.465971">
        <ele>476.089</ele>
        <time>2015-03-31T09:21:45Z</time>
      </trkpt>
      <trkpt lat="41.295837" lon="-6.465969">
        <ele>476.081</ele>
        <time>2015-03-31T09:21:46Z</time>
      </trkpt>
      <trkpt lat="41.295857" lon="-6.465966">
        <ele>476.561</ele>
        <time>2015-03-31T09:21:47Z</time>
      </trkpt>
      <trkpt lat="41.295877" lon="-6.465965">
        <ele>476.517</ele>
        <time>2015-03-31T09:21:48Z</time>
      </trkpt>
      <trkpt lat="41.295897" lon="-6.465967">
        <ele>476.507</ele>
        <time>2015-03-31T09:21:49Z</time>
      </trkpt>
      <trkpt lat="41.295915" lon="-6.465972">
        <ele>477.087</ele>
        <time>2015-03-31T09:21:50Z</time>
      </trkpt>
      <trkpt lat="41.295936" lon="-6.465980">
        <ele>477.062</ele>
        <time>2015-03-31T09:21:51Z</time>
      </trkpt>
      <trkpt lat="41.295956" lon="-6.465985">
        <ele>477.067</ele>
        <time>2015-03-31T09:21:52Z</time>
      </trkpt>
      <trkpt lat="41.295975" lon="-6.465990">
        <ele>477.481</ele>
        <time>2015-03-31T09:21:53Z</time>
      </trkpt>
      <trkpt lat="41.295995" lon="-6.465994">
        <ele>477.495</ele>
        <time>2015-03-31T09:21:54Z</time>
      </trkpt>
      <trkpt lat="41.296011" lon="-6.465998">
        <ele>477.940</ele>
        <time>2015-03-31T09:21:55Z</time>
      </trkpt>
      <trkpt lat="41.296029" lon="-6.466006">
        <ele>477.972</ele>
        <time>2015-03-31T09:21:56Z</time>
      </trkpt>
      <trkpt lat="41.296049" lon="-6.466012">
        <ele>477.973</ele>
        <time>2015-03-31T09:21:57Z</time>
      </trkpt>
      <trkpt lat="41.296069" lon="-6.466015">
        <ele>477.985</ele>
        <time>2015-03-31T09:21:58Z</time>
      </trkpt>
      <trkpt lat="41.296089" lon="-6.466018">
        <ele>478.413</ele>
        <time>2015-03-31T09:21:59Z</time>
      </trkpt>
      <trkpt lat="41.296109" lon="-6.466026">
        <ele>478.407</ele>
        <time>2015-03-31T09:22:00Z</time>
      </trkpt>
      <trkpt lat="41.296328" lon="-6.466092">
        <ele>479.866</ele>
        <time>2015-03-31T09:22:11Z</time>
      </trkpt>
      <trkpt lat="41.296508" lon="-6.466143">
        <ele>480.851</ele>
        <time>2015-03-31T09:22:20Z</time>
      </trkpt>
      <trkpt lat="41.296714" lon="-6.466164">
        <ele>482.286</ele>
        <time>2015-03-31T09:22:30Z</time>
      </trkpt>
      <trkpt lat="41.296904" lon="-6.466042">
        <ele>483.260</ele>
        <time>2015-03-31T09:22:40Z</time>
      </trkpt>
      <trkpt lat="41.296966" lon="-6.465962">
        <ele>483.734</ele>
        <time>2015-03-31T09:22:44Z</time>
      </trkpt>
      <trkpt lat="41.297086" lon="-6.465689">
        <ele>485.659</ele>
        <time>2015-03-31T09:22:54Z</time>
      </trkpt>
      <trkpt lat="41.297066" lon="-6.465332">
        <ele>487.561</ele>
        <time>2015-03-31T09:23:05Z</time>
      </trkpt>
      <trkpt lat="41.296950" lon="-6.465065">
        <ele>489.024</ele>
        <time>2015-03-31T09:23:15Z</time>
      </trkpt>
      <trkpt lat="41.296800" lon="-6.464766">
        <ele>490.404</ele>
        <time>2015-03-31T09:23:27Z</time>
      </trkpt>
      <trkpt lat="41.296655" lon="-6.464535">
        <ele>491.914</ele>
        <time>2015-03-31T09:23:37Z</time>
      </trkpt>
      <trkpt lat="41.296472" lon="-6.464199">
        <ele>493.307</ele>
        <time>2015-03-31T09:23:51Z</time>
      </trkpt>
      <trkpt lat="41.296289" lon="-6.463841">
        <ele>495.221</ele>
        <time>2015-03-31T09:24:05Z</time>
      </trkpt>
      <trkpt lat="41.296146" lon="-6.463571">
        <ele>496.286</ele>
        <time>2015-03-31T09:24:16Z</time>
      </trkpt>
      <trkpt lat="41.295952" lon="-6.463301">
        <ele>498.651</ele>
        <time>2015-03-31T09:24:28Z</time>
      </trkpt>
      <trkpt lat="41.295940" lon="-6.463275">
        <ele>498.675</ele>
        <time>2015-03-31T09:24:29Z</time>
      </trkpt>
      <trkpt lat="41.295925" lon="-6.463254">
        <ele>498.649</ele>
        <time>2015-03-31T09:24:30Z</time>
      </trkpt>
      <trkpt lat="41.295910" lon="-6.463234">
        <ele>499.134</ele>
        <time>2015-03-31T09:24:31Z</time>
      </trkpt>
      <trkpt lat="41.295894" lon="-6.463216">
        <ele>499.136</ele>
        <time>2015-03-31T09:24:32Z</time>
      </trkpt>
      <trkpt lat="41.295708" lon="-6.462997">
        <ele>501.022</ele>
        <time>2015-03-31T09:24:43Z</time>
      </trkpt>
      <trkpt lat="41.295502" lon="-6.462768">
        <ele>502.462</ele>
        <time>2015-03-31T09:24:55Z</time>
      </trkpt>
      <trkpt lat="41.295317" lon="-6.462566">
        <ele>503.408</ele>
        <time>2015-03-31T09:25:06Z</time>
      </trkpt>
      <trkpt lat="41.295303" lon="-6.462544">
        <ele>503.907</ele>
        <time>2015-03-31T09:25:07Z</time>
      </trkpt>
      <trkpt lat="41.295146" lon="-6.462348">
        <ele>504.841</ele>
        <time>2015-03-31T09:25:17Z</time>
      </trkpt>
      <trkpt lat="41.295042" lon="-6.462231">
        <ele>504.886</ele>
        <time>2015-03-31T09:25:23Z</time>
      </trkpt>
      <trkpt lat="41.295022" lon="-6.462215">
        <ele>505.351</ele>
        <time>2015-03-31T09:25:24Z</time>
      </trkpt>
      <trkpt lat="41.294858" lon="-6.461951">
        <ele>505.815</ele>
        <time>2015-03-31T09:25:35Z</time>
      </trkpt>
      <trkpt lat="41.294757" lon="-6.461557">
        <ele>505.869</ele>
        <time>2015-03-31T09:25:45Z</time>
      </trkpt>
      <trkpt lat="41.294700" lon="-6.461187">
        <ele>506.344</ele>
        <time>2015-03-31T09:25:54Z</time>
      </trkpt>
      <trkpt lat="41.294621" lon="-6.460796">
        <ele>505.346</ele>
        <time>2015-03-31T09:26:04Z</time>
      </trkpt>
      <trkpt lat="41.294562" lon="-6.460461">
        <ele>503.439</ele>
        <time>2015-03-31T09:26:10Z</time>
      </trkpt>
      <trkpt lat="41.294505" lon="-6.460159">
        <ele>502.001</ele>
        <time>2015-03-31T09:26:14Z</time>
      </trkpt>
      <trkpt lat="41.294487" lon="-6.460073">
        <ele>501.521</ele>
        <time>2015-03-31T09:26:15Z</time>
      </trkpt>
      <trkpt lat="41.294438" lon="-6.459802">
        <ele>500.007</ele>
        <time>2015-03-31T09:26:18Z</time>
      </trkpt>
      <trkpt lat="41.294374" lon="-6.459303">
        <ele>497.192</ele>
        <time>2015-03-31T09:26:23Z</time>
      </trkpt>
      <trkpt lat="41.294377" lon="-6.458716">
        <ele>493.347</ele>
        <time>2015-03-31T09:26:28Z</time>
      </trkpt>
      <trkpt lat="41.294393" lon="-6.458321">
        <ele>490.492</ele>
        <time>2015-03-31T09:26:31Z</time>
      </trkpt>
      <trkpt lat="41.294462" lon="-6.457778">
        <ele>487.526</ele>
        <time>2015-03-31T09:26:35Z</time>
      </trkpt>
      <trkpt lat="41.294504" lon="-6.457648">
        <ele>487.110</ele>
        <time>2015-03-31T09:26:36Z</time>
      </trkpt>
      <trkpt lat="41.294607" lon="-6.457403">
        <ele>485.615</ele>
        <time>2015-03-31T09:26:38Z</time>
      </trkpt>
      <trkpt lat="41.294671" lon="-6.457295">
        <ele>484.637</ele>
        <time>2015-03-31T09:26:39Z</time>
      </trkpt>
      <trkpt lat="41.294812" lon="-6.457099">
        <ele>483.751</ele>
        <time>2015-03-31T09:26:41Z</time>
      </trkpt>
      <trkpt lat="41.295305" lon="-6.456257">
        <ele>482.701</ele>
        <time>2015-03-31T09:26:50Z</time>
      </trkpt>
      <trkpt lat="41.295335" lon="-6.456164">
        <ele>483.211</ele>
        <time>2015-03-31T09:26:51Z</time>
      </trkpt>
      <trkpt lat="41.295374" lon="-6.455993">
        <ele>483.207</ele>
        <time>2015-03-31T09:26:53Z</time>
      </trkpt>
      <trkpt lat="41.295458" lon="-6.455481">
        <ele>486.614</ele>
        <time>2015-03-31T09:27:01Z</time>
      </trkpt>
      <trkpt lat="41.295527" lon="-6.455106">
        <ele>488.029</ele>
        <time>2015-03-31T09:27:10Z</time>
      </trkpt>
      <trkpt lat="41.295534" lon="-6.455005">
        <ele>488.554</ele>
        <time>2015-03-31T09:27:13Z</time>
      </trkpt>
      <trkpt lat="41.295544" lon="-6.454811">
        <ele>489.528</ele>
        <time>2015-03-31T09:27:19Z</time>
      </trkpt>
      <trkpt lat="41.295551" lon="-6.454779">
        <ele>489.552</ele>
        <time>2015-03-31T09:27:20Z</time>
      </trkpt>
      <trkpt lat="41.295555" lon="-6.454748">
        <ele>489.547</ele>
        <time>2015-03-31T09:27:21Z</time>
      </trkpt>
      <trkpt lat="41.295558" lon="-6.454474">
        <ele>491.499</ele>
        <time>2015-03-31T09:27:30Z</time>
      </trkpt>
      <trkpt lat="41.295533" lon="-6.454253">
        <ele>493.396</ele>
        <time>2015-03-31T09:27:39Z</time>
      </trkpt>
      <trkpt lat="41.295498" lon="-6.453948">
        <ele>495.231</ele>
        <time>2015-03-31T09:27:49Z</time>
      </trkpt>
      <trkpt lat="41.295449" lon="-6.453646">
        <ele>497.124</ele>
        <time>2015-03-31T09:28:00Z</time>
      </trkpt>
      <trkpt lat="41.295383" lon="-6.453415">
        <ele>499.107</ele>
        <time>2015-03-31T09:28:10Z</time>
      </trkpt>
      <trkpt lat="41.295368" lon="-6.453369">
        <ele>499.518</ele>
        <time>2015-03-31T09:28:12Z</time>
      </trkpt>
      <trkpt lat="41.295357" lon="-6.453349">
        <ele>499.593</ele>
        <time>2015-03-31T09:28:13Z</time>
      </trkpt>
      <trkpt lat="41.295350" lon="-6.453325">
        <ele>499.578</ele>
        <time>2015-03-31T09:28:14Z</time>
      </trkpt>
      <trkpt lat="41.295261" lon="-6.453050">
        <ele>502.022</ele>
        <time>2015-03-31T09:28:25Z</time>
      </trkpt>
      <trkpt lat="41.295187" lon="-6.452806">
        <ele>503.946</ele>
        <time>2015-03-31T09:28:35Z</time>
      </trkpt>
      <trkpt lat="41.295140" lon="-6.452520">
        <ele>505.891</ele>
        <time>2015-03-31T09:28:47Z</time>
      </trkpt>
      <trkpt lat="41.295136" lon="-6.452275">
        <ele>508.723</ele>
        <time>2015-03-31T09:28:57Z</time>
      </trkpt>
      <trkpt lat="41.295156" lon="-6.452058">
        <ele>510.624</ele>
        <time>2015-03-31T09:29:07Z</time>
      </trkpt>
      <trkpt lat="41.295221" lon="-6.451810">
        <ele>512.504</ele>
        <time>2015-03-31T09:29:18Z</time>
      </trkpt>
      <trkpt lat="41.295288" lon="-6.451591">
        <ele>514.414</ele>
        <time>2015-03-31T09:29:28Z</time>
      </trkpt>
      <trkpt lat="41.295324" lon="-6.451437">
        <ele>514.907</ele>
        <time>2015-03-31T09:29:35Z</time>
      </trkpt>
      <trkpt lat="41.295334" lon="-6.451419">
        <ele>515.461</ele>
        <time>2015-03-31T09:29:36Z</time>
      </trkpt>
      <trkpt lat="41.295340" lon="-6.451397">
        <ele>515.486</ele>
        <time>2015-03-31T09:29:37Z</time>
      </trkpt>
      <trkpt lat="41.295367" lon="-6.451187">
        <ele>516.981</ele>
        <time>2015-03-31T09:29:46Z</time>
      </trkpt>
      <trkpt lat="41.295364" lon="-6.451165">
        <ele>516.985</ele>
        <time>2015-03-31T09:29:47Z</time>
      </trkpt>
      <trkpt lat="41.295363" lon="-6.451141">
        <ele>517.389</ele>
        <time>2015-03-31T09:29:48Z</time>
      </trkpt>
      <trkpt lat="41.295340" lon="-6.450833">
        <ele>519.724</ele>
        <time>2015-03-31T09:30:00Z</time>
      </trkpt>
      <trkpt lat="41.295328" lon="-6.450786">
        <ele>519.766</ele>
        <time>2015-03-31T09:30:02Z</time>
      </trkpt>
      <trkpt lat="41.295258" lon="-6.450508">
        <ele>522.189</ele>
        <time>2015-03-31T09:30:13Z</time>
      </trkpt>
      <trkpt lat="41.295176" lon="-6.450192">
        <ele>525.006</ele>
        <time>2015-03-31T09:30:25Z</time>
      </trkpt>
      <trkpt lat="41.295135" lon="-6.449951">
        <ele>526.926</ele>
        <time>2015-03-31T09:30:35Z</time>
      </trkpt>
      <trkpt lat="41.295132" lon="-6.449928">
        <ele>526.907</ele>
        <time>2015-03-31T09:30:36Z</time>
      </trkpt>
      <trkpt lat="41.295130" lon="-6.449909">
        <ele>527.457</ele>
        <time>2015-03-31T09:30:37Z</time>
      </trkpt>
      <trkpt lat="41.295122" lon="-6.449705">
        <ele>528.952</ele>
        <time>2015-03-31T09:30:47Z</time>
      </trkpt>
      <trkpt lat="41.295126" lon="-6.449689">
        <ele>529.367</ele>
        <time>2015-03-31T09:30:48Z</time>
      </trkpt>
      <trkpt lat="41.295125" lon="-6.449668">
        <ele>529.391</ele>
        <time>2015-03-31T09:30:49Z</time>
      </trkpt>
      <trkpt lat="41.295121" lon="-6.449650">
        <ele>529.365</ele>
        <time>2015-03-31T09:30:50Z</time>
      </trkpt>
      <trkpt lat="41.295118" lon="-6.449633">
        <ele>529.310</ele>
        <time>2015-03-31T09:30:51Z</time>
      </trkpt>
      <trkpt lat="41.295119" lon="-6.449614">
        <ele>529.842</ele>
        <time>2015-03-31T09:30:52Z</time>
      </trkpt>
      <trkpt lat="41.295120" lon="-6.449593">
        <ele>529.892</ele>
        <time>2015-03-31T09:30:53Z</time>
      </trkpt>
      <trkpt lat="41.295121" lon="-6.449572">
        <ele>529.873</ele>
        <time>2015-03-31T09:30:54Z</time>
      </trkpt>
      <trkpt lat="41.295127" lon="-6.449550">
        <ele>529.820</ele>
        <time>2015-03-31T09:30:55Z</time>
      </trkpt>
      <trkpt lat="41.295135" lon="-6.449526">
        <ele>530.307</ele>
        <time>2015-03-31T09:30:56Z</time>
      </trkpt>
      <trkpt lat="41.295139" lon="-6.449503">
        <ele>530.398</ele>
        <time>2015-03-31T09:30:57Z</time>
      </trkpt>
      <trkpt lat="41.295140" lon="-6.449481">
        <ele>530.853</ele>
        <time>2015-03-31T09:30:58Z</time>
      </trkpt>
      <trkpt lat="41.295137" lon="-6.449458">
        <ele>530.818</ele>
        <time>2015-03-31T09:30:59Z</time>
      </trkpt>
      <trkpt lat="41.295136" lon="-6.449441">
        <ele>530.812</ele>
        <time>2015-03-31T09:31:00Z</time>
      </trkpt>
      <trkpt lat="41.295139" lon="-6.449423">
        <ele>532.246</ele>
        <time>2015-03-31T09:31:01Z</time>
      </trkpt>
      <trkpt lat="41.295143" lon="-6.449401">
        <ele>531.391</ele>
        <time>2015-03-31T09:31:02Z</time>
      </trkpt>
      <trkpt lat="41.295143" lon="-6.449377">
        <ele>531.313</ele>
        <time>2015-03-31T09:31:03Z</time>
      </trkpt>
      <trkpt lat="41.295143" lon="-6.449356">
        <ele>531.845</ele>
        <time>2015-03-31T09:31:04Z</time>
      </trkpt>
      <trkpt lat="41.295143" lon="-6.449334">
        <ele>531.847</ele>
        <time>2015-03-31T09:31:05Z</time>
      </trkpt>
      <trkpt lat="41.295147" lon="-6.449312">
        <ele>531.811</ele>
        <time>2015-03-31T09:31:06Z</time>
      </trkpt>
      <trkpt lat="41.295154" lon="-6.449289">
        <ele>531.807</ele>
        <time>2015-03-31T09:31:07Z</time>
      </trkpt>
      <trkpt lat="41.295176" lon="-6.449153">
        <ele>532.723</ele>
        <time>2015-03-31T09:31:13Z</time>
      </trkpt>
      <trkpt lat="41.295183" lon="-6.449130">
        <ele>533.218</ele>
        <time>2015-03-31T09:31:14Z</time>
      </trkpt>
      <trkpt lat="41.295188" lon="-6.449104">
        <ele>533.293</ele>
        <time>2015-03-31T09:31:15Z</time>
      </trkpt>
      <trkpt lat="41.295249" lon="-6.448798">
        <ele>534.657</ele>
        <time>2015-03-31T09:31:27Z</time>
      </trkpt>
      <trkpt lat="41.295284" lon="-6.448555">
        <ele>535.611</ele>
        <time>2015-03-31T09:31:37Z</time>
      </trkpt>
      <trkpt lat="41.295314" lon="-6.448298">
        <ele>537.056</ele>
        <time>2015-03-31T09:31:47Z</time>
      </trkpt>
      <trkpt lat="41.295341" lon="-6.448011">
        <ele>538.518</ele>
        <time>2015-03-31T09:31:58Z</time>
      </trkpt>
      <trkpt lat="41.295345" lon="-6.447765">
        <ele>539.477</ele>
        <time>2015-03-31T09:32:07Z</time>
      </trkpt>
      <trkpt lat="41.295356" lon="-6.447521">
        <ele>540.961</ele>
        <time>2015-03-31T09:32:17Z</time>
      </trkpt>
      <trkpt lat="41.295363" lon="-6.447447">
        <ele>541.827</ele>
        <time>2015-03-31T09:32:20Z</time>
      </trkpt>
      <trkpt lat="41.295362" lon="-6.447423">
        <ele>541.807</ele>
        <time>2015-03-31T09:32:21Z</time>
      </trkpt>
      <trkpt lat="41.295362" lon="-6.447398">
        <ele>541.856</ele>
        <time>2015-03-31T09:32:22Z</time>
      </trkpt>
      <trkpt lat="41.295362" lon="-6.447373">
        <ele>542.341</ele>
        <time>2015-03-31T09:32:23Z</time>
      </trkpt>
      <trkpt lat="41.295362" lon="-6.447350">
        <ele>542.386</ele>
        <time>2015-03-31T09:32:24Z</time>
      </trkpt>
      <trkpt lat="41.295363" lon="-6.447327">
        <ele>542.830</ele>
        <time>2015-03-31T09:32:25Z</time>
      </trkpt>
      <trkpt lat="41.295389" lon="-6.447100">
        <ele>544.264</ele>
        <time>2015-03-31T09:32:35Z</time>
      </trkpt>
      <trkpt lat="41.295389" lon="-6.447080">
        <ele>544.299</ele>
        <time>2015-03-31T09:32:36Z</time>
      </trkpt>
      <trkpt lat="41.295392" lon="-6.447059">
        <ele>544.211</ele>
        <time>2015-03-31T09:32:37Z</time>
      </trkpt>
      <trkpt lat="41.295395" lon="-6.447038">
        <ele>544.745</ele>
        <time>2015-03-31T09:32:38Z</time>
      </trkpt>
      <trkpt lat="41.295394" lon="-6.447017">
        <ele>544.747</ele>
        <time>2015-03-31T09:32:39Z</time>
      </trkpt>
      <trkpt lat="41.295396" lon="-6.446995">
        <ele>545.211</ele>
        <time>2015-03-31T09:32:40Z</time>
      </trkpt>
      <trkpt lat="41.295396" lon="-6.446973">
        <ele>545.207</ele>
        <time>2015-03-31T09:32:41Z</time>
      </trkpt>
      <trkpt lat="41.295394" lon="-6.446951">
        <ele>545.233</ele>
        <time>2015-03-31T09:32:42Z</time>
      </trkpt>
      <trkpt lat="41.295393" lon="-6.446927">
        <ele>545.268</ele>
        <time>2015-03-31T09:32:43Z</time>
      </trkpt>
      <trkpt lat="41.295407" lon="-6.446649">
        <ele>547.183</ele>
        <time>2015-03-31T09:32:54Z</time>
      </trkpt>
      <trkpt lat="41.295415" lon="-6.446321">
        <ele>549.597</ele>
        <time>2015-03-31T09:33:07Z</time>
      </trkpt>
      <trkpt lat="41.295426" lon="-6.446006">
        <ele>551.551</ele>
        <time>2015-03-31T09:33:20Z</time>
      </trkpt>
      <trkpt lat="41.295448" lon="-6.445707">
        <ele>553.446</ele>
        <time>2015-03-31T09:33:32Z</time>
      </trkpt>
      <trkpt lat="41.295452" lon="-6.445371">
        <ele>555.838</ele>
        <time>2015-03-31T09:33:45Z</time>
      </trkpt>
      <trkpt lat="41.295443" lon="-6.445101">
        <ele>557.741</ele>
        <time>2015-03-31T09:33:56Z</time>
      </trkpt>
      <trkpt lat="41.295402" lon="-6.444802">
        <ele>559.681</ele>
        <time>2015-03-31T09:34:08Z</time>
      </trkpt>
      <trkpt lat="41.295347" lon="-6.444504">
        <ele>561.609</ele>
        <time>2015-03-31T09:34:19Z</time>
      </trkpt>
      <trkpt lat="41.295279" lon="-6.444169">
        <ele>563.007</ele>
        <time>2015-03-31T09:34:32Z</time>
      </trkpt>
      <trkpt lat="41.295244" lon="-6.443954">
        <ele>564.043</ele>
        <time>2015-03-31T09:34:40Z</time>
      </trkpt>
      <trkpt lat="41.295238" lon="-6.443936">
        <ele>563.538</ele>
        <time>2015-03-31T09:34:41Z</time>
      </trkpt>
      <trkpt lat="41.295231" lon="-6.443923">
        <ele>564.063</ele>
        <time>2015-03-31T09:34:42Z</time>
      </trkpt>
      <trkpt lat="41.295221" lon="-6.443911">
        <ele>564.057</ele>
        <time>2015-03-31T09:34:50Z</time>
      </trkpt>
      <trkpt lat="41.295217" lon="-6.443907">
        <ele>564.051</ele>
        <time>2015-03-31T09:35:09Z</time>
      </trkpt>
      <trkpt lat="41.295215" lon="-6.443906">
        <ele>564.046</ele>
        <time>2015-03-31T09:35:27Z</time>
      </trkpt>
      <trkpt lat="41.295224" lon="-6.443913">
        <ele>564.098</ele>
        <time>2015-03-31T09:35:46Z</time>
      </trkpt>
      <trkpt lat="41.295226" lon="-6.443912">
        <ele>564.073</ele>
        <time>2015-03-31T09:35:59Z</time>
      </trkpt>
      <trkpt lat="41.295226" lon="-6.443914">
        <ele>563.585</ele>
        <time>2015-03-31T09:36:20Z</time>
      </trkpt>
      <trkpt lat="41.295226" lon="-6.443915">
        <ele>563.513</ele>
        <time>2015-03-31T09:36:29Z</time>
      </trkpt>
      <trkpt lat="41.295227" lon="-6.443899">
        <ele>563.507</ele>
        <time>2015-03-31T09:36:30Z</time>
      </trkpt>
      <trkpt lat="41.295205" lon="-6.443712">
        <ele>564.016</ele>
        <time>2015-03-31T09:36:40Z</time>
      </trkpt>
      <trkpt lat="41.295161" lon="-6.443387">
        <ele>564.471</ele>
        <time>2015-03-31T09:36:51Z</time>
      </trkpt>
      <trkpt lat="41.295129" lon="-6.443131">
        <ele>568.376</ele>
        <time>2015-03-31T09:36:59Z</time>
      </trkpt>
      <trkpt lat="41.295127" lon="-6.443102">
        <ele>564.450</ele>
        <time>2015-03-31T09:37:00Z</time>
      </trkpt>
      <trkpt lat="41.295111" lon="-6.442724">
        <ele>566.474</ele>
        <time>2015-03-31T09:37:12Z</time>
      </trkpt>
      <trkpt lat="41.295107" lon="-6.442398">
        <ele>567.849</ele>
        <time>2015-03-31T09:37:22Z</time>
      </trkpt>
      <trkpt lat="41.295097" lon="-6.442129">
        <ele>569.211</ele>
        <time>2015-03-31T09:37:31Z</time>
      </trkpt>
      <trkpt lat="41.295107" lon="-6.441751">
        <ele>571.231</ele>
        <time>2015-03-31T09:37:43Z</time>
      </trkpt>
      <trkpt lat="41.295108" lon="-6.441429">
        <ele>573.161</ele>
        <time>2015-03-31T09:37:54Z</time>
      </trkpt>
      <trkpt lat="41.295115" lon="-6.441078">
        <ele>575.507</ele>
        <time>2015-03-31T09:38:06Z</time>
      </trkpt>
      <trkpt lat="41.295114" lon="-6.440755">
        <ele>577.907</ele>
        <time>2015-03-31T09:38:17Z</time>
      </trkpt>
      <trkpt lat="41.295135" lon="-6.440295">
        <ele>581.322</ele>
        <time>2015-03-31T09:38:32Z</time>
      </trkpt>
      <trkpt lat="41.295206" lon="-6.439905">
        <ele>583.217</ele>
        <time>2015-03-31T09:38:45Z</time>
      </trkpt>
      <trkpt lat="41.295341" lon="-6.439587">
        <ele>584.662</ele>
        <time>2015-03-31T09:38:56Z</time>
      </trkpt>
      <trkpt lat="41.295511" lon="-6.439361">
        <ele>585.686</ele>
        <time>2015-03-31T09:39:06Z</time>
      </trkpt>
      <trkpt lat="41.295744" lon="-6.439165">
        <ele>586.530</ele>
        <time>2015-03-31T09:39:17Z</time>
      </trkpt>
      <trkpt lat="41.296024" lon="-6.438908">
        <ele>587.565</ele>
        <time>2015-03-31T09:39:29Z</time>
      </trkpt>
      <trkpt lat="41.296208" lon="-6.438562">
        <ele>587.597</ele>
        <time>2015-03-31T09:39:40Z</time>
      </trkpt>
      <trkpt lat="41.296389" lon="-6.438017">
        <ele>588.032</ele>
        <time>2015-03-31T09:39:54Z</time>
      </trkpt>
      <trkpt lat="41.296572" lon="-6.437438">
        <ele>589.092</ele>
        <time>2015-03-31T09:40:08Z</time>
      </trkpt>
      <trkpt lat="41.296751" lon="-6.436942">
        <ele>590.911</ele>
        <time>2015-03-31T09:40:21Z</time>
      </trkpt>
      <trkpt lat="41.296993" lon="-6.436613">
        <ele>592.307</ele>
        <time>2015-03-31T09:40:33Z</time>
      </trkpt>
      <trkpt lat="41.297273" lon="-6.436405">
        <ele>594.792</ele>
        <time>2015-03-31T09:40:47Z</time>
      </trkpt>
      <trkpt lat="41.297548" lon="-6.436206">
        <ele>597.677</ele>
        <time>2015-03-31T09:41:01Z</time>
      </trkpt>
      <trkpt lat="41.297702" lon="-6.436025">
        <ele>600.092</ele>
        <time>2015-03-31T09:41:11Z</time>
      </trkpt>
      <trkpt lat="41.297817" lon="-6.435770">
        <ele>601.486</ele>
        <time>2015-03-31T09:41:22Z</time>
      </trkpt>
      <trkpt lat="41.297909" lon="-6.435490">
        <ele>603.450</ele>
        <time>2015-03-31T09:41:32Z</time>
      </trkpt>
      <trkpt lat="41.297970" lon="-6.435232">
        <ele>604.895</ele>
        <time>2015-03-31T09:41:41Z</time>
      </trkpt>
      <trkpt lat="41.298020" lon="-6.434861">
        <ele>607.277</ele>
        <time>2015-03-31T09:41:53Z</time>
      </trkpt>
      <trkpt lat="41.298102" lon="-6.434594">
        <ele>608.216</ele>
        <time>2015-03-31T09:42:02Z</time>
      </trkpt>
      <trkpt lat="41.298204" lon="-6.434272">
        <ele>610.176</ele>
        <time>2015-03-31T09:42:13Z</time>
      </trkpt>
      <trkpt lat="41.298300" lon="-6.433935">
        <ele>612.013</ele>
        <time>2015-03-31T09:42:24Z</time>
      </trkpt>
      <trkpt lat="41.298394" lon="-6.433635">
        <ele>613.907</ele>
        <time>2015-03-31T09:42:34Z</time>
      </trkpt>
      <trkpt lat="41.298488" lon="-6.433251">
        <ele>615.940</ele>
        <time>2015-03-31T09:42:46Z</time>
      </trkpt>
      <trkpt lat="41.298530" lon="-6.432897">
        <ele>616.395</ele>
        <time>2015-03-31T09:42:56Z</time>
      </trkpt>
      <trkpt lat="41.298509" lon="-6.432452">
        <ele>615.490</ele>
        <time>2015-03-31T09:43:05Z</time>
      </trkpt>
      <trkpt lat="41.298413" lon="-6.431764">
        <ele>613.014</ele>
        <time>2015-03-31T09:43:15Z</time>
      </trkpt>
      <trkpt lat="41.298290" lon="-6.430924">
        <ele>611.138</ele>
        <time>2015-03-31T09:43:25Z</time>
      </trkpt>
      <trkpt lat="41.298272" lon="-6.430683">
        <ele>611.123</ele>
        <time>2015-03-31T09:43:28Z</time>
      </trkpt>
      <trkpt lat="41.298273" lon="-6.430605">
        <ele>611.115</ele>
        <time>2015-03-31T09:43:29Z</time>
      </trkpt>
      <trkpt lat="41.298268" lon="-6.430368">
        <ele>610.685</ele>
        <time>2015-03-31T09:43:32Z</time>
      </trkpt>
      <trkpt lat="41.298270" lon="-6.430291">
        <ele>611.189</ele>
        <time>2015-03-31T09:43:33Z</time>
      </trkpt>
      <trkpt lat="41.298301" lon="-6.429670">
        <ele>611.117</ele>
        <time>2015-03-31T09:43:41Z</time>
      </trkpt>
      <trkpt lat="41.298311" lon="-6.429522">
        <ele>611.507</ele>
        <time>2015-03-31T09:43:43Z</time>
      </trkpt>
      <trkpt lat="41.298321" lon="-6.429446">
        <ele>611.567</ele>
        <time>2015-03-31T09:43:44Z</time>
      </trkpt>
      <trkpt lat="41.298329" lon="-6.429372">
        <ele>611.572</ele>
        <time>2015-03-31T09:43:45Z</time>
      </trkpt>
      <trkpt lat="41.298338" lon="-6.429301">
        <ele>612.097</ele>
        <time>2015-03-31T09:43:46Z</time>
      </trkpt>
      <trkpt lat="41.298343" lon="-6.429233">
        <ele>612.591</ele>
        <time>2015-03-31T09:43:47Z</time>
      </trkpt>
      <trkpt lat="41.298350" lon="-6.429165">
        <ele>612.575</ele>
        <time>2015-03-31T09:43:48Z</time>
      </trkpt>
      <trkpt lat="41.298358" lon="-6.429098">
        <ele>612.530</ele>
        <time>2015-03-31T09:43:49Z</time>
      </trkpt>
      <trkpt lat="41.298366" lon="-6.429031">
        <ele>613.092</ele>
        <time>2015-03-31T09:43:50Z</time>
      </trkpt>
      <trkpt lat="41.298388" lon="-6.428837">
        <ele>613.523</ele>
        <time>2015-03-31T09:43:53Z</time>
      </trkpt>
      <trkpt lat="41.298393" lon="-6.428776">
        <ele>613.583</ele>
        <time>2015-03-31T09:43:54Z</time>
      </trkpt>
      <trkpt lat="41.298409" lon="-6.428653">
        <ele>613.911</ele>
        <time>2015-03-31T09:43:56Z</time>
      </trkpt>
      <trkpt lat="41.298418" lon="-6.428593">
        <ele>613.907</ele>
        <time>2015-03-31T09:43:57Z</time>
      </trkpt>
      <trkpt lat="41.298440" lon="-6.428415">
        <ele>614.941</ele>
        <time>2015-03-31T09:44:00Z</time>
      </trkpt>
      <trkpt lat="41.298454" lon="-6.428238">
        <ele>615.496</ele>
        <time>2015-03-31T09:44:03Z</time>
      </trkpt>
      <trkpt lat="41.298499" lon="-6.427859">
        <ele>616.831</ele>
        <time>2015-03-31T09:44:10Z</time>
      </trkpt>
      <trkpt lat="41.298505" lon="-6.427806">
        <ele>616.825</ele>
        <time>2015-03-31T09:44:11Z</time>
      </trkpt>
      <trkpt lat="41.298510" lon="-6.427756">
        <ele>617.359</ele>
        <time>2015-03-31T09:44:12Z</time>
      </trkpt>
      <trkpt lat="41.298514" lon="-6.427705">
        <ele>617.314</ele>
        <time>2015-03-31T09:44:13Z</time>
      </trkpt>
      <trkpt lat="41.298519" lon="-6.427656">
        <ele>617.826</ele>
        <time>2015-03-31T09:44:14Z</time>
      </trkpt>
      <trkpt lat="41.298581" lon="-6.427139">
        <ele>620.723</ele>
        <time>2015-03-31T09:44:25Z</time>
      </trkpt>
      <trkpt lat="41.298633" lon="-6.426752">
        <ele>623.683</ele>
        <time>2015-03-31T09:44:35Z</time>
      </trkpt>
      <trkpt lat="41.298672" lon="-6.426380">
        <ele>626.011</ele>
        <time>2015-03-31T09:44:45Z</time>
      </trkpt>
      <trkpt lat="41.298701" lon="-6.426075">
        <ele>628.407</ele>
        <time>2015-03-31T09:44:54Z</time>
      </trkpt>
      <trkpt lat="41.298750" lon="-6.425761">
        <ele>630.841</ele>
        <time>2015-03-31T09:45:04Z</time>
      </trkpt>
      <trkpt lat="41.298803" lon="-6.425441">
        <ele>633.246</ele>
        <time>2015-03-31T09:45:14Z</time>
      </trkpt>
      <trkpt lat="41.298893" lon="-6.425153">
        <ele>634.611</ele>
        <time>2015-03-31T09:45:23Z</time>
      </trkpt>
      <trkpt lat="41.298961" lon="-6.424882">
        <ele>636.145</ele>
        <time>2015-03-31T09:45:32Z</time>
      </trkpt>
      <trkpt lat="41.299062" lon="-6.424580">
        <ele>638.589</ele>
        <time>2015-03-31T09:45:42Z</time>
      </trkpt>
      <trkpt lat="41.299188" lon="-6.424256">
        <ele>640.434</ele>
        <time>2015-03-31T09:45:53Z</time>
      </trkpt>
      <trkpt lat="41.299309" lon="-6.423930">
        <ele>643.386</ele>
        <time>2015-03-31T09:46:04Z</time>
      </trkpt>
      <trkpt lat="41.299438" lon="-6.423603">
        <ele>644.784</ele>
        <time>2015-03-31T09:46:15Z</time>
      </trkpt>
      <trkpt lat="41.299565" lon="-6.423272">
        <ele>646.107</ele>
        <time>2015-03-31T09:46:26Z</time>
      </trkpt>
      <trkpt lat="41.299715" lon="-6.422880">
        <ele>647.117</ele>
        <time>2015-03-31T09:46:37Z</time>
      </trkpt>
      <trkpt lat="41.299888" lon="-6.422452">
        <ele>648.107</ele>
        <time>2015-03-31T09:46:49Z</time>
      </trkpt>
      <trkpt lat="41.300053" lon="-6.421942">
        <ele>648.657</ele>
        <time>2015-03-31T09:47:02Z</time>
      </trkpt>
      <trkpt lat="41.300197" lon="-6.421396">
        <ele>648.132</ele>
        <time>2015-03-31T09:47:14Z</time>
      </trkpt>
      <trkpt lat="41.300313" lon="-6.420822">
        <ele>648.687</ele>
        <time>2015-03-31T09:47:26Z</time>
      </trkpt>
      <trkpt lat="41.300341" lon="-6.420617">
        <ele>648.191</ele>
        <time>2015-03-31T09:47:30Z</time>
      </trkpt>
      <trkpt lat="41.300361" lon="-6.420514">
        <ele>648.195</ele>
        <time>2015-03-31T09:47:32Z</time>
      </trkpt>
      <trkpt lat="41.300369" lon="-6.420461">
        <ele>648.650</ele>
        <time>2015-03-31T09:47:33Z</time>
      </trkpt>
      <trkpt lat="41.300376" lon="-6.420407">
        <ele>648.692</ele>
        <time>2015-03-31T09:47:34Z</time>
      </trkpt>
      <trkpt lat="41.300384" lon="-6.420354">
        <ele>648.649</ele>
        <time>2015-03-31T09:47:35Z</time>
      </trkpt>
      <trkpt lat="41.300394" lon="-6.420300">
        <ele>648.602</ele>
        <time>2015-03-31T09:47:36Z</time>
      </trkpt>
      <trkpt lat="41.300471" lon="-6.419869">
        <ele>649.022</ele>
        <time>2015-03-31T09:47:44Z</time>
      </trkpt>
      <trkpt lat="41.300480" lon="-6.419816">
        <ele>649.007</ele>
        <time>2015-03-31T09:47:45Z</time>
      </trkpt>
      <trkpt lat="41.300492" lon="-6.419762">
        <ele>649.033</ele>
        <time>2015-03-31T09:47:46Z</time>
      </trkpt>
      <trkpt lat="41.300598" lon="-6.419216">
        <ele>650.578</ele>
        <time>2015-03-31T09:47:57Z</time>
      </trkpt>
      <trkpt lat="41.300711" lon="-6.418745">
        <ele>651.483</ele>
        <time>2015-03-31T09:48:07Z</time>
      </trkpt>
      <trkpt lat="41.300916" lon="-6.418183">
        <ele>651.937</ele>
        <time>2015-03-31T09:48:19Z</time>
      </trkpt>
      <trkpt lat="41.300936" lon="-6.418134">
        <ele>651.981</ele>
        <time>2015-03-31T09:48:20Z</time>
      </trkpt>
      <trkpt lat="41.301120" lon="-6.417686">
        <ele>652.446</ele>
        <time>2015-03-31T09:48:30Z</time>
      </trkpt>
      <trkpt lat="41.301324" lon="-6.417204">
        <ele>652.488</ele>
        <time>2015-03-31T09:48:41Z</time>
      </trkpt>
      <trkpt lat="41.301394" lon="-6.417041">
        <ele>652.477</ele>
        <time>2015-03-31T09:48:45Z</time>
      </trkpt>
      <trkpt lat="41.301411" lon="-6.416997">
        <ele>652.461</ele>
        <time>2015-03-31T09:48:46Z</time>
      </trkpt>
      <trkpt lat="41.301607" lon="-6.416547">
        <ele>651.927</ele>
        <time>2015-03-31T09:48:56Z</time>
      </trkpt>
      <trkpt lat="41.301779" lon="-6.416143">
        <ele>651.907</ele>
        <time>2015-03-31T09:49:06Z</time>
      </trkpt>
      <trkpt lat="41.301926" lon="-6.415813">
        <ele>651.466</ele>
        <time>2015-03-31T09:49:15Z</time>
      </trkpt>
      <trkpt lat="41.302045" lon="-6.415490">
        <ele>651.451</ele>
        <time>2015-03-31T09:49:23Z</time>
      </trkpt>
      <trkpt lat="41.302183" lon="-6.415149">
        <ele>651.466</ele>
        <time>2015-03-31T09:49:31Z</time>
      </trkpt>
      <trkpt lat="41.302339" lon="-6.414784">
        <ele>651.460</ele>
        <time>2015-03-31T09:49:40Z</time>
      </trkpt>
      <trkpt lat="41.302514" lon="-6.414387">
        <ele>651.424</ele>
        <time>2015-03-31T09:49:49Z</time>
      </trkpt>
      <trkpt lat="41.302693" lon="-6.413992">
        <ele>651.999</ele>
        <time>2015-03-31T09:49:58Z</time>
      </trkpt>
      <trkpt lat="41.302923" lon="-6.413557">
        <ele>651.951</ele>
        <time>2015-03-31T09:50:09Z</time>
      </trkpt>
      <trkpt lat="41.303204" lon="-6.413168">
        <ele>651.428</ele>
        <time>2015-03-31T09:50:20Z</time>
      </trkpt>
      <trkpt lat="41.303233" lon="-6.413133">
        <ele>651.089</ele>
        <time>2015-03-31T09:50:21Z</time>
      </trkpt>
      <trkpt lat="41.303652" lon="-6.412767">
        <ele>649.017</ele>
        <time>2015-03-31T09:50:32Z</time>
      </trkpt>
      <trkpt lat="41.303838" lon="-6.412638">
        <ele>648.107</ele>
        <time>2015-03-31T09:50:36Z</time>
      </trkpt>
      <trkpt lat="41.303999" lon="-6.412545">
        <ele>646.161</ele>
        <time>2015-03-31T09:50:39Z</time>
      </trkpt>
      <trkpt lat="41.304231" lon="-6.412412">
        <ele>644.716</ele>
        <time>2015-03-31T09:50:43Z</time>
      </trkpt>
      <trkpt lat="41.304487" lon="-6.412244">
        <ele>643.351</ele>
        <time>2015-03-31T09:50:47Z</time>
      </trkpt>
      <trkpt lat="41.304987" lon="-6.411965">
        <ele>640.495</ele>
        <time>2015-03-31T09:50:54Z</time>
      </trkpt>
      <trkpt lat="41.305279" lon="-6.411784">
        <ele>638.529</ele>
        <time>2015-03-31T09:50:58Z</time>
      </trkpt>
      <trkpt lat="41.305875" lon="-6.411425">
        <ele>637.064</ele>
        <time>2015-03-31T09:51:07Z</time>
      </trkpt>
      <trkpt lat="41.306484" lon="-6.410960">
        <ele>637.026</ele>
        <time>2015-03-31T09:51:18Z</time>
      </trkpt>
      <trkpt lat="41.306928" lon="-6.410500">
        <ele>638.941</ele>
        <time>2015-03-31T09:51:28Z</time>
      </trkpt>
      <trkpt lat="41.306964" lon="-6.410452">
        <ele>639.481</ele>
        <time>2015-03-31T09:51:29Z</time>
      </trkpt>
      <trkpt lat="41.307288" lon="-6.410005">
        <ele>641.809</ele>
        <time>2015-03-31T09:51:40Z</time>
      </trkpt>
      <trkpt lat="41.307544" lon="-6.409630">
        <ele>644.707</ele>
        <time>2015-03-31T09:51:51Z</time>
      </trkpt>
      <trkpt lat="41.307744" lon="-6.409308">
        <ele>646.653</ele>
        <time>2015-03-31T09:52:01Z</time>
      </trkpt>
      <trkpt lat="41.307938" lon="-6.408996">
        <ele>648.688</ele>
        <time>2015-03-31T09:52:11Z</time>
      </trkpt>
      <trkpt lat="41.308182" lon="-6.408627">
        <ele>651.093</ele>
        <time>2015-03-31T09:52:24Z</time>
      </trkpt>
      <trkpt lat="41.308309" lon="-6.408409">
        <ele>652.467</ele>
        <time>2015-03-31T09:52:32Z</time>
      </trkpt>
      <trkpt lat="41.308434" lon="-6.408234">
        <ele>653.861</ele>
        <time>2015-03-31T09:52:40Z</time>
      </trkpt>
      <trkpt lat="41.308523" lon="-6.408109">
        <ele>654.866</ele>
        <time>2015-03-31T09:52:46Z</time>
      </trkpt>
      <trkpt lat="41.308532" lon="-6.408087">
        <ele>654.878</ele>
        <time>2015-03-31T09:52:47Z</time>
      </trkpt>
      <trkpt lat="41.308544" lon="-6.408065">
        <ele>655.398</ele>
        <time>2015-03-31T09:52:48Z</time>
      </trkpt>
      <trkpt lat="41.308560" lon="-6.408043">
        <ele>655.315</ele>
        <time>2015-03-31T09:52:49Z</time>
      </trkpt>
      <trkpt lat="41.308575" lon="-6.408021">
        <ele>655.326</ele>
        <time>2015-03-31T09:52:50Z</time>
      </trkpt>
      <trkpt lat="41.308588" lon="-6.407997">
        <ele>655.807</ele>
        <time>2015-03-31T09:52:51Z</time>
      </trkpt>
      <trkpt lat="41.308602" lon="-6.407974">
        <ele>655.848</ele>
        <time>2015-03-31T09:52:52Z</time>
      </trkpt>
      <trkpt lat="41.308621" lon="-6.407951">
        <ele>655.883</ele>
        <time>2015-03-31T09:52:53Z</time>
      </trkpt>
      <trkpt lat="41.308646" lon="-6.407931">
        <ele>656.218</ele>
        <time>2015-03-31T09:52:54Z</time>
      </trkpt>
      <trkpt lat="41.308670" lon="-6.407910">
        <ele>655.862</ele>
        <time>2015-03-31T09:52:55Z</time>
      </trkpt>
      <trkpt lat="41.308853" lon="-6.407699">
        <ele>658.216</ele>
        <time>2015-03-31T09:53:04Z</time>
      </trkpt>
      <trkpt lat="41.309043" lon="-6.407474">
        <ele>659.121</ele>
        <time>2015-03-31T09:53:14Z</time>
      </trkpt>
      <trkpt lat="41.309262" lon="-6.407235">
        <ele>660.613</ele>
        <time>2015-03-31T09:53:25Z</time>
      </trkpt>
      <trkpt lat="41.309487" lon="-6.406980">
        <ele>661.543</ele>
        <time>2015-03-31T09:53:36Z</time>
      </trkpt>
      <trkpt lat="41.309705" lon="-6.406731">
        <ele>662.564</ele>
        <time>2015-03-31T09:53:46Z</time>
      </trkpt>
      <trkpt lat="41.310042" lon="-6.406361">
        <ele>663.510</ele>
        <time>2015-03-31T09:54:01Z</time>
      </trkpt>
      <trkpt lat="41.310378" lon="-6.405983">
        <ele>663.907</ele>
        <time>2015-03-31T09:54:14Z</time>
      </trkpt>
      <trkpt lat="41.310733" lon="-6.405574">
        <ele>664.413</ele>
        <time>2015-03-31T09:54:28Z</time>
      </trkpt>
      <trkpt lat="41.311045" lon="-6.405152">
        <ele>664.498</ele>
        <time>2015-03-31T09:54:41Z</time>
      </trkpt>
      <trkpt lat="41.311284" lon="-6.404778">
        <ele>664.913</ele>
        <time>2015-03-31T09:54:52Z</time>
      </trkpt>
      <trkpt lat="41.311563" lon="-6.404215">
        <ele>664.957</ele>
        <time>2015-03-31T09:55:07Z</time>
      </trkpt>
      <trkpt lat="41.311749" lon="-6.403681">
        <ele>665.491</ele>
        <time>2015-03-31T09:55:20Z</time>
      </trkpt>
      <trkpt lat="41.311868" lon="-6.403234">
        <ele>665.466</ele>
        <time>2015-03-31T09:55:31Z</time>
      </trkpt>
      <trkpt lat="41.311974" lon="-6.402823">
        <ele>665.988</ele>
        <time>2015-03-31T09:55:41Z</time>
      </trkpt>
      <trkpt lat="41.312072" lon="-6.402435">
        <ele>665.996</ele>
        <time>2015-03-31T09:55:52Z</time>
      </trkpt>
      <trkpt lat="41.312153" lon="-6.402089">
        <ele>665.931</ele>
        <time>2015-03-31T09:56:03Z</time>
      </trkpt>
      <trkpt lat="41.312194" lon="-6.401937">
        <ele>665.924</ele>
        <time>2015-03-31T09:56:08Z</time>
      </trkpt>
      <trkpt lat="41.312200" lon="-6.401914">
        <ele>665.907</ele>
        <time>2015-03-31T09:56:09Z</time>
      </trkpt>
      <trkpt lat="41.312196" lon="-6.401890">
        <ele>665.978</ele>
        <time>2015-03-31T09:56:16Z</time>
      </trkpt>
      <trkpt lat="41.312208" lon="-6.401799">
        <ele>666.383</ele>
        <time>2015-03-31T09:56:33Z</time>
      </trkpt>
      <trkpt lat="41.312203" lon="-6.401766">
        <ele>665.988</ele>
        <time>2015-03-31T09:56:45Z</time>
      </trkpt>
      <trkpt lat="41.312204" lon="-6.401769">
        <ele>665.932</ele>
        <time>2015-03-31T09:57:11Z</time>
      </trkpt>
      <trkpt lat="41.312211" lon="-6.401767">
        <ele>665.966</ele>
        <time>2015-03-31T09:57:32Z</time>
      </trkpt>
      <trkpt lat="41.312213" lon="-6.401767">
        <ele>665.911</ele>
        <time>2015-03-31T09:57:54Z</time>
      </trkpt>
      <trkpt lat="41.312215" lon="-6.401769">
        <ele>665.953</ele>
        <time>2015-03-31T09:58:18Z</time>
      </trkpt>
      <trkpt lat="41.312219" lon="-6.401772">
        <ele>665.928</ele>
        <time>2015-03-31T09:58:40Z</time>
      </trkpt>
      <trkpt lat="41.312225" lon="-6.401772">
        <ele>666.389</ele>
        <time>2015-03-31T09:58:54Z</time>
      </trkpt>
      <trkpt lat="41.312237" lon="-6.401733">
        <ele>667.317</ele>
        <time>2015-03-31T09:59:04Z</time>
      </trkpt>
      <trkpt lat="41.312247" lon="-6.401725">
        <ele>666.307</ele>
        <time>2015-03-31T09:59:23Z</time>
      </trkpt>
      <trkpt lat="41.312248" lon="-6.401725">
        <ele>661.591</ele>
        <time>2015-03-31T09:59:25Z</time>
      </trkpt>
      <trkpt lat="41.312248" lon="-6.401726">
        <ele>669.716</ele>
        <time>2015-03-31T09:59:26Z</time>
      </trkpt>
      <trkpt lat="41.312247" lon="-6.401726">
        <ele>666.351</ele>
        <time>2015-03-31T09:59:28Z</time>
      </trkpt>
      <trkpt lat="41.312255" lon="-6.401717">
        <ele>666.325</ele>
        <time>2015-03-31T09:59:30Z</time>
      </trkpt>
      <trkpt lat="41.312296" lon="-6.401555">
        <ele>666.369</ele>
        <time>2015-03-31T09:59:39Z</time>
      </trkpt>
      <trkpt lat="41.312396" lon="-6.401263">
        <ele>666.314</ele>
        <time>2015-03-31T09:59:50Z</time>
      </trkpt>
      <trkpt lat="41.312594" lon="-6.400922">
        <ele>665.476</ele>
        <time>2015-03-31T10:00:02Z</time>
      </trkpt>
      <trkpt lat="41.312905" lon="-6.400594">
        <ele>664.953</ele>
        <time>2015-03-31T10:00:14Z</time>
      </trkpt>
      <trkpt lat="41.313249" lon="-6.400313">
        <ele>664.404</ele>
        <time>2015-03-31T10:00:26Z</time>
      </trkpt>
      <trkpt lat="41.313608" lon="-6.400023">
        <ele>663.914</ele>
        <time>2015-03-31T10:00:39Z</time>
      </trkpt>
      <trkpt lat="41.313897" lon="-6.399857">
        <ele>663.907</ele>
        <time>2015-03-31T10:00:50Z</time>
      </trkpt>
      <trkpt lat="41.314211" lon="-6.399779">
        <ele>664.494</ele>
        <time>2015-03-31T10:01:02Z</time>
      </trkpt>
      <trkpt lat="41.314479" lon="-6.399816">
        <ele>664.969</ele>
        <time>2015-03-31T10:01:12Z</time>
      </trkpt>
      <trkpt lat="41.314812" lon="-6.399842">
        <ele>665.444</ele>
        <time>2015-03-31T10:01:24Z</time>
      </trkpt>
      <trkpt lat="41.315051" lon="-6.399857">
        <ele>665.478</ele>
        <time>2015-03-31T10:01:33Z</time>
      </trkpt>
      <trkpt lat="41.315371" lon="-6.399866">
        <ele>665.422</ele>
        <time>2015-03-31T10:01:44Z</time>
      </trkpt>
      <trkpt lat="41.315812" lon="-6.399900">
        <ele>664.497</ele>
        <time>2015-03-31T10:01:56Z</time>
      </trkpt>
      <trkpt lat="41.315840" lon="-6.399893">
        <ele>664.449</ele>
        <time>2015-03-31T10:01:57Z</time>
      </trkpt>
      <trkpt lat="41.315870" lon="-6.399889">
        <ele>664.469</ele>
        <time>2015-03-31T10:01:58Z</time>
      </trkpt>
      <trkpt lat="41.315900" lon="-6.399889">
        <ele>664.404</ele>
        <time>2015-03-31T10:01:59Z</time>
      </trkpt>
      <trkpt lat="41.315931" lon="-6.399889">
        <ele>664.424</ele>
        <time>2015-03-31T10:02:00Z</time>
      </trkpt>
      <trkpt lat="41.316301" lon="-6.399897">
        <ele>664.907</ele>
        <time>2015-03-31T10:02:12Z</time>
      </trkpt>
      <trkpt lat="41.316532" lon="-6.399705">
        <ele>663.535</ele>
        <time>2015-03-31T10:02:21Z</time>
      </trkpt>
      <trkpt lat="41.316709" lon="-6.399341">
        <ele>660.670</ele>
        <time>2015-03-31T10:02:32Z</time>
      </trkpt>
      <trkpt lat="41.316853" lon="-6.399108">
        <ele>658.245</ele>
        <time>2015-03-31T10:02:41Z</time>
      </trkpt>
      <trkpt lat="41.317021" lon="-6.399018">
        <ele>656.759</ele>
        <time>2015-03-31T10:02:50Z</time>
      </trkpt>
      <trkpt lat="41.317167" lon="-6.399121">
        <ele>655.873</ele>
        <time>2015-03-31T10:02:58Z</time>
      </trkpt>
      <trkpt lat="41.317167" lon="-6.399126">
        <ele>655.818</ele>
        <time>2015-03-31T10:03:13Z</time>
      </trkpt>
      <trkpt lat="41.317173" lon="-6.399131">
        <ele>655.350</ele>
        <time>2015-03-31T10:03:37Z</time>
      </trkpt>
      <trkpt lat="41.317177" lon="-6.399150">
        <ele>655.394</ele>
        <time>2015-03-31T10:03:38Z</time>
      </trkpt>
      <trkpt lat="41.317174" lon="-6.399170">
        <ele>655.357</ele>
        <time>2015-03-31T10:03:39Z</time>
      </trkpt>
      <trkpt lat="41.317163" lon="-6.399182">
        <ele>655.822</ele>
        <time>2015-03-31T10:03:40Z</time>
      </trkpt>
      <trkpt lat="41.317150" lon="-6.399185">
        <ele>655.807</ele>
        <time>2015-03-31T10:03:41Z</time>
      </trkpt>
      <trkpt lat="41.317133" lon="-6.399180">
        <ele>655.868</ele>
        <time>2015-03-31T10:03:42Z</time>
      </trkpt>
      <trkpt lat="41.317114" lon="-6.399168">
        <ele>655.823</ele>
        <time>2015-03-31T10:03:43Z</time>
      </trkpt>
      <trkpt lat="41.317098" lon="-6.399154">
        <ele>656.218</ele>
        <time>2015-03-31T10:03:44Z</time>
      </trkpt>
      <trkpt lat="41.317087" lon="-6.399141">
        <ele>656.212</ele>
        <time>2015-03-31T10:03:45Z</time>
      </trkpt>
      <trkpt lat="41.316904" lon="-6.398967">
        <ele>657.796</ele>
        <time>2015-03-31T10:03:57Z</time>
      </trkpt>
      <trkpt lat="41.316875" lon="-6.398897">
        <ele>658.271</ele>
        <time>2015-03-31T10:04:00Z</time>
      </trkpt>
      <trkpt lat="41.316861" lon="-6.398874">
        <ele>658.693</ele>
        <time>2015-03-31T10:04:01Z</time>
      </trkpt>
      <trkpt lat="41.316850" lon="-6.398851">
        <ele>658.628</ele>
        <time>2015-03-31T10:04:02Z</time>
      </trkpt>
      <trkpt lat="41.316841" lon="-6.398826">
        <ele>659.189</ele>
        <time>2015-03-31T10:04:03Z</time>
      </trkpt>
      <trkpt lat="41.316833" lon="-6.398802">
        <ele>659.117</ele>
        <time>2015-03-31T10:04:04Z</time>
      </trkpt>
      <trkpt lat="41.316723" lon="-6.398530">
        <ele>661.007</ele>
        <time>2015-03-31T10:04:15Z</time>
      </trkpt>
      <trkpt lat="41.316678" lon="-6.398386">
        <ele>661.581</ele>
        <time>2015-03-31T10:04:21Z</time>
      </trkpt>
      <trkpt lat="41.316711" lon="-6.398113">
        <ele>663.026</ele>
        <time>2015-03-31T10:04:32Z</time>
      </trkpt>
      <trkpt lat="41.316739" lon="-6.397997">
        <ele>663.951</ele>
        <time>2015-03-31T10:04:37Z</time>
      </trkpt>
      <trkpt lat="41.316736" lon="-6.397974">
        <ele>663.935</ele>
        <time>2015-03-31T10:04:38Z</time>
      </trkpt>
      <trkpt lat="41.316733" lon="-6.397949">
        <ele>663.959</ele>
        <time>2015-03-31T10:04:39Z</time>
      </trkpt>
      <trkpt lat="41.316728" lon="-6.397928">
        <ele>663.944</ele>
        <time>2015-03-31T10:04:40Z</time>
      </trkpt>
      <trkpt lat="41.316719" lon="-6.397905">
        <ele>663.976</ele>
        <time>2015-03-31T10:04:41Z</time>
      </trkpt>
      <trkpt lat="41.316714" lon="-6.397881">
        <ele>663.912</ele>
        <time>2015-03-31T10:04:42Z</time>
      </trkpt>
      <trkpt lat="41.316704" lon="-6.397859">
        <ele>664.432</ele>
        <time>2015-03-31T10:04:43Z</time>
      </trkpt>
      <trkpt lat="41.316693" lon="-6.397836">
        <ele>664.405</ele>
        <time>2015-03-31T10:04:44Z</time>
      </trkpt>
      <trkpt lat="41.316685" lon="-6.397815">
        <ele>664.407</ele>
        <time>2015-03-31T10:04:45Z</time>
      </trkpt>
      <trkpt lat="41.316587" lon="-6.397631">
        <ele>665.450</ele>
        <time>2015-03-31T10:04:55Z</time>
      </trkpt>
      <trkpt lat="41.316588" lon="-6.397610">
        <ele>665.965</ele>
        <time>2015-03-31T10:05:00Z</time>
      </trkpt>
      <trkpt lat="41.316598" lon="-6.397604">
        <ele>665.460</ele>
        <time>2015-03-31T10:05:01Z</time>
      </trkpt>
      <trkpt lat="41.316619" lon="-6.397600">
        <ele>665.414</ele>
        <time>2015-03-31T10:05:12Z</time>
      </trkpt>
      <trkpt lat="41.316629" lon="-6.397595">
        <ele>665.438</ele>
        <time>2015-03-31T10:05:28Z</time>
      </trkpt>
      <trkpt lat="41.316645" lon="-6.397569">
        <ele>665.483</ele>
        <time>2015-03-31T10:05:55Z</time>
      </trkpt>
      <trkpt lat="41.316656" lon="-6.397562">
        <ele>665.455</ele>
        <time>2015-03-31T10:06:22Z</time>
      </trkpt>
      <trkpt lat="41.316655" lon="-6.397566">
        <ele>665.989</ele>
        <time>2015-03-31T10:06:43Z</time>
      </trkpt>
      <trkpt lat="41.316657" lon="-6.397564">
        <ele>665.906</ele>
        <time>2015-03-31T10:07:02Z</time>
      </trkpt>
      <trkpt lat="41.316667" lon="-6.397574">
        <ele>665.426</ele>
        <time>2015-03-31T10:07:08Z</time>
      </trkpt>
      <trkpt lat="41.316780" lon="-6.397786">
        <ele>664.407</ele>
        <time>2015-03-31T10:07:18Z</time>
      </trkpt>
      <trkpt lat="41.316784" lon="-6.397866">
        <ele>664.437</ele>
        <time>2015-03-31T10:07:21Z</time>
      </trkpt>
      <trkpt lat="41.316790" lon="-6.397893">
        <ele>664.452</ele>
        <time>2015-03-31T10:07:22Z</time>
      </trkpt>
      <trkpt lat="41.316794" lon="-6.397921">
        <ele>663.987</ele>
        <time>2015-03-31T10:07:23Z</time>
      </trkpt>
      <trkpt lat="41.316796" lon="-6.397948">
        <ele>663.951</ele>
        <time>2015-03-31T10:07:24Z</time>
      </trkpt>
      <trkpt lat="41.316797" lon="-6.397971">
        <ele>663.995</ele>
        <time>2015-03-31T10:07:25Z</time>
      </trkpt>
      <trkpt lat="41.316819" lon="-6.398038">
        <ele>663.510</ele>
        <time>2015-03-31T10:07:29Z</time>
      </trkpt>
      <trkpt lat="41.317022" lon="-6.398164">
        <ele>663.582</ele>
        <time>2015-03-31T10:07:40Z</time>
      </trkpt>
      <trkpt lat="41.317116" lon="-6.398223">
        <ele>663.044</ele>
        <time>2015-03-31T10:07:49Z</time>
      </trkpt>
      <trkpt lat="41.317276" lon="-6.398330">
        <ele>663.505</ele>
        <time>2015-03-31T10:08:00Z</time>
      </trkpt>
      <trkpt lat="41.317447" lon="-6.398446">
        <ele>663.515</ele>
        <time>2015-03-31T10:08:10Z</time>
      </trkpt>
      <trkpt lat="41.317477" lon="-6.398463">
        <ele>663.907</ele>
        <time>2015-03-31T10:08:13Z</time>
      </trkpt>
      <trkpt lat="41.317603" lon="-6.398601">
        <ele>665.423</ele>
        <time>2015-03-31T10:08:26Z</time>
      </trkpt>
      <trkpt lat="41.317688" lon="-6.398665">
        <ele>665.938</ele>
        <time>2015-03-31T10:08:34Z</time>
      </trkpt>
      <trkpt lat="41.317704" lon="-6.398701">
        <ele>665.963</ele>
        <time>2015-03-31T10:08:37Z</time>
      </trkpt>
      <trkpt lat="41.317743" lon="-6.398778">
        <ele>666.397</ele>
        <time>2015-03-31T10:08:46Z</time>
      </trkpt>
      <trkpt lat="41.317741" lon="-6.398769">
        <ele>666.321</ele>
        <time>2015-03-31T10:08:47Z</time>
      </trkpt>
      <trkpt lat="41.317706" lon="-6.398722">
        <ele>665.946</ele>
        <time>2015-03-31T10:08:56Z</time>
      </trkpt>
      <trkpt lat="41.317698" lon="-6.398719">
        <ele>665.948</ele>
        <time>2015-03-31T10:09:08Z</time>
      </trkpt>
      <trkpt lat="41.317698" lon="-6.398676">
        <ele>665.951</ele>
        <time>2015-03-31T10:09:11Z</time>
      </trkpt>
      <trkpt lat="41.317714" lon="-6.398661">
        <ele>666.301</ele>
        <time>2015-03-31T10:09:19Z</time>
      </trkpt>
      <trkpt lat="41.317711" lon="-6.398681">
        <ele>666.311</ele>
        <time>2015-03-31T10:09:30Z</time>
      </trkpt>
      <trkpt lat="41.317706" lon="-6.398685">
        <ele>666.307</ele>
        <time>2015-03-31T10:09:40Z</time>
      </trkpt>
      <trkpt lat="41.317709" lon="-6.398720">
        <ele>666.364</ele>
        <time>2015-03-31T10:09:43Z</time>
      </trkpt>
      <trkpt lat="41.317786" lon="-6.398915">
        <ele>666.339</ele>
        <time>2015-03-31T10:09:55Z</time>
      </trkpt>
      <trkpt lat="41.317814" lon="-6.399014">
        <ele>666.824</ele>
        <time>2015-03-31T10:10:01Z</time>
      </trkpt>
      <trkpt lat="41.317840" lon="-6.399122">
        <ele>666.848</ele>
        <time>2015-03-31T10:10:07Z</time>
      </trkpt>
      <trkpt lat="41.317965" lon="-6.399303">
        <ele>667.342</ele>
        <time>2015-03-31T10:10:19Z</time>
      </trkpt>
      <trkpt lat="41.318105" lon="-6.399324">
        <ele>668.337</ele>
        <time>2015-03-31T10:10:30Z</time>
      </trkpt>
      <trkpt lat="41.318107" lon="-6.399329">
        <ele>668.799</ele>
        <time>2015-03-31T10:10:40Z</time>
      </trkpt>
      <trkpt lat="41.318160" lon="-6.399332">
        <ele>668.315</ele>
        <time>2015-03-31T10:10:44Z</time>
      </trkpt>
      <trkpt lat="41.318201" lon="-6.399340">
        <ele>668.765</ele>
        <time>2015-03-31T10:10:47Z</time>
      </trkpt>
      <trkpt lat="41.318276" lon="-6.399359">
        <ele>668.711</ele>
        <time>2015-03-31T10:10:53Z</time>
      </trkpt>
      <trkpt lat="41.318316" lon="-6.399385">
        <ele>668.707</ele>
        <time>2015-03-31T10:10:56Z</time>
      </trkpt>
      <trkpt lat="41.318391" lon="-6.399380">
        <ele>669.290</ele>
        <time>2015-03-31T10:11:00Z</time>
      </trkpt>
      <trkpt lat="41.318687" lon="-6.399469">
        <ele>671.675</ele>
        <time>2015-03-31T10:11:12Z</time>
      </trkpt>
      <trkpt lat="41.318706" lon="-6.399474">
        <ele>671.660</ele>
        <time>2015-03-31T10:11:13Z</time>
      </trkpt>
      <trkpt lat="41.318811" lon="-6.399512">
        <ele>672.614</ele>
        <time>2015-03-31T10:11:22Z</time>
      </trkpt>
      <trkpt lat="41.318836" lon="-6.399529">
        <ele>672.688</ele>
        <time>2015-03-31T10:11:33Z</time>
      </trkpt>
      <trkpt lat="41.318850" lon="-6.399537">
        <ele>672.683</ele>
        <time>2015-03-31T10:11:53Z</time>
      </trkpt>
      <trkpt lat="41.318858" lon="-6.399543">
        <ele>672.635</ele>
        <time>2015-03-31T10:12:04Z</time>
      </trkpt>
      <trkpt lat="41.318865" lon="-6.399568">
        <ele>672.652</ele>
        <time>2015-03-31T10:12:12Z</time>
      </trkpt>
      <trkpt lat="41.318961" lon="-6.399562">
        <ele>673.553</ele>
        <time>2015-03-31T10:12:22Z</time>
      </trkpt>
      <trkpt lat="41.319024" lon="-6.399591">
        <ele>674.008</ele>
        <time>2015-03-31T10:12:30Z</time>
      </trkpt>
      <trkpt lat="41.319046" lon="-6.399664">
        <ele>674.007</ele>
        <time>2015-03-31T10:12:37Z</time>
      </trkpt>
      <trkpt lat="41.319085" lon="-6.399681">
        <ele>674.564</ele>
        <time>2015-03-31T10:12:48Z</time>
      </trkpt>
      <trkpt lat="41.319110" lon="-6.399690">
        <ele>675.019</ele>
        <time>2015-03-31T10:13:06Z</time>
      </trkpt>
      <trkpt lat="41.319155" lon="-6.399718">
        <ele>674.514</ele>
        <time>2015-03-31T10:13:15Z</time>
      </trkpt>
      <trkpt lat="41.319159" lon="-6.399743">
        <ele>674.558</ele>
        <time>2015-03-31T10:13:23Z</time>
      </trkpt>
      <trkpt lat="41.319153" lon="-6.399754">
        <ele>674.532</ele>
        <time>2015-03-31T10:13:39Z</time>
      </trkpt>
      <trkpt lat="41.319163" lon="-6.399749">
        <ele>674.547</ele>
        <time>2015-03-31T10:14:01Z</time>
      </trkpt>
      <trkpt lat="41.319168" lon="-6.399742">
        <ele>674.569</ele>
        <time>2015-03-31T10:14:26Z</time>
      </trkpt>
      <trkpt lat="41.319173" lon="-6.399726">
        <ele>674.526</ele>
        <time>2015-03-31T10:14:50Z</time>
      </trkpt>
      <trkpt lat="41.319190" lon="-6.399721">
        <ele>674.547</ele>
        <time>2015-03-31T10:15:18Z</time>
      </trkpt>
      <trkpt lat="41.319181" lon="-6.399716">
        <ele>674.511</ele>
        <time>2015-03-31T10:15:48Z</time>
      </trkpt>
      <trkpt lat="41.319180" lon="-6.399725">
        <ele>674.507</ele>
        <time>2015-03-31T10:16:10Z</time>
      </trkpt>
      <trkpt lat="41.319178" lon="-6.399747">
        <ele>674.561</ele>
        <time>2015-03-31T10:16:36Z</time>
      </trkpt>
      <trkpt lat="41.319161" lon="-6.399753">
        <ele>674.586</ele>
        <time>2015-03-31T10:17:00Z</time>
      </trkpt>
      <trkpt lat="41.319157" lon="-6.399731">
        <ele>674.511</ele>
        <time>2015-03-31T10:17:24Z</time>
      </trkpt>
      <trkpt lat="41.319156" lon="-6.399730">
        <ele>674.565</ele>
        <time>2015-03-31T10:17:43Z</time>
      </trkpt>
      <trkpt lat="41.319245" lon="-6.399771">
        <ele>675.039</ele>
        <time>2015-03-31T10:17:56Z</time>
      </trkpt>
      <trkpt lat="41.319252" lon="-6.399781">
        <ele>675.034</ele>
        <time>2015-03-31T10:18:06Z</time>
      </trkpt>
      <trkpt lat="41.319254" lon="-6.399788">
        <ele>675.086</ele>
        <time>2015-03-31T10:18:26Z</time>
      </trkpt>
      <trkpt lat="41.319250" lon="-6.399791">
        <ele>675.039</ele>
        <time>2015-03-31T10:18:43Z</time>
      </trkpt>
      <trkpt lat="41.319247" lon="-6.399790">
        <ele>674.501</ele>
        <time>2015-03-31T10:18:53Z</time>
      </trkpt>
      <trkpt lat="41.319270" lon="-6.399756">
        <ele>675.021</ele>
        <time>2015-03-31T10:49:28Z</time>
      </trkpt>
      <trkpt lat="41.319254" lon="-6.399770">
        <ele>675.007</ele>
        <time>2015-03-31T10:49:29Z</time>
      </trkpt>
      <trkpt lat="41.319129" lon="-6.399819">
        <ele>675.572</ele>
        <time>2015-03-31T10:49:53Z</time>
      </trkpt>
      <trkpt lat="41.319122" lon="-6.399818">
        <ele>675.067</ele>
        <time>2015-03-31T10:50:11Z</time>
      </trkpt>
      <trkpt lat="41.319116" lon="-6.399803">
        <ele>678.882</ele>
        <time>2015-03-31T10:50:17Z</time>
      </trkpt>
      <trkpt lat="41.319119" lon="-6.399804">
        <ele>679.836</ele>
        <time>2015-03-31T10:50:19Z</time>
      </trkpt>
      <trkpt lat="41.319126" lon="-6.399802">
        <ele>682.760</ele>
        <time>2015-03-31T10:50:23Z</time>
      </trkpt>
      <trkpt lat="41.319145" lon="-6.399796">
        <ele>686.065</ele>
        <time>2015-03-31T10:50:29Z</time>
      </trkpt>
      <trkpt lat="41.319147" lon="-6.399787">
        <ele>689.927</ele>
        <time>2015-03-31T10:50:37Z</time>
      </trkpt>
      <trkpt lat="41.319147" lon="-6.399783">
        <ele>689.947</ele>
        <time>2015-03-31T10:50:38Z</time>
      </trkpt>
      <trkpt lat="41.319151" lon="-6.399742">
        <ele>689.929</ele>
        <time>2015-03-31T10:50:48Z</time>
      </trkpt>
    </trkseg>
  </trk>
</gpx>
